<?xml version='1.0' encoding='UTF-8'?><gpx version="1.1" creator="JPX - https://github.com/jenetics/jpx" xmlns="http://www.topografix.com/GPX/1/1"><trk><trkseg><trkpt lat="39.4322723" lon="-3.3637739"><ele>642.0</ele><time>2026-04-19T07:09:00.375Z</time></trkpt><trkpt lat="39.4322003" lon="-3.363728"><ele>642.0</ele><time>2026-04-19T07:09:03.367Z</time></trkpt><trkpt lat="39.4321348" lon="-3.3636973"><ele>642.0</ele><time>2026-04-19T07:09:42.353Z</time></trkpt><trkpt lat="39.4320146" lon="-3.3636591"><ele>642.0</ele><time>2026-04-19T07:09:44.376Z</time></trkpt><trkpt lat="39.4319395" lon="-3.3636549"><ele>642.0</ele><time>2026-04-19T07:09:45.379Z</time></trkpt><trkpt lat="39.4318561" lon="-3.3636569"><ele>642.0</ele><time>2026-04-19T07:09:46.368Z</time></trkpt><trkpt lat="39.4317628" lon="-3.363651"><ele>642.0</ele><time>2026-04-19T07:09:47.371Z</time></trkpt><trkpt lat="39.4316604" lon="-3.363653"><ele>642.0</ele><time>2026-04-19T07:09:48.367Z</time></trkpt><trkpt lat="39.4315527" lon="-3.3636772"><ele>642.0</ele><time>2026-04-19T07:09:49.368Z</time></trkpt><trkpt lat="39.4314375" lon="-3.3637197"><ele>642.0</ele><time>2026-04-19T07:09:50.368Z</time></trkpt><trkpt lat="39.431322" lon="-3.3637695"><ele>642.2</ele><time>2026-04-19T07:09:51.369Z</time></trkpt><trkpt lat="39.4312129" lon="-3.3638135"><ele>642.4000000000001</ele><time>2026-04-19T07:09:52.367Z</time></trkpt><trkpt lat="39.4311147" lon="-3.3638546"><ele>642.5999999999999</ele><time>2026-04-19T07:09:53.367Z</time></trkpt><trkpt lat="39.4310232" lon="-3.3638966"><ele>642.8</ele><time>2026-04-19T07:09:54.365Z</time></trkpt><trkpt lat="39.4309396" lon="-3.3639364"><ele>643.0</ele><time>2026-04-19T07:09:55.373Z</time></trkpt><trkpt lat="39.4308615" lon="-3.363988"><ele>643.3333333333334</ele><time>2026-04-19T07:09:56.366Z</time></trkpt><trkpt lat="39.4307883" lon="-3.3640427"><ele>643.6666666666667</ele><time>2026-04-19T07:09:57.369Z</time></trkpt><trkpt lat="39.4307161" lon="-3.3640841"><ele>644.0</ele><time>2026-04-19T07:09:58.369Z</time></trkpt><trkpt lat="39.4306345" lon="-3.3641103"><ele>644.3333333333334</ele><time>2026-04-19T07:09:59.365Z</time></trkpt><trkpt lat="39.4305468" lon="-3.3641183"><ele>644.6666666666666</ele><time>2026-04-19T07:10:00.366Z</time></trkpt><trkpt lat="39.4304577" lon="-3.3641085"><ele>645.0</ele><time>2026-04-19T07:10:01.366Z</time></trkpt><trkpt lat="39.4303675" lon="-3.3640885"><ele>645.0</ele><time>2026-04-19T07:10:02.364Z</time></trkpt><trkpt lat="39.4302719" lon="-3.364069"><ele>645.0</ele><time>2026-04-19T07:10:03.369Z</time></trkpt><trkpt lat="39.430171" lon="-3.364052"><ele>645.0</ele><time>2026-04-19T07:10:04.368Z</time></trkpt><trkpt lat="39.4300672" lon="-3.3640332"><ele>645.0</ele><time>2026-04-19T07:10:05.37Z</time></trkpt><trkpt lat="39.429962" lon="-3.3640094"><ele>645.0</ele><time>2026-04-19T07:10:06.368Z</time></trkpt><trkpt lat="39.4298612" lon="-3.3639861"><ele>645.0</ele><time>2026-04-19T07:10:07.365Z</time></trkpt><trkpt lat="39.4297637" lon="-3.3639682"><ele>645.0</ele><time>2026-04-19T07:10:08.381Z</time></trkpt><trkpt lat="39.4296728" lon="-3.3639528"><ele>645.0</ele><time>2026-04-19T07:10:09.373Z</time></trkpt><trkpt lat="39.4295851" lon="-3.3639384"><ele>645.0</ele><time>2026-04-19T07:10:10.375Z</time></trkpt><trkpt lat="39.4295043" lon="-3.3639638"><ele>645.0</ele><time>2026-04-19T07:10:11.375Z</time></trkpt><trkpt lat="39.4294256" lon="-3.363983"><ele>645.0</ele><time>2026-04-19T07:10:12.375Z</time></trkpt><trkpt lat="39.429335" lon="-3.3640077"><ele>645.2</ele><time>2026-04-19T07:10:13.365Z</time></trkpt><trkpt lat="39.4292297" lon="-3.3640371"><ele>645.4</ele><time>2026-04-19T07:10:14.371Z</time></trkpt><trkpt lat="39.4291245" lon="-3.3640679"><ele>645.5999999999999</ele><time>2026-04-19T07:10:15.37Z</time></trkpt><trkpt lat="39.4290149" lon="-3.3641007"><ele>645.8</ele><time>2026-04-19T07:10:16.374Z</time></trkpt><trkpt lat="39.4289055" lon="-3.3641307"><ele>646.0</ele><time>2026-04-19T07:10:17.375Z</time></trkpt><trkpt lat="39.4287963" lon="-3.3641556"><ele>646.0</ele><time>2026-04-19T07:10:18.361Z</time></trkpt><trkpt lat="39.4286899" lon="-3.3641776"><ele>646.0</ele><time>2026-04-19T07:10:19.374Z</time></trkpt><trkpt lat="39.4285891" lon="-3.3641949"><ele>646.0</ele><time>2026-04-19T07:10:20.366Z</time></trkpt><trkpt lat="39.4284955" lon="-3.3642052"><ele>646.0</ele><time>2026-04-19T07:10:21.363Z</time></trkpt><trkpt lat="39.4284086" lon="-3.3642021"><ele>646.0</ele><time>2026-04-19T07:10:22.371Z</time></trkpt><trkpt lat="39.4283326" lon="-3.3641838"><ele>646.0</ele><time>2026-04-19T07:10:23.364Z</time></trkpt><trkpt lat="39.4282573" lon="-3.3641503"><ele>646.0</ele><time>2026-04-19T07:10:24.364Z</time></trkpt><trkpt lat="39.4281801" lon="-3.3641127"><ele>646.0</ele><time>2026-04-19T07:10:25.373Z</time></trkpt><trkpt lat="39.4280879" lon="-3.3640555"><ele>646.0</ele><time>2026-04-19T07:10:26.362Z</time></trkpt><trkpt lat="39.4279973" lon="-3.3639949"><ele>646.0</ele><time>2026-04-19T07:10:27.367Z</time></trkpt><trkpt lat="39.4279059" lon="-3.3639369"><ele>646.0</ele><time>2026-04-19T07:10:28.367Z</time></trkpt><trkpt lat="39.4278143" lon="-3.3638804"><ele>646.0</ele><time>2026-04-19T07:10:29.365Z</time></trkpt><trkpt lat="39.4277292" lon="-3.3638253"><ele>646.0</ele><time>2026-04-19T07:10:30.371Z</time></trkpt><trkpt lat="39.4276557" lon="-3.3637625"><ele>646.0</ele><time>2026-04-19T07:10:31.368Z</time></trkpt><trkpt lat="39.4275909" lon="-3.3636975"><ele>646.0</ele><time>2026-04-19T07:10:32.37Z</time></trkpt><trkpt lat="39.4275328" lon="-3.3636346"><ele>646.0</ele><time>2026-04-19T07:10:33.361Z</time></trkpt><trkpt lat="39.4274801" lon="-3.3635759"><ele>646.0000000000001</ele><time>2026-04-19T07:10:34.373Z</time></trkpt><trkpt lat="39.4274322" lon="-3.3635155"><ele>646.0</ele><time>2026-04-19T07:10:35.368Z</time></trkpt><trkpt lat="39.4273904" lon="-3.3634469"><ele>646.0</ele><time>2026-04-19T07:10:36.369Z</time></trkpt><trkpt lat="39.4273527" lon="-3.3633683"><ele>646.0</ele><time>2026-04-19T07:10:37.363Z</time></trkpt><trkpt lat="39.4273017" lon="-3.3633002"><ele>646.0</ele><time>2026-04-19T07:10:38.375Z</time></trkpt><trkpt lat="39.4272351" lon="-3.3632501"><ele>646.0000000000001</ele><time>2026-04-19T07:10:39.361Z</time></trkpt><trkpt lat="39.4271612" lon="-3.3632055"><ele>646.0</ele><time>2026-04-19T07:10:40.374Z</time></trkpt><trkpt lat="39.4270809" lon="-3.3631566"><ele>646.0</ele><time>2026-04-19T07:10:41.365Z</time></trkpt><trkpt lat="39.4269979" lon="-3.3631075"><ele>646.0</ele><time>2026-04-19T07:10:42.369Z</time></trkpt><trkpt lat="39.4269175" lon="-3.3630596"><ele>646.0</ele><time>2026-04-19T07:10:43.37Z</time></trkpt><trkpt lat="39.4268423" lon="-3.3630111"><ele>646.0</ele><time>2026-04-19T07:10:44.365Z</time></trkpt><trkpt lat="39.4267728" lon="-3.3629657"><ele>646.0</ele><time>2026-04-19T07:10:45.37Z</time></trkpt><trkpt lat="39.4267073" lon="-3.3629259"><ele>646.0</ele><time>2026-04-19T07:10:46.373Z</time></trkpt><trkpt lat="39.4266473" lon="-3.3628916"><ele>646.0</ele><time>2026-04-19T07:10:47.368Z</time></trkpt><trkpt lat="39.4265351" lon="-3.3628368"><ele>646.0</ele><time>2026-04-19T07:10:49.364Z</time></trkpt><trkpt lat="39.4264525" lon="-3.3627953"><ele>646.0</ele><time>2026-04-19T07:10:51.368Z</time></trkpt><trkpt lat="39.4263773" lon="-3.3627559"><ele>646.0</ele><time>2026-04-19T07:11:08.366Z</time></trkpt><trkpt lat="39.4262921" lon="-3.3627101"><ele>646.0</ele><time>2026-04-19T07:11:10.369Z</time></trkpt><trkpt lat="39.4262045" lon="-3.3626561"><ele>646.0</ele><time>2026-04-19T07:11:12.371Z</time></trkpt><trkpt lat="39.4261589" lon="-3.3625384"><ele>646.0</ele><time>2026-04-19T07:11:14.361Z</time></trkpt><trkpt lat="39.4261433" lon="-3.3623885"><ele>646.0</ele><time>2026-04-19T07:11:16.366Z</time></trkpt><trkpt lat="39.4261368" lon="-3.3623033"><ele>646.0</ele><time>2026-04-19T07:11:17.371Z</time></trkpt><trkpt lat="39.4261302" lon="-3.3622133"><ele>646.0</ele><time>2026-04-19T07:11:18.359Z</time></trkpt><trkpt lat="39.4261196" lon="-3.3621092"><ele>646.0</ele><time>2026-04-19T07:11:19.371Z</time></trkpt><trkpt lat="39.4261124" lon="-3.3620005"><ele>646.1666666666667</ele><time>2026-04-19T07:11:20.367Z</time></trkpt><trkpt lat="39.4261068" lon="-3.3618909"><ele>646.3333333333334</ele><time>2026-04-19T07:11:21.373Z</time></trkpt><trkpt lat="39.426097" lon="-3.3617767"><ele>646.5</ele><time>2026-04-19T07:11:22.368Z</time></trkpt><trkpt lat="39.4260854" lon="-3.3616606"><ele>646.6666666666666</ele><time>2026-04-19T07:11:23.371Z</time></trkpt><trkpt lat="39.4260747" lon="-3.3615411"><ele>646.8333333333333</ele><time>2026-04-19T07:11:24.366Z</time></trkpt><trkpt lat="39.4260665" lon="-3.3614227"><ele>647.0</ele><time>2026-04-19T07:11:25.363Z</time></trkpt><trkpt lat="39.4260597" lon="-3.3613078"><ele>647.0</ele><time>2026-04-19T07:11:26.365Z</time></trkpt><trkpt lat="39.4260511" lon="-3.3612011"><ele>647.0</ele><time>2026-04-19T07:11:27.358Z</time></trkpt><trkpt lat="39.4260402" lon="-3.3610946"><ele>647.0</ele><time>2026-04-19T07:11:28.367Z</time></trkpt><trkpt lat="39.426028" lon="-3.360983"><ele>647.0</ele><time>2026-04-19T07:11:29.37Z</time></trkpt><trkpt lat="39.4260174" lon="-3.3608642"><ele>647.0</ele><time>2026-04-19T07:11:30.364Z</time></trkpt><trkpt lat="39.4260129" lon="-3.3607411"><ele>647.0</ele><time>2026-04-19T07:11:31.376Z</time></trkpt><trkpt lat="39.4260122" lon="-3.3606168"><ele>647.0</ele><time>2026-04-19T07:11:32.371Z</time></trkpt><trkpt lat="39.4260115" lon="-3.3604901"><ele>647.0</ele><time>2026-04-19T07:11:33.377Z</time></trkpt><trkpt lat="39.4260114" lon="-3.3603638"><ele>647.0</ele><time>2026-04-19T07:11:34.365Z</time></trkpt><trkpt lat="39.4260118" lon="-3.3602414"><ele>647.0</ele><time>2026-04-19T07:11:35.372Z</time></trkpt><trkpt lat="39.426014" lon="-3.360126"><ele>647.0</ele><time>2026-04-19T07:11:36.364Z</time></trkpt><trkpt lat="39.4260177" lon="-3.3600165"><ele>647.0</ele><time>2026-04-19T07:11:37.376Z</time></trkpt><trkpt lat="39.4260207" lon="-3.3599154"><ele>647.0</ele><time>2026-04-19T07:11:38.368Z</time></trkpt><trkpt lat="39.4260224" lon="-3.3598206"><ele>647.0</ele><time>2026-04-19T07:11:39.369Z</time></trkpt><trkpt lat="39.4260232" lon="-3.3597332"><ele>647.0</ele><time>2026-04-19T07:11:40.371Z</time></trkpt><trkpt lat="39.4260231" lon="-3.3596459"><ele>647.0</ele><time>2026-04-19T07:11:41.375Z</time></trkpt><trkpt lat="39.4260216" lon="-3.3595588"><ele>647.0</ele><time>2026-04-19T07:11:42.368Z</time></trkpt><trkpt lat="39.4260231" lon="-3.3594748"><ele>647.0</ele><time>2026-04-19T07:11:43.372Z</time></trkpt><trkpt lat="39.4260282" lon="-3.3593229"><ele>646.8333333333333</ele><time>2026-04-19T07:11:45.374Z</time></trkpt><trkpt lat="39.4260264" lon="-3.3591717"><ele>646.6666666666666</ele><time>2026-04-19T07:11:47.362Z</time></trkpt><trkpt lat="39.4260316" lon="-3.3590119"><ele>646.5</ele><time>2026-04-19T07:11:49.364Z</time></trkpt><trkpt lat="39.4260351" lon="-3.3589296"><ele>646.3333333333334</ele><time>2026-04-19T07:11:50.373Z</time></trkpt><trkpt lat="39.4260412" lon="-3.3588455"><ele>646.1666666666667</ele><time>2026-04-19T07:11:51.367Z</time></trkpt><trkpt lat="39.426048" lon="-3.3587597"><ele>646.0</ele><time>2026-04-19T07:11:52.374Z</time></trkpt><trkpt lat="39.4260542" lon="-3.3586721"><ele>646.0</ele><time>2026-04-19T07:11:53.365Z</time></trkpt><trkpt lat="39.4260612" lon="-3.3585844"><ele>646.0</ele><time>2026-04-19T07:11:54.373Z</time></trkpt><trkpt lat="39.4260697" lon="-3.3585017"><ele>646.0</ele><time>2026-04-19T07:11:55.361Z</time></trkpt><trkpt lat="39.4260768" lon="-3.3583475"><ele>646.0</ele><time>2026-04-19T07:11:57.366Z</time></trkpt><trkpt lat="39.4260235" lon="-3.3582378"><ele>646.0</ele><time>2026-04-19T07:11:59.361Z</time></trkpt><trkpt lat="39.4259224" lon="-3.3581702"><ele>646.0</ele><time>2026-04-19T07:12:01.365Z</time></trkpt><trkpt lat="39.4258515" lon="-3.3581424"><ele>646.0</ele><time>2026-04-19T07:12:02.37Z</time></trkpt><trkpt lat="39.4257687" lon="-3.3581198"><ele>646.0</ele><time>2026-04-19T07:12:03.371Z</time></trkpt><trkpt lat="39.425688" lon="-3.3580957"><ele>646.0</ele><time>2026-04-19T07:12:04.375Z</time></trkpt><trkpt lat="39.4256081" lon="-3.3580731"><ele>646.0</ele><time>2026-04-19T07:12:05.368Z</time></trkpt><trkpt lat="39.4255301" lon="-3.3580358"><ele>646.0</ele><time>2026-04-19T07:12:06.369Z</time></trkpt><trkpt lat="39.4254569" lon="-3.3579912"><ele>645.8333333333334</ele><time>2026-04-19T07:12:07.364Z</time></trkpt><trkpt lat="39.4253791" lon="-3.3579354"><ele>645.6666666666667</ele><time>2026-04-19T07:12:08.373Z</time></trkpt><trkpt lat="39.4252908" lon="-3.3578751"><ele>645.5</ele><time>2026-04-19T07:12:09.364Z</time></trkpt><trkpt lat="39.4252119" lon="-3.3578314"><ele>645.3333333333334</ele><time>2026-04-19T07:12:10.372Z</time></trkpt><trkpt lat="39.4251397" lon="-3.3577901"><ele>645.1666666666666</ele><time>2026-04-19T07:12:11.367Z</time></trkpt><trkpt lat="39.4250672" lon="-3.357745"><ele>645.0</ele><time>2026-04-19T07:12:12.377Z</time></trkpt><trkpt lat="39.42501" lon="-3.3577022"><ele>645.0</ele><time>2026-04-19T07:12:13.373Z</time></trkpt><trkpt lat="39.424942" lon="-3.3576295"><ele>645.0</ele><time>2026-04-19T07:12:15.362Z</time></trkpt><trkpt lat="39.4249116" lon="-3.3575464"><ele>645.0</ele><time>2026-04-19T07:12:19.371Z</time></trkpt><trkpt lat="39.4248473" lon="-3.3574416"><ele>645.0</ele><time>2026-04-19T07:12:21.383Z</time></trkpt><trkpt lat="39.4248009" lon="-3.3573858"><ele>645.0</ele><time>2026-04-19T07:12:22.374Z</time></trkpt><trkpt lat="39.4247425" lon="-3.3573241"><ele>645.0</ele><time>2026-04-19T07:12:23.369Z</time></trkpt><trkpt lat="39.4246758" lon="-3.3572607"><ele>644.6666666666666</ele><time>2026-04-19T07:12:24.37Z</time></trkpt><trkpt lat="39.4246093" lon="-3.3571972"><ele>644.3333333333334</ele><time>2026-04-19T07:12:25.364Z</time></trkpt><trkpt lat="39.4245445" lon="-3.3571265"><ele>644.0</ele><time>2026-04-19T07:12:26.373Z</time></trkpt><trkpt lat="39.4244825" lon="-3.3570627"><ele>643.6666666666667</ele><time>2026-04-19T07:12:27.361Z</time></trkpt><trkpt lat="39.4244282" lon="-3.3570071"><ele>643.3333333333334</ele><time>2026-04-19T07:12:28.362Z</time></trkpt><trkpt lat="39.424376" lon="-3.3569606"><ele>643.0</ele><time>2026-04-19T07:12:29.363Z</time></trkpt><trkpt lat="39.4242866" lon="-3.35687"><ele>643.0</ele><time>2026-04-19T07:12:31.375Z</time></trkpt><trkpt lat="39.4242187" lon="-3.3567924"><ele>643.0</ele><time>2026-04-19T07:12:33.37Z</time></trkpt><trkpt lat="39.424171" lon="-3.3566652"><ele>643.0</ele><time>2026-04-19T07:12:35.372Z</time></trkpt><trkpt lat="39.4241306" lon="-3.3565201"><ele>643.0</ele><time>2026-04-19T07:12:37.373Z</time></trkpt><trkpt lat="39.4240905" lon="-3.3563978"><ele>643.0</ele><time>2026-04-19T07:12:39.367Z</time></trkpt><trkpt lat="39.4240484" lon="-3.3562863"><ele>643.0</ele><time>2026-04-19T07:12:41.362Z</time></trkpt><trkpt lat="39.4240203" lon="-3.356169"><ele>643.0</ele><time>2026-04-19T07:12:43.366Z</time></trkpt><trkpt lat="39.4239689" lon="-3.3560205"><ele>643.0</ele><time>2026-04-19T07:12:45.369Z</time></trkpt><trkpt lat="39.4239393" lon="-3.3559402"><ele>643.0</ele><time>2026-04-19T07:12:46.408Z</time></trkpt><trkpt lat="39.4239115" lon="-3.3558645"><ele>643.0</ele><time>2026-04-19T07:12:47.365Z</time></trkpt><trkpt lat="39.4238662" lon="-3.355721"><ele>643.0</ele><time>2026-04-19T07:12:49.362Z</time></trkpt><trkpt lat="39.42382" lon="-3.3555927"><ele>643.0</ele><time>2026-04-19T07:12:51.37Z</time></trkpt><trkpt lat="39.423774" lon="-3.3554911"><ele>643.0</ele><time>2026-04-19T07:12:53.377Z</time></trkpt><trkpt lat="39.4237445" lon="-3.3553928"><ele>643.0</ele><time>2026-04-19T07:12:55.377Z</time></trkpt><trkpt lat="39.4237044" lon="-3.3552821"><ele>643.0</ele><time>2026-04-19T07:12:57.376Z</time></trkpt><trkpt lat="39.4236618" lon="-3.3551597"><ele>642.0</ele><time>2026-04-19T07:12:59.379Z</time></trkpt><trkpt lat="39.4231672" lon="-3.3540029"><ele>642.0</ele><time>2026-04-19T07:13:16.379Z</time></trkpt><trkpt lat="39.4230378" lon="-3.3537067"><ele>642.0</ele><time>2026-04-19T07:14:49.375Z</time></trkpt><trkpt lat="39.4229937" lon="-3.3536341"><ele>642.0</ele><time>2026-04-19T07:14:50.368Z</time></trkpt><trkpt lat="39.4229429" lon="-3.3535568"><ele>642.0</ele><time>2026-04-19T07:14:51.368Z</time></trkpt><trkpt lat="39.4228889" lon="-3.3534708"><ele>641.8333333333334</ele><time>2026-04-19T07:14:52.364Z</time></trkpt><trkpt lat="39.4228317" lon="-3.3533793"><ele>641.6666666666666</ele><time>2026-04-19T07:14:53.371Z</time></trkpt><trkpt lat="39.4227718" lon="-3.3532866"><ele>641.5</ele><time>2026-04-19T07:14:54.365Z</time></trkpt><trkpt lat="39.4227169" lon="-3.3532009"><ele>641.3333333333333</ele><time>2026-04-19T07:14:55.377Z</time></trkpt><trkpt lat="39.4226634" lon="-3.3531134"><ele>641.1666666666666</ele><time>2026-04-19T07:14:56.365Z</time></trkpt><trkpt lat="39.4226074" lon="-3.3530185"><ele>641.0</ele><time>2026-04-19T07:14:57.374Z</time></trkpt><trkpt lat="39.4225495" lon="-3.3529198"><ele>641.0</ele><time>2026-04-19T07:14:58.361Z</time></trkpt><trkpt lat="39.4224899" lon="-3.3528212"><ele>641.0</ele><time>2026-04-19T07:14:59.373Z</time></trkpt><trkpt lat="39.4224288" lon="-3.35272"><ele>641.0</ele><time>2026-04-19T07:15:00.362Z</time></trkpt><trkpt lat="39.422365" lon="-3.352613"><ele>641.0</ele><time>2026-04-19T07:15:01.37Z</time></trkpt><trkpt lat="39.422297" lon="-3.3524996"><ele>641.0</ele><time>2026-04-19T07:15:02.364Z</time></trkpt><trkpt lat="39.4222285" lon="-3.3523839"><ele>641.0</ele><time>2026-04-19T07:15:03.375Z</time></trkpt><trkpt lat="39.4221555" lon="-3.3522595"><ele>641.0</ele><time>2026-04-19T07:15:04.365Z</time></trkpt><trkpt lat="39.4220024" lon="-3.3519985"><ele>641.0</ele><time>2026-04-19T07:15:06.375Z</time></trkpt><trkpt lat="39.4219306" lon="-3.3518819"><ele>640.8</ele><time>2026-04-19T07:15:07.375Z</time></trkpt><trkpt lat="39.4218655" lon="-3.3517758"><ele>640.5999999999999</ele><time>2026-04-19T07:15:08.361Z</time></trkpt><trkpt lat="39.4218092" lon="-3.3516846"><ele>640.4</ele><time>2026-04-19T07:15:09.366Z</time></trkpt><trkpt lat="39.4217587" lon="-3.3516093"><ele>640.2</ele><time>2026-04-19T07:15:10.375Z</time></trkpt><trkpt lat="39.4217114" lon="-3.3515508"><ele>640.0</ele><time>2026-04-19T07:15:11.37Z</time></trkpt><trkpt lat="39.4216147" lon="-3.3514692"><ele>640.0</ele><time>2026-04-19T07:15:13.368Z</time></trkpt><trkpt lat="39.4215067" lon="-3.35141"><ele>640.0</ele><time>2026-04-19T07:15:15.366Z</time></trkpt><trkpt lat="39.4213965" lon="-3.3513596"><ele>640.0</ele><time>2026-04-19T07:15:17.386Z</time></trkpt><trkpt lat="39.4212957" lon="-3.3513201"><ele>640.0</ele><time>2026-04-19T07:15:19.362Z</time></trkpt><trkpt lat="39.4212024" lon="-3.3512898"><ele>640.0</ele><time>2026-04-19T07:15:21.371Z</time></trkpt><trkpt lat="39.4211153" lon="-3.3512769"><ele>640.1666666666667</ele><time>2026-04-19T07:15:23.372Z</time></trkpt><trkpt lat="39.421046" lon="-3.3512636"><ele>640.3333333333334</ele><time>2026-04-19T07:15:25.371Z</time></trkpt><trkpt lat="39.4210418" lon="-3.3512572"><ele>640.5</ele><time>2026-04-19T07:16:51.364Z</time></trkpt><trkpt lat="39.4211818" lon="-3.3512834"><ele>640.6666666666666</ele><time>2026-04-19T07:16:53.375Z</time></trkpt><trkpt lat="39.421267" lon="-3.3513094"><ele>640.8333333333333</ele><time>2026-04-19T07:16:54.376Z</time></trkpt><trkpt lat="39.4213498" lon="-3.3513395"><ele>641.0</ele><time>2026-04-19T07:16:55.368Z</time></trkpt><trkpt lat="39.4214264" lon="-3.3513693"><ele>640.8</ele><time>2026-04-19T07:16:56.372Z</time></trkpt><trkpt lat="39.4214912" lon="-3.3514038"><ele>640.5999999999999</ele><time>2026-04-19T07:16:57.366Z</time></trkpt><trkpt lat="39.4215953" lon="-3.3514641"><ele>640.4</ele><time>2026-04-19T07:16:59.382Z</time></trkpt><trkpt lat="39.4216837" lon="-3.3515242"><ele>640.2</ele><time>2026-04-19T07:17:01.368Z</time></trkpt><trkpt lat="39.4217854" lon="-3.3516447"><ele>640.0</ele><time>2026-04-19T07:17:03.368Z</time></trkpt><trkpt lat="39.4218345" lon="-3.3517216"><ele>640.0</ele><time>2026-04-19T07:17:04.37Z</time></trkpt><trkpt lat="39.4218763" lon="-3.3517939"><ele>640.0</ele><time>2026-04-19T07:17:05.375Z</time></trkpt><trkpt lat="39.4219174" lon="-3.3518573"><ele>640.0</ele><time>2026-04-19T07:17:06.364Z</time></trkpt><trkpt lat="39.4219875" lon="-3.3519686"><ele>640.0</ele><time>2026-04-19T07:17:08.366Z</time></trkpt><trkpt lat="39.4220605" lon="-3.3520734"><ele>640.0</ele><time>2026-04-19T07:17:10.37Z</time></trkpt><trkpt lat="39.4221374" lon="-3.3521517"><ele>640.0</ele><time>2026-04-19T07:17:12.362Z</time></trkpt><trkpt lat="39.4222217" lon="-3.35216"><ele>640.0</ele><time>2026-04-19T07:17:14.367Z</time></trkpt><trkpt lat="39.4222806" lon="-3.3521304"><ele>640.0</ele><time>2026-04-19T07:17:15.369Z</time></trkpt><trkpt lat="39.4223428" lon="-3.3520779"><ele>640.0</ele><time>2026-04-19T07:17:16.374Z</time></trkpt><trkpt lat="39.4223982" lon="-3.3520039"><ele>640.0</ele><time>2026-04-19T07:17:17.371Z</time></trkpt><trkpt lat="39.4224459" lon="-3.3519165"><ele>640.0</ele><time>2026-04-19T07:17:18.381Z</time></trkpt><trkpt lat="39.4224869" lon="-3.3518231"><ele>640.0</ele><time>2026-04-19T07:17:19.368Z</time></trkpt><trkpt lat="39.4225243" lon="-3.3517318"><ele>640.0</ele><time>2026-04-19T07:17:20.367Z</time></trkpt><trkpt lat="39.4225609" lon="-3.3516511"><ele>640.0</ele><time>2026-04-19T07:17:21.383Z</time></trkpt><trkpt lat="39.4225962" lon="-3.3515796"><ele>640.0</ele><time>2026-04-19T07:17:22.37Z</time></trkpt><trkpt lat="39.4226575" lon="-3.351443"><ele>640.0</ele><time>2026-04-19T07:17:24.364Z</time></trkpt><trkpt lat="39.4226978" lon="-3.3512684"><ele>640.2</ele><time>2026-04-19T07:17:26.374Z</time></trkpt><trkpt lat="39.4226942" lon="-3.3511571"><ele>640.4</ele><time>2026-04-19T07:17:27.373Z</time></trkpt><trkpt lat="39.4226876" lon="-3.35104"><ele>640.5999999999999</ele><time>2026-04-19T07:17:28.377Z</time></trkpt><trkpt lat="39.4226659" lon="-3.3508999"><ele>640.8</ele><time>2026-04-19T07:17:29.366Z</time></trkpt><trkpt lat="39.4226405" lon="-3.3507415"><ele>641.0</ele><time>2026-04-19T07:17:30.374Z</time></trkpt><trkpt lat="39.4226149" lon="-3.3505744"><ele>641.0</ele><time>2026-04-19T07:17:31.37Z</time></trkpt><trkpt lat="39.4225903" lon="-3.3504099"><ele>641.0</ele><time>2026-04-19T07:17:32.37Z</time></trkpt><trkpt lat="39.4225629" lon="-3.3502455"><ele>641.0</ele><time>2026-04-19T07:17:33.37Z</time></trkpt><trkpt lat="39.4225274" lon="-3.350084"><ele>641.0</ele><time>2026-04-19T07:17:34.368Z</time></trkpt><trkpt lat="39.422486" lon="-3.3499269"><ele>641.0</ele><time>2026-04-19T07:17:35.377Z</time></trkpt><trkpt lat="39.4224404" lon="-3.3497734"><ele>641.0</ele><time>2026-04-19T07:17:36.379Z</time></trkpt><trkpt lat="39.4223899" lon="-3.3496168"><ele>641.0</ele><time>2026-04-19T07:17:37.362Z</time></trkpt><trkpt lat="39.422335" lon="-3.3494633"><ele>641.0</ele><time>2026-04-19T07:17:38.367Z</time></trkpt><trkpt lat="39.4222789" lon="-3.3493092"><ele>641.25</ele><time>2026-04-19T07:17:39.409Z</time></trkpt><trkpt lat="39.4222243" lon="-3.3491533"><ele>641.5</ele><time>2026-04-19T07:17:40.379Z</time></trkpt><trkpt lat="39.4221773" lon="-3.3489894"><ele>641.75</ele><time>2026-04-19T07:17:41.369Z</time></trkpt><trkpt lat="39.4221357" lon="-3.348833"><ele>642.0</ele><time>2026-04-19T07:17:42.368Z</time></trkpt><trkpt lat="39.4220927" lon="-3.3486816"><ele>641.25</ele><time>2026-04-19T07:17:43.365Z</time></trkpt><trkpt lat="39.4220494" lon="-3.3485355"><ele>640.5</ele><time>2026-04-19T07:17:44.373Z</time></trkpt><trkpt lat="39.4220089" lon="-3.3483887"><ele>639.75</ele><time>2026-04-19T07:17:45.367Z</time></trkpt><trkpt lat="39.4219635" lon="-3.3482357"><ele>639.0</ele><time>2026-04-19T07:17:46.373Z</time></trkpt><trkpt lat="39.4219178" lon="-3.3480775"><ele>639.25</ele><time>2026-04-19T07:17:47.366Z</time></trkpt><trkpt lat="39.4218714" lon="-3.3479178"><ele>639.5</ele><time>2026-04-19T07:17:48.366Z</time></trkpt><trkpt lat="39.4218237" lon="-3.3477594"><ele>639.75</ele><time>2026-04-19T07:17:49.384Z</time></trkpt><trkpt lat="39.4217749" lon="-3.3475874"><ele>640.0</ele><time>2026-04-19T07:17:50.366Z</time></trkpt><trkpt lat="39.4217205" lon="-3.3473955"><ele>640.6666666666667</ele><time>2026-04-19T07:17:51.369Z</time></trkpt><trkpt lat="39.4216553" lon="-3.3471544"><ele>641.3333333333334</ele><time>2026-04-19T07:17:52.367Z</time></trkpt><trkpt lat="39.4215884" lon="-3.3469011"><ele>642.0</ele><time>2026-04-19T07:17:53.368Z</time></trkpt><trkpt lat="39.421531" lon="-3.3466682"><ele>642.0</ele><time>2026-04-19T07:17:54.375Z</time></trkpt><trkpt lat="39.4214839" lon="-3.346456"><ele>642.0</ele><time>2026-04-19T07:17:55.374Z</time></trkpt><trkpt lat="39.4214509" lon="-3.3462558"><ele>642.0</ele><time>2026-04-19T07:17:56.371Z</time></trkpt><trkpt lat="39.4214262" lon="-3.3460322"><ele>641.0</ele><time>2026-04-19T07:17:57.381Z</time></trkpt><trkpt lat="39.4214109" lon="-3.3457858"><ele>640.0</ele><time>2026-04-19T07:17:58.367Z</time></trkpt><trkpt lat="39.4213952" lon="-3.3455405"><ele>639.0</ele><time>2026-04-19T07:17:59.375Z</time></trkpt><trkpt lat="39.4213753" lon="-3.3453241"><ele>638.6666666666666</ele><time>2026-04-19T07:18:00.374Z</time></trkpt><trkpt lat="39.4213487" lon="-3.3451209"><ele>638.3333333333333</ele><time>2026-04-19T07:18:01.37Z</time></trkpt><trkpt lat="39.4213141" lon="-3.3449357"><ele>638.0</ele><time>2026-04-19T07:18:02.37Z</time></trkpt><trkpt lat="39.4212684" lon="-3.3447574"><ele>638.0</ele><time>2026-04-19T07:18:03.369Z</time></trkpt><trkpt lat="39.4211867" lon="-3.344543"><ele>638.0</ele><time>2026-04-19T07:18:04.372Z</time></trkpt><trkpt lat="39.4210889" lon="-3.3443059"><ele>638.0</ele><time>2026-04-19T07:18:05.373Z</time></trkpt><trkpt lat="39.4209675" lon="-3.3440399"><ele>638.5</ele><time>2026-04-19T07:18:06.373Z</time></trkpt><trkpt lat="39.4208418" lon="-3.3437361"><ele>639.0</ele><time>2026-04-19T07:18:07.371Z</time></trkpt><trkpt lat="39.4207116" lon="-3.3434048"><ele>639.0</ele><time>2026-04-19T07:18:08.373Z</time></trkpt><trkpt lat="39.4205805" lon="-3.3430726"><ele>639.0</ele><time>2026-04-19T07:18:09.37Z</time></trkpt><trkpt lat="39.4204629" lon="-3.3427592"><ele>639.0</ele><time>2026-04-19T07:18:10.374Z</time></trkpt><trkpt lat="39.4203511" lon="-3.3424407"><ele>639.0</ele><time>2026-04-19T07:18:11.381Z</time></trkpt><trkpt lat="39.4202536" lon="-3.3421368"><ele>638.5</ele><time>2026-04-19T07:18:12.379Z</time></trkpt><trkpt lat="39.4201675" lon="-3.3418524"><ele>638.0</ele><time>2026-04-19T07:18:13.375Z</time></trkpt><trkpt lat="39.4200839" lon="-3.3415556"><ele>638.5</ele><time>2026-04-19T07:18:14.374Z</time></trkpt><trkpt lat="39.4199877" lon="-3.3412381"><ele>639.0</ele><time>2026-04-19T07:18:15.377Z</time></trkpt><trkpt lat="39.4198866" lon="-3.3409088"><ele>639.0</ele><time>2026-04-19T07:18:16.369Z</time></trkpt><trkpt lat="39.4197888" lon="-3.34056"><ele>639.0</ele><time>2026-04-19T07:18:17.376Z</time></trkpt><trkpt lat="39.4196919" lon="-3.3401986"><ele>638.5</ele><time>2026-04-19T07:18:18.374Z</time></trkpt><trkpt lat="39.4196006" lon="-3.3398446"><ele>638.0</ele><time>2026-04-19T07:18:19.373Z</time></trkpt><trkpt lat="39.4195057" lon="-3.3394775"><ele>638.0</ele><time>2026-04-19T07:18:20.379Z</time></trkpt><trkpt lat="39.4194049" lon="-3.3391046"><ele>638.0</ele><time>2026-04-19T07:18:21.373Z</time></trkpt><trkpt lat="39.4193052" lon="-3.3387424"><ele>637.0</ele><time>2026-04-19T07:18:22.37Z</time></trkpt><trkpt lat="39.4192036" lon="-3.3383798"><ele>636.0</ele><time>2026-04-19T07:18:23.378Z</time></trkpt><trkpt lat="39.419092" lon="-3.3380042"><ele>635.5</ele><time>2026-04-19T07:18:24.379Z</time></trkpt><trkpt lat="39.4189765" lon="-3.3376463"><ele>635.0</ele><time>2026-04-19T07:18:25.373Z</time></trkpt><trkpt lat="39.4188676" lon="-3.3373134"><ele>636.0</ele><time>2026-04-19T07:18:26.371Z</time></trkpt><trkpt lat="39.4187668" lon="-3.3370053"><ele>637.0</ele><time>2026-04-19T07:18:27.372Z</time></trkpt><trkpt lat="39.4186729" lon="-3.3367157"><ele>637.0</ele><time>2026-04-19T07:18:28.375Z</time></trkpt><trkpt lat="39.4185869" lon="-3.3364437"><ele>637.0</ele><time>2026-04-19T07:18:29.373Z</time></trkpt><trkpt lat="39.4185031" lon="-3.3361889"><ele>637.0</ele><time>2026-04-19T07:18:30.367Z</time></trkpt><trkpt lat="39.4184148" lon="-3.335953"><ele>637.0</ele><time>2026-04-19T07:18:31.414Z</time></trkpt><trkpt lat="39.4183256" lon="-3.3357334"><ele>637.0</ele><time>2026-04-19T07:18:32.408Z</time></trkpt><trkpt lat="39.4182386" lon="-3.3355283"><ele>637.0</ele><time>2026-04-19T07:18:33.373Z</time></trkpt><trkpt lat="39.4181518" lon="-3.3353382"><ele>637.0</ele><time>2026-04-19T07:18:34.38Z</time></trkpt><trkpt lat="39.4180679" lon="-3.3351595"><ele>637.0</ele><time>2026-04-19T07:18:35.369Z</time></trkpt><trkpt lat="39.4179893" lon="-3.3349892"><ele>637.0</ele><time>2026-04-19T07:18:36.377Z</time></trkpt><trkpt lat="39.4179146" lon="-3.3348199"><ele>637.0</ele><time>2026-04-19T07:18:37.38Z</time></trkpt><trkpt lat="39.4178398" lon="-3.334645"><ele>637.0</ele><time>2026-04-19T07:18:38.37Z</time></trkpt><trkpt lat="39.4177601" lon="-3.3344663"><ele>637.0</ele><time>2026-04-19T07:18:39.371Z</time></trkpt><trkpt lat="39.4176785" lon="-3.3342845"><ele>637.0</ele><time>2026-04-19T07:18:40.376Z</time></trkpt><trkpt lat="39.4175987" lon="-3.3341068"><ele>637.0</ele><time>2026-04-19T07:18:41.382Z</time></trkpt><trkpt lat="39.417524" lon="-3.3339383"><ele>637.0</ele><time>2026-04-19T07:18:42.376Z</time></trkpt><trkpt lat="39.417456" lon="-3.3337783"><ele>637.2</ele><time>2026-04-19T07:18:43.374Z</time></trkpt><trkpt lat="39.417394" lon="-3.3336282"><ele>637.4000000000001</ele><time>2026-04-19T07:18:44.369Z</time></trkpt><trkpt lat="39.4173377" lon="-3.3334969"><ele>637.5999999999999</ele><time>2026-04-19T07:18:45.377Z</time></trkpt><trkpt lat="39.4172895" lon="-3.3333859"><ele>637.8</ele><time>2026-04-19T07:18:46.397Z</time></trkpt><trkpt lat="39.4172513" lon="-3.333292"><ele>638.0</ele><time>2026-04-19T07:18:47.379Z</time></trkpt><trkpt lat="39.4172213" lon="-3.3332135"><ele>638.0</ele><time>2026-04-19T07:18:48.374Z</time></trkpt><trkpt lat="39.4171832" lon="-3.3330895"><ele>638.0</ele><time>2026-04-19T07:18:50.373Z</time></trkpt><trkpt lat="39.4171604" lon="-3.3330026"><ele>638.0</ele><time>2026-04-19T07:18:52.375Z</time></trkpt><trkpt lat="39.4170964" lon="-3.3330035"><ele>638.0</ele><time>2026-04-19T07:19:04.389Z</time></trkpt><trkpt lat="39.4171595" lon="-3.3330525"><ele>638.0</ele><time>2026-04-19T07:19:06.38Z</time></trkpt><trkpt lat="39.417213" lon="-3.3331394"><ele>638.0</ele><time>2026-04-19T07:19:08.381Z</time></trkpt><trkpt lat="39.4172461" lon="-3.3332462"><ele>638.0</ele><time>2026-04-19T07:19:10.371Z</time></trkpt><trkpt lat="39.4172796" lon="-3.3333457"><ele>638.0</ele><time>2026-04-19T07:19:12.373Z</time></trkpt><trkpt lat="39.4173163" lon="-3.3334364"><ele>638.0</ele><time>2026-04-19T07:19:14.388Z</time></trkpt><trkpt lat="39.4173457" lon="-3.333512"><ele>638.0</ele><time>2026-04-19T07:19:16.394Z</time></trkpt><trkpt lat="39.4174194" lon="-3.3335588"><ele>638.0</ele><time>2026-04-19T07:19:19.371Z</time></trkpt><trkpt lat="39.4174805" lon="-3.3336051"><ele>638.0</ele><time>2026-04-19T07:19:21.372Z</time></trkpt><trkpt lat="39.4175129" lon="-3.3336766"><ele>638.0</ele><time>2026-04-19T07:19:23.374Z</time></trkpt><trkpt lat="39.4174378" lon="-3.3336889"><ele>638.0</ele><time>2026-04-19T07:19:27.382Z</time></trkpt><trkpt lat="39.4173756" lon="-3.333624"><ele>638.0</ele><time>2026-04-19T07:19:29.386Z</time></trkpt><trkpt lat="39.4173079" lon="-3.3334861"><ele>638.0</ele><time>2026-04-19T07:19:31.37Z</time></trkpt><trkpt lat="39.4172748" lon="-3.3333888"><ele>638.0</ele><time>2026-04-19T07:19:32.375Z</time></trkpt><trkpt lat="39.4172375" lon="-3.3332821"><ele>638.0</ele><time>2026-04-19T07:19:33.371Z</time></trkpt><trkpt lat="39.4172019" lon="-3.3331696"><ele>637.6666666666666</ele><time>2026-04-19T07:19:34.376Z</time></trkpt><trkpt lat="39.4171636" lon="-3.333052"><ele>637.3333333333333</ele><time>2026-04-19T07:19:35.372Z</time></trkpt><trkpt lat="39.4171267" lon="-3.3329379"><ele>637.0</ele><time>2026-04-19T07:19:36.377Z</time></trkpt><trkpt lat="39.4170955" lon="-3.3328338"><ele>636.6666666666666</ele><time>2026-04-19T07:19:37.378Z</time></trkpt><trkpt lat="39.4170681" lon="-3.3327373"><ele>636.3333333333334</ele><time>2026-04-19T07:19:38.369Z</time></trkpt><trkpt lat="39.4170438" lon="-3.3326491"><ele>636.0</ele><time>2026-04-19T07:19:39.388Z</time></trkpt><trkpt lat="39.4169885" lon="-3.3324454"><ele>636.0</ele><time>2026-04-19T07:19:41.371Z</time></trkpt><trkpt lat="39.4169551" lon="-3.3323168"><ele>636.0</ele><time>2026-04-19T07:19:42.401Z</time></trkpt><trkpt lat="39.4169192" lon="-3.3321755"><ele>636.0</ele><time>2026-04-19T07:19:43.373Z</time></trkpt><trkpt lat="39.4168835" lon="-3.3320391"><ele>636.0</ele><time>2026-04-19T07:19:44.373Z</time></trkpt><trkpt lat="39.4168509" lon="-3.3319141"><ele>636.0</ele><time>2026-04-19T07:19:45.372Z</time></trkpt><trkpt lat="39.4168217" lon="-3.3317975"><ele>636.2</ele><time>2026-04-19T07:19:46.381Z</time></trkpt><trkpt lat="39.416796" lon="-3.3316834"><ele>636.4000000000001</ele><time>2026-04-19T07:19:47.374Z</time></trkpt><trkpt lat="39.4167685" lon="-3.3315569"><ele>636.6</ele><time>2026-04-19T07:19:48.377Z</time></trkpt><trkpt lat="39.4167372" lon="-3.331424"><ele>636.8000000000001</ele><time>2026-04-19T07:19:49.378Z</time></trkpt><trkpt lat="39.4167052" lon="-3.3312954"><ele>637.0</ele><time>2026-04-19T07:19:50.372Z</time></trkpt><trkpt lat="39.4166736" lon="-3.3311703"><ele>637.2</ele><time>2026-04-19T07:19:51.368Z</time></trkpt><trkpt lat="39.4166489" lon="-3.3310484"><ele>637.4000000000001</ele><time>2026-04-19T07:19:52.372Z</time></trkpt><trkpt lat="39.4166278" lon="-3.3309355"><ele>637.5999999999999</ele><time>2026-04-19T07:19:53.384Z</time></trkpt><trkpt lat="39.4166062" lon="-3.3308137"><ele>637.8</ele><time>2026-04-19T07:19:54.369Z</time></trkpt><trkpt lat="39.4165803" lon="-3.3306867"><ele>638.0</ele><time>2026-04-19T07:19:55.381Z</time></trkpt><trkpt lat="39.4165496" lon="-3.3305497"><ele>638.0</ele><time>2026-04-19T07:19:56.37Z</time></trkpt><trkpt lat="39.4165219" lon="-3.3304076"><ele>638.0</ele><time>2026-04-19T07:19:57.374Z</time></trkpt><trkpt lat="39.4164987" lon="-3.3302682"><ele>638.0</ele><time>2026-04-19T07:19:58.371Z</time></trkpt><trkpt lat="39.4164753" lon="-3.3301303"><ele>638.0</ele><time>2026-04-19T07:19:59.372Z</time></trkpt><trkpt lat="39.4164517" lon="-3.3299925"><ele>638.0</ele><time>2026-04-19T07:20:00.376Z</time></trkpt><trkpt lat="39.4164299" lon="-3.3298559"><ele>637.25</ele><time>2026-04-19T07:20:01.375Z</time></trkpt><trkpt lat="39.4164046" lon="-3.3297166"><ele>636.5</ele><time>2026-04-19T07:20:02.37Z</time></trkpt><trkpt lat="39.4163765" lon="-3.3295718"><ele>635.75</ele><time>2026-04-19T07:20:03.37Z</time></trkpt><trkpt lat="39.4163478" lon="-3.3294194"><ele>635.0</ele><time>2026-04-19T07:20:04.369Z</time></trkpt><trkpt lat="39.416324" lon="-3.3292632"><ele>635.25</ele><time>2026-04-19T07:20:05.383Z</time></trkpt><trkpt lat="39.4163028" lon="-3.3291065"><ele>635.5</ele><time>2026-04-19T07:20:06.373Z</time></trkpt><trkpt lat="39.4162827" lon="-3.3289479"><ele>635.75</ele><time>2026-04-19T07:20:07.374Z</time></trkpt><trkpt lat="39.4162618" lon="-3.3287878"><ele>636.0</ele><time>2026-04-19T07:20:08.371Z</time></trkpt><trkpt lat="39.4162462" lon="-3.3286284"><ele>636.0</ele><time>2026-04-19T07:20:09.377Z</time></trkpt><trkpt lat="39.4162372" lon="-3.3284679"><ele>636.0</ele><time>2026-04-19T07:20:10.37Z</time></trkpt><trkpt lat="39.4162286" lon="-3.3283114"><ele>636.0</ele><time>2026-04-19T07:20:11.375Z</time></trkpt><trkpt lat="39.416221" lon="-3.32815"><ele>636.0</ele><time>2026-04-19T07:20:12.372Z</time></trkpt><trkpt lat="39.4162144" lon="-3.3279735"><ele>636.6666666666666</ele><time>2026-04-19T07:20:13.376Z</time></trkpt><trkpt lat="39.4162077" lon="-3.327769"><ele>637.3333333333333</ele><time>2026-04-19T07:20:14.366Z</time></trkpt><trkpt lat="39.4161975" lon="-3.3275291"><ele>638.0</ele><time>2026-04-19T07:20:15.377Z</time></trkpt><trkpt lat="39.4161843" lon="-3.3272558"><ele>637.0</ele><time>2026-04-19T07:20:16.371Z</time></trkpt><trkpt lat="39.4161705" lon="-3.3269583"><ele>636.0</ele><time>2026-04-19T07:20:17.38Z</time></trkpt><trkpt lat="39.4161543" lon="-3.3266679"><ele>636.0</ele><time>2026-04-19T07:20:18.373Z</time></trkpt><trkpt lat="39.4161365" lon="-3.3263976"><ele>636.0</ele><time>2026-04-19T07:20:19.373Z</time></trkpt><trkpt lat="39.4161134" lon="-3.3261306"><ele>636.0</ele><time>2026-04-19T07:20:20.379Z</time></trkpt><trkpt lat="39.4160836" lon="-3.3258548"><ele>637.0</ele><time>2026-04-19T07:20:21.369Z</time></trkpt><trkpt lat="39.4160435" lon="-3.3255796"><ele>638.0</ele><time>2026-04-19T07:20:22.375Z</time></trkpt><trkpt lat="39.4159828" lon="-3.3252829"><ele>638.5</ele><time>2026-04-19T07:20:23.372Z</time></trkpt><trkpt lat="39.4158975" lon="-3.3249658"><ele>639.0</ele><time>2026-04-19T07:20:24.37Z</time></trkpt><trkpt lat="39.4157981" lon="-3.3246608"><ele>638.3333333333334</ele><time>2026-04-19T07:20:25.372Z</time></trkpt><trkpt lat="39.4157014" lon="-3.3243903"><ele>637.6666666666667</ele><time>2026-04-19T07:20:26.379Z</time></trkpt><trkpt lat="39.415616" lon="-3.3241439"><ele>637.0</ele><time>2026-04-19T07:20:27.374Z</time></trkpt><trkpt lat="39.4155465" lon="-3.3239079"><ele>637.0</ele><time>2026-04-19T07:20:28.381Z</time></trkpt><trkpt lat="39.4154963" lon="-3.3236791"><ele>637.0</ele><time>2026-04-19T07:20:29.372Z</time></trkpt><trkpt lat="39.4154572" lon="-3.3234598"><ele>637.0</ele><time>2026-04-19T07:20:30.375Z</time></trkpt><trkpt lat="39.4154329" lon="-3.3232519"><ele>637.0</ele><time>2026-04-19T07:20:31.378Z</time></trkpt><trkpt lat="39.4154204" lon="-3.3230546"><ele>637.0</ele><time>2026-04-19T07:20:32.373Z</time></trkpt><trkpt lat="39.4154131" lon="-3.3228497"><ele>637.0</ele><time>2026-04-19T07:20:33.372Z</time></trkpt><trkpt lat="39.4154088" lon="-3.3226355"><ele>637.0</ele><time>2026-04-19T07:20:34.375Z</time></trkpt><trkpt lat="39.4154067" lon="-3.3224239"><ele>637.0</ele><time>2026-04-19T07:20:35.379Z</time></trkpt><trkpt lat="39.4154031" lon="-3.3222179"><ele>637.0</ele><time>2026-04-19T07:20:36.376Z</time></trkpt><trkpt lat="39.4153952" lon="-3.3220106"><ele>637.3333333333334</ele><time>2026-04-19T07:20:37.373Z</time></trkpt><trkpt lat="39.415382" lon="-3.3218025"><ele>637.6666666666666</ele><time>2026-04-19T07:20:38.376Z</time></trkpt><trkpt lat="39.415361" lon="-3.3215924"><ele>638.0</ele><time>2026-04-19T07:20:39.381Z</time></trkpt><trkpt lat="39.4153333" lon="-3.32138"><ele>638.0</ele><time>2026-04-19T07:20:40.375Z</time></trkpt><trkpt lat="39.4152999" lon="-3.3211688"><ele>638.0</ele><time>2026-04-19T07:20:41.373Z</time></trkpt><trkpt lat="39.4152642" lon="-3.3209562"><ele>638.0</ele><time>2026-04-19T07:20:42.377Z</time></trkpt><trkpt lat="39.4152238" lon="-3.3207389"><ele>637.6666666666666</ele><time>2026-04-19T07:20:43.382Z</time></trkpt><trkpt lat="39.4151698" lon="-3.3205186"><ele>637.3333333333334</ele><time>2026-04-19T07:20:44.374Z</time></trkpt><trkpt lat="39.4151064" lon="-3.320305"><ele>637.0</ele><time>2026-04-19T07:20:45.382Z</time></trkpt><trkpt lat="39.4150409" lon="-3.3200909"><ele>637.0</ele><time>2026-04-19T07:20:46.383Z</time></trkpt><trkpt lat="39.4149766" lon="-3.319886"><ele>637.0</ele><time>2026-04-19T07:20:47.379Z</time></trkpt><trkpt lat="39.4149174" lon="-3.319694"><ele>637.0</ele><time>2026-04-19T07:20:48.377Z</time></trkpt><trkpt lat="39.4148562" lon="-3.3195165"><ele>637.0</ele><time>2026-04-19T07:20:49.377Z</time></trkpt><trkpt lat="39.414799" lon="-3.3193535"><ele>637.0</ele><time>2026-04-19T07:20:50.375Z</time></trkpt><trkpt lat="39.4147315" lon="-3.3192112"><ele>637.0</ele><time>2026-04-19T07:20:51.377Z</time></trkpt><trkpt lat="39.4146473" lon="-3.3190734"><ele>637.0</ele><time>2026-04-19T07:20:52.378Z</time></trkpt><trkpt lat="39.4145535" lon="-3.3189471"><ele>637.0</ele><time>2026-04-19T07:20:53.373Z</time></trkpt><trkpt lat="39.4144575" lon="-3.3188304"><ele>637.0</ele><time>2026-04-19T07:20:54.378Z</time></trkpt><trkpt lat="39.4143734" lon="-3.3187255"><ele>637.0</ele><time>2026-04-19T07:20:55.366Z</time></trkpt><trkpt lat="39.4143068" lon="-3.3186283"><ele>637.0</ele><time>2026-04-19T07:20:56.373Z</time></trkpt><trkpt lat="39.4142552" lon="-3.3185362"><ele>637.0</ele><time>2026-04-19T07:20:57.376Z</time></trkpt><trkpt lat="39.4142189" lon="-3.3184426"><ele>637.0</ele><time>2026-04-19T07:20:58.375Z</time></trkpt><trkpt lat="39.4141946" lon="-3.31835"><ele>637.0</ele><time>2026-04-19T07:20:59.376Z</time></trkpt><trkpt lat="39.4141743" lon="-3.31826"><ele>637.0</ele><time>2026-04-19T07:21:00.386Z</time></trkpt><trkpt lat="39.4141565" lon="-3.3181686"><ele>637.0</ele><time>2026-04-19T07:21:01.374Z</time></trkpt><trkpt lat="39.4141408" lon="-3.3180662"><ele>637.0</ele><time>2026-04-19T07:21:02.384Z</time></trkpt><trkpt lat="39.4141209" lon="-3.317947"><ele>637.0</ele><time>2026-04-19T07:21:03.38Z</time></trkpt><trkpt lat="39.4140912" lon="-3.3178134"><ele>637.0</ele><time>2026-04-19T07:21:04.374Z</time></trkpt><trkpt lat="39.4140539" lon="-3.3176685"><ele>637.0</ele><time>2026-04-19T07:21:05.383Z</time></trkpt><trkpt lat="39.4140185" lon="-3.3175211"><ele>637.0</ele><time>2026-04-19T07:21:06.382Z</time></trkpt><trkpt lat="39.4139818" lon="-3.3173656"><ele>637.0</ele><time>2026-04-19T07:21:07.375Z</time></trkpt><trkpt lat="39.4139494" lon="-3.3172016"><ele>637.0</ele><time>2026-04-19T07:21:08.381Z</time></trkpt><trkpt lat="39.413911" lon="-3.3170248"><ele>637.0</ele><time>2026-04-19T07:21:09.376Z</time></trkpt><trkpt lat="39.4138727" lon="-3.3168371"><ele>637.0</ele><time>2026-04-19T07:21:10.377Z</time></trkpt><trkpt lat="39.4138324" lon="-3.3166434"><ele>637.0</ele><time>2026-04-19T07:21:11.378Z</time></trkpt><trkpt lat="39.4137926" lon="-3.3164479"><ele>637.0</ele><time>2026-04-19T07:21:12.383Z</time></trkpt><trkpt lat="39.4137555" lon="-3.316244"><ele>637.0</ele><time>2026-04-19T07:21:13.38Z</time></trkpt><trkpt lat="39.4137174" lon="-3.3160131"><ele>637.0</ele><time>2026-04-19T07:21:14.368Z</time></trkpt><trkpt lat="39.4136847" lon="-3.3157717"><ele>637.3333333333334</ele><time>2026-04-19T07:21:15.379Z</time></trkpt><trkpt lat="39.4136457" lon="-3.3155073"><ele>637.6666666666666</ele><time>2026-04-19T07:21:16.382Z</time></trkpt><trkpt lat="39.4135955" lon="-3.3152164"><ele>638.0</ele><time>2026-04-19T07:21:17.373Z</time></trkpt><trkpt lat="39.4135318" lon="-3.3149065"><ele>638.0</ele><time>2026-04-19T07:21:18.378Z</time></trkpt><trkpt lat="39.4134682" lon="-3.314621"><ele>638.0</ele><time>2026-04-19T07:21:19.378Z</time></trkpt><trkpt lat="39.4134085" lon="-3.3143269"><ele>638.0</ele><time>2026-04-19T07:21:20.375Z</time></trkpt><trkpt lat="39.4133466" lon="-3.3140131"><ele>638.0</ele><time>2026-04-19T07:21:21.378Z</time></trkpt><trkpt lat="39.4132869" lon="-3.3137174"><ele>637.6666666666666</ele><time>2026-04-19T07:21:22.366Z</time></trkpt><trkpt lat="39.4132316" lon="-3.3134381"><ele>637.3333333333334</ele><time>2026-04-19T07:21:23.371Z</time></trkpt><trkpt lat="39.413179" lon="-3.3131661"><ele>637.0</ele><time>2026-04-19T07:21:24.373Z</time></trkpt><trkpt lat="39.4131291" lon="-3.3129109"><ele>636.6666666666667</ele><time>2026-04-19T07:21:25.374Z</time></trkpt><trkpt lat="39.413084" lon="-3.312672"><ele>636.3333333333334</ele><time>2026-04-19T07:21:26.376Z</time></trkpt><trkpt lat="39.4130406" lon="-3.3124475"><ele>636.0</ele><time>2026-04-19T07:21:27.384Z</time></trkpt><trkpt lat="39.412999" lon="-3.3122406"><ele>635.5</ele><time>2026-04-19T07:21:28.375Z</time></trkpt><trkpt lat="39.4129615" lon="-3.312053"><ele>635.0</ele><time>2026-04-19T07:21:29.381Z</time></trkpt><trkpt lat="39.4129279" lon="-3.3118824"><ele>634.5</ele><time>2026-04-19T07:21:30.373Z</time></trkpt><trkpt lat="39.4128972" lon="-3.3117314"><ele>634.0</ele><time>2026-04-19T07:21:31.377Z</time></trkpt><trkpt lat="39.4128715" lon="-3.3115965"><ele>634.0</ele><time>2026-04-19T07:21:32.375Z</time></trkpt><trkpt lat="39.4128477" lon="-3.3114731"><ele>634.0</ele><time>2026-04-19T07:21:33.377Z</time></trkpt><trkpt lat="39.4128276" lon="-3.3113655"><ele>634.0</ele><time>2026-04-19T07:21:34.373Z</time></trkpt><trkpt lat="39.4128074" lon="-3.3112715"><ele>634.0</ele><time>2026-04-19T07:21:35.379Z</time></trkpt><trkpt lat="39.4127907" lon="-3.311192"><ele>634.0</ele><time>2026-04-19T07:21:36.377Z</time></trkpt><trkpt lat="39.4127861" lon="-3.3110607"><ele>634.0</ele><time>2026-04-19T07:21:38.372Z</time></trkpt><trkpt lat="39.4128536" lon="-3.310974"><ele>634.5</ele><time>2026-04-19T07:21:40.372Z</time></trkpt><trkpt lat="39.4129383" lon="-3.3109476"><ele>635.0</ele><time>2026-04-19T07:21:41.385Z</time></trkpt><trkpt lat="39.4130666" lon="-3.3109354"><ele>635.5</ele><time>2026-04-19T07:21:42.377Z</time></trkpt><trkpt lat="39.4131986" lon="-3.3109191"><ele>636.0</ele><time>2026-04-19T07:21:43.378Z</time></trkpt><trkpt lat="39.4133328" lon="-3.3109075"><ele>636.3333333333334</ele><time>2026-04-19T07:21:44.38Z</time></trkpt><trkpt lat="39.4134768" lon="-3.3108952"><ele>636.6666666666667</ele><time>2026-04-19T07:21:45.375Z</time></trkpt><trkpt lat="39.4136271" lon="-3.3108808"><ele>637.0</ele><time>2026-04-19T07:21:46.383Z</time></trkpt><trkpt lat="39.4137975" lon="-3.3108614"><ele>637.6666666666667</ele><time>2026-04-19T07:21:47.375Z</time></trkpt><trkpt lat="39.4139601" lon="-3.3108357"><ele>638.3333333333334</ele><time>2026-04-19T07:21:48.37Z</time></trkpt><trkpt lat="39.4141233" lon="-3.3108057"><ele>639.0</ele><time>2026-04-19T07:21:49.376Z</time></trkpt><trkpt lat="39.4142813" lon="-3.3107728"><ele>639.0</ele><time>2026-04-19T07:21:50.377Z</time></trkpt><trkpt lat="39.4144296" lon="-3.3107404"><ele>639.0</ele><time>2026-04-19T07:21:51.378Z</time></trkpt><trkpt lat="39.4145659" lon="-3.3107094"><ele>639.0</ele><time>2026-04-19T07:21:52.381Z</time></trkpt><trkpt lat="39.4146873" lon="-3.3106866"><ele>639.0</ele><time>2026-04-19T07:21:53.379Z</time></trkpt><trkpt lat="39.4147917" lon="-3.3106635"><ele>639.0</ele><time>2026-04-19T07:21:54.377Z</time></trkpt><trkpt lat="39.4148922" lon="-3.3106378"><ele>639.0</ele><time>2026-04-19T07:21:55.386Z</time></trkpt><trkpt lat="39.414983" lon="-3.3106139"><ele>639.0</ele><time>2026-04-19T07:21:56.379Z</time></trkpt><trkpt lat="39.4150672" lon="-3.3105905"><ele>639.0</ele><time>2026-04-19T07:21:57.378Z</time></trkpt><trkpt lat="39.4151474" lon="-3.3105692"><ele>639.0</ele><time>2026-04-19T07:21:58.373Z</time></trkpt><trkpt lat="39.4152199" lon="-3.3105482"><ele>639.0</ele><time>2026-04-19T07:21:59.38Z</time></trkpt><trkpt lat="39.4152872" lon="-3.3105274"><ele>639.3333333333334</ele><time>2026-04-19T07:22:00.369Z</time></trkpt><trkpt lat="39.4153975" lon="-3.3104796"><ele>639.6666666666666</ele><time>2026-04-19T07:22:02.372Z</time></trkpt><trkpt lat="39.4154624" lon="-3.310434"><ele>640.0</ele><time>2026-04-19T07:22:04.373Z</time></trkpt><trkpt lat="39.4154788" lon="-3.3103388"><ele>640.3333333333333</ele><time>2026-04-19T07:22:06.379Z</time></trkpt><trkpt lat="39.4154798" lon="-3.3102533"><ele>640.6666666666666</ele><time>2026-04-19T07:22:07.376Z</time></trkpt><trkpt lat="39.4154465" lon="-3.310161"><ele>641.0</ele><time>2026-04-19T07:22:08.371Z</time></trkpt><trkpt lat="39.4154068" lon="-3.3100436"><ele>641.0</ele><time>2026-04-19T07:22:09.377Z</time></trkpt><trkpt lat="39.4153693" lon="-3.3099083"><ele>641.0</ele><time>2026-04-19T07:22:10.372Z</time></trkpt><trkpt lat="39.4153334" lon="-3.3097619"><ele>641.0</ele><time>2026-04-19T07:22:11.376Z</time></trkpt><trkpt lat="39.4152979" lon="-3.3096101"><ele>641.0</ele><time>2026-04-19T07:22:12.373Z</time></trkpt><trkpt lat="39.4152618" lon="-3.3094538"><ele>640.25</ele><time>2026-04-19T07:22:13.372Z</time></trkpt><trkpt lat="39.4152207" lon="-3.3092935"><ele>639.5</ele><time>2026-04-19T07:22:14.368Z</time></trkpt><trkpt lat="39.4151769" lon="-3.3091242"><ele>638.75</ele><time>2026-04-19T07:22:15.37Z</time></trkpt><trkpt lat="39.4151301" lon="-3.3089505"><ele>638.0</ele><time>2026-04-19T07:22:16.367Z</time></trkpt><trkpt lat="39.4150824" lon="-3.3087762"><ele>638.0</ele><time>2026-04-19T07:22:17.376Z</time></trkpt><trkpt lat="39.415034" lon="-3.3086061"><ele>638.0</ele><time>2026-04-19T07:22:18.379Z</time></trkpt><trkpt lat="39.414983" lon="-3.3084425"><ele>638.0</ele><time>2026-04-19T07:22:19.373Z</time></trkpt><trkpt lat="39.4149271" lon="-3.3082899"><ele>638.0</ele><time>2026-04-19T07:22:20.37Z</time></trkpt><trkpt lat="39.41487" lon="-3.3081452"><ele>638.1666666666666</ele><time>2026-04-19T07:22:21.367Z</time></trkpt><trkpt lat="39.414817" lon="-3.308012"><ele>638.3333333333333</ele><time>2026-04-19T07:22:22.378Z</time></trkpt><trkpt lat="39.4147764" lon="-3.3078964"><ele>638.5</ele><time>2026-04-19T07:22:23.378Z</time></trkpt><trkpt lat="39.4147375" lon="-3.3077928"><ele>638.6666666666666</ele><time>2026-04-19T07:22:24.381Z</time></trkpt><trkpt lat="39.4147017" lon="-3.3076998"><ele>638.8333333333334</ele><time>2026-04-19T07:22:25.376Z</time></trkpt><trkpt lat="39.4146825" lon="-3.3076221"><ele>639.0</ele><time>2026-04-19T07:22:26.375Z</time></trkpt><trkpt lat="39.4146971" lon="-3.3074976"><ele>639.0</ele><time>2026-04-19T07:22:28.38Z</time></trkpt><trkpt lat="39.4147748" lon="-3.3074455"><ele>639.0</ele><time>2026-04-19T07:22:30.386Z</time></trkpt><trkpt lat="39.4149097" lon="-3.3074972"><ele>639.0</ele><time>2026-04-19T07:22:32.386Z</time></trkpt><trkpt lat="39.4150096" lon="-3.3075461"><ele>639.0</ele><time>2026-04-19T07:22:33.379Z</time></trkpt><trkpt lat="39.4151183" lon="-3.3075908"><ele>639.0</ele><time>2026-04-19T07:22:34.373Z</time></trkpt><trkpt lat="39.415238" lon="-3.3076353"><ele>639.0</ele><time>2026-04-19T07:22:35.378Z</time></trkpt><trkpt lat="39.4153645" lon="-3.3076823"><ele>639.0</ele><time>2026-04-19T07:22:36.369Z</time></trkpt><trkpt lat="39.4155009" lon="-3.3077356"><ele>639.0</ele><time>2026-04-19T07:22:37.374Z</time></trkpt><trkpt lat="39.4156564" lon="-3.3077961"><ele>639.0</ele><time>2026-04-19T07:22:38.376Z</time></trkpt><trkpt lat="39.415838" lon="-3.3078604"><ele>638.3333333333334</ele><time>2026-04-19T07:22:39.381Z</time></trkpt><trkpt lat="39.416042" lon="-3.3079375"><ele>637.6666666666667</ele><time>2026-04-19T07:22:40.38Z</time></trkpt><trkpt lat="39.4162396" lon="-3.3080128"><ele>637.0</ele><time>2026-04-19T07:22:41.379Z</time></trkpt><trkpt lat="39.4164214" lon="-3.3080796"><ele>637.0</ele><time>2026-04-19T07:22:42.37Z</time></trkpt><trkpt lat="39.4165946" lon="-3.3081377"><ele>637.0</ele><time>2026-04-19T07:22:43.378Z</time></trkpt><trkpt lat="39.4167586" lon="-3.3081962"><ele>637.0</ele><time>2026-04-19T07:22:44.376Z</time></trkpt><trkpt lat="39.4169134" lon="-3.3082555"><ele>637.0</ele><time>2026-04-19T07:22:45.384Z</time></trkpt><trkpt lat="39.4170559" lon="-3.308309"><ele>637.0</ele><time>2026-04-19T07:22:46.374Z</time></trkpt><trkpt lat="39.4171896" lon="-3.3083582"><ele>637.0</ele><time>2026-04-19T07:22:47.379Z</time></trkpt><trkpt lat="39.4173151" lon="-3.3084033"><ele>637.0</ele><time>2026-04-19T07:22:48.37Z</time></trkpt><trkpt lat="39.4174336" lon="-3.3084406"><ele>637.2</ele><time>2026-04-19T07:22:49.387Z</time></trkpt><trkpt lat="39.417545" lon="-3.308473"><ele>637.4000000000001</ele><time>2026-04-19T07:22:50.383Z</time></trkpt><trkpt lat="39.4176444" lon="-3.3085127"><ele>637.5999999999999</ele><time>2026-04-19T07:22:51.386Z</time></trkpt><trkpt lat="39.4177259" lon="-3.308562"><ele>637.8</ele><time>2026-04-19T07:22:52.385Z</time></trkpt><trkpt lat="39.4177907" lon="-3.3086184"><ele>638.0</ele><time>2026-04-19T07:22:53.384Z</time></trkpt><trkpt lat="39.4178447" lon="-3.3086707"><ele>638.0</ele><time>2026-04-19T07:22:54.377Z</time></trkpt><trkpt lat="39.4179472" lon="-3.3087225"><ele>638.0</ele><time>2026-04-19T07:22:56.378Z</time></trkpt><trkpt lat="39.4180589" lon="-3.3086777"><ele>638.0</ele><time>2026-04-19T07:22:58.381Z</time></trkpt><trkpt lat="39.4181233" lon="-3.3086134"><ele>638.0</ele><time>2026-04-19T07:22:59.376Z</time></trkpt><trkpt lat="39.418198" lon="-3.3085286"><ele>638.0</ele><time>2026-04-19T07:23:00.384Z</time></trkpt><trkpt lat="39.4182789" lon="-3.308446"><ele>638.0</ele><time>2026-04-19T07:23:01.377Z</time></trkpt><trkpt lat="39.418362" lon="-3.3083651"><ele>638.0</ele><time>2026-04-19T07:23:02.377Z</time></trkpt><trkpt lat="39.4184455" lon="-3.3082853"><ele>638.0</ele><time>2026-04-19T07:23:03.379Z</time></trkpt><trkpt lat="39.4185309" lon="-3.3082083"><ele>638.0</ele><time>2026-04-19T07:23:04.38Z</time></trkpt><trkpt lat="39.4186104" lon="-3.3081386"><ele>638.0</ele><time>2026-04-19T07:23:05.374Z</time></trkpt><trkpt lat="39.4186806" lon="-3.3080799"><ele>637.8</ele><time>2026-04-19T07:23:06.383Z</time></trkpt><trkpt lat="39.4187483" lon="-3.3080026"><ele>637.5999999999999</ele><time>2026-04-19T07:23:08.383Z</time></trkpt><trkpt lat="39.4187342" lon="-3.3078825"><ele>637.4000000000001</ele><time>2026-04-19T07:23:11.375Z</time></trkpt><trkpt lat="39.4186602" lon="-3.3077787"><ele>637.2</ele><time>2026-04-19T07:23:13.37Z</time></trkpt><trkpt lat="39.4186033" lon="-3.3077156"><ele>637.0</ele><time>2026-04-19T07:23:14.375Z</time></trkpt><trkpt lat="39.4185412" lon="-3.3076341"><ele>637.0</ele><time>2026-04-19T07:23:15.368Z</time></trkpt><trkpt lat="39.418477" lon="-3.3075418"><ele>637.0</ele><time>2026-04-19T07:23:16.379Z</time></trkpt><trkpt lat="39.4184153" lon="-3.3074447"><ele>637.0</ele><time>2026-04-19T07:23:17.375Z</time></trkpt><trkpt lat="39.4183485" lon="-3.3073293"><ele>637.0</ele><time>2026-04-19T07:23:18.38Z</time></trkpt><trkpt lat="39.4182674" lon="-3.3071945"><ele>637.0</ele><time>2026-04-19T07:23:19.389Z</time></trkpt><trkpt lat="39.4181764" lon="-3.3070331"><ele>636.6666666666667</ele><time>2026-04-19T07:23:20.379Z</time></trkpt><trkpt lat="39.4180774" lon="-3.306835"><ele>636.3333333333334</ele><time>2026-04-19T07:23:21.388Z</time></trkpt><trkpt lat="39.4179684" lon="-3.3066085"><ele>636.0</ele><time>2026-04-19T07:23:22.377Z</time></trkpt><trkpt lat="39.417853" lon="-3.3063605"><ele>636.0</ele><time>2026-04-19T07:23:23.38Z</time></trkpt><trkpt lat="39.4177489" lon="-3.3061243"><ele>636.0</ele><time>2026-04-19T07:23:24.379Z</time></trkpt><trkpt lat="39.417658" lon="-3.3059125"><ele>636.0</ele><time>2026-04-19T07:23:25.378Z</time></trkpt><trkpt lat="39.4175789" lon="-3.3057305"><ele>636.25</ele><time>2026-04-19T07:23:26.374Z</time></trkpt><trkpt lat="39.4175063" lon="-3.3055667"><ele>636.5</ele><time>2026-04-19T07:23:27.375Z</time></trkpt><trkpt lat="39.417443" lon="-3.3054198"><ele>636.75</ele><time>2026-04-19T07:23:28.373Z</time></trkpt><trkpt lat="39.4173916" lon="-3.3052894"><ele>637.0</ele><time>2026-04-19T07:23:29.374Z</time></trkpt><trkpt lat="39.4173412" lon="-3.3051543"><ele>637.0</ele><time>2026-04-19T07:23:30.382Z</time></trkpt><trkpt lat="39.4172808" lon="-3.3049879"><ele>637.0</ele><time>2026-04-19T07:23:31.377Z</time></trkpt><trkpt lat="39.4172081" lon="-3.304792"><ele>637.0</ele><time>2026-04-19T07:23:32.381Z</time></trkpt><trkpt lat="39.417121" lon="-3.3045733"><ele>637.0</ele><time>2026-04-19T07:23:33.376Z</time></trkpt><trkpt lat="39.4170347" lon="-3.3043645"><ele>637.0</ele><time>2026-04-19T07:23:34.383Z</time></trkpt><trkpt lat="39.4169526" lon="-3.3041695"><ele>637.0</ele><time>2026-04-19T07:23:35.373Z</time></trkpt><trkpt lat="39.4168629" lon="-3.3039795"><ele>637.3333333333334</ele><time>2026-04-19T07:23:36.379Z</time></trkpt><trkpt lat="39.416752" lon="-3.3037896"><ele>637.6666666666666</ele><time>2026-04-19T07:23:37.375Z</time></trkpt><trkpt lat="39.4166261" lon="-3.3036127"><ele>638.0</ele><time>2026-04-19T07:23:38.387Z</time></trkpt><trkpt lat="39.4164971" lon="-3.3034611"><ele>638.0</ele><time>2026-04-19T07:23:39.381Z</time></trkpt><trkpt lat="39.4163727" lon="-3.3033105"><ele>638.0</ele><time>2026-04-19T07:23:40.388Z</time></trkpt><trkpt lat="39.4162511" lon="-3.3031303"><ele>638.0</ele><time>2026-04-19T07:23:41.374Z</time></trkpt><trkpt lat="39.4161294" lon="-3.3029116"><ele>636.5</ele><time>2026-04-19T07:23:42.382Z</time></trkpt><trkpt lat="39.4160081" lon="-3.3026645"><ele>635.0</ele><time>2026-04-19T07:23:43.382Z</time></trkpt><trkpt lat="39.4158895" lon="-3.3024027"><ele>635.5</ele><time>2026-04-19T07:23:44.377Z</time></trkpt><trkpt lat="39.4157817" lon="-3.3021423"><ele>636.0</ele><time>2026-04-19T07:23:45.387Z</time></trkpt><trkpt lat="39.4156697" lon="-3.3018658"><ele>636.0</ele><time>2026-04-19T07:23:46.373Z</time></trkpt><trkpt lat="39.41555" lon="-3.3015788"><ele>636.0</ele><time>2026-04-19T07:23:47.376Z</time></trkpt><trkpt lat="39.4154225" lon="-3.3012799"><ele>636.0</ele><time>2026-04-19T07:23:48.376Z</time></trkpt><trkpt lat="39.4152903" lon="-3.3009796"><ele>636.0</ele><time>2026-04-19T07:23:49.377Z</time></trkpt><trkpt lat="39.4151621" lon="-3.3007015"><ele>634.5</ele><time>2026-04-19T07:23:50.379Z</time></trkpt><trkpt lat="39.4150368" lon="-3.3004444"><ele>633.0</ele><time>2026-04-19T07:23:51.382Z</time></trkpt><trkpt lat="39.4149128" lon="-3.3002054"><ele>633.0</ele><time>2026-04-19T07:23:52.376Z</time></trkpt><trkpt lat="39.4147877" lon="-3.2999734"><ele>633.0</ele><time>2026-04-19T07:23:53.379Z</time></trkpt><trkpt lat="39.4146572" lon="-3.299731"><ele>633.0</ele><time>2026-04-19T07:23:54.376Z</time></trkpt><trkpt lat="39.4145234" lon="-3.2994788"><ele>633.5</ele><time>2026-04-19T07:23:55.375Z</time></trkpt><trkpt lat="39.4143948" lon="-3.2992216"><ele>634.0</ele><time>2026-04-19T07:23:56.38Z</time></trkpt><trkpt lat="39.4142848" lon="-3.2989749"><ele>634.6666666666667</ele><time>2026-04-19T07:23:57.37Z</time></trkpt><trkpt lat="39.4141989" lon="-3.2987346"><ele>635.3333333333334</ele><time>2026-04-19T07:23:58.374Z</time></trkpt><trkpt lat="39.4141225" lon="-3.2984803"><ele>636.0</ele><time>2026-04-19T07:23:59.377Z</time></trkpt><trkpt lat="39.4140387" lon="-3.298239"><ele>635.3333333333334</ele><time>2026-04-19T07:24:00.381Z</time></trkpt><trkpt lat="39.4139333" lon="-3.298002"><ele>634.6666666666667</ele><time>2026-04-19T07:24:01.373Z</time></trkpt><trkpt lat="39.4138151" lon="-3.2977611"><ele>634.0</ele><time>2026-04-19T07:24:02.379Z</time></trkpt><trkpt lat="39.4136865" lon="-3.2975187"><ele>633.6666666666667</ele><time>2026-04-19T07:24:03.378Z</time></trkpt><trkpt lat="39.4135665" lon="-3.2972893"><ele>633.3333333333334</ele><time>2026-04-19T07:24:04.381Z</time></trkpt><trkpt lat="39.4134603" lon="-3.2970666"><ele>633.0</ele><time>2026-04-19T07:24:05.384Z</time></trkpt><trkpt lat="39.413356" lon="-3.2968405"><ele>633.6666666666666</ele><time>2026-04-19T07:24:06.378Z</time></trkpt><trkpt lat="39.4132434" lon="-3.2966097"><ele>634.3333333333333</ele><time>2026-04-19T07:24:07.385Z</time></trkpt><trkpt lat="39.4131272" lon="-3.2963742"><ele>635.0</ele><time>2026-04-19T07:24:08.379Z</time></trkpt><trkpt lat="39.4130097" lon="-3.2961206"><ele>636.0</ele><time>2026-04-19T07:24:09.381Z</time></trkpt><trkpt lat="39.4128937" lon="-3.2958429"><ele>637.0</ele><time>2026-04-19T07:24:10.374Z</time></trkpt><trkpt lat="39.4127857" lon="-3.2955644"><ele>637.0</ele><time>2026-04-19T07:24:11.379Z</time></trkpt><trkpt lat="39.4126839" lon="-3.2952787"><ele>637.0</ele><time>2026-04-19T07:24:12.38Z</time></trkpt><trkpt lat="39.412591" lon="-3.2949942"><ele>636.3333333333334</ele><time>2026-04-19T07:24:13.383Z</time></trkpt><trkpt lat="39.4125135" lon="-3.2947313"><ele>635.6666666666666</ele><time>2026-04-19T07:24:14.384Z</time></trkpt><trkpt lat="39.4124458" lon="-3.2944842"><ele>635.0</ele><time>2026-04-19T07:24:15.375Z</time></trkpt><trkpt lat="39.4123809" lon="-3.2942645"><ele>635.0</ele><time>2026-04-19T07:24:16.378Z</time></trkpt><trkpt lat="39.4123177" lon="-3.2940792"><ele>635.0</ele><time>2026-04-19T07:24:17.369Z</time></trkpt><trkpt lat="39.4122567" lon="-3.2939231"><ele>635.0</ele><time>2026-04-19T07:24:18.377Z</time></trkpt><trkpt lat="39.4121999" lon="-3.2937906"><ele>635.0</ele><time>2026-04-19T07:24:19.375Z</time></trkpt><trkpt lat="39.4121488" lon="-3.2936772"><ele>635.1666666666666</ele><time>2026-04-19T07:24:20.374Z</time></trkpt><trkpt lat="39.4121018" lon="-3.2935722"><ele>635.3333333333333</ele><time>2026-04-19T07:24:21.38Z</time></trkpt><trkpt lat="39.4120589" lon="-3.2934731"><ele>635.5</ele><time>2026-04-19T07:24:22.381Z</time></trkpt><trkpt lat="39.4120215" lon="-3.2933796"><ele>635.6666666666666</ele><time>2026-04-19T07:24:23.376Z</time></trkpt><trkpt lat="39.4119861" lon="-3.2932968"><ele>635.8333333333334</ele><time>2026-04-19T07:24:24.386Z</time></trkpt><trkpt lat="39.411949" lon="-3.2932167"><ele>636.0</ele><time>2026-04-19T07:24:25.375Z</time></trkpt><trkpt lat="39.4119121" lon="-3.2931316"><ele>635.6666666666666</ele><time>2026-04-19T07:24:26.377Z</time></trkpt><trkpt lat="39.4118738" lon="-3.2930436"><ele>635.3333333333334</ele><time>2026-04-19T07:24:27.373Z</time></trkpt><trkpt lat="39.4118322" lon="-3.2929497"><ele>635.0</ele><time>2026-04-19T07:24:28.377Z</time></trkpt><trkpt lat="39.4117873" lon="-3.2928495"><ele>634.6666666666667</ele><time>2026-04-19T07:24:29.373Z</time></trkpt><trkpt lat="39.4117367" lon="-3.2927487"><ele>634.3333333333334</ele><time>2026-04-19T07:24:30.381Z</time></trkpt><trkpt lat="39.4116822" lon="-3.2926536"><ele>634.0</ele><time>2026-04-19T07:24:31.375Z</time></trkpt><trkpt lat="39.4116249" lon="-3.2925475"><ele>634.0</ele><time>2026-04-19T07:24:32.377Z</time></trkpt><trkpt lat="39.4115681" lon="-3.2924248"><ele>634.0</ele><time>2026-04-19T07:24:33.374Z</time></trkpt><trkpt lat="39.4115085" lon="-3.2922814"><ele>634.0</ele><time>2026-04-19T07:24:34.38Z</time></trkpt><trkpt lat="39.4114423" lon="-3.2921159"><ele>634.0</ele><time>2026-04-19T07:24:35.379Z</time></trkpt><trkpt lat="39.4113733" lon="-3.2919354"><ele>634.6666666666667</ele><time>2026-04-19T07:24:36.38Z</time></trkpt><trkpt lat="39.4112922" lon="-3.2917312"><ele>635.3333333333334</ele><time>2026-04-19T07:24:37.387Z</time></trkpt><trkpt lat="39.411189" lon="-3.2915038"><ele>636.0</ele><time>2026-04-19T07:24:38.386Z</time></trkpt><trkpt lat="39.4110592" lon="-3.2912594"><ele>636.0</ele><time>2026-04-19T07:24:39.378Z</time></trkpt><trkpt lat="39.4109232" lon="-3.2910365"><ele>636.0</ele><time>2026-04-19T07:24:40.38Z</time></trkpt><trkpt lat="39.4107926" lon="-3.2908355"><ele>636.0</ele><time>2026-04-19T07:24:41.374Z</time></trkpt><trkpt lat="39.4106718" lon="-3.2906517"><ele>635.6666666666666</ele><time>2026-04-19T07:24:42.377Z</time></trkpt><trkpt lat="39.4105635" lon="-3.2904824"><ele>635.3333333333333</ele><time>2026-04-19T07:24:43.378Z</time></trkpt><trkpt lat="39.4104682" lon="-3.2903232"><ele>635.0</ele><time>2026-04-19T07:24:44.388Z</time></trkpt><trkpt lat="39.4103873" lon="-3.290172"><ele>635.0</ele><time>2026-04-19T07:24:45.377Z</time></trkpt><trkpt lat="39.4103142" lon="-3.2900333"><ele>635.0</ele><time>2026-04-19T07:24:46.38Z</time></trkpt><trkpt lat="39.4102563" lon="-3.2898504"><ele>635.0</ele><time>2026-04-19T07:24:47.379Z</time></trkpt><trkpt lat="39.4102087" lon="-3.2896619"><ele>635.0</ele><time>2026-04-19T07:24:48.379Z</time></trkpt><trkpt lat="39.4101619" lon="-3.2894671"><ele>635.0</ele><time>2026-04-19T07:24:49.378Z</time></trkpt><trkpt lat="39.4101103" lon="-3.2892643"><ele>635.0</ele><time>2026-04-19T07:24:50.381Z</time></trkpt><trkpt lat="39.4100509" lon="-3.2890512"><ele>635.0</ele><time>2026-04-19T07:24:51.378Z</time></trkpt><trkpt lat="39.4099838" lon="-3.2888126"><ele>635.0</ele><time>2026-04-19T07:24:52.374Z</time></trkpt><trkpt lat="39.4099152" lon="-3.2885517"><ele>635.0</ele><time>2026-04-19T07:24:53.377Z</time></trkpt><trkpt lat="39.4098501" lon="-3.2883053"><ele>635.0</ele><time>2026-04-19T07:24:54.373Z</time></trkpt><trkpt lat="39.4097878" lon="-3.2880748"><ele>634.6666666666666</ele><time>2026-04-19T07:24:55.378Z</time></trkpt><trkpt lat="39.4097282" lon="-3.2878601"><ele>634.3333333333334</ele><time>2026-04-19T07:24:56.372Z</time></trkpt><trkpt lat="39.4096747" lon="-3.287657"><ele>634.0</ele><time>2026-04-19T07:24:57.373Z</time></trkpt><trkpt lat="39.4096217" lon="-3.2874671"><ele>634.0</ele><time>2026-04-19T07:24:58.376Z</time></trkpt><trkpt lat="39.4095713" lon="-3.2872813"><ele>634.0</ele><time>2026-04-19T07:24:59.381Z</time></trkpt><trkpt lat="39.4095212" lon="-3.2870912"><ele>634.0</ele><time>2026-04-19T07:25:00.377Z</time></trkpt><trkpt lat="39.4094824" lon="-3.2869041"><ele>634.0</ele><time>2026-04-19T07:25:01.378Z</time></trkpt><trkpt lat="39.4094523" lon="-3.2867137"><ele>634.0</ele><time>2026-04-19T07:25:02.383Z</time></trkpt><trkpt lat="39.4094247" lon="-3.2865184"><ele>634.0</ele><time>2026-04-19T07:25:03.368Z</time></trkpt><trkpt lat="39.409391" lon="-3.2863259"><ele>634.0</ele><time>2026-04-19T07:25:04.375Z</time></trkpt><trkpt lat="39.4093421" lon="-3.286138"><ele>634.0</ele><time>2026-04-19T07:25:05.379Z</time></trkpt><trkpt lat="39.4092867" lon="-3.2859595"><ele>634.0</ele><time>2026-04-19T07:25:06.374Z</time></trkpt><trkpt lat="39.4092237" lon="-3.2857833"><ele>634.0</ele><time>2026-04-19T07:25:07.385Z</time></trkpt><trkpt lat="39.4091632" lon="-3.2856046"><ele>634.0</ele><time>2026-04-19T07:25:08.378Z</time></trkpt><trkpt lat="39.4091079" lon="-3.2854173"><ele>634.0</ele><time>2026-04-19T07:25:09.384Z</time></trkpt><trkpt lat="39.4090552" lon="-3.2852303"><ele>634.25</ele><time>2026-04-19T07:25:10.385Z</time></trkpt><trkpt lat="39.4090059" lon="-3.2850433"><ele>634.5</ele><time>2026-04-19T07:25:11.372Z</time></trkpt><trkpt lat="39.4089564" lon="-3.2848614"><ele>634.75</ele><time>2026-04-19T07:25:12.378Z</time></trkpt><trkpt lat="39.4089073" lon="-3.2846812"><ele>635.0</ele><time>2026-04-19T07:25:13.374Z</time></trkpt><trkpt lat="39.4088579" lon="-3.2845054"><ele>635.0</ele><time>2026-04-19T07:25:14.382Z</time></trkpt><trkpt lat="39.4088118" lon="-3.2843316"><ele>635.0</ele><time>2026-04-19T07:25:15.381Z</time></trkpt><trkpt lat="39.4087732" lon="-3.2841548"><ele>635.0</ele><time>2026-04-19T07:25:16.375Z</time></trkpt><trkpt lat="39.4087448" lon="-3.2839709"><ele>635.0</ele><time>2026-04-19T07:25:17.374Z</time></trkpt><trkpt lat="39.4087276" lon="-3.2837796"><ele>635.0</ele><time>2026-04-19T07:25:18.373Z</time></trkpt><trkpt lat="39.4087166" lon="-3.2835817"><ele>635.0</ele><time>2026-04-19T07:25:19.383Z</time></trkpt><trkpt lat="39.4087146" lon="-3.2833821"><ele>635.0</ele><time>2026-04-19T07:25:20.373Z</time></trkpt><trkpt lat="39.4087213" lon="-3.2831893"><ele>635.25</ele><time>2026-04-19T07:25:21.374Z</time></trkpt><trkpt lat="39.4087348" lon="-3.2830032"><ele>635.5</ele><time>2026-04-19T07:25:22.376Z</time></trkpt><trkpt lat="39.4087517" lon="-3.282814"><ele>635.75</ele><time>2026-04-19T07:25:23.378Z</time></trkpt><trkpt lat="39.4087617" lon="-3.2826186"><ele>636.0</ele><time>2026-04-19T07:25:24.383Z</time></trkpt><trkpt lat="39.4087666" lon="-3.2824181"><ele>635.6666666666666</ele><time>2026-04-19T07:25:25.388Z</time></trkpt><trkpt lat="39.4087714" lon="-3.2822124"><ele>635.3333333333333</ele><time>2026-04-19T07:25:26.378Z</time></trkpt><trkpt lat="39.4087758" lon="-3.2820028"><ele>635.0</ele><time>2026-04-19T07:25:27.372Z</time></trkpt><trkpt lat="39.4087821" lon="-3.2817892"><ele>635.0</ele><time>2026-04-19T07:25:28.373Z</time></trkpt><trkpt lat="39.4087908" lon="-3.2815728"><ele>635.0</ele><time>2026-04-19T07:25:29.376Z</time></trkpt><trkpt lat="39.4088014" lon="-3.2813576"><ele>635.0</ele><time>2026-04-19T07:25:30.379Z</time></trkpt><trkpt lat="39.4088137" lon="-3.2811446"><ele>635.3333333333333</ele><time>2026-04-19T07:25:31.375Z</time></trkpt><trkpt lat="39.4088198" lon="-3.2809312"><ele>635.6666666666666</ele><time>2026-04-19T07:25:32.374Z</time></trkpt><trkpt lat="39.4088186" lon="-3.2807189"><ele>636.0</ele><time>2026-04-19T07:25:33.375Z</time></trkpt><trkpt lat="39.4088117" lon="-3.2805057"><ele>636.3333333333334</ele><time>2026-04-19T07:25:34.375Z</time></trkpt><trkpt lat="39.4087998" lon="-3.2802924"><ele>636.6666666666667</ele><time>2026-04-19T07:25:35.376Z</time></trkpt><trkpt lat="39.408788" lon="-3.2800818"><ele>637.0</ele><time>2026-04-19T07:25:36.374Z</time></trkpt><trkpt lat="39.4087852" lon="-3.2798637"><ele>637.0</ele><time>2026-04-19T07:25:37.385Z</time></trkpt><trkpt lat="39.4087916" lon="-3.2796345"><ele>637.0</ele><time>2026-04-19T07:25:38.389Z</time></trkpt><trkpt lat="39.4088071" lon="-3.2794014"><ele>637.0</ele><time>2026-04-19T07:25:39.373Z</time></trkpt><trkpt lat="39.4088331" lon="-3.2791686"><ele>637.0</ele><time>2026-04-19T07:25:40.374Z</time></trkpt><trkpt lat="39.4088635" lon="-3.2789306"><ele>637.0</ele><time>2026-04-19T07:25:41.385Z</time></trkpt><trkpt lat="39.4088895" lon="-3.2786865"><ele>637.0</ele><time>2026-04-19T07:25:42.384Z</time></trkpt><trkpt lat="39.4089116" lon="-3.2784426"><ele>637.0</ele><time>2026-04-19T07:25:43.382Z</time></trkpt><trkpt lat="39.4089222" lon="-3.2782105"><ele>637.0</ele><time>2026-04-19T07:25:44.372Z</time></trkpt><trkpt lat="39.4089157" lon="-3.2779785"><ele>637.0</ele><time>2026-04-19T07:25:45.376Z</time></trkpt><trkpt lat="39.40889" lon="-3.2777289"><ele>637.0</ele><time>2026-04-19T07:25:46.375Z</time></trkpt><trkpt lat="39.4088572" lon="-3.2774619"><ele>637.0</ele><time>2026-04-19T07:25:47.371Z</time></trkpt><trkpt lat="39.4088317" lon="-3.2771763"><ele>637.0</ele><time>2026-04-19T07:25:48.37Z</time></trkpt><trkpt lat="39.4088198" lon="-3.2768743"><ele>638.0</ele><time>2026-04-19T07:25:49.38Z</time></trkpt><trkpt lat="39.4088201" lon="-3.2765481"><ele>639.0</ele><time>2026-04-19T07:25:50.377Z</time></trkpt><trkpt lat="39.4088211" lon="-3.2762069"><ele>639.0</ele><time>2026-04-19T07:25:51.382Z</time></trkpt><trkpt lat="39.4088157" lon="-3.2758764"><ele>639.0</ele><time>2026-04-19T07:25:52.384Z</time></trkpt><trkpt lat="39.4088068" lon="-3.2755332"><ele>639.5</ele><time>2026-04-19T07:25:53.377Z</time></trkpt><trkpt lat="39.4088052" lon="-3.2751845"><ele>640.0</ele><time>2026-04-19T07:25:54.367Z</time></trkpt><trkpt lat="39.408813" lon="-3.2748589"><ele>640.0</ele><time>2026-04-19T07:25:55.371Z</time></trkpt><trkpt lat="39.4088282" lon="-3.2745569"><ele>640.0</ele><time>2026-04-19T07:25:56.378Z</time></trkpt><trkpt lat="39.4088469" lon="-3.274259"><ele>640.0</ele><time>2026-04-19T07:25:57.38Z</time></trkpt><trkpt lat="39.4088686" lon="-3.2739509"><ele>640.0</ele><time>2026-04-19T07:25:58.381Z</time></trkpt><trkpt lat="39.4088907" lon="-3.2736627"><ele>639.6666666666667</ele><time>2026-04-19T07:25:59.37Z</time></trkpt><trkpt lat="39.4089093" lon="-3.2734066"><ele>639.3333333333334</ele><time>2026-04-19T07:26:00.379Z</time></trkpt><trkpt lat="39.4089183" lon="-3.2731794"><ele>639.0</ele><time>2026-04-19T07:26:01.372Z</time></trkpt><trkpt lat="39.4089185" lon="-3.2729719"><ele>639.6666666666666</ele><time>2026-04-19T07:26:02.378Z</time></trkpt><trkpt lat="39.4089129" lon="-3.2727783"><ele>640.3333333333333</ele><time>2026-04-19T07:26:03.371Z</time></trkpt><trkpt lat="39.4088998" lon="-3.2725836"><ele>641.0</ele><time>2026-04-19T07:26:04.378Z</time></trkpt><trkpt lat="39.4088725" lon="-3.2723691"><ele>641.0</ele><time>2026-04-19T07:26:05.375Z</time></trkpt><trkpt lat="39.4088342" lon="-3.2721314"><ele>641.0</ele><time>2026-04-19T07:26:06.37Z</time></trkpt><trkpt lat="39.4087958" lon="-3.271869"><ele>641.0</ele><time>2026-04-19T07:26:07.38Z</time></trkpt><trkpt lat="39.408763" lon="-3.2715839"><ele>642.0</ele><time>2026-04-19T07:26:08.374Z</time></trkpt><trkpt lat="39.4087354" lon="-3.2712819"><ele>643.0</ele><time>2026-04-19T07:26:09.375Z</time></trkpt><trkpt lat="39.4087135" lon="-3.2709955"><ele>643.0</ele><time>2026-04-19T07:26:10.378Z</time></trkpt><trkpt lat="39.4086922" lon="-3.2707235"><ele>643.0</ele><time>2026-04-19T07:26:11.376Z</time></trkpt><trkpt lat="39.4086647" lon="-3.2704588"><ele>643.0</ele><time>2026-04-19T07:26:12.369Z</time></trkpt><trkpt lat="39.4086287" lon="-3.2701951"><ele>643.0</ele><time>2026-04-19T07:26:13.384Z</time></trkpt><trkpt lat="39.408577" lon="-3.269909"><ele>643.0</ele><time>2026-04-19T07:26:14.378Z</time></trkpt><trkpt lat="39.4085176" lon="-3.2696082"><ele>643.3333333333334</ele><time>2026-04-19T07:26:15.386Z</time></trkpt><trkpt lat="39.4084624" lon="-3.2693256"><ele>643.6666666666666</ele><time>2026-04-19T07:26:16.369Z</time></trkpt><trkpt lat="39.4084154" lon="-3.269067"><ele>644.0</ele><time>2026-04-19T07:26:17.406Z</time></trkpt><trkpt lat="39.4083748" lon="-3.2688255"><ele>644.0</ele><time>2026-04-19T07:26:18.378Z</time></trkpt><trkpt lat="39.4083431" lon="-3.2685973"><ele>644.0</ele><time>2026-04-19T07:26:19.375Z</time></trkpt><trkpt lat="39.4083176" lon="-3.2683822"><ele>644.0</ele><time>2026-04-19T07:26:20.377Z</time></trkpt><trkpt lat="39.4082959" lon="-3.2681813"><ele>643.6666666666666</ele><time>2026-04-19T07:26:21.369Z</time></trkpt><trkpt lat="39.4082757" lon="-3.2679806"><ele>643.3333333333334</ele><time>2026-04-19T07:26:22.377Z</time></trkpt><trkpt lat="39.4082533" lon="-3.2677753"><ele>643.0</ele><time>2026-04-19T07:26:23.379Z</time></trkpt><trkpt lat="39.4082257" lon="-3.2675679"><ele>643.0</ele><time>2026-04-19T07:26:24.384Z</time></trkpt><trkpt lat="39.4081923" lon="-3.2673621"><ele>643.0</ele><time>2026-04-19T07:26:25.379Z</time></trkpt><trkpt lat="39.4081558" lon="-3.2671566"><ele>643.0</ele><time>2026-04-19T07:26:26.378Z</time></trkpt><trkpt lat="39.4081181" lon="-3.2669486"><ele>643.0</ele><time>2026-04-19T07:26:27.376Z</time></trkpt><trkpt lat="39.4080774" lon="-3.2667365"><ele>643.0</ele><time>2026-04-19T07:26:28.381Z</time></trkpt><trkpt lat="39.4080317" lon="-3.2665222"><ele>643.0</ele><time>2026-04-19T07:26:29.378Z</time></trkpt><trkpt lat="39.4079832" lon="-3.2663011"><ele>643.0</ele><time>2026-04-19T07:26:30.373Z</time></trkpt><trkpt lat="39.4079272" lon="-3.2660779"><ele>643.0</ele><time>2026-04-19T07:26:31.384Z</time></trkpt><trkpt lat="39.4078649" lon="-3.2658693"><ele>643.0</ele><time>2026-04-19T07:26:32.376Z</time></trkpt><trkpt lat="39.4077981" lon="-3.2656696"><ele>642.6666666666667</ele><time>2026-04-19T07:26:33.373Z</time></trkpt><trkpt lat="39.4077306" lon="-3.2654666"><ele>642.3333333333334</ele><time>2026-04-19T07:26:34.373Z</time></trkpt><trkpt lat="39.407668" lon="-3.265251"><ele>642.0</ele><time>2026-04-19T07:26:35.377Z</time></trkpt><trkpt lat="39.4076136" lon="-3.265022"><ele>642.0</ele><time>2026-04-19T07:26:36.393Z</time></trkpt><trkpt lat="39.4075699" lon="-3.2647929"><ele>642.0</ele><time>2026-04-19T07:26:37.39Z</time></trkpt><trkpt lat="39.4075284" lon="-3.2645532"><ele>642.0</ele><time>2026-04-19T07:26:38.385Z</time></trkpt><trkpt lat="39.4074806" lon="-3.2642995"><ele>641.6666666666666</ele><time>2026-04-19T07:26:39.379Z</time></trkpt><trkpt lat="39.4074288" lon="-3.2640296"><ele>641.3333333333333</ele><time>2026-04-19T07:26:40.377Z</time></trkpt><trkpt lat="39.4073705" lon="-3.2637647"><ele>641.0</ele><time>2026-04-19T07:26:41.398Z</time></trkpt><trkpt lat="39.4073009" lon="-3.2634866"><ele>641.0</ele><time>2026-04-19T07:26:42.385Z</time></trkpt><trkpt lat="39.407227" lon="-3.2632175"><ele>641.0</ele><time>2026-04-19T07:26:43.374Z</time></trkpt><trkpt lat="39.4071525" lon="-3.2629672"><ele>641.0</ele><time>2026-04-19T07:26:44.391Z</time></trkpt><trkpt lat="39.407079" lon="-3.2627332"><ele>641.0</ele><time>2026-04-19T07:26:45.379Z</time></trkpt><trkpt lat="39.4070083" lon="-3.2625119"><ele>641.0</ele><time>2026-04-19T07:26:46.374Z</time></trkpt><trkpt lat="39.4069359" lon="-3.262277"><ele>641.0</ele><time>2026-04-19T07:26:47.377Z</time></trkpt><trkpt lat="39.4068609" lon="-3.262018"><ele>641.0</ele><time>2026-04-19T07:26:48.37Z</time></trkpt><trkpt lat="39.4067888" lon="-3.2617471"><ele>641.0</ele><time>2026-04-19T07:26:49.378Z</time></trkpt><trkpt lat="39.4067168" lon="-3.2614628"><ele>641.3333333333333</ele><time>2026-04-19T07:26:50.377Z</time></trkpt><trkpt lat="39.4066482" lon="-3.2611945"><ele>641.6666666666666</ele><time>2026-04-19T07:26:51.384Z</time></trkpt><trkpt lat="39.4065814" lon="-3.2609437"><ele>642.0</ele><time>2026-04-19T07:26:52.377Z</time></trkpt><trkpt lat="39.4065139" lon="-3.2607107"><ele>642.0</ele><time>2026-04-19T07:26:53.392Z</time></trkpt><trkpt lat="39.4064507" lon="-3.2604893"><ele>642.0</ele><time>2026-04-19T07:26:54.371Z</time></trkpt><trkpt lat="39.4063879" lon="-3.2602801"><ele>642.0</ele><time>2026-04-19T07:26:55.375Z</time></trkpt><trkpt lat="39.406322" lon="-3.2600666"><ele>641.3333333333334</ele><time>2026-04-19T07:26:56.384Z</time></trkpt><trkpt lat="39.4062515" lon="-3.2598673"><ele>640.6666666666667</ele><time>2026-04-19T07:26:57.413Z</time></trkpt><trkpt lat="39.4061783" lon="-3.2596821"><ele>640.0</ele><time>2026-04-19T07:26:58.37Z</time></trkpt><trkpt lat="39.4061108" lon="-3.2595062"><ele>639.5</ele><time>2026-04-19T07:26:59.376Z</time></trkpt><trkpt lat="39.4060461" lon="-3.2593398"><ele>639.0</ele><time>2026-04-19T07:27:00.373Z</time></trkpt><trkpt lat="39.4059849" lon="-3.2591823"><ele>638.5</ele><time>2026-04-19T07:27:01.38Z</time></trkpt><trkpt lat="39.4059237" lon="-3.2590291"><ele>638.0</ele><time>2026-04-19T07:27:02.369Z</time></trkpt><trkpt lat="39.4058651" lon="-3.2588808"><ele>638.0</ele><time>2026-04-19T07:27:03.376Z</time></trkpt><trkpt lat="39.4058089" lon="-3.2587394"><ele>638.0</ele><time>2026-04-19T07:27:04.375Z</time></trkpt><trkpt lat="39.4057564" lon="-3.258603"><ele>638.0</ele><time>2026-04-19T07:27:05.379Z</time></trkpt><trkpt lat="39.405701" lon="-3.2584559"><ele>638.0</ele><time>2026-04-19T07:27:06.374Z</time></trkpt><trkpt lat="39.4056379" lon="-3.2582948"><ele>638.0</ele><time>2026-04-19T07:27:07.376Z</time></trkpt><trkpt lat="39.4055718" lon="-3.2581159"><ele>638.0</ele><time>2026-04-19T07:27:08.375Z</time></trkpt><trkpt lat="39.4055014" lon="-3.2579255"><ele>638.0</ele><time>2026-04-19T07:27:09.384Z</time></trkpt><trkpt lat="39.4054355" lon="-3.2577462"><ele>638.0</ele><time>2026-04-19T07:27:10.382Z</time></trkpt><trkpt lat="39.4053734" lon="-3.2575742"><ele>638.0</ele><time>2026-04-19T07:27:11.376Z</time></trkpt><trkpt lat="39.4053087" lon="-3.2573957"><ele>638.0</ele><time>2026-04-19T07:27:12.371Z</time></trkpt><trkpt lat="39.4052454" lon="-3.257214"><ele>637.3333333333333</ele><time>2026-04-19T07:27:13.376Z</time></trkpt><trkpt lat="39.4051804" lon="-3.2570285"><ele>636.6666666666666</ele><time>2026-04-19T07:27:14.378Z</time></trkpt><trkpt lat="39.4051133" lon="-3.2568391"><ele>636.0</ele><time>2026-04-19T07:27:15.383Z</time></trkpt><trkpt lat="39.4050452" lon="-3.2566457"><ele>636.0</ele><time>2026-04-19T07:27:16.377Z</time></trkpt><trkpt lat="39.4049797" lon="-3.2564557"><ele>636.0</ele><time>2026-04-19T07:27:17.375Z</time></trkpt><trkpt lat="39.4049158" lon="-3.2562711"><ele>636.0</ele><time>2026-04-19T07:27:18.38Z</time></trkpt><trkpt lat="39.4048528" lon="-3.2560867"><ele>634.6666666666666</ele><time>2026-04-19T07:27:19.381Z</time></trkpt><trkpt lat="39.4047915" lon="-3.2558903"><ele>633.3333333333333</ele><time>2026-04-19T07:27:20.373Z</time></trkpt><trkpt lat="39.4047291" lon="-3.255684"><ele>632.0</ele><time>2026-04-19T07:27:21.375Z</time></trkpt><trkpt lat="39.4046652" lon="-3.2554696"><ele>633.0</ele><time>2026-04-19T07:27:22.372Z</time></trkpt><trkpt lat="39.4046005" lon="-3.2552526"><ele>634.0</ele><time>2026-04-19T07:27:23.373Z</time></trkpt><trkpt lat="39.404537" lon="-3.2550441"><ele>635.0</ele><time>2026-04-19T07:27:24.374Z</time></trkpt><trkpt lat="39.4044805" lon="-3.2548433"><ele>634.6666666666666</ele><time>2026-04-19T07:27:25.378Z</time></trkpt><trkpt lat="39.4044269" lon="-3.2546492"><ele>634.3333333333334</ele><time>2026-04-19T07:27:26.388Z</time></trkpt><trkpt lat="39.4043698" lon="-3.2544583"><ele>634.0</ele><time>2026-04-19T07:27:27.377Z</time></trkpt><trkpt lat="39.4043099" lon="-3.2542643"><ele>634.0</ele><time>2026-04-19T07:27:28.375Z</time></trkpt><trkpt lat="39.4042532" lon="-3.2540776"><ele>634.0</ele><time>2026-04-19T07:27:29.37Z</time></trkpt><trkpt lat="39.4041948" lon="-3.2538925"><ele>634.0</ele><time>2026-04-19T07:27:30.379Z</time></trkpt><trkpt lat="39.4041303" lon="-3.2537062"><ele>633.0</ele><time>2026-04-19T07:27:31.374Z</time></trkpt><trkpt lat="39.404062" lon="-3.2535186"><ele>632.0</ele><time>2026-04-19T07:27:32.378Z</time></trkpt><trkpt lat="39.4039922" lon="-3.2533312"><ele>631.0</ele><time>2026-04-19T07:27:33.377Z</time></trkpt><trkpt lat="39.4039212" lon="-3.2531478"><ele>631.0</ele><time>2026-04-19T07:27:34.379Z</time></trkpt><trkpt lat="39.4038512" lon="-3.2529666"><ele>631.0</ele><time>2026-04-19T07:27:35.377Z</time></trkpt><trkpt lat="39.4037816" lon="-3.2527863"><ele>631.0</ele><time>2026-04-19T07:27:36.381Z</time></trkpt><trkpt lat="39.4037124" lon="-3.2526084"><ele>631.25</ele><time>2026-04-19T07:27:37.376Z</time></trkpt><trkpt lat="39.4036465" lon="-3.2524345"><ele>631.5</ele><time>2026-04-19T07:27:38.379Z</time></trkpt><trkpt lat="39.4035824" lon="-3.2522628"><ele>631.75</ele><time>2026-04-19T07:27:39.376Z</time></trkpt><trkpt lat="39.403521" lon="-3.2520999"><ele>632.0</ele><time>2026-04-19T07:27:40.379Z</time></trkpt><trkpt lat="39.4034635" lon="-3.2519469"><ele>632.0</ele><time>2026-04-19T07:27:41.377Z</time></trkpt><trkpt lat="39.4034085" lon="-3.2517997"><ele>632.0</ele><time>2026-04-19T07:27:42.37Z</time></trkpt><trkpt lat="39.4033517" lon="-3.251652"><ele>632.0</ele><time>2026-04-19T07:27:43.38Z</time></trkpt><trkpt lat="39.4032935" lon="-3.2515012"><ele>632.0</ele><time>2026-04-19T07:27:44.378Z</time></trkpt><trkpt lat="39.4032365" lon="-3.2513456"><ele>632.75</ele><time>2026-04-19T07:27:45.381Z</time></trkpt><trkpt lat="39.4031799" lon="-3.2511846"><ele>633.5</ele><time>2026-04-19T07:27:46.376Z</time></trkpt><trkpt lat="39.403122" lon="-3.2510216"><ele>634.25</ele><time>2026-04-19T07:27:47.376Z</time></trkpt><trkpt lat="39.4030628" lon="-3.2508587"><ele>635.0</ele><time>2026-04-19T07:27:48.384Z</time></trkpt><trkpt lat="39.4030044" lon="-3.2506985"><ele>634.25</ele><time>2026-04-19T07:27:49.377Z</time></trkpt><trkpt lat="39.4029472" lon="-3.250546"><ele>633.5</ele><time>2026-04-19T07:27:50.376Z</time></trkpt><trkpt lat="39.4028947" lon="-3.2504031"><ele>632.75</ele><time>2026-04-19T07:27:51.374Z</time></trkpt><trkpt lat="39.4028457" lon="-3.2502698"><ele>632.0</ele><time>2026-04-19T07:27:52.382Z</time></trkpt><trkpt lat="39.4028" lon="-3.2501432"><ele>632.0</ele><time>2026-04-19T07:27:53.377Z</time></trkpt><trkpt lat="39.402756" lon="-3.2500191"><ele>632.0</ele><time>2026-04-19T07:27:54.375Z</time></trkpt><trkpt lat="39.4027096" lon="-3.2498991"><ele>632.0</ele><time>2026-04-19T07:27:55.376Z</time></trkpt><trkpt lat="39.4026624" lon="-3.2497819"><ele>632.0</ele><time>2026-04-19T07:27:56.376Z</time></trkpt><trkpt lat="39.4026184" lon="-3.2496664"><ele>632.0</ele><time>2026-04-19T07:27:57.367Z</time></trkpt><trkpt lat="39.4025755" lon="-3.2495518"><ele>632.2</ele><time>2026-04-19T07:27:58.384Z</time></trkpt><trkpt lat="39.4025321" lon="-3.2494361"><ele>632.4000000000001</ele><time>2026-04-19T07:27:59.379Z</time></trkpt><trkpt lat="39.4024879" lon="-3.2493165"><ele>632.5999999999999</ele><time>2026-04-19T07:28:00.388Z</time></trkpt><trkpt lat="39.4024414" lon="-3.2491922"><ele>632.8</ele><time>2026-04-19T07:28:01.38Z</time></trkpt><trkpt lat="39.4023942" lon="-3.2490623"><ele>633.0</ele><time>2026-04-19T07:28:02.372Z</time></trkpt><trkpt lat="39.4023473" lon="-3.2489307"><ele>633.0</ele><time>2026-04-19T07:28:03.368Z</time></trkpt><trkpt lat="39.4023017" lon="-3.2488054"><ele>633.0</ele><time>2026-04-19T07:28:04.387Z</time></trkpt><trkpt lat="39.4022553" lon="-3.2486821"><ele>633.0</ele><time>2026-04-19T07:28:05.376Z</time></trkpt><trkpt lat="39.4022104" lon="-3.2485616"><ele>633.0</ele><time>2026-04-19T07:28:06.376Z</time></trkpt><trkpt lat="39.4021684" lon="-3.2484394"><ele>633.0</ele><time>2026-04-19T07:28:07.376Z</time></trkpt><trkpt lat="39.4021277" lon="-3.2483125"><ele>633.0</ele><time>2026-04-19T07:28:08.383Z</time></trkpt><trkpt lat="39.4020873" lon="-3.2481787"><ele>633.0</ele><time>2026-04-19T07:28:09.382Z</time></trkpt><trkpt lat="39.4020485" lon="-3.2480385"><ele>633.0</ele><time>2026-04-19T07:28:10.383Z</time></trkpt><trkpt lat="39.4020157" lon="-3.2479041"><ele>633.0</ele><time>2026-04-19T07:28:11.38Z</time></trkpt><trkpt lat="39.4019869" lon="-3.2477708"><ele>633.0</ele><time>2026-04-19T07:28:12.379Z</time></trkpt><trkpt lat="39.4019607" lon="-3.2476429"><ele>633.0</ele><time>2026-04-19T07:28:13.387Z</time></trkpt><trkpt lat="39.4019351" lon="-3.2475231"><ele>633.0</ele><time>2026-04-19T07:28:14.384Z</time></trkpt><trkpt lat="39.401912" lon="-3.2473943"><ele>633.0</ele><time>2026-04-19T07:28:15.379Z</time></trkpt><trkpt lat="39.4018808" lon="-3.2472622"><ele>633.0</ele><time>2026-04-19T07:28:16.37Z</time></trkpt><trkpt lat="39.4018461" lon="-3.2471147"><ele>633.0</ele><time>2026-04-19T07:28:17.392Z</time></trkpt><trkpt lat="39.4018128" lon="-3.2469547"><ele>633.0</ele><time>2026-04-19T07:28:18.381Z</time></trkpt><trkpt lat="39.4017788" lon="-3.2467854"><ele>633.0</ele><time>2026-04-19T07:28:19.384Z</time></trkpt><trkpt lat="39.4017418" lon="-3.2466048"><ele>633.0</ele><time>2026-04-19T07:28:20.378Z</time></trkpt><trkpt lat="39.4017032" lon="-3.2464142"><ele>633.0</ele><time>2026-04-19T07:28:21.379Z</time></trkpt><trkpt lat="39.4016598" lon="-3.2462098"><ele>633.0</ele><time>2026-04-19T07:28:22.371Z</time></trkpt><trkpt lat="39.4016159" lon="-3.2459879"><ele>633.0</ele><time>2026-04-19T07:28:23.38Z</time></trkpt><trkpt lat="39.4015749" lon="-3.2457504"><ele>633.0</ele><time>2026-04-19T07:28:24.378Z</time></trkpt><trkpt lat="39.401531" lon="-3.2454991"><ele>633.0</ele><time>2026-04-19T07:28:25.386Z</time></trkpt><trkpt lat="39.4014843" lon="-3.245245"><ele>633.0</ele><time>2026-04-19T07:28:26.372Z</time></trkpt><trkpt lat="39.4014369" lon="-3.245006"><ele>633.0</ele><time>2026-04-19T07:28:27.375Z</time></trkpt><trkpt lat="39.4013864" lon="-3.2447811"><ele>633.0</ele><time>2026-04-19T07:28:28.381Z</time></trkpt><trkpt lat="39.4013343" lon="-3.2445615"><ele>633.0</ele><time>2026-04-19T07:28:29.374Z</time></trkpt><trkpt lat="39.4012748" lon="-3.2443241"><ele>633.0</ele><time>2026-04-19T07:28:30.375Z</time></trkpt><trkpt lat="39.4012025" lon="-3.2440691"><ele>633.6666666666666</ele><time>2026-04-19T07:28:31.372Z</time></trkpt><trkpt lat="39.4011239" lon="-3.2438203"><ele>634.3333333333333</ele><time>2026-04-19T07:28:32.376Z</time></trkpt><trkpt lat="39.4010486" lon="-3.2435792"><ele>635.0</ele><time>2026-04-19T07:28:33.371Z</time></trkpt><trkpt lat="39.4009806" lon="-3.2433413"><ele>634.6666666666666</ele><time>2026-04-19T07:28:34.379Z</time></trkpt><trkpt lat="39.4009254" lon="-3.243111"><ele>634.3333333333334</ele><time>2026-04-19T07:28:35.375Z</time></trkpt><trkpt lat="39.4008838" lon="-3.2428725"><ele>634.0</ele><time>2026-04-19T07:28:36.374Z</time></trkpt><trkpt lat="39.400852" lon="-3.2426095"><ele>634.0</ele><time>2026-04-19T07:28:37.369Z</time></trkpt><trkpt lat="39.4008143" lon="-3.2423259"><ele>634.0</ele><time>2026-04-19T07:28:38.378Z</time></trkpt><trkpt lat="39.4007675" lon="-3.2420562"><ele>634.0</ele><time>2026-04-19T07:28:39.375Z</time></trkpt><trkpt lat="39.4007198" lon="-3.2418027"><ele>635.0</ele><time>2026-04-19T07:28:40.371Z</time></trkpt><trkpt lat="39.400683" lon="-3.2415579"><ele>636.0</ele><time>2026-04-19T07:28:41.373Z</time></trkpt><trkpt lat="39.4006536" lon="-3.2413032"><ele>637.0</ele><time>2026-04-19T07:28:42.376Z</time></trkpt><trkpt lat="39.4006309" lon="-3.2410585"><ele>637.0</ele><time>2026-04-19T07:28:43.387Z</time></trkpt><trkpt lat="39.400614" lon="-3.2408284"><ele>637.0</ele><time>2026-04-19T07:28:44.376Z</time></trkpt><trkpt lat="39.4006009" lon="-3.240611"><ele>637.0</ele><time>2026-04-19T07:28:45.376Z</time></trkpt><trkpt lat="39.4005876" lon="-3.2404055"><ele>637.25</ele><time>2026-04-19T07:28:46.379Z</time></trkpt><trkpt lat="39.4005735" lon="-3.2402113"><ele>637.5</ele><time>2026-04-19T07:28:47.379Z</time></trkpt><trkpt lat="39.4005591" lon="-3.2400288"><ele>637.75</ele><time>2026-04-19T07:28:48.373Z</time></trkpt><trkpt lat="39.4005428" lon="-3.2398579"><ele>638.0</ele><time>2026-04-19T07:28:49.375Z</time></trkpt><trkpt lat="39.4005233" lon="-3.2396967"><ele>638.0</ele><time>2026-04-19T07:28:50.379Z</time></trkpt><trkpt lat="39.4005014" lon="-3.2395432"><ele>638.0</ele><time>2026-04-19T07:28:51.38Z</time></trkpt><trkpt lat="39.4004789" lon="-3.2394004"><ele>638.0</ele><time>2026-04-19T07:28:52.376Z</time></trkpt><trkpt lat="39.4004547" lon="-3.239267"><ele>638.0</ele><time>2026-04-19T07:28:53.377Z</time></trkpt><trkpt lat="39.4004234" lon="-3.2391271"><ele>636.75</ele><time>2026-04-19T07:28:54.382Z</time></trkpt><trkpt lat="39.4003817" lon="-3.2389825"><ele>635.5</ele><time>2026-04-19T07:28:55.375Z</time></trkpt><trkpt lat="39.4003332" lon="-3.2388339"><ele>634.25</ele><time>2026-04-19T07:28:56.379Z</time></trkpt><trkpt lat="39.4002785" lon="-3.2386751"><ele>633.0</ele><time>2026-04-19T07:28:57.384Z</time></trkpt><trkpt lat="39.4002188" lon="-3.2385024"><ele>633.0</ele><time>2026-04-19T07:28:58.376Z</time></trkpt><trkpt lat="39.400165" lon="-3.2383319"><ele>633.0</ele><time>2026-04-19T07:28:59.375Z</time></trkpt><trkpt lat="39.4001157" lon="-3.2381699"><ele>633.0</ele><time>2026-04-19T07:29:00.378Z</time></trkpt><trkpt lat="39.4000724" lon="-3.2380156"><ele>633.0</ele><time>2026-04-19T07:29:01.378Z</time></trkpt><trkpt lat="39.4000288" lon="-3.2378632"><ele>633.0</ele><time>2026-04-19T07:29:02.373Z</time></trkpt><trkpt lat="39.3999825" lon="-3.2377046"><ele>633.0</ele><time>2026-04-19T07:29:03.375Z</time></trkpt><trkpt lat="39.3999346" lon="-3.2375428"><ele>633.0</ele><time>2026-04-19T07:29:04.371Z</time></trkpt><trkpt lat="39.3998869" lon="-3.2373743"><ele>633.0</ele><time>2026-04-19T07:29:05.375Z</time></trkpt><trkpt lat="39.3998357" lon="-3.2372055"><ele>632.6666666666666</ele><time>2026-04-19T07:29:06.376Z</time></trkpt><trkpt lat="39.3997786" lon="-3.2370354"><ele>632.3333333333333</ele><time>2026-04-19T07:29:07.372Z</time></trkpt><trkpt lat="39.3997088" lon="-3.2368619"><ele>632.0</ele><time>2026-04-19T07:29:08.38Z</time></trkpt><trkpt lat="39.3996283" lon="-3.2366821"><ele>632.0</ele><time>2026-04-19T07:29:09.372Z</time></trkpt><trkpt lat="39.3995422" lon="-3.2364957"><ele>632.0</ele><time>2026-04-19T07:29:10.372Z</time></trkpt><trkpt lat="39.3994526" lon="-3.2363031"><ele>632.0</ele><time>2026-04-19T07:29:11.375Z</time></trkpt><trkpt lat="39.3993628" lon="-3.2361128"><ele>633.6666666666666</ele><time>2026-04-19T07:29:12.375Z</time></trkpt><trkpt lat="39.399274" lon="-3.2359283"><ele>635.3333333333334</ele><time>2026-04-19T07:29:13.375Z</time></trkpt><trkpt lat="39.399184" lon="-3.2357394"><ele>637.0</ele><time>2026-04-19T07:29:14.378Z</time></trkpt><trkpt lat="39.3990945" lon="-3.2355451"><ele>637.3333333333334</ele><time>2026-04-19T07:29:15.373Z</time></trkpt><trkpt lat="39.3990046" lon="-3.2353479"><ele>637.6666666666666</ele><time>2026-04-19T07:29:16.379Z</time></trkpt><trkpt lat="39.3989165" lon="-3.235146"><ele>638.0</ele><time>2026-04-19T07:29:17.38Z</time></trkpt><trkpt lat="39.3988321" lon="-3.2349465"><ele>637.3333333333333</ele><time>2026-04-19T07:29:18.376Z</time></trkpt><trkpt lat="39.3987528" lon="-3.234757"><ele>636.6666666666666</ele><time>2026-04-19T07:29:19.375Z</time></trkpt><trkpt lat="39.3986845" lon="-3.234574"><ele>636.0</ele><time>2026-04-19T07:29:20.372Z</time></trkpt><trkpt lat="39.398627" lon="-3.2343968"><ele>636.0</ele><time>2026-04-19T07:29:21.382Z</time></trkpt><trkpt lat="39.3985802" lon="-3.2342262"><ele>636.0</ele><time>2026-04-19T07:29:22.372Z</time></trkpt><trkpt lat="39.3985395" lon="-3.2340538"><ele>636.0</ele><time>2026-04-19T07:29:23.375Z</time></trkpt><trkpt lat="39.3984998" lon="-3.2338911"><ele>636.0</ele><time>2026-04-19T07:29:24.377Z</time></trkpt><trkpt lat="39.3984534" lon="-3.2337425"><ele>636.5</ele><time>2026-04-19T07:29:25.385Z</time></trkpt><trkpt lat="39.3983983" lon="-3.2336072"><ele>637.0</ele><time>2026-04-19T07:29:26.373Z</time></trkpt><trkpt lat="39.3983304" lon="-3.2334736"><ele>637.5</ele><time>2026-04-19T07:29:27.372Z</time></trkpt><trkpt lat="39.3982497" lon="-3.2333449"><ele>638.0</ele><time>2026-04-19T07:29:28.374Z</time></trkpt><trkpt lat="39.3981648" lon="-3.2332249"><ele>638.5</ele><time>2026-04-19T07:29:29.374Z</time></trkpt><trkpt lat="39.3980828" lon="-3.2331121"><ele>639.0</ele><time>2026-04-19T07:29:30.372Z</time></trkpt><trkpt lat="39.3979975" lon="-3.232996"><ele>639.5</ele><time>2026-04-19T07:29:31.385Z</time></trkpt><trkpt lat="39.3979084" lon="-3.2328752"><ele>640.0</ele><time>2026-04-19T07:29:32.374Z</time></trkpt><trkpt lat="39.3978226" lon="-3.232754"><ele>640.0</ele><time>2026-04-19T07:29:33.377Z</time></trkpt><trkpt lat="39.3977393" lon="-3.232627"><ele>640.0</ele><time>2026-04-19T07:29:34.388Z</time></trkpt><trkpt lat="39.3976644" lon="-3.2324968"><ele>640.0</ele><time>2026-04-19T07:29:35.376Z</time></trkpt><trkpt lat="39.3976006" lon="-3.2323683"><ele>640.0</ele><time>2026-04-19T07:29:36.38Z</time></trkpt><trkpt lat="39.3975481" lon="-3.2322339"><ele>640.5</ele><time>2026-04-19T07:29:37.376Z</time></trkpt><trkpt lat="39.3975067" lon="-3.2320854"><ele>641.0</ele><time>2026-04-19T07:29:38.388Z</time></trkpt><trkpt lat="39.3974768" lon="-3.2319214"><ele>641.5</ele><time>2026-04-19T07:29:39.374Z</time></trkpt><trkpt lat="39.3974516" lon="-3.2317481"><ele>642.0</ele><time>2026-04-19T07:29:40.382Z</time></trkpt><trkpt lat="39.3974258" lon="-3.2315666"><ele>642.25</ele><time>2026-04-19T07:29:41.375Z</time></trkpt><trkpt lat="39.3974004" lon="-3.2313785"><ele>642.5</ele><time>2026-04-19T07:29:42.383Z</time></trkpt><trkpt lat="39.3973753" lon="-3.2311924"><ele>642.75</ele><time>2026-04-19T07:29:43.377Z</time></trkpt><trkpt lat="39.3973515" lon="-3.2310149"><ele>643.0</ele><time>2026-04-19T07:29:44.385Z</time></trkpt><trkpt lat="39.3973289" lon="-3.2308517"><ele>643.0</ele><time>2026-04-19T07:29:45.374Z</time></trkpt><trkpt lat="39.3973083" lon="-3.2307014"><ele>643.0</ele><time>2026-04-19T07:29:46.389Z</time></trkpt><trkpt lat="39.3972889" lon="-3.2305537"><ele>643.0</ele><time>2026-04-19T07:29:47.378Z</time></trkpt><trkpt lat="39.3972715" lon="-3.2304209"><ele>643.0</ele><time>2026-04-19T07:29:48.38Z</time></trkpt><trkpt lat="39.3972635" lon="-3.2302804"><ele>643.0</ele><time>2026-04-19T07:29:49.384Z</time></trkpt><trkpt lat="39.3972518" lon="-3.2301344"><ele>643.0</ele><time>2026-04-19T07:29:50.383Z</time></trkpt><trkpt lat="39.3972451" lon="-3.2299964"><ele>643.0</ele><time>2026-04-19T07:29:51.379Z</time></trkpt><trkpt lat="39.3972313" lon="-3.2298535"><ele>643.0</ele><time>2026-04-19T07:29:52.377Z</time></trkpt><trkpt lat="39.3972177" lon="-3.2297088"><ele>643.0</ele><time>2026-04-19T07:29:53.386Z</time></trkpt><trkpt lat="39.3972046" lon="-3.2295648"><ele>643.0</ele><time>2026-04-19T07:29:54.38Z</time></trkpt><trkpt lat="39.3971937" lon="-3.229423"><ele>642.75</ele><time>2026-04-19T07:29:55.383Z</time></trkpt><trkpt lat="39.397184" lon="-3.2292725"><ele>642.5</ele><time>2026-04-19T07:29:56.38Z</time></trkpt><trkpt lat="39.3971783" lon="-3.2291162"><ele>642.25</ele><time>2026-04-19T07:29:57.381Z</time></trkpt><trkpt lat="39.3971766" lon="-3.2289572"><ele>642.0</ele><time>2026-04-19T07:29:58.377Z</time></trkpt><trkpt lat="39.3971739" lon="-3.2288051"><ele>642.2</ele><time>2026-04-19T07:29:59.383Z</time></trkpt><trkpt lat="39.3971681" lon="-3.2286607"><ele>642.4000000000001</ele><time>2026-04-19T07:30:00.375Z</time></trkpt><trkpt lat="39.3971638" lon="-3.2285196"><ele>642.5999999999999</ele><time>2026-04-19T07:30:01.384Z</time></trkpt><trkpt lat="39.3971641" lon="-3.2283872"><ele>642.8</ele><time>2026-04-19T07:30:02.379Z</time></trkpt><trkpt lat="39.3971637" lon="-3.2282673"><ele>643.0</ele><time>2026-04-19T07:30:03.38Z</time></trkpt><trkpt lat="39.3971622" lon="-3.2281637"><ele>643.2</ele><time>2026-04-19T07:30:04.375Z</time></trkpt><trkpt lat="39.3971577" lon="-3.2280768"><ele>643.4</ele><time>2026-04-19T07:30:05.379Z</time></trkpt><trkpt lat="39.3971394" lon="-3.2279464"><ele>643.6</ele><time>2026-04-19T07:30:07.388Z</time></trkpt><trkpt lat="39.3970904" lon="-3.2278384"><ele>643.8000000000001</ele><time>2026-04-19T07:30:10.388Z</time></trkpt><trkpt lat="39.3970635" lon="-3.227723"><ele>644.0</ele><time>2026-04-19T07:30:12.38Z</time></trkpt><trkpt lat="39.3971183" lon="-3.2275695"><ele>643.6</ele><time>2026-04-19T07:30:14.383Z</time></trkpt><trkpt lat="39.397183" lon="-3.2274907"><ele>643.2</ele><time>2026-04-19T07:30:15.38Z</time></trkpt><trkpt lat="39.3972605" lon="-3.227411"><ele>642.8000000000001</ele><time>2026-04-19T07:30:16.372Z</time></trkpt><trkpt lat="39.3973434" lon="-3.2273196"><ele>642.4000000000001</ele><time>2026-04-19T07:30:17.375Z</time></trkpt><trkpt lat="39.397432" lon="-3.227214"><ele>642.0</ele><time>2026-04-19T07:30:18.378Z</time></trkpt><trkpt lat="39.3975177" lon="-3.2271103"><ele>642.0</ele><time>2026-04-19T07:30:19.374Z</time></trkpt><trkpt lat="39.3976078" lon="-3.2270007"><ele>642.0</ele><time>2026-04-19T07:30:20.38Z</time></trkpt><trkpt lat="39.397704" lon="-3.2268869"><ele>642.0</ele><time>2026-04-19T07:30:21.382Z</time></trkpt><trkpt lat="39.397806" lon="-3.2267702"><ele>642.0</ele><time>2026-04-19T07:30:22.377Z</time></trkpt><trkpt lat="39.3979067" lon="-3.2266495"><ele>642.25</ele><time>2026-04-19T07:30:23.381Z</time></trkpt><trkpt lat="39.3980053" lon="-3.2265312"><ele>642.5</ele><time>2026-04-19T07:30:24.385Z</time></trkpt><trkpt lat="39.3981091" lon="-3.226414"><ele>642.75</ele><time>2026-04-19T07:30:25.378Z</time></trkpt><trkpt lat="39.3982121" lon="-3.2262909"><ele>643.0</ele><time>2026-04-19T07:30:26.381Z</time></trkpt><trkpt lat="39.3983149" lon="-3.2261697"><ele>643.0</ele><time>2026-04-19T07:30:27.381Z</time></trkpt><trkpt lat="39.3984158" lon="-3.2260543"><ele>643.0</ele><time>2026-04-19T07:30:28.378Z</time></trkpt><trkpt lat="39.3985091" lon="-3.2259469"><ele>643.0</ele><time>2026-04-19T07:30:29.385Z</time></trkpt><trkpt lat="39.3985955" lon="-3.22584"><ele>643.0</ele><time>2026-04-19T07:30:30.38Z</time></trkpt><trkpt lat="39.3986773" lon="-3.2257361"><ele>642.75</ele><time>2026-04-19T07:30:31.369Z</time></trkpt><trkpt lat="39.3987614" lon="-3.2256346"><ele>642.5</ele><time>2026-04-19T07:30:32.385Z</time></trkpt><trkpt lat="39.3988485" lon="-3.2255294"><ele>642.25</ele><time>2026-04-19T07:30:33.374Z</time></trkpt><trkpt lat="39.398937" lon="-3.225415"><ele>642.0</ele><time>2026-04-19T07:30:34.38Z</time></trkpt><trkpt lat="39.3990232" lon="-3.2252894"><ele>642.75</ele><time>2026-04-19T07:30:35.378Z</time></trkpt><trkpt lat="39.3991071" lon="-3.2251571"><ele>643.5</ele><time>2026-04-19T07:30:36.386Z</time></trkpt><trkpt lat="39.3991907" lon="-3.2250227"><ele>644.25</ele><time>2026-04-19T07:30:37.381Z</time></trkpt><trkpt lat="39.3992732" lon="-3.2248837"><ele>645.0</ele><time>2026-04-19T07:30:38.384Z</time></trkpt><trkpt lat="39.3993513" lon="-3.2247417"><ele>645.0</ele><time>2026-04-19T07:30:39.374Z</time></trkpt><trkpt lat="39.3994278" lon="-3.2246001"><ele>645.0</ele><time>2026-04-19T07:30:40.382Z</time></trkpt><trkpt lat="39.3995049" lon="-3.2244687"><ele>645.0</ele><time>2026-04-19T07:30:41.384Z</time></trkpt><trkpt lat="39.3995811" lon="-3.2243471"><ele>645.0</ele><time>2026-04-19T07:30:42.378Z</time></trkpt><trkpt lat="39.3996531" lon="-3.2242319"><ele>645.75</ele><time>2026-04-19T07:30:43.378Z</time></trkpt><trkpt lat="39.3997246" lon="-3.2241173"><ele>646.5</ele><time>2026-04-19T07:30:44.387Z</time></trkpt><trkpt lat="39.3997983" lon="-3.2240064"><ele>647.25</ele><time>2026-04-19T07:30:45.379Z</time></trkpt><trkpt lat="39.3998744" lon="-3.2238979"><ele>648.0</ele><time>2026-04-19T07:30:46.385Z</time></trkpt><trkpt lat="39.3999565" lon="-3.2237881"><ele>648.0</ele><time>2026-04-19T07:30:47.384Z</time></trkpt><trkpt lat="39.4000459" lon="-3.223671"><ele>648.0</ele><time>2026-04-19T07:30:48.385Z</time></trkpt><trkpt lat="39.4001404" lon="-3.223548"><ele>648.0</ele><time>2026-04-19T07:30:49.379Z</time></trkpt><trkpt lat="39.4002388" lon="-3.2234278"><ele>648.0</ele><time>2026-04-19T07:30:50.388Z</time></trkpt><trkpt lat="39.4003387" lon="-3.2232998"><ele>648.0</ele><time>2026-04-19T07:30:51.386Z</time></trkpt><trkpt lat="39.4004381" lon="-3.2231738"><ele>648.0</ele><time>2026-04-19T07:30:52.375Z</time></trkpt><trkpt lat="39.4005302" lon="-3.2230499"><ele>648.0</ele><time>2026-04-19T07:30:53.374Z</time></trkpt><trkpt lat="39.4006161" lon="-3.2229335"><ele>648.0</ele><time>2026-04-19T07:30:54.405Z</time></trkpt><trkpt lat="39.4006951" lon="-3.2228249"><ele>647.8</ele><time>2026-04-19T07:30:55.402Z</time></trkpt><trkpt lat="39.4007688" lon="-3.2227242"><ele>647.5999999999999</ele><time>2026-04-19T07:30:56.373Z</time></trkpt><trkpt lat="39.4008329" lon="-3.2226329"><ele>647.4000000000001</ele><time>2026-04-19T07:30:57.379Z</time></trkpt><trkpt lat="39.4008874" lon="-3.2225534"><ele>647.2</ele><time>2026-04-19T07:30:58.376Z</time></trkpt><trkpt lat="39.4009345" lon="-3.2224936"><ele>647.0</ele><time>2026-04-19T07:30:59.376Z</time></trkpt><trkpt lat="39.4010135" lon="-3.2223816"><ele>646.6</ele><time>2026-04-19T07:31:01.382Z</time></trkpt><trkpt lat="39.4010709" lon="-3.2223137"><ele>646.2</ele><time>2026-04-19T07:31:02.382Z</time></trkpt><trkpt lat="39.4011398" lon="-3.2222378"><ele>645.8</ele><time>2026-04-19T07:31:03.383Z</time></trkpt><trkpt lat="39.4012192" lon="-3.2221586"><ele>645.4</ele><time>2026-04-19T07:31:04.382Z</time></trkpt><trkpt lat="39.4013131" lon="-3.2220769"><ele>645.0</ele><time>2026-04-19T07:31:05.374Z</time></trkpt><trkpt lat="39.4014218" lon="-3.2220002"><ele>645.0</ele><time>2026-04-19T07:31:06.382Z</time></trkpt><trkpt lat="39.4015339" lon="-3.2219124"><ele>645.0</ele><time>2026-04-19T07:31:07.379Z</time></trkpt><trkpt lat="39.4016452" lon="-3.2218031"><ele>645.0</ele><time>2026-04-19T07:31:08.379Z</time></trkpt><trkpt lat="39.4017589" lon="-3.2216846"><ele>645.0</ele><time>2026-04-19T07:31:09.371Z</time></trkpt><trkpt lat="39.4018712" lon="-3.2215613"><ele>644.75</ele><time>2026-04-19T07:31:10.381Z</time></trkpt><trkpt lat="39.4019868" lon="-3.2214363"><ele>644.5</ele><time>2026-04-19T07:31:11.376Z</time></trkpt><trkpt lat="39.4021005" lon="-3.2213111"><ele>644.25</ele><time>2026-04-19T07:31:12.375Z</time></trkpt><trkpt lat="39.4022064" lon="-3.2211851"><ele>644.0</ele><time>2026-04-19T07:31:13.377Z</time></trkpt><trkpt lat="39.4023052" lon="-3.2210468"><ele>644.0</ele><time>2026-04-19T07:31:14.383Z</time></trkpt><trkpt lat="39.4023978" lon="-3.2208949"><ele>644.0</ele><time>2026-04-19T07:31:15.372Z</time></trkpt><trkpt lat="39.40248" lon="-3.2207384"><ele>644.0</ele><time>2026-04-19T07:31:16.432Z</time></trkpt><trkpt lat="39.4025572" lon="-3.2205825"><ele>644.0</ele><time>2026-04-19T07:31:17.38Z</time></trkpt><trkpt lat="39.4026306" lon="-3.2204356"><ele>644.0</ele><time>2026-04-19T07:31:18.384Z</time></trkpt><trkpt lat="39.4027024" lon="-3.2202972"><ele>644.0</ele><time>2026-04-19T07:31:19.421Z</time></trkpt><trkpt lat="39.4027688" lon="-3.2201681"><ele>644.0</ele><time>2026-04-19T07:31:20.368Z</time></trkpt><trkpt lat="39.4028324" lon="-3.2200446"><ele>644.0</ele><time>2026-04-19T07:31:21.382Z</time></trkpt><trkpt lat="39.4028902" lon="-3.2199256"><ele>643.8000000000001</ele><time>2026-04-19T07:31:22.375Z</time></trkpt><trkpt lat="39.4029435" lon="-3.2198099"><ele>643.6</ele><time>2026-04-19T07:31:23.389Z</time></trkpt><trkpt lat="39.4029924" lon="-3.2196992"><ele>643.4</ele><time>2026-04-19T07:31:24.38Z</time></trkpt><trkpt lat="39.4030409" lon="-3.2195953"><ele>643.2</ele><time>2026-04-19T07:31:25.388Z</time></trkpt><trkpt lat="39.4030868" lon="-3.2195036"><ele>643.0</ele><time>2026-04-19T07:31:26.376Z</time></trkpt><trkpt lat="39.4031214" lon="-3.2194263"><ele>643.0</ele><time>2026-04-19T07:31:27.374Z</time></trkpt><trkpt lat="39.4031451" lon="-3.2193262"><ele>643.0</ele><time>2026-04-19T07:31:29.365Z</time></trkpt><trkpt lat="39.403085" lon="-3.2192335"><ele>643.0</ele><time>2026-04-19T07:31:31.375Z</time></trkpt><trkpt lat="39.4030267" lon="-3.2191831"><ele>643.0</ele><time>2026-04-19T07:31:32.375Z</time></trkpt><trkpt lat="39.4029498" lon="-3.2191307"><ele>643.0</ele><time>2026-04-19T07:31:33.37Z</time></trkpt><trkpt lat="39.4028703" lon="-3.2190708"><ele>643.0</ele><time>2026-04-19T07:31:34.385Z</time></trkpt><trkpt lat="39.4027865" lon="-3.2189954"><ele>643.0</ele><time>2026-04-19T07:31:35.377Z</time></trkpt><trkpt lat="39.4026947" lon="-3.2189134"><ele>643.0</ele><time>2026-04-19T07:31:36.371Z</time></trkpt><trkpt lat="39.4025966" lon="-3.2188299"><ele>643.0</ele><time>2026-04-19T07:31:37.386Z</time></trkpt><trkpt lat="39.4024991" lon="-3.218753"><ele>643.0</ele><time>2026-04-19T07:31:38.373Z</time></trkpt><trkpt lat="39.4024013" lon="-3.2186765"><ele>643.0</ele><time>2026-04-19T07:31:39.37Z</time></trkpt><trkpt lat="39.4023019" lon="-3.2185956"><ele>643.0</ele><time>2026-04-19T07:31:40.379Z</time></trkpt><trkpt lat="39.4021982" lon="-3.2185111"><ele>643.0</ele><time>2026-04-19T07:31:41.375Z</time></trkpt><trkpt lat="39.402093" lon="-3.2184256"><ele>643.0</ele><time>2026-04-19T07:31:42.371Z</time></trkpt><trkpt lat="39.4019838" lon="-3.2183399"><ele>643.5</ele><time>2026-04-19T07:31:43.378Z</time></trkpt><trkpt lat="39.4018715" lon="-3.2182543"><ele>644.0</ele><time>2026-04-19T07:31:44.37Z</time></trkpt><trkpt lat="39.4017647" lon="-3.2181726"><ele>644.5</ele><time>2026-04-19T07:31:45.371Z</time></trkpt><trkpt lat="39.401664" lon="-3.2180936"><ele>645.0</ele><time>2026-04-19T07:31:46.37Z</time></trkpt><trkpt lat="39.401569" lon="-3.218019"><ele>645.4</ele><time>2026-04-19T07:31:47.378Z</time></trkpt><trkpt lat="39.401478" lon="-3.2179505"><ele>645.8</ele><time>2026-04-19T07:31:48.373Z</time></trkpt><trkpt lat="39.4013904" lon="-3.2178888"><ele>646.2</ele><time>2026-04-19T07:31:49.375Z</time></trkpt><trkpt lat="39.4013078" lon="-3.2178288"><ele>646.6</ele><time>2026-04-19T07:31:50.382Z</time></trkpt><trkpt lat="39.4012301" lon="-3.2177716"><ele>647.0</ele><time>2026-04-19T07:31:51.383Z</time></trkpt><trkpt lat="39.4011563" lon="-3.217719"><ele>647.0</ele><time>2026-04-19T07:31:52.374Z</time></trkpt><trkpt lat="39.4010894" lon="-3.2176617"><ele>647.0</ele><time>2026-04-19T07:31:53.378Z</time></trkpt><trkpt lat="39.401023" lon="-3.2176042"><ele>647.0</ele><time>2026-04-19T07:31:54.383Z</time></trkpt><trkpt lat="39.4009503" lon="-3.2175483"><ele>647.0</ele><time>2026-04-19T07:31:55.376Z</time></trkpt><trkpt lat="39.4008674" lon="-3.217487"><ele>647.0</ele><time>2026-04-19T07:31:56.384Z</time></trkpt><trkpt lat="39.4007766" lon="-3.2174194"><ele>647.0</ele><time>2026-04-19T07:31:57.373Z</time></trkpt><trkpt lat="39.4006826" lon="-3.2173441"><ele>647.0</ele><time>2026-04-19T07:31:58.369Z</time></trkpt><trkpt lat="39.4005814" lon="-3.2172622"><ele>647.0</ele><time>2026-04-19T07:31:59.375Z</time></trkpt><trkpt lat="39.4004809" lon="-3.2171841"><ele>647.0</ele><time>2026-04-19T07:32:00.383Z</time></trkpt><trkpt lat="39.4003881" lon="-3.2171135"><ele>647.0</ele><time>2026-04-19T07:32:01.374Z</time></trkpt><trkpt lat="39.4003079" lon="-3.217048"><ele>647.0</ele><time>2026-04-19T07:32:02.38Z</time></trkpt><trkpt lat="39.4002411" lon="-3.2169894"><ele>647.0</ele><time>2026-04-19T07:32:03.377Z</time></trkpt><trkpt lat="39.4001813" lon="-3.2169495"><ele>647.0</ele><time>2026-04-19T07:32:04.383Z</time></trkpt><trkpt lat="39.4000708" lon="-3.2169091"><ele>647.0</ele><time>2026-04-19T07:32:06.382Z</time></trkpt><trkpt lat="39.3999881" lon="-3.2168315"><ele>647.0</ele><time>2026-04-19T07:32:08.377Z</time></trkpt><trkpt lat="39.3999902" lon="-3.2166866"><ele>647.0</ele><time>2026-04-19T07:32:10.372Z</time></trkpt><trkpt lat="39.4000256" lon="-3.2166108"><ele>647.0</ele><time>2026-04-19T07:32:11.374Z</time></trkpt><trkpt lat="39.4000747" lon="-3.2165309"><ele>647.0</ele><time>2026-04-19T07:32:12.383Z</time></trkpt><trkpt lat="39.4001253" lon="-3.216446"><ele>647.0</ele><time>2026-04-19T07:32:13.381Z</time></trkpt><trkpt lat="39.4001697" lon="-3.216355"><ele>647.0</ele><time>2026-04-19T07:32:14.377Z</time></trkpt><trkpt lat="39.4002128" lon="-3.2162515"><ele>647.0</ele><time>2026-04-19T07:32:15.371Z</time></trkpt><trkpt lat="39.4002611" lon="-3.2161328"><ele>647.0</ele><time>2026-04-19T07:32:16.379Z</time></trkpt><trkpt lat="39.4003127" lon="-3.2159967"><ele>647.25</ele><time>2026-04-19T07:32:17.384Z</time></trkpt><trkpt lat="39.4003604" lon="-3.2158519"><ele>647.5</ele><time>2026-04-19T07:32:18.391Z</time></trkpt><trkpt lat="39.4004052" lon="-3.2156931"><ele>647.75</ele><time>2026-04-19T07:32:19.371Z</time></trkpt><trkpt lat="39.4004455" lon="-3.2155182"><ele>648.0</ele><time>2026-04-19T07:32:20.377Z</time></trkpt><trkpt lat="39.4004792" lon="-3.2153356"><ele>648.0</ele><time>2026-04-19T07:32:21.37Z</time></trkpt><trkpt lat="39.4005076" lon="-3.2151491"><ele>648.0</ele><time>2026-04-19T07:32:22.395Z</time></trkpt><trkpt lat="39.4005306" lon="-3.2149598"><ele>648.0</ele><time>2026-04-19T07:32:23.375Z</time></trkpt><trkpt lat="39.4005483" lon="-3.2147795"><ele>648.0</ele><time>2026-04-19T07:32:24.379Z</time></trkpt><trkpt lat="39.4005608" lon="-3.2146118"><ele>648.0</ele><time>2026-04-19T07:32:25.437Z</time></trkpt><trkpt lat="39.4005738" lon="-3.2143073"><ele>648.0</ele><time>2026-04-19T07:32:27.371Z</time></trkpt><trkpt lat="39.4005707" lon="-3.2141578"><ele>648.0</ele><time>2026-04-19T07:32:28.409Z</time></trkpt><trkpt lat="39.4005611" lon="-3.214007"><ele>648.0</ele><time>2026-04-19T07:32:29.373Z</time></trkpt><trkpt lat="39.4005501" lon="-3.2138534"><ele>648.0</ele><time>2026-04-19T07:32:30.384Z</time></trkpt><trkpt lat="39.4005389" lon="-3.2136981"><ele>648.0</ele><time>2026-04-19T07:32:31.373Z</time></trkpt><trkpt lat="39.4005275" lon="-3.213544"><ele>648.0</ele><time>2026-04-19T07:32:32.384Z</time></trkpt><trkpt lat="39.4005174" lon="-3.2133914"><ele>648.0</ele><time>2026-04-19T07:32:33.371Z</time></trkpt><trkpt lat="39.4005074" lon="-3.2132417"><ele>648.0</ele><time>2026-04-19T07:32:34.375Z</time></trkpt><trkpt lat="39.4004962" lon="-3.2130947"><ele>648.0</ele><time>2026-04-19T07:32:35.369Z</time></trkpt><trkpt lat="39.400484" lon="-3.2129494"><ele>648.0</ele><time>2026-04-19T07:32:36.377Z</time></trkpt><trkpt lat="39.4004721" lon="-3.2128051"><ele>648.25</ele><time>2026-04-19T07:32:37.375Z</time></trkpt><trkpt lat="39.400461" lon="-3.2126569"><ele>648.5</ele><time>2026-04-19T07:32:38.371Z</time></trkpt><trkpt lat="39.4004503" lon="-3.212502"><ele>648.75</ele><time>2026-04-19T07:32:39.378Z</time></trkpt><trkpt lat="39.4004395" lon="-3.2123434"><ele>649.0</ele><time>2026-04-19T07:32:40.38Z</time></trkpt><trkpt lat="39.4004276" lon="-3.2121798"><ele>649.0</ele><time>2026-04-19T07:32:41.38Z</time></trkpt><trkpt lat="39.4004135" lon="-3.2120111"><ele>649.0</ele><time>2026-04-19T07:32:42.374Z</time></trkpt><trkpt lat="39.4003992" lon="-3.2118364"><ele>649.0</ele><time>2026-04-19T07:32:43.372Z</time></trkpt><trkpt lat="39.400384" lon="-3.2116567"><ele>649.0</ele><time>2026-04-19T07:32:44.373Z</time></trkpt><trkpt lat="39.4003683" lon="-3.2114725"><ele>648.75</ele><time>2026-04-19T07:32:45.379Z</time></trkpt><trkpt lat="39.4003549" lon="-3.2112846"><ele>648.5</ele><time>2026-04-19T07:32:46.378Z</time></trkpt><trkpt lat="39.4003432" lon="-3.2110954"><ele>648.25</ele><time>2026-04-19T07:32:47.424Z</time></trkpt><trkpt lat="39.4003306" lon="-3.2109098"><ele>648.0</ele><time>2026-04-19T07:32:48.375Z</time></trkpt><trkpt lat="39.4003155" lon="-3.2107244"><ele>648.5</ele><time>2026-04-19T07:32:49.378Z</time></trkpt><trkpt lat="39.4003002" lon="-3.2105451"><ele>649.0</ele><time>2026-04-19T07:32:50.369Z</time></trkpt><trkpt lat="39.4002873" lon="-3.2103717"><ele>649.5</ele><time>2026-04-19T07:32:51.378Z</time></trkpt><trkpt lat="39.400274" lon="-3.2102049"><ele>650.0</ele><time>2026-04-19T07:32:52.371Z</time></trkpt><trkpt lat="39.4002613" lon="-3.2100435"><ele>650.0</ele><time>2026-04-19T07:32:53.376Z</time></trkpt><trkpt lat="39.4002503" lon="-3.2098867"><ele>650.0</ele><time>2026-04-19T07:32:54.378Z</time></trkpt><trkpt lat="39.400239" lon="-3.2097339"><ele>650.0</ele><time>2026-04-19T07:32:55.377Z</time></trkpt><trkpt lat="39.4002294" lon="-3.2095848"><ele>650.0</ele><time>2026-04-19T07:32:56.376Z</time></trkpt><trkpt lat="39.4002195" lon="-3.2094402"><ele>649.8</ele><time>2026-04-19T07:32:57.373Z</time></trkpt><trkpt lat="39.4002078" lon="-3.2092991"><ele>649.6</ele><time>2026-04-19T07:32:58.369Z</time></trkpt><trkpt lat="39.4001905" lon="-3.2091548"><ele>649.4000000000001</ele><time>2026-04-19T07:32:59.372Z</time></trkpt><trkpt lat="39.4001691" lon="-3.2090123"><ele>649.2</ele><time>2026-04-19T07:33:00.383Z</time></trkpt><trkpt lat="39.4001458" lon="-3.2088761"><ele>649.0</ele><time>2026-04-19T07:33:01.378Z</time></trkpt><trkpt lat="39.4001235" lon="-3.2087379"><ele>649.0</ele><time>2026-04-19T07:33:02.376Z</time></trkpt><trkpt lat="39.4001077" lon="-3.208586"><ele>649.0</ele><time>2026-04-19T07:33:03.378Z</time></trkpt><trkpt lat="39.4001025" lon="-3.2084188"><ele>649.0</ele><time>2026-04-19T07:33:04.381Z</time></trkpt><trkpt lat="39.4001028" lon="-3.2082395"><ele>649.0</ele><time>2026-04-19T07:33:05.379Z</time></trkpt><trkpt lat="39.4001012" lon="-3.2080533"><ele>649.0</ele><time>2026-04-19T07:33:06.383Z</time></trkpt><trkpt lat="39.4000952" lon="-3.2078616"><ele>649.0</ele><time>2026-04-19T07:33:07.371Z</time></trkpt><trkpt lat="39.4000846" lon="-3.207671"><ele>649.0</ele><time>2026-04-19T07:33:08.371Z</time></trkpt><trkpt lat="39.4000713" lon="-3.2074907"><ele>649.0</ele><time>2026-04-19T07:33:09.374Z</time></trkpt><trkpt lat="39.4000587" lon="-3.2073208"><ele>649.0</ele><time>2026-04-19T07:33:10.379Z</time></trkpt><trkpt lat="39.4000467" lon="-3.2071605"><ele>649.0</ele><time>2026-04-19T07:33:11.375Z</time></trkpt><trkpt lat="39.4000342" lon="-3.2070052"><ele>649.0</ele><time>2026-04-19T07:33:12.379Z</time></trkpt><trkpt lat="39.4000197" lon="-3.2068528"><ele>649.0</ele><time>2026-04-19T07:33:13.375Z</time></trkpt><trkpt lat="39.400005" lon="-3.2067055"><ele>649.0</ele><time>2026-04-19T07:33:14.38Z</time></trkpt><trkpt lat="39.3999907" lon="-3.2065671"><ele>649.0</ele><time>2026-04-19T07:33:15.375Z</time></trkpt><trkpt lat="39.399973" lon="-3.2064382"><ele>649.0</ele><time>2026-04-19T07:33:16.374Z</time></trkpt><trkpt lat="39.3999507" lon="-3.2063188"><ele>649.0</ele><time>2026-04-19T07:33:17.37Z</time></trkpt><trkpt lat="39.3999267" lon="-3.2062075"><ele>649.0</ele><time>2026-04-19T07:33:18.378Z</time></trkpt><trkpt lat="39.3999076" lon="-3.206101"><ele>649.4000000000001</ele><time>2026-04-19T07:33:19.382Z</time></trkpt><trkpt lat="39.3998953" lon="-3.2059926"><ele>649.8</ele><time>2026-04-19T07:33:20.377Z</time></trkpt><trkpt lat="39.3998835" lon="-3.2058785"><ele>650.2</ele><time>2026-04-19T07:33:21.377Z</time></trkpt><trkpt lat="39.3998674" lon="-3.2057548"><ele>650.5999999999999</ele><time>2026-04-19T07:33:22.379Z</time></trkpt><trkpt lat="39.399847" lon="-3.2056245"><ele>651.0</ele><time>2026-04-19T07:33:23.374Z</time></trkpt><trkpt lat="39.3998239" lon="-3.2054869"><ele>651.0</ele><time>2026-04-19T07:33:24.38Z</time></trkpt><trkpt lat="39.3997986" lon="-3.2053417"><ele>651.0</ele><time>2026-04-19T07:33:25.378Z</time></trkpt><trkpt lat="39.3997676" lon="-3.2051941"><ele>651.0</ele><time>2026-04-19T07:33:26.378Z</time></trkpt><trkpt lat="39.3997296" lon="-3.2050411"><ele>651.0</ele><time>2026-04-19T07:33:27.373Z</time></trkpt><trkpt lat="39.3996851" lon="-3.2048845"><ele>650.5</ele><time>2026-04-19T07:33:28.372Z</time></trkpt><trkpt lat="39.3996352" lon="-3.2047258"><ele>650.0</ele><time>2026-04-19T07:33:29.378Z</time></trkpt><trkpt lat="39.399581" lon="-3.2045655"><ele>649.5</ele><time>2026-04-19T07:33:30.379Z</time></trkpt><trkpt lat="39.3995224" lon="-3.2044049"><ele>649.0</ele><time>2026-04-19T07:33:31.369Z</time></trkpt><trkpt lat="39.3994604" lon="-3.204245"><ele>649.0</ele><time>2026-04-19T07:33:32.374Z</time></trkpt><trkpt lat="39.3993964" lon="-3.2040887"><ele>649.0</ele><time>2026-04-19T07:33:33.369Z</time></trkpt><trkpt lat="39.3993289" lon="-3.2039365"><ele>649.0</ele><time>2026-04-19T07:33:34.378Z</time></trkpt><trkpt lat="39.399255" lon="-3.2037837"><ele>649.0</ele><time>2026-04-19T07:33:35.374Z</time></trkpt><trkpt lat="39.3991795" lon="-3.2036309"><ele>649.25</ele><time>2026-04-19T07:33:36.379Z</time></trkpt><trkpt lat="39.3991049" lon="-3.2034778"><ele>649.5</ele><time>2026-04-19T07:33:37.373Z</time></trkpt><trkpt lat="39.3990304" lon="-3.203325"><ele>649.75</ele><time>2026-04-19T07:33:38.371Z</time></trkpt><trkpt lat="39.3989566" lon="-3.2031764"><ele>650.0</ele><time>2026-04-19T07:33:39.384Z</time></trkpt><trkpt lat="39.3988798" lon="-3.2030264"><ele>650.5</ele><time>2026-04-19T07:33:40.389Z</time></trkpt><trkpt lat="39.3988003" lon="-3.2028715"><ele>651.0</ele><time>2026-04-19T07:33:41.371Z</time></trkpt><trkpt lat="39.3987217" lon="-3.2027166"><ele>651.5</ele><time>2026-04-19T07:33:42.373Z</time></trkpt><trkpt lat="39.3986432" lon="-3.2025611"><ele>652.0</ele><time>2026-04-19T07:33:43.377Z</time></trkpt><trkpt lat="39.3985621" lon="-3.2023958"><ele>652.0</ele><time>2026-04-19T07:33:44.377Z</time></trkpt><trkpt lat="39.3984766" lon="-3.2022207"><ele>652.0</ele><time>2026-04-19T07:33:45.378Z</time></trkpt><trkpt lat="39.3983844" lon="-3.2020391"><ele>652.0</ele><time>2026-04-19T07:33:46.369Z</time></trkpt><trkpt lat="39.398288" lon="-3.2018521"><ele>652.0</ele><time>2026-04-19T07:33:47.372Z</time></trkpt><trkpt lat="39.3981909" lon="-3.2016624"><ele>652.0</ele><time>2026-04-19T07:33:48.38Z</time></trkpt><trkpt lat="39.398094" lon="-3.2014712"><ele>652.0</ele><time>2026-04-19T07:33:49.377Z</time></trkpt><trkpt lat="39.3979961" lon="-3.2012789"><ele>651.0</ele><time>2026-04-19T07:33:50.37Z</time></trkpt><trkpt lat="39.3978974" lon="-3.2010858"><ele>650.0</ele><time>2026-04-19T07:33:51.374Z</time></trkpt><trkpt lat="39.3977983" lon="-3.2008903"><ele>649.0</ele><time>2026-04-19T07:33:52.379Z</time></trkpt><trkpt lat="39.3977008" lon="-3.200694"><ele>650.3333333333334</ele><time>2026-04-19T07:33:53.371Z</time></trkpt><trkpt lat="39.3976052" lon="-3.2005"><ele>651.6666666666666</ele><time>2026-04-19T07:33:54.376Z</time></trkpt><trkpt lat="39.39751" lon="-3.2003102"><ele>653.0</ele><time>2026-04-19T07:33:55.378Z</time></trkpt><trkpt lat="39.3974145" lon="-3.2001256"><ele>653.0</ele><time>2026-04-19T07:33:56.374Z</time></trkpt><trkpt lat="39.3973197" lon="-3.1999415"><ele>653.0</ele><time>2026-04-19T07:33:57.375Z</time></trkpt><trkpt lat="39.3972296" lon="-3.1997613"><ele>653.0</ele><time>2026-04-19T07:33:58.369Z</time></trkpt><trkpt lat="39.3971449" lon="-3.1995899"><ele>652.25</ele><time>2026-04-19T07:33:59.37Z</time></trkpt><trkpt lat="39.3970637" lon="-3.1994292"><ele>651.5</ele><time>2026-04-19T07:34:00.377Z</time></trkpt><trkpt lat="39.3969865" lon="-3.199278"><ele>650.75</ele><time>2026-04-19T07:34:01.37Z</time></trkpt><trkpt lat="39.3969146" lon="-3.1991357"><ele>650.0</ele><time>2026-04-19T07:34:02.379Z</time></trkpt><trkpt lat="39.3968513" lon="-3.1990054"><ele>650.3333333333333</ele><time>2026-04-19T07:34:03.373Z</time></trkpt><trkpt lat="39.3967956" lon="-3.1988896"><ele>650.6666666666666</ele><time>2026-04-19T07:34:04.376Z</time></trkpt><trkpt lat="39.396741" lon="-3.1987914"><ele>651.0</ele><time>2026-04-19T07:34:05.374Z</time></trkpt><trkpt lat="39.3966811" lon="-3.1987163"><ele>651.3333333333334</ele><time>2026-04-19T07:34:06.377Z</time></trkpt><trkpt lat="39.3966152" lon="-3.1986686"><ele>651.6666666666667</ele><time>2026-04-19T07:34:07.373Z</time></trkpt><trkpt lat="39.3965439" lon="-3.1986422"><ele>652.0</ele><time>2026-04-19T07:34:08.379Z</time></trkpt><trkpt lat="39.3964706" lon="-3.1986202"><ele>652.0</ele><time>2026-04-19T07:34:09.368Z</time></trkpt><trkpt lat="39.3964031" lon="-3.1985838"><ele>652.0</ele><time>2026-04-19T07:34:10.377Z</time></trkpt><trkpt lat="39.3963451" lon="-3.1985252"><ele>652.0</ele><time>2026-04-19T07:34:11.37Z</time></trkpt><trkpt lat="39.3963053" lon="-3.198446"><ele>652.0</ele><time>2026-04-19T07:34:12.378Z</time></trkpt><trkpt lat="39.3962863" lon="-3.1983527"><ele>652.0</ele><time>2026-04-19T07:34:13.374Z</time></trkpt><trkpt lat="39.3962853" lon="-3.1982487"><ele>652.0</ele><time>2026-04-19T07:34:14.37Z</time></trkpt><trkpt lat="39.3962904" lon="-3.1981399"><ele>651.8</ele><time>2026-04-19T07:34:15.375Z</time></trkpt><trkpt lat="39.396287" lon="-3.1980243"><ele>651.6</ele><time>2026-04-19T07:34:16.372Z</time></trkpt><trkpt lat="39.3962654" lon="-3.1978991"><ele>651.4</ele><time>2026-04-19T07:34:17.375Z</time></trkpt><trkpt lat="39.3962246" lon="-3.197772"><ele>651.1999999999999</ele><time>2026-04-19T07:34:18.379Z</time></trkpt><trkpt lat="39.3961677" lon="-3.1976455"><ele>651.0</ele><time>2026-04-19T07:34:19.375Z</time></trkpt><trkpt lat="39.3961038" lon="-3.1975184"><ele>651.0</ele><time>2026-04-19T07:34:20.374Z</time></trkpt><trkpt lat="39.3960403" lon="-3.1973935"><ele>651.0</ele><time>2026-04-19T07:34:21.374Z</time></trkpt><trkpt lat="39.3959818" lon="-3.1972729"><ele>651.0</ele><time>2026-04-19T07:34:22.38Z</time></trkpt><trkpt lat="39.3959241" lon="-3.1971572"><ele>651.0</ele><time>2026-04-19T07:34:23.374Z</time></trkpt><trkpt lat="39.3958621" lon="-3.1970427"><ele>651.0</ele><time>2026-04-19T07:34:24.381Z</time></trkpt><trkpt lat="39.3957961" lon="-3.1969228"><ele>651.0</ele><time>2026-04-19T07:34:25.375Z</time></trkpt><trkpt lat="39.3957306" lon="-3.1967945"><ele>651.0</ele><time>2026-04-19T07:34:26.371Z</time></trkpt><trkpt lat="39.3956664" lon="-3.196659"><ele>651.0</ele><time>2026-04-19T07:34:27.372Z</time></trkpt><trkpt lat="39.3956035" lon="-3.1965134"><ele>651.0</ele><time>2026-04-19T07:34:28.373Z</time></trkpt><trkpt lat="39.3955397" lon="-3.1963588"><ele>651.25</ele><time>2026-04-19T07:34:29.372Z</time></trkpt><trkpt lat="39.3954765" lon="-3.1961959"><ele>651.5</ele><time>2026-04-19T07:34:30.374Z</time></trkpt><trkpt lat="39.3954187" lon="-3.1960285"><ele>651.75</ele><time>2026-04-19T07:34:31.371Z</time></trkpt><trkpt lat="39.3953703" lon="-3.1958664"><ele>652.0</ele><time>2026-04-19T07:34:32.383Z</time></trkpt><trkpt lat="39.3953302" lon="-3.1957104"><ele>652.0</ele><time>2026-04-19T07:34:33.374Z</time></trkpt><trkpt lat="39.3952962" lon="-3.1955609"><ele>652.0</ele><time>2026-04-19T07:34:34.386Z</time></trkpt><trkpt lat="39.3952664" lon="-3.1954179"><ele>652.0</ele><time>2026-04-19T07:34:35.382Z</time></trkpt><trkpt lat="39.3952386" lon="-3.1952772"><ele>652.0</ele><time>2026-04-19T07:34:36.375Z</time></trkpt><trkpt lat="39.3952105" lon="-3.1951221"><ele>652.0</ele><time>2026-04-19T07:34:37.379Z</time></trkpt><trkpt lat="39.3951848" lon="-3.194949"><ele>652.0</ele><time>2026-04-19T07:34:38.377Z</time></trkpt><trkpt lat="39.3951677" lon="-3.1947572"><ele>652.0</ele><time>2026-04-19T07:34:39.373Z</time></trkpt><trkpt lat="39.3951579" lon="-3.1945508"><ele>652.0</ele><time>2026-04-19T07:34:40.376Z</time></trkpt><trkpt lat="39.3951549" lon="-3.1943369"><ele>652.3333333333334</ele><time>2026-04-19T07:34:41.38Z</time></trkpt><trkpt lat="39.3951603" lon="-3.194124"><ele>652.6666666666666</ele><time>2026-04-19T07:34:42.38Z</time></trkpt><trkpt lat="39.3951741" lon="-3.1939131"><ele>653.0</ele><time>2026-04-19T07:34:43.383Z</time></trkpt><trkpt lat="39.3951927" lon="-3.1937041"><ele>653.0</ele><time>2026-04-19T07:34:44.403Z</time></trkpt><trkpt lat="39.3952407" lon="-3.1932879"><ele>653.0</ele><time>2026-04-19T07:34:46.377Z</time></trkpt><trkpt lat="39.3952684" lon="-3.1930758"><ele>653.3333333333333</ele><time>2026-04-19T07:34:47.375Z</time></trkpt><trkpt lat="39.3952951" lon="-3.1928576"><ele>653.6666666666666</ele><time>2026-04-19T07:34:48.379Z</time></trkpt><trkpt lat="39.3953207" lon="-3.1926387"><ele>654.0</ele><time>2026-04-19T07:34:49.377Z</time></trkpt><trkpt lat="39.395347" lon="-3.192422"><ele>654.6666666666666</ele><time>2026-04-19T07:34:50.379Z</time></trkpt><trkpt lat="39.395376" lon="-3.1922025"><ele>655.3333333333333</ele><time>2026-04-19T07:34:51.374Z</time></trkpt><trkpt lat="39.3954072" lon="-3.1919813"><ele>656.0</ele><time>2026-04-19T07:34:52.381Z</time></trkpt><trkpt lat="39.395439" lon="-3.1917643"><ele>656.0</ele><time>2026-04-19T07:34:53.371Z</time></trkpt><trkpt lat="39.3954706" lon="-3.1915401"><ele>656.0</ele><time>2026-04-19T07:34:54.382Z</time></trkpt><trkpt lat="39.395502" lon="-3.1913081"><ele>656.0</ele><time>2026-04-19T07:34:55.38Z</time></trkpt><trkpt lat="39.3955334" lon="-3.1910707"><ele>656.6666666666666</ele><time>2026-04-19T07:34:56.38Z</time></trkpt><trkpt lat="39.3955653" lon="-3.1908323"><ele>657.3333333333334</ele><time>2026-04-19T07:34:57.38Z</time></trkpt><trkpt lat="39.3955976" lon="-3.1905936"><ele>658.0</ele><time>2026-04-19T07:34:58.38Z</time></trkpt><trkpt lat="39.3956307" lon="-3.190356"><ele>656.6666666666667</ele><time>2026-04-19T07:34:59.386Z</time></trkpt><trkpt lat="39.3956636" lon="-3.1901212"><ele>655.3333333333334</ele><time>2026-04-19T07:35:00.368Z</time></trkpt><trkpt lat="39.3956957" lon="-3.1898875"><ele>654.0</ele><time>2026-04-19T07:35:01.376Z</time></trkpt><trkpt lat="39.3957285" lon="-3.1896511"><ele>654.0</ele><time>2026-04-19T07:35:02.378Z</time></trkpt><trkpt lat="39.395759" lon="-3.189416"><ele>654.0</ele><time>2026-04-19T07:35:03.377Z</time></trkpt><trkpt lat="39.3957895" lon="-3.1891938"><ele>654.0</ele><time>2026-04-19T07:35:04.376Z</time></trkpt><trkpt lat="39.3958228" lon="-3.188983"><ele>655.0</ele><time>2026-04-19T07:35:05.375Z</time></trkpt><trkpt lat="39.395859" lon="-3.1887763"><ele>656.0</ele><time>2026-04-19T07:35:06.384Z</time></trkpt><trkpt lat="39.3958934" lon="-3.188577"><ele>657.0</ele><time>2026-04-19T07:35:07.374Z</time></trkpt><trkpt lat="39.3959237" lon="-3.1883895"><ele>657.0</ele><time>2026-04-19T07:35:08.379Z</time></trkpt><trkpt lat="39.3959511" lon="-3.1882138"><ele>657.0</ele><time>2026-04-19T07:35:09.374Z</time></trkpt><trkpt lat="39.3959761" lon="-3.1880644"><ele>657.0</ele><time>2026-04-19T07:35:10.382Z</time></trkpt><trkpt lat="39.3960087" lon="-3.1879476"><ele>657.0</ele><time>2026-04-19T07:35:11.379Z</time></trkpt><trkpt lat="39.3960564" lon="-3.1878617"><ele>657.0</ele><time>2026-04-19T07:35:12.377Z</time></trkpt><trkpt lat="39.3961235" lon="-3.1877966"><ele>656.8</ele><time>2026-04-19T07:35:13.376Z</time></trkpt><trkpt lat="39.3961993" lon="-3.1877286"><ele>656.6</ele><time>2026-04-19T07:35:14.379Z</time></trkpt><trkpt lat="39.3962743" lon="-3.1876411"><ele>656.4</ele><time>2026-04-19T07:35:15.376Z</time></trkpt><trkpt lat="39.396353" lon="-3.1875424"><ele>656.1999999999999</ele><time>2026-04-19T07:35:16.375Z</time></trkpt><trkpt lat="39.3964392" lon="-3.1874341"><ele>656.0</ele><time>2026-04-19T07:35:17.373Z</time></trkpt><trkpt lat="39.3965263" lon="-3.1873197"><ele>656.0</ele><time>2026-04-19T07:35:18.382Z</time></trkpt><trkpt lat="39.3966075" lon="-3.1871958"><ele>656.0</ele><time>2026-04-19T07:35:19.369Z</time></trkpt><trkpt lat="39.3966815" lon="-3.1870588"><ele>656.0</ele><time>2026-04-19T07:35:20.37Z</time></trkpt><trkpt lat="39.3967514" lon="-3.1869025"><ele>656.0</ele><time>2026-04-19T07:35:21.375Z</time></trkpt><trkpt lat="39.3968272" lon="-3.1867221"><ele>656.0</ele><time>2026-04-19T07:35:22.375Z</time></trkpt><trkpt lat="39.3969069" lon="-3.1865329"><ele>656.0</ele><time>2026-04-19T07:35:23.381Z</time></trkpt><trkpt lat="39.3969884" lon="-3.186337"><ele>656.0</ele><time>2026-04-19T07:35:24.376Z</time></trkpt><trkpt lat="39.3970613" lon="-3.1861413"><ele>656.5</ele><time>2026-04-19T07:35:25.381Z</time></trkpt><trkpt lat="39.3971189" lon="-3.1859532"><ele>657.0</ele><time>2026-04-19T07:35:26.38Z</time></trkpt><trkpt lat="39.3971626" lon="-3.1857787"><ele>657.5</ele><time>2026-04-19T07:35:27.378Z</time></trkpt><trkpt lat="39.3972058" lon="-3.1856394"><ele>658.0</ele><time>2026-04-19T07:35:28.382Z</time></trkpt><trkpt lat="39.3972444" lon="-3.1854782"><ele>657.75</ele><time>2026-04-19T07:35:29.381Z</time></trkpt><trkpt lat="39.3972665" lon="-3.1852961"><ele>657.5</ele><time>2026-04-19T07:35:30.377Z</time></trkpt><trkpt lat="39.3972747" lon="-3.1851099"><ele>657.25</ele><time>2026-04-19T07:35:31.375Z</time></trkpt><trkpt lat="39.3972865" lon="-3.1849349"><ele>657.0</ele><time>2026-04-19T07:35:32.375Z</time></trkpt><trkpt lat="39.3972915" lon="-3.1847716"><ele>657.0</ele><time>2026-04-19T07:35:33.371Z</time></trkpt><trkpt lat="39.3973015" lon="-3.1846319"><ele>657.0</ele><time>2026-04-19T07:35:34.369Z</time></trkpt><trkpt lat="39.3972984" lon="-3.184502"><ele>657.0</ele><time>2026-04-19T07:35:35.367Z</time></trkpt><trkpt lat="39.3973002" lon="-3.184375"><ele>657.0</ele><time>2026-04-19T07:35:36.381Z</time></trkpt><trkpt lat="39.3973037" lon="-3.1842445"><ele>657.0</ele><time>2026-04-19T07:35:37.378Z</time></trkpt><trkpt lat="39.3973149" lon="-3.184119"><ele>657.2</ele><time>2026-04-19T07:35:38.38Z</time></trkpt><trkpt lat="39.3973301" lon="-3.1839883"><ele>657.4000000000001</ele><time>2026-04-19T07:35:39.377Z</time></trkpt><trkpt lat="39.3973482" lon="-3.1838511"><ele>657.5999999999999</ele><time>2026-04-19T07:35:40.381Z</time></trkpt><trkpt lat="39.3973711" lon="-3.1837032"><ele>657.8</ele><time>2026-04-19T07:35:41.373Z</time></trkpt><trkpt lat="39.397399" lon="-3.1835486"><ele>658.0</ele><time>2026-04-19T07:35:42.373Z</time></trkpt><trkpt lat="39.3974306" lon="-3.183387"><ele>658.0</ele><time>2026-04-19T07:35:43.374Z</time></trkpt><trkpt lat="39.397464" lon="-3.1832181"><ele>658.0</ele><time>2026-04-19T07:35:44.379Z</time></trkpt><trkpt lat="39.3974959" lon="-3.1830445"><ele>658.0</ele><time>2026-04-19T07:35:45.371Z</time></trkpt><trkpt lat="39.3975258" lon="-3.1828688"><ele>658.0</ele><time>2026-04-19T07:35:46.384Z</time></trkpt><trkpt lat="39.3975523" lon="-3.1827048"><ele>658.5</ele><time>2026-04-19T07:35:47.383Z</time></trkpt><trkpt lat="39.3975709" lon="-3.1825353"><ele>659.0</ele><time>2026-04-19T07:35:48.381Z</time></trkpt><trkpt lat="39.3975818" lon="-3.18236"><ele>659.5</ele><time>2026-04-19T07:35:49.377Z</time></trkpt><trkpt lat="39.3975821" lon="-3.1821773"><ele>660.0</ele><time>2026-04-19T07:35:50.376Z</time></trkpt><trkpt lat="39.3975743" lon="-3.1819886"><ele>660.25</ele><time>2026-04-19T07:35:51.376Z</time></trkpt><trkpt lat="39.3975659" lon="-3.181792"><ele>660.5</ele><time>2026-04-19T07:35:52.382Z</time></trkpt><trkpt lat="39.3975623" lon="-3.1816044"><ele>660.75</ele><time>2026-04-19T07:35:53.371Z</time></trkpt><trkpt lat="39.3975673" lon="-3.1814264"><ele>661.0</ele><time>2026-04-19T07:35:54.377Z</time></trkpt><trkpt lat="39.3975807" lon="-3.1812429"><ele>661.25</ele><time>2026-04-19T07:35:55.376Z</time></trkpt><trkpt lat="39.3976011" lon="-3.1810549"><ele>661.5</ele><time>2026-04-19T07:35:56.379Z</time></trkpt><trkpt lat="39.3976236" lon="-3.1808803"><ele>661.75</ele><time>2026-04-19T07:35:57.37Z</time></trkpt><trkpt lat="39.3976409" lon="-3.1807219"><ele>662.0</ele><time>2026-04-19T07:35:58.378Z</time></trkpt><trkpt lat="39.3976508" lon="-3.180581"><ele>662.2</ele><time>2026-04-19T07:35:59.379Z</time></trkpt><trkpt lat="39.3976552" lon="-3.1804651"><ele>662.4000000000001</ele><time>2026-04-19T07:36:00.378Z</time></trkpt><trkpt lat="39.3976573" lon="-3.1803752"><ele>662.5999999999999</ele><time>2026-04-19T07:36:01.377Z</time></trkpt><trkpt lat="39.3976699" lon="-3.1802091"><ele>662.8</ele><time>2026-04-19T07:36:03.371Z</time></trkpt><trkpt lat="39.3976948" lon="-3.1801032"><ele>663.0</ele><time>2026-04-19T07:36:04.373Z</time></trkpt><trkpt lat="39.3977316" lon="-3.1799735"><ele>662.75</ele><time>2026-04-19T07:36:05.383Z</time></trkpt><trkpt lat="39.397775" lon="-3.17984"><ele>662.5</ele><time>2026-04-19T07:36:06.367Z</time></trkpt><trkpt lat="39.3978339" lon="-3.1796998"><ele>662.25</ele><time>2026-04-19T07:36:07.374Z</time></trkpt><trkpt lat="39.3979071" lon="-3.1795423"><ele>662.0</ele><time>2026-04-19T07:36:08.376Z</time></trkpt><trkpt lat="39.3979918" lon="-3.1793724"><ele>663.0</ele><time>2026-04-19T07:36:09.379Z</time></trkpt><trkpt lat="39.3980858" lon="-3.1792047"><ele>664.0</ele><time>2026-04-19T07:36:10.379Z</time></trkpt><trkpt lat="39.3981777" lon="-3.1790497"><ele>665.0</ele><time>2026-04-19T07:36:11.376Z</time></trkpt><trkpt lat="39.3982689" lon="-3.1789117"><ele>665.5</ele><time>2026-04-19T07:36:12.367Z</time></trkpt><trkpt lat="39.3983615" lon="-3.1787881"><ele>666.0</ele><time>2026-04-19T07:36:13.378Z</time></trkpt><trkpt lat="39.3984489" lon="-3.1786728"><ele>666.5</ele><time>2026-04-19T07:36:14.371Z</time></trkpt><trkpt lat="39.3985251" lon="-3.178553"><ele>667.0</ele><time>2026-04-19T07:36:15.379Z</time></trkpt><trkpt lat="39.3985821" lon="-3.1784339"><ele>667.0</ele><time>2026-04-19T07:36:16.379Z</time></trkpt><trkpt lat="39.3986239" lon="-3.1783061"><ele>667.0</ele><time>2026-04-19T07:36:17.376Z</time></trkpt><trkpt lat="39.3986547" lon="-3.1781725"><ele>667.0</ele><time>2026-04-19T07:36:18.38Z</time></trkpt><trkpt lat="39.3986746" lon="-3.1780374"><ele>667.0</ele><time>2026-04-19T07:36:19.371Z</time></trkpt><trkpt lat="39.3986847" lon="-3.1778785"><ele>667.0</ele><time>2026-04-19T07:36:20.379Z</time></trkpt><trkpt lat="39.3986925" lon="-3.1776981"><ele>667.6666666666667</ele><time>2026-04-19T07:36:21.371Z</time></trkpt><trkpt lat="39.3987062" lon="-3.1775039"><ele>668.3333333333334</ele><time>2026-04-19T07:36:22.379Z</time></trkpt><trkpt lat="39.3987277" lon="-3.1772948"><ele>669.0</ele><time>2026-04-19T07:36:23.374Z</time></trkpt><trkpt lat="39.3987546" lon="-3.1770696"><ele>669.3333333333334</ele><time>2026-04-19T07:36:24.378Z</time></trkpt><trkpt lat="39.3987806" lon="-3.1768527"><ele>669.6666666666667</ele><time>2026-04-19T07:36:25.374Z</time></trkpt><trkpt lat="39.3988098" lon="-3.1766401"><ele>670.0</ele><time>2026-04-19T07:36:26.371Z</time></trkpt><trkpt lat="39.3988476" lon="-3.1764235"><ele>670.6666666666667</ele><time>2026-04-19T07:36:27.374Z</time></trkpt><trkpt lat="39.3988941" lon="-3.1762081"><ele>671.3333333333334</ele><time>2026-04-19T07:36:28.372Z</time></trkpt><trkpt lat="39.3989436" lon="-3.1759888"><ele>672.0</ele><time>2026-04-19T07:36:29.37Z</time></trkpt><trkpt lat="39.3989894" lon="-3.1757682"><ele>671.3333333333334</ele><time>2026-04-19T07:36:30.376Z</time></trkpt><trkpt lat="39.3990304" lon="-3.1755585"><ele>670.6666666666667</ele><time>2026-04-19T07:36:31.378Z</time></trkpt><trkpt lat="39.39907" lon="-3.1753507"><ele>670.0</ele><time>2026-04-19T07:36:32.375Z</time></trkpt><trkpt lat="39.3991146" lon="-3.1751556"><ele>670.0</ele><time>2026-04-19T07:36:33.381Z</time></trkpt><trkpt lat="39.3991687" lon="-3.1749604"><ele>670.0</ele><time>2026-04-19T07:36:34.391Z</time></trkpt><trkpt lat="39.3992263" lon="-3.1747646"><ele>670.0</ele><time>2026-04-19T07:36:35.412Z</time></trkpt><trkpt lat="39.3992829" lon="-3.1745823"><ele>669.8</ele><time>2026-04-19T07:36:36.388Z</time></trkpt><trkpt lat="39.399336" lon="-3.1744231"><ele>669.6</ele><time>2026-04-19T07:36:37.373Z</time></trkpt><trkpt lat="39.3993802" lon="-3.1742945"><ele>669.4000000000001</ele><time>2026-04-19T07:36:38.372Z</time></trkpt><trkpt lat="39.3994157" lon="-3.1741925"><ele>669.2</ele><time>2026-04-19T07:36:39.387Z</time></trkpt><trkpt lat="39.399441" lon="-3.1741003"><ele>669.0</ele><time>2026-04-19T07:36:40.377Z</time></trkpt><trkpt lat="39.3994625" lon="-3.1740124"><ele>669.0</ele><time>2026-04-19T07:36:41.372Z</time></trkpt><trkpt lat="39.3994845" lon="-3.1739306"><ele>669.0</ele><time>2026-04-19T07:36:42.371Z</time></trkpt><trkpt lat="39.3995261" lon="-3.1737815"><ele>669.0</ele><time>2026-04-19T07:36:44.373Z</time></trkpt><trkpt lat="39.3995495" lon="-3.1737043"><ele>669.0</ele><time>2026-04-19T07:36:45.379Z</time></trkpt><trkpt lat="39.3995803" lon="-3.1736092"><ele>669.0</ele><time>2026-04-19T07:36:46.375Z</time></trkpt><trkpt lat="39.39962" lon="-3.1734921"><ele>669.0</ele><time>2026-04-19T07:36:47.372Z</time></trkpt><trkpt lat="39.3996734" lon="-3.1733579"><ele>669.5</ele><time>2026-04-19T07:36:48.375Z</time></trkpt><trkpt lat="39.3997387" lon="-3.1732108"><ele>670.0</ele><time>2026-04-19T07:36:49.373Z</time></trkpt><trkpt lat="39.3998114" lon="-3.1730482"><ele>670.5</ele><time>2026-04-19T07:36:50.377Z</time></trkpt><trkpt lat="39.3998928" lon="-3.1728711"><ele>671.0</ele><time>2026-04-19T07:36:51.381Z</time></trkpt><trkpt lat="39.3999858" lon="-3.1726761"><ele>671.0</ele><time>2026-04-19T07:36:52.381Z</time></trkpt><trkpt lat="39.4000862" lon="-3.1724671"><ele>671.0</ele><time>2026-04-19T07:36:53.376Z</time></trkpt><trkpt lat="39.4001902" lon="-3.1722441"><ele>671.0</ele><time>2026-04-19T07:36:54.381Z</time></trkpt><trkpt lat="39.4003028" lon="-3.1719981"><ele>671.0</ele><time>2026-04-19T07:36:55.385Z</time></trkpt><trkpt lat="39.400412" lon="-3.1717666"><ele>671.0</ele><time>2026-04-19T07:36:56.373Z</time></trkpt><trkpt lat="39.4005244" lon="-3.1715486"><ele>671.0</ele><time>2026-04-19T07:36:57.385Z</time></trkpt><trkpt lat="39.4006478" lon="-3.1713191"><ele>671.3333333333333</ele><time>2026-04-19T07:36:58.372Z</time></trkpt><trkpt lat="39.4007747" lon="-3.1710838"><ele>671.6666666666666</ele><time>2026-04-19T07:36:59.377Z</time></trkpt><trkpt lat="39.4008872" lon="-3.170839"><ele>672.0</ele><time>2026-04-19T07:37:00.376Z</time></trkpt><trkpt lat="39.4009898" lon="-3.1706183"><ele>672.0</ele><time>2026-04-19T07:37:01.379Z</time></trkpt><trkpt lat="39.401091" lon="-3.1704192"><ele>672.0</ele><time>2026-04-19T07:37:02.372Z</time></trkpt><trkpt lat="39.4012079" lon="-3.170203"><ele>672.0</ele><time>2026-04-19T07:37:03.379Z</time></trkpt><trkpt lat="39.4013104" lon="-3.1700103"><ele>672.3333333333334</ele><time>2026-04-19T07:37:04.375Z</time></trkpt><trkpt lat="39.4014043" lon="-3.1698316"><ele>672.6666666666667</ele><time>2026-04-19T07:37:05.376Z</time></trkpt><trkpt lat="39.4014861" lon="-3.1696375"><ele>673.0</ele><time>2026-04-19T07:37:06.389Z</time></trkpt><trkpt lat="39.4015632" lon="-3.1694259"><ele>673.0</ele><time>2026-04-19T07:37:07.381Z</time></trkpt><trkpt lat="39.401652" lon="-3.169185"><ele>673.0</ele><time>2026-04-19T07:37:08.38Z</time></trkpt><trkpt lat="39.4017459" lon="-3.1689558"><ele>673.0</ele><time>2026-04-19T07:37:09.371Z</time></trkpt><trkpt lat="39.4018276" lon="-3.1687671"><ele>673.0</ele><time>2026-04-19T07:37:10.376Z</time></trkpt><trkpt lat="39.4018953" lon="-3.1686102"><ele>673.0</ele><time>2026-04-19T07:37:11.38Z</time></trkpt><trkpt lat="39.4019509" lon="-3.1684732"><ele>673.0</ele><time>2026-04-19T07:37:12.371Z</time></trkpt><trkpt lat="39.4020114" lon="-3.1683328"><ele>673.0</ele><time>2026-04-19T07:37:13.378Z</time></trkpt><trkpt lat="39.4020967" lon="-3.1681757"><ele>673.3333333333334</ele><time>2026-04-19T07:37:14.382Z</time></trkpt><trkpt lat="39.4022089" lon="-3.1679942"><ele>673.6666666666666</ele><time>2026-04-19T07:37:15.376Z</time></trkpt><trkpt lat="39.4023144" lon="-3.1677954"><ele>674.0</ele><time>2026-04-19T07:37:16.375Z</time></trkpt><trkpt lat="39.4024327" lon="-3.167563"><ele>676.0</ele><time>2026-04-19T07:37:17.378Z</time></trkpt><trkpt lat="39.4025715" lon="-3.1673079"><ele>678.0</ele><time>2026-04-19T07:37:18.378Z</time></trkpt><trkpt lat="39.402731" lon="-3.1670524"><ele>678.0</ele><time>2026-04-19T07:37:19.377Z</time></trkpt><trkpt lat="39.4028949" lon="-3.1667996"><ele>678.0</ele><time>2026-04-19T07:37:20.376Z</time></trkpt><trkpt lat="39.4030415" lon="-3.1665568"><ele>678.6666666666666</ele><time>2026-04-19T07:37:21.378Z</time></trkpt><trkpt lat="39.403166" lon="-3.1663342"><ele>679.3333333333333</ele><time>2026-04-19T07:37:22.379Z</time></trkpt><trkpt lat="39.4032789" lon="-3.1661256"><ele>680.0</ele><time>2026-04-19T07:37:23.384Z</time></trkpt><trkpt lat="39.4033802" lon="-3.1659331"><ele>680.0</ele><time>2026-04-19T07:37:24.382Z</time></trkpt><trkpt lat="39.4034695" lon="-3.1657589"><ele>680.0</ele><time>2026-04-19T07:37:25.375Z</time></trkpt><trkpt lat="39.4035298" lon="-3.1655691"><ele>680.0</ele><time>2026-04-19T07:37:26.375Z</time></trkpt><trkpt lat="39.4035859" lon="-3.1653422"><ele>681.0</ele><time>2026-04-19T07:37:27.382Z</time></trkpt><trkpt lat="39.4036483" lon="-3.1651112"><ele>682.0</ele><time>2026-04-19T07:37:28.378Z</time></trkpt><trkpt lat="39.4037312" lon="-3.1648734"><ele>683.0</ele><time>2026-04-19T07:37:29.373Z</time></trkpt><trkpt lat="39.4038089" lon="-3.1646751"><ele>683.0</ele><time>2026-04-19T07:37:30.378Z</time></trkpt><trkpt lat="39.4038737" lon="-3.1645195"><ele>683.0</ele><time>2026-04-19T07:37:31.376Z</time></trkpt><trkpt lat="39.4039341" lon="-3.1643822"><ele>683.0</ele><time>2026-04-19T07:37:32.373Z</time></trkpt><trkpt lat="39.4040105" lon="-3.1642463"><ele>683.0</ele><time>2026-04-19T07:37:33.376Z</time></trkpt><trkpt lat="39.4041268" lon="-3.1640897"><ele>682.3333333333333</ele><time>2026-04-19T07:37:34.378Z</time></trkpt><trkpt lat="39.4042678" lon="-3.1639156"><ele>681.6666666666666</ele><time>2026-04-19T07:37:35.372Z</time></trkpt><trkpt lat="39.4044192" lon="-3.1637217"><ele>681.0</ele><time>2026-04-19T07:37:36.378Z</time></trkpt><trkpt lat="39.4045693" lon="-3.163529"><ele>681.0</ele><time>2026-04-19T07:37:37.381Z</time></trkpt><trkpt lat="39.4046944" lon="-3.1633773"><ele>681.0</ele><time>2026-04-19T07:37:38.375Z</time></trkpt><trkpt lat="39.4048017" lon="-3.1632358"><ele>681.0</ele><time>2026-04-19T07:37:39.38Z</time></trkpt><trkpt lat="39.4048889" lon="-3.1630812"><ele>680.3333333333334</ele><time>2026-04-19T07:37:40.379Z</time></trkpt><trkpt lat="39.40495" lon="-3.1629033"><ele>679.6666666666667</ele><time>2026-04-19T07:37:41.381Z</time></trkpt><trkpt lat="39.4049945" lon="-3.1626974"><ele>679.0</ele><time>2026-04-19T07:37:42.378Z</time></trkpt><trkpt lat="39.4050382" lon="-3.1624784"><ele>679.6666666666667</ele><time>2026-04-19T07:37:43.374Z</time></trkpt><trkpt lat="39.4050998" lon="-3.1622419"><ele>680.3333333333334</ele><time>2026-04-19T07:37:44.38Z</time></trkpt><trkpt lat="39.405187" lon="-3.1619819"><ele>681.0</ele><time>2026-04-19T07:37:45.384Z</time></trkpt><trkpt lat="39.4052922" lon="-3.1616932"><ele>681.0</ele><time>2026-04-19T07:37:46.381Z</time></trkpt><trkpt lat="39.40541" lon="-3.1613828"><ele>681.0</ele><time>2026-04-19T07:37:47.379Z</time></trkpt><trkpt lat="39.4055334" lon="-3.1610701"><ele>681.0</ele><time>2026-04-19T07:37:48.379Z</time></trkpt><trkpt lat="39.4056452" lon="-3.1607834"><ele>681.0</ele><time>2026-04-19T07:37:49.382Z</time></trkpt><trkpt lat="39.4057483" lon="-3.1605211"><ele>681.3333333333334</ele><time>2026-04-19T07:37:50.377Z</time></trkpt><trkpt lat="39.4058453" lon="-3.1602833"><ele>681.6666666666667</ele><time>2026-04-19T07:37:51.375Z</time></trkpt><trkpt lat="39.4059465" lon="-3.1600594"><ele>682.0</ele><time>2026-04-19T07:37:52.388Z</time></trkpt><trkpt lat="39.4060475" lon="-3.1598418"><ele>681.0</ele><time>2026-04-19T07:37:53.375Z</time></trkpt><trkpt lat="39.4061436" lon="-3.15963"><ele>680.0</ele><time>2026-04-19T07:37:54.374Z</time></trkpt><trkpt lat="39.406237" lon="-3.1594156"><ele>679.0</ele><time>2026-04-19T07:37:55.386Z</time></trkpt><trkpt lat="39.4063175" lon="-3.1591805"><ele>679.3333333333334</ele><time>2026-04-19T07:37:56.388Z</time></trkpt><trkpt lat="39.406397" lon="-3.1589168"><ele>679.6666666666666</ele><time>2026-04-19T07:37:57.38Z</time></trkpt><trkpt lat="39.4064708" lon="-3.1586682"><ele>680.0</ele><time>2026-04-19T07:37:58.375Z</time></trkpt><trkpt lat="39.4065405" lon="-3.1584453"><ele>680.0</ele><time>2026-04-19T07:37:59.376Z</time></trkpt><trkpt lat="39.4066072" lon="-3.1582195"><ele>680.0</ele><time>2026-04-19T07:38:00.38Z</time></trkpt><trkpt lat="39.406668" lon="-3.1579856"><ele>680.0</ele><time>2026-04-19T07:38:01.38Z</time></trkpt><trkpt lat="39.4067209" lon="-3.1577405"><ele>680.0</ele><time>2026-04-19T07:38:02.372Z</time></trkpt><trkpt lat="39.4067765" lon="-3.1574665"><ele>680.0</ele><time>2026-04-19T07:38:03.373Z</time></trkpt><trkpt lat="39.4068503" lon="-3.1571807"><ele>680.0</ele><time>2026-04-19T07:38:04.373Z</time></trkpt><trkpt lat="39.4069403" lon="-3.1568835"><ele>680.0</ele><time>2026-04-19T07:38:05.382Z</time></trkpt><trkpt lat="39.4070337" lon="-3.1565684"><ele>680.5</ele><time>2026-04-19T07:38:06.377Z</time></trkpt><trkpt lat="39.4071272" lon="-3.1562296"><ele>681.0</ele><time>2026-04-19T07:38:07.378Z</time></trkpt><trkpt lat="39.4072156" lon="-3.1559042"><ele>682.0</ele><time>2026-04-19T07:38:08.372Z</time></trkpt><trkpt lat="39.4072916" lon="-3.1556115"><ele>683.0</ele><time>2026-04-19T07:38:09.37Z</time></trkpt><trkpt lat="39.4073604" lon="-3.1553458"><ele>683.0</ele><time>2026-04-19T07:38:10.375Z</time></trkpt><trkpt lat="39.4074314" lon="-3.1550884"><ele>683.0</ele><time>2026-04-19T07:38:11.379Z</time></trkpt><trkpt lat="39.4075137" lon="-3.1548243"><ele>683.0</ele><time>2026-04-19T07:38:12.382Z</time></trkpt><trkpt lat="39.4076098" lon="-3.1545563"><ele>683.3333333333333</ele><time>2026-04-19T07:38:13.38Z</time></trkpt><trkpt lat="39.4076969" lon="-3.1542994"><ele>683.6666666666666</ele><time>2026-04-19T07:38:14.386Z</time></trkpt><trkpt lat="39.4077651" lon="-3.1540479"><ele>684.0</ele><time>2026-04-19T07:38:15.38Z</time></trkpt><trkpt lat="39.4078249" lon="-3.1538016"><ele>684.3333333333334</ele><time>2026-04-19T07:38:16.377Z</time></trkpt><trkpt lat="39.4078792" lon="-3.1535839"><ele>684.6666666666667</ele><time>2026-04-19T07:38:17.376Z</time></trkpt><trkpt lat="39.407949" lon="-3.1533689"><ele>685.0</ele><time>2026-04-19T07:38:18.377Z</time></trkpt><trkpt lat="39.408044" lon="-3.1531421"><ele>686.0</ele><time>2026-04-19T07:38:19.372Z</time></trkpt><trkpt lat="39.4081549" lon="-3.1529093"><ele>687.0</ele><time>2026-04-19T07:38:20.371Z</time></trkpt><trkpt lat="39.4082642" lon="-3.1526799"><ele>688.0</ele><time>2026-04-19T07:38:21.374Z</time></trkpt><trkpt lat="39.4083815" lon="-3.1524379"><ele>688.0</ele><time>2026-04-19T07:38:22.383Z</time></trkpt><trkpt lat="39.4085037" lon="-3.1521948"><ele>688.0</ele><time>2026-04-19T07:38:23.374Z</time></trkpt><trkpt lat="39.4086196" lon="-3.1519591"><ele>688.0</ele><time>2026-04-19T07:38:24.385Z</time></trkpt><trkpt lat="39.4087354" lon="-3.1517027"><ele>688.6666666666667</ele><time>2026-04-19T07:38:25.383Z</time></trkpt><trkpt lat="39.4088426" lon="-3.1514431"><ele>689.3333333333334</ele><time>2026-04-19T07:38:26.382Z</time></trkpt><trkpt lat="39.4089457" lon="-3.1511946"><ele>690.0</ele><time>2026-04-19T07:38:27.387Z</time></trkpt><trkpt lat="39.4090381" lon="-3.1509519"><ele>690.6666666666666</ele><time>2026-04-19T07:38:28.371Z</time></trkpt><trkpt lat="39.4091297" lon="-3.1506914"><ele>691.3333333333333</ele><time>2026-04-19T07:38:29.377Z</time></trkpt><trkpt lat="39.4092128" lon="-3.1504473"><ele>692.0</ele><time>2026-04-19T07:38:30.374Z</time></trkpt><trkpt lat="39.4092914" lon="-3.1502298"><ele>692.0</ele><time>2026-04-19T07:38:31.377Z</time></trkpt><trkpt lat="39.4093684" lon="-3.1500251"><ele>692.0</ele><time>2026-04-19T07:38:32.376Z</time></trkpt><trkpt lat="39.4094626" lon="-3.1498131"><ele>692.0</ele><time>2026-04-19T07:38:33.375Z</time></trkpt><trkpt lat="39.409572" lon="-3.1495976"><ele>693.3333333333333</ele><time>2026-04-19T07:38:34.372Z</time></trkpt><trkpt lat="39.4096795" lon="-3.1494046"><ele>694.6666666666666</ele><time>2026-04-19T07:38:35.381Z</time></trkpt><trkpt lat="39.4097726" lon="-3.1492259"><ele>696.0</ele><time>2026-04-19T07:38:36.377Z</time></trkpt><trkpt lat="39.4098602" lon="-3.1490378"><ele>697.3333333333334</ele><time>2026-04-19T07:38:37.372Z</time></trkpt><trkpt lat="39.4099271" lon="-3.1488131"><ele>698.6666666666667</ele><time>2026-04-19T07:38:38.378Z</time></trkpt><trkpt lat="39.4099967" lon="-3.1485761"><ele>700.0</ele><time>2026-04-19T07:38:39.377Z</time></trkpt><trkpt lat="39.4100624" lon="-3.1483627"><ele>699.6666666666667</ele><time>2026-04-19T07:38:40.382Z</time></trkpt><trkpt lat="39.4101251" lon="-3.1481711"><ele>699.3333333333334</ele><time>2026-04-19T07:38:41.373Z</time></trkpt><trkpt lat="39.4101628" lon="-3.147983"><ele>699.0</ele><time>2026-04-19T07:38:42.38Z</time></trkpt><trkpt lat="39.4101898" lon="-3.1477667"><ele>699.0</ele><time>2026-04-19T07:38:43.386Z</time></trkpt><trkpt lat="39.4102142" lon="-3.1475407"><ele>699.0</ele><time>2026-04-19T07:38:44.375Z</time></trkpt><trkpt lat="39.4102415" lon="-3.1473257"><ele>699.0</ele><time>2026-04-19T07:38:45.376Z</time></trkpt><trkpt lat="39.4102733" lon="-3.1471282"><ele>698.5</ele><time>2026-04-19T07:38:46.381Z</time></trkpt><trkpt lat="39.4103058" lon="-3.1469431"><ele>698.0</ele><time>2026-04-19T07:38:47.375Z</time></trkpt><trkpt lat="39.4103342" lon="-3.1467694"><ele>697.5</ele><time>2026-04-19T07:38:48.379Z</time></trkpt><trkpt lat="39.4103608" lon="-3.1465986"><ele>697.0</ele><time>2026-04-19T07:38:49.384Z</time></trkpt><trkpt lat="39.4103893" lon="-3.1464243"><ele>697.0</ele><time>2026-04-19T07:38:50.37Z</time></trkpt><trkpt lat="39.410417" lon="-3.1462504"><ele>697.0</ele><time>2026-04-19T07:38:51.381Z</time></trkpt><trkpt lat="39.4104452" lon="-3.1460708"><ele>697.0</ele><time>2026-04-19T07:38:52.375Z</time></trkpt><trkpt lat="39.4104737" lon="-3.1458843"><ele>697.0</ele><time>2026-04-19T07:38:53.38Z</time></trkpt><trkpt lat="39.4105038" lon="-3.145699"><ele>698.25</ele><time>2026-04-19T07:38:54.379Z</time></trkpt><trkpt lat="39.4105317" lon="-3.1455135"><ele>699.5</ele><time>2026-04-19T07:38:55.379Z</time></trkpt><trkpt lat="39.4105602" lon="-3.1453225"><ele>700.75</ele><time>2026-04-19T07:38:56.374Z</time></trkpt><trkpt lat="39.4105892" lon="-3.1451322"><ele>702.0</ele><time>2026-04-19T07:38:57.379Z</time></trkpt><trkpt lat="39.4106205" lon="-3.1449347"><ele>701.75</ele><time>2026-04-19T07:38:58.381Z</time></trkpt><trkpt lat="39.4106479" lon="-3.1447403"><ele>701.5</ele><time>2026-04-19T07:38:59.378Z</time></trkpt><trkpt lat="39.4106687" lon="-3.1445593"><ele>701.25</ele><time>2026-04-19T07:39:00.371Z</time></trkpt><trkpt lat="39.4106849" lon="-3.1443901"><ele>701.0</ele><time>2026-04-19T07:39:01.389Z</time></trkpt><trkpt lat="39.4106931" lon="-3.1442337"><ele>701.0</ele><time>2026-04-19T07:39:02.368Z</time></trkpt><trkpt lat="39.4106953" lon="-3.1440819"><ele>701.0</ele><time>2026-04-19T07:39:03.378Z</time></trkpt><trkpt lat="39.4106949" lon="-3.1439281"><ele>701.0</ele><time>2026-04-19T07:39:04.376Z</time></trkpt><trkpt lat="39.4106899" lon="-3.1437792"><ele>701.0</ele><time>2026-04-19T07:39:05.371Z</time></trkpt><trkpt lat="39.4106761" lon="-3.1436282"><ele>701.0</ele><time>2026-04-19T07:39:06.379Z</time></trkpt><trkpt lat="39.4106496" lon="-3.1434632"><ele>701.0</ele><time>2026-04-19T07:39:07.377Z</time></trkpt><trkpt lat="39.4106079" lon="-3.1432958"><ele>701.0</ele><time>2026-04-19T07:39:08.375Z</time></trkpt><trkpt lat="39.4105539" lon="-3.143137"><ele>701.0</ele><time>2026-04-19T07:39:09.378Z</time></trkpt><trkpt lat="39.4104939" lon="-3.14298"><ele>701.25</ele><time>2026-04-19T07:39:10.375Z</time></trkpt><trkpt lat="39.4104282" lon="-3.1428228"><ele>701.5</ele><time>2026-04-19T07:39:11.381Z</time></trkpt><trkpt lat="39.4103577" lon="-3.1426637"><ele>701.75</ele><time>2026-04-19T07:39:12.372Z</time></trkpt><trkpt lat="39.4102797" lon="-3.1425068"><ele>702.0</ele><time>2026-04-19T07:39:13.381Z</time></trkpt><trkpt lat="39.4102006" lon="-3.1423558"><ele>701.5</ele><time>2026-04-19T07:39:14.372Z</time></trkpt><trkpt lat="39.4101211" lon="-3.142206"><ele>701.0</ele><time>2026-04-19T07:39:15.371Z</time></trkpt><trkpt lat="39.410045" lon="-3.1420634"><ele>700.5</ele><time>2026-04-19T07:39:16.382Z</time></trkpt><trkpt lat="39.4099724" lon="-3.141927"><ele>700.0</ele><time>2026-04-19T07:39:17.373Z</time></trkpt><trkpt lat="39.409904" lon="-3.1417968"><ele>700.0</ele><time>2026-04-19T07:39:18.372Z</time></trkpt><trkpt lat="39.4098419" lon="-3.1416694"><ele>700.0</ele><time>2026-04-19T07:39:19.381Z</time></trkpt><trkpt lat="39.4097893" lon="-3.1415361"><ele>700.0</ele><time>2026-04-19T07:39:20.379Z</time></trkpt><trkpt lat="39.4097513" lon="-3.1413906"><ele>700.0</ele><time>2026-04-19T07:39:21.368Z</time></trkpt><trkpt lat="39.4097289" lon="-3.1412295"><ele>699.3333333333334</ele><time>2026-04-19T07:39:22.375Z</time></trkpt><trkpt lat="39.4097166" lon="-3.1410428"><ele>698.6666666666666</ele><time>2026-04-19T07:39:23.376Z</time></trkpt><trkpt lat="39.4096973" lon="-3.1408378"><ele>698.0</ele><time>2026-04-19T07:39:24.382Z</time></trkpt><trkpt lat="39.4096645" lon="-3.140614"><ele>697.6666666666666</ele><time>2026-04-19T07:39:25.378Z</time></trkpt><trkpt lat="39.4096315" lon="-3.1403948"><ele>697.3333333333334</ele><time>2026-04-19T07:39:26.381Z</time></trkpt><trkpt lat="39.409604" lon="-3.1401873"><ele>697.0</ele><time>2026-04-19T07:39:27.378Z</time></trkpt><trkpt lat="39.4095747" lon="-3.1399971"><ele>697.25</ele><time>2026-04-19T07:39:28.369Z</time></trkpt><trkpt lat="39.4095412" lon="-3.1398254"><ele>697.5</ele><time>2026-04-19T07:39:29.38Z</time></trkpt><trkpt lat="39.4095014" lon="-3.1396672"><ele>697.75</ele><time>2026-04-19T07:39:30.37Z</time></trkpt><trkpt lat="39.40945" lon="-3.1395152"><ele>698.0</ele><time>2026-04-19T07:39:31.372Z</time></trkpt><trkpt lat="39.4093878" lon="-3.1393635"><ele>698.0</ele><time>2026-04-19T07:39:32.373Z</time></trkpt><trkpt lat="39.409316" lon="-3.1392144"><ele>698.0</ele><time>2026-04-19T07:39:33.381Z</time></trkpt><trkpt lat="39.4092351" lon="-3.1390675"><ele>698.0</ele><time>2026-04-19T07:39:34.372Z</time></trkpt><trkpt lat="39.4091447" lon="-3.1389239"><ele>698.0</ele><time>2026-04-19T07:39:35.37Z</time></trkpt><trkpt lat="39.4090482" lon="-3.1387794"><ele>698.0</ele><time>2026-04-19T07:39:36.38Z</time></trkpt><trkpt lat="39.4089481" lon="-3.1386304"><ele>698.0</ele><time>2026-04-19T07:39:37.375Z</time></trkpt><trkpt lat="39.4088456" lon="-3.1384831"><ele>698.0</ele><time>2026-04-19T07:39:38.375Z</time></trkpt><trkpt lat="39.4087458" lon="-3.1383303"><ele>699.3333333333333</ele><time>2026-04-19T07:39:39.375Z</time></trkpt><trkpt lat="39.4086437" lon="-3.1381756"><ele>700.6666666666666</ele><time>2026-04-19T07:39:40.38Z</time></trkpt><trkpt lat="39.4085395" lon="-3.1380115"><ele>702.0</ele><time>2026-04-19T07:39:41.37Z</time></trkpt><trkpt lat="39.4084329" lon="-3.1378284"><ele>702.0</ele><time>2026-04-19T07:39:42.382Z</time></trkpt><trkpt lat="39.4083266" lon="-3.1376299"><ele>702.0</ele><time>2026-04-19T07:39:43.374Z</time></trkpt><trkpt lat="39.4082292" lon="-3.1374432"><ele>702.0</ele><time>2026-04-19T07:39:44.373Z</time></trkpt><trkpt lat="39.4081446" lon="-3.1372653"><ele>703.0</ele><time>2026-04-19T07:39:45.376Z</time></trkpt><trkpt lat="39.408077" lon="-3.1371021"><ele>704.0</ele><time>2026-04-19T07:39:46.377Z</time></trkpt><trkpt lat="39.4080294" lon="-3.1369581"><ele>705.0</ele><time>2026-04-19T07:39:47.374Z</time></trkpt><trkpt lat="39.4079959" lon="-3.1368244"><ele>706.0</ele><time>2026-04-19T07:39:48.385Z</time></trkpt><trkpt lat="39.4079744" lon="-3.1366919"><ele>706.0</ele><time>2026-04-19T07:39:49.379Z</time></trkpt><trkpt lat="39.4079565" lon="-3.1365596"><ele>706.0</ele><time>2026-04-19T07:39:50.374Z</time></trkpt><trkpt lat="39.4079419" lon="-3.1364396"><ele>706.0</ele><time>2026-04-19T07:39:51.376Z</time></trkpt><trkpt lat="39.4079315" lon="-3.1363292"><ele>706.0</ele><time>2026-04-19T07:39:52.378Z</time></trkpt><trkpt lat="39.4079256" lon="-3.1362276"><ele>706.0</ele><time>2026-04-19T07:39:53.372Z</time></trkpt><trkpt lat="39.4079255" lon="-3.1361282"><ele>706.0</ele><time>2026-04-19T07:39:54.384Z</time></trkpt><trkpt lat="39.4079328" lon="-3.1360307"><ele>706.0</ele><time>2026-04-19T07:39:55.377Z</time></trkpt><trkpt lat="39.4079433" lon="-3.1359306"><ele>706.0</ele><time>2026-04-19T07:39:56.376Z</time></trkpt><trkpt lat="39.4079565" lon="-3.1358294"><ele>706.0</ele><time>2026-04-19T07:39:57.379Z</time></trkpt><trkpt lat="39.4079685" lon="-3.1357247"><ele>706.0</ele><time>2026-04-19T07:39:58.368Z</time></trkpt><trkpt lat="39.4079823" lon="-3.1356185"><ele>706.0</ele><time>2026-04-19T07:39:59.378Z</time></trkpt><trkpt lat="39.4079949" lon="-3.1355116"><ele>706.0</ele><time>2026-04-19T07:40:00.372Z</time></trkpt><trkpt lat="39.4080062" lon="-3.135405"><ele>706.1666666666667</ele><time>2026-04-19T07:40:01.378Z</time></trkpt><trkpt lat="39.4080197" lon="-3.1353006"><ele>706.3333333333334</ele><time>2026-04-19T07:40:02.37Z</time></trkpt><trkpt lat="39.408032" lon="-3.1351972"><ele>706.5</ele><time>2026-04-19T07:40:03.374Z</time></trkpt><trkpt lat="39.4080406" lon="-3.1350991"><ele>706.6666666666666</ele><time>2026-04-19T07:40:04.379Z</time></trkpt><trkpt lat="39.4080458" lon="-3.1350054"><ele>706.8333333333333</ele><time>2026-04-19T07:40:05.374Z</time></trkpt><trkpt lat="39.408052" lon="-3.1349149"><ele>707.0</ele><time>2026-04-19T07:40:06.37Z</time></trkpt><trkpt lat="39.4080593" lon="-3.1348269"><ele>707.0</ele><time>2026-04-19T07:40:07.373Z</time></trkpt><trkpt lat="39.4080644" lon="-3.1347403"><ele>707.0</ele><time>2026-04-19T07:40:08.384Z</time></trkpt><trkpt lat="39.4080663" lon="-3.1346549"><ele>707.0</ele><time>2026-04-19T07:40:09.371Z</time></trkpt><trkpt lat="39.4080647" lon="-3.1345727"><ele>707.0</ele><time>2026-04-19T07:40:10.367Z</time></trkpt><trkpt lat="39.4080567" lon="-3.1344114"><ele>707.0</ele><time>2026-04-19T07:40:12.382Z</time></trkpt><trkpt lat="39.4080448" lon="-3.1342589"><ele>707.0</ele><time>2026-04-19T07:40:14.378Z</time></trkpt><trkpt lat="39.4080309" lon="-3.1341189"><ele>707.8</ele><time>2026-04-19T07:40:16.382Z</time></trkpt><trkpt lat="39.4080359" lon="-3.1340003"><ele>708.6</ele><time>2026-04-19T07:40:18.372Z</time></trkpt><trkpt lat="39.4080913" lon="-3.1339355"><ele>709.4</ele><time>2026-04-19T07:40:20.377Z</time></trkpt><trkpt lat="39.4081986" lon="-3.1339291"><ele>710.1999999999999</ele><time>2026-04-19T07:40:22.372Z</time></trkpt><trkpt lat="39.4083086" lon="-3.133915"><ele>711.0</ele><time>2026-04-19T07:40:24.376Z</time></trkpt><trkpt lat="39.408385" lon="-3.1338752"><ele>711.0</ele><time>2026-04-19T07:40:26.382Z</time></trkpt><trkpt lat="39.4084271" lon="-3.1337661"><ele>711.0</ele><time>2026-04-19T07:40:28.379Z</time></trkpt><trkpt lat="39.4084221" lon="-3.1336699"><ele>711.0</ele><time>2026-04-19T07:40:29.376Z</time></trkpt><trkpt lat="39.4084093" lon="-3.1335584"><ele>711.0</ele><time>2026-04-19T07:40:30.377Z</time></trkpt><trkpt lat="39.4083918" lon="-3.1334382"><ele>711.0</ele><time>2026-04-19T07:40:31.37Z</time></trkpt><trkpt lat="39.4083702" lon="-3.1333215"><ele>711.0</ele><time>2026-04-19T07:40:32.381Z</time></trkpt><trkpt lat="39.4083503" lon="-3.1332145"><ele>712.0</ele><time>2026-04-19T07:40:33.375Z</time></trkpt><trkpt lat="39.4083346" lon="-3.1331215"><ele>713.0</ele><time>2026-04-19T07:40:34.373Z</time></trkpt><trkpt lat="39.4083195" lon="-3.1329689"><ele>714.0</ele><time>2026-04-19T07:40:36.368Z</time></trkpt><trkpt lat="39.4083176" lon="-3.132876"><ele>715.0</ele><time>2026-04-19T07:40:38.369Z</time></trkpt><trkpt lat="39.4083986" lon="-3.1327901"><ele>716.0</ele><time>2026-04-19T07:40:41.374Z</time></trkpt><trkpt lat="39.4085264" lon="-3.1327671"><ele>716.0</ele><time>2026-04-19T07:40:43.375Z</time></trkpt><trkpt lat="39.4086103" lon="-3.1327446"><ele>716.0</ele><time>2026-04-19T07:40:44.378Z</time></trkpt><trkpt lat="39.4086904" lon="-3.1327268"><ele>716.0</ele><time>2026-04-19T07:40:45.375Z</time></trkpt><trkpt lat="39.4087685" lon="-3.1327061"><ele>716.0</ele><time>2026-04-19T07:40:46.37Z</time></trkpt><trkpt lat="39.4088469" lon="-3.1326637"><ele>716.0</ele><time>2026-04-19T07:40:47.381Z</time></trkpt><trkpt lat="39.4089295" lon="-3.1325905"><ele>716.0</ele><time>2026-04-19T07:40:48.369Z</time></trkpt><trkpt lat="39.4090122" lon="-3.1324872"><ele>717.0</ele><time>2026-04-19T07:40:49.376Z</time></trkpt><trkpt lat="39.4090851" lon="-3.1323817"><ele>718.0</ele><time>2026-04-19T07:40:50.375Z</time></trkpt><trkpt lat="39.4091483" lon="-3.1322876"><ele>719.0</ele><time>2026-04-19T07:40:51.374Z</time></trkpt><trkpt lat="39.4092017" lon="-3.1322094"><ele>720.0</ele><time>2026-04-19T07:40:52.375Z</time></trkpt><trkpt lat="39.409243" lon="-3.1321463"><ele>721.0</ele><time>2026-04-19T07:40:53.379Z</time></trkpt><trkpt lat="39.4092901" lon="-3.1320649"><ele>722.0</ele><time>2026-04-19T07:40:55.379Z</time></trkpt><trkpt lat="39.4093474" lon="-3.13199"><ele>722.0</ele><time>2026-04-19T07:40:57.371Z</time></trkpt><trkpt lat="39.409386" lon="-3.1318433"><ele>722.0</ele><time>2026-04-19T07:40:59.373Z</time></trkpt><trkpt lat="39.4093938" lon="-3.1317463"><ele>722.0</ele><time>2026-04-19T07:41:00.375Z</time></trkpt><trkpt lat="39.4094068" lon="-3.1316427"><ele>722.0</ele><time>2026-04-19T07:41:01.373Z</time></trkpt><trkpt lat="39.4094194" lon="-3.1315406"><ele>722.0</ele><time>2026-04-19T07:41:02.37Z</time></trkpt><trkpt lat="39.4094289" lon="-3.1314335"><ele>722.0</ele><time>2026-04-19T07:41:04.369Z</time></trkpt><trkpt lat="39.4094507" lon="-3.1313368"><ele>722.4000000000001</ele><time>2026-04-19T07:41:08.388Z</time></trkpt><trkpt lat="39.4094643" lon="-3.1311796"><ele>722.8000000000001</ele><time>2026-04-19T07:41:10.374Z</time></trkpt><trkpt lat="39.4094725" lon="-3.1310824"><ele>723.2</ele><time>2026-04-19T07:41:11.377Z</time></trkpt><trkpt lat="39.4094849" lon="-3.1309701"><ele>723.6</ele><time>2026-04-19T07:41:12.377Z</time></trkpt><trkpt lat="39.4094944" lon="-3.1308555"><ele>724.0</ele><time>2026-04-19T07:41:13.381Z</time></trkpt><trkpt lat="39.4095066" lon="-3.1307489"><ele>723.6666666666667</ele><time>2026-04-19T07:41:14.384Z</time></trkpt><trkpt lat="39.4095158" lon="-3.1306507"><ele>723.3333333333334</ele><time>2026-04-19T07:41:15.375Z</time></trkpt><trkpt lat="39.4095333" lon="-3.1305557"><ele>723.0</ele><time>2026-04-19T07:41:16.365Z</time></trkpt><trkpt lat="39.4095366" lon="-3.1304282"><ele>722.6666666666666</ele><time>2026-04-19T07:41:18.372Z</time></trkpt><trkpt lat="39.4095334" lon="-3.1303186"><ele>722.3333333333333</ele><time>2026-04-19T07:41:22.375Z</time></trkpt><trkpt lat="39.4095526" lon="-3.1302286"><ele>722.0</ele><time>2026-04-19T07:41:25.383Z</time></trkpt><trkpt lat="39.4095685" lon="-3.1301235"><ele>722.0</ele><time>2026-04-19T07:41:27.372Z</time></trkpt><trkpt lat="39.4095883" lon="-3.1299768"><ele>722.0</ele><time>2026-04-19T07:41:29.373Z</time></trkpt><trkpt lat="39.4095952" lon="-3.1298781"><ele>722.0</ele><time>2026-04-19T07:41:30.371Z</time></trkpt><trkpt lat="39.4095964" lon="-3.129766"><ele>722.0</ele><time>2026-04-19T07:41:31.375Z</time></trkpt><trkpt lat="39.4095956" lon="-3.1296443"><ele>722.0</ele><time>2026-04-19T07:41:32.373Z</time></trkpt><trkpt lat="39.4096086" lon="-3.1295347"><ele>721.8333333333333</ele><time>2026-04-19T07:41:33.366Z</time></trkpt><trkpt lat="39.4096147" lon="-3.1294374"><ele>721.6666666666666</ele><time>2026-04-19T07:41:34.373Z</time></trkpt><trkpt lat="39.4096171" lon="-3.1293532"><ele>721.5</ele><time>2026-04-19T07:41:35.371Z</time></trkpt><trkpt lat="39.4096386" lon="-3.1292614"><ele>721.3333333333334</ele><time>2026-04-19T07:41:37.378Z</time></trkpt><trkpt lat="39.409718" lon="-3.1292115"><ele>721.1666666666667</ele><time>2026-04-19T07:41:41.375Z</time></trkpt><trkpt lat="39.4098089" lon="-3.1292007"><ele>721.0</ele><time>2026-04-19T07:41:44.374Z</time></trkpt><trkpt lat="39.4098698" lon="-3.1291639"><ele>722.1666666666667</ele><time>2026-04-19T07:41:47.373Z</time></trkpt><trkpt lat="39.4099386" lon="-3.1290919"><ele>723.3333333333334</ele><time>2026-04-19T07:42:04.379Z</time></trkpt><trkpt lat="39.4100059" lon="-3.1290339"><ele>724.5</ele><time>2026-04-19T07:42:06.37Z</time></trkpt><trkpt lat="39.4100818" lon="-3.1289675"><ele>725.6666666666666</ele><time>2026-04-19T07:42:08.38Z</time></trkpt><trkpt lat="39.4101442" lon="-3.1288781"><ele>726.8333333333333</ele><time>2026-04-19T07:42:11.372Z</time></trkpt><trkpt lat="39.4101931" lon="-3.1288198"><ele>728.0</ele><time>2026-04-19T07:42:13.374Z</time></trkpt><trkpt lat="39.4101851" lon="-3.1289253"><ele>728.0</ele><time>2026-04-19T07:42:35.379Z</time></trkpt><trkpt lat="39.4101811" lon="-3.1290101"><ele>728.0</ele><time>2026-04-19T07:42:37.378Z</time></trkpt><trkpt lat="39.410224" lon="-3.1291149"><ele>728.0</ele><time>2026-04-19T07:42:39.375Z</time></trkpt><trkpt lat="39.4102931" lon="-3.1292275"><ele>728.0</ele><time>2026-04-19T07:42:41.378Z</time></trkpt><trkpt lat="39.4103779" lon="-3.1293351"><ele>728.0</ele><time>2026-04-19T07:42:43.387Z</time></trkpt><trkpt lat="39.4104661" lon="-3.1294175"><ele>729.4285714285714</ele><time>2026-04-19T07:42:45.376Z</time></trkpt><trkpt lat="39.4105418" lon="-3.1294832"><ele>730.8571428571429</ele><time>2026-04-19T07:42:47.377Z</time></trkpt><trkpt lat="39.4106093" lon="-3.1295144"><ele>732.2857142857142</ele><time>2026-04-19T07:42:49.371Z</time></trkpt><trkpt lat="39.4106792" lon="-3.1295441"><ele>733.7142857142858</ele><time>2026-04-19T07:42:51.374Z</time></trkpt><trkpt lat="39.4107515" lon="-3.1295644"><ele>735.1428571428571</ele><time>2026-04-19T07:42:53.375Z</time></trkpt><trkpt lat="39.4108236" lon="-3.1295739"><ele>736.5714285714286</ele><time>2026-04-19T07:42:55.377Z</time></trkpt><trkpt lat="39.4107923" lon="-3.1296476"><ele>738.0</ele><time>2026-04-19T07:42:59.373Z</time></trkpt><trkpt lat="39.410746" lon="-3.1295912"><ele>738.0</ele><time>2026-04-19T07:43:01.385Z</time></trkpt><trkpt lat="39.4106726" lon="-3.1295307"><ele>738.0</ele><time>2026-04-19T07:43:03.38Z</time></trkpt><trkpt lat="39.4105771" lon="-3.1294817"><ele>738.0</ele><time>2026-04-19T07:43:05.376Z</time></trkpt><trkpt lat="39.4105197" lon="-3.1294472"><ele>738.0</ele><time>2026-04-19T07:43:06.367Z</time></trkpt><trkpt lat="39.4104284" lon="-3.1293665"><ele>738.0</ele><time>2026-04-19T07:43:08.381Z</time></trkpt><trkpt lat="39.4103553" lon="-3.1292986"><ele>737.1666666666666</ele><time>2026-04-19T07:43:10.375Z</time></trkpt><trkpt lat="39.4103408" lon="-3.1291601"><ele>736.3333333333334</ele><time>2026-04-19T07:43:13.384Z</time></trkpt><trkpt lat="39.4103432" lon="-3.1290785"><ele>735.5</ele><time>2026-04-19T07:43:14.375Z</time></trkpt><trkpt lat="39.4103828" lon="-3.1289221"><ele>734.6666666666667</ele><time>2026-04-19T07:43:16.376Z</time></trkpt><trkpt lat="39.4104058" lon="-3.12884"><ele>733.8333333333334</ele><time>2026-04-19T07:43:17.378Z</time></trkpt><trkpt lat="39.4104305" lon="-3.1287636"><ele>733.0</ele><time>2026-04-19T07:43:18.367Z</time></trkpt><trkpt lat="39.4104666" lon="-3.1286232"><ele>733.0</ele><time>2026-04-19T07:43:20.369Z</time></trkpt><trkpt lat="39.4104808" lon="-3.128502"><ele>733.0</ele><time>2026-04-19T07:43:22.375Z</time></trkpt><trkpt lat="39.410489" lon="-3.1283954"><ele>733.0</ele><time>2026-04-19T07:43:24.385Z</time></trkpt><trkpt lat="39.4105232" lon="-3.1283062"><ele>733.0</ele><time>2026-04-19T07:43:26.37Z</time></trkpt><trkpt lat="39.4105674" lon="-3.1282205"><ele>733.0</ele><time>2026-04-19T07:43:28.388Z</time></trkpt><trkpt lat="39.4106377" lon="-3.1281256"><ele>733.0</ele><time>2026-04-19T07:43:30.374Z</time></trkpt><trkpt lat="39.4107053" lon="-3.1279966"><ele>735.6666666666667</ele><time>2026-04-19T07:43:32.374Z</time></trkpt><trkpt lat="39.4107392" lon="-3.1278621"><ele>738.3333333333334</ele><time>2026-04-19T07:43:34.367Z</time></trkpt><trkpt lat="39.4107638" lon="-3.1277142"><ele>741.0</ele><time>2026-04-19T07:43:36.381Z</time></trkpt><trkpt lat="39.4107778" lon="-3.1276347"><ele>743.6666666666666</ele><time>2026-04-19T07:43:37.372Z</time></trkpt><trkpt lat="39.4107965" lon="-3.1275536"><ele>746.3333333333333</ele><time>2026-04-19T07:43:38.373Z</time></trkpt><trkpt lat="39.4108184" lon="-3.1274757"><ele>749.0</ele><time>2026-04-19T07:43:39.37Z</time></trkpt><trkpt lat="39.4108566" lon="-3.1273331"><ele>749.0</ele><time>2026-04-19T07:43:41.372Z</time></trkpt><trkpt lat="39.4108885" lon="-3.1272237"><ele>749.0</ele><time>2026-04-19T07:43:43.376Z</time></trkpt><trkpt lat="39.4109113" lon="-3.1271402"><ele>749.0</ele><time>2026-04-19T07:44:52.369Z</time></trkpt><trkpt lat="39.4109662" lon="-3.1270287"><ele>749.0</ele><time>2026-04-19T07:44:55.371Z</time></trkpt><trkpt lat="39.4110293" lon="-3.1269205"><ele>749.0</ele><time>2026-04-19T07:44:57.382Z</time></trkpt><trkpt lat="39.4111073" lon="-3.1268052"><ele>749.0</ele><time>2026-04-19T07:44:59.378Z</time></trkpt><trkpt lat="39.4111792" lon="-3.126688"><ele>749.0</ele><time>2026-04-19T07:45:01.373Z</time></trkpt><trkpt lat="39.4112182" lon="-3.126582"><ele>749.0</ele><time>2026-04-19T07:45:03.382Z</time></trkpt><trkpt lat="39.4112704" lon="-3.1264837"><ele>749.0</ele><time>2026-04-19T07:45:05.375Z</time></trkpt><trkpt lat="39.4113588" lon="-3.1263908"><ele>749.0</ele><time>2026-04-19T07:45:07.382Z</time></trkpt><trkpt lat="39.4114476" lon="-3.1262823"><ele>749.1666666666666</ele><time>2026-04-19T07:45:09.376Z</time></trkpt><trkpt lat="39.41151" lon="-3.1261857"><ele>749.3333333333333</ele><time>2026-04-19T07:45:11.38Z</time></trkpt><trkpt lat="39.4115733" lon="-3.1261361"><ele>749.5</ele><time>2026-04-19T07:45:14.38Z</time></trkpt><trkpt lat="39.4116205" lon="-3.1260676"><ele>749.6666666666666</ele><time>2026-04-19T07:45:16.381Z</time></trkpt><trkpt lat="39.4116886" lon="-3.1259737"><ele>749.8333333333334</ele><time>2026-04-19T07:45:18.381Z</time></trkpt><trkpt lat="39.4117552" lon="-3.1258778"><ele>750.0</ele><time>2026-04-19T07:45:20.374Z</time></trkpt><trkpt lat="39.4118076" lon="-3.1257673"><ele>749.8333333333334</ele><time>2026-04-19T07:45:22.372Z</time></trkpt><trkpt lat="39.4118529" lon="-3.1256741"><ele>749.6666666666666</ele><time>2026-04-19T07:45:24.375Z</time></trkpt><trkpt lat="39.4119333" lon="-3.1256296"><ele>749.5</ele><time>2026-04-19T07:45:27.376Z</time></trkpt><trkpt lat="39.4120457" lon="-3.1256603"><ele>749.3333333333333</ele><time>2026-04-19T07:45:29.382Z</time></trkpt><trkpt lat="39.4121228" lon="-3.1256669"><ele>749.1666666666666</ele><time>2026-04-19T07:45:30.376Z</time></trkpt><trkpt lat="39.4122037" lon="-3.1256707"><ele>749.0</ele><time>2026-04-19T07:45:31.372Z</time></trkpt><trkpt lat="39.4122889" lon="-3.1256636"><ele>750.5</ele><time>2026-04-19T07:45:32.372Z</time></trkpt><trkpt lat="39.412377" lon="-3.1256671"><ele>752.0</ele><time>2026-04-19T07:45:33.369Z</time></trkpt><trkpt lat="39.4124595" lon="-3.1256829"><ele>753.5</ele><time>2026-04-19T07:45:34.369Z</time></trkpt><trkpt lat="39.412536" lon="-3.1256989"><ele>755.0</ele><time>2026-04-19T07:45:35.377Z</time></trkpt><trkpt lat="39.4126114" lon="-3.1257141"><ele>756.5</ele><time>2026-04-19T07:45:36.371Z</time></trkpt><trkpt lat="39.4126881" lon="-3.1257188"><ele>758.0</ele><time>2026-04-19T07:45:37.375Z</time></trkpt><trkpt lat="39.412764" lon="-3.1257124"><ele>758.0</ele><time>2026-04-19T07:45:38.371Z</time></trkpt><trkpt lat="39.4128405" lon="-3.1256992"><ele>758.0</ele><time>2026-04-19T07:45:39.373Z</time></trkpt><trkpt lat="39.4129161" lon="-3.1256816"><ele>758.0</ele><time>2026-04-19T07:45:40.384Z</time></trkpt><trkpt lat="39.4129877" lon="-3.1256566"><ele>758.0</ele><time>2026-04-19T07:45:41.376Z</time></trkpt><trkpt lat="39.413056" lon="-3.1256311"><ele>758.0</ele><time>2026-04-19T07:45:42.379Z</time></trkpt><trkpt lat="39.413125" lon="-3.1255121"><ele>758.0</ele><time>2026-04-19T07:45:44.377Z</time></trkpt><trkpt lat="39.413146" lon="-3.1254196"><ele>759.2</ele><time>2026-04-19T07:45:45.373Z</time></trkpt><trkpt lat="39.4131704" lon="-3.1253036"><ele>760.4</ele><time>2026-04-19T07:45:46.375Z</time></trkpt><trkpt lat="39.4131981" lon="-3.1251713"><ele>761.6</ele><time>2026-04-19T07:45:47.372Z</time></trkpt><trkpt lat="39.4132264" lon="-3.1250337"><ele>762.8000000000001</ele><time>2026-04-19T07:45:48.371Z</time></trkpt><trkpt lat="39.4132522" lon="-3.1249048"><ele>764.0</ele><time>2026-04-19T07:45:49.372Z</time></trkpt><trkpt lat="39.4132741" lon="-3.1247848"><ele>764.1666666666666</ele><time>2026-04-19T07:45:50.378Z</time></trkpt><trkpt lat="39.4132953" lon="-3.1246723"><ele>764.3333333333333</ele><time>2026-04-19T07:45:51.372Z</time></trkpt><trkpt lat="39.4133165" lon="-3.1245667"><ele>764.5</ele><time>2026-04-19T07:45:52.373Z</time></trkpt><trkpt lat="39.4133385" lon="-3.1244723"><ele>764.6666666666666</ele><time>2026-04-19T07:45:53.377Z</time></trkpt><trkpt lat="39.4133588" lon="-3.1243867"><ele>764.8333333333334</ele><time>2026-04-19T07:45:54.366Z</time></trkpt><trkpt lat="39.4134059" lon="-3.1242516"><ele>765.0</ele><time>2026-04-19T07:45:56.37Z</time></trkpt><trkpt lat="39.413508" lon="-3.1242293"><ele>765.0</ele><time>2026-04-19T07:45:58.368Z</time></trkpt><trkpt lat="39.4136318" lon="-3.1242091"><ele>765.0</ele><time>2026-04-19T07:46:00.367Z</time></trkpt><trkpt lat="39.4136928" lon="-3.124156"><ele>765.0</ele><time>2026-04-19T07:46:01.366Z</time></trkpt><trkpt lat="39.4137588" lon="-3.1240896"><ele>765.0</ele><time>2026-04-19T07:46:02.374Z</time></trkpt><trkpt lat="39.4138258" lon="-3.1240023"><ele>765.0</ele><time>2026-04-19T07:46:03.365Z</time></trkpt><trkpt lat="39.413904" lon="-3.123895"><ele>765.6</ele><time>2026-04-19T07:46:04.369Z</time></trkpt><trkpt lat="39.4139922" lon="-3.1237812"><ele>766.2</ele><time>2026-04-19T07:46:05.369Z</time></trkpt><trkpt lat="39.4140763" lon="-3.1236717"><ele>766.8</ele><time>2026-04-19T07:46:06.369Z</time></trkpt><trkpt lat="39.4141485" lon="-3.1235827"><ele>767.4</ele><time>2026-04-19T07:46:07.374Z</time></trkpt><trkpt lat="39.4142137" lon="-3.1235066"><ele>768.0</ele><time>2026-04-19T07:46:08.38Z</time></trkpt><trkpt lat="39.4142865" lon="-3.12343"><ele>768.0</ele><time>2026-04-19T07:46:09.372Z</time></trkpt><trkpt lat="39.4143725" lon="-3.1233572"><ele>768.0</ele><time>2026-04-19T07:46:10.377Z</time></trkpt><trkpt lat="39.4144792" lon="-3.1232843"><ele>768.0</ele><time>2026-04-19T07:46:11.37Z</time></trkpt><trkpt lat="39.4145995" lon="-3.1232056"><ele>768.0</ele><time>2026-04-19T07:46:12.378Z</time></trkpt><trkpt lat="39.4147232" lon="-3.1231201"><ele>768.0</ele><time>2026-04-19T07:46:13.368Z</time></trkpt><trkpt lat="39.4148505" lon="-3.1230264"><ele>768.0</ele><time>2026-04-19T07:46:14.377Z</time></trkpt><trkpt lat="39.4149759" lon="-3.1229298"><ele>768.0</ele><time>2026-04-19T07:46:15.371Z</time></trkpt><trkpt lat="39.4150955" lon="-3.1228368"><ele>768.0</ele><time>2026-04-19T07:46:16.376Z</time></trkpt><trkpt lat="39.4152128" lon="-3.1227469"><ele>768.0</ele><time>2026-04-19T07:46:17.369Z</time></trkpt><trkpt lat="39.4153215" lon="-3.1226741"><ele>768.0</ele><time>2026-04-19T07:46:18.38Z</time></trkpt><trkpt lat="39.4154073" lon="-3.1226193"><ele>768.0</ele><time>2026-04-19T07:46:19.372Z</time></trkpt><trkpt lat="39.4154761" lon="-3.1225772"><ele>768.0</ele><time>2026-04-19T07:46:20.376Z</time></trkpt><trkpt lat="39.4155707" lon="-3.1225194"><ele>768.0</ele><time>2026-04-19T07:46:22.376Z</time></trkpt><trkpt lat="39.4156387" lon="-3.1224733"><ele>767.8333333333334</ele><time>2026-04-19T07:46:24.371Z</time></trkpt><trkpt lat="39.4156838" lon="-3.1224006"><ele>767.6666666666666</ele><time>2026-04-19T07:46:27.37Z</time></trkpt><trkpt lat="39.4156647" lon="-3.1223052"><ele>767.5</ele><time>2026-04-19T07:46:30.379Z</time></trkpt><trkpt lat="39.4155935" lon="-3.1222367"><ele>767.3333333333333</ele><time>2026-04-19T07:46:33.374Z</time></trkpt><trkpt lat="39.4155497" lon="-3.1221623"><ele>767.1666666666666</ele><time>2026-04-19T07:46:36.376Z</time></trkpt><trkpt lat="39.4155501" lon="-3.1220642"><ele>767.0</ele><time>2026-04-19T07:46:38.366Z</time></trkpt><trkpt lat="39.4155716" lon="-3.1219774"><ele>767.0</ele><time>2026-04-19T07:46:39.371Z</time></trkpt><trkpt lat="39.4156009" lon="-3.1218662"><ele>767.0</ele><time>2026-04-19T07:46:40.371Z</time></trkpt><trkpt lat="39.4156317" lon="-3.1217376"><ele>767.0</ele><time>2026-04-19T07:46:41.377Z</time></trkpt><trkpt lat="39.4156656" lon="-3.121585"><ele>767.0</ele><time>2026-04-19T07:46:42.373Z</time></trkpt><trkpt lat="39.4157063" lon="-3.1214168"><ele>766.5</ele><time>2026-04-19T07:46:43.37Z</time></trkpt><trkpt lat="39.4157548" lon="-3.1212482"><ele>766.0</ele><time>2026-04-19T07:46:44.374Z</time></trkpt><trkpt lat="39.415807" lon="-3.1210679"><ele>765.5</ele><time>2026-04-19T07:46:45.378Z</time></trkpt><trkpt lat="39.4158494" lon="-3.1208841"><ele>765.0</ele><time>2026-04-19T07:46:46.38Z</time></trkpt><trkpt lat="39.4158748" lon="-3.1207044"><ele>763.5</ele><time>2026-04-19T07:46:47.382Z</time></trkpt><trkpt lat="39.4158958" lon="-3.1205382"><ele>762.0</ele><time>2026-04-19T07:46:48.377Z</time></trkpt><trkpt lat="39.4159215" lon="-3.1203909"><ele>760.5</ele><time>2026-04-19T07:46:49.372Z</time></trkpt><trkpt lat="39.4159563" lon="-3.1202564"><ele>759.0</ele><time>2026-04-19T07:46:50.379Z</time></trkpt><trkpt lat="39.415995" lon="-3.1201338"><ele>759.0</ele><time>2026-04-19T07:46:51.368Z</time></trkpt><trkpt lat="39.4160356" lon="-3.1200178"><ele>759.0</ele><time>2026-04-19T07:46:52.37Z</time></trkpt><trkpt lat="39.4160752" lon="-3.1199078"><ele>759.0</ele><time>2026-04-19T07:46:53.373Z</time></trkpt><trkpt lat="39.4161158" lon="-3.1198086"><ele>759.0</ele><time>2026-04-19T07:46:54.376Z</time></trkpt><trkpt lat="39.416154" lon="-3.1197152"><ele>759.0</ele><time>2026-04-19T07:46:55.376Z</time></trkpt><trkpt lat="39.416193" lon="-3.1196315"><ele>759.0</ele><time>2026-04-19T07:46:56.371Z</time></trkpt><trkpt lat="39.416238" lon="-3.1195579"><ele>758.1666666666666</ele><time>2026-04-19T07:46:57.376Z</time></trkpt><trkpt lat="39.4162883" lon="-3.1194831"><ele>757.3333333333334</ele><time>2026-04-19T07:46:58.373Z</time></trkpt><trkpt lat="39.4163406" lon="-3.1194053"><ele>756.5</ele><time>2026-04-19T07:46:59.377Z</time></trkpt><trkpt lat="39.4163913" lon="-3.1193244"><ele>755.6666666666667</ele><time>2026-04-19T07:47:00.377Z</time></trkpt><trkpt lat="39.4164402" lon="-3.1192397"><ele>754.8333333333334</ele><time>2026-04-19T07:47:01.376Z</time></trkpt><trkpt lat="39.4164868" lon="-3.1191584"><ele>754.0</ele><time>2026-04-19T07:47:02.373Z</time></trkpt><trkpt lat="39.4165269" lon="-3.1190738"><ele>754.7142857142857</ele><time>2026-04-19T07:47:03.375Z</time></trkpt><trkpt lat="39.4165665" lon="-3.1189894"><ele>755.4285714285714</ele><time>2026-04-19T07:47:04.373Z</time></trkpt><trkpt lat="39.4166019" lon="-3.1189038"><ele>756.1428571428571</ele><time>2026-04-19T07:47:05.374Z</time></trkpt><trkpt lat="39.4166375" lon="-3.1188266"><ele>756.8571428571429</ele><time>2026-04-19T07:47:06.371Z</time></trkpt><trkpt lat="39.4166711" lon="-3.1187537"><ele>757.5714285714286</ele><time>2026-04-19T07:47:07.379Z</time></trkpt><trkpt lat="39.4167049" lon="-3.118684"><ele>758.2857142857142</ele><time>2026-04-19T07:47:08.377Z</time></trkpt><trkpt lat="39.4167353" lon="-3.1186099"><ele>759.0</ele><time>2026-04-19T07:47:09.372Z</time></trkpt><trkpt lat="39.4167898" lon="-3.1184529"><ele>759.0</ele><time>2026-04-19T07:47:11.374Z</time></trkpt><trkpt lat="39.416827" lon="-3.1183591"><ele>759.0</ele><time>2026-04-19T07:47:12.379Z</time></trkpt><trkpt lat="39.4168757" lon="-3.1182436"><ele>759.0</ele><time>2026-04-19T07:47:13.373Z</time></trkpt><trkpt lat="39.4169295" lon="-3.1181141"><ele>759.0</ele><time>2026-04-19T07:47:14.378Z</time></trkpt><trkpt lat="39.4169821" lon="-3.1179759"><ele>759.0</ele><time>2026-04-19T07:47:15.378Z</time></trkpt><trkpt lat="39.4170273" lon="-3.1178323"><ele>757.75</ele><time>2026-04-19T07:47:16.372Z</time></trkpt><trkpt lat="39.4170622" lon="-3.1176829"><ele>756.5</ele><time>2026-04-19T07:47:17.374Z</time></trkpt><trkpt lat="39.4170864" lon="-3.1175297"><ele>755.25</ele><time>2026-04-19T07:47:18.378Z</time></trkpt><trkpt lat="39.4171007" lon="-3.1173754"><ele>754.0</ele><time>2026-04-19T07:47:19.372Z</time></trkpt><trkpt lat="39.4171074" lon="-3.1172263"><ele>753.8333333333334</ele><time>2026-04-19T07:47:20.379Z</time></trkpt><trkpt lat="39.4171117" lon="-3.1170877"><ele>753.6666666666667</ele><time>2026-04-19T07:47:21.377Z</time></trkpt><trkpt lat="39.4171159" lon="-3.1169618"><ele>753.5</ele><time>2026-04-19T07:47:22.373Z</time></trkpt><trkpt lat="39.4171314" lon="-3.1168555"><ele>753.3333333333334</ele><time>2026-04-19T07:47:23.378Z</time></trkpt><trkpt lat="39.4171575" lon="-3.1167599"><ele>753.1666666666666</ele><time>2026-04-19T07:47:24.384Z</time></trkpt><trkpt lat="39.4171807" lon="-3.1166647"><ele>753.0</ele><time>2026-04-19T07:47:25.373Z</time></trkpt><trkpt lat="39.4171891" lon="-3.1165686"><ele>753.5</ele><time>2026-04-19T07:47:26.379Z</time></trkpt><trkpt lat="39.4171736" lon="-3.1164743"><ele>754.0</ele><time>2026-04-19T07:47:27.374Z</time></trkpt><trkpt lat="39.4171333" lon="-3.116381"><ele>754.5</ele><time>2026-04-19T07:47:28.376Z</time></trkpt><trkpt lat="39.4170691" lon="-3.1162904"><ele>755.0</ele><time>2026-04-19T07:47:29.373Z</time></trkpt><trkpt lat="39.417002" lon="-3.1162082"><ele>755.5</ele><time>2026-04-19T07:47:30.376Z</time></trkpt><trkpt lat="39.416945" lon="-3.1161254"><ele>756.0</ele><time>2026-04-19T07:47:31.383Z</time></trkpt><trkpt lat="39.4169079" lon="-3.116035"><ele>756.0</ele><time>2026-04-19T07:47:32.374Z</time></trkpt><trkpt lat="39.4168932" lon="-3.1159442"><ele>756.0</ele><time>2026-04-19T07:47:33.375Z</time></trkpt><trkpt lat="39.4168977" lon="-3.1158468"><ele>756.0</ele><time>2026-04-19T07:47:34.374Z</time></trkpt><trkpt lat="39.4169178" lon="-3.1157377"><ele>756.0</ele><time>2026-04-19T07:47:35.373Z</time></trkpt><trkpt lat="39.4169499" lon="-3.115628"><ele>756.0</ele><time>2026-04-19T07:47:36.374Z</time></trkpt><trkpt lat="39.4169799" lon="-3.1155243"><ele>756.0</ele><time>2026-04-19T07:47:37.375Z</time></trkpt><trkpt lat="39.417011" lon="-3.1154274"><ele>756.3333333333334</ele><time>2026-04-19T07:47:38.373Z</time></trkpt><trkpt lat="39.4170382" lon="-3.1153328"><ele>756.6666666666666</ele><time>2026-04-19T07:47:39.37Z</time></trkpt><trkpt lat="39.4170632" lon="-3.1152526"><ele>757.0</ele><time>2026-04-19T07:47:40.372Z</time></trkpt><trkpt lat="39.417103" lon="-3.1151445"><ele>757.3333333333333</ele><time>2026-04-19T07:47:42.376Z</time></trkpt><trkpt lat="39.4171513" lon="-3.1150069"><ele>757.6666666666666</ele><time>2026-04-19T07:47:44.371Z</time></trkpt><trkpt lat="39.4171799" lon="-3.1149214"><ele>758.0</ele><time>2026-04-19T07:47:45.376Z</time></trkpt><trkpt lat="39.4172179" lon="-3.1148144"><ele>758.8</ele><time>2026-04-19T07:47:46.376Z</time></trkpt><trkpt lat="39.4172637" lon="-3.1146921"><ele>759.5999999999999</ele><time>2026-04-19T07:47:47.369Z</time></trkpt><trkpt lat="39.4173042" lon="-3.1145659"><ele>760.4000000000001</ele><time>2026-04-19T07:47:48.372Z</time></trkpt><trkpt lat="39.4173354" lon="-3.1144322"><ele>761.2</ele><time>2026-04-19T07:47:49.379Z</time></trkpt><trkpt lat="39.417353" lon="-3.114291"><ele>762.0</ele><time>2026-04-19T07:47:50.371Z</time></trkpt><trkpt lat="39.4173533" lon="-3.1141427"><ele>762.0</ele><time>2026-04-19T07:47:51.377Z</time></trkpt><trkpt lat="39.4173364" lon="-3.1139982"><ele>762.0</ele><time>2026-04-19T07:47:52.372Z</time></trkpt><trkpt lat="39.417307" lon="-3.1138639"><ele>762.0</ele><time>2026-04-19T07:47:53.373Z</time></trkpt><trkpt lat="39.4172595" lon="-3.1137324"><ele>762.0</ele><time>2026-04-19T07:47:54.374Z</time></trkpt><trkpt lat="39.4171872" lon="-3.1135896"><ele>762.0</ele><time>2026-04-19T07:47:55.371Z</time></trkpt><trkpt lat="39.4171008" lon="-3.1134379"><ele>762.0</ele><time>2026-04-19T07:47:56.374Z</time></trkpt><trkpt lat="39.4170131" lon="-3.1132744"><ele>762.0</ele><time>2026-04-19T07:47:57.376Z</time></trkpt><trkpt lat="39.4169246" lon="-3.1130831"><ele>762.0</ele><time>2026-04-19T07:47:58.373Z</time></trkpt><trkpt lat="39.4168295" lon="-3.1128634"><ele>762.0</ele><time>2026-04-19T07:47:59.378Z</time></trkpt><trkpt lat="39.4167239" lon="-3.1126321"><ele>762.0</ele><time>2026-04-19T07:48:00.392Z</time></trkpt><trkpt lat="39.4166052" lon="-3.1124036"><ele>762.0</ele><time>2026-04-19T07:48:01.372Z</time></trkpt><trkpt lat="39.4164729" lon="-3.112173"><ele>762.0</ele><time>2026-04-19T07:48:02.375Z</time></trkpt><trkpt lat="39.4163427" lon="-3.111955"><ele>762.0</ele><time>2026-04-19T07:48:03.371Z</time></trkpt><trkpt lat="39.4162219" lon="-3.1117368"><ele>763.0</ele><time>2026-04-19T07:48:04.382Z</time></trkpt><trkpt lat="39.4161058" lon="-3.1115029"><ele>764.0</ele><time>2026-04-19T07:48:05.373Z</time></trkpt><trkpt lat="39.4160043" lon="-3.1112773"><ele>765.0</ele><time>2026-04-19T07:48:06.377Z</time></trkpt><trkpt lat="39.4159224" lon="-3.1110705"><ele>765.0</ele><time>2026-04-19T07:48:07.384Z</time></trkpt><trkpt lat="39.415854" lon="-3.1108691"><ele>765.0</ele><time>2026-04-19T07:48:08.382Z</time></trkpt><trkpt lat="39.4157925" lon="-3.1106665"><ele>765.0</ele><time>2026-04-19T07:48:09.376Z</time></trkpt><trkpt lat="39.4157411" lon="-3.1104771"><ele>765.2</ele><time>2026-04-19T07:48:10.378Z</time></trkpt><trkpt lat="39.4157008" lon="-3.1103109"><ele>765.4</ele><time>2026-04-19T07:48:11.38Z</time></trkpt><trkpt lat="39.4156711" lon="-3.1101675"><ele>765.5999999999999</ele><time>2026-04-19T07:48:12.376Z</time></trkpt><trkpt lat="39.4156491" lon="-3.1100493"><ele>765.8</ele><time>2026-04-19T07:48:13.38Z</time></trkpt><trkpt lat="39.4156323" lon="-3.1099583"><ele>766.0</ele><time>2026-04-19T07:48:14.37Z</time></trkpt><trkpt lat="39.4156046" lon="-3.1098499"><ele>766.0</ele><time>2026-04-19T07:48:16.374Z</time></trkpt><trkpt lat="39.4155714" lon="-3.109778"><ele>766.0</ele><time>2026-04-19T07:48:19.379Z</time></trkpt><trkpt lat="39.4155304" lon="-3.1096542"><ele>766.0</ele><time>2026-04-19T07:48:21.372Z</time></trkpt><trkpt lat="39.4155065" lon="-3.1095777"><ele>766.0</ele><time>2026-04-19T07:48:22.373Z</time></trkpt><trkpt lat="39.4154771" lon="-3.1094778"><ele>766.0</ele><time>2026-04-19T07:48:23.379Z</time></trkpt><trkpt lat="39.4154489" lon="-3.1093593"><ele>766.0</ele><time>2026-04-19T07:48:24.378Z</time></trkpt><trkpt lat="39.4154238" lon="-3.1092348"><ele>766.0</ele><time>2026-04-19T07:48:25.38Z</time></trkpt><trkpt lat="39.4154027" lon="-3.1091009"><ele>766.0</ele><time>2026-04-19T07:48:26.375Z</time></trkpt><trkpt lat="39.4153777" lon="-3.1089588"><ele>766.0</ele><time>2026-04-19T07:48:27.368Z</time></trkpt><trkpt lat="39.4153473" lon="-3.1088091"><ele>766.0</ele><time>2026-04-19T07:48:28.371Z</time></trkpt><trkpt lat="39.4153117" lon="-3.1086547"><ele>766.1999999999999</ele><time>2026-04-19T07:48:29.384Z</time></trkpt><trkpt lat="39.4152711" lon="-3.1085122"><ele>766.4</ele><time>2026-04-19T07:48:30.373Z</time></trkpt><trkpt lat="39.4152308" lon="-3.108383"><ele>766.6</ele><time>2026-04-19T07:48:31.371Z</time></trkpt><trkpt lat="39.4151959" lon="-3.1082505"><ele>766.8</ele><time>2026-04-19T07:48:32.376Z</time></trkpt><trkpt lat="39.4151651" lon="-3.108107"><ele>767.0</ele><time>2026-04-19T07:48:33.375Z</time></trkpt><trkpt lat="39.4151373" lon="-3.1079557"><ele>767.0</ele><time>2026-04-19T07:48:34.374Z</time></trkpt><trkpt lat="39.4151101" lon="-3.1078054"><ele>767.0</ele><time>2026-04-19T07:48:35.382Z</time></trkpt><trkpt lat="39.4150787" lon="-3.1076632"><ele>767.0</ele><time>2026-04-19T07:48:36.372Z</time></trkpt><trkpt lat="39.4150424" lon="-3.1075277"><ele>767.0</ele><time>2026-04-19T07:48:37.379Z</time></trkpt><trkpt lat="39.4150083" lon="-3.1073869"><ele>766.5</ele><time>2026-04-19T07:48:38.375Z</time></trkpt><trkpt lat="39.4149762" lon="-3.1072332"><ele>766.0</ele><time>2026-04-19T07:48:39.377Z</time></trkpt><trkpt lat="39.4149422" lon="-3.1070721"><ele>765.5</ele><time>2026-04-19T07:48:40.373Z</time></trkpt><trkpt lat="39.4149098" lon="-3.1069142"><ele>765.0</ele><time>2026-04-19T07:48:41.379Z</time></trkpt><trkpt lat="39.4148793" lon="-3.106761"><ele>765.0</ele><time>2026-04-19T07:48:42.378Z</time></trkpt><trkpt lat="39.4148589" lon="-3.1066121"><ele>765.0</ele><time>2026-04-19T07:48:43.382Z</time></trkpt><trkpt lat="39.4148456" lon="-3.106466"><ele>765.0</ele><time>2026-04-19T07:48:44.376Z</time></trkpt><trkpt lat="39.4148343" lon="-3.1063256"><ele>765.0</ele><time>2026-04-19T07:48:45.377Z</time></trkpt><trkpt lat="39.4148184" lon="-3.1061852"><ele>765.0</ele><time>2026-04-19T07:48:46.374Z</time></trkpt><trkpt lat="39.4147915" lon="-3.1060393"><ele>764.75</ele><time>2026-04-19T07:48:47.384Z</time></trkpt><trkpt lat="39.4147531" lon="-3.1058909"><ele>764.5</ele><time>2026-04-19T07:48:48.38Z</time></trkpt><trkpt lat="39.4147115" lon="-3.1057489"><ele>764.25</ele><time>2026-04-19T07:48:49.37Z</time></trkpt><trkpt lat="39.4146735" lon="-3.1056174"><ele>764.0</ele><time>2026-04-19T07:48:50.377Z</time></trkpt><trkpt lat="39.4146359" lon="-3.1054838"><ele>763.25</ele><time>2026-04-19T07:48:51.377Z</time></trkpt><trkpt lat="39.4145909" lon="-3.1053456"><ele>762.5</ele><time>2026-04-19T07:48:52.378Z</time></trkpt><trkpt lat="39.4145404" lon="-3.1052062"><ele>761.75</ele><time>2026-04-19T07:48:53.377Z</time></trkpt><trkpt lat="39.4144942" lon="-3.1050651"><ele>761.0</ele><time>2026-04-19T07:48:54.375Z</time></trkpt><trkpt lat="39.4144586" lon="-3.1049262"><ele>761.8</ele><time>2026-04-19T07:48:55.378Z</time></trkpt><trkpt lat="39.414432" lon="-3.1047895"><ele>762.5999999999999</ele><time>2026-04-19T07:48:56.373Z</time></trkpt><trkpt lat="39.4144091" lon="-3.1046453"><ele>763.4</ele><time>2026-04-19T07:48:57.377Z</time></trkpt><trkpt lat="39.4143878" lon="-3.1045004"><ele>764.2</ele><time>2026-04-19T07:48:58.379Z</time></trkpt><trkpt lat="39.414368" lon="-3.1043672"><ele>765.0</ele><time>2026-04-19T07:48:59.381Z</time></trkpt><trkpt lat="39.4143522" lon="-3.1042447"><ele>765.0</ele><time>2026-04-19T07:49:00.375Z</time></trkpt><trkpt lat="39.4143399" lon="-3.1041321"><ele>765.0</ele><time>2026-04-19T07:49:01.374Z</time></trkpt><trkpt lat="39.4143298" lon="-3.1040312"><ele>765.0</ele><time>2026-04-19T07:49:02.376Z</time></trkpt><trkpt lat="39.4143244" lon="-3.1039423"><ele>765.0</ele><time>2026-04-19T07:49:03.374Z</time></trkpt><trkpt lat="39.414331" lon="-3.1037834"><ele>765.0</ele><time>2026-04-19T07:49:05.369Z</time></trkpt><trkpt lat="39.4143467" lon="-3.103631"><ele>765.5</ele><time>2026-04-19T07:49:07.38Z</time></trkpt><trkpt lat="39.4143624" lon="-3.1034745"><ele>766.0</ele><time>2026-04-19T07:49:09.375Z</time></trkpt><trkpt lat="39.4143736" lon="-3.1033138"><ele>766.5</ele><time>2026-04-19T07:49:11.372Z</time></trkpt><trkpt lat="39.414377" lon="-3.1032304"><ele>767.0</ele><time>2026-04-19T07:49:12.377Z</time></trkpt><trkpt lat="39.4143789" lon="-3.1031468"><ele>767.5</ele><time>2026-04-19T07:49:13.368Z</time></trkpt><trkpt lat="39.4143842" lon="-3.103063"><ele>768.0</ele><time>2026-04-19T07:49:14.38Z</time></trkpt><trkpt lat="39.4143901" lon="-3.1029795"><ele>768.1428571428571</ele><time>2026-04-19T07:49:15.37Z</time></trkpt><trkpt lat="39.4143921" lon="-3.1028966"><ele>768.2857142857142</ele><time>2026-04-19T07:49:16.375Z</time></trkpt><trkpt lat="39.4143899" lon="-3.1028104"><ele>768.4285714285713</ele><time>2026-04-19T07:49:17.378Z</time></trkpt><trkpt lat="39.4143888" lon="-3.1027233"><ele>768.5714285714286</ele><time>2026-04-19T07:49:18.375Z</time></trkpt><trkpt lat="39.4143895" lon="-3.1026318"><ele>768.7142857142858</ele><time>2026-04-19T07:49:19.375Z</time></trkpt><trkpt lat="39.4143893" lon="-3.1025339"><ele>768.8571428571428</ele><time>2026-04-19T07:49:20.372Z</time></trkpt><trkpt lat="39.4143964" lon="-3.1024295"><ele>769.0</ele><time>2026-04-19T07:49:21.38Z</time></trkpt><trkpt lat="39.4144119" lon="-3.1023228"><ele>769.2</ele><time>2026-04-19T07:49:22.378Z</time></trkpt><trkpt lat="39.4144333" lon="-3.1022111"><ele>769.4000000000001</ele><time>2026-04-19T07:49:23.377Z</time></trkpt><trkpt lat="39.4144512" lon="-3.1020858"><ele>769.6</ele><time>2026-04-19T07:49:24.384Z</time></trkpt><trkpt lat="39.4144562" lon="-3.1019398"><ele>769.8</ele><time>2026-04-19T07:49:25.371Z</time></trkpt><trkpt lat="39.4144506" lon="-3.1017743"><ele>770.0</ele><time>2026-04-19T07:49:26.371Z</time></trkpt><trkpt lat="39.414436" lon="-3.1016011"><ele>769.6666666666667</ele><time>2026-04-19T07:49:27.374Z</time></trkpt><trkpt lat="39.4144123" lon="-3.1014151"><ele>769.3333333333333</ele><time>2026-04-19T07:49:28.376Z</time></trkpt><trkpt lat="39.4143812" lon="-3.1012198"><ele>769.0</ele><time>2026-04-19T07:49:29.372Z</time></trkpt><trkpt lat="39.4143447" lon="-3.101019"><ele>769.0</ele><time>2026-04-19T07:49:30.373Z</time></trkpt><trkpt lat="39.4142975" lon="-3.1008038"><ele>769.0</ele><time>2026-04-19T07:49:31.379Z</time></trkpt><trkpt lat="39.4142444" lon="-3.1005909"><ele>769.0</ele><time>2026-04-19T07:49:32.384Z</time></trkpt><trkpt lat="39.4141963" lon="-3.1003848"><ele>768.3333333333333</ele><time>2026-04-19T07:49:33.368Z</time></trkpt><trkpt lat="39.4141562" lon="-3.1001706"><ele>767.6666666666666</ele><time>2026-04-19T07:49:34.366Z</time></trkpt><trkpt lat="39.4141282" lon="-3.0999597"><ele>767.0</ele><time>2026-04-19T07:49:35.38Z</time></trkpt><trkpt lat="39.4141076" lon="-3.0997588"><ele>766.0</ele><time>2026-04-19T07:49:36.375Z</time></trkpt><trkpt lat="39.4140809" lon="-3.0995592"><ele>765.0</ele><time>2026-04-19T07:49:37.378Z</time></trkpt><trkpt lat="39.4140448" lon="-3.0993553"><ele>764.0</ele><time>2026-04-19T07:49:38.378Z</time></trkpt><trkpt lat="39.4139973" lon="-3.0991485"><ele>763.6666666666666</ele><time>2026-04-19T07:49:39.374Z</time></trkpt><trkpt lat="39.4139388" lon="-3.0989414"><ele>763.3333333333334</ele><time>2026-04-19T07:49:40.373Z</time></trkpt><trkpt lat="39.4138723" lon="-3.0987329"><ele>763.0</ele><time>2026-04-19T07:49:41.384Z</time></trkpt><trkpt lat="39.4138055" lon="-3.0985233"><ele>763.0</ele><time>2026-04-19T07:49:42.37Z</time></trkpt><trkpt lat="39.4137464" lon="-3.0983193"><ele>763.0</ele><time>2026-04-19T07:49:43.386Z</time></trkpt><trkpt lat="39.4136962" lon="-3.0981235"><ele>763.0</ele><time>2026-04-19T07:49:44.381Z</time></trkpt><trkpt lat="39.4136567" lon="-3.097937"><ele>763.5</ele><time>2026-04-19T07:49:45.371Z</time></trkpt><trkpt lat="39.4136234" lon="-3.097763"><ele>764.0</ele><time>2026-04-19T07:49:46.385Z</time></trkpt><trkpt lat="39.4135967" lon="-3.0976055"><ele>764.5</ele><time>2026-04-19T07:49:47.377Z</time></trkpt><trkpt lat="39.413574" lon="-3.0974645"><ele>765.0</ele><time>2026-04-19T07:49:48.372Z</time></trkpt><trkpt lat="39.4135528" lon="-3.097338"><ele>765.4</ele><time>2026-04-19T07:49:49.375Z</time></trkpt><trkpt lat="39.4135297" lon="-3.0972171"><ele>765.8</ele><time>2026-04-19T07:49:50.373Z</time></trkpt><trkpt lat="39.413508" lon="-3.0970985"><ele>766.2</ele><time>2026-04-19T07:49:51.375Z</time></trkpt><trkpt lat="39.4134984" lon="-3.0969834"><ele>766.6</ele><time>2026-04-19T07:49:52.375Z</time></trkpt><trkpt lat="39.4134953" lon="-3.0968781"><ele>767.0</ele><time>2026-04-19T07:49:53.376Z</time></trkpt><trkpt lat="39.4135222" lon="-3.0967653"><ele>767.0</ele><time>2026-04-19T07:49:54.379Z</time></trkpt><trkpt lat="39.4135651" lon="-3.0966355"><ele>767.0</ele><time>2026-04-19T07:49:55.373Z</time></trkpt><trkpt lat="39.4136195" lon="-3.0965004"><ele>767.0</ele><time>2026-04-19T07:49:56.378Z</time></trkpt><trkpt lat="39.413687" lon="-3.0963548"><ele>767.0</ele><time>2026-04-19T07:49:57.376Z</time></trkpt><trkpt lat="39.4137566" lon="-3.096204"><ele>766.25</ele><time>2026-04-19T07:49:58.38Z</time></trkpt><trkpt lat="39.4138277" lon="-3.0960483"><ele>765.5</ele><time>2026-04-19T07:49:59.38Z</time></trkpt><trkpt lat="39.4138932" lon="-3.0958998"><ele>764.75</ele><time>2026-04-19T07:50:00.376Z</time></trkpt><trkpt lat="39.4139549" lon="-3.0957536"><ele>764.0</ele><time>2026-04-19T07:50:01.378Z</time></trkpt><trkpt lat="39.4140237" lon="-3.0956135"><ele>762.75</ele><time>2026-04-19T07:50:02.375Z</time></trkpt><trkpt lat="39.4141033" lon="-3.0954759"><ele>761.5</ele><time>2026-04-19T07:50:03.374Z</time></trkpt><trkpt lat="39.414189" lon="-3.0953378"><ele>760.25</ele><time>2026-04-19T07:50:04.373Z</time></trkpt><trkpt lat="39.4142728" lon="-3.0952041"><ele>759.0</ele><time>2026-04-19T07:50:05.378Z</time></trkpt><trkpt lat="39.4143554" lon="-3.095077"><ele>759.0</ele><time>2026-04-19T07:50:06.382Z</time></trkpt><trkpt lat="39.4144287" lon="-3.0949472"><ele>759.0</ele><time>2026-04-19T07:50:07.372Z</time></trkpt><trkpt lat="39.4144889" lon="-3.0948035"><ele>759.0</ele><time>2026-04-19T07:50:08.376Z</time></trkpt><trkpt lat="39.4145446" lon="-3.0946363"><ele>759.0</ele><time>2026-04-19T07:50:09.377Z</time></trkpt><trkpt lat="39.4145998" lon="-3.094458"><ele>758.0</ele><time>2026-04-19T07:50:10.389Z</time></trkpt><trkpt lat="39.4146531" lon="-3.0942703"><ele>757.0</ele><time>2026-04-19T07:50:11.377Z</time></trkpt><trkpt lat="39.4146998" lon="-3.0940876"><ele>756.0</ele><time>2026-04-19T07:50:12.38Z</time></trkpt><trkpt lat="39.4147265" lon="-3.093918"><ele>755.0</ele><time>2026-04-19T07:50:13.385Z</time></trkpt><trkpt lat="39.4147467" lon="-3.0937679"><ele>754.0</ele><time>2026-04-19T07:50:14.381Z</time></trkpt><trkpt lat="39.4147657" lon="-3.0936332"><ele>753.0</ele><time>2026-04-19T07:50:15.373Z</time></trkpt><trkpt lat="39.4147968" lon="-3.0935042"><ele>752.0</ele><time>2026-04-19T07:50:16.379Z</time></trkpt><trkpt lat="39.4148465" lon="-3.0933602"><ele>751.0</ele><time>2026-04-19T07:50:17.382Z</time></trkpt><trkpt lat="39.41491" lon="-3.0932104"><ele>749.75</ele><time>2026-04-19T07:50:18.377Z</time></trkpt><trkpt lat="39.4149772" lon="-3.0930695"><ele>748.5</ele><time>2026-04-19T07:50:19.376Z</time></trkpt><trkpt lat="39.4150498" lon="-3.0929363"><ele>747.25</ele><time>2026-04-19T07:50:20.373Z</time></trkpt><trkpt lat="39.4151227" lon="-3.0928148"><ele>746.0</ele><time>2026-04-19T07:50:21.375Z</time></trkpt><trkpt lat="39.4151899" lon="-3.0927098"><ele>746.0</ele><time>2026-04-19T07:50:22.378Z</time></trkpt><trkpt lat="39.4152523" lon="-3.0926211"><ele>746.0</ele><time>2026-04-19T07:50:23.377Z</time></trkpt><trkpt lat="39.4153163" lon="-3.0925473"><ele>746.0</ele><time>2026-04-19T07:50:24.372Z</time></trkpt><trkpt lat="39.4153877" lon="-3.0924896"><ele>746.0</ele><time>2026-04-19T07:50:25.376Z</time></trkpt><trkpt lat="39.4154637" lon="-3.0924504"><ele>746.0</ele><time>2026-04-19T07:50:26.377Z</time></trkpt><trkpt lat="39.4155405" lon="-3.0924194"><ele>746.0</ele><time>2026-04-19T07:50:27.382Z</time></trkpt><trkpt lat="39.415609" lon="-3.0924039"><ele>744.7142857142858</ele><time>2026-04-19T07:50:28.378Z</time></trkpt><trkpt lat="39.4156809" lon="-3.0923627"><ele>743.4285714285714</ele><time>2026-04-19T07:50:29.38Z</time></trkpt><trkpt lat="39.4157323" lon="-3.0923013"><ele>742.1428571428571</ele><time>2026-04-19T07:50:30.368Z</time></trkpt><trkpt lat="39.4157717" lon="-3.0922299"><ele>740.8571428571429</ele><time>2026-04-19T07:50:31.372Z</time></trkpt><trkpt lat="39.4158138" lon="-3.0921505"><ele>739.5714285714286</ele><time>2026-04-19T07:50:32.376Z</time></trkpt><trkpt lat="39.4158591" lon="-3.0920734"><ele>738.2857142857143</ele><time>2026-04-19T07:50:33.379Z</time></trkpt><trkpt lat="39.4159071" lon="-3.0920017"><ele>737.0</ele><time>2026-04-19T07:50:34.375Z</time></trkpt><trkpt lat="39.4159607" lon="-3.0919407"><ele>737.0</ele><time>2026-04-19T07:50:35.366Z</time></trkpt><trkpt lat="39.4160695" lon="-3.0918726"><ele>737.0</ele><time>2026-04-19T07:50:37.381Z</time></trkpt><trkpt lat="39.4161791" lon="-3.0918936"><ele>737.0</ele><time>2026-04-19T07:50:39.369Z</time></trkpt><trkpt lat="39.4162395" lon="-3.091927"><ele>737.0</ele><time>2026-04-19T07:50:40.382Z</time></trkpt><trkpt lat="39.4163076" lon="-3.0919761"><ele>737.0</ele><time>2026-04-19T07:50:41.376Z</time></trkpt><trkpt lat="39.4163861" lon="-3.0920285"><ele>736.6666666666666</ele><time>2026-04-19T07:50:42.374Z</time></trkpt><trkpt lat="39.4164624" lon="-3.0920755"><ele>736.3333333333333</ele><time>2026-04-19T07:50:43.374Z</time></trkpt><trkpt lat="39.4165357" lon="-3.092123"><ele>736.0</ele><time>2026-04-19T07:50:44.378Z</time></trkpt><trkpt lat="39.4166057" lon="-3.0921652"><ele>735.6666666666666</ele><time>2026-04-19T07:50:45.37Z</time></trkpt><trkpt lat="39.4166683" lon="-3.0922038"><ele>735.3333333333334</ele><time>2026-04-19T07:50:46.376Z</time></trkpt><trkpt lat="39.4167737" lon="-3.0922657"><ele>735.0</ele><time>2026-04-19T07:50:48.376Z</time></trkpt><trkpt lat="39.4168634" lon="-3.0923179"><ele>735.0</ele><time>2026-04-19T07:50:50.376Z</time></trkpt><trkpt lat="39.4169294" lon="-3.0923666"><ele>735.0</ele><time>2026-04-19T07:50:52.385Z</time></trkpt><trkpt lat="39.4168321" lon="-3.0922995"><ele>735.0</ele><time>2026-04-19T07:51:14.385Z</time></trkpt><trkpt lat="39.4167575" lon="-3.0922679"><ele>735.0</ele><time>2026-04-19T07:51:15.383Z</time></trkpt><trkpt lat="39.4166667" lon="-3.0922171"><ele>735.0</ele><time>2026-04-19T07:51:16.381Z</time></trkpt><trkpt lat="39.4165626" lon="-3.0921527"><ele>735.0</ele><time>2026-04-19T07:51:17.379Z</time></trkpt><trkpt lat="39.4164611" lon="-3.0920877"><ele>735.0</ele><time>2026-04-19T07:51:18.374Z</time></trkpt><trkpt lat="39.4163692" lon="-3.0920306"><ele>735.0</ele><time>2026-04-19T07:51:19.385Z</time></trkpt><trkpt lat="39.4162886" lon="-3.0919775"><ele>735.0</ele><time>2026-04-19T07:51:20.373Z</time></trkpt><trkpt lat="39.4162184" lon="-3.0919299"><ele>735.0</ele><time>2026-04-19T07:51:21.375Z</time></trkpt><trkpt lat="39.4161591" lon="-3.091898"><ele>735.0</ele><time>2026-04-19T07:51:22.378Z</time></trkpt><trkpt lat="39.4160689" lon="-3.0918539"><ele>735.3333333333334</ele><time>2026-04-19T07:51:24.383Z</time></trkpt><trkpt lat="39.4160142" lon="-3.0917575"><ele>735.6666666666666</ele><time>2026-04-19T07:51:26.379Z</time></trkpt><trkpt lat="39.41599" lon="-3.0916028"><ele>736.0</ele><time>2026-04-19T07:51:28.375Z</time></trkpt><trkpt lat="39.4159838" lon="-3.0915159"><ele>736.3333333333333</ele><time>2026-04-19T07:51:29.377Z</time></trkpt><trkpt lat="39.4159837" lon="-3.091425"><ele>736.6666666666666</ele><time>2026-04-19T07:51:30.38Z</time></trkpt><trkpt lat="39.4159806" lon="-3.0913325"><ele>737.0</ele><time>2026-04-19T07:51:31.388Z</time></trkpt><trkpt lat="39.4159626" lon="-3.0912374"><ele>736.0</ele><time>2026-04-19T07:51:32.379Z</time></trkpt><trkpt lat="39.4159321" lon="-3.0911395"><ele>735.0</ele><time>2026-04-19T07:51:33.396Z</time></trkpt><trkpt lat="39.4158903" lon="-3.091044"><ele>734.0</ele><time>2026-04-19T07:51:34.377Z</time></trkpt><trkpt lat="39.4158472" lon="-3.0909491"><ele>733.0</ele><time>2026-04-19T07:51:35.368Z</time></trkpt><trkpt lat="39.4158146" lon="-3.0908538"><ele>732.0</ele><time>2026-04-19T07:51:36.389Z</time></trkpt><trkpt lat="39.4157927" lon="-3.0907558"><ele>731.0</ele><time>2026-04-19T07:51:37.378Z</time></trkpt><trkpt lat="39.4157842" lon="-3.0906581"><ele>730.1999999999999</ele><time>2026-04-19T07:51:38.376Z</time></trkpt><trkpt lat="39.4157924" lon="-3.0905467"><ele>729.4</ele><time>2026-04-19T07:51:39.381Z</time></trkpt><trkpt lat="39.4158074" lon="-3.0904136"><ele>728.6</ele><time>2026-04-19T07:51:40.378Z</time></trkpt><trkpt lat="39.4158213" lon="-3.0902742"><ele>727.8</ele><time>2026-04-19T07:51:41.375Z</time></trkpt><trkpt lat="39.4158346" lon="-3.090139"><ele>727.0</ele><time>2026-04-19T07:51:42.381Z</time></trkpt><trkpt lat="39.4158442" lon="-3.0900154"><ele>726.6666666666667</ele><time>2026-04-19T07:51:43.372Z</time></trkpt><trkpt lat="39.4158531" lon="-3.0899071"><ele>726.3333333333334</ele><time>2026-04-19T07:51:44.382Z</time></trkpt><trkpt lat="39.4158595" lon="-3.0898156"><ele>726.0</ele><time>2026-04-19T07:51:45.375Z</time></trkpt><trkpt lat="39.4158675" lon="-3.089703"><ele>725.6666666666666</ele><time>2026-04-19T07:51:47.38Z</time></trkpt><trkpt lat="39.4158666" lon="-3.0896013"><ele>725.3333333333333</ele><time>2026-04-19T07:51:51.374Z</time></trkpt><trkpt lat="39.415875" lon="-3.0894692"><ele>725.0</ele><time>2026-04-19T07:51:53.375Z</time></trkpt><trkpt lat="39.4158815" lon="-3.0893791"><ele>725.0</ele><time>2026-04-19T07:51:54.371Z</time></trkpt><trkpt lat="39.4158868" lon="-3.089271"><ele>725.0</ele><time>2026-04-19T07:51:55.374Z</time></trkpt><trkpt lat="39.4158903" lon="-3.0891417"><ele>725.0</ele><time>2026-04-19T07:51:56.383Z</time></trkpt><trkpt lat="39.4158893" lon="-3.0890024"><ele>725.0</ele><time>2026-04-19T07:51:57.38Z</time></trkpt><trkpt lat="39.4158894" lon="-3.088839"><ele>725.0</ele><time>2026-04-19T07:51:58.373Z</time></trkpt><trkpt lat="39.41589" lon="-3.0886481"><ele>725.3333333333333</ele><time>2026-04-19T07:51:59.369Z</time></trkpt><trkpt lat="39.4158933" lon="-3.0884423"><ele>725.6666666666666</ele><time>2026-04-19T07:52:00.384Z</time></trkpt><trkpt lat="39.4159022" lon="-3.0882315"><ele>726.0</ele><time>2026-04-19T07:52:01.377Z</time></trkpt><trkpt lat="39.4159199" lon="-3.088012"><ele>728.3333333333334</ele><time>2026-04-19T07:52:02.374Z</time></trkpt><trkpt lat="39.4159489" lon="-3.0878017"><ele>730.6666666666667</ele><time>2026-04-19T07:52:03.382Z</time></trkpt><trkpt lat="39.4159845" lon="-3.087575"><ele>733.0</ele><time>2026-04-19T07:52:04.381Z</time></trkpt><trkpt lat="39.4160188" lon="-3.0873396"><ele>734.75</ele><time>2026-04-19T07:52:05.379Z</time></trkpt><trkpt lat="39.4160451" lon="-3.0871426"><ele>736.5</ele><time>2026-04-19T07:52:06.38Z</time></trkpt><trkpt lat="39.4160688" lon="-3.0869821"><ele>738.25</ele><time>2026-04-19T07:52:07.382Z</time></trkpt><trkpt lat="39.4160873" lon="-3.0868554"><ele>740.0</ele><time>2026-04-19T07:52:08.369Z</time></trkpt><trkpt lat="39.4161031" lon="-3.0867612"><ele>740.0</ele><time>2026-04-19T07:52:09.375Z</time></trkpt><trkpt lat="39.4161241" lon="-3.0866826"><ele>740.0</ele><time>2026-04-19T07:52:10.382Z</time></trkpt><trkpt lat="39.4161955" lon="-3.0865868"><ele>740.0</ele><time>2026-04-19T07:52:12.377Z</time></trkpt><trkpt lat="39.4162596" lon="-3.0865471"><ele>740.0</ele><time>2026-04-19T07:52:13.367Z</time></trkpt><trkpt lat="39.4163365" lon="-3.0865032"><ele>740.0</ele><time>2026-04-19T07:52:14.385Z</time></trkpt><trkpt lat="39.4164269" lon="-3.0864601"><ele>740.0</ele><time>2026-04-19T07:52:15.371Z</time></trkpt><trkpt lat="39.4165026" lon="-3.0864112"><ele>739.6666666666666</ele><time>2026-04-19T07:52:16.374Z</time></trkpt><trkpt lat="39.4165683" lon="-3.0863674"><ele>739.3333333333333</ele><time>2026-04-19T07:52:17.379Z</time></trkpt><trkpt lat="39.4166285" lon="-3.0863083"><ele>739.0</ele><time>2026-04-19T07:52:18.386Z</time></trkpt><trkpt lat="39.4166797" lon="-3.0862319"><ele>738.6666666666666</ele><time>2026-04-19T07:52:19.378Z</time></trkpt><trkpt lat="39.416724" lon="-3.0861367"><ele>738.3333333333334</ele><time>2026-04-19T07:52:20.382Z</time></trkpt><trkpt lat="39.416749" lon="-3.0860475"><ele>738.0</ele><time>2026-04-19T07:52:21.387Z</time></trkpt><trkpt lat="39.4167691" lon="-3.0859657"><ele>738.0</ele><time>2026-04-19T07:52:22.381Z</time></trkpt><trkpt lat="39.416783" lon="-3.0858846"><ele>738.0</ele><time>2026-04-19T07:52:23.38Z</time></trkpt><trkpt lat="39.4168016" lon="-3.0857987"><ele>738.0</ele><time>2026-04-19T07:52:24.374Z</time></trkpt><trkpt lat="39.4168197" lon="-3.0856967"><ele>738.0</ele><time>2026-04-19T07:52:25.387Z</time></trkpt><trkpt lat="39.4168335" lon="-3.0855751"><ele>738.0</ele><time>2026-04-19T07:52:26.382Z</time></trkpt><trkpt lat="39.4168418" lon="-3.0854386"><ele>738.0</ele><time>2026-04-19T07:52:27.373Z</time></trkpt><trkpt lat="39.4168453" lon="-3.0852876"><ele>737.0</ele><time>2026-04-19T07:52:28.371Z</time></trkpt><trkpt lat="39.4168513" lon="-3.0851299"><ele>736.0</ele><time>2026-04-19T07:52:29.385Z</time></trkpt><trkpt lat="39.4168484" lon="-3.0849597"><ele>735.0</ele><time>2026-04-19T07:52:30.374Z</time></trkpt><trkpt lat="39.4168399" lon="-3.0847805"><ele>734.0</ele><time>2026-04-19T07:52:31.387Z</time></trkpt><trkpt lat="39.4168283" lon="-3.0845982"><ele>733.25</ele><time>2026-04-19T07:52:32.377Z</time></trkpt><trkpt lat="39.4168192" lon="-3.0844237"><ele>732.5</ele><time>2026-04-19T07:52:33.38Z</time></trkpt><trkpt lat="39.4168091" lon="-3.084265"><ele>731.75</ele><time>2026-04-19T07:52:34.386Z</time></trkpt><trkpt lat="39.4167987" lon="-3.0841304"><ele>731.0</ele><time>2026-04-19T07:52:35.385Z</time></trkpt><trkpt lat="39.4167854" lon="-3.0840078"><ele>730.0</ele><time>2026-04-19T07:52:36.378Z</time></trkpt><trkpt lat="39.4167845" lon="-3.083888"><ele>729.0</ele><time>2026-04-19T07:52:37.371Z</time></trkpt><trkpt lat="39.4168014" lon="-3.083753"><ele>728.0</ele><time>2026-04-19T07:52:38.377Z</time></trkpt><trkpt lat="39.4168313" lon="-3.0836144"><ele>727.0</ele><time>2026-04-19T07:52:39.381Z</time></trkpt><trkpt lat="39.4168721" lon="-3.0834801"><ele>726.0</ele><time>2026-04-19T07:52:40.372Z</time></trkpt><trkpt lat="39.4169221" lon="-3.083356"><ele>725.1666666666666</ele><time>2026-04-19T07:52:41.375Z</time></trkpt><trkpt lat="39.4169733" lon="-3.0832545"><ele>724.3333333333334</ele><time>2026-04-19T07:52:42.372Z</time></trkpt><trkpt lat="39.417013" lon="-3.0831663"><ele>723.5</ele><time>2026-04-19T07:52:43.402Z</time></trkpt><trkpt lat="39.4170412" lon="-3.0830866"><ele>722.6666666666667</ele><time>2026-04-19T07:52:44.379Z</time></trkpt><trkpt lat="39.4170485" lon="-3.0829956"><ele>721.8333333333334</ele><time>2026-04-19T07:52:45.379Z</time></trkpt><trkpt lat="39.4170543" lon="-3.0828906"><ele>721.0</ele><time>2026-04-19T07:52:46.377Z</time></trkpt><trkpt lat="39.4170569" lon="-3.08278"><ele>721.0</ele><time>2026-04-19T07:52:47.382Z</time></trkpt><trkpt lat="39.4170594" lon="-3.0826661"><ele>721.0</ele><time>2026-04-19T07:52:48.381Z</time></trkpt><trkpt lat="39.4170598" lon="-3.0825626"><ele>721.0</ele><time>2026-04-19T07:52:49.376Z</time></trkpt><trkpt lat="39.4170631" lon="-3.0824639"><ele>721.0</ele><time>2026-04-19T07:52:50.373Z</time></trkpt><trkpt lat="39.4170751" lon="-3.0823654"><ele>721.0</ele><time>2026-04-19T07:52:51.374Z</time></trkpt><trkpt lat="39.4171061" lon="-3.082276"><ele>721.0</ele><time>2026-04-19T07:52:52.373Z</time></trkpt><trkpt lat="39.4171583" lon="-3.0821891"><ele>720.5</ele><time>2026-04-19T07:52:53.375Z</time></trkpt><trkpt lat="39.4172201" lon="-3.0820997"><ele>720.0</ele><time>2026-04-19T07:52:54.376Z</time></trkpt><trkpt lat="39.4172688" lon="-3.0820001"><ele>719.5</ele><time>2026-04-19T07:52:55.382Z</time></trkpt><trkpt lat="39.4173017" lon="-3.081896"><ele>719.0</ele><time>2026-04-19T07:52:56.381Z</time></trkpt><trkpt lat="39.4173259" lon="-3.081806"><ele>718.5</ele><time>2026-04-19T07:52:57.377Z</time></trkpt><trkpt lat="39.41734" lon="-3.0817254"><ele>718.0</ele><time>2026-04-19T07:52:58.372Z</time></trkpt><trkpt lat="39.4173369" lon="-3.0815593"><ele>717.1666666666667</ele><time>2026-04-19T07:53:00.37Z</time></trkpt><trkpt lat="39.4173148" lon="-3.081477"><ele>716.3333333333334</ele><time>2026-04-19T07:53:01.369Z</time></trkpt><trkpt lat="39.417288" lon="-3.0813933"><ele>715.5</ele><time>2026-04-19T07:53:02.366Z</time></trkpt><trkpt lat="39.4172694" lon="-3.0813084"><ele>714.6666666666666</ele><time>2026-04-19T07:53:03.382Z</time></trkpt><trkpt lat="39.4172551" lon="-3.0811465"><ele>713.8333333333333</ele><time>2026-04-19T07:53:05.385Z</time></trkpt><trkpt lat="39.4172741" lon="-3.0810297"><ele>713.0</ele><time>2026-04-19T07:53:06.37Z</time></trkpt><trkpt lat="39.4172975" lon="-3.0808993"><ele>712.25</ele><time>2026-04-19T07:53:07.371Z</time></trkpt><trkpt lat="39.4173117" lon="-3.0807429"><ele>711.5</ele><time>2026-04-19T07:53:08.377Z</time></trkpt><trkpt lat="39.417339" lon="-3.0805716"><ele>710.75</ele><time>2026-04-19T07:53:09.381Z</time></trkpt><trkpt lat="39.4173776" lon="-3.0803956"><ele>710.0</ele><time>2026-04-19T07:53:10.378Z</time></trkpt><trkpt lat="39.4174071" lon="-3.0802338"><ele>710.0</ele><time>2026-04-19T07:53:11.377Z</time></trkpt><trkpt lat="39.4174341" lon="-3.0800777"><ele>710.0</ele><time>2026-04-19T07:53:12.376Z</time></trkpt><trkpt lat="39.4174654" lon="-3.0799224"><ele>710.0</ele><time>2026-04-19T07:53:13.388Z</time></trkpt><trkpt lat="39.4174939" lon="-3.07978"><ele>710.0</ele><time>2026-04-19T07:53:14.386Z</time></trkpt><trkpt lat="39.4175158" lon="-3.07964"><ele>710.2</ele><time>2026-04-19T07:53:15.387Z</time></trkpt><trkpt lat="39.4175414" lon="-3.0795181"><ele>710.4</ele><time>2026-04-19T07:53:16.378Z</time></trkpt><trkpt lat="39.4175646" lon="-3.0793875"><ele>710.5999999999999</ele><time>2026-04-19T07:53:17.369Z</time></trkpt><trkpt lat="39.4175846" lon="-3.0792418"><ele>710.8</ele><time>2026-04-19T07:53:18.383Z</time></trkpt><trkpt lat="39.4176093" lon="-3.0790888"><ele>711.0</ele><time>2026-04-19T07:53:19.372Z</time></trkpt><trkpt lat="39.4176407" lon="-3.0789308"><ele>711.0</ele><time>2026-04-19T07:53:20.37Z</time></trkpt><trkpt lat="39.4176687" lon="-3.0787678"><ele>711.0</ele><time>2026-04-19T07:53:21.379Z</time></trkpt><trkpt lat="39.4177017" lon="-3.0785973"><ele>711.0</ele><time>2026-04-19T07:53:22.373Z</time></trkpt><trkpt lat="39.4177354" lon="-3.078429"><ele>711.0</ele><time>2026-04-19T07:53:23.381Z</time></trkpt><trkpt lat="39.4177694" lon="-3.0782588"><ele>710.5</ele><time>2026-04-19T07:53:24.371Z</time></trkpt><trkpt lat="39.4178071" lon="-3.0780829"><ele>710.0</ele><time>2026-04-19T07:53:25.378Z</time></trkpt><trkpt lat="39.417847" lon="-3.0779109"><ele>709.5</ele><time>2026-04-19T07:53:26.369Z</time></trkpt><trkpt lat="39.4178898" lon="-3.0777469"><ele>709.0</ele><time>2026-04-19T07:53:27.38Z</time></trkpt><trkpt lat="39.4179407" lon="-3.0775826"><ele>708.0</ele><time>2026-04-19T07:53:28.388Z</time></trkpt><trkpt lat="39.4179968" lon="-3.0774289"><ele>707.0</ele><time>2026-04-19T07:53:29.369Z</time></trkpt><trkpt lat="39.4180546" lon="-3.0772913"><ele>706.0</ele><time>2026-04-19T07:53:30.374Z</time></trkpt><trkpt lat="39.4181034" lon="-3.0771642"><ele>705.0</ele><time>2026-04-19T07:53:31.37Z</time></trkpt><trkpt lat="39.4181398" lon="-3.0770209"><ele>705.0</ele><time>2026-04-19T07:53:32.381Z</time></trkpt><trkpt lat="39.4181643" lon="-3.0768461"><ele>705.0</ele><time>2026-04-19T07:53:33.37Z</time></trkpt><trkpt lat="39.4181825" lon="-3.076642"><ele>705.0</ele><time>2026-04-19T07:53:34.38Z</time></trkpt><trkpt lat="39.4181987" lon="-3.0764139"><ele>705.0</ele><time>2026-04-19T07:53:35.381Z</time></trkpt><trkpt lat="39.4182115" lon="-3.0761573"><ele>705.0</ele><time>2026-04-19T07:53:36.367Z</time></trkpt><trkpt lat="39.4182225" lon="-3.0759042"><ele>705.0</ele><time>2026-04-19T07:53:37.377Z</time></trkpt><trkpt lat="39.4182338" lon="-3.0756673"><ele>705.0</ele><time>2026-04-19T07:53:38.39Z</time></trkpt><trkpt lat="39.4182427" lon="-3.0754578"><ele>705.0</ele><time>2026-04-19T07:53:39.379Z</time></trkpt><trkpt lat="39.4182474" lon="-3.0752775"><ele>705.0</ele><time>2026-04-19T07:53:40.389Z</time></trkpt><trkpt lat="39.4182492" lon="-3.0751232"><ele>705.0</ele><time>2026-04-19T07:53:41.371Z</time></trkpt><trkpt lat="39.4182497" lon="-3.0749972"><ele>705.1666666666666</ele><time>2026-04-19T07:53:42.367Z</time></trkpt><trkpt lat="39.4182577" lon="-3.0748984"><ele>705.3333333333334</ele><time>2026-04-19T07:53:43.38Z</time></trkpt><trkpt lat="39.4182756" lon="-3.0748189"><ele>705.5</ele><time>2026-04-19T07:53:44.372Z</time></trkpt><trkpt lat="39.4183313" lon="-3.0747031"><ele>705.6666666666667</ele><time>2026-04-19T07:53:46.378Z</time></trkpt><trkpt lat="39.4183902" lon="-3.0746675"><ele>705.8333333333334</ele><time>2026-04-19T07:53:47.371Z</time></trkpt><trkpt lat="39.4184686" lon="-3.0746287"><ele>706.0</ele><time>2026-04-19T07:53:48.374Z</time></trkpt><trkpt lat="39.4185441" lon="-3.0745898"><ele>706.0</ele><time>2026-04-19T07:53:49.367Z</time></trkpt><trkpt lat="39.4186122" lon="-3.0745486"><ele>706.0</ele><time>2026-04-19T07:53:50.382Z</time></trkpt><trkpt lat="39.4186717" lon="-3.0745126"><ele>706.0</ele><time>2026-04-19T07:53:51.374Z</time></trkpt><trkpt lat="39.4187465" lon="-3.0744313"><ele>706.0</ele><time>2026-04-19T07:53:53.37Z</time></trkpt><trkpt lat="39.4187582" lon="-3.0743379"><ele>706.0</ele><time>2026-04-19T07:53:54.382Z</time></trkpt><trkpt lat="39.4187704" lon="-3.0742155"><ele>706.0</ele><time>2026-04-19T07:53:55.373Z</time></trkpt><trkpt lat="39.4187916" lon="-3.0740818"><ele>706.1666666666667</ele><time>2026-04-19T07:53:56.379Z</time></trkpt><trkpt lat="39.4188136" lon="-3.0739521"><ele>706.3333333333334</ele><time>2026-04-19T07:53:57.378Z</time></trkpt><trkpt lat="39.4188344" lon="-3.0738352"><ele>706.5</ele><time>2026-04-19T07:53:58.375Z</time></trkpt><trkpt lat="39.4188531" lon="-3.0737312"><ele>706.6666666666666</ele><time>2026-04-19T07:53:59.371Z</time></trkpt><trkpt lat="39.4188803" lon="-3.0736401"><ele>706.8333333333333</ele><time>2026-04-19T07:54:00.373Z</time></trkpt><trkpt lat="39.418913" lon="-3.0735642"><ele>707.0</ele><time>2026-04-19T07:54:01.37Z</time></trkpt><trkpt lat="39.4189577" lon="-3.0734976"><ele>706.5</ele><time>2026-04-19T07:54:02.386Z</time></trkpt><trkpt lat="39.4189952" lon="-3.0734296"><ele>706.0</ele><time>2026-04-19T07:54:03.379Z</time></trkpt><trkpt lat="39.4190122" lon="-3.0733506"><ele>705.5</ele><time>2026-04-19T07:54:04.374Z</time></trkpt><trkpt lat="39.4190181" lon="-3.0732595"><ele>705.0</ele><time>2026-04-19T07:54:05.373Z</time></trkpt><trkpt lat="39.4190029" lon="-3.0731491"><ele>704.5</ele><time>2026-04-19T07:54:06.382Z</time></trkpt><trkpt lat="39.4189783" lon="-3.0730285"><ele>704.0</ele><time>2026-04-19T07:54:07.381Z</time></trkpt><trkpt lat="39.4189565" lon="-3.0728962"><ele>704.0</ele><time>2026-04-19T07:54:08.371Z</time></trkpt><trkpt lat="39.4189484" lon="-3.0727644"><ele>704.0</ele><time>2026-04-19T07:54:09.369Z</time></trkpt><trkpt lat="39.4189552" lon="-3.0726404"><ele>704.0</ele><time>2026-04-19T07:54:10.376Z</time></trkpt><trkpt lat="39.4189758" lon="-3.0725164"><ele>704.0</ele><time>2026-04-19T07:54:11.382Z</time></trkpt><trkpt lat="39.419003" lon="-3.0723909"><ele>704.0</ele><time>2026-04-19T07:54:12.376Z</time></trkpt><trkpt lat="39.4190312" lon="-3.0722771"><ele>703.6</ele><time>2026-04-19T07:54:13.372Z</time></trkpt><trkpt lat="39.4190564" lon="-3.0721746"><ele>703.2</ele><time>2026-04-19T07:54:14.379Z</time></trkpt><trkpt lat="39.4190792" lon="-3.0720857"><ele>702.8000000000001</ele><time>2026-04-19T07:54:15.391Z</time></trkpt><trkpt lat="39.4191036" lon="-3.0720097"><ele>702.4000000000001</ele><time>2026-04-19T07:54:16.376Z</time></trkpt><trkpt lat="39.41918" lon="-3.0718941"><ele>702.0</ele><time>2026-04-19T07:54:18.369Z</time></trkpt><trkpt lat="39.4192933" lon="-3.07186"><ele>702.0</ele><time>2026-04-19T07:54:20.381Z</time></trkpt><trkpt lat="39.4193597" lon="-3.0718719"><ele>702.0</ele><time>2026-04-19T07:54:21.379Z</time></trkpt><trkpt lat="39.4194314" lon="-3.0719026"><ele>702.0</ele><time>2026-04-19T07:54:22.384Z</time></trkpt><trkpt lat="39.4195132" lon="-3.0719405"><ele>702.0</ele><time>2026-04-19T07:54:23.379Z</time></trkpt><trkpt lat="39.4196046" lon="-3.0719809"><ele>702.0</ele><time>2026-04-19T07:54:24.381Z</time></trkpt><trkpt lat="39.4197071" lon="-3.0720147"><ele>702.0</ele><time>2026-04-19T07:54:25.371Z</time></trkpt><trkpt lat="39.4198192" lon="-3.0720378"><ele>701.2</ele><time>2026-04-19T07:54:26.376Z</time></trkpt><trkpt lat="39.4199337" lon="-3.0720501"><ele>700.4000000000001</ele><time>2026-04-19T07:54:27.394Z</time></trkpt><trkpt lat="39.4200461" lon="-3.0720544"><ele>699.5999999999999</ele><time>2026-04-19T07:54:28.376Z</time></trkpt><trkpt lat="39.4201523" lon="-3.0720499"><ele>698.8</ele><time>2026-04-19T07:54:29.372Z</time></trkpt><trkpt lat="39.4202497" lon="-3.0720336"><ele>698.0</ele><time>2026-04-19T07:54:30.373Z</time></trkpt><trkpt lat="39.4203379" lon="-3.0720087"><ele>698.0</ele><time>2026-04-19T07:54:31.374Z</time></trkpt><trkpt lat="39.4204163" lon="-3.0719787"><ele>698.0</ele><time>2026-04-19T07:54:32.379Z</time></trkpt><trkpt lat="39.4204978" lon="-3.0719372"><ele>698.0</ele><time>2026-04-19T07:54:33.375Z</time></trkpt><trkpt lat="39.4205855" lon="-3.0718855"><ele>698.0</ele><time>2026-04-19T07:54:34.397Z</time></trkpt><trkpt lat="39.4206749" lon="-3.0718241"><ele>698.0</ele><time>2026-04-19T07:54:35.382Z</time></trkpt><trkpt lat="39.4207551" lon="-3.0717532"><ele>698.0</ele><time>2026-04-19T07:54:36.365Z</time></trkpt><trkpt lat="39.4208258" lon="-3.0716766"><ele>698.0</ele><time>2026-04-19T07:54:37.383Z</time></trkpt><trkpt lat="39.4208914" lon="-3.0715984"><ele>698.0</ele><time>2026-04-19T07:54:38.386Z</time></trkpt><trkpt lat="39.4209537" lon="-3.0715203"><ele>698.0</ele><time>2026-04-19T07:54:39.376Z</time></trkpt><trkpt lat="39.4210127" lon="-3.0714464"><ele>698.0</ele><time>2026-04-19T07:54:40.375Z</time></trkpt><trkpt lat="39.4210702" lon="-3.0713801"><ele>698.0</ele><time>2026-04-19T07:54:41.375Z</time></trkpt><trkpt lat="39.4211181" lon="-3.071323"><ele>697.5999999999999</ele><time>2026-04-19T07:54:42.384Z</time></trkpt><trkpt lat="39.4211773" lon="-3.0712139"><ele>697.1999999999999</ele><time>2026-04-19T07:54:44.382Z</time></trkpt><trkpt lat="39.4211832" lon="-3.0710672"><ele>696.8</ele><time>2026-04-19T07:54:46.377Z</time></trkpt><trkpt lat="39.4211616" lon="-3.0709731"><ele>696.4</ele><time>2026-04-19T07:54:47.385Z</time></trkpt><trkpt lat="39.4211248" lon="-3.0708778"><ele>696.0</ele><time>2026-04-19T07:54:48.37Z</time></trkpt><trkpt lat="39.4210693" lon="-3.0707813"><ele>695.75</ele><time>2026-04-19T07:54:49.369Z</time></trkpt><trkpt lat="39.4209905" lon="-3.0706746"><ele>695.5</ele><time>2026-04-19T07:54:50.375Z</time></trkpt><trkpt lat="39.4208821" lon="-3.0705479"><ele>695.25</ele><time>2026-04-19T07:54:51.39Z</time></trkpt><trkpt lat="39.4207545" lon="-3.0704094"><ele>695.0</ele><time>2026-04-19T07:54:52.373Z</time></trkpt><trkpt lat="39.4206061" lon="-3.0702554"><ele>695.0</ele><time>2026-04-19T07:54:53.375Z</time></trkpt><trkpt lat="39.4204591" lon="-3.0701031"><ele>695.0</ele><time>2026-04-19T07:54:54.379Z</time></trkpt><trkpt lat="39.4203277" lon="-3.0699599"><ele>695.0</ele><time>2026-04-19T07:54:55.37Z</time></trkpt><trkpt lat="39.4202187" lon="-3.0698305"><ele>695.0</ele><time>2026-04-19T07:54:56.374Z</time></trkpt><trkpt lat="39.4201356" lon="-3.0697091"><ele>695.0</ele><time>2026-04-19T07:54:57.366Z</time></trkpt><trkpt lat="39.4200748" lon="-3.0695873"><ele>695.0</ele><time>2026-04-19T07:54:58.381Z</time></trkpt><trkpt lat="39.4200183" lon="-3.0694357"><ele>695.0</ele><time>2026-04-19T07:54:59.371Z</time></trkpt><trkpt lat="39.4199563" lon="-3.069258"><ele>694.75</ele><time>2026-04-19T07:55:00.37Z</time></trkpt><trkpt lat="39.4198923" lon="-3.0690829"><ele>694.5</ele><time>2026-04-19T07:55:01.368Z</time></trkpt><trkpt lat="39.4198201" lon="-3.0689151"><ele>694.25</ele><time>2026-04-19T07:55:02.386Z</time></trkpt><trkpt lat="39.4197415" lon="-3.0687527"><ele>694.0</ele><time>2026-04-19T07:55:03.368Z</time></trkpt><trkpt lat="39.4196655" lon="-3.0686006"><ele>694.0</ele><time>2026-04-19T07:55:04.374Z</time></trkpt><trkpt lat="39.4195958" lon="-3.068456"><ele>694.0</ele><time>2026-04-19T07:55:05.375Z</time></trkpt><trkpt lat="39.419539" lon="-3.0683148"><ele>694.0</ele><time>2026-04-19T07:55:06.382Z</time></trkpt><trkpt lat="39.4194963" lon="-3.0681849"><ele>694.0</ele><time>2026-04-19T07:55:07.38Z</time></trkpt><trkpt lat="39.419463" lon="-3.068069"><ele>694.0</ele><time>2026-04-19T07:55:08.375Z</time></trkpt><trkpt lat="39.4194386" lon="-3.0679738"><ele>694.0</ele><time>2026-04-19T07:55:09.373Z</time></trkpt><trkpt lat="39.4193902" lon="-3.0678483"><ele>694.0</ele><time>2026-04-19T07:55:11.369Z</time></trkpt><trkpt lat="39.4193073" lon="-3.0678102"><ele>694.0</ele><time>2026-04-19T07:55:13.375Z</time></trkpt><trkpt lat="39.4191752" lon="-3.0678457"><ele>694.0</ele><time>2026-04-19T07:55:15.376Z</time></trkpt><trkpt lat="39.4190962" lon="-3.0678786"><ele>694.0</ele><time>2026-04-19T07:55:16.385Z</time></trkpt><trkpt lat="39.4190096" lon="-3.067917"><ele>694.0</ele><time>2026-04-19T07:55:17.372Z</time></trkpt><trkpt lat="39.4189203" lon="-3.0679539"><ele>694.0</ele><time>2026-04-19T07:55:18.374Z</time></trkpt><trkpt lat="39.4188358" lon="-3.0679852"><ele>694.0</ele><time>2026-04-19T07:55:19.376Z</time></trkpt><trkpt lat="39.4187606" lon="-3.0680098"><ele>694.0</ele><time>2026-04-19T07:55:20.376Z</time></trkpt><trkpt lat="39.4186972" lon="-3.0680351"><ele>694.0</ele><time>2026-04-19T07:55:21.375Z</time></trkpt><trkpt lat="39.4186008" lon="-3.0681099"><ele>694.6666666666667</ele><time>2026-04-19T07:55:23.381Z</time></trkpt><trkpt lat="39.4185215" lon="-3.0681865"><ele>695.3333333333334</ele><time>2026-04-19T07:55:25.371Z</time></trkpt><trkpt lat="39.4184643" lon="-3.0682471"><ele>696.0</ele><time>2026-04-19T07:55:26.377Z</time></trkpt><trkpt lat="39.4183988" lon="-3.0683083"><ele>696.6666666666666</ele><time>2026-04-19T07:55:27.366Z</time></trkpt><trkpt lat="39.4183361" lon="-3.068345"><ele>697.3333333333333</ele><time>2026-04-19T07:55:28.375Z</time></trkpt><trkpt lat="39.4182699" lon="-3.0683455"><ele>698.0</ele><time>2026-04-19T07:55:29.376Z</time></trkpt><trkpt lat="39.4182001" lon="-3.0683242"><ele>698.0</ele><time>2026-04-19T07:55:30.369Z</time></trkpt><trkpt lat="39.4181353" lon="-3.0682571"><ele>698.0</ele><time>2026-04-19T07:55:31.372Z</time></trkpt><trkpt lat="39.4180568" lon="-3.0681844"><ele>698.0</ele><time>2026-04-19T07:55:32.374Z</time></trkpt><trkpt lat="39.4179627" lon="-3.0680907"><ele>698.0</ele><time>2026-04-19T07:55:33.376Z</time></trkpt><trkpt lat="39.4178731" lon="-3.0680072"><ele>698.0</ele><time>2026-04-19T07:55:34.37Z</time></trkpt><trkpt lat="39.4177908" lon="-3.0679307"><ele>698.4</ele><time>2026-04-19T07:55:35.366Z</time></trkpt><trkpt lat="39.4177242" lon="-3.0678647"><ele>698.8</ele><time>2026-04-19T07:55:36.372Z</time></trkpt><trkpt lat="39.4176641" lon="-3.0678051"><ele>699.2</ele><time>2026-04-19T07:55:37.374Z</time></trkpt><trkpt lat="39.4176112" lon="-3.0677542"><ele>699.6</ele><time>2026-04-19T07:55:38.379Z</time></trkpt><trkpt lat="39.4175149" lon="-3.0676547"><ele>700.0</ele><time>2026-04-19T07:55:40.376Z</time></trkpt><trkpt lat="39.4174318" lon="-3.0675752"><ele>700.0</ele><time>2026-04-19T07:55:42.376Z</time></trkpt><trkpt lat="39.4173732" lon="-3.0675247"><ele>700.0</ele><time>2026-04-19T07:55:44.381Z</time></trkpt><trkpt lat="39.4173112" lon="-3.0674516"><ele>700.0</ele><time>2026-04-19T07:56:20.389Z</time></trkpt><trkpt lat="39.4173189" lon="-3.0673426"><ele>700.0</ele><time>2026-04-19T07:56:23.366Z</time></trkpt><trkpt lat="39.4173627" lon="-3.0672828"><ele>700.0</ele><time>2026-04-19T07:56:24.377Z</time></trkpt><trkpt lat="39.4174233" lon="-3.0672123"><ele>700.0</ele><time>2026-04-19T07:56:25.373Z</time></trkpt><trkpt lat="39.4174947" lon="-3.0671236"><ele>699.5</ele><time>2026-04-19T07:56:26.373Z</time></trkpt><trkpt lat="39.4175727" lon="-3.0670183"><ele>699.0</ele><time>2026-04-19T07:56:27.373Z</time></trkpt><trkpt lat="39.4176726" lon="-3.0669063"><ele>698.5</ele><time>2026-04-19T07:56:28.378Z</time></trkpt><trkpt lat="39.417797" lon="-3.0667811"><ele>698.0</ele><time>2026-04-19T07:56:29.382Z</time></trkpt><trkpt lat="39.4179346" lon="-3.0666406"><ele>696.6666666666666</ele><time>2026-04-19T07:56:30.377Z</time></trkpt><trkpt lat="39.4180829" lon="-3.0664844"><ele>695.3333333333334</ele><time>2026-04-19T07:56:31.374Z</time></trkpt><trkpt lat="39.4182324" lon="-3.0663192"><ele>694.0</ele><time>2026-04-19T07:56:32.384Z</time></trkpt><trkpt lat="39.4183852" lon="-3.0661547"><ele>694.0</ele><time>2026-04-19T07:56:33.379Z</time></trkpt><trkpt lat="39.4185448" lon="-3.0659875"><ele>694.0</ele><time>2026-04-19T07:56:34.376Z</time></trkpt><trkpt lat="39.418705" lon="-3.0658223"><ele>694.0</ele><time>2026-04-19T07:56:35.38Z</time></trkpt><trkpt lat="39.4188552" lon="-3.0656583"><ele>693.3333333333334</ele><time>2026-04-19T07:56:36.389Z</time></trkpt><trkpt lat="39.4189872" lon="-3.0654822"><ele>692.6666666666666</ele><time>2026-04-19T07:56:37.379Z</time></trkpt><trkpt lat="39.4190972" lon="-3.0652875"><ele>692.0</ele><time>2026-04-19T07:56:38.375Z</time></trkpt><trkpt lat="39.4191871" lon="-3.0650861"><ele>691.3333333333333</ele><time>2026-04-19T07:56:39.372Z</time></trkpt><trkpt lat="39.419271" lon="-3.064884"><ele>690.6666666666666</ele><time>2026-04-19T07:56:40.379Z</time></trkpt><trkpt lat="39.4193642" lon="-3.0646818"><ele>690.0</ele><time>2026-04-19T07:56:41.386Z</time></trkpt><trkpt lat="39.4194696" lon="-3.0644773"><ele>690.0</ele><time>2026-04-19T07:56:42.374Z</time></trkpt><trkpt lat="39.4195723" lon="-3.064259"><ele>690.0</ele><time>2026-04-19T07:56:43.378Z</time></trkpt><trkpt lat="39.4196645" lon="-3.064023"><ele>690.0</ele><time>2026-04-19T07:56:44.369Z</time></trkpt><trkpt lat="39.4197517" lon="-3.0637768"><ele>690.6666666666666</ele><time>2026-04-19T07:56:45.38Z</time></trkpt><trkpt lat="39.4198404" lon="-3.0635398"><ele>691.3333333333333</ele><time>2026-04-19T07:56:46.373Z</time></trkpt><trkpt lat="39.419935" lon="-3.0633125"><ele>692.0</ele><time>2026-04-19T07:56:47.373Z</time></trkpt><trkpt lat="39.4200411" lon="-3.0631011"><ele>692.3333333333333</ele><time>2026-04-19T07:56:48.373Z</time></trkpt><trkpt lat="39.4201602" lon="-3.0629062"><ele>692.6666666666666</ele><time>2026-04-19T07:56:49.378Z</time></trkpt><trkpt lat="39.4202873" lon="-3.0627197"><ele>693.0</ele><time>2026-04-19T07:56:50.373Z</time></trkpt><trkpt lat="39.4204124" lon="-3.0625329"><ele>694.0</ele><time>2026-04-19T07:56:51.379Z</time></trkpt><trkpt lat="39.4205315" lon="-3.0623453"><ele>695.0</ele><time>2026-04-19T07:56:52.379Z</time></trkpt><trkpt lat="39.4206363" lon="-3.0621538"><ele>696.0</ele><time>2026-04-19T07:56:53.38Z</time></trkpt><trkpt lat="39.4207306" lon="-3.0619496"><ele>696.0</ele><time>2026-04-19T07:56:54.379Z</time></trkpt><trkpt lat="39.4208174" lon="-3.0617352"><ele>696.0</ele><time>2026-04-19T07:56:55.374Z</time></trkpt><trkpt lat="39.4208968" lon="-3.0615234"><ele>696.0</ele><time>2026-04-19T07:56:56.378Z</time></trkpt><trkpt lat="39.4209675" lon="-3.0613226"><ele>695.75</ele><time>2026-04-19T07:56:57.372Z</time></trkpt><trkpt lat="39.4210305" lon="-3.0611363"><ele>695.5</ele><time>2026-04-19T07:56:58.381Z</time></trkpt><trkpt lat="39.4210869" lon="-3.0609587"><ele>695.25</ele><time>2026-04-19T07:56:59.371Z</time></trkpt><trkpt lat="39.4211354" lon="-3.0607875"><ele>695.0</ele><time>2026-04-19T07:57:00.39Z</time></trkpt><trkpt lat="39.4211791" lon="-3.0606238"><ele>694.5</ele><time>2026-04-19T07:57:01.393Z</time></trkpt><trkpt lat="39.4212234" lon="-3.0604686"><ele>694.0</ele><time>2026-04-19T07:57:02.422Z</time></trkpt><trkpt lat="39.4212689" lon="-3.0603218"><ele>693.5</ele><time>2026-04-19T07:57:03.38Z</time></trkpt><trkpt lat="39.4213107" lon="-3.0601806"><ele>693.0</ele><time>2026-04-19T07:57:04.408Z</time></trkpt><trkpt lat="39.4213466" lon="-3.0600422"><ele>693.4</ele><time>2026-04-19T07:57:05.373Z</time></trkpt><trkpt lat="39.4213813" lon="-3.0599092"><ele>693.8</ele><time>2026-04-19T07:57:06.375Z</time></trkpt><trkpt lat="39.4214166" lon="-3.0597822"><ele>694.2</ele><time>2026-04-19T07:57:07.377Z</time></trkpt><trkpt lat="39.4214522" lon="-3.0596584"><ele>694.6</ele><time>2026-04-19T07:57:08.382Z</time></trkpt><trkpt lat="39.4214856" lon="-3.05954"><ele>695.0</ele><time>2026-04-19T07:57:09.381Z</time></trkpt><trkpt lat="39.4215137" lon="-3.0594324"><ele>695.0</ele><time>2026-04-19T07:57:10.382Z</time></trkpt><trkpt lat="39.421539" lon="-3.0593377"><ele>695.0</ele><time>2026-04-19T07:57:11.374Z</time></trkpt><trkpt lat="39.4215619" lon="-3.0592548"><ele>695.0</ele><time>2026-04-19T07:57:12.367Z</time></trkpt><trkpt lat="39.4216075" lon="-3.0591007"><ele>695.0</ele><time>2026-04-19T07:57:14.387Z</time></trkpt><trkpt lat="39.4216311" lon="-3.0590226"><ele>695.0</ele><time>2026-04-19T07:57:15.37Z</time></trkpt><trkpt lat="39.4216531" lon="-3.0589419"><ele>695.0</ele><time>2026-04-19T07:57:16.376Z</time></trkpt><trkpt lat="39.4216776" lon="-3.0588612"><ele>694.5</ele><time>2026-04-19T07:57:17.394Z</time></trkpt><trkpt lat="39.4217042" lon="-3.0587801"><ele>694.0</ele><time>2026-04-19T07:57:18.374Z</time></trkpt><trkpt lat="39.4217288" lon="-3.0586967"><ele>693.5</ele><time>2026-04-19T07:57:19.371Z</time></trkpt><trkpt lat="39.4217529" lon="-3.0586108"><ele>693.0</ele><time>2026-04-19T07:57:20.382Z</time></trkpt><trkpt lat="39.4217741" lon="-3.0585273"><ele>692.5</ele><time>2026-04-19T07:57:21.38Z</time></trkpt><trkpt lat="39.4218059" lon="-3.0584163"><ele>692.0</ele><time>2026-04-19T07:57:23.374Z</time></trkpt><trkpt lat="39.4218545" lon="-3.0582885"><ele>691.4000000000001</ele><time>2026-04-19T07:57:37.375Z</time></trkpt><trkpt lat="39.4218781" lon="-3.0582062"><ele>690.8000000000001</ele><time>2026-04-19T07:57:38.385Z</time></trkpt><trkpt lat="39.4219086" lon="-3.0580964"><ele>690.2</ele><time>2026-04-19T07:57:39.379Z</time></trkpt><trkpt lat="39.4219471" lon="-3.0579661"><ele>689.6</ele><time>2026-04-19T07:57:40.369Z</time></trkpt><trkpt lat="39.4219952" lon="-3.0578157"><ele>689.0</ele><time>2026-04-19T07:57:41.384Z</time></trkpt><trkpt lat="39.4220495" lon="-3.0576409"><ele>688.6666666666666</ele><time>2026-04-19T07:57:42.376Z</time></trkpt><trkpt lat="39.4221046" lon="-3.0574477"><ele>688.3333333333334</ele><time>2026-04-19T07:57:43.385Z</time></trkpt><trkpt lat="39.4221623" lon="-3.0572334"><ele>688.0</ele><time>2026-04-19T07:57:44.377Z</time></trkpt><trkpt lat="39.422227" lon="-3.0570003"><ele>687.6666666666667</ele><time>2026-04-19T07:57:45.376Z</time></trkpt><trkpt lat="39.422298" lon="-3.0567478"><ele>687.3333333333334</ele><time>2026-04-19T07:57:46.381Z</time></trkpt><trkpt lat="39.4223716" lon="-3.0564734"><ele>687.0</ele><time>2026-04-19T07:57:47.378Z</time></trkpt><trkpt lat="39.4224454" lon="-3.0561808"><ele>686.0</ele><time>2026-04-19T07:57:48.381Z</time></trkpt><trkpt lat="39.4225199" lon="-3.0558722"><ele>685.0</ele><time>2026-04-19T07:57:49.371Z</time></trkpt><trkpt lat="39.4225972" lon="-3.0555446"><ele>684.5</ele><time>2026-04-19T07:57:50.378Z</time></trkpt><trkpt lat="39.4226702" lon="-3.0552238"><ele>684.0</ele><time>2026-04-19T07:57:51.376Z</time></trkpt><trkpt lat="39.4227369" lon="-3.0549199"><ele>684.0</ele><time>2026-04-19T07:57:52.381Z</time></trkpt><trkpt lat="39.4227963" lon="-3.0546313"><ele>684.0</ele><time>2026-04-19T07:57:53.399Z</time></trkpt><trkpt lat="39.4228734" lon="-3.0541274"><ele>683.3333333333334</ele><time>2026-04-19T07:57:55.376Z</time></trkpt><trkpt lat="39.4228792" lon="-3.0539141"><ele>682.6666666666667</ele><time>2026-04-19T07:57:56.38Z</time></trkpt><trkpt lat="39.4228557" lon="-3.0537159"><ele>682.0</ele><time>2026-04-19T07:57:57.38Z</time></trkpt><trkpt lat="39.4228048" lon="-3.0535267"><ele>682.0</ele><time>2026-04-19T07:57:58.383Z</time></trkpt><trkpt lat="39.4227418" lon="-3.0533572"><ele>682.0</ele><time>2026-04-19T07:57:59.379Z</time></trkpt><trkpt lat="39.4226928" lon="-3.0532233"><ele>682.0</ele><time>2026-04-19T07:58:00.376Z</time></trkpt><trkpt lat="39.4226599" lon="-3.0530806"><ele>682.0</ele><time>2026-04-19T07:58:01.376Z</time></trkpt><trkpt lat="39.4226574" lon="-3.0529395"><ele>682.5</ele><time>2026-04-19T07:58:02.373Z</time></trkpt><trkpt lat="39.422686" lon="-3.0527968"><ele>683.0</ele><time>2026-04-19T07:58:03.381Z</time></trkpt><trkpt lat="39.4227489" lon="-3.0526497"><ele>683.5</ele><time>2026-04-19T07:58:04.375Z</time></trkpt><trkpt lat="39.4228321" lon="-3.0524892"><ele>684.0</ele><time>2026-04-19T07:58:05.376Z</time></trkpt><trkpt lat="39.4229372" lon="-3.0523104"><ele>683.6666666666666</ele><time>2026-04-19T07:58:06.373Z</time></trkpt><trkpt lat="39.4230614" lon="-3.0521205"><ele>683.3333333333333</ele><time>2026-04-19T07:58:07.379Z</time></trkpt><trkpt lat="39.42319" lon="-3.0519495"><ele>683.0</ele><time>2026-04-19T07:58:08.373Z</time></trkpt><trkpt lat="39.423313" lon="-3.0517983"><ele>683.0</ele><time>2026-04-19T07:58:09.372Z</time></trkpt><trkpt lat="39.4234287" lon="-3.0516583"><ele>683.0</ele><time>2026-04-19T07:58:10.368Z</time></trkpt><trkpt lat="39.4235411" lon="-3.0515165"><ele>683.0</ele><time>2026-04-19T07:58:11.365Z</time></trkpt><trkpt lat="39.4236514" lon="-3.0513612"><ele>683.0</ele><time>2026-04-19T07:58:12.388Z</time></trkpt><trkpt lat="39.4237507" lon="-3.0511961"><ele>683.0</ele><time>2026-04-19T07:58:13.38Z</time></trkpt><trkpt lat="39.4238437" lon="-3.0510119"><ele>683.0</ele><time>2026-04-19T07:58:14.381Z</time></trkpt><trkpt lat="39.4239372" lon="-3.0508141"><ele>682.0</ele><time>2026-04-19T07:58:15.376Z</time></trkpt><trkpt lat="39.4240339" lon="-3.0506086"><ele>681.0</ele><time>2026-04-19T07:58:16.385Z</time></trkpt><trkpt lat="39.4241297" lon="-3.0503971"><ele>680.0</ele><time>2026-04-19T07:58:17.376Z</time></trkpt><trkpt lat="39.4242238" lon="-3.0501817"><ele>680.0</ele><time>2026-04-19T07:58:18.379Z</time></trkpt><trkpt lat="39.4243159" lon="-3.0499749"><ele>680.0</ele><time>2026-04-19T07:58:19.384Z</time></trkpt><trkpt lat="39.4244097" lon="-3.0497764"><ele>680.0</ele><time>2026-04-19T07:58:20.382Z</time></trkpt><trkpt lat="39.4245126" lon="-3.0495793"><ele>679.3333333333333</ele><time>2026-04-19T07:58:21.372Z</time></trkpt><trkpt lat="39.4246259" lon="-3.0493782"><ele>678.6666666666666</ele><time>2026-04-19T07:58:22.384Z</time></trkpt><trkpt lat="39.4247452" lon="-3.0491794"><ele>678.0</ele><time>2026-04-19T07:58:23.372Z</time></trkpt><trkpt lat="39.4248663" lon="-3.0489816"><ele>677.0</ele><time>2026-04-19T07:58:24.373Z</time></trkpt><trkpt lat="39.424986" lon="-3.0487835"><ele>676.0</ele><time>2026-04-19T07:58:25.383Z</time></trkpt><trkpt lat="39.4251053" lon="-3.0485734"><ele>675.0</ele><time>2026-04-19T07:58:26.372Z</time></trkpt><trkpt lat="39.42523" lon="-3.0483527"><ele>675.0</ele><time>2026-04-19T07:58:27.377Z</time></trkpt><trkpt lat="39.4253619" lon="-3.0481064"><ele>675.0</ele><time>2026-04-19T07:58:28.37Z</time></trkpt><trkpt lat="39.4254988" lon="-3.0478603"><ele>675.0</ele><time>2026-04-19T07:58:29.374Z</time></trkpt><trkpt lat="39.4256308" lon="-3.0476117"><ele>675.0</ele><time>2026-04-19T07:58:30.373Z</time></trkpt><trkpt lat="39.425762" lon="-3.0473659"><ele>675.5</ele><time>2026-04-19T07:58:31.376Z</time></trkpt><trkpt lat="39.4258946" lon="-3.0471213"><ele>676.0</ele><time>2026-04-19T07:58:32.375Z</time></trkpt><trkpt lat="39.4260199" lon="-3.0468884"><ele>676.0</ele><time>2026-04-19T07:58:33.373Z</time></trkpt><trkpt lat="39.4261451" lon="-3.046659"><ele>676.0</ele><time>2026-04-19T07:58:34.378Z</time></trkpt><trkpt lat="39.4262666" lon="-3.0464372"><ele>676.0</ele><time>2026-04-19T07:58:35.376Z</time></trkpt><trkpt lat="39.4263877" lon="-3.0462191"><ele>675.6666666666667</ele><time>2026-04-19T07:58:36.378Z</time></trkpt><trkpt lat="39.4265187" lon="-3.0459999"><ele>675.3333333333334</ele><time>2026-04-19T07:58:37.374Z</time></trkpt><trkpt lat="39.4266666" lon="-3.0457679"><ele>675.0</ele><time>2026-04-19T07:58:38.374Z</time></trkpt><trkpt lat="39.426831" lon="-3.0455231"><ele>674.5</ele><time>2026-04-19T07:58:39.384Z</time></trkpt><trkpt lat="39.4269921" lon="-3.0452851"><ele>674.0</ele><time>2026-04-19T07:58:40.387Z</time></trkpt><trkpt lat="39.4271458" lon="-3.0450592"><ele>673.5</ele><time>2026-04-19T07:58:41.375Z</time></trkpt><trkpt lat="39.4272985" lon="-3.044838"><ele>673.0</ele><time>2026-04-19T07:58:42.38Z</time></trkpt><trkpt lat="39.4274536" lon="-3.044608"><ele>673.0</ele><time>2026-04-19T07:58:43.377Z</time></trkpt><trkpt lat="39.4276077" lon="-3.0443605"><ele>673.0</ele><time>2026-04-19T07:58:44.373Z</time></trkpt><trkpt lat="39.4277471" lon="-3.0441122"><ele>673.0</ele><time>2026-04-19T07:58:45.377Z</time></trkpt><trkpt lat="39.4278688" lon="-3.0438781"><ele>673.0</ele><time>2026-04-19T07:58:46.38Z</time></trkpt><trkpt lat="39.4279753" lon="-3.0436645"><ele>673.0</ele><time>2026-04-19T07:58:47.375Z</time></trkpt><trkpt lat="39.4280735" lon="-3.0434615"><ele>673.0</ele><time>2026-04-19T07:58:48.382Z</time></trkpt><trkpt lat="39.4281629" lon="-3.0432602"><ele>673.0</ele><time>2026-04-19T07:58:49.38Z</time></trkpt><trkpt lat="39.4282417" lon="-3.0430461"><ele>673.0</ele><time>2026-04-19T07:58:50.379Z</time></trkpt><trkpt lat="39.4283106" lon="-3.0428061"><ele>673.0</ele><time>2026-04-19T07:58:51.38Z</time></trkpt><trkpt lat="39.4283719" lon="-3.042542"><ele>673.0</ele><time>2026-04-19T07:58:52.379Z</time></trkpt><trkpt lat="39.4284271" lon="-3.0422864"><ele>673.0</ele><time>2026-04-19T07:58:53.385Z</time></trkpt><trkpt lat="39.4284806" lon="-3.0420438"><ele>673.0</ele><time>2026-04-19T07:58:54.379Z</time></trkpt><trkpt lat="39.4285303" lon="-3.0418033"><ele>673.0</ele><time>2026-04-19T07:58:55.383Z</time></trkpt><trkpt lat="39.4285761" lon="-3.0415664"><ele>673.0</ele><time>2026-04-19T07:58:56.374Z</time></trkpt><trkpt lat="39.4286242" lon="-3.0413276"><ele>672.3333333333334</ele><time>2026-04-19T07:58:57.384Z</time></trkpt><trkpt lat="39.4286788" lon="-3.0410862"><ele>671.6666666666666</ele><time>2026-04-19T07:58:58.376Z</time></trkpt><trkpt lat="39.4287352" lon="-3.040852"><ele>671.0</ele><time>2026-04-19T07:58:59.377Z</time></trkpt><trkpt lat="39.4287928" lon="-3.0406216"><ele>670.3333333333333</ele><time>2026-04-19T07:59:00.381Z</time></trkpt><trkpt lat="39.4288516" lon="-3.0403936"><ele>669.6666666666666</ele><time>2026-04-19T07:59:01.385Z</time></trkpt><trkpt lat="39.4289103" lon="-3.0401705"><ele>669.0</ele><time>2026-04-19T07:59:02.378Z</time></trkpt><trkpt lat="39.4289691" lon="-3.0399497"><ele>669.0</ele><time>2026-04-19T07:59:03.383Z</time></trkpt><trkpt lat="39.4290293" lon="-3.0397273"><ele>669.0</ele><time>2026-04-19T07:59:04.384Z</time></trkpt><trkpt lat="39.4290892" lon="-3.0395143"><ele>669.0</ele><time>2026-04-19T07:59:05.384Z</time></trkpt><trkpt lat="39.4291556" lon="-3.0393045"><ele>668.6666666666666</ele><time>2026-04-19T07:59:06.38Z</time></trkpt><trkpt lat="39.4292365" lon="-3.0390919"><ele>668.3333333333333</ele><time>2026-04-19T07:59:07.38Z</time></trkpt><trkpt lat="39.429334" lon="-3.0388685"><ele>668.0</ele><time>2026-04-19T07:59:08.376Z</time></trkpt><trkpt lat="39.4294386" lon="-3.0386453"><ele>668.0</ele><time>2026-04-19T07:59:09.377Z</time></trkpt><trkpt lat="39.4295393" lon="-3.0384362"><ele>668.0</ele><time>2026-04-19T07:59:10.382Z</time></trkpt><trkpt lat="39.4296299" lon="-3.0382335"><ele>668.0</ele><time>2026-04-19T07:59:11.38Z</time></trkpt><trkpt lat="39.4297039" lon="-3.0380325"><ele>668.3333333333333</ele><time>2026-04-19T07:59:12.389Z</time></trkpt><trkpt lat="39.4297654" lon="-3.0378369"><ele>668.6666666666666</ele><time>2026-04-19T07:59:13.369Z</time></trkpt><trkpt lat="39.4298186" lon="-3.0376482"><ele>669.0</ele><time>2026-04-19T07:59:14.369Z</time></trkpt><trkpt lat="39.4298716" lon="-3.0374654"><ele>669.0</ele><time>2026-04-19T07:59:15.371Z</time></trkpt><trkpt lat="39.4299306" lon="-3.0372795"><ele>669.0</ele><time>2026-04-19T07:59:16.377Z</time></trkpt><trkpt lat="39.4299981" lon="-3.0370943"><ele>669.0</ele><time>2026-04-19T07:59:17.378Z</time></trkpt><trkpt lat="39.4300769" lon="-3.0369093"><ele>669.0</ele><time>2026-04-19T07:59:18.375Z</time></trkpt><trkpt lat="39.4301712" lon="-3.0367153"><ele>669.0</ele><time>2026-04-19T07:59:19.371Z</time></trkpt><trkpt lat="39.4302704" lon="-3.0365189"><ele>669.0</ele><time>2026-04-19T07:59:20.371Z</time></trkpt><trkpt lat="39.4303709" lon="-3.0363195"><ele>669.0</ele><time>2026-04-19T07:59:21.383Z</time></trkpt><trkpt lat="39.4304727" lon="-3.0361119"><ele>669.0</ele><time>2026-04-19T07:59:22.378Z</time></trkpt><trkpt lat="39.4305731" lon="-3.0359088"><ele>669.0</ele><time>2026-04-19T07:59:23.384Z</time></trkpt><trkpt lat="39.4306734" lon="-3.0357147"><ele>669.0</ele><time>2026-04-19T07:59:24.379Z</time></trkpt><trkpt lat="39.430778" lon="-3.0355177"><ele>669.0</ele><time>2026-04-19T07:59:25.381Z</time></trkpt><trkpt lat="39.4308798" lon="-3.0353121"><ele>669.0</ele><time>2026-04-19T07:59:26.379Z</time></trkpt><trkpt lat="39.4309697" lon="-3.0351044"><ele>669.0</ele><time>2026-04-19T07:59:27.371Z</time></trkpt><trkpt lat="39.4310544" lon="-3.0348911"><ele>669.0</ele><time>2026-04-19T07:59:28.375Z</time></trkpt><trkpt lat="39.4311375" lon="-3.0346727"><ele>669.0</ele><time>2026-04-19T07:59:29.371Z</time></trkpt><trkpt lat="39.4312127" lon="-3.0344599"><ele>669.0</ele><time>2026-04-19T07:59:30.384Z</time></trkpt><trkpt lat="39.4312827" lon="-3.0342518"><ele>669.0</ele><time>2026-04-19T07:59:31.376Z</time></trkpt><trkpt lat="39.4313563" lon="-3.0340384"><ele>669.0</ele><time>2026-04-19T07:59:32.374Z</time></trkpt><trkpt lat="39.4314348" lon="-3.0338276"><ele>668.6666666666666</ele><time>2026-04-19T07:59:33.378Z</time></trkpt><trkpt lat="39.4315169" lon="-3.0336038"><ele>668.3333333333333</ele><time>2026-04-19T07:59:34.382Z</time></trkpt><trkpt lat="39.4315962" lon="-3.033369"><ele>668.0</ele><time>2026-04-19T07:59:35.374Z</time></trkpt><trkpt lat="39.4316729" lon="-3.0331337"><ele>667.6666666666666</ele><time>2026-04-19T07:59:36.375Z</time></trkpt><trkpt lat="39.4317513" lon="-3.0328967"><ele>667.3333333333334</ele><time>2026-04-19T07:59:37.375Z</time></trkpt><trkpt lat="39.431829" lon="-3.0326687"><ele>667.0</ele><time>2026-04-19T07:59:38.392Z</time></trkpt><trkpt lat="39.4319117" lon="-3.032452"><ele>666.6666666666667</ele><time>2026-04-19T07:59:39.372Z</time></trkpt><trkpt lat="39.432" lon="-3.0322366"><ele>666.3333333333334</ele><time>2026-04-19T07:59:40.372Z</time></trkpt><trkpt lat="39.4320913" lon="-3.032036"><ele>666.0</ele><time>2026-04-19T07:59:41.378Z</time></trkpt><trkpt lat="39.4321846" lon="-3.0318289"><ele>665.3333333333334</ele><time>2026-04-19T07:59:42.374Z</time></trkpt><trkpt lat="39.4322832" lon="-3.0316129"><ele>664.6666666666667</ele><time>2026-04-19T07:59:43.374Z</time></trkpt><trkpt lat="39.4323829" lon="-3.0313922"><ele>664.0</ele><time>2026-04-19T07:59:44.37Z</time></trkpt><trkpt lat="39.4324822" lon="-3.0311665"><ele>664.0</ele><time>2026-04-19T07:59:45.378Z</time></trkpt><trkpt lat="39.4325795" lon="-3.0309369"><ele>664.0</ele><time>2026-04-19T07:59:46.379Z</time></trkpt><trkpt lat="39.4326777" lon="-3.0307007"><ele>664.0</ele><time>2026-04-19T07:59:47.388Z</time></trkpt><trkpt lat="39.4327668" lon="-3.0304602"><ele>664.3333333333334</ele><time>2026-04-19T07:59:48.374Z</time></trkpt><trkpt lat="39.4328491" lon="-3.0302214"><ele>664.6666666666666</ele><time>2026-04-19T07:59:49.368Z</time></trkpt><trkpt lat="39.4329346" lon="-3.0299796"><ele>665.0</ele><time>2026-04-19T07:59:50.38Z</time></trkpt><trkpt lat="39.4330162" lon="-3.0297526"><ele>665.3333333333333</ele><time>2026-04-19T07:59:51.368Z</time></trkpt><trkpt lat="39.4331008" lon="-3.0295305"><ele>665.6666666666666</ele><time>2026-04-19T07:59:52.381Z</time></trkpt><trkpt lat="39.4331837" lon="-3.0293044"><ele>666.0</ele><time>2026-04-19T07:59:53.378Z</time></trkpt><trkpt lat="39.4332697" lon="-3.0290758"><ele>666.0</ele><time>2026-04-19T07:59:54.373Z</time></trkpt><trkpt lat="39.4333547" lon="-3.0288424"><ele>666.0</ele><time>2026-04-19T07:59:55.384Z</time></trkpt><trkpt lat="39.4334395" lon="-3.0286097"><ele>666.0</ele><time>2026-04-19T07:59:56.377Z</time></trkpt><trkpt lat="39.4335281" lon="-3.0283676"><ele>665.6666666666666</ele><time>2026-04-19T07:59:57.375Z</time></trkpt><trkpt lat="39.4336118" lon="-3.0281323"><ele>665.3333333333333</ele><time>2026-04-19T07:59:58.377Z</time></trkpt><trkpt lat="39.4336921" lon="-3.0279044"><ele>665.0</ele><time>2026-04-19T07:59:59.382Z</time></trkpt><trkpt lat="39.4337715" lon="-3.0276795"><ele>664.3333333333333</ele><time>2026-04-19T08:00:00.378Z</time></trkpt><trkpt lat="39.4338583" lon="-3.0274507"><ele>663.6666666666666</ele><time>2026-04-19T08:00:01.378Z</time></trkpt><trkpt lat="39.4339421" lon="-3.0272217"><ele>663.0</ele><time>2026-04-19T08:00:02.366Z</time></trkpt><trkpt lat="39.4340247" lon="-3.0269932"><ele>663.0</ele><time>2026-04-19T08:00:03.372Z</time></trkpt><trkpt lat="39.4341122" lon="-3.0267697"><ele>663.0</ele><time>2026-04-19T08:00:04.376Z</time></trkpt><trkpt lat="39.4342052" lon="-3.026546"><ele>663.0</ele><time>2026-04-19T08:00:05.381Z</time></trkpt><trkpt lat="39.4343034" lon="-3.0263188"><ele>663.3333333333334</ele><time>2026-04-19T08:00:06.379Z</time></trkpt><trkpt lat="39.4344043" lon="-3.0260918"><ele>663.6666666666667</ele><time>2026-04-19T08:00:07.373Z</time></trkpt><trkpt lat="39.4345114" lon="-3.0258738"><ele>664.0</ele><time>2026-04-19T08:00:08.376Z</time></trkpt><trkpt lat="39.4346267" lon="-3.025668"><ele>663.6666666666667</ele><time>2026-04-19T08:00:09.373Z</time></trkpt><trkpt lat="39.4347593" lon="-3.0254669"><ele>663.3333333333334</ele><time>2026-04-19T08:00:10.377Z</time></trkpt><trkpt lat="39.4348938" lon="-3.0252768"><ele>663.0</ele><time>2026-04-19T08:00:11.373Z</time></trkpt><trkpt lat="39.4350199" lon="-3.0250938"><ele>662.6666666666666</ele><time>2026-04-19T08:00:12.381Z</time></trkpt><trkpt lat="39.435131" lon="-3.0249043"><ele>662.3333333333333</ele><time>2026-04-19T08:00:13.371Z</time></trkpt><trkpt lat="39.4352259" lon="-3.0246987"><ele>662.0</ele><time>2026-04-19T08:00:14.372Z</time></trkpt><trkpt lat="39.4352951" lon="-3.0244859"><ele>662.0</ele><time>2026-04-19T08:00:15.373Z</time></trkpt><trkpt lat="39.4353463" lon="-3.0242516"><ele>662.0</ele><time>2026-04-19T08:00:16.375Z</time></trkpt><trkpt lat="39.4353827" lon="-3.0240173"><ele>662.0</ele><time>2026-04-19T08:00:17.374Z</time></trkpt><trkpt lat="39.4354199" lon="-3.0237937"><ele>662.0</ele><time>2026-04-19T08:00:18.371Z</time></trkpt><trkpt lat="39.4354693" lon="-3.023572"><ele>662.0</ele><time>2026-04-19T08:00:19.378Z</time></trkpt><trkpt lat="39.4355297" lon="-3.0233544"><ele>662.0</ele><time>2026-04-19T08:00:20.37Z</time></trkpt><trkpt lat="39.4355988" lon="-3.0231432"><ele>662.0</ele><time>2026-04-19T08:00:21.38Z</time></trkpt><trkpt lat="39.4356728" lon="-3.0229327"><ele>662.0</ele><time>2026-04-19T08:00:22.376Z</time></trkpt><trkpt lat="39.4357456" lon="-3.0227245"><ele>662.0</ele><time>2026-04-19T08:00:23.378Z</time></trkpt><trkpt lat="39.4358148" lon="-3.0225273"><ele>662.0</ele><time>2026-04-19T08:00:24.377Z</time></trkpt><trkpt lat="39.435878" lon="-3.0223375"><ele>662.0</ele><time>2026-04-19T08:00:25.374Z</time></trkpt><trkpt lat="39.4359376" lon="-3.0221493"><ele>662.0</ele><time>2026-04-19T08:00:26.377Z</time></trkpt><trkpt lat="39.4359978" lon="-3.021963"><ele>662.0</ele><time>2026-04-19T08:00:27.371Z</time></trkpt><trkpt lat="39.436063" lon="-3.0217747"><ele>662.0</ele><time>2026-04-19T08:00:28.375Z</time></trkpt><trkpt lat="39.436138" lon="-3.0215853"><ele>662.0</ele><time>2026-04-19T08:00:29.381Z</time></trkpt><trkpt lat="39.4362254" lon="-3.0213975"><ele>662.0</ele><time>2026-04-19T08:00:30.375Z</time></trkpt><trkpt lat="39.4363196" lon="-3.0212073"><ele>662.0</ele><time>2026-04-19T08:00:31.375Z</time></trkpt><trkpt lat="39.4364108" lon="-3.0210287"><ele>662.0</ele><time>2026-04-19T08:00:32.374Z</time></trkpt><trkpt lat="39.4364983" lon="-3.0208597"><ele>662.0</ele><time>2026-04-19T08:00:33.378Z</time></trkpt><trkpt lat="39.4365867" lon="-3.0206944"><ele>662.0</ele><time>2026-04-19T08:00:34.375Z</time></trkpt><trkpt lat="39.436675" lon="-3.0205334"><ele>662.0</ele><time>2026-04-19T08:00:35.376Z</time></trkpt><trkpt lat="39.4367586" lon="-3.0203751"><ele>662.0</ele><time>2026-04-19T08:00:36.374Z</time></trkpt><trkpt lat="39.4368366" lon="-3.0202172"><ele>662.0</ele><time>2026-04-19T08:00:37.373Z</time></trkpt><trkpt lat="39.4369099" lon="-3.0200568"><ele>662.0</ele><time>2026-04-19T08:00:38.376Z</time></trkpt><trkpt lat="39.4369777" lon="-3.0198935"><ele>662.0</ele><time>2026-04-19T08:00:39.369Z</time></trkpt><trkpt lat="39.4370429" lon="-3.0197316"><ele>662.0</ele><time>2026-04-19T08:00:40.371Z</time></trkpt><trkpt lat="39.437108" lon="-3.0195696"><ele>662.0</ele><time>2026-04-19T08:00:41.368Z</time></trkpt><trkpt lat="39.437177" lon="-3.0194078"><ele>662.0</ele><time>2026-04-19T08:00:42.37Z</time></trkpt><trkpt lat="39.4372538" lon="-3.0192465"><ele>662.0</ele><time>2026-04-19T08:00:43.37Z</time></trkpt><trkpt lat="39.4373393" lon="-3.0190847"><ele>662.0</ele><time>2026-04-19T08:00:44.373Z</time></trkpt><trkpt lat="39.437431" lon="-3.0189216"><ele>662.0</ele><time>2026-04-19T08:00:45.371Z</time></trkpt><trkpt lat="39.4375253" lon="-3.0187565"><ele>662.0</ele><time>2026-04-19T08:00:46.375Z</time></trkpt><trkpt lat="39.4376264" lon="-3.0185878"><ele>662.0</ele><time>2026-04-19T08:00:47.374Z</time></trkpt><trkpt lat="39.4377274" lon="-3.0184059"><ele>662.0</ele><time>2026-04-19T08:00:48.38Z</time></trkpt><trkpt lat="39.4378248" lon="-3.0182001"><ele>662.0</ele><time>2026-04-19T08:00:49.379Z</time></trkpt><trkpt lat="39.4379169" lon="-3.0179766"><ele>661.6666666666666</ele><time>2026-04-19T08:00:50.375Z</time></trkpt><trkpt lat="39.4380053" lon="-3.0177396"><ele>661.3333333333334</ele><time>2026-04-19T08:00:51.384Z</time></trkpt><trkpt lat="39.4380902" lon="-3.0175059"><ele>661.0</ele><time>2026-04-19T08:00:52.373Z</time></trkpt><trkpt lat="39.4381736" lon="-3.0172865"><ele>661.0</ele><time>2026-04-19T08:00:53.377Z</time></trkpt><trkpt lat="39.4382588" lon="-3.0170759"><ele>661.0</ele><time>2026-04-19T08:00:54.376Z</time></trkpt><trkpt lat="39.4383477" lon="-3.0168701"><ele>661.0</ele><time>2026-04-19T08:00:55.377Z</time></trkpt><trkpt lat="39.4384417" lon="-3.0166749"><ele>661.3333333333334</ele><time>2026-04-19T08:00:56.375Z</time></trkpt><trkpt lat="39.4385456" lon="-3.0164936"><ele>661.6666666666666</ele><time>2026-04-19T08:00:57.384Z</time></trkpt><trkpt lat="39.4386674" lon="-3.0163133"><ele>662.0</ele><time>2026-04-19T08:00:58.381Z</time></trkpt><trkpt lat="39.4388057" lon="-3.0161268"><ele>662.5</ele><time>2026-04-19T08:00:59.373Z</time></trkpt><trkpt lat="39.4389582" lon="-3.0159262"><ele>663.0</ele><time>2026-04-19T08:01:00.369Z</time></trkpt><trkpt lat="39.4391166" lon="-3.0157039"><ele>662.0</ele><time>2026-04-19T08:01:01.367Z</time></trkpt><trkpt lat="39.4392766" lon="-3.0154722"><ele>661.0</ele><time>2026-04-19T08:01:02.378Z</time></trkpt><trkpt lat="39.4394228" lon="-3.0152504"><ele>661.0</ele><time>2026-04-19T08:01:03.376Z</time></trkpt><trkpt lat="39.4395624" lon="-3.0150249"><ele>661.0</ele><time>2026-04-19T08:01:04.371Z</time></trkpt><trkpt lat="39.4397004" lon="-3.0147762"><ele>662.0</ele><time>2026-04-19T08:01:05.382Z</time></trkpt><trkpt lat="39.4398388" lon="-3.0145006"><ele>663.0</ele><time>2026-04-19T08:01:06.371Z</time></trkpt><trkpt lat="39.4399784" lon="-3.0142002"><ele>662.5</ele><time>2026-04-19T08:01:07.377Z</time></trkpt><trkpt lat="39.4401062" lon="-3.0139063"><ele>662.0</ele><time>2026-04-19T08:01:08.369Z</time></trkpt><trkpt lat="39.4402216" lon="-3.0136289"><ele>662.0</ele><time>2026-04-19T08:01:09.378Z</time></trkpt><trkpt lat="39.440329" lon="-3.0133709"><ele>662.0</ele><time>2026-04-19T08:01:10.377Z</time></trkpt><trkpt lat="39.4404305" lon="-3.0131301"><ele>662.0</ele><time>2026-04-19T08:01:11.376Z</time></trkpt><trkpt lat="39.4405219" lon="-3.0128965"><ele>662.0</ele><time>2026-04-19T08:01:12.376Z</time></trkpt><trkpt lat="39.4406054" lon="-3.0126684"><ele>662.0</ele><time>2026-04-19T08:01:13.367Z</time></trkpt><trkpt lat="39.4406832" lon="-3.0124431"><ele>662.0</ele><time>2026-04-19T08:01:14.378Z</time></trkpt><trkpt lat="39.4407581" lon="-3.0122195"><ele>662.3333333333333</ele><time>2026-04-19T08:01:15.376Z</time></trkpt><trkpt lat="39.4408301" lon="-3.0120075"><ele>662.6666666666666</ele><time>2026-04-19T08:01:16.376Z</time></trkpt><trkpt lat="39.4408999" lon="-3.0117962"><ele>663.0</ele><time>2026-04-19T08:01:17.373Z</time></trkpt><trkpt lat="39.4409729" lon="-3.0115862"><ele>663.6666666666666</ele><time>2026-04-19T08:01:18.376Z</time></trkpt><trkpt lat="39.4410528" lon="-3.0113732"><ele>664.3333333333333</ele><time>2026-04-19T08:01:19.375Z</time></trkpt><trkpt lat="39.4411422" lon="-3.0111594"><ele>665.0</ele><time>2026-04-19T08:01:20.381Z</time></trkpt><trkpt lat="39.4412446" lon="-3.0109409"><ele>665.3333333333333</ele><time>2026-04-19T08:01:21.373Z</time></trkpt><trkpt lat="39.4413542" lon="-3.010716"><ele>665.6666666666666</ele><time>2026-04-19T08:01:22.372Z</time></trkpt><trkpt lat="39.4414647" lon="-3.0104842"><ele>666.0</ele><time>2026-04-19T08:01:23.374Z</time></trkpt><trkpt lat="39.4415762" lon="-3.010241"><ele>666.0</ele><time>2026-04-19T08:01:24.373Z</time></trkpt><trkpt lat="39.4416901" lon="-3.0100024"><ele>666.0</ele><time>2026-04-19T08:01:25.374Z</time></trkpt><trkpt lat="39.4418084" lon="-3.0097717"><ele>666.0</ele><time>2026-04-19T08:01:26.372Z</time></trkpt><trkpt lat="39.4419395" lon="-3.0095399"><ele>665.5</ele><time>2026-04-19T08:01:27.371Z</time></trkpt><trkpt lat="39.4420852" lon="-3.0093054"><ele>665.0</ele><time>2026-04-19T08:01:28.376Z</time></trkpt><trkpt lat="39.4422473" lon="-3.0090693"><ele>665.0</ele><time>2026-04-19T08:01:29.371Z</time></trkpt><trkpt lat="39.442422" lon="-3.008826"><ele>665.0</ele><time>2026-04-19T08:01:30.373Z</time></trkpt><trkpt lat="39.4425878" lon="-3.0085925"><ele>665.0</ele><time>2026-04-19T08:01:31.37Z</time></trkpt><trkpt lat="39.4427396" lon="-3.0083683"><ele>665.0</ele><time>2026-04-19T08:01:32.376Z</time></trkpt><trkpt lat="39.4428793" lon="-3.0081475"><ele>665.0</ele><time>2026-04-19T08:01:33.372Z</time></trkpt><trkpt lat="39.4430134" lon="-3.0079089"><ele>665.0</ele><time>2026-04-19T08:01:34.374Z</time></trkpt><trkpt lat="39.4431393" lon="-3.0076595"><ele>665.3333333333333</ele><time>2026-04-19T08:01:35.375Z</time></trkpt><trkpt lat="39.4432504" lon="-3.0074202"><ele>665.6666666666666</ele><time>2026-04-19T08:01:36.375Z</time></trkpt><trkpt lat="39.4433556" lon="-3.0071892"><ele>666.0</ele><time>2026-04-19T08:01:37.37Z</time></trkpt><trkpt lat="39.4434726" lon="-3.0069566"><ele>666.0</ele><time>2026-04-19T08:01:38.372Z</time></trkpt><trkpt lat="39.443591" lon="-3.0067385"><ele>666.0</ele><time>2026-04-19T08:01:39.372Z</time></trkpt><trkpt lat="39.4437146" lon="-3.0065291"><ele>666.0</ele><time>2026-04-19T08:01:40.38Z</time></trkpt><trkpt lat="39.4438536" lon="-3.0063117"><ele>665.6666666666666</ele><time>2026-04-19T08:01:41.371Z</time></trkpt><trkpt lat="39.4439927" lon="-3.0061038"><ele>665.3333333333333</ele><time>2026-04-19T08:01:42.371Z</time></trkpt><trkpt lat="39.4441316" lon="-3.0059145"><ele>665.0</ele><time>2026-04-19T08:01:43.369Z</time></trkpt><trkpt lat="39.4442636" lon="-3.0057413"><ele>664.3333333333333</ele><time>2026-04-19T08:01:44.377Z</time></trkpt><trkpt lat="39.44439" lon="-3.0055801"><ele>663.6666666666666</ele><time>2026-04-19T08:01:45.373Z</time></trkpt><trkpt lat="39.4445196" lon="-3.0054292"><ele>663.0</ele><time>2026-04-19T08:01:46.378Z</time></trkpt><trkpt lat="39.4446517" lon="-3.0052743"><ele>664.0</ele><time>2026-04-19T08:01:47.374Z</time></trkpt><trkpt lat="39.4447831" lon="-3.005115"><ele>665.0</ele><time>2026-04-19T08:01:48.378Z</time></trkpt><trkpt lat="39.444911" lon="-3.0049499"><ele>666.0</ele><time>2026-04-19T08:01:49.38Z</time></trkpt><trkpt lat="39.4450368" lon="-3.0047939"><ele>666.0</ele><time>2026-04-19T08:01:50.37Z</time></trkpt><trkpt lat="39.445181" lon="-3.0046349"><ele>666.0</ele><time>2026-04-19T08:01:51.372Z</time></trkpt><trkpt lat="39.4453207" lon="-3.0044791"><ele>666.0</ele><time>2026-04-19T08:01:52.368Z</time></trkpt><trkpt lat="39.4454457" lon="-3.0043369"><ele>666.0</ele><time>2026-04-19T08:01:53.371Z</time></trkpt><trkpt lat="39.4455614" lon="-3.0042066"><ele>666.0</ele><time>2026-04-19T08:01:54.373Z</time></trkpt><trkpt lat="39.4456753" lon="-3.0040822"><ele>666.0</ele><time>2026-04-19T08:01:55.38Z</time></trkpt><trkpt lat="39.4457888" lon="-3.0039507"><ele>666.0</ele><time>2026-04-19T08:01:56.366Z</time></trkpt><trkpt lat="39.4459001" lon="-3.0038131"><ele>666.0</ele><time>2026-04-19T08:01:57.371Z</time></trkpt><trkpt lat="39.4460082" lon="-3.0036683"><ele>666.0</ele><time>2026-04-19T08:01:58.374Z</time></trkpt><trkpt lat="39.4461107" lon="-3.0035237"><ele>666.0</ele><time>2026-04-19T08:01:59.369Z</time></trkpt><trkpt lat="39.446203" lon="-3.0033844"><ele>666.0</ele><time>2026-04-19T08:02:00.373Z</time></trkpt><trkpt lat="39.4462875" lon="-3.0032428"><ele>666.0</ele><time>2026-04-19T08:02:01.371Z</time></trkpt><trkpt lat="39.4463654" lon="-3.0031043"><ele>666.0</ele><time>2026-04-19T08:02:02.375Z</time></trkpt><trkpt lat="39.446447" lon="-3.0029648"><ele>666.0</ele><time>2026-04-19T08:02:03.373Z</time></trkpt><trkpt lat="39.4465263" lon="-3.0028266"><ele>666.0</ele><time>2026-04-19T08:02:04.374Z</time></trkpt><trkpt lat="39.4466073" lon="-3.0026935"><ele>666.0</ele><time>2026-04-19T08:02:05.374Z</time></trkpt><trkpt lat="39.4467007" lon="-3.0025601"><ele>666.0</ele><time>2026-04-19T08:02:06.372Z</time></trkpt><trkpt lat="39.446812" lon="-3.0024266"><ele>666.0</ele><time>2026-04-19T08:02:07.371Z</time></trkpt><trkpt lat="39.4469386" lon="-3.0022993"><ele>666.0</ele><time>2026-04-19T08:02:08.368Z</time></trkpt><trkpt lat="39.4470752" lon="-3.0021933"><ele>666.0</ele><time>2026-04-19T08:02:09.38Z</time></trkpt><trkpt lat="39.4472187" lon="-3.0020842"><ele>666.0</ele><time>2026-04-19T08:02:10.373Z</time></trkpt><trkpt lat="39.4473671" lon="-3.0019726"><ele>666.0</ele><time>2026-04-19T08:02:11.376Z</time></trkpt><trkpt lat="39.4475135" lon="-3.0018375"><ele>666.0</ele><time>2026-04-19T08:02:12.371Z</time></trkpt><trkpt lat="39.4476536" lon="-3.0017044"><ele>666.0</ele><time>2026-04-19T08:02:13.373Z</time></trkpt><trkpt lat="39.4477898" lon="-3.0015785"><ele>666.0</ele><time>2026-04-19T08:02:14.38Z</time></trkpt><trkpt lat="39.4479078" lon="-3.0014541"><ele>666.0</ele><time>2026-04-19T08:02:15.376Z</time></trkpt><trkpt lat="39.4480109" lon="-3.0013317"><ele>666.0</ele><time>2026-04-19T08:02:16.373Z</time></trkpt><trkpt lat="39.4481073" lon="-3.0012185"><ele>666.0</ele><time>2026-04-19T08:02:17.373Z</time></trkpt><trkpt lat="39.448198" lon="-3.001118"><ele>666.0</ele><time>2026-04-19T08:02:18.375Z</time></trkpt><trkpt lat="39.4482851" lon="-3.0010311"><ele>666.0</ele><time>2026-04-19T08:02:19.379Z</time></trkpt><trkpt lat="39.4483698" lon="-3.0009497"><ele>666.0</ele><time>2026-04-19T08:02:20.378Z</time></trkpt><trkpt lat="39.4484497" lon="-3.0008692"><ele>666.0</ele><time>2026-04-19T08:02:21.375Z</time></trkpt><trkpt lat="39.4485252" lon="-3.0007922"><ele>666.0</ele><time>2026-04-19T08:02:22.374Z</time></trkpt><trkpt lat="39.4486022" lon="-3.0007216"><ele>666.0</ele><time>2026-04-19T08:02:23.377Z</time></trkpt><trkpt lat="39.4486731" lon="-3.0006517"><ele>666.0</ele><time>2026-04-19T08:02:24.37Z</time></trkpt><trkpt lat="39.4487277" lon="-3.000563"><ele>665.75</ele><time>2026-04-19T08:02:25.375Z</time></trkpt><trkpt lat="39.4487776" lon="-3.0004437"><ele>665.5</ele><time>2026-04-19T08:02:26.374Z</time></trkpt><trkpt lat="39.4488264" lon="-3.00031"><ele>665.25</ele><time>2026-04-19T08:02:27.383Z</time></trkpt><trkpt lat="39.4488846" lon="-3.0001688"><ele>665.0</ele><time>2026-04-19T08:02:28.375Z</time></trkpt><trkpt lat="39.448947" lon="-3.000007"><ele>665.5</ele><time>2026-04-19T08:02:29.382Z</time></trkpt><trkpt lat="39.4490059" lon="-2.9998431"><ele>666.0</ele><time>2026-04-19T08:02:30.382Z</time></trkpt><trkpt lat="39.449061" lon="-2.9996909"><ele>666.5</ele><time>2026-04-19T08:02:31.375Z</time></trkpt><trkpt lat="39.4491068" lon="-2.999545"><ele>667.0</ele><time>2026-04-19T08:02:32.371Z</time></trkpt><trkpt lat="39.4491449" lon="-2.9994048"><ele>667.0</ele><time>2026-04-19T08:02:33.379Z</time></trkpt><trkpt lat="39.4491855" lon="-2.9992586"><ele>667.0</ele><time>2026-04-19T08:02:34.372Z</time></trkpt><trkpt lat="39.4492272" lon="-2.999116"><ele>667.0</ele><time>2026-04-19T08:02:35.374Z</time></trkpt><trkpt lat="39.4492733" lon="-2.9989702"><ele>667.0</ele><time>2026-04-19T08:02:36.373Z</time></trkpt><trkpt lat="39.4493209" lon="-2.9988234"><ele>666.75</ele><time>2026-04-19T08:02:37.378Z</time></trkpt><trkpt lat="39.4493678" lon="-2.9986684"><ele>666.5</ele><time>2026-04-19T08:02:38.376Z</time></trkpt><trkpt lat="39.449413" lon="-2.9985174"><ele>666.25</ele><time>2026-04-19T08:02:39.377Z</time></trkpt><trkpt lat="39.4494447" lon="-2.9983664"><ele>666.0</ele><time>2026-04-19T08:02:40.38Z</time></trkpt><trkpt lat="39.4494715" lon="-2.9982202"><ele>666.0</ele><time>2026-04-19T08:02:41.371Z</time></trkpt><trkpt lat="39.4495012" lon="-2.9980827"><ele>666.0</ele><time>2026-04-19T08:02:42.373Z</time></trkpt><trkpt lat="39.4495247" lon="-2.9979559"><ele>666.0</ele><time>2026-04-19T08:02:43.374Z</time></trkpt><trkpt lat="39.4495557" lon="-2.9978357"><ele>666.0</ele><time>2026-04-19T08:02:44.383Z</time></trkpt><trkpt lat="39.4495931" lon="-2.9977083"><ele>666.0</ele><time>2026-04-19T08:02:45.379Z</time></trkpt><trkpt lat="39.4496304" lon="-2.9975701"><ele>666.1999999999999</ele><time>2026-04-19T08:02:46.373Z</time></trkpt><trkpt lat="39.449665" lon="-2.9974336"><ele>666.4</ele><time>2026-04-19T08:02:47.372Z</time></trkpt><trkpt lat="39.4497056" lon="-2.997309"><ele>666.6</ele><time>2026-04-19T08:02:48.377Z</time></trkpt><trkpt lat="39.4497541" lon="-2.9971904"><ele>666.8</ele><time>2026-04-19T08:02:49.377Z</time></trkpt><trkpt lat="39.4498188" lon="-2.9970725"><ele>667.0</ele><time>2026-04-19T08:02:50.38Z</time></trkpt><trkpt lat="39.4499016" lon="-2.9969456"><ele>667.0</ele><time>2026-04-19T08:02:51.376Z</time></trkpt><trkpt lat="39.4499907" lon="-2.9968121"><ele>667.0</ele><time>2026-04-19T08:02:52.383Z</time></trkpt><trkpt lat="39.4500732" lon="-2.996676"><ele>667.0</ele><time>2026-04-19T08:02:53.376Z</time></trkpt><trkpt lat="39.4501647" lon="-2.9965432"><ele>667.0</ele><time>2026-04-19T08:02:54.374Z</time></trkpt><trkpt lat="39.4502637" lon="-2.9964063"><ele>667.0</ele><time>2026-04-19T08:02:55.38Z</time></trkpt><trkpt lat="39.4503706" lon="-2.996265"><ele>667.0</ele><time>2026-04-19T08:02:56.376Z</time></trkpt><trkpt lat="39.450475" lon="-2.9961196"><ele>667.0</ele><time>2026-04-19T08:02:57.375Z</time></trkpt><trkpt lat="39.4505723" lon="-2.9959932"><ele>667.0</ele><time>2026-04-19T08:02:58.382Z</time></trkpt><trkpt lat="39.4506642" lon="-2.995875"><ele>667.25</ele><time>2026-04-19T08:02:59.382Z</time></trkpt><trkpt lat="39.4507473" lon="-2.995765"><ele>667.5</ele><time>2026-04-19T08:03:00.376Z</time></trkpt><trkpt lat="39.4508397" lon="-2.9956572"><ele>667.75</ele><time>2026-04-19T08:03:01.377Z</time></trkpt><trkpt lat="39.4509313" lon="-2.9955332"><ele>668.0</ele><time>2026-04-19T08:03:02.378Z</time></trkpt><trkpt lat="39.4510261" lon="-2.9954131"><ele>668.0</ele><time>2026-04-19T08:03:03.374Z</time></trkpt><trkpt lat="39.4511035" lon="-2.9953104"><ele>668.0</ele><time>2026-04-19T08:03:04.381Z</time></trkpt><trkpt lat="39.4511676" lon="-2.995214"><ele>668.0</ele><time>2026-04-19T08:03:05.381Z</time></trkpt><trkpt lat="39.4512205" lon="-2.995122"><ele>668.0</ele><time>2026-04-19T08:03:06.381Z</time></trkpt><trkpt lat="39.4512767" lon="-2.9950172"><ele>668.0</ele><time>2026-04-19T08:03:07.384Z</time></trkpt><trkpt lat="39.4513432" lon="-2.9948965"><ele>668.25</ele><time>2026-04-19T08:03:08.38Z</time></trkpt><trkpt lat="39.4514208" lon="-2.9947615"><ele>668.5</ele><time>2026-04-19T08:03:09.389Z</time></trkpt><trkpt lat="39.4515062" lon="-2.9946159"><ele>668.75</ele><time>2026-04-19T08:03:10.385Z</time></trkpt><trkpt lat="39.4515992" lon="-2.9944602"><ele>669.0</ele><time>2026-04-19T08:03:11.383Z</time></trkpt><trkpt lat="39.4516991" lon="-2.9942947"><ele>668.0</ele><time>2026-04-19T08:03:12.379Z</time></trkpt><trkpt lat="39.4518023" lon="-2.9941244"><ele>667.0</ele><time>2026-04-19T08:03:13.386Z</time></trkpt><trkpt lat="39.4519094" lon="-2.993948"><ele>666.0</ele><time>2026-04-19T08:03:14.381Z</time></trkpt><trkpt lat="39.4520126" lon="-2.9937764"><ele>666.0</ele><time>2026-04-19T08:03:15.385Z</time></trkpt><trkpt lat="39.4521198" lon="-2.9936006"><ele>666.0</ele><time>2026-04-19T08:03:16.388Z</time></trkpt><trkpt lat="39.4522217" lon="-2.9934265"><ele>666.0</ele><time>2026-04-19T08:03:17.383Z</time></trkpt><trkpt lat="39.4523203" lon="-2.99326"><ele>667.0</ele><time>2026-04-19T08:03:18.379Z</time></trkpt><trkpt lat="39.4524166" lon="-2.9930761"><ele>668.0</ele><time>2026-04-19T08:03:19.377Z</time></trkpt><trkpt lat="39.4525091" lon="-2.9928667"><ele>669.0</ele><time>2026-04-19T08:03:20.381Z</time></trkpt><trkpt lat="39.4526033" lon="-2.9926406"><ele>669.3333333333334</ele><time>2026-04-19T08:03:21.384Z</time></trkpt><trkpt lat="39.4526931" lon="-2.9924244"><ele>669.6666666666667</ele><time>2026-04-19T08:03:22.38Z</time></trkpt><trkpt lat="39.4527792" lon="-2.9922227"><ele>670.0</ele><time>2026-04-19T08:03:23.397Z</time></trkpt><trkpt lat="39.4528585" lon="-2.9920334"><ele>670.0</ele><time>2026-04-19T08:03:24.383Z</time></trkpt><trkpt lat="39.4529281" lon="-2.9918555"><ele>670.0</ele><time>2026-04-19T08:03:25.384Z</time></trkpt><trkpt lat="39.4529849" lon="-2.9916942"><ele>670.0</ele><time>2026-04-19T08:03:26.378Z</time></trkpt><trkpt lat="39.4530333" lon="-2.9915383"><ele>670.0</ele><time>2026-04-19T08:03:27.383Z</time></trkpt><trkpt lat="39.4530767" lon="-2.9913754"><ele>670.0</ele><time>2026-04-19T08:03:28.375Z</time></trkpt><trkpt lat="39.4531106" lon="-2.9911978"><ele>670.0</ele><time>2026-04-19T08:03:29.383Z</time></trkpt><trkpt lat="39.4531321" lon="-2.991016"><ele>670.0</ele><time>2026-04-19T08:03:30.38Z</time></trkpt><trkpt lat="39.4531467" lon="-2.9908309"><ele>670.0</ele><time>2026-04-19T08:03:31.375Z</time></trkpt><trkpt lat="39.4531617" lon="-2.9906409"><ele>670.3333333333334</ele><time>2026-04-19T08:03:32.384Z</time></trkpt><trkpt lat="39.4531827" lon="-2.9904454"><ele>670.6666666666666</ele><time>2026-04-19T08:03:33.38Z</time></trkpt><trkpt lat="39.4532118" lon="-2.9902449"><ele>671.0</ele><time>2026-04-19T08:03:34.381Z</time></trkpt><trkpt lat="39.4532464" lon="-2.9900421"><ele>671.0</ele><time>2026-04-19T08:03:35.378Z</time></trkpt><trkpt lat="39.4532782" lon="-2.9898448"><ele>671.0</ele><time>2026-04-19T08:03:36.378Z</time></trkpt><trkpt lat="39.4533086" lon="-2.9896468"><ele>671.0</ele><time>2026-04-19T08:03:37.376Z</time></trkpt><trkpt lat="39.4533376" lon="-2.9894506"><ele>671.0</ele><time>2026-04-19T08:03:38.378Z</time></trkpt><trkpt lat="39.4533638" lon="-2.989266"><ele>671.0</ele><time>2026-04-19T08:03:39.379Z</time></trkpt><trkpt lat="39.4533888" lon="-2.9890945"><ele>671.0</ele><time>2026-04-19T08:03:40.386Z</time></trkpt><trkpt lat="39.4534127" lon="-2.9889355"><ele>671.0</ele><time>2026-04-19T08:03:41.373Z</time></trkpt><trkpt lat="39.4534346" lon="-2.9887863"><ele>671.5</ele><time>2026-04-19T08:03:42.375Z</time></trkpt><trkpt lat="39.4534569" lon="-2.988637"><ele>672.0</ele><time>2026-04-19T08:03:43.384Z</time></trkpt><trkpt lat="39.4534776" lon="-2.9884836"><ele>672.5</ele><time>2026-04-19T08:03:44.381Z</time></trkpt><trkpt lat="39.4534993" lon="-2.9883241"><ele>673.0</ele><time>2026-04-19T08:03:45.381Z</time></trkpt><trkpt lat="39.4535285" lon="-2.9881615"><ele>673.5</ele><time>2026-04-19T08:03:46.375Z</time></trkpt><trkpt lat="39.4535684" lon="-2.9879984"><ele>674.0</ele><time>2026-04-19T08:03:47.381Z</time></trkpt><trkpt lat="39.4536181" lon="-2.9878336"><ele>674.5</ele><time>2026-04-19T08:03:48.381Z</time></trkpt><trkpt lat="39.4536819" lon="-2.9876733"><ele>675.0</ele><time>2026-04-19T08:03:49.39Z</time></trkpt><trkpt lat="39.4537616" lon="-2.987512"><ele>675.6666666666666</ele><time>2026-04-19T08:03:50.378Z</time></trkpt><trkpt lat="39.4538521" lon="-2.9873572"><ele>676.3333333333333</ele><time>2026-04-19T08:03:51.373Z</time></trkpt><trkpt lat="39.4539455" lon="-2.9871884"><ele>677.0</ele><time>2026-04-19T08:03:52.38Z</time></trkpt><trkpt lat="39.4540469" lon="-2.9870122"><ele>677.0</ele><time>2026-04-19T08:03:53.388Z</time></trkpt><trkpt lat="39.4541501" lon="-2.9868337"><ele>677.0</ele><time>2026-04-19T08:03:54.38Z</time></trkpt><trkpt lat="39.4542519" lon="-2.9866377"><ele>677.0</ele><time>2026-04-19T08:03:55.377Z</time></trkpt><trkpt lat="39.4543478" lon="-2.9864226"><ele>676.6666666666666</ele><time>2026-04-19T08:03:56.375Z</time></trkpt><trkpt lat="39.4544476" lon="-2.9861879"><ele>676.3333333333334</ele><time>2026-04-19T08:03:57.385Z</time></trkpt><trkpt lat="39.4545449" lon="-2.9859592"><ele>676.0</ele><time>2026-04-19T08:03:58.384Z</time></trkpt><trkpt lat="39.4546318" lon="-2.9857227"><ele>676.0</ele><time>2026-04-19T08:03:59.376Z</time></trkpt><trkpt lat="39.4547173" lon="-2.9854618"><ele>676.0</ele><time>2026-04-19T08:04:00.38Z</time></trkpt><trkpt lat="39.4547978" lon="-2.9852012"><ele>676.0</ele><time>2026-04-19T08:04:01.378Z</time></trkpt><trkpt lat="39.4548735" lon="-2.9849498"><ele>676.0</ele><time>2026-04-19T08:04:02.378Z</time></trkpt><trkpt lat="39.4549599" lon="-2.9846865"><ele>676.0</ele><time>2026-04-19T08:04:03.377Z</time></trkpt><trkpt lat="39.4550488" lon="-2.9844182"><ele>676.0</ele><time>2026-04-19T08:04:04.37Z</time></trkpt><trkpt lat="39.4551154" lon="-2.9841485"><ele>675.6666666666667</ele><time>2026-04-19T08:04:05.381Z</time></trkpt><trkpt lat="39.4551778" lon="-2.9838996"><ele>675.3333333333334</ele><time>2026-04-19T08:04:06.387Z</time></trkpt><trkpt lat="39.4552358" lon="-2.9836727"><ele>675.0</ele><time>2026-04-19T08:04:07.385Z</time></trkpt><trkpt lat="39.4552811" lon="-2.9834623"><ele>674.5</ele><time>2026-04-19T08:04:08.377Z</time></trkpt><trkpt lat="39.4553162" lon="-2.9832664"><ele>674.0</ele><time>2026-04-19T08:04:09.377Z</time></trkpt><trkpt lat="39.4553427" lon="-2.9830846"><ele>673.5</ele><time>2026-04-19T08:04:10.375Z</time></trkpt><trkpt lat="39.4553664" lon="-2.9829169"><ele>673.0</ele><time>2026-04-19T08:04:11.374Z</time></trkpt><trkpt lat="39.4553897" lon="-2.9827581"><ele>673.0</ele><time>2026-04-19T08:04:12.382Z</time></trkpt><trkpt lat="39.4554279" lon="-2.9825967"><ele>673.0</ele><time>2026-04-19T08:04:13.375Z</time></trkpt><trkpt lat="39.4554861" lon="-2.9824143"><ele>673.0</ele><time>2026-04-19T08:04:14.379Z</time></trkpt><trkpt lat="39.4555536" lon="-2.9822125"><ele>674.0</ele><time>2026-04-19T08:04:15.375Z</time></trkpt><trkpt lat="39.4556317" lon="-2.9819937"><ele>675.0</ele><time>2026-04-19T08:04:16.377Z</time></trkpt><trkpt lat="39.4557073" lon="-2.9817929"><ele>676.0</ele><time>2026-04-19T08:04:17.381Z</time></trkpt><trkpt lat="39.4557952" lon="-2.9815912"><ele>676.0</ele><time>2026-04-19T08:04:18.379Z</time></trkpt><trkpt lat="39.4558998" lon="-2.981376"><ele>676.0</ele><time>2026-04-19T08:04:19.384Z</time></trkpt><trkpt lat="39.4560178" lon="-2.9811188"><ele>676.0</ele><time>2026-04-19T08:04:20.387Z</time></trkpt><trkpt lat="39.4561297" lon="-2.9808256"><ele>676.5</ele><time>2026-04-19T08:04:21.375Z</time></trkpt><trkpt lat="39.4562319" lon="-2.9805395"><ele>677.0</ele><time>2026-04-19T08:04:22.377Z</time></trkpt><trkpt lat="39.4563248" lon="-2.980264"><ele>677.0</ele><time>2026-04-19T08:04:23.378Z</time></trkpt><trkpt lat="39.4564122" lon="-2.9800033"><ele>677.0</ele><time>2026-04-19T08:04:24.38Z</time></trkpt><trkpt lat="39.4564899" lon="-2.9797566"><ele>677.0</ele><time>2026-04-19T08:04:25.383Z</time></trkpt><trkpt lat="39.4565628" lon="-2.9795178"><ele>677.0</ele><time>2026-04-19T08:04:26.378Z</time></trkpt><trkpt lat="39.4566346" lon="-2.9792964"><ele>677.0</ele><time>2026-04-19T08:04:27.379Z</time></trkpt><trkpt lat="39.4567116" lon="-2.9790739"><ele>677.0</ele><time>2026-04-19T08:04:28.383Z</time></trkpt><trkpt lat="39.4568007" lon="-2.9788389"><ele>677.3333333333333</ele><time>2026-04-19T08:04:29.374Z</time></trkpt><trkpt lat="39.4568948" lon="-2.9786132"><ele>677.6666666666666</ele><time>2026-04-19T08:04:30.383Z</time></trkpt><trkpt lat="39.4569939" lon="-2.9783862"><ele>678.0</ele><time>2026-04-19T08:04:31.387Z</time></trkpt><trkpt lat="39.4570945" lon="-2.9781578"><ele>677.6666666666666</ele><time>2026-04-19T08:04:32.382Z</time></trkpt><trkpt lat="39.4571887" lon="-2.9779102"><ele>677.3333333333333</ele><time>2026-04-19T08:04:33.384Z</time></trkpt><trkpt lat="39.4572785" lon="-2.9776696"><ele>677.0</ele><time>2026-04-19T08:04:34.379Z</time></trkpt><trkpt lat="39.4573517" lon="-2.977442"><ele>677.0</ele><time>2026-04-19T08:04:35.374Z</time></trkpt><trkpt lat="39.4574262" lon="-2.9772243"><ele>677.0</ele><time>2026-04-19T08:04:36.379Z</time></trkpt><trkpt lat="39.457508" lon="-2.9770065"><ele>677.0</ele><time>2026-04-19T08:04:37.374Z</time></trkpt><trkpt lat="39.457584" lon="-2.9767953"><ele>676.3333333333333</ele><time>2026-04-19T08:04:38.371Z</time></trkpt><trkpt lat="39.4576583" lon="-2.9765844"><ele>675.6666666666666</ele><time>2026-04-19T08:04:39.376Z</time></trkpt><trkpt lat="39.4577138" lon="-2.9763948"><ele>675.0</ele><time>2026-04-19T08:04:40.379Z</time></trkpt><trkpt lat="39.4577559" lon="-2.976229"><ele>675.0</ele><time>2026-04-19T08:04:41.382Z</time></trkpt><trkpt lat="39.457785" lon="-2.9760869"><ele>675.0</ele><time>2026-04-19T08:04:42.38Z</time></trkpt><trkpt lat="39.457802" lon="-2.9759696"><ele>675.0</ele><time>2026-04-19T08:04:43.378Z</time></trkpt><trkpt lat="39.45782" lon="-2.9758712"><ele>675.0</ele><time>2026-04-19T08:04:44.378Z</time></trkpt><trkpt lat="39.4578462" lon="-2.9757809"><ele>675.0</ele><time>2026-04-19T08:04:45.386Z</time></trkpt><trkpt lat="39.4578894" lon="-2.9756883"><ele>675.0</ele><time>2026-04-19T08:04:46.375Z</time></trkpt><trkpt lat="39.4579442" lon="-2.9755896"><ele>675.5</ele><time>2026-04-19T08:04:47.382Z</time></trkpt><trkpt lat="39.458027" lon="-2.9754845"><ele>676.0</ele><time>2026-04-19T08:04:48.374Z</time></trkpt><trkpt lat="39.4581327" lon="-2.9753599"><ele>676.5</ele><time>2026-04-19T08:04:49.38Z</time></trkpt><trkpt lat="39.458255" lon="-2.9752184"><ele>677.0</ele><time>2026-04-19T08:04:50.375Z</time></trkpt><trkpt lat="39.4583846" lon="-2.9750611"><ele>676.0</ele><time>2026-04-19T08:04:51.379Z</time></trkpt><trkpt lat="39.4584914" lon="-2.9749114"><ele>675.0</ele><time>2026-04-19T08:04:52.378Z</time></trkpt><trkpt lat="39.4585787" lon="-2.9747662"><ele>674.0</ele><time>2026-04-19T08:04:53.369Z</time></trkpt><trkpt lat="39.4586524" lon="-2.9746213"><ele>673.0</ele><time>2026-04-19T08:04:54.376Z</time></trkpt><trkpt lat="39.4587138" lon="-2.9744537"><ele>673.0</ele><time>2026-04-19T08:04:55.372Z</time></trkpt><trkpt lat="39.4587586" lon="-2.9742722"><ele>673.0</ele><time>2026-04-19T08:04:56.38Z</time></trkpt><trkpt lat="39.4587817" lon="-2.9741062"><ele>673.0</ele><time>2026-04-19T08:04:57.377Z</time></trkpt><trkpt lat="39.4588" lon="-2.9739556"><ele>673.0</ele><time>2026-04-19T08:04:58.378Z</time></trkpt><trkpt lat="39.4588246" lon="-2.9738195"><ele>673.25</ele><time>2026-04-19T08:04:59.38Z</time></trkpt><trkpt lat="39.458856" lon="-2.9736962"><ele>673.5</ele><time>2026-04-19T08:05:00.376Z</time></trkpt><trkpt lat="39.4589022" lon="-2.9735681"><ele>673.75</ele><time>2026-04-19T08:05:01.375Z</time></trkpt><trkpt lat="39.4589684" lon="-2.9734235"><ele>674.0</ele><time>2026-04-19T08:05:02.378Z</time></trkpt><trkpt lat="39.4590492" lon="-2.9732579"><ele>674.0</ele><time>2026-04-19T08:05:03.379Z</time></trkpt><trkpt lat="39.4591232" lon="-2.9730608"><ele>674.0</ele><time>2026-04-19T08:05:04.375Z</time></trkpt><trkpt lat="39.4591928" lon="-2.9728603"><ele>674.0</ele><time>2026-04-19T08:05:05.373Z</time></trkpt><trkpt lat="39.4592457" lon="-2.9726387"><ele>673.75</ele><time>2026-04-19T08:05:06.378Z</time></trkpt><trkpt lat="39.4592868" lon="-2.9724428"><ele>673.5</ele><time>2026-04-19T08:05:07.379Z</time></trkpt><trkpt lat="39.4593277" lon="-2.9722725"><ele>673.25</ele><time>2026-04-19T08:05:08.378Z</time></trkpt><trkpt lat="39.4593587" lon="-2.9721199"><ele>673.0</ele><time>2026-04-19T08:05:09.376Z</time></trkpt><trkpt lat="39.4593967" lon="-2.9719876"><ele>673.0</ele><time>2026-04-19T08:05:10.378Z</time></trkpt><trkpt lat="39.4594321" lon="-2.9718703"><ele>673.0</ele><time>2026-04-19T08:05:11.381Z</time></trkpt><trkpt lat="39.4594647" lon="-2.971766"><ele>673.0</ele><time>2026-04-19T08:05:12.381Z</time></trkpt><trkpt lat="39.4594968" lon="-2.9716658"><ele>673.0</ele><time>2026-04-19T08:05:13.377Z</time></trkpt><trkpt lat="39.459528" lon="-2.9715679"><ele>673.0</ele><time>2026-04-19T08:05:14.378Z</time></trkpt><trkpt lat="39.4595569" lon="-2.971474"><ele>673.0</ele><time>2026-04-19T08:05:15.379Z</time></trkpt><trkpt lat="39.4595839" lon="-2.971389"><ele>672.8333333333334</ele><time>2026-04-19T08:05:16.38Z</time></trkpt><trkpt lat="39.4596085" lon="-2.9713134"><ele>672.6666666666667</ele><time>2026-04-19T08:05:17.381Z</time></trkpt><trkpt lat="39.4596655" lon="-2.9712005"><ele>672.5</ele><time>2026-04-19T08:05:19.374Z</time></trkpt><trkpt lat="39.4597266" lon="-2.9711283"><ele>672.3333333333334</ele><time>2026-04-19T08:05:21.373Z</time></trkpt><trkpt lat="39.4597825" lon="-2.9710897"><ele>672.1666666666666</ele><time>2026-04-19T08:05:23.379Z</time></trkpt><trkpt lat="39.4598605" lon="-2.9709877"><ele>672.0</ele><time>2026-04-19T08:05:29.385Z</time></trkpt><trkpt lat="39.4599212" lon="-2.9708823"><ele>672.75</ele><time>2026-04-19T08:05:31.378Z</time></trkpt><trkpt lat="39.4599872" lon="-2.970803"><ele>673.5</ele><time>2026-04-19T08:05:32.383Z</time></trkpt><trkpt lat="39.460068" lon="-2.9707142"><ele>674.25</ele><time>2026-04-19T08:05:33.376Z</time></trkpt><trkpt lat="39.4601697" lon="-2.9706183"><ele>675.0</ele><time>2026-04-19T08:05:34.377Z</time></trkpt><trkpt lat="39.4602984" lon="-2.9705106"><ele>675.0</ele><time>2026-04-19T08:05:35.373Z</time></trkpt><trkpt lat="39.460444" lon="-2.9703971"><ele>675.0</ele><time>2026-04-19T08:05:36.377Z</time></trkpt><trkpt lat="39.4605821" lon="-2.9702839"><ele>675.0</ele><time>2026-04-19T08:05:37.376Z</time></trkpt><trkpt lat="39.4607059" lon="-2.9701784"><ele>675.75</ele><time>2026-04-19T08:05:38.378Z</time></trkpt><trkpt lat="39.4608146" lon="-2.9700746"><ele>676.5</ele><time>2026-04-19T08:05:39.379Z</time></trkpt><trkpt lat="39.4609086" lon="-2.9699645"><ele>677.25</ele><time>2026-04-19T08:05:40.38Z</time></trkpt><trkpt lat="39.4609955" lon="-2.969837"><ele>678.0</ele><time>2026-04-19T08:05:41.377Z</time></trkpt><trkpt lat="39.4610701" lon="-2.969692"><ele>678.5</ele><time>2026-04-19T08:05:42.379Z</time></trkpt><trkpt lat="39.4611294" lon="-2.9695376"><ele>679.0</ele><time>2026-04-19T08:05:43.377Z</time></trkpt><trkpt lat="39.4611811" lon="-2.9693647"><ele>679.5</ele><time>2026-04-19T08:05:44.382Z</time></trkpt><trkpt lat="39.4612262" lon="-2.9691797"><ele>680.0</ele><time>2026-04-19T08:05:45.377Z</time></trkpt><trkpt lat="39.4612614" lon="-2.9689874"><ele>680.6666666666666</ele><time>2026-04-19T08:05:46.379Z</time></trkpt><trkpt lat="39.4612886" lon="-2.9687863"><ele>681.3333333333334</ele><time>2026-04-19T08:05:47.384Z</time></trkpt><trkpt lat="39.4613095" lon="-2.9685754"><ele>682.0</ele><time>2026-04-19T08:05:48.376Z</time></trkpt><trkpt lat="39.4613228" lon="-2.9683572"><ele>682.6666666666667</ele><time>2026-04-19T08:05:49.38Z</time></trkpt><trkpt lat="39.4613318" lon="-2.9681331"><ele>683.3333333333334</ele><time>2026-04-19T08:05:50.387Z</time></trkpt><trkpt lat="39.4613404" lon="-2.9679055"><ele>684.0</ele><time>2026-04-19T08:05:51.381Z</time></trkpt><trkpt lat="39.4613508" lon="-2.9676807"><ele>683.6666666666666</ele><time>2026-04-19T08:05:52.377Z</time></trkpt><trkpt lat="39.4613568" lon="-2.9674493"><ele>683.3333333333333</ele><time>2026-04-19T08:05:53.374Z</time></trkpt><trkpt lat="39.4613586" lon="-2.9671975"><ele>683.0</ele><time>2026-04-19T08:05:54.374Z</time></trkpt><trkpt lat="39.4613572" lon="-2.966964"><ele>683.0</ele><time>2026-04-19T08:05:55.379Z</time></trkpt><trkpt lat="39.4613588" lon="-2.966755"><ele>683.0</ele><time>2026-04-19T08:05:56.375Z</time></trkpt><trkpt lat="39.4613609" lon="-2.9665587"><ele>683.0</ele><time>2026-04-19T08:05:57.374Z</time></trkpt><trkpt lat="39.4613741" lon="-2.9663647"><ele>683.25</ele><time>2026-04-19T08:05:58.376Z</time></trkpt><trkpt lat="39.4614003" lon="-2.9661806"><ele>683.5</ele><time>2026-04-19T08:05:59.387Z</time></trkpt><trkpt lat="39.461438" lon="-2.966013"><ele>683.75</ele><time>2026-04-19T08:06:00.378Z</time></trkpt><trkpt lat="39.4614873" lon="-2.9658495"><ele>684.0</ele><time>2026-04-19T08:06:01.386Z</time></trkpt><trkpt lat="39.4615466" lon="-2.9657004"><ele>683.5</ele><time>2026-04-19T08:06:02.377Z</time></trkpt><trkpt lat="39.4616115" lon="-2.9655675"><ele>683.0</ele><time>2026-04-19T08:06:03.383Z</time></trkpt><trkpt lat="39.4616923" lon="-2.9654392"><ele>682.5</ele><time>2026-04-19T08:06:04.386Z</time></trkpt><trkpt lat="39.4617883" lon="-2.9653143"><ele>682.0</ele><time>2026-04-19T08:06:05.376Z</time></trkpt><trkpt lat="39.4618997" lon="-2.965192"><ele>682.0</ele><time>2026-04-19T08:06:06.394Z</time></trkpt><trkpt lat="39.4620133" lon="-2.9650582"><ele>682.0</ele><time>2026-04-19T08:06:07.381Z</time></trkpt><trkpt lat="39.4621213" lon="-2.9649089"><ele>682.0</ele><time>2026-04-19T08:06:08.376Z</time></trkpt><trkpt lat="39.462222" lon="-2.96474"><ele>681.3333333333334</ele><time>2026-04-19T08:06:09.38Z</time></trkpt><trkpt lat="39.4623233" lon="-2.9645619"><ele>680.6666666666666</ele><time>2026-04-19T08:06:10.37Z</time></trkpt><trkpt lat="39.4624285" lon="-2.9643881"><ele>680.0</ele><time>2026-04-19T08:06:11.381Z</time></trkpt><trkpt lat="39.4625347" lon="-2.9642111"><ele>680.0</ele><time>2026-04-19T08:06:12.385Z</time></trkpt><trkpt lat="39.4626388" lon="-2.9640262"><ele>680.0</ele><time>2026-04-19T08:06:13.377Z</time></trkpt><trkpt lat="39.4627481" lon="-2.9638364"><ele>680.0</ele><time>2026-04-19T08:06:14.371Z</time></trkpt><trkpt lat="39.4628687" lon="-2.96364"><ele>680.0</ele><time>2026-04-19T08:06:15.37Z</time></trkpt><trkpt lat="39.4630001" lon="-2.9634225"><ele>680.0</ele><time>2026-04-19T08:06:16.379Z</time></trkpt><trkpt lat="39.4631225" lon="-2.9632185"><ele>680.0</ele><time>2026-04-19T08:06:17.377Z</time></trkpt><trkpt lat="39.4632325" lon="-2.9630219"><ele>679.3333333333333</ele><time>2026-04-19T08:06:18.374Z</time></trkpt><trkpt lat="39.4633339" lon="-2.9628332"><ele>678.6666666666666</ele><time>2026-04-19T08:06:19.376Z</time></trkpt><trkpt lat="39.4634353" lon="-2.9626539"><ele>678.0</ele><time>2026-04-19T08:06:20.377Z</time></trkpt><trkpt lat="39.4635338" lon="-2.9624935"><ele>677.75</ele><time>2026-04-19T08:06:21.381Z</time></trkpt><trkpt lat="39.4636224" lon="-2.9623491"><ele>677.5</ele><time>2026-04-19T08:06:22.382Z</time></trkpt><trkpt lat="39.4637088" lon="-2.9622282"><ele>677.25</ele><time>2026-04-19T08:06:23.378Z</time></trkpt><trkpt lat="39.4638088" lon="-2.9621043"><ele>677.0</ele><time>2026-04-19T08:06:24.389Z</time></trkpt><trkpt lat="39.4639266" lon="-2.9619581"><ele>677.3333333333333</ele><time>2026-04-19T08:06:25.382Z</time></trkpt><trkpt lat="39.4640717" lon="-2.9618156"><ele>677.6666666666666</ele><time>2026-04-19T08:06:26.383Z</time></trkpt><trkpt lat="39.4642105" lon="-2.9616769"><ele>678.0</ele><time>2026-04-19T08:06:27.375Z</time></trkpt><trkpt lat="39.4643324" lon="-2.9615497"><ele>678.0</ele><time>2026-04-19T08:06:28.383Z</time></trkpt><trkpt lat="39.4644449" lon="-2.9614223"><ele>678.0</ele><time>2026-04-19T08:06:29.375Z</time></trkpt><trkpt lat="39.464542" lon="-2.9613086"><ele>678.0</ele><time>2026-04-19T08:06:30.381Z</time></trkpt><trkpt lat="39.4646257" lon="-2.9611964"><ele>678.0</ele><time>2026-04-19T08:06:31.381Z</time></trkpt><trkpt lat="39.4646847" lon="-2.9611025"><ele>678.0</ele><time>2026-04-19T08:06:32.377Z</time></trkpt><trkpt lat="39.4647263" lon="-2.9610257"><ele>678.0</ele><time>2026-04-19T08:06:33.378Z</time></trkpt><trkpt lat="39.4647695" lon="-2.9609039"><ele>678.0</ele><time>2026-04-19T08:06:35.372Z</time></trkpt><trkpt lat="39.4647824" lon="-2.9608219"><ele>678.0</ele><time>2026-04-19T08:06:36.374Z</time></trkpt><trkpt lat="39.4647941" lon="-2.9607228"><ele>678.0</ele><time>2026-04-19T08:06:37.376Z</time></trkpt><trkpt lat="39.4648112" lon="-2.9606314"><ele>678.0</ele><time>2026-04-19T08:06:38.373Z</time></trkpt><trkpt lat="39.4648388" lon="-2.960544"><ele>678.4</ele><time>2026-04-19T08:06:39.376Z</time></trkpt><trkpt lat="39.4648752" lon="-2.9604642"><ele>678.8</ele><time>2026-04-19T08:06:40.376Z</time></trkpt><trkpt lat="39.4649259" lon="-2.960378"><ele>679.2</ele><time>2026-04-19T08:06:41.377Z</time></trkpt><trkpt lat="39.4649987" lon="-2.9602878"><ele>679.6</ele><time>2026-04-19T08:06:42.374Z</time></trkpt><trkpt lat="39.4650973" lon="-2.960183"><ele>680.0</ele><time>2026-04-19T08:06:43.375Z</time></trkpt><trkpt lat="39.4652103" lon="-2.9600691"><ele>679.3333333333333</ele><time>2026-04-19T08:06:44.377Z</time></trkpt><trkpt lat="39.4653393" lon="-2.9599414"><ele>678.6666666666666</ele><time>2026-04-19T08:06:45.377Z</time></trkpt><trkpt lat="39.4654776" lon="-2.9598086"><ele>678.0</ele><time>2026-04-19T08:06:46.374Z</time></trkpt><trkpt lat="39.465635" lon="-2.9596501"><ele>678.0</ele><time>2026-04-19T08:06:47.379Z</time></trkpt><trkpt lat="39.465794" lon="-2.9594795"><ele>678.0</ele><time>2026-04-19T08:06:48.369Z</time></trkpt><trkpt lat="39.4659491" lon="-2.9593073"><ele>678.0</ele><time>2026-04-19T08:06:49.381Z</time></trkpt><trkpt lat="39.4661041" lon="-2.9591146"><ele>678.0</ele><time>2026-04-19T08:06:50.383Z</time></trkpt><trkpt lat="39.4662606" lon="-2.9589073"><ele>678.0</ele><time>2026-04-19T08:06:51.376Z</time></trkpt><trkpt lat="39.4663965" lon="-2.9587092"><ele>678.0</ele><time>2026-04-19T08:06:52.373Z</time></trkpt><trkpt lat="39.4665189" lon="-2.9585395"><ele>676.6666666666666</ele><time>2026-04-19T08:06:53.38Z</time></trkpt><trkpt lat="39.4666392" lon="-2.9583831"><ele>675.3333333333333</ele><time>2026-04-19T08:06:54.369Z</time></trkpt><trkpt lat="39.4667568" lon="-2.9582383"><ele>674.0</ele><time>2026-04-19T08:06:55.374Z</time></trkpt><trkpt lat="39.4668735" lon="-2.9580707"><ele>674.0</ele><time>2026-04-19T08:06:56.375Z</time></trkpt><trkpt lat="39.4669697" lon="-2.9578764"><ele>674.0</ele><time>2026-04-19T08:06:57.375Z</time></trkpt><trkpt lat="39.4670565" lon="-2.9576763"><ele>674.0</ele><time>2026-04-19T08:06:58.379Z</time></trkpt><trkpt lat="39.4671438" lon="-2.9574237"><ele>673.0</ele><time>2026-04-19T08:06:59.375Z</time></trkpt><trkpt lat="39.4672432" lon="-2.957146"><ele>672.0</ele><time>2026-04-19T08:07:00.372Z</time></trkpt><trkpt lat="39.4673434" lon="-2.9568715"><ele>672.6666666666666</ele><time>2026-04-19T08:07:01.375Z</time></trkpt><trkpt lat="39.4674385" lon="-2.9566258"><ele>673.3333333333333</ele><time>2026-04-19T08:07:02.371Z</time></trkpt><trkpt lat="39.4675154" lon="-2.9563994"><ele>674.0</ele><time>2026-04-19T08:07:03.379Z</time></trkpt><trkpt lat="39.4675788" lon="-2.9562012"><ele>674.0</ele><time>2026-04-19T08:07:04.377Z</time></trkpt><trkpt lat="39.4676489" lon="-2.9560053"><ele>674.0</ele><time>2026-04-19T08:07:05.378Z</time></trkpt><trkpt lat="39.4677377" lon="-2.9558034"><ele>674.0</ele><time>2026-04-19T08:07:06.381Z</time></trkpt><trkpt lat="39.4678461" lon="-2.955587"><ele>673.3333333333333</ele><time>2026-04-19T08:07:07.379Z</time></trkpt><trkpt lat="39.4679668" lon="-2.9553676"><ele>672.6666666666666</ele><time>2026-04-19T08:07:08.383Z</time></trkpt><trkpt lat="39.4680702" lon="-2.9551761"><ele>672.0</ele><time>2026-04-19T08:07:09.382Z</time></trkpt><trkpt lat="39.4681648" lon="-2.9549939"><ele>671.5</ele><time>2026-04-19T08:07:10.384Z</time></trkpt><trkpt lat="39.4682461" lon="-2.9548184"><ele>671.0</ele><time>2026-04-19T08:07:11.381Z</time></trkpt><trkpt lat="39.4683115" lon="-2.9546493"><ele>670.5</ele><time>2026-04-19T08:07:12.38Z</time></trkpt><trkpt lat="39.4683655" lon="-2.9544938"><ele>670.0</ele><time>2026-04-19T08:07:13.374Z</time></trkpt><trkpt lat="39.4684164" lon="-2.9543447"><ele>670.0</ele><time>2026-04-19T08:07:14.377Z</time></trkpt><trkpt lat="39.4684638" lon="-2.9542055"><ele>670.0</ele><time>2026-04-19T08:07:15.381Z</time></trkpt><trkpt lat="39.4685068" lon="-2.9540715"><ele>670.0</ele><time>2026-04-19T08:07:16.38Z</time></trkpt><trkpt lat="39.4685506" lon="-2.9539468"><ele>670.0</ele><time>2026-04-19T08:07:17.376Z</time></trkpt><trkpt lat="39.468593" lon="-2.9538317"><ele>670.0</ele><time>2026-04-19T08:07:18.382Z</time></trkpt><trkpt lat="39.468636" lon="-2.9537138"><ele>670.0</ele><time>2026-04-19T08:07:19.377Z</time></trkpt><trkpt lat="39.4686783" lon="-2.9535753"><ele>670.0</ele><time>2026-04-19T08:07:20.389Z</time></trkpt><trkpt lat="39.4687232" lon="-2.9534252"><ele>670.0</ele><time>2026-04-19T08:07:21.381Z</time></trkpt><trkpt lat="39.4687705" lon="-2.9532703"><ele>670.0</ele><time>2026-04-19T08:07:22.378Z</time></trkpt><trkpt lat="39.4688078" lon="-2.9531224"><ele>670.25</ele><time>2026-04-19T08:07:23.382Z</time></trkpt><trkpt lat="39.4688436" lon="-2.9529855"><ele>670.5</ele><time>2026-04-19T08:07:24.379Z</time></trkpt><trkpt lat="39.4688823" lon="-2.9528484"><ele>670.75</ele><time>2026-04-19T08:07:25.384Z</time></trkpt><trkpt lat="39.4689191" lon="-2.9527104"><ele>671.0</ele><time>2026-04-19T08:07:26.37Z</time></trkpt><trkpt lat="39.4689564" lon="-2.9525705"><ele>671.25</ele><time>2026-04-19T08:07:27.385Z</time></trkpt><trkpt lat="39.4689978" lon="-2.9524284"><ele>671.5</ele><time>2026-04-19T08:07:28.385Z</time></trkpt><trkpt lat="39.4690408" lon="-2.9522821"><ele>671.75</ele><time>2026-04-19T08:07:29.38Z</time></trkpt><trkpt lat="39.4690846" lon="-2.9521301"><ele>672.0</ele><time>2026-04-19T08:07:30.381Z</time></trkpt><trkpt lat="39.469132" lon="-2.9519734"><ele>672.0</ele><time>2026-04-19T08:07:31.38Z</time></trkpt><trkpt lat="39.4691784" lon="-2.9518175"><ele>672.0</ele><time>2026-04-19T08:07:32.379Z</time></trkpt><trkpt lat="39.4692289" lon="-2.9516551"><ele>672.0</ele><time>2026-04-19T08:07:33.386Z</time></trkpt><trkpt lat="39.4692859" lon="-2.9514813"><ele>672.0</ele><time>2026-04-19T08:07:34.377Z</time></trkpt><trkpt lat="39.4693462" lon="-2.9512925"><ele>671.6666666666666</ele><time>2026-04-19T08:07:35.379Z</time></trkpt><trkpt lat="39.4694056" lon="-2.951103"><ele>671.3333333333333</ele><time>2026-04-19T08:07:36.371Z</time></trkpt><trkpt lat="39.469469" lon="-2.9508937"><ele>671.0</ele><time>2026-04-19T08:07:37.374Z</time></trkpt><trkpt lat="39.469547" lon="-2.9506732"><ele>670.6666666666666</ele><time>2026-04-19T08:07:38.369Z</time></trkpt><trkpt lat="39.4696282" lon="-2.9504464"><ele>670.3333333333334</ele><time>2026-04-19T08:07:39.374Z</time></trkpt><trkpt lat="39.4697058" lon="-2.9502359"><ele>670.0</ele><time>2026-04-19T08:07:40.376Z</time></trkpt><trkpt lat="39.4697775" lon="-2.9500299"><ele>669.6666666666667</ele><time>2026-04-19T08:07:41.378Z</time></trkpt><trkpt lat="39.4698536" lon="-2.9498155"><ele>669.3333333333334</ele><time>2026-04-19T08:07:42.37Z</time></trkpt><trkpt lat="39.4699329" lon="-2.9495949"><ele>669.0</ele><time>2026-04-19T08:07:43.381Z</time></trkpt><trkpt lat="39.4700017" lon="-2.9493836"><ele>669.25</ele><time>2026-04-19T08:07:44.371Z</time></trkpt><trkpt lat="39.4700596" lon="-2.9491941"><ele>669.5</ele><time>2026-04-19T08:07:45.369Z</time></trkpt><trkpt lat="39.470109" lon="-2.9490242"><ele>669.75</ele><time>2026-04-19T08:07:46.374Z</time></trkpt><trkpt lat="39.4701569" lon="-2.9488609"><ele>670.0</ele><time>2026-04-19T08:07:47.378Z</time></trkpt><trkpt lat="39.4702131" lon="-2.9486886"><ele>670.0</ele><time>2026-04-19T08:07:48.372Z</time></trkpt><trkpt lat="39.4702696" lon="-2.9484978"><ele>670.0</ele><time>2026-04-19T08:07:49.376Z</time></trkpt><trkpt lat="39.4703217" lon="-2.9483039"><ele>670.0</ele><time>2026-04-19T08:07:50.377Z</time></trkpt><trkpt lat="39.4703682" lon="-2.948122"><ele>670.0</ele><time>2026-04-19T08:07:51.371Z</time></trkpt><trkpt lat="39.4704147" lon="-2.9479444"><ele>670.0</ele><time>2026-04-19T08:07:52.373Z</time></trkpt><trkpt lat="39.4704619" lon="-2.9477574"><ele>670.0</ele><time>2026-04-19T08:07:53.374Z</time></trkpt><trkpt lat="39.4705094" lon="-2.9475629"><ele>670.0</ele><time>2026-04-19T08:07:54.379Z</time></trkpt><trkpt lat="39.4705604" lon="-2.9473605"><ele>670.0</ele><time>2026-04-19T08:07:55.377Z</time></trkpt><trkpt lat="39.4706136" lon="-2.9471596"><ele>670.0</ele><time>2026-04-19T08:07:56.377Z</time></trkpt><trkpt lat="39.4706683" lon="-2.94696"><ele>670.0</ele><time>2026-04-19T08:07:57.381Z</time></trkpt><trkpt lat="39.4707246" lon="-2.94676"><ele>670.0</ele><time>2026-04-19T08:07:58.372Z</time></trkpt><trkpt lat="39.4707815" lon="-2.9465572"><ele>670.0</ele><time>2026-04-19T08:07:59.376Z</time></trkpt><trkpt lat="39.4708368" lon="-2.9463535"><ele>670.0</ele><time>2026-04-19T08:08:00.376Z</time></trkpt><trkpt lat="39.4708928" lon="-2.9461512"><ele>670.0</ele><time>2026-04-19T08:08:01.379Z</time></trkpt><trkpt lat="39.4709485" lon="-2.9459511"><ele>670.0</ele><time>2026-04-19T08:08:02.379Z</time></trkpt><trkpt lat="39.471002" lon="-2.9457541"><ele>670.0</ele><time>2026-04-19T08:08:03.384Z</time></trkpt><trkpt lat="39.4710501" lon="-2.945558"><ele>670.0</ele><time>2026-04-19T08:08:04.372Z</time></trkpt><trkpt lat="39.4710875" lon="-2.9453636"><ele>670.0</ele><time>2026-04-19T08:08:05.372Z</time></trkpt><trkpt lat="39.4711209" lon="-2.9451683"><ele>670.3333333333334</ele><time>2026-04-19T08:08:06.376Z</time></trkpt><trkpt lat="39.4711647" lon="-2.944967"><ele>670.6666666666666</ele><time>2026-04-19T08:08:07.384Z</time></trkpt><trkpt lat="39.4712199" lon="-2.9447586"><ele>671.0</ele><time>2026-04-19T08:08:08.375Z</time></trkpt><trkpt lat="39.4712763" lon="-2.9445457"><ele>671.6666666666666</ele><time>2026-04-19T08:08:09.38Z</time></trkpt><trkpt lat="39.4713264" lon="-2.9443341"><ele>672.3333333333334</ele><time>2026-04-19T08:08:10.376Z</time></trkpt><trkpt lat="39.4713748" lon="-2.9441247"><ele>673.0</ele><time>2026-04-19T08:08:11.37Z</time></trkpt><trkpt lat="39.4714284" lon="-2.9439165"><ele>673.3333333333334</ele><time>2026-04-19T08:08:12.377Z</time></trkpt><trkpt lat="39.4714888" lon="-2.9437103"><ele>673.6666666666666</ele><time>2026-04-19T08:08:13.379Z</time></trkpt><trkpt lat="39.4715465" lon="-2.9435154"><ele>674.0</ele><time>2026-04-19T08:08:14.383Z</time></trkpt><trkpt lat="39.4715961" lon="-2.9433388"><ele>673.5</ele><time>2026-04-19T08:08:15.374Z</time></trkpt><trkpt lat="39.4716438" lon="-2.9431814"><ele>673.0</ele><time>2026-04-19T08:08:16.376Z</time></trkpt><trkpt lat="39.4716946" lon="-2.9430388"><ele>672.5</ele><time>2026-04-19T08:08:17.375Z</time></trkpt><trkpt lat="39.4717455" lon="-2.9429076"><ele>672.0</ele><time>2026-04-19T08:08:18.385Z</time></trkpt><trkpt lat="39.4717959" lon="-2.9427873"><ele>672.0</ele><time>2026-04-19T08:08:19.379Z</time></trkpt><trkpt lat="39.4718433" lon="-2.9426773"><ele>672.0</ele><time>2026-04-19T08:08:20.383Z</time></trkpt><trkpt lat="39.4718822" lon="-2.9425761"><ele>672.0</ele><time>2026-04-19T08:08:21.377Z</time></trkpt><trkpt lat="39.4719116" lon="-2.9424867"><ele>672.0</ele><time>2026-04-19T08:08:22.373Z</time></trkpt><trkpt lat="39.4719389" lon="-2.9423972"><ele>672.0</ele><time>2026-04-19T08:08:23.375Z</time></trkpt><trkpt lat="39.471971" lon="-2.9422875"><ele>672.0</ele><time>2026-04-19T08:08:24.375Z</time></trkpt><trkpt lat="39.4720156" lon="-2.9421622"><ele>672.25</ele><time>2026-04-19T08:08:25.376Z</time></trkpt><trkpt lat="39.4720817" lon="-2.9420201"><ele>672.5</ele><time>2026-04-19T08:08:26.38Z</time></trkpt><trkpt lat="39.4721542" lon="-2.941853"><ele>672.75</ele><time>2026-04-19T08:08:27.372Z</time></trkpt><trkpt lat="39.4722358" lon="-2.9416658"><ele>673.0</ele><time>2026-04-19T08:08:28.373Z</time></trkpt><trkpt lat="39.472333" lon="-2.941454"><ele>673.0</ele><time>2026-04-19T08:08:29.377Z</time></trkpt><trkpt lat="39.472441" lon="-2.9412406"><ele>673.0</ele><time>2026-04-19T08:08:30.379Z</time></trkpt><trkpt lat="39.4725713" lon="-2.941017"><ele>673.0</ele><time>2026-04-19T08:08:31.371Z</time></trkpt><trkpt lat="39.4727201" lon="-2.9407864"><ele>673.0</ele><time>2026-04-19T08:08:32.379Z</time></trkpt><trkpt lat="39.4728648" lon="-2.9405699"><ele>673.0</ele><time>2026-04-19T08:08:33.379Z</time></trkpt><trkpt lat="39.4729979" lon="-2.9403677"><ele>673.0</ele><time>2026-04-19T08:08:34.373Z</time></trkpt><trkpt lat="39.4731241" lon="-2.9401776"><ele>673.3333333333334</ele><time>2026-04-19T08:08:35.374Z</time></trkpt><trkpt lat="39.4732658" lon="-2.9399863"><ele>673.6666666666666</ele><time>2026-04-19T08:08:36.382Z</time></trkpt><trkpt lat="39.473424" lon="-2.939797"><ele>674.0</ele><time>2026-04-19T08:08:37.375Z</time></trkpt><trkpt lat="39.4736068" lon="-2.9395862"><ele>673.5</ele><time>2026-04-19T08:08:38.368Z</time></trkpt><trkpt lat="39.4737861" lon="-2.9393736"><ele>673.0</ele><time>2026-04-19T08:08:39.371Z</time></trkpt><trkpt lat="39.4739498" lon="-2.9391664"><ele>674.5</ele><time>2026-04-19T08:08:40.376Z</time></trkpt><trkpt lat="39.4741104" lon="-2.9389525"><ele>676.0</ele><time>2026-04-19T08:08:41.373Z</time></trkpt><trkpt lat="39.4742781" lon="-2.9387428"><ele>676.0</ele><time>2026-04-19T08:08:42.38Z</time></trkpt><trkpt lat="39.4744391" lon="-2.9385574"><ele>676.0</ele><time>2026-04-19T08:08:43.371Z</time></trkpt><trkpt lat="39.4745897" lon="-2.9383955"><ele>676.0</ele><time>2026-04-19T08:08:44.374Z</time></trkpt><trkpt lat="39.4747583" lon="-2.9382254"><ele>675.0</ele><time>2026-04-19T08:08:45.38Z</time></trkpt><trkpt lat="39.474942" lon="-2.9380261"><ele>674.0</ele><time>2026-04-19T08:08:46.371Z</time></trkpt><trkpt lat="39.4751376" lon="-2.9378123"><ele>674.0</ele><time>2026-04-19T08:08:47.371Z</time></trkpt><trkpt lat="39.4753266" lon="-2.9376041"><ele>674.0</ele><time>2026-04-19T08:08:48.372Z</time></trkpt><trkpt lat="39.4755067" lon="-2.9374023"><ele>675.0</ele><time>2026-04-19T08:08:49.377Z</time></trkpt><trkpt lat="39.4756935" lon="-2.937202"><ele>676.0</ele><time>2026-04-19T08:08:50.381Z</time></trkpt><trkpt lat="39.4758693" lon="-2.9370149"><ele>676.0</ele><time>2026-04-19T08:08:51.375Z</time></trkpt><trkpt lat="39.4760318" lon="-2.9368395"><ele>676.0</ele><time>2026-04-19T08:08:52.379Z</time></trkpt><trkpt lat="39.4761905" lon="-2.9366669"><ele>676.0</ele><time>2026-04-19T08:08:53.371Z</time></trkpt><trkpt lat="39.4763604" lon="-2.9364836"><ele>676.5</ele><time>2026-04-19T08:08:54.376Z</time></trkpt><trkpt lat="39.4765392" lon="-2.9362912"><ele>677.0</ele><time>2026-04-19T08:08:55.372Z</time></trkpt><trkpt lat="39.4767051" lon="-2.9361093"><ele>677.0</ele><time>2026-04-19T08:08:56.371Z</time></trkpt><trkpt lat="39.4768555" lon="-2.9359463"><ele>677.0</ele><time>2026-04-19T08:08:57.38Z</time></trkpt><trkpt lat="39.4769897" lon="-2.9357988"><ele>677.0</ele><time>2026-04-19T08:08:58.375Z</time></trkpt><trkpt lat="39.4771114" lon="-2.9356646"><ele>678.0</ele><time>2026-04-19T08:08:59.375Z</time></trkpt><trkpt lat="39.4772291" lon="-2.9355419"><ele>679.0</ele><time>2026-04-19T08:09:00.383Z</time></trkpt><trkpt lat="39.4773462" lon="-2.9354287"><ele>680.0</ele><time>2026-04-19T08:09:01.38Z</time></trkpt><trkpt lat="39.4774592" lon="-2.9353316"><ele>681.0</ele><time>2026-04-19T08:09:02.375Z</time></trkpt><trkpt lat="39.4775681" lon="-2.9352483"><ele>681.0</ele><time>2026-04-19T08:09:03.377Z</time></trkpt><trkpt lat="39.4776777" lon="-2.9351674"><ele>681.0</ele><time>2026-04-19T08:09:04.377Z</time></trkpt><trkpt lat="39.4777828" lon="-2.9350886"><ele>681.0</ele><time>2026-04-19T08:09:05.369Z</time></trkpt><trkpt lat="39.4778657" lon="-2.9350097"><ele>681.0</ele><time>2026-04-19T08:09:06.379Z</time></trkpt><trkpt lat="39.4779344" lon="-2.9349404"><ele>681.0</ele><time>2026-04-19T08:09:07.377Z</time></trkpt><trkpt lat="39.4780002" lon="-2.9348532"><ele>681.8</ele><time>2026-04-19T08:09:08.377Z</time></trkpt><trkpt lat="39.4780681" lon="-2.9347524"><ele>682.5999999999999</ele><time>2026-04-19T08:09:09.374Z</time></trkpt><trkpt lat="39.4781228" lon="-2.9346279"><ele>683.4</ele><time>2026-04-19T08:09:10.378Z</time></trkpt><trkpt lat="39.4781781" lon="-2.9344901"><ele>684.2</ele><time>2026-04-19T08:09:11.383Z</time></trkpt><trkpt lat="39.478228" lon="-2.9343551"><ele>685.0</ele><time>2026-04-19T08:09:12.389Z</time></trkpt><trkpt lat="39.4782749" lon="-2.9342271"><ele>685.2</ele><time>2026-04-19T08:09:13.378Z</time></trkpt><trkpt lat="39.4783195" lon="-2.9340923"><ele>685.4</ele><time>2026-04-19T08:09:14.377Z</time></trkpt><trkpt lat="39.4783616" lon="-2.9339636"><ele>685.5999999999999</ele><time>2026-04-19T08:09:15.38Z</time></trkpt><trkpt lat="39.4784094" lon="-2.9338354"><ele>685.8</ele><time>2026-04-19T08:09:16.369Z</time></trkpt><trkpt lat="39.4784635" lon="-2.9337055"><ele>686.0</ele><time>2026-04-19T08:09:17.379Z</time></trkpt><trkpt lat="39.4785181" lon="-2.9335786"><ele>686.0</ele><time>2026-04-19T08:09:18.382Z</time></trkpt><trkpt lat="39.4785672" lon="-2.9334519"><ele>686.0</ele><time>2026-04-19T08:09:19.377Z</time></trkpt><trkpt lat="39.4786151" lon="-2.9333329"><ele>686.0</ele><time>2026-04-19T08:09:20.374Z</time></trkpt><trkpt lat="39.4786561" lon="-2.9332208"><ele>686.0</ele><time>2026-04-19T08:09:21.383Z</time></trkpt><trkpt lat="39.4786916" lon="-2.9331068"><ele>686.0</ele><time>2026-04-19T08:09:22.378Z</time></trkpt><trkpt lat="39.4787236" lon="-2.9329862"><ele>686.4</ele><time>2026-04-19T08:09:23.378Z</time></trkpt><trkpt lat="39.4787548" lon="-2.9328627"><ele>686.8</ele><time>2026-04-19T08:09:24.379Z</time></trkpt><trkpt lat="39.4787833" lon="-2.9327371"><ele>687.1999999999999</ele><time>2026-04-19T08:09:25.381Z</time></trkpt><trkpt lat="39.478815" lon="-2.9326004"><ele>687.5999999999999</ele><time>2026-04-19T08:09:26.381Z</time></trkpt><trkpt lat="39.4788508" lon="-2.932448"><ele>688.0</ele><time>2026-04-19T08:09:27.381Z</time></trkpt><trkpt lat="39.4788887" lon="-2.9322805"><ele>689.0</ele><time>2026-04-19T08:09:28.382Z</time></trkpt><trkpt lat="39.4789226" lon="-2.9321108"><ele>690.0</ele><time>2026-04-19T08:09:29.378Z</time></trkpt><trkpt lat="39.4789491" lon="-2.9319412"><ele>691.0</ele><time>2026-04-19T08:09:30.375Z</time></trkpt><trkpt lat="39.4789687" lon="-2.9317715"><ele>692.0</ele><time>2026-04-19T08:09:31.374Z</time></trkpt><trkpt lat="39.4789852" lon="-2.9316085"><ele>692.0</ele><time>2026-04-19T08:09:32.38Z</time></trkpt><trkpt lat="39.4790097" lon="-2.9314445"><ele>692.0</ele><time>2026-04-19T08:09:33.385Z</time></trkpt><trkpt lat="39.4790457" lon="-2.931278"><ele>692.0</ele><time>2026-04-19T08:09:34.373Z</time></trkpt><trkpt lat="39.4790892" lon="-2.9311083"><ele>692.0</ele><time>2026-04-19T08:09:35.386Z</time></trkpt><trkpt lat="39.4791341" lon="-2.9309377"><ele>691.75</ele><time>2026-04-19T08:09:36.381Z</time></trkpt><trkpt lat="39.4791831" lon="-2.9307652"><ele>691.5</ele><time>2026-04-19T08:09:37.37Z</time></trkpt><trkpt lat="39.4792369" lon="-2.9305906"><ele>691.25</ele><time>2026-04-19T08:09:38.379Z</time></trkpt><trkpt lat="39.4792985" lon="-2.930414"><ele>691.0</ele><time>2026-04-19T08:09:39.378Z</time></trkpt><trkpt lat="39.4793683" lon="-2.9302401"><ele>691.0</ele><time>2026-04-19T08:09:40.378Z</time></trkpt><trkpt lat="39.479443" lon="-2.9300685"><ele>691.0</ele><time>2026-04-19T08:09:41.377Z</time></trkpt><trkpt lat="39.4795159" lon="-2.9298972"><ele>691.0</ele><time>2026-04-19T08:09:42.38Z</time></trkpt><trkpt lat="39.4795841" lon="-2.9297225"><ele>691.3333333333334</ele><time>2026-04-19T08:09:43.37Z</time></trkpt><trkpt lat="39.4796534" lon="-2.9295462"><ele>691.6666666666666</ele><time>2026-04-19T08:09:44.373Z</time></trkpt><trkpt lat="39.4797205" lon="-2.9293625"><ele>692.0</ele><time>2026-04-19T08:09:45.377Z</time></trkpt><trkpt lat="39.4797838" lon="-2.9291716"><ele>692.0</ele><time>2026-04-19T08:09:46.372Z</time></trkpt><trkpt lat="39.4798452" lon="-2.9289756"><ele>692.0</ele><time>2026-04-19T08:09:47.372Z</time></trkpt><trkpt lat="39.4799061" lon="-2.9287625"><ele>692.0</ele><time>2026-04-19T08:09:48.376Z</time></trkpt><trkpt lat="39.4799608" lon="-2.9285485"><ele>691.0</ele><time>2026-04-19T08:09:49.374Z</time></trkpt><trkpt lat="39.4800073" lon="-2.9283429"><ele>690.0</ele><time>2026-04-19T08:09:50.378Z</time></trkpt><trkpt lat="39.4800476" lon="-2.9281466"><ele>689.0</ele><time>2026-04-19T08:09:51.378Z</time></trkpt><trkpt lat="39.4800783" lon="-2.9279518"><ele>689.0</ele><time>2026-04-19T08:09:52.378Z</time></trkpt><trkpt lat="39.4800928" lon="-2.9277587"><ele>689.0</ele><time>2026-04-19T08:09:53.378Z</time></trkpt><trkpt lat="39.4800965" lon="-2.9275493"><ele>689.0</ele><time>2026-04-19T08:09:54.372Z</time></trkpt><trkpt lat="39.4800924" lon="-2.9273175"><ele>689.3333333333333</ele><time>2026-04-19T08:09:55.374Z</time></trkpt><trkpt lat="39.4800882" lon="-2.9270846"><ele>689.6666666666666</ele><time>2026-04-19T08:09:56.384Z</time></trkpt><trkpt lat="39.4800856" lon="-2.9268633"><ele>690.0</ele><time>2026-04-19T08:09:57.373Z</time></trkpt><trkpt lat="39.4800818" lon="-2.9266534"><ele>689.3333333333334</ele><time>2026-04-19T08:09:58.37Z</time></trkpt><trkpt lat="39.4800821" lon="-2.9264517"><ele>688.6666666666667</ele><time>2026-04-19T08:09:59.376Z</time></trkpt><trkpt lat="39.480094" lon="-2.9262421"><ele>688.0</ele><time>2026-04-19T08:10:00.383Z</time></trkpt><trkpt lat="39.4801175" lon="-2.9260266"><ele>688.3333333333334</ele><time>2026-04-19T08:10:01.378Z</time></trkpt><trkpt lat="39.4801402" lon="-2.9258199"><ele>688.6666666666666</ele><time>2026-04-19T08:10:02.378Z</time></trkpt><trkpt lat="39.480157" lon="-2.9256166"><ele>689.0</ele><time>2026-04-19T08:10:03.377Z</time></trkpt><trkpt lat="39.4801695" lon="-2.9254224"><ele>689.0</ele><time>2026-04-19T08:10:04.378Z</time></trkpt><trkpt lat="39.4801699" lon="-2.9252369"><ele>689.0</ele><time>2026-04-19T08:10:05.374Z</time></trkpt><trkpt lat="39.4801547" lon="-2.9250652"><ele>689.0</ele><time>2026-04-19T08:10:06.378Z</time></trkpt><trkpt lat="39.4801286" lon="-2.9249194"><ele>689.0</ele><time>2026-04-19T08:10:07.378Z</time></trkpt><trkpt lat="39.4801019" lon="-2.9248036"><ele>688.8000000000001</ele><time>2026-04-19T08:10:08.378Z</time></trkpt><trkpt lat="39.4800861" lon="-2.9246995"><ele>688.6</ele><time>2026-04-19T08:10:09.39Z</time></trkpt><trkpt lat="39.4800896" lon="-2.9245957"><ele>688.4</ele><time>2026-04-19T08:10:10.373Z</time></trkpt><trkpt lat="39.4801189" lon="-2.9244832"><ele>688.2</ele><time>2026-04-19T08:10:11.377Z</time></trkpt><trkpt lat="39.4801767" lon="-2.92436"><ele>688.0</ele><time>2026-04-19T08:10:12.375Z</time></trkpt><trkpt lat="39.4802583" lon="-2.9242183"><ele>687.3333333333334</ele><time>2026-04-19T08:10:13.387Z</time></trkpt><trkpt lat="39.4803537" lon="-2.9240696"><ele>686.6666666666666</ele><time>2026-04-19T08:10:14.38Z</time></trkpt><trkpt lat="39.4804615" lon="-2.9239123"><ele>686.0</ele><time>2026-04-19T08:10:15.373Z</time></trkpt><trkpt lat="39.4805836" lon="-2.9237499"><ele>686.0</ele><time>2026-04-19T08:10:16.38Z</time></trkpt><trkpt lat="39.4806924" lon="-2.9235928"><ele>686.0</ele><time>2026-04-19T08:10:17.383Z</time></trkpt><trkpt lat="39.4807879" lon="-2.9234336"><ele>686.0</ele><time>2026-04-19T08:10:18.383Z</time></trkpt><trkpt lat="39.480877" lon="-2.9232604"><ele>685.3333333333333</ele><time>2026-04-19T08:10:19.374Z</time></trkpt><trkpt lat="39.4809527" lon="-2.92308"><ele>684.6666666666666</ele><time>2026-04-19T08:10:20.375Z</time></trkpt><trkpt lat="39.481022" lon="-2.922898"><ele>684.0</ele><time>2026-04-19T08:10:21.376Z</time></trkpt><trkpt lat="39.4811016" lon="-2.9227185"><ele>683.3333333333334</ele><time>2026-04-19T08:10:22.381Z</time></trkpt><trkpt lat="39.4811976" lon="-2.9225332"><ele>682.6666666666667</ele><time>2026-04-19T08:10:23.38Z</time></trkpt><trkpt lat="39.4813027" lon="-2.922351"><ele>682.0</ele><time>2026-04-19T08:10:24.378Z</time></trkpt><trkpt lat="39.4814204" lon="-2.9221604"><ele>682.0</ele><time>2026-04-19T08:10:25.372Z</time></trkpt><trkpt lat="39.4815375" lon="-2.9219614"><ele>682.0</ele><time>2026-04-19T08:10:26.374Z</time></trkpt><trkpt lat="39.4816536" lon="-2.9217572"><ele>682.0</ele><time>2026-04-19T08:10:27.382Z</time></trkpt><trkpt lat="39.4817742" lon="-2.9215431"><ele>682.0</ele><time>2026-04-19T08:10:28.375Z</time></trkpt><trkpt lat="39.481892" lon="-2.9213332"><ele>682.0</ele><time>2026-04-19T08:10:29.377Z</time></trkpt><trkpt lat="39.48201" lon="-2.921124"><ele>682.0</ele><time>2026-04-19T08:10:30.376Z</time></trkpt><trkpt lat="39.4821346" lon="-2.9209043"><ele>681.6666666666667</ele><time>2026-04-19T08:10:31.384Z</time></trkpt><trkpt lat="39.4822636" lon="-2.9206736"><ele>681.3333333333334</ele><time>2026-04-19T08:10:32.374Z</time></trkpt><trkpt lat="39.4823905" lon="-2.9204541"><ele>681.0</ele><time>2026-04-19T08:10:33.373Z</time></trkpt><trkpt lat="39.482515" lon="-2.9202404"><ele>680.6666666666666</ele><time>2026-04-19T08:10:34.379Z</time></trkpt><trkpt lat="39.4826339" lon="-2.9200343"><ele>680.3333333333333</ele><time>2026-04-19T08:10:35.377Z</time></trkpt><trkpt lat="39.4827493" lon="-2.9198285"><ele>680.0</ele><time>2026-04-19T08:10:36.378Z</time></trkpt><trkpt lat="39.4828606" lon="-2.9196161"><ele>680.3333333333333</ele><time>2026-04-19T08:10:37.381Z</time></trkpt><trkpt lat="39.4829717" lon="-2.9194008"><ele>680.6666666666666</ele><time>2026-04-19T08:10:38.377Z</time></trkpt><trkpt lat="39.4830719" lon="-2.919191"><ele>681.0</ele><time>2026-04-19T08:10:39.372Z</time></trkpt><trkpt lat="39.4831624" lon="-2.9189823"><ele>680.6666666666666</ele><time>2026-04-19T08:10:40.375Z</time></trkpt><trkpt lat="39.4832557" lon="-2.9187685"><ele>680.3333333333333</ele><time>2026-04-19T08:10:41.383Z</time></trkpt><trkpt lat="39.4833603" lon="-2.9185528"><ele>680.0</ele><time>2026-04-19T08:10:42.375Z</time></trkpt><trkpt lat="39.4834783" lon="-2.9183353"><ele>680.0</ele><time>2026-04-19T08:10:43.377Z</time></trkpt><trkpt lat="39.4836077" lon="-2.9181171"><ele>680.0</ele><time>2026-04-19T08:10:44.378Z</time></trkpt><trkpt lat="39.48375" lon="-2.9178991"><ele>680.0</ele><time>2026-04-19T08:10:45.376Z</time></trkpt><trkpt lat="39.4838993" lon="-2.9176865"><ele>680.0</ele><time>2026-04-19T08:10:46.373Z</time></trkpt><trkpt lat="39.4840404" lon="-2.9174867"><ele>680.0</ele><time>2026-04-19T08:10:47.379Z</time></trkpt><trkpt lat="39.4841761" lon="-2.9172847"><ele>680.0</ele><time>2026-04-19T08:10:48.382Z</time></trkpt><trkpt lat="39.4843037" lon="-2.9170657"><ele>680.0</ele><time>2026-04-19T08:10:49.378Z</time></trkpt><trkpt lat="39.4844191" lon="-2.9168419"><ele>680.0</ele><time>2026-04-19T08:10:50.374Z</time></trkpt><trkpt lat="39.4845263" lon="-2.9166166"><ele>680.0</ele><time>2026-04-19T08:10:51.376Z</time></trkpt><trkpt lat="39.4846311" lon="-2.916388"><ele>680.6666666666666</ele><time>2026-04-19T08:10:52.376Z</time></trkpt><trkpt lat="39.4847328" lon="-2.9161603"><ele>681.3333333333334</ele><time>2026-04-19T08:10:53.382Z</time></trkpt><trkpt lat="39.484823" lon="-2.9159376"><ele>682.0</ele><time>2026-04-19T08:10:54.38Z</time></trkpt><trkpt lat="39.4849018" lon="-2.9157168"><ele>682.0</ele><time>2026-04-19T08:10:55.375Z</time></trkpt><trkpt lat="39.4849795" lon="-2.9154952"><ele>682.0</ele><time>2026-04-19T08:10:56.382Z</time></trkpt><trkpt lat="39.485057" lon="-2.9152793"><ele>682.0</ele><time>2026-04-19T08:10:57.374Z</time></trkpt><trkpt lat="39.4851326" lon="-2.915071"><ele>682.0</ele><time>2026-04-19T08:10:58.377Z</time></trkpt><trkpt lat="39.4852118" lon="-2.9148527"><ele>682.0</ele><time>2026-04-19T08:10:59.373Z</time></trkpt><trkpt lat="39.4852963" lon="-2.9146201"><ele>682.0</ele><time>2026-04-19T08:11:00.375Z</time></trkpt><trkpt lat="39.4853793" lon="-2.9143894"><ele>682.6666666666667</ele><time>2026-04-19T08:11:01.367Z</time></trkpt><trkpt lat="39.4854569" lon="-2.9141715"><ele>683.3333333333334</ele><time>2026-04-19T08:11:02.375Z</time></trkpt><trkpt lat="39.4855325" lon="-2.9139676"><ele>684.0</ele><time>2026-04-19T08:11:03.374Z</time></trkpt><trkpt lat="39.4856029" lon="-2.9137754"><ele>684.0</ele><time>2026-04-19T08:11:04.377Z</time></trkpt><trkpt lat="39.485661" lon="-2.913582"><ele>684.0</ele><time>2026-04-19T08:11:05.375Z</time></trkpt><trkpt lat="39.4857063" lon="-2.9133737"><ele>684.0</ele><time>2026-04-19T08:11:06.376Z</time></trkpt><trkpt lat="39.4857371" lon="-2.9131491"><ele>684.6666666666666</ele><time>2026-04-19T08:11:07.375Z</time></trkpt><trkpt lat="39.4857533" lon="-2.9129079"><ele>685.3333333333333</ele><time>2026-04-19T08:11:08.383Z</time></trkpt><trkpt lat="39.4857614" lon="-2.9126757"><ele>686.0</ele><time>2026-04-19T08:11:09.377Z</time></trkpt><trkpt lat="39.4857696" lon="-2.9124512"><ele>686.6666666666666</ele><time>2026-04-19T08:11:10.382Z</time></trkpt><trkpt lat="39.4857801" lon="-2.9122263"><ele>687.3333333333334</ele><time>2026-04-19T08:11:11.376Z</time></trkpt><trkpt lat="39.485787" lon="-2.9120047"><ele>688.0</ele><time>2026-04-19T08:11:12.371Z</time></trkpt><trkpt lat="39.4857961" lon="-2.9117781"><ele>688.3333333333334</ele><time>2026-04-19T08:11:13.376Z</time></trkpt><trkpt lat="39.4858086" lon="-2.9115381"><ele>688.6666666666666</ele><time>2026-04-19T08:11:14.383Z</time></trkpt><trkpt lat="39.4858194" lon="-2.9112836"><ele>689.0</ele><time>2026-04-19T08:11:15.377Z</time></trkpt><trkpt lat="39.4858344" lon="-2.9110156"><ele>689.6666666666666</ele><time>2026-04-19T08:11:16.374Z</time></trkpt><trkpt lat="39.4858472" lon="-2.9107395"><ele>690.3333333333334</ele><time>2026-04-19T08:11:17.375Z</time></trkpt><trkpt lat="39.4858593" lon="-2.9104718"><ele>691.0</ele><time>2026-04-19T08:11:18.378Z</time></trkpt><trkpt lat="39.4858732" lon="-2.9102115"><ele>691.3333333333334</ele><time>2026-04-19T08:11:19.378Z</time></trkpt><trkpt lat="39.4858809" lon="-2.9099706"><ele>691.6666666666666</ele><time>2026-04-19T08:11:20.378Z</time></trkpt><trkpt lat="39.4858926" lon="-2.9097368"><ele>692.0</ele><time>2026-04-19T08:11:21.38Z</time></trkpt><trkpt lat="39.4859025" lon="-2.9095077"><ele>692.0</ele><time>2026-04-19T08:11:22.387Z</time></trkpt><trkpt lat="39.4859168" lon="-2.9092848"><ele>692.0</ele><time>2026-04-19T08:11:23.379Z</time></trkpt><trkpt lat="39.4859294" lon="-2.9090669"><ele>692.0</ele><time>2026-04-19T08:11:24.383Z</time></trkpt><trkpt lat="39.4859388" lon="-2.9088513"><ele>692.6666666666666</ele><time>2026-04-19T08:11:25.373Z</time></trkpt><trkpt lat="39.4859472" lon="-2.9086355"><ele>693.3333333333334</ele><time>2026-04-19T08:11:26.382Z</time></trkpt><trkpt lat="39.4859529" lon="-2.9084224"><ele>694.0</ele><time>2026-04-19T08:11:27.379Z</time></trkpt><trkpt lat="39.4859673" lon="-2.9082132"><ele>694.6666666666667</ele><time>2026-04-19T08:11:28.371Z</time></trkpt><trkpt lat="39.4859971" lon="-2.9080126"><ele>695.3333333333334</ele><time>2026-04-19T08:11:29.379Z</time></trkpt><trkpt lat="39.4860474" lon="-2.9078228"><ele>696.0</ele><time>2026-04-19T08:11:30.378Z</time></trkpt><trkpt lat="39.4861181" lon="-2.9076438"><ele>696.3333333333334</ele><time>2026-04-19T08:11:31.377Z</time></trkpt><trkpt lat="39.4861935" lon="-2.9074638"><ele>696.6666666666667</ele><time>2026-04-19T08:11:32.381Z</time></trkpt><trkpt lat="39.4862622" lon="-2.9072756"><ele>697.0</ele><time>2026-04-19T08:11:33.373Z</time></trkpt><trkpt lat="39.4863143" lon="-2.9070811"><ele>697.75</ele><time>2026-04-19T08:11:34.376Z</time></trkpt><trkpt lat="39.4863515" lon="-2.9068877"><ele>698.5</ele><time>2026-04-19T08:11:35.379Z</time></trkpt><trkpt lat="39.4863797" lon="-2.9067052"><ele>699.25</ele><time>2026-04-19T08:11:36.381Z</time></trkpt><trkpt lat="39.4864019" lon="-2.906535"><ele>700.0</ele><time>2026-04-19T08:11:37.372Z</time></trkpt><trkpt lat="39.4864211" lon="-2.9063758"><ele>700.6</ele><time>2026-04-19T08:11:38.368Z</time></trkpt><trkpt lat="39.4864392" lon="-2.9062275"><ele>701.2</ele><time>2026-04-19T08:11:39.376Z</time></trkpt><trkpt lat="39.4864465" lon="-2.9060882"><ele>701.8</ele><time>2026-04-19T08:11:40.377Z</time></trkpt><trkpt lat="39.4864389" lon="-2.9059599"><ele>702.4</ele><time>2026-04-19T08:11:41.379Z</time></trkpt><trkpt lat="39.4864203" lon="-2.9058432"><ele>703.0</ele><time>2026-04-19T08:11:42.377Z</time></trkpt><trkpt lat="39.486396" lon="-2.9057378"><ele>703.1666666666667</ele><time>2026-04-19T08:11:43.376Z</time></trkpt><trkpt lat="39.4863791" lon="-2.9056394"><ele>703.3333333333334</ele><time>2026-04-19T08:11:44.371Z</time></trkpt><trkpt lat="39.4863797" lon="-2.9055403"><ele>703.5</ele><time>2026-04-19T08:11:45.372Z</time></trkpt><trkpt lat="39.4863977" lon="-2.905442"><ele>703.6666666666666</ele><time>2026-04-19T08:11:46.373Z</time></trkpt><trkpt lat="39.4864272" lon="-2.9053345"><ele>703.8333333333333</ele><time>2026-04-19T08:11:47.374Z</time></trkpt><trkpt lat="39.4864618" lon="-2.9052148"><ele>704.0</ele><time>2026-04-19T08:11:48.382Z</time></trkpt><trkpt lat="39.4864983" lon="-2.9050806"><ele>704.25</ele><time>2026-04-19T08:11:49.374Z</time></trkpt><trkpt lat="39.4865353" lon="-2.9049342"><ele>704.5</ele><time>2026-04-19T08:11:50.37Z</time></trkpt><trkpt lat="39.4865741" lon="-2.9047724"><ele>704.75</ele><time>2026-04-19T08:11:51.375Z</time></trkpt><trkpt lat="39.4866134" lon="-2.9046041"><ele>705.0</ele><time>2026-04-19T08:11:52.376Z</time></trkpt><trkpt lat="39.4866511" lon="-2.9044326"><ele>705.0</ele><time>2026-04-19T08:11:53.381Z</time></trkpt><trkpt lat="39.4866887" lon="-2.9042552"><ele>705.0</ele><time>2026-04-19T08:11:54.382Z</time></trkpt><trkpt lat="39.4867259" lon="-2.9040763"><ele>705.0</ele><time>2026-04-19T08:11:55.375Z</time></trkpt><trkpt lat="39.4867632" lon="-2.9038959"><ele>705.0</ele><time>2026-04-19T08:11:56.376Z</time></trkpt><trkpt lat="39.4867984" lon="-2.9037156"><ele>706.0</ele><time>2026-04-19T08:11:57.372Z</time></trkpt><trkpt lat="39.4868358" lon="-2.9035343"><ele>707.0</ele><time>2026-04-19T08:11:58.371Z</time></trkpt><trkpt lat="39.4868732" lon="-2.9033661"><ele>708.0</ele><time>2026-04-19T08:11:59.37Z</time></trkpt><trkpt lat="39.4869111" lon="-2.9032097"><ele>709.0</ele><time>2026-04-19T08:12:00.379Z</time></trkpt><trkpt lat="39.486946" lon="-2.9030676"><ele>710.0</ele><time>2026-04-19T08:12:01.37Z</time></trkpt><trkpt lat="39.4869717" lon="-2.9029299"><ele>711.0</ele><time>2026-04-19T08:12:02.377Z</time></trkpt><trkpt lat="39.4869868" lon="-2.9027822"><ele>712.0</ele><time>2026-04-19T08:12:03.374Z</time></trkpt><trkpt lat="39.4869923" lon="-2.9026192"><ele>713.0</ele><time>2026-04-19T08:12:04.379Z</time></trkpt><trkpt lat="39.4869926" lon="-2.9024399"><ele>714.0</ele><time>2026-04-19T08:12:05.378Z</time></trkpt><trkpt lat="39.4869946" lon="-2.902241"><ele>715.0</ele><time>2026-04-19T08:12:06.373Z</time></trkpt><trkpt lat="39.4869971" lon="-2.9020347"><ele>716.0</ele><time>2026-04-19T08:12:07.379Z</time></trkpt><trkpt lat="39.4869947" lon="-2.9018413"><ele>716.0</ele><time>2026-04-19T08:12:08.374Z</time></trkpt><trkpt lat="39.4869851" lon="-2.9016692"><ele>716.0</ele><time>2026-04-19T08:12:09.371Z</time></trkpt><trkpt lat="39.4869724" lon="-2.9015168"><ele>716.0</ele><time>2026-04-19T08:12:10.377Z</time></trkpt><trkpt lat="39.486963" lon="-2.9013801"><ele>716.0</ele><time>2026-04-19T08:12:11.377Z</time></trkpt><trkpt lat="39.4869648" lon="-2.901259"><ele>716.0</ele><time>2026-04-19T08:12:12.376Z</time></trkpt><trkpt lat="39.4869719" lon="-2.9011473"><ele>716.0</ele><time>2026-04-19T08:12:13.371Z</time></trkpt><trkpt lat="39.4869732" lon="-2.9010316"><ele>716.0</ele><time>2026-04-19T08:12:14.378Z</time></trkpt><trkpt lat="39.4869683" lon="-2.9008968"><ele>716.0</ele><time>2026-04-19T08:12:15.377Z</time></trkpt><trkpt lat="39.4869669" lon="-2.9007532"><ele>716.0</ele><time>2026-04-19T08:12:16.372Z</time></trkpt><trkpt lat="39.4869744" lon="-2.9005961"><ele>716.75</ele><time>2026-04-19T08:12:17.373Z</time></trkpt><trkpt lat="39.486979" lon="-2.9004257"><ele>717.5</ele><time>2026-04-19T08:12:18.374Z</time></trkpt><trkpt lat="39.4869758" lon="-2.9002517"><ele>718.25</ele><time>2026-04-19T08:12:19.375Z</time></trkpt><trkpt lat="39.4869618" lon="-2.9000905"><ele>719.0</ele><time>2026-04-19T08:12:20.375Z</time></trkpt><trkpt lat="39.4869417" lon="-2.8999306"><ele>720.0</ele><time>2026-04-19T08:12:21.373Z</time></trkpt><trkpt lat="39.4869097" lon="-2.899776"><ele>721.0</ele><time>2026-04-19T08:12:22.374Z</time></trkpt><trkpt lat="39.4868716" lon="-2.8996148"><ele>722.0</ele><time>2026-04-19T08:12:23.373Z</time></trkpt><trkpt lat="39.486841" lon="-2.8994541"><ele>723.0</ele><time>2026-04-19T08:12:24.371Z</time></trkpt><trkpt lat="39.4868252" lon="-2.8992988"><ele>723.75</ele><time>2026-04-19T08:12:25.38Z</time></trkpt><trkpt lat="39.4868245" lon="-2.8991355"><ele>724.5</ele><time>2026-04-19T08:12:26.378Z</time></trkpt><trkpt lat="39.486836" lon="-2.8989508"><ele>725.25</ele><time>2026-04-19T08:12:27.375Z</time></trkpt><trkpt lat="39.486851" lon="-2.8987596"><ele>726.0</ele><time>2026-04-19T08:12:28.375Z</time></trkpt><trkpt lat="39.4868668" lon="-2.8985905"><ele>726.0</ele><time>2026-04-19T08:12:29.382Z</time></trkpt><trkpt lat="39.4868919" lon="-2.8984396"><ele>726.0</ele><time>2026-04-19T08:12:30.371Z</time></trkpt><trkpt lat="39.486932" lon="-2.8982957"><ele>726.0</ele><time>2026-04-19T08:12:31.382Z</time></trkpt><trkpt lat="39.4869872" lon="-2.8981483"><ele>726.0</ele><time>2026-04-19T08:12:32.387Z</time></trkpt><trkpt lat="39.4870486" lon="-2.8980033"><ele>727.6666666666666</ele><time>2026-04-19T08:12:33.382Z</time></trkpt><trkpt lat="39.4871203" lon="-2.8978501"><ele>729.3333333333333</ele><time>2026-04-19T08:12:34.38Z</time></trkpt><trkpt lat="39.4872035" lon="-2.8976857"><ele>731.0</ele><time>2026-04-19T08:12:35.377Z</time></trkpt><trkpt lat="39.4872885" lon="-2.8975096"><ele>731.0</ele><time>2026-04-19T08:12:36.38Z</time></trkpt><trkpt lat="39.4873676" lon="-2.8973348"><ele>731.0</ele><time>2026-04-19T08:12:37.373Z</time></trkpt><trkpt lat="39.4874419" lon="-2.8971732"><ele>731.0</ele><time>2026-04-19T08:12:38.376Z</time></trkpt><trkpt lat="39.487512" lon="-2.8970249"><ele>731.0</ele><time>2026-04-19T08:12:39.382Z</time></trkpt><trkpt lat="39.4875768" lon="-2.8968842"><ele>731.5</ele><time>2026-04-19T08:12:40.381Z</time></trkpt><trkpt lat="39.4876364" lon="-2.8967341"><ele>732.0</ele><time>2026-04-19T08:12:41.381Z</time></trkpt><trkpt lat="39.4876843" lon="-2.8965808"><ele>732.5</ele><time>2026-04-19T08:12:42.372Z</time></trkpt><trkpt lat="39.4877163" lon="-2.8964289"><ele>733.0</ele><time>2026-04-19T08:12:43.373Z</time></trkpt><trkpt lat="39.4877308" lon="-2.8962843"><ele>733.0</ele><time>2026-04-19T08:12:44.38Z</time></trkpt><trkpt lat="39.4877333" lon="-2.8961498"><ele>733.0</ele><time>2026-04-19T08:12:45.377Z</time></trkpt><trkpt lat="39.4877297" lon="-2.8960282"><ele>733.0</ele><time>2026-04-19T08:12:46.378Z</time></trkpt><trkpt lat="39.4877345" lon="-2.8959186"><ele>733.0</ele><time>2026-04-19T08:12:47.371Z</time></trkpt><trkpt lat="39.4877518" lon="-2.8958272"><ele>733.0</ele><time>2026-04-19T08:12:48.378Z</time></trkpt><trkpt lat="39.4877758" lon="-2.8957427"><ele>733.0</ele><time>2026-04-19T08:12:49.375Z</time></trkpt><trkpt lat="39.4878114" lon="-2.8956524"><ele>732.75</ele><time>2026-04-19T08:12:50.382Z</time></trkpt><trkpt lat="39.487867" lon="-2.8955516"><ele>732.5</ele><time>2026-04-19T08:12:51.382Z</time></trkpt><trkpt lat="39.4879381" lon="-2.8954413"><ele>732.25</ele><time>2026-04-19T08:12:52.385Z</time></trkpt><trkpt lat="39.4880127" lon="-2.8953199"><ele>732.0</ele><time>2026-04-19T08:12:53.37Z</time></trkpt><trkpt lat="39.4880904" lon="-2.8951844"><ele>732.5</ele><time>2026-04-19T08:12:54.372Z</time></trkpt><trkpt lat="39.4881672" lon="-2.8950335"><ele>733.0</ele><time>2026-04-19T08:12:55.373Z</time></trkpt><trkpt lat="39.4882439" lon="-2.8948734"><ele>733.5</ele><time>2026-04-19T08:12:56.381Z</time></trkpt><trkpt lat="39.4883168" lon="-2.8947191"><ele>734.0</ele><time>2026-04-19T08:12:57.375Z</time></trkpt><trkpt lat="39.4883883" lon="-2.8945624"><ele>734.0</ele><time>2026-04-19T08:12:58.378Z</time></trkpt><trkpt lat="39.488458" lon="-2.8944095"><ele>734.0</ele><time>2026-04-19T08:12:59.378Z</time></trkpt><trkpt lat="39.4885293" lon="-2.894264"><ele>734.0</ele><time>2026-04-19T08:13:00.377Z</time></trkpt><trkpt lat="39.4885998" lon="-2.8941277"><ele>734.0</ele><time>2026-04-19T08:13:01.372Z</time></trkpt><trkpt lat="39.4886703" lon="-2.8940013"><ele>734.0</ele><time>2026-04-19T08:13:02.381Z</time></trkpt><trkpt lat="39.4887383" lon="-2.8938883"><ele>734.0</ele><time>2026-04-19T08:13:03.377Z</time></trkpt><trkpt lat="39.4888045" lon="-2.8937836"><ele>734.0</ele><time>2026-04-19T08:13:04.379Z</time></trkpt><trkpt lat="39.4888699" lon="-2.8936847"><ele>734.0</ele><time>2026-04-19T08:13:05.379Z</time></trkpt><trkpt lat="39.4889351" lon="-2.8935901"><ele>734.0</ele><time>2026-04-19T08:13:06.378Z</time></trkpt><trkpt lat="39.4889982" lon="-2.8934985"><ele>733.8000000000001</ele><time>2026-04-19T08:13:07.401Z</time></trkpt><trkpt lat="39.4890597" lon="-2.8934048"><ele>733.6</ele><time>2026-04-19T08:13:08.384Z</time></trkpt><trkpt lat="39.4891214" lon="-2.8933108"><ele>733.4</ele><time>2026-04-19T08:13:09.378Z</time></trkpt><trkpt lat="39.4891844" lon="-2.8932254"><ele>733.2</ele><time>2026-04-19T08:13:10.38Z</time></trkpt><trkpt lat="39.4892457" lon="-2.8931263"><ele>733.0</ele><time>2026-04-19T08:13:11.378Z</time></trkpt><trkpt lat="39.4893179" lon="-2.8930198"><ele>733.0</ele><time>2026-04-19T08:13:12.378Z</time></trkpt><trkpt lat="39.4893946" lon="-2.892908"><ele>733.0</ele><time>2026-04-19T08:13:13.386Z</time></trkpt><trkpt lat="39.4894699" lon="-2.8927935"><ele>733.0</ele><time>2026-04-19T08:13:14.37Z</time></trkpt><trkpt lat="39.4895527" lon="-2.8926739"><ele>733.0</ele><time>2026-04-19T08:13:15.379Z</time></trkpt><trkpt lat="39.4896516" lon="-2.8925604"><ele>732.25</ele><time>2026-04-19T08:13:16.374Z</time></trkpt><trkpt lat="39.4897519" lon="-2.8924545"><ele>731.5</ele><time>2026-04-19T08:13:17.38Z</time></trkpt><trkpt lat="39.4898633" lon="-2.8923523"><ele>730.75</ele><time>2026-04-19T08:13:18.376Z</time></trkpt><trkpt lat="39.4899764" lon="-2.8922615"><ele>730.0</ele><time>2026-04-19T08:13:19.38Z</time></trkpt><trkpt lat="39.4900946" lon="-2.8921773"><ele>730.0</ele><time>2026-04-19T08:13:20.373Z</time></trkpt><trkpt lat="39.4902218" lon="-2.8920946"><ele>730.0</ele><time>2026-04-19T08:13:21.373Z</time></trkpt><trkpt lat="39.4903535" lon="-2.8920184"><ele>730.0</ele><time>2026-04-19T08:13:22.383Z</time></trkpt><trkpt lat="39.4904784" lon="-2.8919486"><ele>730.0</ele><time>2026-04-19T08:13:23.383Z</time></trkpt><trkpt lat="39.4905979" lon="-2.891875"><ele>730.25</ele><time>2026-04-19T08:13:24.38Z</time></trkpt><trkpt lat="39.4907039" lon="-2.891791"><ele>730.5</ele><time>2026-04-19T08:13:25.377Z</time></trkpt><trkpt lat="39.4907935" lon="-2.8916948"><ele>730.75</ele><time>2026-04-19T08:13:26.383Z</time></trkpt><trkpt lat="39.4908666" lon="-2.8915901"><ele>731.0</ele><time>2026-04-19T08:13:27.377Z</time></trkpt><trkpt lat="39.4909376" lon="-2.8914791"><ele>731.0</ele><time>2026-04-19T08:13:28.376Z</time></trkpt><trkpt lat="39.4910067" lon="-2.8913546"><ele>731.0</ele><time>2026-04-19T08:13:29.378Z</time></trkpt><trkpt lat="39.4910707" lon="-2.8912122"><ele>731.0</ele><time>2026-04-19T08:13:30.375Z</time></trkpt><trkpt lat="39.4911383" lon="-2.8910578"><ele>731.0</ele><time>2026-04-19T08:13:31.378Z</time></trkpt><trkpt lat="39.4912033" lon="-2.8908947"><ele>731.0</ele><time>2026-04-19T08:13:32.384Z</time></trkpt><trkpt lat="39.4912599" lon="-2.8907306"><ele>731.0</ele><time>2026-04-19T08:13:33.373Z</time></trkpt><trkpt lat="39.4913144" lon="-2.8905621"><ele>731.0</ele><time>2026-04-19T08:13:34.375Z</time></trkpt><trkpt lat="39.4913626" lon="-2.8903995"><ele>731.0</ele><time>2026-04-19T08:13:35.375Z</time></trkpt><trkpt lat="39.4913986" lon="-2.8902338"><ele>731.25</ele><time>2026-04-19T08:13:36.383Z</time></trkpt><trkpt lat="39.491431" lon="-2.8900584"><ele>731.5</ele><time>2026-04-19T08:13:37.376Z</time></trkpt><trkpt lat="39.4914631" lon="-2.8898834"><ele>731.75</ele><time>2026-04-19T08:13:38.377Z</time></trkpt><trkpt lat="39.491491" lon="-2.8897133"><ele>732.0</ele><time>2026-04-19T08:13:39.38Z</time></trkpt><trkpt lat="39.491513" lon="-2.8895461"><ele>732.0</ele><time>2026-04-19T08:13:40.378Z</time></trkpt><trkpt lat="39.4915349" lon="-2.8893845"><ele>732.0</ele><time>2026-04-19T08:13:41.38Z</time></trkpt><trkpt lat="39.4915579" lon="-2.8892271"><ele>732.0</ele><time>2026-04-19T08:13:42.374Z</time></trkpt><trkpt lat="39.4915809" lon="-2.8890731"><ele>732.0</ele><time>2026-04-19T08:13:43.375Z</time></trkpt><trkpt lat="39.4916037" lon="-2.8889234"><ele>731.0</ele><time>2026-04-19T08:13:44.377Z</time></trkpt><trkpt lat="39.4916262" lon="-2.8887778"><ele>730.0</ele><time>2026-04-19T08:13:45.377Z</time></trkpt><trkpt lat="39.4916495" lon="-2.8886415"><ele>729.0</ele><time>2026-04-19T08:13:46.374Z</time></trkpt><trkpt lat="39.4916679" lon="-2.8885204"><ele>728.0</ele><time>2026-04-19T08:13:47.375Z</time></trkpt><trkpt lat="39.4916851" lon="-2.8884136"><ele>727.0</ele><time>2026-04-19T08:13:48.375Z</time></trkpt><trkpt lat="39.4916944" lon="-2.888317"><ele>726.4000000000001</ele><time>2026-04-19T08:13:49.378Z</time></trkpt><trkpt lat="39.4917167" lon="-2.8882124"><ele>725.8000000000001</ele><time>2026-04-19T08:13:50.374Z</time></trkpt><trkpt lat="39.4917451" lon="-2.8880884"><ele>725.2</ele><time>2026-04-19T08:13:51.373Z</time></trkpt><trkpt lat="39.4917567" lon="-2.8879575"><ele>724.6</ele><time>2026-04-19T08:13:52.376Z</time></trkpt><trkpt lat="39.4917687" lon="-2.8877893"><ele>724.0</ele><time>2026-04-19T08:13:53.381Z</time></trkpt><trkpt lat="39.4917882" lon="-2.8876309"><ele>723.25</ele><time>2026-04-19T08:13:54.377Z</time></trkpt><trkpt lat="39.4918095" lon="-2.8874805"><ele>722.5</ele><time>2026-04-19T08:13:55.369Z</time></trkpt><trkpt lat="39.4918296" lon="-2.8873326"><ele>721.75</ele><time>2026-04-19T08:13:56.373Z</time></trkpt><trkpt lat="39.4918488" lon="-2.8871881"><ele>721.0</ele><time>2026-04-19T08:13:57.382Z</time></trkpt><trkpt lat="39.491874" lon="-2.8870434"><ele>721.0</ele><time>2026-04-19T08:13:58.37Z</time></trkpt><trkpt lat="39.4919081" lon="-2.8869005"><ele>721.0</ele><time>2026-04-19T08:13:59.388Z</time></trkpt><trkpt lat="39.4919438" lon="-2.8867645"><ele>721.0</ele><time>2026-04-19T08:14:00.392Z</time></trkpt><trkpt lat="39.4919811" lon="-2.8866344"><ele>721.0</ele><time>2026-04-19T08:14:01.378Z</time></trkpt><trkpt lat="39.4920175" lon="-2.8865061"><ele>721.0</ele><time>2026-04-19T08:14:02.392Z</time></trkpt><trkpt lat="39.4920555" lon="-2.8863835"><ele>720.1999999999999</ele><time>2026-04-19T08:14:03.377Z</time></trkpt><trkpt lat="39.4920961" lon="-2.8862651"><ele>719.4</ele><time>2026-04-19T08:14:04.384Z</time></trkpt><trkpt lat="39.4921375" lon="-2.8861517"><ele>718.6</ele><time>2026-04-19T08:14:05.375Z</time></trkpt><trkpt lat="39.4921771" lon="-2.8860405"><ele>717.8</ele><time>2026-04-19T08:14:06.372Z</time></trkpt><trkpt lat="39.4922127" lon="-2.88593"><ele>717.0</ele><time>2026-04-19T08:14:07.38Z</time></trkpt><trkpt lat="39.4922481" lon="-2.8858135"><ele>716.8</ele><time>2026-04-19T08:14:08.378Z</time></trkpt><trkpt lat="39.4922851" lon="-2.8856872"><ele>716.6</ele><time>2026-04-19T08:14:09.379Z</time></trkpt><trkpt lat="39.4923241" lon="-2.8855563"><ele>716.4</ele><time>2026-04-19T08:14:10.374Z</time></trkpt><trkpt lat="39.4923662" lon="-2.8854233"><ele>716.1999999999999</ele><time>2026-04-19T08:14:11.384Z</time></trkpt><trkpt lat="39.4924089" lon="-2.885289"><ele>716.0</ele><time>2026-04-19T08:14:12.387Z</time></trkpt><trkpt lat="39.492451" lon="-2.8851516"><ele>716.0</ele><time>2026-04-19T08:14:13.374Z</time></trkpt><trkpt lat="39.4924942" lon="-2.8850135"><ele>716.0</ele><time>2026-04-19T08:14:14.378Z</time></trkpt><trkpt lat="39.4925428" lon="-2.884875"><ele>716.0</ele><time>2026-04-19T08:14:15.376Z</time></trkpt><trkpt lat="39.4925922" lon="-2.884742"><ele>716.0</ele><time>2026-04-19T08:14:16.373Z</time></trkpt><trkpt lat="39.4926431" lon="-2.8846109"><ele>716.0</ele><time>2026-04-19T08:14:17.374Z</time></trkpt><trkpt lat="39.492686" lon="-2.8844588"><ele>716.0</ele><time>2026-04-19T08:14:18.384Z</time></trkpt><trkpt lat="39.4927305" lon="-2.8843011"><ele>716.0</ele><time>2026-04-19T08:14:19.377Z</time></trkpt><trkpt lat="39.4927777" lon="-2.8841431"><ele>716.0</ele><time>2026-04-19T08:14:20.374Z</time></trkpt><trkpt lat="39.4928299" lon="-2.8839872"><ele>714.75</ele><time>2026-04-19T08:14:21.374Z</time></trkpt><trkpt lat="39.4928815" lon="-2.8838336"><ele>713.5</ele><time>2026-04-19T08:14:22.371Z</time></trkpt><trkpt lat="39.4929377" lon="-2.8836758"><ele>712.25</ele><time>2026-04-19T08:14:23.372Z</time></trkpt><trkpt lat="39.4929909" lon="-2.8835134"><ele>711.0</ele><time>2026-04-19T08:14:24.373Z</time></trkpt><trkpt lat="39.4930449" lon="-2.8833484"><ele>710.25</ele><time>2026-04-19T08:14:25.379Z</time></trkpt><trkpt lat="39.4930989" lon="-2.8831842"><ele>709.5</ele><time>2026-04-19T08:14:26.375Z</time></trkpt><trkpt lat="39.4931494" lon="-2.8830258"><ele>708.75</ele><time>2026-04-19T08:14:27.378Z</time></trkpt><trkpt lat="39.4931955" lon="-2.8828698"><ele>708.0</ele><time>2026-04-19T08:14:28.377Z</time></trkpt><trkpt lat="39.4932436" lon="-2.8827058"><ele>707.5</ele><time>2026-04-19T08:14:29.37Z</time></trkpt><trkpt lat="39.4932947" lon="-2.8825391"><ele>707.0</ele><time>2026-04-19T08:14:30.38Z</time></trkpt><trkpt lat="39.4933477" lon="-2.8823766"><ele>706.5</ele><time>2026-04-19T08:14:31.38Z</time></trkpt><trkpt lat="39.4934025" lon="-2.8822135"><ele>706.0</ele><time>2026-04-19T08:14:32.382Z</time></trkpt><trkpt lat="39.4934556" lon="-2.882048"><ele>706.0</ele><time>2026-04-19T08:14:33.375Z</time></trkpt><trkpt lat="39.4935073" lon="-2.8818791"><ele>706.0</ele><time>2026-04-19T08:14:34.372Z</time></trkpt><trkpt lat="39.4935617" lon="-2.8817127"><ele>706.0</ele><time>2026-04-19T08:14:35.378Z</time></trkpt><trkpt lat="39.4936182" lon="-2.8815464"><ele>706.0</ele><time>2026-04-19T08:14:36.374Z</time></trkpt><trkpt lat="39.4936703" lon="-2.8813778"><ele>705.75</ele><time>2026-04-19T08:14:37.375Z</time></trkpt><trkpt lat="39.4937208" lon="-2.8812041"><ele>705.5</ele><time>2026-04-19T08:14:38.382Z</time></trkpt><trkpt lat="39.4937723" lon="-2.8810242"><ele>705.25</ele><time>2026-04-19T08:14:39.378Z</time></trkpt><trkpt lat="39.4938293" lon="-2.8808407"><ele>705.0</ele><time>2026-04-19T08:14:40.376Z</time></trkpt><trkpt lat="39.4938928" lon="-2.8806498"><ele>703.6666666666666</ele><time>2026-04-19T08:14:41.374Z</time></trkpt><trkpt lat="39.49396" lon="-2.8804468"><ele>702.3333333333333</ele><time>2026-04-19T08:14:42.372Z</time></trkpt><trkpt lat="39.4940249" lon="-2.880246"><ele>701.0</ele><time>2026-04-19T08:14:43.375Z</time></trkpt><trkpt lat="39.4940886" lon="-2.880053"><ele>700.0</ele><time>2026-04-19T08:14:44.372Z</time></trkpt><trkpt lat="39.4941529" lon="-2.8798692"><ele>699.0</ele><time>2026-04-19T08:14:45.375Z</time></trkpt><trkpt lat="39.4942161" lon="-2.87969"><ele>698.0</ele><time>2026-04-19T08:14:46.375Z</time></trkpt><trkpt lat="39.4942776" lon="-2.8795131"><ele>698.0</ele><time>2026-04-19T08:14:47.375Z</time></trkpt><trkpt lat="39.4943366" lon="-2.8793385"><ele>698.0</ele><time>2026-04-19T08:14:48.372Z</time></trkpt><trkpt lat="39.4943949" lon="-2.8791664"><ele>698.0</ele><time>2026-04-19T08:14:49.374Z</time></trkpt><trkpt lat="39.4944541" lon="-2.8789938"><ele>698.0</ele><time>2026-04-19T08:14:50.373Z</time></trkpt><trkpt lat="39.4945154" lon="-2.8788211"><ele>698.3333333333333</ele><time>2026-04-19T08:14:51.376Z</time></trkpt><trkpt lat="39.4945787" lon="-2.8786479"><ele>698.6666666666666</ele><time>2026-04-19T08:14:52.377Z</time></trkpt><trkpt lat="39.4946443" lon="-2.8784727"><ele>699.0</ele><time>2026-04-19T08:14:53.375Z</time></trkpt><trkpt lat="39.4947109" lon="-2.8782946"><ele>699.0</ele><time>2026-04-19T08:14:54.381Z</time></trkpt><trkpt lat="39.4947801" lon="-2.8781223"><ele>699.0</ele><time>2026-04-19T08:14:55.379Z</time></trkpt><trkpt lat="39.4948506" lon="-2.8779618"><ele>699.0</ele><time>2026-04-19T08:14:56.376Z</time></trkpt><trkpt lat="39.4949208" lon="-2.8778114"><ele>699.0</ele><time>2026-04-19T08:14:57.377Z</time></trkpt><trkpt lat="39.4949936" lon="-2.8776652"><ele>698.75</ele><time>2026-04-19T08:14:58.376Z</time></trkpt><trkpt lat="39.4950721" lon="-2.8775128"><ele>698.5</ele><time>2026-04-19T08:14:59.371Z</time></trkpt><trkpt lat="39.4951575" lon="-2.8773571"><ele>698.25</ele><time>2026-04-19T08:15:00.373Z</time></trkpt><trkpt lat="39.4952521" lon="-2.8771989"><ele>698.0</ele><time>2026-04-19T08:15:01.371Z</time></trkpt><trkpt lat="39.4953523" lon="-2.8770412"><ele>698.0</ele><time>2026-04-19T08:15:02.374Z</time></trkpt><trkpt lat="39.4954502" lon="-2.8768931"><ele>698.0</ele><time>2026-04-19T08:15:03.368Z</time></trkpt><trkpt lat="39.4955437" lon="-2.8767532"><ele>698.0</ele><time>2026-04-19T08:15:04.371Z</time></trkpt><trkpt lat="39.4956325" lon="-2.876621"><ele>698.0</ele><time>2026-04-19T08:15:05.375Z</time></trkpt><trkpt lat="39.495719" lon="-2.8764986"><ele>697.75</ele><time>2026-04-19T08:15:06.373Z</time></trkpt><trkpt lat="39.4958019" lon="-2.876383"><ele>697.5</ele><time>2026-04-19T08:15:07.371Z</time></trkpt><trkpt lat="39.4958791" lon="-2.8762713"><ele>697.25</ele><time>2026-04-19T08:15:08.373Z</time></trkpt><trkpt lat="39.4959535" lon="-2.876165"><ele>697.0</ele><time>2026-04-19T08:15:09.375Z</time></trkpt><trkpt lat="39.4960255" lon="-2.8760648"><ele>697.0</ele><time>2026-04-19T08:15:10.376Z</time></trkpt><trkpt lat="39.4961007" lon="-2.8759608"><ele>697.0</ele><time>2026-04-19T08:15:11.374Z</time></trkpt><trkpt lat="39.4961768" lon="-2.8758483"><ele>697.0</ele><time>2026-04-19T08:15:12.378Z</time></trkpt><trkpt lat="39.4962505" lon="-2.8757304"><ele>697.0</ele><time>2026-04-19T08:15:13.374Z</time></trkpt><trkpt lat="39.4963295" lon="-2.8756094"><ele>697.5</ele><time>2026-04-19T08:15:14.378Z</time></trkpt><trkpt lat="39.4964136" lon="-2.875485"><ele>698.0</ele><time>2026-04-19T08:15:15.379Z</time></trkpt><trkpt lat="39.4965017" lon="-2.8753589"><ele>698.5</ele><time>2026-04-19T08:15:16.377Z</time></trkpt><trkpt lat="39.4965925" lon="-2.8752303"><ele>699.0</ele><time>2026-04-19T08:15:17.369Z</time></trkpt><trkpt lat="39.4966836" lon="-2.8751"><ele>699.0</ele><time>2026-04-19T08:15:18.376Z</time></trkpt><trkpt lat="39.4967728" lon="-2.8749717"><ele>699.0</ele><time>2026-04-19T08:15:19.373Z</time></trkpt><trkpt lat="39.496859" lon="-2.8748499"><ele>699.0</ele><time>2026-04-19T08:15:20.377Z</time></trkpt><trkpt lat="39.4969406" lon="-2.874737"><ele>699.0</ele><time>2026-04-19T08:15:21.378Z</time></trkpt><trkpt lat="39.4970166" lon="-2.8746342"><ele>699.0</ele><time>2026-04-19T08:15:22.393Z</time></trkpt><trkpt lat="39.497086" lon="-2.8745334"><ele>699.0</ele><time>2026-04-19T08:15:23.377Z</time></trkpt><trkpt lat="39.4971498" lon="-2.8744366"><ele>699.0</ele><time>2026-04-19T08:15:24.375Z</time></trkpt><trkpt lat="39.4972115" lon="-2.8743494"><ele>699.0</ele><time>2026-04-19T08:15:25.374Z</time></trkpt><trkpt lat="39.4972685" lon="-2.8742742"><ele>699.0</ele><time>2026-04-19T08:15:26.378Z</time></trkpt><trkpt lat="39.4973195" lon="-2.8742136"><ele>699.0</ele><time>2026-04-19T08:15:27.37Z</time></trkpt><trkpt lat="39.4973846" lon="-2.8741293"><ele>699.0</ele><time>2026-04-19T08:15:29.374Z</time></trkpt><trkpt lat="39.4974362" lon="-2.874056"><ele>699.0</ele><time>2026-04-19T08:15:47.394Z</time></trkpt><trkpt lat="39.497489" lon="-2.8739457"><ele>699.0</ele><time>2026-04-19T08:15:51.367Z</time></trkpt><trkpt lat="39.4975241" lon="-2.8738779"><ele>699.0</ele><time>2026-04-19T08:15:53.37Z</time></trkpt><trkpt lat="39.4976232" lon="-2.873777"><ele>699.0</ele><time>2026-04-19T08:15:55.372Z</time></trkpt><trkpt lat="39.4976925" lon="-2.8737111"><ele>699.0</ele><time>2026-04-19T08:15:56.38Z</time></trkpt><trkpt lat="39.4977665" lon="-2.8736283"><ele>699.0</ele><time>2026-04-19T08:15:57.369Z</time></trkpt><trkpt lat="39.4978403" lon="-2.87353"><ele>699.0</ele><time>2026-04-19T08:15:58.371Z</time></trkpt><trkpt lat="39.4979242" lon="-2.8734162"><ele>699.0</ele><time>2026-04-19T08:15:59.368Z</time></trkpt><trkpt lat="39.4980129" lon="-2.8732914"><ele>699.75</ele><time>2026-04-19T08:16:00.373Z</time></trkpt><trkpt lat="39.4981039" lon="-2.8731616"><ele>700.5</ele><time>2026-04-19T08:16:01.372Z</time></trkpt><trkpt lat="39.4981933" lon="-2.8730393"><ele>701.25</ele><time>2026-04-19T08:16:02.37Z</time></trkpt><trkpt lat="39.4982782" lon="-2.8729224"><ele>702.0</ele><time>2026-04-19T08:16:03.372Z</time></trkpt><trkpt lat="39.4983537" lon="-2.8728154"><ele>702.0</ele><time>2026-04-19T08:16:04.381Z</time></trkpt><trkpt lat="39.4984159" lon="-2.8727133"><ele>702.0</ele><time>2026-04-19T08:16:05.375Z</time></trkpt><trkpt lat="39.4984734" lon="-2.8726198"><ele>702.0</ele><time>2026-04-19T08:16:06.371Z</time></trkpt><trkpt lat="39.4985196" lon="-2.8725294"><ele>702.0</ele><time>2026-04-19T08:16:07.375Z</time></trkpt><trkpt lat="39.498562" lon="-2.8724496"><ele>702.0</ele><time>2026-04-19T08:16:08.376Z</time></trkpt><trkpt lat="39.4985987" lon="-2.872372"><ele>702.0</ele><time>2026-04-19T08:16:09.371Z</time></trkpt><trkpt lat="39.4986314" lon="-2.8723002"><ele>702.1666666666666</ele><time>2026-04-19T08:16:10.372Z</time></trkpt><trkpt lat="39.4986994" lon="-2.8721915"><ele>702.3333333333334</ele><time>2026-04-19T08:16:12.391Z</time></trkpt><trkpt lat="39.4987581" lon="-2.8720935"><ele>702.5</ele><time>2026-04-19T08:16:14.371Z</time></trkpt><trkpt lat="39.4988089" lon="-2.8720019"><ele>702.6666666666667</ele><time>2026-04-19T08:16:16.394Z</time></trkpt><trkpt lat="39.4988565" lon="-2.8719259"><ele>702.8333333333334</ele><time>2026-04-19T08:16:18.393Z</time></trkpt><trkpt lat="39.4989042" lon="-2.8718619"><ele>703.0</ele><time>2026-04-19T08:16:20.372Z</time></trkpt><trkpt lat="39.4989584" lon="-2.8717955"><ele>703.5999999999999</ele><time>2026-04-19T08:16:22.381Z</time></trkpt><trkpt lat="39.4990311" lon="-2.8717201"><ele>704.1999999999999</ele><time>2026-04-19T08:16:24.379Z</time></trkpt><trkpt lat="39.4990969" lon="-2.871624"><ele>704.8</ele><time>2026-04-19T08:16:26.379Z</time></trkpt><trkpt lat="39.4991385" lon="-2.8715019"><ele>705.4</ele><time>2026-04-19T08:16:28.374Z</time></trkpt><trkpt lat="39.4991861" lon="-2.8713594"><ele>706.0</ele><time>2026-04-19T08:16:30.368Z</time></trkpt><trkpt lat="39.4992148" lon="-2.8712798"><ele>706.0</ele><time>2026-04-19T08:16:31.373Z</time></trkpt><trkpt lat="39.4992421" lon="-2.8711999"><ele>706.0</ele><time>2026-04-19T08:16:32.384Z</time></trkpt><trkpt lat="39.4992637" lon="-2.8711181"><ele>706.0</ele><time>2026-04-19T08:16:33.373Z</time></trkpt><trkpt lat="39.4992873" lon="-2.8710345"><ele>706.0</ele><time>2026-04-19T08:16:34.372Z</time></trkpt><trkpt lat="39.4993157" lon="-2.87095"><ele>706.0</ele><time>2026-04-19T08:16:35.373Z</time></trkpt><trkpt lat="39.4993469" lon="-2.8708636"><ele>706.0</ele><time>2026-04-19T08:16:36.379Z</time></trkpt><trkpt lat="39.4993779" lon="-2.8707753"><ele>706.0</ele><time>2026-04-19T08:16:37.371Z</time></trkpt><trkpt lat="39.4994078" lon="-2.8706849"><ele>706.1428571428571</ele><time>2026-04-19T08:16:38.371Z</time></trkpt><trkpt lat="39.4994382" lon="-2.8705972"><ele>706.2857142857143</ele><time>2026-04-19T08:16:39.376Z</time></trkpt><trkpt lat="39.4994715" lon="-2.8705103"><ele>706.4285714285714</ele><time>2026-04-19T08:16:40.373Z</time></trkpt><trkpt lat="39.4995038" lon="-2.8704256"><ele>706.5714285714286</ele><time>2026-04-19T08:16:41.384Z</time></trkpt><trkpt lat="39.4995355" lon="-2.8703399"><ele>706.7142857142858</ele><time>2026-04-19T08:16:42.379Z</time></trkpt><trkpt lat="39.4995668" lon="-2.8702488"><ele>706.8571428571429</ele><time>2026-04-19T08:16:43.367Z</time></trkpt><trkpt lat="39.4996" lon="-2.8701596"><ele>707.0</ele><time>2026-04-19T08:16:44.373Z</time></trkpt><trkpt lat="39.4996341" lon="-2.870075"><ele>707.3333333333333</ele><time>2026-04-19T08:16:45.377Z</time></trkpt><trkpt lat="39.4996709" lon="-2.8699914"><ele>707.6666666666666</ele><time>2026-04-19T08:16:46.371Z</time></trkpt><trkpt lat="39.4997115" lon="-2.86991"><ele>708.0</ele><time>2026-04-19T08:16:47.37Z</time></trkpt><trkpt lat="39.4997493" lon="-2.8698267"><ele>708.3333333333334</ele><time>2026-04-19T08:16:48.371Z</time></trkpt><trkpt lat="39.4997851" lon="-2.8697542"><ele>708.6666666666667</ele><time>2026-04-19T08:16:49.377Z</time></trkpt><trkpt lat="39.4998538" lon="-2.869631"><ele>709.0</ele><time>2026-04-19T08:16:51.374Z</time></trkpt><trkpt lat="39.4999233" lon="-2.8695248"><ele>709.0</ele><time>2026-04-19T08:16:53.372Z</time></trkpt><trkpt lat="39.4999784" lon="-2.8694138"><ele>709.0</ele><time>2026-04-19T08:16:55.372Z</time></trkpt><trkpt lat="39.5000387" lon="-2.8693012"><ele>709.0</ele><time>2026-04-19T08:16:57.37Z</time></trkpt><trkpt lat="39.5001204" lon="-2.8691919"><ele>709.0</ele><time>2026-04-19T08:16:59.38Z</time></trkpt><trkpt lat="39.5001628" lon="-2.8691188"><ele>709.0</ele><time>2026-04-19T08:17:00.373Z</time></trkpt><trkpt lat="39.5002034" lon="-2.8690446"><ele>709.4000000000001</ele><time>2026-04-19T08:17:01.374Z</time></trkpt><trkpt lat="39.5002424" lon="-2.8689764"><ele>709.8</ele><time>2026-04-19T08:17:02.374Z</time></trkpt><trkpt lat="39.5003074" lon="-2.8688635"><ele>710.2</ele><time>2026-04-19T08:17:04.37Z</time></trkpt><trkpt lat="39.5003714" lon="-2.8687575"><ele>710.5999999999999</ele><time>2026-04-19T08:17:06.37Z</time></trkpt><trkpt lat="39.5004385" lon="-2.8686278"><ele>711.0</ele><time>2026-04-19T08:17:08.383Z</time></trkpt><trkpt lat="39.5004797" lon="-2.8685522"><ele>711.3333333333334</ele><time>2026-04-19T08:17:09.374Z</time></trkpt><trkpt lat="39.5005311" lon="-2.8684702"><ele>711.6666666666666</ele><time>2026-04-19T08:17:10.382Z</time></trkpt><trkpt lat="39.5005837" lon="-2.8683795"><ele>712.0</ele><time>2026-04-19T08:17:11.378Z</time></trkpt><trkpt lat="39.5006436" lon="-2.868293"><ele>712.3333333333333</ele><time>2026-04-19T08:17:12.371Z</time></trkpt><trkpt lat="39.5007009" lon="-2.8682032"><ele>712.6666666666666</ele><time>2026-04-19T08:17:13.378Z</time></trkpt><trkpt lat="39.5007596" lon="-2.868114"><ele>713.0</ele><time>2026-04-19T08:17:14.381Z</time></trkpt><trkpt lat="39.500821" lon="-2.8680275"><ele>713.0</ele><time>2026-04-19T08:17:15.373Z</time></trkpt><trkpt lat="39.5008806" lon="-2.8679427"><ele>713.0</ele><time>2026-04-19T08:17:16.377Z</time></trkpt><trkpt lat="39.5009337" lon="-2.867866"><ele>713.0</ele><time>2026-04-19T08:17:17.365Z</time></trkpt><trkpt lat="39.5009816" lon="-2.8677876"><ele>713.0</ele><time>2026-04-19T08:17:18.38Z</time></trkpt><trkpt lat="39.5010318" lon="-2.867712"><ele>713.0</ele><time>2026-04-19T08:17:19.374Z</time></trkpt><trkpt lat="39.5010848" lon="-2.8676312"><ele>713.0</ele><time>2026-04-19T08:17:20.372Z</time></trkpt><trkpt lat="39.5011416" lon="-2.8675431"><ele>713.2</ele><time>2026-04-19T08:17:21.376Z</time></trkpt><trkpt lat="39.5011995" lon="-2.8674479"><ele>713.4</ele><time>2026-04-19T08:17:22.373Z</time></trkpt><trkpt lat="39.5012607" lon="-2.8673443"><ele>713.6</ele><time>2026-04-19T08:17:23.38Z</time></trkpt><trkpt lat="39.5013331" lon="-2.8672367"><ele>713.8000000000001</ele><time>2026-04-19T08:17:24.38Z</time></trkpt><trkpt lat="39.5014089" lon="-2.8671203"><ele>714.0</ele><time>2026-04-19T08:17:25.369Z</time></trkpt><trkpt lat="39.5014839" lon="-2.8669978"><ele>714.4000000000001</ele><time>2026-04-19T08:17:26.381Z</time></trkpt><trkpt lat="39.5015523" lon="-2.8668816"><ele>714.8</ele><time>2026-04-19T08:17:27.37Z</time></trkpt><trkpt lat="39.5016129" lon="-2.8667796"><ele>715.2</ele><time>2026-04-19T08:17:28.379Z</time></trkpt><trkpt lat="39.5016687" lon="-2.8666847"><ele>715.5999999999999</ele><time>2026-04-19T08:17:29.373Z</time></trkpt><trkpt lat="39.5017172" lon="-2.8665997"><ele>716.0</ele><time>2026-04-19T08:17:30.377Z</time></trkpt><trkpt lat="39.5017637" lon="-2.866528"><ele>716.4</ele><time>2026-04-19T08:17:31.37Z</time></trkpt><trkpt lat="39.5018083" lon="-2.8664636"><ele>716.8</ele><time>2026-04-19T08:17:32.371Z</time></trkpt><trkpt lat="39.5018858" lon="-2.8663522"><ele>717.1999999999999</ele><time>2026-04-19T08:17:34.37Z</time></trkpt><trkpt lat="39.5019189" lon="-2.8662408"><ele>717.5999999999999</ele><time>2026-04-19T08:17:36.383Z</time></trkpt><trkpt lat="39.5018733" lon="-2.8661384"><ele>718.0</ele><time>2026-04-19T08:17:38.374Z</time></trkpt><trkpt lat="39.5017763" lon="-2.8660719"><ele>718.0</ele><time>2026-04-19T08:17:40.37Z</time></trkpt><trkpt lat="39.5017131" lon="-2.8660394"><ele>718.0</ele><time>2026-04-19T08:17:41.375Z</time></trkpt><trkpt lat="39.501632" lon="-2.8660046"><ele>718.0</ele><time>2026-04-19T08:17:42.372Z</time></trkpt><trkpt lat="39.5015465" lon="-2.8659791"><ele>718.0</ele><time>2026-04-19T08:17:43.371Z</time></trkpt><trkpt lat="39.5014625" lon="-2.8659652"><ele>718.0</ele><time>2026-04-19T08:17:44.375Z</time></trkpt><trkpt lat="39.5013826" lon="-2.8659524"><ele>718.0</ele><time>2026-04-19T08:17:45.375Z</time></trkpt><trkpt lat="39.5013028" lon="-2.8659464"><ele>718.2</ele><time>2026-04-19T08:17:46.369Z</time></trkpt><trkpt lat="39.5012176" lon="-2.8659349"><ele>718.4</ele><time>2026-04-19T08:17:47.371Z</time></trkpt><trkpt lat="39.5011244" lon="-2.8659194"><ele>718.6</ele><time>2026-04-19T08:17:48.374Z</time></trkpt><trkpt lat="39.5010267" lon="-2.8658954"><ele>718.8000000000001</ele><time>2026-04-19T08:17:49.374Z</time></trkpt><trkpt lat="39.5009262" lon="-2.8658554"><ele>719.0</ele><time>2026-04-19T08:17:50.367Z</time></trkpt><trkpt lat="39.5008279" lon="-2.8658026"><ele>719.0</ele><time>2026-04-19T08:17:51.374Z</time></trkpt><trkpt lat="39.5007279" lon="-2.8657428"><ele>719.0</ele><time>2026-04-19T08:17:52.372Z</time></trkpt><trkpt lat="39.5006266" lon="-2.865686"><ele>719.0</ele><time>2026-04-19T08:17:53.379Z</time></trkpt><trkpt lat="39.5005253" lon="-2.8656326"><ele>719.0</ele><time>2026-04-19T08:17:54.367Z</time></trkpt><trkpt lat="39.5004279" lon="-2.86558"><ele>719.0</ele><time>2026-04-19T08:17:55.376Z</time></trkpt><trkpt lat="39.5003356" lon="-2.8655315"><ele>718.1666666666666</ele><time>2026-04-19T08:17:56.375Z</time></trkpt><trkpt lat="39.5002477" lon="-2.865484"><ele>717.3333333333333</ele><time>2026-04-19T08:17:57.373Z</time></trkpt><trkpt lat="39.5001635" lon="-2.8654356"><ele>716.5</ele><time>2026-04-19T08:17:58.377Z</time></trkpt><trkpt lat="39.5000849" lon="-2.8653939"><ele>715.6666666666666</ele><time>2026-04-19T08:17:59.375Z</time></trkpt><trkpt lat="39.5000137" lon="-2.8653569"><ele>714.8333333333334</ele><time>2026-04-19T08:18:00.374Z</time></trkpt><trkpt lat="39.4999509" lon="-2.8653211"><ele>714.0</ele><time>2026-04-19T08:18:01.372Z</time></trkpt><trkpt lat="39.4998837" lon="-2.8652839"><ele>714.0</ele><time>2026-04-19T08:18:02.371Z</time></trkpt><trkpt lat="39.4998056" lon="-2.865242"><ele>714.0</ele><time>2026-04-19T08:18:03.384Z</time></trkpt><trkpt lat="39.4997219" lon="-2.8651915"><ele>714.0</ele><time>2026-04-19T08:18:04.379Z</time></trkpt><trkpt lat="39.4996395" lon="-2.8651343"><ele>714.0</ele><time>2026-04-19T08:18:05.367Z</time></trkpt><trkpt lat="39.4995566" lon="-2.8650745"><ele>714.0</ele><time>2026-04-19T08:18:06.369Z</time></trkpt><trkpt lat="39.4994688" lon="-2.8650149"><ele>714.2</ele><time>2026-04-19T08:18:07.372Z</time></trkpt><trkpt lat="39.4993762" lon="-2.864954"><ele>714.4000000000001</ele><time>2026-04-19T08:18:08.381Z</time></trkpt><trkpt lat="39.4992824" lon="-2.8648926"><ele>714.6</ele><time>2026-04-19T08:18:09.372Z</time></trkpt><trkpt lat="39.4991915" lon="-2.864834"><ele>714.8</ele><time>2026-04-19T08:18:10.379Z</time></trkpt><trkpt lat="39.4991015" lon="-2.8647737"><ele>715.0</ele><time>2026-04-19T08:18:11.374Z</time></trkpt><trkpt lat="39.4990094" lon="-2.8647168"><ele>715.0</ele><time>2026-04-19T08:18:12.375Z</time></trkpt><trkpt lat="39.4989137" lon="-2.8646639"><ele>715.0</ele><time>2026-04-19T08:18:13.369Z</time></trkpt><trkpt lat="39.4988194" lon="-2.8646118"><ele>715.0</ele><time>2026-04-19T08:18:14.373Z</time></trkpt><trkpt lat="39.4987253" lon="-2.8645638"><ele>715.0</ele><time>2026-04-19T08:18:15.379Z</time></trkpt><trkpt lat="39.4986394" lon="-2.8645217"><ele>715.0</ele><time>2026-04-19T08:18:16.371Z</time></trkpt><trkpt lat="39.4985602" lon="-2.8644789"><ele>714.6666666666667</ele><time>2026-04-19T08:18:17.377Z</time></trkpt><trkpt lat="39.4984852" lon="-2.8644368"><ele>714.3333333333334</ele><time>2026-04-19T08:18:18.377Z</time></trkpt><trkpt lat="39.498416" lon="-2.8643973"><ele>714.0</ele><time>2026-04-19T08:18:19.372Z</time></trkpt><trkpt lat="39.4983482" lon="-2.8643598"><ele>713.6666666666666</ele><time>2026-04-19T08:18:20.378Z</time></trkpt><trkpt lat="39.4982786" lon="-2.8643214"><ele>713.3333333333333</ele><time>2026-04-19T08:18:21.372Z</time></trkpt><trkpt lat="39.4982052" lon="-2.8642778"><ele>713.0</ele><time>2026-04-19T08:18:22.382Z</time></trkpt><trkpt lat="39.4981257" lon="-2.8642298"><ele>713.0</ele><time>2026-04-19T08:18:23.371Z</time></trkpt><trkpt lat="39.4980407" lon="-2.8641784"><ele>713.0</ele><time>2026-04-19T08:18:24.376Z</time></trkpt><trkpt lat="39.4979542" lon="-2.8641235"><ele>713.0</ele><time>2026-04-19T08:18:25.376Z</time></trkpt><trkpt lat="39.4978618" lon="-2.8640653"><ele>713.0</ele><time>2026-04-19T08:18:26.38Z</time></trkpt><trkpt lat="39.4977637" lon="-2.8640058"><ele>713.0</ele><time>2026-04-19T08:18:27.374Z</time></trkpt><trkpt lat="39.4976657" lon="-2.8639424"><ele>712.5</ele><time>2026-04-19T08:18:28.378Z</time></trkpt><trkpt lat="39.4975606" lon="-2.8638678"><ele>712.0</ele><time>2026-04-19T08:18:29.375Z</time></trkpt><trkpt lat="39.4974476" lon="-2.8637838"><ele>711.5</ele><time>2026-04-19T08:18:30.372Z</time></trkpt><trkpt lat="39.4973263" lon="-2.8636881"><ele>711.0</ele><time>2026-04-19T08:18:31.376Z</time></trkpt><trkpt lat="39.4971982" lon="-2.8635833"><ele>710.6666666666666</ele><time>2026-04-19T08:18:32.375Z</time></trkpt><trkpt lat="39.4970685" lon="-2.8634795"><ele>710.3333333333333</ele><time>2026-04-19T08:18:33.377Z</time></trkpt><trkpt lat="39.4969318" lon="-2.8633756"><ele>710.0</ele><time>2026-04-19T08:18:34.378Z</time></trkpt><trkpt lat="39.4967885" lon="-2.8632747"><ele>711.0</ele><time>2026-04-19T08:18:35.377Z</time></trkpt><trkpt lat="39.49664" lon="-2.8631742"><ele>712.0</ele><time>2026-04-19T08:18:36.385Z</time></trkpt><trkpt lat="39.4964798" lon="-2.8630712"><ele>713.0</ele><time>2026-04-19T08:18:37.379Z</time></trkpt><trkpt lat="39.496302" lon="-2.8629602"><ele>712.3333333333333</ele><time>2026-04-19T08:18:38.384Z</time></trkpt><trkpt lat="39.4961062" lon="-2.8628403"><ele>711.6666666666666</ele><time>2026-04-19T08:18:39.384Z</time></trkpt><trkpt lat="39.4958951" lon="-2.86272"><ele>711.0</ele><time>2026-04-19T08:18:40.372Z</time></trkpt><trkpt lat="39.4956916" lon="-2.8626089"><ele>711.0</ele><time>2026-04-19T08:18:41.377Z</time></trkpt><trkpt lat="39.4955007" lon="-2.8625016"><ele>711.0</ele><time>2026-04-19T08:18:42.385Z</time></trkpt><trkpt lat="39.4953225" lon="-2.8623951"><ele>711.0</ele><time>2026-04-19T08:18:43.38Z</time></trkpt><trkpt lat="39.4951482" lon="-2.8622858"><ele>710.6666666666666</ele><time>2026-04-19T08:18:44.379Z</time></trkpt><trkpt lat="39.4949679" lon="-2.8621658"><ele>710.3333333333333</ele><time>2026-04-19T08:18:45.374Z</time></trkpt><trkpt lat="39.4947754" lon="-2.8620333"><ele>710.0</ele><time>2026-04-19T08:18:46.374Z</time></trkpt><trkpt lat="39.4945759" lon="-2.8618958"><ele>710.3333333333333</ele><time>2026-04-19T08:18:47.372Z</time></trkpt><trkpt lat="39.494384" lon="-2.8617638"><ele>710.6666666666666</ele><time>2026-04-19T08:18:48.373Z</time></trkpt><trkpt lat="39.4942027" lon="-2.8616395"><ele>711.0</ele><time>2026-04-19T08:18:49.372Z</time></trkpt><trkpt lat="39.4940285" lon="-2.8615246"><ele>711.0</ele><time>2026-04-19T08:18:50.372Z</time></trkpt><trkpt lat="39.4938557" lon="-2.8614153"><ele>711.0</ele><time>2026-04-19T08:18:51.379Z</time></trkpt><trkpt lat="39.4936857" lon="-2.8613075"><ele>711.0</ele><time>2026-04-19T08:18:52.373Z</time></trkpt><trkpt lat="39.4935248" lon="-2.861204"><ele>710.6666666666666</ele><time>2026-04-19T08:18:53.376Z</time></trkpt><trkpt lat="39.493376" lon="-2.8611068"><ele>710.3333333333333</ele><time>2026-04-19T08:18:54.379Z</time></trkpt><trkpt lat="39.4932415" lon="-2.8610162"><ele>710.0</ele><time>2026-04-19T08:18:55.376Z</time></trkpt><trkpt lat="39.4931157" lon="-2.8609345"><ele>710.2</ele><time>2026-04-19T08:18:56.377Z</time></trkpt><trkpt lat="39.4930015" lon="-2.8608586"><ele>710.4</ele><time>2026-04-19T08:18:57.376Z</time></trkpt><trkpt lat="39.492902" lon="-2.8607779"><ele>710.5999999999999</ele><time>2026-04-19T08:18:58.374Z</time></trkpt><trkpt lat="39.4928101" lon="-2.8607047"><ele>710.8</ele><time>2026-04-19T08:18:59.375Z</time></trkpt><trkpt lat="39.4927368" lon="-2.8606428"><ele>711.0</ele><time>2026-04-19T08:19:00.378Z</time></trkpt><trkpt lat="39.4926794" lon="-2.8605811"><ele>711.0</ele><time>2026-04-19T08:19:01.379Z</time></trkpt><trkpt lat="39.4925818" lon="-2.8605636"><ele>711.0</ele><time>2026-04-19T08:19:03.381Z</time></trkpt><trkpt lat="39.4924775" lon="-2.8606513"><ele>711.0</ele><time>2026-04-19T08:19:05.37Z</time></trkpt><trkpt lat="39.4924171" lon="-2.8607303"><ele>711.0</ele><time>2026-04-19T08:19:06.37Z</time></trkpt><trkpt lat="39.4923331" lon="-2.8608354"><ele>711.0</ele><time>2026-04-19T08:19:07.374Z</time></trkpt><trkpt lat="39.4922427" lon="-2.860954"><ele>710.6666666666666</ele><time>2026-04-19T08:19:08.379Z</time></trkpt><trkpt lat="39.4921435" lon="-2.8610838"><ele>710.3333333333333</ele><time>2026-04-19T08:19:09.378Z</time></trkpt><trkpt lat="39.4920343" lon="-2.8612175"><ele>710.0</ele><time>2026-04-19T08:19:10.372Z</time></trkpt><trkpt lat="39.4919071" lon="-2.8613604"><ele>709.3333333333333</ele><time>2026-04-19T08:19:11.371Z</time></trkpt><trkpt lat="39.4917471" lon="-2.8615324"><ele>708.6666666666666</ele><time>2026-04-19T08:19:12.372Z</time></trkpt><trkpt lat="39.4915768" lon="-2.8617216"><ele>708.0</ele><time>2026-04-19T08:19:13.378Z</time></trkpt><trkpt lat="39.4913808" lon="-2.8619482"><ele>706.5</ele><time>2026-04-19T08:19:14.375Z</time></trkpt><trkpt lat="39.4911799" lon="-2.8621726"><ele>705.0</ele><time>2026-04-19T08:19:15.373Z</time></trkpt><trkpt lat="39.4909894" lon="-2.8623913"><ele>705.0</ele><time>2026-04-19T08:19:16.372Z</time></trkpt><trkpt lat="39.4908133" lon="-2.862596"><ele>705.0</ele><time>2026-04-19T08:19:17.379Z</time></trkpt><trkpt lat="39.490651" lon="-2.862785"><ele>705.0</ele><time>2026-04-19T08:19:18.374Z</time></trkpt><trkpt lat="39.4904887" lon="-2.8629685"><ele>705.0</ele><time>2026-04-19T08:19:19.382Z</time></trkpt><trkpt lat="39.4903087" lon="-2.8631656"><ele>704.5</ele><time>2026-04-19T08:19:20.378Z</time></trkpt><trkpt lat="39.4901213" lon="-2.8633711"><ele>704.0</ele><time>2026-04-19T08:19:21.371Z</time></trkpt><trkpt lat="39.4899273" lon="-2.8635899"><ele>704.0</ele><time>2026-04-19T08:19:22.371Z</time></trkpt><trkpt lat="39.4897315" lon="-2.8638142"><ele>704.0</ele><time>2026-04-19T08:19:23.378Z</time></trkpt><trkpt lat="39.4895423" lon="-2.8640343"><ele>703.0</ele><time>2026-04-19T08:19:24.375Z</time></trkpt><trkpt lat="39.4893438" lon="-2.8642609"><ele>702.0</ele><time>2026-04-19T08:19:25.372Z</time></trkpt><trkpt lat="39.4891409" lon="-2.8644831"><ele>701.5</ele><time>2026-04-19T08:19:26.374Z</time></trkpt><trkpt lat="39.4889541" lon="-2.8646851"><ele>701.0</ele><time>2026-04-19T08:19:27.384Z</time></trkpt><trkpt lat="39.4887807" lon="-2.8648729"><ele>700.6666666666666</ele><time>2026-04-19T08:19:28.374Z</time></trkpt><trkpt lat="39.488623" lon="-2.8650523"><ele>700.3333333333334</ele><time>2026-04-19T08:19:29.379Z</time></trkpt><trkpt lat="39.488482" lon="-2.8652201"><ele>700.0</ele><time>2026-04-19T08:19:30.376Z</time></trkpt><trkpt lat="39.488354" lon="-2.8653692"><ele>699.75</ele><time>2026-04-19T08:19:31.371Z</time></trkpt><trkpt lat="39.4882417" lon="-2.8654941"><ele>699.5</ele><time>2026-04-19T08:19:32.381Z</time></trkpt><trkpt lat="39.488152" lon="-2.8655925"><ele>699.25</ele><time>2026-04-19T08:19:33.377Z</time></trkpt><trkpt lat="39.4880874" lon="-2.8656653"><ele>699.0</ele><time>2026-04-19T08:19:34.378Z</time></trkpt><trkpt lat="39.487998" lon="-2.865763"><ele>699.0</ele><time>2026-04-19T08:19:36.382Z</time></trkpt><trkpt lat="39.4879445" lon="-2.8658168"><ele>699.0</ele><time>2026-04-19T08:19:37.391Z</time></trkpt><trkpt lat="39.4878786" lon="-2.8658881"><ele>699.0</ele><time>2026-04-19T08:19:38.379Z</time></trkpt><trkpt lat="39.4878" lon="-2.8659759"><ele>699.0</ele><time>2026-04-19T08:19:39.381Z</time></trkpt><trkpt lat="39.4877123" lon="-2.8660773"><ele>699.0</ele><time>2026-04-19T08:19:40.38Z</time></trkpt><trkpt lat="39.487621" lon="-2.8661851"><ele>698.75</ele><time>2026-04-19T08:19:41.374Z</time></trkpt><trkpt lat="39.4875301" lon="-2.8663002"><ele>698.5</ele><time>2026-04-19T08:19:42.383Z</time></trkpt><trkpt lat="39.4874409" lon="-2.8664142"><ele>698.25</ele><time>2026-04-19T08:19:43.374Z</time></trkpt><trkpt lat="39.4873511" lon="-2.8665169"><ele>698.0</ele><time>2026-04-19T08:19:44.379Z</time></trkpt><trkpt lat="39.4872683" lon="-2.866603"><ele>698.0</ele><time>2026-04-19T08:19:45.382Z</time></trkpt><trkpt lat="39.4871873" lon="-2.86667"><ele>698.0</ele><time>2026-04-19T08:19:46.38Z</time></trkpt><trkpt lat="39.4871012" lon="-2.8667138"><ele>698.0</ele><time>2026-04-19T08:19:47.376Z</time></trkpt><trkpt lat="39.4870052" lon="-2.8667369"><ele>698.0</ele><time>2026-04-19T08:19:48.371Z</time></trkpt><trkpt lat="39.4868991" lon="-2.8667422"><ele>698.0</ele><time>2026-04-19T08:19:49.377Z</time></trkpt><trkpt lat="39.4867915" lon="-2.8667305"><ele>697.5999999999999</ele><time>2026-04-19T08:19:50.384Z</time></trkpt><trkpt lat="39.4866869" lon="-2.8667024"><ele>697.1999999999999</ele><time>2026-04-19T08:19:51.378Z</time></trkpt><trkpt lat="39.4865845" lon="-2.8666382"><ele>696.8</ele><time>2026-04-19T08:19:52.374Z</time></trkpt><trkpt lat="39.4864978" lon="-2.8665829"><ele>696.4</ele><time>2026-04-19T08:19:53.377Z</time></trkpt><trkpt lat="39.4864278" lon="-2.8665358"><ele>696.0</ele><time>2026-04-19T08:19:54.376Z</time></trkpt><trkpt lat="39.4863634" lon="-2.8664945"><ele>696.0</ele><time>2026-04-19T08:19:55.377Z</time></trkpt><trkpt lat="39.4863076" lon="-2.8664537"><ele>696.0</ele><time>2026-04-19T08:19:56.375Z</time></trkpt><trkpt lat="39.4862048" lon="-2.8663769"><ele>696.0</ele><time>2026-04-19T08:19:58.373Z</time></trkpt><trkpt lat="39.4861059" lon="-2.8662944"><ele>696.0</ele><time>2026-04-19T08:20:00.371Z</time></trkpt><trkpt lat="39.4860121" lon="-2.8662122"><ele>696.0</ele><time>2026-04-19T08:20:02.386Z</time></trkpt><trkpt lat="39.4859206" lon="-2.8661288"><ele>696.0</ele><time>2026-04-19T08:20:04.37Z</time></trkpt><trkpt lat="39.485818" lon="-2.8660381"><ele>696.0</ele><time>2026-04-19T08:20:06.383Z</time></trkpt><trkpt lat="39.4857609" lon="-2.8659827"><ele>696.0</ele><time>2026-04-19T08:20:07.383Z</time></trkpt><trkpt lat="39.4856972" lon="-2.8659263"><ele>696.0</ele><time>2026-04-19T08:20:08.374Z</time></trkpt><trkpt lat="39.4856275" lon="-2.8658678"><ele>696.0</ele><time>2026-04-19T08:20:09.377Z</time></trkpt><trkpt lat="39.4855519" lon="-2.8658148"><ele>696.0</ele><time>2026-04-19T08:20:10.382Z</time></trkpt><trkpt lat="39.4854692" lon="-2.8657692"><ele>696.0</ele><time>2026-04-19T08:20:11.374Z</time></trkpt><trkpt lat="39.4853794" lon="-2.8657433"><ele>696.0</ele><time>2026-04-19T08:20:12.382Z</time></trkpt><trkpt lat="39.4852854" lon="-2.8657299"><ele>696.0</ele><time>2026-04-19T08:20:13.382Z</time></trkpt><trkpt lat="39.4851807" lon="-2.8657596"><ele>696.0</ele><time>2026-04-19T08:20:14.38Z</time></trkpt><trkpt lat="39.4850702" lon="-2.8658038"><ele>696.0</ele><time>2026-04-19T08:20:15.384Z</time></trkpt><trkpt lat="39.4849502" lon="-2.8658617"><ele>696.0</ele><time>2026-04-19T08:20:16.394Z</time></trkpt><trkpt lat="39.4848235" lon="-2.8659169"><ele>696.0</ele><time>2026-04-19T08:20:17.373Z</time></trkpt><trkpt lat="39.4846786" lon="-2.8659691"><ele>696.0</ele><time>2026-04-19T08:20:18.376Z</time></trkpt><trkpt lat="39.4845199" lon="-2.8660219"><ele>696.0</ele><time>2026-04-19T08:20:19.377Z</time></trkpt><trkpt lat="39.4843368" lon="-2.8660577"><ele>695.0</ele><time>2026-04-19T08:20:20.375Z</time></trkpt><trkpt lat="39.4841458" lon="-2.8660902"><ele>694.0</ele><time>2026-04-19T08:20:21.373Z</time></trkpt><trkpt lat="39.4839566" lon="-2.8661001"><ele>693.0</ele><time>2026-04-19T08:20:22.374Z</time></trkpt><trkpt lat="39.4837657" lon="-2.8660959"><ele>692.6666666666666</ele><time>2026-04-19T08:20:23.372Z</time></trkpt><trkpt lat="39.4835499" lon="-2.8660784"><ele>692.3333333333333</ele><time>2026-04-19T08:20:24.372Z</time></trkpt><trkpt lat="39.4833263" lon="-2.8660675"><ele>692.0</ele><time>2026-04-19T08:20:25.379Z</time></trkpt><trkpt lat="39.4831166" lon="-2.8660635"><ele>692.0</ele><time>2026-04-19T08:20:26.379Z</time></trkpt><trkpt lat="39.4829335" lon="-2.8660591"><ele>692.0</ele><time>2026-04-19T08:20:27.374Z</time></trkpt><trkpt lat="39.4827779" lon="-2.8660463"><ele>692.0</ele><time>2026-04-19T08:20:28.37Z</time></trkpt><trkpt lat="39.4826371" lon="-2.8660242"><ele>692.25</ele><time>2026-04-19T08:20:29.383Z</time></trkpt><trkpt lat="39.4825104" lon="-2.8659872"><ele>692.5</ele><time>2026-04-19T08:20:30.378Z</time></trkpt><trkpt lat="39.4823934" lon="-2.865933"><ele>692.75</ele><time>2026-04-19T08:20:31.386Z</time></trkpt><trkpt lat="39.4822749" lon="-2.8658651"><ele>693.0</ele><time>2026-04-19T08:20:32.373Z</time></trkpt><trkpt lat="39.4821616" lon="-2.8658011"><ele>693.4</ele><time>2026-04-19T08:20:33.374Z</time></trkpt><trkpt lat="39.4820583" lon="-2.8657471"><ele>693.8</ele><time>2026-04-19T08:20:34.378Z</time></trkpt><trkpt lat="39.4819687" lon="-2.8657036"><ele>694.2</ele><time>2026-04-19T08:20:35.374Z</time></trkpt><trkpt lat="39.4818936" lon="-2.8656849"><ele>694.6</ele><time>2026-04-19T08:20:36.38Z</time></trkpt><trkpt lat="39.4817912" lon="-2.8656956"><ele>695.0</ele><time>2026-04-19T08:20:38.375Z</time></trkpt><trkpt lat="39.4817283" lon="-2.8657729"><ele>695.0</ele><time>2026-04-19T08:20:41.374Z</time></trkpt><trkpt lat="39.4816963" lon="-2.8658807"><ele>695.0</ele><time>2026-04-19T08:20:44.384Z</time></trkpt><trkpt lat="39.4816689" lon="-2.8660354"><ele>695.0</ele><time>2026-04-19T08:20:46.376Z</time></trkpt><trkpt lat="39.4816534" lon="-2.866133"><ele>695.0</ele><time>2026-04-19T08:20:47.38Z</time></trkpt><trkpt lat="39.4816355" lon="-2.8662246"><ele>695.0</ele><time>2026-04-19T08:20:48.377Z</time></trkpt><trkpt lat="39.4816118" lon="-2.8663205"><ele>695.0</ele><time>2026-04-19T08:20:49.378Z</time></trkpt><trkpt lat="39.481586" lon="-2.8664275"><ele>695.0</ele><time>2026-04-19T08:20:50.381Z</time></trkpt><trkpt lat="39.4815592" lon="-2.8665414"><ele>695.0</ele><time>2026-04-19T08:20:51.371Z</time></trkpt><trkpt lat="39.4815319" lon="-2.8666529"><ele>695.0</ele><time>2026-04-19T08:20:52.381Z</time></trkpt><trkpt lat="39.4815061" lon="-2.8667552"><ele>695.0</ele><time>2026-04-19T08:20:53.376Z</time></trkpt><trkpt lat="39.4814838" lon="-2.8668567"><ele>695.0</ele><time>2026-04-19T08:20:54.38Z</time></trkpt><trkpt lat="39.4814623" lon="-2.8669505"><ele>695.0</ele><time>2026-04-19T08:20:55.38Z</time></trkpt><trkpt lat="39.4814418" lon="-2.86704"><ele>694.6</ele><time>2026-04-19T08:20:56.38Z</time></trkpt><trkpt lat="39.4814213" lon="-2.8671232"><ele>694.2</ele><time>2026-04-19T08:20:57.382Z</time></trkpt><trkpt lat="39.4814023" lon="-2.8672022"><ele>693.8</ele><time>2026-04-19T08:20:58.388Z</time></trkpt><trkpt lat="39.4813606" lon="-2.8673457"><ele>693.4</ele><time>2026-04-19T08:21:00.375Z</time></trkpt><trkpt lat="39.4813235" lon="-2.8674851"><ele>693.0</ele><time>2026-04-19T08:21:02.382Z</time></trkpt><trkpt lat="39.4812878" lon="-2.8676236"><ele>692.8</ele><time>2026-04-19T08:21:04.383Z</time></trkpt><trkpt lat="39.4812548" lon="-2.8677545"><ele>692.5999999999999</ele><time>2026-04-19T08:21:06.384Z</time></trkpt><trkpt lat="39.4812241" lon="-2.8678685"><ele>692.4000000000001</ele><time>2026-04-19T08:21:08.389Z</time></trkpt><trkpt lat="39.481202" lon="-2.8679773"><ele>692.2</ele><time>2026-04-19T08:21:10.371Z</time></trkpt><trkpt lat="39.4811818" lon="-2.8680932"><ele>692.0</ele><time>2026-04-19T08:21:12.379Z</time></trkpt><trkpt lat="39.48115" lon="-2.8682527"><ele>692.0</ele><time>2026-04-19T08:21:14.375Z</time></trkpt><trkpt lat="39.4811276" lon="-2.8683603"><ele>692.0</ele><time>2026-04-19T08:21:15.374Z</time></trkpt><trkpt lat="39.4811028" lon="-2.8684811"><ele>692.0</ele><time>2026-04-19T08:21:16.389Z</time></trkpt><trkpt lat="39.4810691" lon="-2.8686159"><ele>692.0</ele><time>2026-04-19T08:21:17.38Z</time></trkpt><trkpt lat="39.4810295" lon="-2.8687539"><ele>692.0</ele><time>2026-04-19T08:21:18.387Z</time></trkpt><trkpt lat="39.4809921" lon="-2.8688862"><ele>691.8333333333333</ele><time>2026-04-19T08:21:19.374Z</time></trkpt><trkpt lat="39.4809609" lon="-2.8690062"><ele>691.6666666666666</ele><time>2026-04-19T08:21:20.374Z</time></trkpt><trkpt lat="39.4809412" lon="-2.8691205"><ele>691.5</ele><time>2026-04-19T08:21:21.378Z</time></trkpt><trkpt lat="39.4809233" lon="-2.8692257"><ele>691.3333333333334</ele><time>2026-04-19T08:21:22.393Z</time></trkpt><trkpt lat="39.4809049" lon="-2.8693261"><ele>691.1666666666667</ele><time>2026-04-19T08:21:23.379Z</time></trkpt><trkpt lat="39.4808867" lon="-2.8694182"><ele>691.0</ele><time>2026-04-19T08:21:24.388Z</time></trkpt><trkpt lat="39.4808714" lon="-2.8695113"><ele>691.0</ele><time>2026-04-19T08:21:25.371Z</time></trkpt><trkpt lat="39.4808618" lon="-2.8695953"><ele>691.0</ele><time>2026-04-19T08:21:26.373Z</time></trkpt><trkpt lat="39.4808335" lon="-2.8697326"><ele>691.0</ele><time>2026-04-19T08:21:28.381Z</time></trkpt><trkpt lat="39.4808098" lon="-2.8698143"><ele>691.0</ele><time>2026-04-19T08:21:30.375Z</time></trkpt><trkpt lat="39.4807319" lon="-2.8698656"><ele>691.0</ele><time>2026-04-19T08:21:33.388Z</time></trkpt><trkpt lat="39.4806083" lon="-2.8698107"><ele>691.0</ele><time>2026-04-19T08:21:35.381Z</time></trkpt><trkpt lat="39.480528" lon="-2.8697521"><ele>691.0</ele><time>2026-04-19T08:21:36.373Z</time></trkpt><trkpt lat="39.4804458" lon="-2.8696827"><ele>691.0</ele><time>2026-04-19T08:21:37.374Z</time></trkpt><trkpt lat="39.4803568" lon="-2.869625"><ele>691.0</ele><time>2026-04-19T08:21:38.374Z</time></trkpt><trkpt lat="39.4802713" lon="-2.8695786"><ele>691.0</ele><time>2026-04-19T08:21:39.379Z</time></trkpt><trkpt lat="39.480196" lon="-2.8695428"><ele>690.5999999999999</ele><time>2026-04-19T08:21:40.37Z</time></trkpt><trkpt lat="39.4801288" lon="-2.8694999"><ele>690.2</ele><time>2026-04-19T08:21:41.37Z</time></trkpt><trkpt lat="39.4801019" lon="-2.8693847"><ele>689.8</ele><time>2026-04-19T08:21:43.382Z</time></trkpt><trkpt lat="39.480135" lon="-2.8692043"><ele>689.4000000000001</ele><time>2026-04-19T08:21:45.382Z</time></trkpt><trkpt lat="39.4801703" lon="-2.8690945"><ele>689.0</ele><time>2026-04-19T08:21:46.373Z</time></trkpt><trkpt lat="39.4802037" lon="-2.8689633"><ele>689.0</ele><time>2026-04-19T08:21:47.375Z</time></trkpt><trkpt lat="39.4802393" lon="-2.86881"><ele>689.0</ele><time>2026-04-19T08:21:48.383Z</time></trkpt><trkpt lat="39.4802764" lon="-2.8686579"><ele>689.0</ele><time>2026-04-19T08:21:49.387Z</time></trkpt><trkpt lat="39.480312" lon="-2.8685039"><ele>689.0</ele><time>2026-04-19T08:21:50.371Z</time></trkpt><trkpt lat="39.4803446" lon="-2.8683473"><ele>689.75</ele><time>2026-04-19T08:21:51.389Z</time></trkpt><trkpt lat="39.4803739" lon="-2.8681953"><ele>690.5</ele><time>2026-04-19T08:21:52.383Z</time></trkpt><trkpt lat="39.4804063" lon="-2.8680463"><ele>691.25</ele><time>2026-04-19T08:21:53.377Z</time></trkpt><trkpt lat="39.480441" lon="-2.8679055"><ele>692.0</ele><time>2026-04-19T08:21:54.381Z</time></trkpt><trkpt lat="39.4804774" lon="-2.8677549"><ele>692.0</ele><time>2026-04-19T08:21:55.375Z</time></trkpt><trkpt lat="39.4805099" lon="-2.8676163"><ele>692.0</ele><time>2026-04-19T08:21:56.373Z</time></trkpt><trkpt lat="39.4805406" lon="-2.8674914"><ele>692.0</ele><time>2026-04-19T08:21:57.388Z</time></trkpt><trkpt lat="39.4805674" lon="-2.8673763"><ele>692.0</ele><time>2026-04-19T08:21:58.385Z</time></trkpt><trkpt lat="39.4805951" lon="-2.8672749"><ele>692.0</ele><time>2026-04-19T08:21:59.379Z</time></trkpt><trkpt lat="39.4806234" lon="-2.8671861"><ele>692.3333333333333</ele><time>2026-04-19T08:22:00.389Z</time></trkpt><trkpt lat="39.4806466" lon="-2.8671056"><ele>692.6666666666666</ele><time>2026-04-19T08:22:01.388Z</time></trkpt><trkpt lat="39.4806854" lon="-2.8669628"><ele>693.0</ele><time>2026-04-19T08:22:03.371Z</time></trkpt><trkpt lat="39.4807125" lon="-2.8668777"><ele>693.3333333333334</ele><time>2026-04-19T08:22:04.37Z</time></trkpt><trkpt lat="39.4807454" lon="-2.8667717"><ele>693.6666666666667</ele><time>2026-04-19T08:22:05.376Z</time></trkpt><trkpt lat="39.4807822" lon="-2.8666468"><ele>694.0</ele><time>2026-04-19T08:22:06.369Z</time></trkpt><trkpt lat="39.4808137" lon="-2.8665212"><ele>694.1666666666667</ele><time>2026-04-19T08:22:07.378Z</time></trkpt><trkpt lat="39.4808453" lon="-2.8663908"><ele>694.3333333333334</ele><time>2026-04-19T08:22:08.379Z</time></trkpt><trkpt lat="39.4808727" lon="-2.8662675"><ele>694.5</ele><time>2026-04-19T08:22:09.383Z</time></trkpt><trkpt lat="39.4808993" lon="-2.866152"><ele>694.6666666666666</ele><time>2026-04-19T08:22:10.376Z</time></trkpt><trkpt lat="39.4809191" lon="-2.8660476"><ele>694.8333333333333</ele><time>2026-04-19T08:22:11.369Z</time></trkpt><trkpt lat="39.4809325" lon="-2.8659651"><ele>695.0</ele><time>2026-04-19T08:22:12.385Z</time></trkpt><trkpt lat="39.4808998" lon="-2.8658565"><ele>695.0</ele><time>2026-04-19T08:22:14.384Z</time></trkpt><trkpt lat="39.4807831" lon="-2.8658104"><ele>695.0</ele><time>2026-04-19T08:22:16.375Z</time></trkpt><trkpt lat="39.4806744" lon="-2.8657981"><ele>695.0</ele><time>2026-04-19T08:22:17.377Z</time></trkpt><trkpt lat="39.4805536" lon="-2.8657784"><ele>695.0</ele><time>2026-04-19T08:22:18.374Z</time></trkpt><trkpt lat="39.4804318" lon="-2.8657428"><ele>695.5</ele><time>2026-04-19T08:22:19.377Z</time></trkpt><trkpt lat="39.4803082" lon="-2.8656976"><ele>696.0</ele><time>2026-04-19T08:22:20.382Z</time></trkpt><trkpt lat="39.4801806" lon="-2.8656403"><ele>696.5</ele><time>2026-04-19T08:22:21.376Z</time></trkpt><trkpt lat="39.4800529" lon="-2.865584"><ele>697.0</ele><time>2026-04-19T08:22:22.375Z</time></trkpt><trkpt lat="39.4799187" lon="-2.8655294"><ele>697.0</ele><time>2026-04-19T08:22:23.375Z</time></trkpt><trkpt lat="39.4797914" lon="-2.8654836"><ele>697.0</ele><time>2026-04-19T08:22:24.375Z</time></trkpt><trkpt lat="39.4796701" lon="-2.8654524"><ele>697.0</ele><time>2026-04-19T08:22:25.375Z</time></trkpt><trkpt lat="39.4795507" lon="-2.8654383"><ele>697.0</ele><time>2026-04-19T08:22:26.381Z</time></trkpt><trkpt lat="39.4794343" lon="-2.8654488"><ele>696.25</ele><time>2026-04-19T08:22:27.371Z</time></trkpt><trkpt lat="39.4793264" lon="-2.8654871"><ele>695.5</ele><time>2026-04-19T08:22:28.373Z</time></trkpt><trkpt lat="39.4792181" lon="-2.8655528"><ele>694.75</ele><time>2026-04-19T08:22:29.382Z</time></trkpt><trkpt lat="39.4791062" lon="-2.865645"><ele>694.0</ele><time>2026-04-19T08:22:30.386Z</time></trkpt><trkpt lat="39.4789889" lon="-2.8657493"><ele>694.0</ele><time>2026-04-19T08:22:31.373Z</time></trkpt><trkpt lat="39.4788668" lon="-2.8658508"><ele>694.0</ele><time>2026-04-19T08:22:32.386Z</time></trkpt><trkpt lat="39.4787378" lon="-2.8659422"><ele>694.0</ele><time>2026-04-19T08:22:33.374Z</time></trkpt><trkpt lat="39.4786045" lon="-2.8660225"><ele>694.0</ele><time>2026-04-19T08:22:34.375Z</time></trkpt><trkpt lat="39.4784677" lon="-2.8660822"><ele>694.25</ele><time>2026-04-19T08:22:35.38Z</time></trkpt><trkpt lat="39.4783229" lon="-2.8661195"><ele>694.5</ele><time>2026-04-19T08:22:36.38Z</time></trkpt><trkpt lat="39.478181" lon="-2.8661425"><ele>694.75</ele><time>2026-04-19T08:22:37.378Z</time></trkpt><trkpt lat="39.4780591" lon="-2.866168"><ele>695.0</ele><time>2026-04-19T08:22:38.377Z</time></trkpt><trkpt lat="39.4779642" lon="-2.8662054"><ele>694.6666666666666</ele><time>2026-04-19T08:22:39.376Z</time></trkpt><trkpt lat="39.4778881" lon="-2.8662505"><ele>694.3333333333333</ele><time>2026-04-19T08:22:40.377Z</time></trkpt><trkpt lat="39.4778234" lon="-2.8662891"><ele>694.0</ele><time>2026-04-19T08:22:41.377Z</time></trkpt><trkpt lat="39.4777584" lon="-2.8663126"><ele>693.6666666666666</ele><time>2026-04-19T08:22:42.377Z</time></trkpt><trkpt lat="39.4776849" lon="-2.86631"><ele>693.3333333333334</ele><time>2026-04-19T08:22:43.375Z</time></trkpt><trkpt lat="39.4775864" lon="-2.8662828"><ele>693.0</ele><time>2026-04-19T08:22:44.376Z</time></trkpt><trkpt lat="39.477462" lon="-2.8662369"><ele>693.0</ele><time>2026-04-19T08:22:45.375Z</time></trkpt><trkpt lat="39.4773178" lon="-2.8661814"><ele>693.0</ele><time>2026-04-19T08:22:46.388Z</time></trkpt><trkpt lat="39.4771516" lon="-2.8661123"><ele>693.0</ele><time>2026-04-19T08:22:47.378Z</time></trkpt><trkpt lat="39.4769615" lon="-2.866027"><ele>693.0</ele><time>2026-04-19T08:22:48.375Z</time></trkpt><trkpt lat="39.4767815" lon="-2.865936"><ele>693.0</ele><time>2026-04-19T08:22:49.38Z</time></trkpt><trkpt lat="39.4766041" lon="-2.8658408"><ele>693.0</ele><time>2026-04-19T08:22:50.384Z</time></trkpt><trkpt lat="39.4764212" lon="-2.8656984"><ele>693.0</ele><time>2026-04-19T08:22:51.37Z</time></trkpt><trkpt lat="39.4762324" lon="-2.8655454"><ele>693.0</ele><time>2026-04-19T08:22:52.376Z</time></trkpt><trkpt lat="39.4760213" lon="-2.8653974"><ele>693.0</ele><time>2026-04-19T08:22:53.379Z</time></trkpt><trkpt lat="39.475795" lon="-2.8652633"><ele>693.0</ele><time>2026-04-19T08:22:54.381Z</time></trkpt><trkpt lat="39.4755896" lon="-2.8651464"><ele>692.3333333333334</ele><time>2026-04-19T08:22:55.379Z</time></trkpt><trkpt lat="39.4753952" lon="-2.8650567"><ele>691.6666666666667</ele><time>2026-04-19T08:22:56.382Z</time></trkpt><trkpt lat="39.4752065" lon="-2.8649837"><ele>691.0</ele><time>2026-04-19T08:22:57.379Z</time></trkpt><trkpt lat="39.4750181" lon="-2.8648935"><ele>691.0</ele><time>2026-04-19T08:22:58.374Z</time></trkpt><trkpt lat="39.4748269" lon="-2.8648106"><ele>691.0</ele><time>2026-04-19T08:22:59.374Z</time></trkpt><trkpt lat="39.4746341" lon="-2.8647382"><ele>691.0</ele><time>2026-04-19T08:23:00.377Z</time></trkpt><trkpt lat="39.4744377" lon="-2.8646987"><ele>691.3333333333334</ele><time>2026-04-19T08:23:01.375Z</time></trkpt><trkpt lat="39.4742518" lon="-2.8646755"><ele>691.6666666666666</ele><time>2026-04-19T08:23:02.376Z</time></trkpt><trkpt lat="39.4740991" lon="-2.8646592"><ele>692.0</ele><time>2026-04-19T08:23:03.378Z</time></trkpt><trkpt lat="39.4739663" lon="-2.8646374"><ele>692.0</ele><time>2026-04-19T08:23:04.375Z</time></trkpt><trkpt lat="39.4738393" lon="-2.8646397"><ele>692.0</ele><time>2026-04-19T08:23:05.375Z</time></trkpt><trkpt lat="39.4737024" lon="-2.8646509"><ele>692.0</ele><time>2026-04-19T08:23:06.379Z</time></trkpt><trkpt lat="39.4735412" lon="-2.8646806"><ele>692.0</ele><time>2026-04-19T08:23:07.38Z</time></trkpt><trkpt lat="39.4733823" lon="-2.8647209"><ele>691.25</ele><time>2026-04-19T08:23:08.372Z</time></trkpt><trkpt lat="39.4732403" lon="-2.8647633"><ele>690.5</ele><time>2026-04-19T08:23:09.371Z</time></trkpt><trkpt lat="39.4731034" lon="-2.8648008"><ele>689.75</ele><time>2026-04-19T08:23:10.376Z</time></trkpt><trkpt lat="39.4729669" lon="-2.8648083"><ele>689.0</ele><time>2026-04-19T08:23:11.372Z</time></trkpt><trkpt lat="39.4728252" lon="-2.8647896"><ele>688.25</ele><time>2026-04-19T08:23:12.377Z</time></trkpt><trkpt lat="39.4726895" lon="-2.8647618"><ele>687.5</ele><time>2026-04-19T08:23:13.378Z</time></trkpt><trkpt lat="39.4725574" lon="-2.8647264"><ele>686.75</ele><time>2026-04-19T08:23:14.372Z</time></trkpt><trkpt lat="39.4724081" lon="-2.8646703"><ele>686.0</ele><time>2026-04-19T08:23:15.381Z</time></trkpt><trkpt lat="39.4722515" lon="-2.8645906"><ele>686.0</ele><time>2026-04-19T08:23:16.374Z</time></trkpt><trkpt lat="39.4720748" lon="-2.8644861"><ele>686.0</ele><time>2026-04-19T08:23:17.374Z</time></trkpt><trkpt lat="39.4718937" lon="-2.8643705"><ele>686.0</ele><time>2026-04-19T08:23:18.384Z</time></trkpt><trkpt lat="39.4717188" lon="-2.8642663"><ele>686.6666666666666</ele><time>2026-04-19T08:23:19.374Z</time></trkpt><trkpt lat="39.4715346" lon="-2.8641566"><ele>687.3333333333334</ele><time>2026-04-19T08:23:20.383Z</time></trkpt><trkpt lat="39.4713501" lon="-2.8640424"><ele>688.0</ele><time>2026-04-19T08:23:21.376Z</time></trkpt><trkpt lat="39.4711906" lon="-2.8639412"><ele>688.0</ele><time>2026-04-19T08:23:22.389Z</time></trkpt><trkpt lat="39.4710471" lon="-2.8638425"><ele>688.0</ele><time>2026-04-19T08:23:23.376Z</time></trkpt><trkpt lat="39.4709142" lon="-2.8637366"><ele>688.0</ele><time>2026-04-19T08:23:24.381Z</time></trkpt><trkpt lat="39.4707899" lon="-2.8636374"><ele>688.0</ele><time>2026-04-19T08:23:25.375Z</time></trkpt><trkpt lat="39.4706701" lon="-2.8635559"><ele>688.0</ele><time>2026-04-19T08:23:26.377Z</time></trkpt><trkpt lat="39.4705537" lon="-2.8634827"><ele>688.0</ele><time>2026-04-19T08:23:27.377Z</time></trkpt><trkpt lat="39.4704304" lon="-2.863433"><ele>688.0</ele><time>2026-04-19T08:23:28.378Z</time></trkpt><trkpt lat="39.4703044" lon="-2.8633955"><ele>688.5</ele><time>2026-04-19T08:23:29.386Z</time></trkpt><trkpt lat="39.4701588" lon="-2.8633791"><ele>689.0</ele><time>2026-04-19T08:23:30.376Z</time></trkpt><trkpt lat="39.4700067" lon="-2.8633679"><ele>689.5</ele><time>2026-04-19T08:23:31.382Z</time></trkpt><trkpt lat="39.4698615" lon="-2.8633714"><ele>690.0</ele><time>2026-04-19T08:23:32.379Z</time></trkpt><trkpt lat="39.4697293" lon="-2.8633853"><ele>690.0</ele><time>2026-04-19T08:23:33.379Z</time></trkpt><trkpt lat="39.4696195" lon="-2.8634194"><ele>690.0</ele><time>2026-04-19T08:23:34.376Z</time></trkpt><trkpt lat="39.4695243" lon="-2.8634678"><ele>690.0</ele><time>2026-04-19T08:23:35.377Z</time></trkpt><trkpt lat="39.4694397" lon="-2.8635259"><ele>690.0</ele><time>2026-04-19T08:23:36.376Z</time></trkpt><trkpt lat="39.4693642" lon="-2.8635931"><ele>690.0</ele><time>2026-04-19T08:23:37.376Z</time></trkpt><trkpt lat="39.4692949" lon="-2.8636606"><ele>689.5</ele><time>2026-04-19T08:23:38.384Z</time></trkpt><trkpt lat="39.4692295" lon="-2.8637267"><ele>689.0</ele><time>2026-04-19T08:23:39.381Z</time></trkpt><trkpt lat="39.4691651" lon="-2.8637945"><ele>688.5</ele><time>2026-04-19T08:23:40.374Z</time></trkpt><trkpt lat="39.4691058" lon="-2.863857"><ele>688.0</ele><time>2026-04-19T08:23:41.384Z</time></trkpt><trkpt lat="39.4690519" lon="-2.8639312"><ele>687.5</ele><time>2026-04-19T08:23:42.384Z</time></trkpt><trkpt lat="39.4690017" lon="-2.8640059"><ele>687.0</ele><time>2026-04-19T08:23:43.383Z</time></trkpt><trkpt lat="39.4689543" lon="-2.8640867"><ele>687.0</ele><time>2026-04-19T08:23:44.383Z</time></trkpt><trkpt lat="39.468918" lon="-2.8641604"><ele>687.0</ele><time>2026-04-19T08:23:45.373Z</time></trkpt><trkpt lat="39.4688481" lon="-2.8642814"><ele>687.0</ele><time>2026-04-19T08:23:47.368Z</time></trkpt><trkpt lat="39.468784" lon="-2.8643909"><ele>687.0</ele><time>2026-04-19T08:23:49.372Z</time></trkpt><trkpt lat="39.468723" lon="-2.8644872"><ele>687.0</ele><time>2026-04-19T08:23:51.382Z</time></trkpt><trkpt lat="39.4686703" lon="-2.864557"><ele>686.8</ele><time>2026-04-19T08:23:53.372Z</time></trkpt><trkpt lat="39.4686178" lon="-2.8646229"><ele>686.6</ele><time>2026-04-19T08:24:11.381Z</time></trkpt><trkpt lat="39.4685187" lon="-2.8646479"><ele>686.4</ele><time>2026-04-19T08:24:13.385Z</time></trkpt><trkpt lat="39.4684307" lon="-2.8646276"><ele>686.1999999999999</ele><time>2026-04-19T08:24:14.375Z</time></trkpt><trkpt lat="39.468316" lon="-2.8645968"><ele>686.0</ele><time>2026-04-19T08:24:15.376Z</time></trkpt><trkpt lat="39.4681765" lon="-2.8645686"><ele>686.0</ele><time>2026-04-19T08:24:16.377Z</time></trkpt><trkpt lat="39.4680075" lon="-2.8645456"><ele>686.0</ele><time>2026-04-19T08:24:17.374Z</time></trkpt><trkpt lat="39.4678248" lon="-2.8645254"><ele>686.0</ele><time>2026-04-19T08:24:18.377Z</time></trkpt><trkpt lat="39.4676266" lon="-2.8645005"><ele>685.6666666666666</ele><time>2026-04-19T08:24:19.385Z</time></trkpt><trkpt lat="39.467411" lon="-2.8644609"><ele>685.3333333333334</ele><time>2026-04-19T08:24:20.375Z</time></trkpt><trkpt lat="39.4671913" lon="-2.8644046"><ele>685.0</ele><time>2026-04-19T08:24:21.382Z</time></trkpt><trkpt lat="39.4669571" lon="-2.8643372"><ele>685.5</ele><time>2026-04-19T08:24:22.373Z</time></trkpt><trkpt lat="39.4667185" lon="-2.8642723"><ele>686.0</ele><time>2026-04-19T08:24:23.382Z</time></trkpt><trkpt lat="39.4664905" lon="-2.8642143"><ele>685.0</ele><time>2026-04-19T08:24:24.384Z</time></trkpt><trkpt lat="39.4662741" lon="-2.8641609"><ele>684.0</ele><time>2026-04-19T08:24:25.377Z</time></trkpt><trkpt lat="39.466069" lon="-2.8641051"><ele>683.0</ele><time>2026-04-19T08:24:26.373Z</time></trkpt><trkpt lat="39.465873" lon="-2.8640512"><ele>683.0</ele><time>2026-04-19T08:24:27.379Z</time></trkpt><trkpt lat="39.4656856" lon="-2.8640027"><ele>683.0</ele><time>2026-04-19T08:24:28.386Z</time></trkpt><trkpt lat="39.4653372" lon="-2.863912"><ele>683.6666666666666</ele><time>2026-04-19T08:24:30.377Z</time></trkpt><trkpt lat="39.4651654" lon="-2.8638695"><ele>684.3333333333334</ele><time>2026-04-19T08:24:31.38Z</time></trkpt><trkpt lat="39.4649849" lon="-2.8638306"><ele>685.0</ele><time>2026-04-19T08:24:32.366Z</time></trkpt><trkpt lat="39.4647965" lon="-2.8637969"><ele>684.3333333333334</ele><time>2026-04-19T08:24:33.381Z</time></trkpt><trkpt lat="39.4646007" lon="-2.863773"><ele>683.6666666666666</ele><time>2026-04-19T08:24:34.374Z</time></trkpt><trkpt lat="39.4643997" lon="-2.8637578"><ele>683.0</ele><time>2026-04-19T08:24:35.378Z</time></trkpt><trkpt lat="39.4642002" lon="-2.8637464"><ele>683.0</ele><time>2026-04-19T08:24:36.374Z</time></trkpt><trkpt lat="39.4640039" lon="-2.8637331"><ele>683.0</ele><time>2026-04-19T08:24:37.381Z</time></trkpt><trkpt lat="39.4638083" lon="-2.8637171"><ele>683.0</ele><time>2026-04-19T08:24:38.369Z</time></trkpt><trkpt lat="39.4636117" lon="-2.8637029"><ele>682.3333333333333</ele><time>2026-04-19T08:24:39.376Z</time></trkpt><trkpt lat="39.4634139" lon="-2.8636907"><ele>681.6666666666666</ele><time>2026-04-19T08:24:40.374Z</time></trkpt><trkpt lat="39.4632153" lon="-2.86368"><ele>681.0</ele><time>2026-04-19T08:24:41.368Z</time></trkpt><trkpt lat="39.4630153" lon="-2.8636739"><ele>681.3333333333334</ele><time>2026-04-19T08:24:42.375Z</time></trkpt><trkpt lat="39.4628158" lon="-2.8636825"><ele>681.6666666666667</ele><time>2026-04-19T08:24:43.378Z</time></trkpt><trkpt lat="39.4626189" lon="-2.8637088"><ele>682.0</ele><time>2026-04-19T08:24:44.377Z</time></trkpt><trkpt lat="39.4624282" lon="-2.8637441"><ele>682.0</ele><time>2026-04-19T08:24:45.374Z</time></trkpt><trkpt lat="39.4622457" lon="-2.8637839"><ele>682.0</ele><time>2026-04-19T08:24:46.377Z</time></trkpt><trkpt lat="39.4620683" lon="-2.8638269"><ele>682.0</ele><time>2026-04-19T08:24:47.37Z</time></trkpt><trkpt lat="39.4618905" lon="-2.8638704"><ele>681.3333333333334</ele><time>2026-04-19T08:24:48.386Z</time></trkpt><trkpt lat="39.4617085" lon="-2.8639111"><ele>680.6666666666666</ele><time>2026-04-19T08:24:49.369Z</time></trkpt><trkpt lat="39.4615156" lon="-2.8639388"><ele>680.0</ele><time>2026-04-19T08:24:50.377Z</time></trkpt><trkpt lat="39.4613045" lon="-2.8639499"><ele>680.5</ele><time>2026-04-19T08:24:51.379Z</time></trkpt><trkpt lat="39.4610777" lon="-2.8639455"><ele>681.0</ele><time>2026-04-19T08:24:52.376Z</time></trkpt><trkpt lat="39.4608388" lon="-2.8639285"><ele>681.0</ele><time>2026-04-19T08:24:53.373Z</time></trkpt><trkpt lat="39.4605829" lon="-2.8639149"><ele>681.0</ele><time>2026-04-19T08:24:54.371Z</time></trkpt><trkpt lat="39.4603102" lon="-2.8639203"><ele>681.0</ele><time>2026-04-19T08:24:55.382Z</time></trkpt><trkpt lat="39.4600199" lon="-2.8639409"><ele>681.0</ele><time>2026-04-19T08:24:56.376Z</time></trkpt><trkpt lat="39.4597211" lon="-2.8639605"><ele>680.0</ele><time>2026-04-19T08:24:57.38Z</time></trkpt><trkpt lat="39.4594185" lon="-2.8639682"><ele>679.0</ele><time>2026-04-19T08:24:58.384Z</time></trkpt><trkpt lat="39.4591175" lon="-2.8639674"><ele>679.0</ele><time>2026-04-19T08:24:59.371Z</time></trkpt><trkpt lat="39.4588177" lon="-2.8639638"><ele>679.0</ele><time>2026-04-19T08:25:00.374Z</time></trkpt><trkpt lat="39.4585181" lon="-2.8639632"><ele>680.0</ele><time>2026-04-19T08:25:01.37Z</time></trkpt><trkpt lat="39.4582176" lon="-2.8639636"><ele>681.0</ele><time>2026-04-19T08:25:02.371Z</time></trkpt><trkpt lat="39.45792" lon="-2.8639666"><ele>681.5</ele><time>2026-04-19T08:25:03.372Z</time></trkpt><trkpt lat="39.4576215" lon="-2.8639692"><ele>682.0</ele><time>2026-04-19T08:25:04.374Z</time></trkpt><trkpt lat="39.4573274" lon="-2.863972"><ele>681.5</ele><time>2026-04-19T08:25:05.381Z</time></trkpt><trkpt lat="39.4570338" lon="-2.8639744"><ele>681.0</ele><time>2026-04-19T08:25:06.377Z</time></trkpt><trkpt lat="39.4567382" lon="-2.8639736"><ele>681.0</ele><time>2026-04-19T08:25:07.38Z</time></trkpt><trkpt lat="39.4564438" lon="-2.8639728"><ele>681.0</ele><time>2026-04-19T08:25:08.377Z</time></trkpt><trkpt lat="39.4561495" lon="-2.8639746"><ele>682.0</ele><time>2026-04-19T08:25:09.377Z</time></trkpt><trkpt lat="39.4558569" lon="-2.863978"><ele>683.0</ele><time>2026-04-19T08:25:10.371Z</time></trkpt><trkpt lat="39.4555654" lon="-2.8639823"><ele>684.0</ele><time>2026-04-19T08:25:11.374Z</time></trkpt><trkpt lat="39.4552772" lon="-2.8639855"><ele>685.0</ele><time>2026-04-19T08:25:12.387Z</time></trkpt><trkpt lat="39.4549988" lon="-2.8639884"><ele>685.0</ele><time>2026-04-19T08:25:13.378Z</time></trkpt><trkpt lat="39.4547216" lon="-2.8639951"><ele>685.0</ele><time>2026-04-19T08:25:14.381Z</time></trkpt><trkpt lat="39.4544407" lon="-2.8640096"><ele>684.0</ele><time>2026-04-19T08:25:15.376Z</time></trkpt><trkpt lat="39.4541538" lon="-2.8640407"><ele>683.0</ele><time>2026-04-19T08:25:16.371Z</time></trkpt><trkpt lat="39.4538641" lon="-2.8640895"><ele>684.0</ele><time>2026-04-19T08:25:17.374Z</time></trkpt><trkpt lat="39.4535757" lon="-2.8641399"><ele>685.0</ele><time>2026-04-19T08:25:18.38Z</time></trkpt><trkpt lat="39.4532903" lon="-2.8641898"><ele>685.0</ele><time>2026-04-19T08:25:19.381Z</time></trkpt><trkpt lat="39.453006" lon="-2.8642404"><ele>685.0</ele><time>2026-04-19T08:25:20.376Z</time></trkpt><trkpt lat="39.4527231" lon="-2.8642909"><ele>684.5</ele><time>2026-04-19T08:25:21.374Z</time></trkpt><trkpt lat="39.4524425" lon="-2.8643409"><ele>684.0</ele><time>2026-04-19T08:25:22.372Z</time></trkpt><trkpt lat="39.4521637" lon="-2.8643902"><ele>684.0</ele><time>2026-04-19T08:25:23.386Z</time></trkpt><trkpt lat="39.4518854" lon="-2.8644383"><ele>684.0</ele><time>2026-04-19T08:25:24.376Z</time></trkpt><trkpt lat="39.451607" lon="-2.8644859"><ele>684.0</ele><time>2026-04-19T08:25:25.369Z</time></trkpt><trkpt lat="39.4513224" lon="-2.8645331"><ele>684.0</ele><time>2026-04-19T08:25:26.372Z</time></trkpt><trkpt lat="39.451033" lon="-2.8645815"><ele>683.5</ele><time>2026-04-19T08:25:27.379Z</time></trkpt><trkpt lat="39.4507446" lon="-2.8646291"><ele>683.0</ele><time>2026-04-19T08:25:28.384Z</time></trkpt><trkpt lat="39.4504622" lon="-2.8646684"><ele>683.5</ele><time>2026-04-19T08:25:29.375Z</time></trkpt><trkpt lat="39.4501802" lon="-2.8646865"><ele>684.0</ele><time>2026-04-19T08:25:30.369Z</time></trkpt><trkpt lat="39.4498944" lon="-2.8646838"><ele>684.0</ele><time>2026-04-19T08:25:31.367Z</time></trkpt><trkpt lat="39.4496142" lon="-2.8646712"><ele>684.0</ele><time>2026-04-19T08:25:32.371Z</time></trkpt><trkpt lat="39.4493492" lon="-2.8646618"><ele>684.0</ele><time>2026-04-19T08:25:33.378Z</time></trkpt><trkpt lat="39.4490816" lon="-2.8646692"><ele>684.0</ele><time>2026-04-19T08:25:34.383Z</time></trkpt><trkpt lat="39.4488059" lon="-2.864703"><ele>683.0</ele><time>2026-04-19T08:25:35.376Z</time></trkpt><trkpt lat="39.4485178" lon="-2.8647625"><ele>682.0</ele><time>2026-04-19T08:25:36.376Z</time></trkpt><trkpt lat="39.4482231" lon="-2.8648297"><ele>682.0</ele><time>2026-04-19T08:25:37.376Z</time></trkpt><trkpt lat="39.4479309" lon="-2.8648956"><ele>682.0</ele><time>2026-04-19T08:25:38.37Z</time></trkpt><trkpt lat="39.4476425" lon="-2.8649604"><ele>682.0</ele><time>2026-04-19T08:25:39.379Z</time></trkpt><trkpt lat="39.4473529" lon="-2.8650241"><ele>682.0</ele><time>2026-04-19T08:25:40.377Z</time></trkpt><trkpt lat="39.4470591" lon="-2.8650883"><ele>682.0</ele><time>2026-04-19T08:25:41.372Z</time></trkpt><trkpt lat="39.4467653" lon="-2.8651537"><ele>682.0</ele><time>2026-04-19T08:25:42.372Z</time></trkpt><trkpt lat="39.4464731" lon="-2.8652183"><ele>681.0</ele><time>2026-04-19T08:25:43.383Z</time></trkpt><trkpt lat="39.4461808" lon="-2.8652819"><ele>680.0</ele><time>2026-04-19T08:25:44.372Z</time></trkpt><trkpt lat="39.4458859" lon="-2.8653431"><ele>680.0</ele><time>2026-04-19T08:25:45.377Z</time></trkpt><trkpt lat="39.4455893" lon="-2.8654043"><ele>680.0</ele><time>2026-04-19T08:25:46.374Z</time></trkpt><trkpt lat="39.4452893" lon="-2.8654681"><ele>681.0</ele><time>2026-04-19T08:25:47.379Z</time></trkpt><trkpt lat="39.4449886" lon="-2.8655324"><ele>682.0</ele><time>2026-04-19T08:25:48.382Z</time></trkpt><trkpt lat="39.4446876" lon="-2.8655952"><ele>682.0</ele><time>2026-04-19T08:25:49.383Z</time></trkpt><trkpt lat="39.4443864" lon="-2.8656595"><ele>682.0</ele><time>2026-04-19T08:25:50.377Z</time></trkpt><trkpt lat="39.4440847" lon="-2.865726"><ele>682.5</ele><time>2026-04-19T08:25:51.368Z</time></trkpt><trkpt lat="39.4437845" lon="-2.8657946"><ele>683.0</ele><time>2026-04-19T08:25:52.38Z</time></trkpt><trkpt lat="39.4434784" lon="-2.8658634"><ele>683.0</ele><time>2026-04-19T08:25:53.373Z</time></trkpt><trkpt lat="39.4431616" lon="-2.8659311"><ele>683.0</ele><time>2026-04-19T08:25:54.372Z</time></trkpt><trkpt lat="39.4428572" lon="-2.8659969"><ele>684.0</ele><time>2026-04-19T08:25:55.376Z</time></trkpt><trkpt lat="39.4425732" lon="-2.8660611"><ele>685.0</ele><time>2026-04-19T08:25:56.378Z</time></trkpt><trkpt lat="39.4423062" lon="-2.8661239"><ele>684.5</ele><time>2026-04-19T08:25:57.373Z</time></trkpt><trkpt lat="39.4420345" lon="-2.8661818"><ele>684.0</ele><time>2026-04-19T08:25:58.375Z</time></trkpt><trkpt lat="39.4417478" lon="-2.8662279"><ele>684.0</ele><time>2026-04-19T08:25:59.366Z</time></trkpt><trkpt lat="39.4414466" lon="-2.8662589"><ele>684.0</ele><time>2026-04-19T08:26:00.383Z</time></trkpt><trkpt lat="39.4411367" lon="-2.8662724"><ele>683.0</ele><time>2026-04-19T08:26:01.375Z</time></trkpt><trkpt lat="39.4408259" lon="-2.8662601"><ele>682.0</ele><time>2026-04-19T08:26:02.377Z</time></trkpt><trkpt lat="39.4405214" lon="-2.8662231"><ele>681.5</ele><time>2026-04-19T08:26:03.374Z</time></trkpt><trkpt lat="39.4402125" lon="-2.8661688"><ele>681.0</ele><time>2026-04-19T08:26:04.371Z</time></trkpt><trkpt lat="39.4398931" lon="-2.8661085"><ele>680.0</ele><time>2026-04-19T08:26:05.38Z</time></trkpt><trkpt lat="39.4395708" lon="-2.8660498"><ele>679.0</ele><time>2026-04-19T08:26:06.379Z</time></trkpt><trkpt lat="39.4392644" lon="-2.8659927"><ele>678.5</ele><time>2026-04-19T08:26:07.376Z</time></trkpt><trkpt lat="39.4389783" lon="-2.8659372"><ele>678.0</ele><time>2026-04-19T08:26:08.377Z</time></trkpt><trkpt lat="39.4387103" lon="-2.865885"><ele>678.0</ele><time>2026-04-19T08:26:09.371Z</time></trkpt><trkpt lat="39.4384579" lon="-2.8658365"><ele>678.0</ele><time>2026-04-19T08:26:10.387Z</time></trkpt><trkpt lat="39.4382203" lon="-2.8657919"><ele>678.0</ele><time>2026-04-19T08:26:11.372Z</time></trkpt><trkpt lat="39.4379971" lon="-2.8657517"><ele>678.0</ele><time>2026-04-19T08:26:12.379Z</time></trkpt><trkpt lat="39.4377907" lon="-2.8657134"><ele>678.0</ele><time>2026-04-19T08:26:13.379Z</time></trkpt><trkpt lat="39.437602" lon="-2.8656755"><ele>678.0</ele><time>2026-04-19T08:26:14.377Z</time></trkpt><trkpt lat="39.4374348" lon="-2.865642"><ele>678.0</ele><time>2026-04-19T08:26:15.377Z</time></trkpt><trkpt lat="39.4372877" lon="-2.8656151"><ele>678.0</ele><time>2026-04-19T08:26:16.381Z</time></trkpt><trkpt lat="39.4371608" lon="-2.8655902"><ele>678.0</ele><time>2026-04-19T08:26:17.367Z</time></trkpt><trkpt lat="39.4370472" lon="-2.8655679"><ele>677.8</ele><time>2026-04-19T08:26:18.375Z</time></trkpt><trkpt lat="39.4369436" lon="-2.8655614"><ele>677.5999999999999</ele><time>2026-04-19T08:26:19.38Z</time></trkpt><trkpt lat="39.4368562" lon="-2.8655731"><ele>677.4000000000001</ele><time>2026-04-19T08:26:20.376Z</time></trkpt><trkpt lat="39.4367875" lon="-2.8655944"><ele>677.2</ele><time>2026-04-19T08:26:21.376Z</time></trkpt><trkpt lat="39.4367273" lon="-2.8656191"><ele>677.0</ele><time>2026-04-19T08:26:22.377Z</time></trkpt><trkpt lat="39.4366074" lon="-2.8656666"><ele>677.0</ele><time>2026-04-19T08:26:24.376Z</time></trkpt><trkpt lat="39.436492" lon="-2.8657207"><ele>677.0</ele><time>2026-04-19T08:26:26.379Z</time></trkpt><trkpt lat="39.4363859" lon="-2.8657721"><ele>677.0</ele><time>2026-04-19T08:26:28.384Z</time></trkpt><trkpt lat="39.436281" lon="-2.8658071"><ele>677.0</ele><time>2026-04-19T08:26:30.377Z</time></trkpt><trkpt lat="39.4361618" lon="-2.8658472"><ele>677.0</ele><time>2026-04-19T08:26:32.374Z</time></trkpt><trkpt lat="39.4360978" lon="-2.8658659"><ele>677.0</ele><time>2026-04-19T08:26:33.38Z</time></trkpt><trkpt lat="39.4360293" lon="-2.8658823"><ele>677.0</ele><time>2026-04-19T08:26:34.374Z</time></trkpt><trkpt lat="39.4359567" lon="-2.8658988"><ele>677.0</ele><time>2026-04-19T08:26:35.382Z</time></trkpt><trkpt lat="39.4358872" lon="-2.8659128"><ele>677.0</ele><time>2026-04-19T08:26:36.374Z</time></trkpt><trkpt lat="39.4358217" lon="-2.8659226"><ele>677.0</ele><time>2026-04-19T08:26:37.378Z</time></trkpt><trkpt lat="39.4357059" lon="-2.8659356"><ele>677.0</ele><time>2026-04-19T08:26:39.376Z</time></trkpt><trkpt lat="39.4356052" lon="-2.8659449"><ele>677.0</ele><time>2026-04-19T08:26:41.381Z</time></trkpt><trkpt lat="39.4354922" lon="-2.8659697"><ele>677.0</ele><time>2026-04-19T08:26:43.38Z</time></trkpt><trkpt lat="39.4354254" lon="-2.865969"><ele>677.0</ele><time>2026-04-19T08:26:44.379Z</time></trkpt><trkpt lat="39.4353621" lon="-2.8659755"><ele>677.0</ele><time>2026-04-19T08:26:45.378Z</time></trkpt><trkpt lat="39.4352496" lon="-2.8659858"><ele>677.1666666666666</ele><time>2026-04-19T08:26:47.371Z</time></trkpt><trkpt lat="39.4351419" lon="-2.8660107"><ele>677.3333333333333</ele><time>2026-04-19T08:26:49.377Z</time></trkpt><trkpt lat="39.4350357" lon="-2.8660331"><ele>677.5</ele><time>2026-04-19T08:26:51.381Z</time></trkpt><trkpt lat="39.434967" lon="-2.8660331"><ele>677.6666666666666</ele><time>2026-04-19T08:26:52.38Z</time></trkpt><trkpt lat="39.4348955" lon="-2.8660445"><ele>677.8333333333334</ele><time>2026-04-19T08:26:53.382Z</time></trkpt><trkpt lat="39.4348317" lon="-2.8660532"><ele>678.0</ele><time>2026-04-19T08:26:54.386Z</time></trkpt><trkpt lat="39.4347316" lon="-2.8660755"><ele>677.5999999999999</ele><time>2026-04-19T08:26:56.382Z</time></trkpt><trkpt lat="39.4346254" lon="-2.8660997"><ele>677.1999999999999</ele><time>2026-04-19T08:26:58.372Z</time></trkpt><trkpt lat="39.4345385" lon="-2.866115"><ele>676.8</ele><time>2026-04-19T08:27:00.379Z</time></trkpt><trkpt lat="39.4344353" lon="-2.8661304"><ele>676.4</ele><time>2026-04-19T08:27:02.373Z</time></trkpt><trkpt lat="39.4343246" lon="-2.8661591"><ele>676.0</ele><time>2026-04-19T08:27:04.38Z</time></trkpt><trkpt lat="39.4342092" lon="-2.8662086"><ele>676.0</ele><time>2026-04-19T08:27:06.379Z</time></trkpt><trkpt lat="39.4341537" lon="-2.8662473"><ele>676.0</ele><time>2026-04-19T08:27:07.379Z</time></trkpt><trkpt lat="39.4340415" lon="-2.8663358"><ele>676.0</ele><time>2026-04-19T08:27:09.373Z</time></trkpt><trkpt lat="39.43398" lon="-2.8663937"><ele>676.0</ele><time>2026-04-19T08:27:10.372Z</time></trkpt><trkpt lat="39.4339179" lon="-2.8664596"><ele>676.0</ele><time>2026-04-19T08:27:11.371Z</time></trkpt><trkpt lat="39.4338556" lon="-2.8665303"><ele>676.0</ele><time>2026-04-19T08:27:12.37Z</time></trkpt><trkpt lat="39.4337845" lon="-2.8666108"><ele>675.5999999999999</ele><time>2026-04-19T08:27:13.376Z</time></trkpt><trkpt lat="39.4337076" lon="-2.8667063"><ele>675.2</ele><time>2026-04-19T08:27:14.375Z</time></trkpt><trkpt lat="39.4336288" lon="-2.8668089"><ele>674.8</ele><time>2026-04-19T08:27:15.376Z</time></trkpt><trkpt lat="39.433557" lon="-2.8669072"><ele>674.4000000000001</ele><time>2026-04-19T08:27:16.384Z</time></trkpt><trkpt lat="39.4334909" lon="-2.8670023"><ele>674.0</ele><time>2026-04-19T08:27:17.376Z</time></trkpt><trkpt lat="39.4334305" lon="-2.8670933"><ele>674.0</ele><time>2026-04-19T08:27:18.388Z</time></trkpt><trkpt lat="39.4333752" lon="-2.8671785"><ele>674.0</ele><time>2026-04-19T08:27:19.385Z</time></trkpt><trkpt lat="39.4333234" lon="-2.867257"><ele>674.0</ele><time>2026-04-19T08:27:20.387Z</time></trkpt><trkpt lat="39.433273" lon="-2.8673302"><ele>674.0</ele><time>2026-04-19T08:27:21.372Z</time></trkpt><trkpt lat="39.4332262" lon="-2.8674011"><ele>674.0</ele><time>2026-04-19T08:27:22.381Z</time></trkpt><trkpt lat="39.4331736" lon="-2.8674792"><ele>674.0</ele><time>2026-04-19T08:27:23.378Z</time></trkpt><trkpt lat="39.4331044" lon="-2.8675734"><ele>674.25</ele><time>2026-04-19T08:27:24.373Z</time></trkpt><trkpt lat="39.433024" lon="-2.867684"><ele>674.5</ele><time>2026-04-19T08:27:25.376Z</time></trkpt><trkpt lat="39.432938" lon="-2.8678053"><ele>674.75</ele><time>2026-04-19T08:27:26.374Z</time></trkpt><trkpt lat="39.4328517" lon="-2.8679295"><ele>675.0</ele><time>2026-04-19T08:27:27.38Z</time></trkpt><trkpt lat="39.4327615" lon="-2.8680591"><ele>675.0</ele><time>2026-04-19T08:27:28.378Z</time></trkpt><trkpt lat="39.4326598" lon="-2.8681906"><ele>675.0</ele><time>2026-04-19T08:27:29.37Z</time></trkpt><trkpt lat="39.4325466" lon="-2.8683095"><ele>675.0</ele><time>2026-04-19T08:27:30.377Z</time></trkpt><trkpt lat="39.4324282" lon="-2.8684247"><ele>675.0</ele><time>2026-04-19T08:27:31.374Z</time></trkpt><trkpt lat="39.4323053" lon="-2.8685324"><ele>675.25</ele><time>2026-04-19T08:27:32.371Z</time></trkpt><trkpt lat="39.4321834" lon="-2.8686323"><ele>675.5</ele><time>2026-04-19T08:27:33.373Z</time></trkpt><trkpt lat="39.4320713" lon="-2.8687288"><ele>675.75</ele><time>2026-04-19T08:27:34.376Z</time></trkpt><trkpt lat="39.4319651" lon="-2.8688203"><ele>676.0</ele><time>2026-04-19T08:27:35.376Z</time></trkpt><trkpt lat="39.431857" lon="-2.8689095"><ele>675.0</ele><time>2026-04-19T08:27:36.379Z</time></trkpt><trkpt lat="39.4317487" lon="-2.8689972"><ele>674.0</ele><time>2026-04-19T08:27:37.377Z</time></trkpt><trkpt lat="39.4316497" lon="-2.8690855"><ele>673.0</ele><time>2026-04-19T08:27:38.373Z</time></trkpt><trkpt lat="39.431559" lon="-2.8691718"><ele>672.0</ele><time>2026-04-19T08:27:39.38Z</time></trkpt><trkpt lat="39.4314764" lon="-2.8692681"><ele>672.2</ele><time>2026-04-19T08:27:40.376Z</time></trkpt><trkpt lat="39.4314051" lon="-2.8693749"><ele>672.4000000000001</ele><time>2026-04-19T08:27:41.372Z</time></trkpt><trkpt lat="39.4313423" lon="-2.8694944"><ele>672.5999999999999</ele><time>2026-04-19T08:27:42.375Z</time></trkpt><trkpt lat="39.4312843" lon="-2.8696199"><ele>672.8</ele><time>2026-04-19T08:27:43.377Z</time></trkpt><trkpt lat="39.4312278" lon="-2.8697402"><ele>673.0</ele><time>2026-04-19T08:27:44.375Z</time></trkpt><trkpt lat="39.431178" lon="-2.869855"><ele>672.5999999999999</ele><time>2026-04-19T08:27:45.384Z</time></trkpt><trkpt lat="39.4311383" lon="-2.8699644"><ele>672.1999999999999</ele><time>2026-04-19T08:27:46.375Z</time></trkpt><trkpt lat="39.4310932" lon="-2.8700607"><ele>671.8</ele><time>2026-04-19T08:27:47.377Z</time></trkpt><trkpt lat="39.4310337" lon="-2.870138"><ele>671.4</ele><time>2026-04-19T08:27:48.38Z</time></trkpt><trkpt lat="39.430954" lon="-2.8701908"><ele>671.0</ele><time>2026-04-19T08:27:49.374Z</time></trkpt><trkpt lat="39.4308466" lon="-2.8702238"><ele>671.0</ele><time>2026-04-19T08:27:50.378Z</time></trkpt><trkpt lat="39.4307112" lon="-2.8702428"><ele>671.0</ele><time>2026-04-19T08:27:51.374Z</time></trkpt><trkpt lat="39.4305753" lon="-2.8702648"><ele>671.0</ele><time>2026-04-19T08:27:52.371Z</time></trkpt><trkpt lat="39.4304464" lon="-2.8702917"><ele>671.0</ele><time>2026-04-19T08:27:53.369Z</time></trkpt><trkpt lat="39.4303165" lon="-2.8703293"><ele>671.0</ele><time>2026-04-19T08:27:54.379Z</time></trkpt><trkpt lat="39.4301934" lon="-2.870389"><ele>671.0</ele><time>2026-04-19T08:27:55.377Z</time></trkpt><trkpt lat="39.4300689" lon="-2.8704755"><ele>671.0</ele><time>2026-04-19T08:27:56.375Z</time></trkpt><trkpt lat="39.4299413" lon="-2.8705767"><ele>671.0</ele><time>2026-04-19T08:27:57.376Z</time></trkpt><trkpt lat="39.4298142" lon="-2.8706692"><ele>671.0</ele><time>2026-04-19T08:27:58.374Z</time></trkpt><trkpt lat="39.4296791" lon="-2.8707559"><ele>671.0</ele><time>2026-04-19T08:27:59.381Z</time></trkpt><trkpt lat="39.4295367" lon="-2.8708321"><ele>671.0</ele><time>2026-04-19T08:28:00.371Z</time></trkpt><trkpt lat="39.4293782" lon="-2.8709021"><ele>670.6666666666666</ele><time>2026-04-19T08:28:01.372Z</time></trkpt><trkpt lat="39.4292163" lon="-2.8709714"><ele>670.3333333333334</ele><time>2026-04-19T08:28:02.38Z</time></trkpt><trkpt lat="39.4290617" lon="-2.8710392"><ele>670.0</ele><time>2026-04-19T08:28:03.374Z</time></trkpt><trkpt lat="39.4289135" lon="-2.8711388"><ele>670.3333333333334</ele><time>2026-04-19T08:28:04.374Z</time></trkpt><trkpt lat="39.428767" lon="-2.871233"><ele>670.6666666666666</ele><time>2026-04-19T08:28:05.377Z</time></trkpt><trkpt lat="39.4286207" lon="-2.8713294"><ele>671.0</ele><time>2026-04-19T08:28:06.378Z</time></trkpt><trkpt lat="39.4284659" lon="-2.8714192"><ele>671.0</ele><time>2026-04-19T08:28:07.378Z</time></trkpt><trkpt lat="39.4283059" lon="-2.8715051"><ele>671.0</ele><time>2026-04-19T08:28:08.378Z</time></trkpt><trkpt lat="39.4281337" lon="-2.8715876"><ele>671.0</ele><time>2026-04-19T08:28:09.377Z</time></trkpt><trkpt lat="39.4279541" lon="-2.8716567"><ele>670.3333333333333</ele><time>2026-04-19T08:28:10.374Z</time></trkpt><trkpt lat="39.4277721" lon="-2.8717175"><ele>669.6666666666666</ele><time>2026-04-19T08:28:11.377Z</time></trkpt><trkpt lat="39.4275893" lon="-2.8717747"><ele>669.0</ele><time>2026-04-19T08:28:12.372Z</time></trkpt><trkpt lat="39.4274023" lon="-2.8718274"><ele>669.0</ele><time>2026-04-19T08:28:13.379Z</time></trkpt><trkpt lat="39.4272222" lon="-2.8718835"><ele>669.0</ele><time>2026-04-19T08:28:14.372Z</time></trkpt><trkpt lat="39.4270434" lon="-2.8719468"><ele>669.0</ele><time>2026-04-19T08:28:15.374Z</time></trkpt><trkpt lat="39.4268725" lon="-2.8720085"><ele>669.0</ele><time>2026-04-19T08:28:16.375Z</time></trkpt><trkpt lat="39.4266995" lon="-2.8720634"><ele>669.0</ele><time>2026-04-19T08:28:17.377Z</time></trkpt><trkpt lat="39.4265201" lon="-2.8721138"><ele>669.0</ele><time>2026-04-19T08:28:18.371Z</time></trkpt><trkpt lat="39.4263444" lon="-2.8721639"><ele>670.0</ele><time>2026-04-19T08:28:19.369Z</time></trkpt><trkpt lat="39.4261752" lon="-2.872219"><ele>671.0</ele><time>2026-04-19T08:28:20.374Z</time></trkpt><trkpt lat="39.4260085" lon="-2.8722807"><ele>672.0</ele><time>2026-04-19T08:28:21.366Z</time></trkpt><trkpt lat="39.4258403" lon="-2.8723434"><ele>672.0</ele><time>2026-04-19T08:28:22.38Z</time></trkpt><trkpt lat="39.4256697" lon="-2.8724038"><ele>672.0</ele><time>2026-04-19T08:28:23.376Z</time></trkpt><trkpt lat="39.4255003" lon="-2.8724541"><ele>672.0</ele><time>2026-04-19T08:28:24.368Z</time></trkpt><trkpt lat="39.42533" lon="-2.872492"><ele>671.6666666666666</ele><time>2026-04-19T08:28:25.367Z</time></trkpt><trkpt lat="39.4251611" lon="-2.8725172"><ele>671.3333333333333</ele><time>2026-04-19T08:28:26.371Z</time></trkpt><trkpt lat="39.4249919" lon="-2.872528"><ele>671.0</ele><time>2026-04-19T08:28:27.371Z</time></trkpt><trkpt lat="39.4248275" lon="-2.8725246"><ele>671.0</ele><time>2026-04-19T08:28:28.386Z</time></trkpt><trkpt lat="39.424669" lon="-2.8725181"><ele>671.0</ele><time>2026-04-19T08:28:29.373Z</time></trkpt><trkpt lat="39.4245168" lon="-2.8725214"><ele>671.0</ele><time>2026-04-19T08:28:30.381Z</time></trkpt><trkpt lat="39.4243676" lon="-2.8725365"><ele>671.0</ele><time>2026-04-19T08:28:31.376Z</time></trkpt><trkpt lat="39.4242154" lon="-2.8725621"><ele>671.0</ele><time>2026-04-19T08:28:32.368Z</time></trkpt><trkpt lat="39.4240598" lon="-2.8725888"><ele>671.0</ele><time>2026-04-19T08:28:33.376Z</time></trkpt><trkpt lat="39.4238972" lon="-2.872606"><ele>670.3333333333333</ele><time>2026-04-19T08:28:34.365Z</time></trkpt><trkpt lat="39.4237242" lon="-2.8725906"><ele>669.6666666666666</ele><time>2026-04-19T08:28:35.374Z</time></trkpt><trkpt lat="39.4235375" lon="-2.8725853"><ele>669.0</ele><time>2026-04-19T08:28:36.376Z</time></trkpt><trkpt lat="39.4233543" lon="-2.8725867"><ele>669.0</ele><time>2026-04-19T08:28:37.368Z</time></trkpt><trkpt lat="39.4231825" lon="-2.8725876"><ele>669.0</ele><time>2026-04-19T08:28:38.376Z</time></trkpt><trkpt lat="39.4230122" lon="-2.8725891"><ele>669.0</ele><time>2026-04-19T08:28:39.372Z</time></trkpt><trkpt lat="39.4228506" lon="-2.8725857"><ele>669.3333333333334</ele><time>2026-04-19T08:28:40.368Z</time></trkpt><trkpt lat="39.4226905" lon="-2.8725793"><ele>669.6666666666667</ele><time>2026-04-19T08:28:41.371Z</time></trkpt><trkpt lat="39.4225385" lon="-2.8725643"><ele>670.0</ele><time>2026-04-19T08:28:42.367Z</time></trkpt><trkpt lat="39.4223951" lon="-2.8725477"><ele>670.0</ele><time>2026-04-19T08:28:43.372Z</time></trkpt><trkpt lat="39.422256" lon="-2.8725323"><ele>670.0</ele><time>2026-04-19T08:28:44.363Z</time></trkpt><trkpt lat="39.4221199" lon="-2.8725138"><ele>670.0</ele><time>2026-04-19T08:28:45.376Z</time></trkpt><trkpt lat="39.4219827" lon="-2.872492"><ele>670.0</ele><time>2026-04-19T08:28:46.374Z</time></trkpt><trkpt lat="39.4218435" lon="-2.8724784"><ele>670.5</ele><time>2026-04-19T08:28:47.367Z</time></trkpt><trkpt lat="39.4217002" lon="-2.8724762"><ele>671.0</ele><time>2026-04-19T08:28:48.373Z</time></trkpt><trkpt lat="39.421552" lon="-2.8724763"><ele>671.5</ele><time>2026-04-19T08:28:49.374Z</time></trkpt><trkpt lat="39.4213948" lon="-2.8724681"><ele>672.0</ele><time>2026-04-19T08:28:50.37Z</time></trkpt><trkpt lat="39.4212445" lon="-2.8724669"><ele>672.0</ele><time>2026-04-19T08:28:51.37Z</time></trkpt><trkpt lat="39.4210851" lon="-2.8724692"><ele>672.0</ele><time>2026-04-19T08:28:52.375Z</time></trkpt><trkpt lat="39.4209243" lon="-2.8724753"><ele>672.0</ele><time>2026-04-19T08:28:53.379Z</time></trkpt><trkpt lat="39.4207708" lon="-2.872479"><ele>672.0</ele><time>2026-04-19T08:28:54.378Z</time></trkpt><trkpt lat="39.4206223" lon="-2.8724848"><ele>672.0</ele><time>2026-04-19T08:28:55.371Z</time></trkpt><trkpt lat="39.420478" lon="-2.8724821"><ele>672.0</ele><time>2026-04-19T08:28:56.386Z</time></trkpt><trkpt lat="39.420345" lon="-2.8724761"><ele>672.0</ele><time>2026-04-19T08:28:57.386Z</time></trkpt><trkpt lat="39.4202122" lon="-2.872472"><ele>672.0</ele><time>2026-04-19T08:28:58.367Z</time></trkpt><trkpt lat="39.4200731" lon="-2.8724689"><ele>672.0</ele><time>2026-04-19T08:28:59.376Z</time></trkpt><trkpt lat="39.4199354" lon="-2.8724637"><ele>672.0</ele><time>2026-04-19T08:29:00.374Z</time></trkpt><trkpt lat="39.4198027" lon="-2.8724615"><ele>672.0</ele><time>2026-04-19T08:29:01.372Z</time></trkpt><trkpt lat="39.4196772" lon="-2.8724628"><ele>672.0</ele><time>2026-04-19T08:29:02.371Z</time></trkpt><trkpt lat="39.4195509" lon="-2.8724713"><ele>672.0</ele><time>2026-04-19T08:29:03.373Z</time></trkpt><trkpt lat="39.4194214" lon="-2.8724863"><ele>672.0</ele><time>2026-04-19T08:29:04.368Z</time></trkpt><trkpt lat="39.419293" lon="-2.8725055"><ele>672.0</ele><time>2026-04-19T08:29:05.367Z</time></trkpt><trkpt lat="39.4191724" lon="-2.8725301"><ele>672.0</ele><time>2026-04-19T08:29:06.377Z</time></trkpt><trkpt lat="39.4190637" lon="-2.8725562"><ele>672.0</ele><time>2026-04-19T08:29:07.372Z</time></trkpt><trkpt lat="39.4189628" lon="-2.872582"><ele>672.0</ele><time>2026-04-19T08:29:08.375Z</time></trkpt><trkpt lat="39.4188701" lon="-2.8726067"><ele>672.0</ele><time>2026-04-19T08:29:09.37Z</time></trkpt><trkpt lat="39.4187823" lon="-2.8726298"><ele>672.0</ele><time>2026-04-19T08:29:10.378Z</time></trkpt><trkpt lat="39.4186984" lon="-2.8726494"><ele>672.8333333333334</ele><time>2026-04-19T08:29:11.386Z</time></trkpt><trkpt lat="39.4186187" lon="-2.8726672"><ele>673.6666666666666</ele><time>2026-04-19T08:29:12.371Z</time></trkpt><trkpt lat="39.4185415" lon="-2.8726839"><ele>674.5</ele><time>2026-04-19T08:29:13.385Z</time></trkpt><trkpt lat="39.4184666" lon="-2.8726975"><ele>675.3333333333333</ele><time>2026-04-19T08:29:14.383Z</time></trkpt><trkpt lat="39.4183949" lon="-2.8727098"><ele>676.1666666666666</ele><time>2026-04-19T08:29:15.372Z</time></trkpt><trkpt lat="39.4183265" lon="-2.8727249"><ele>677.0</ele><time>2026-04-19T08:29:16.372Z</time></trkpt><trkpt lat="39.4182555" lon="-2.8727472"><ele>677.0</ele><time>2026-04-19T08:29:17.37Z</time></trkpt><trkpt lat="39.4181861" lon="-2.8727729"><ele>677.0</ele><time>2026-04-19T08:29:18.378Z</time></trkpt><trkpt lat="39.4180786" lon="-2.8728151"><ele>677.0</ele><time>2026-04-19T08:29:20.378Z</time></trkpt><trkpt lat="39.418012" lon="-2.8728432"><ele>677.0</ele><time>2026-04-19T08:29:22.381Z</time></trkpt><trkpt lat="39.417942" lon="-2.8728711"><ele>677.0</ele><time>2026-04-19T08:35:15.362Z</time></trkpt><trkpt lat="39.4178229" lon="-2.8729196"><ele>676.6</ele><time>2026-04-19T08:35:17.38Z</time></trkpt><trkpt lat="39.4177147" lon="-2.8729567"><ele>676.2</ele><time>2026-04-19T08:35:19.386Z</time></trkpt><trkpt lat="39.4175881" lon="-2.8729982"><ele>675.8</ele><time>2026-04-19T08:35:21.39Z</time></trkpt><trkpt lat="39.4175065" lon="-2.8730171"><ele>675.4</ele><time>2026-04-19T08:35:22.382Z</time></trkpt><trkpt lat="39.4174141" lon="-2.8730324"><ele>675.0</ele><time>2026-04-19T08:35:23.375Z</time></trkpt><trkpt lat="39.4173105" lon="-2.873046"><ele>675.0</ele><time>2026-04-19T08:35:24.373Z</time></trkpt><trkpt lat="39.4171967" lon="-2.8730673"><ele>675.0</ele><time>2026-04-19T08:35:25.38Z</time></trkpt><trkpt lat="39.4170909" lon="-2.8730963"><ele>675.0</ele><time>2026-04-19T08:35:26.37Z</time></trkpt><trkpt lat="39.4169986" lon="-2.8731291"><ele>675.0</ele><time>2026-04-19T08:35:27.385Z</time></trkpt><trkpt lat="39.416918" lon="-2.8731602"><ele>675.0</ele><time>2026-04-19T08:35:28.375Z</time></trkpt><trkpt lat="39.4168411" lon="-2.8731986"><ele>675.2</ele><time>2026-04-19T08:35:29.38Z</time></trkpt><trkpt lat="39.4167607" lon="-2.8732457"><ele>675.4</ele><time>2026-04-19T08:35:30.372Z</time></trkpt><trkpt lat="39.4166771" lon="-2.873299"><ele>675.5999999999999</ele><time>2026-04-19T08:35:31.381Z</time></trkpt><trkpt lat="39.416584" lon="-2.8733615"><ele>675.8</ele><time>2026-04-19T08:35:32.381Z</time></trkpt><trkpt lat="39.4164857" lon="-2.8734274"><ele>676.0</ele><time>2026-04-19T08:35:33.381Z</time></trkpt><trkpt lat="39.4163878" lon="-2.8734926"><ele>675.5</ele><time>2026-04-19T08:35:34.375Z</time></trkpt><trkpt lat="39.4162923" lon="-2.8735599"><ele>675.0</ele><time>2026-04-19T08:35:35.378Z</time></trkpt><trkpt lat="39.4161963" lon="-2.8736363"><ele>674.5</ele><time>2026-04-19T08:35:36.378Z</time></trkpt><trkpt lat="39.4160997" lon="-2.8737219"><ele>674.0</ele><time>2026-04-19T08:35:37.379Z</time></trkpt><trkpt lat="39.4160021" lon="-2.8738163"><ele>674.0</ele><time>2026-04-19T08:35:38.374Z</time></trkpt><trkpt lat="39.4158995" lon="-2.8739151"><ele>674.0</ele><time>2026-04-19T08:35:39.378Z</time></trkpt><trkpt lat="39.4157939" lon="-2.8740146"><ele>674.0</ele><time>2026-04-19T08:35:40.381Z</time></trkpt><trkpt lat="39.4156861" lon="-2.8741161"><ele>674.0</ele><time>2026-04-19T08:35:41.378Z</time></trkpt><trkpt lat="39.4155835" lon="-2.8742181"><ele>674.0</ele><time>2026-04-19T08:35:42.382Z</time></trkpt><trkpt lat="39.4154853" lon="-2.8743204"><ele>674.0</ele><time>2026-04-19T08:35:43.376Z</time></trkpt><trkpt lat="39.4153821" lon="-2.8744239"><ele>674.0</ele><time>2026-04-19T08:35:44.375Z</time></trkpt><trkpt lat="39.4152822" lon="-2.8745212"><ele>674.0</ele><time>2026-04-19T08:35:45.375Z</time></trkpt><trkpt lat="39.4151876" lon="-2.8746063"><ele>674.0</ele><time>2026-04-19T08:35:46.37Z</time></trkpt><trkpt lat="39.4150957" lon="-2.8746738"><ele>674.0</ele><time>2026-04-19T08:35:47.379Z</time></trkpt><trkpt lat="39.4149993" lon="-2.8747251"><ele>674.0</ele><time>2026-04-19T08:35:48.383Z</time></trkpt><trkpt lat="39.4148984" lon="-2.8747656"><ele>674.0</ele><time>2026-04-19T08:35:49.378Z</time></trkpt><trkpt lat="39.4147991" lon="-2.8747968"><ele>674.0</ele><time>2026-04-19T08:35:50.38Z</time></trkpt><trkpt lat="39.414695" lon="-2.8748212"><ele>673.5</ele><time>2026-04-19T08:35:51.377Z</time></trkpt><trkpt lat="39.4145812" lon="-2.8748421"><ele>673.0</ele><time>2026-04-19T08:35:52.374Z</time></trkpt><trkpt lat="39.4144586" lon="-2.8748621"><ele>672.5</ele><time>2026-04-19T08:35:53.376Z</time></trkpt><trkpt lat="39.4143398" lon="-2.8748789"><ele>672.0</ele><time>2026-04-19T08:35:54.377Z</time></trkpt><trkpt lat="39.4142159" lon="-2.8748972"><ele>672.0</ele><time>2026-04-19T08:35:55.381Z</time></trkpt><trkpt lat="39.4140838" lon="-2.8749164"><ele>672.0</ele><time>2026-04-19T08:35:56.372Z</time></trkpt><trkpt lat="39.4139442" lon="-2.8749392"><ele>672.0</ele><time>2026-04-19T08:35:57.375Z</time></trkpt><trkpt lat="39.413802" lon="-2.8749701"><ele>672.0</ele><time>2026-04-19T08:35:58.38Z</time></trkpt><trkpt lat="39.4136597" lon="-2.874999"><ele>672.25</ele><time>2026-04-19T08:35:59.372Z</time></trkpt><trkpt lat="39.4135101" lon="-2.8750226"><ele>672.5</ele><time>2026-04-19T08:36:00.375Z</time></trkpt><trkpt lat="39.4133677" lon="-2.8750396"><ele>672.75</ele><time>2026-04-19T08:36:01.38Z</time></trkpt><trkpt lat="39.4132358" lon="-2.8750527"><ele>673.0</ele><time>2026-04-19T08:36:02.379Z</time></trkpt><trkpt lat="39.4131101" lon="-2.875064"><ele>673.0</ele><time>2026-04-19T08:36:03.387Z</time></trkpt><trkpt lat="39.412992" lon="-2.8750697"><ele>673.0</ele><time>2026-04-19T08:36:04.377Z</time></trkpt><trkpt lat="39.4128854" lon="-2.8750734"><ele>673.0</ele><time>2026-04-19T08:36:05.376Z</time></trkpt><trkpt lat="39.4127882" lon="-2.8750826"><ele>673.0</ele><time>2026-04-19T08:36:06.379Z</time></trkpt><trkpt lat="39.4126905" lon="-2.8750995"><ele>673.0</ele><time>2026-04-19T08:36:07.378Z</time></trkpt><trkpt lat="39.4125917" lon="-2.8751221"><ele>674.0</ele><time>2026-04-19T08:36:08.377Z</time></trkpt><trkpt lat="39.4124912" lon="-2.8751466"><ele>675.0</ele><time>2026-04-19T08:36:09.369Z</time></trkpt><trkpt lat="39.412385" lon="-2.8751679"><ele>676.0</ele><time>2026-04-19T08:36:10.378Z</time></trkpt><trkpt lat="39.4122747" lon="-2.8751802"><ele>677.0</ele><time>2026-04-19T08:36:11.371Z</time></trkpt><trkpt lat="39.4121608" lon="-2.875187"><ele>678.0</ele><time>2026-04-19T08:36:12.377Z</time></trkpt><trkpt lat="39.412043" lon="-2.8751918"><ele>678.4</ele><time>2026-04-19T08:36:13.371Z</time></trkpt><trkpt lat="39.4119309" lon="-2.875195"><ele>678.8</ele><time>2026-04-19T08:36:14.373Z</time></trkpt><trkpt lat="39.4118266" lon="-2.8751966"><ele>679.2</ele><time>2026-04-19T08:36:15.375Z</time></trkpt><trkpt lat="39.4117301" lon="-2.8751988"><ele>679.6</ele><time>2026-04-19T08:36:16.379Z</time></trkpt><trkpt lat="39.4116381" lon="-2.8752003"><ele>680.0</ele><time>2026-04-19T08:36:17.378Z</time></trkpt><trkpt lat="39.4115493" lon="-2.8752038"><ele>680.0</ele><time>2026-04-19T08:36:18.375Z</time></trkpt><trkpt lat="39.4114641" lon="-2.8752217"><ele>680.0</ele><time>2026-04-19T08:36:19.379Z</time></trkpt><trkpt lat="39.411384" lon="-2.87526"><ele>680.0</ele><time>2026-04-19T08:36:20.372Z</time></trkpt><trkpt lat="39.4113082" lon="-2.8753185"><ele>680.0</ele><time>2026-04-19T08:36:21.375Z</time></trkpt><trkpt lat="39.4112361" lon="-2.8753977"><ele>680.0</ele><time>2026-04-19T08:36:22.374Z</time></trkpt><trkpt lat="39.4111691" lon="-2.8754964"><ele>680.0</ele><time>2026-04-19T08:36:23.378Z</time></trkpt><trkpt lat="39.4111081" lon="-2.8756147"><ele>680.0</ele><time>2026-04-19T08:36:24.378Z</time></trkpt><trkpt lat="39.4110542" lon="-2.8757571"><ele>680.0</ele><time>2026-04-19T08:36:25.381Z</time></trkpt><trkpt lat="39.4110056" lon="-2.8759198"><ele>680.0</ele><time>2026-04-19T08:36:26.377Z</time></trkpt><trkpt lat="39.4109539" lon="-2.8760995"><ele>680.0</ele><time>2026-04-19T08:36:27.377Z</time></trkpt><trkpt lat="39.4108926" lon="-2.8762951"><ele>680.0</ele><time>2026-04-19T08:36:28.372Z</time></trkpt><trkpt lat="39.4108303" lon="-2.876486"><ele>680.0</ele><time>2026-04-19T08:36:29.378Z</time></trkpt><trkpt lat="39.4107704" lon="-2.8766676"><ele>679.75</ele><time>2026-04-19T08:36:30.375Z</time></trkpt><trkpt lat="39.4107134" lon="-2.8768398"><ele>679.5</ele><time>2026-04-19T08:36:31.386Z</time></trkpt><trkpt lat="39.4106597" lon="-2.877004"><ele>679.25</ele><time>2026-04-19T08:36:32.373Z</time></trkpt><trkpt lat="39.4105954" lon="-2.8771682"><ele>679.0</ele><time>2026-04-19T08:36:33.379Z</time></trkpt><trkpt lat="39.4105098" lon="-2.8773321"><ele>679.0</ele><time>2026-04-19T08:36:34.373Z</time></trkpt><trkpt lat="39.4103981" lon="-2.8775"><ele>679.0</ele><time>2026-04-19T08:36:35.379Z</time></trkpt><trkpt lat="39.4102656" lon="-2.8776737"><ele>679.0</ele><time>2026-04-19T08:36:36.377Z</time></trkpt><trkpt lat="39.4101416" lon="-2.8778351"><ele>679.0</ele><time>2026-04-19T08:36:37.38Z</time></trkpt><trkpt lat="39.4100283" lon="-2.8779855"><ele>679.0</ele><time>2026-04-19T08:36:38.378Z</time></trkpt><trkpt lat="39.4099221" lon="-2.8781175"><ele>679.0</ele><time>2026-04-19T08:36:39.377Z</time></trkpt><trkpt lat="39.409817" lon="-2.8782293"><ele>679.0</ele><time>2026-04-19T08:36:40.38Z</time></trkpt><trkpt lat="39.4097096" lon="-2.8783207"><ele>678.75</ele><time>2026-04-19T08:36:41.373Z</time></trkpt><trkpt lat="39.4095903" lon="-2.8783927"><ele>678.5</ele><time>2026-04-19T08:36:42.378Z</time></trkpt><trkpt lat="39.409456" lon="-2.8784417"><ele>678.25</ele><time>2026-04-19T08:36:43.382Z</time></trkpt><trkpt lat="39.4093079" lon="-2.8784681"><ele>678.0</ele><time>2026-04-19T08:36:44.383Z</time></trkpt><trkpt lat="39.4091616" lon="-2.8784754"><ele>678.0</ele><time>2026-04-19T08:36:45.377Z</time></trkpt><trkpt lat="39.4090121" lon="-2.8784712"><ele>678.0</ele><time>2026-04-19T08:36:46.378Z</time></trkpt><trkpt lat="39.4088612" lon="-2.8784616"><ele>678.0</ele><time>2026-04-19T08:36:47.374Z</time></trkpt><trkpt lat="39.408706" lon="-2.8784519"><ele>678.0</ele><time>2026-04-19T08:36:48.37Z</time></trkpt><trkpt lat="39.4085522" lon="-2.8784536"><ele>678.0</ele><time>2026-04-19T08:36:49.374Z</time></trkpt><trkpt lat="39.4083963" lon="-2.8784631"><ele>678.0</ele><time>2026-04-19T08:36:50.373Z</time></trkpt><trkpt lat="39.4082411" lon="-2.8784799"><ele>678.0</ele><time>2026-04-19T08:36:51.373Z</time></trkpt><trkpt lat="39.4080738" lon="-2.8785078"><ele>678.0</ele><time>2026-04-19T08:36:52.372Z</time></trkpt><trkpt lat="39.4078972" lon="-2.8785376"><ele>678.0</ele><time>2026-04-19T08:36:53.377Z</time></trkpt><trkpt lat="39.4077221" lon="-2.8785545"><ele>678.3333333333334</ele><time>2026-04-19T08:36:54.378Z</time></trkpt><trkpt lat="39.4075452" lon="-2.8785509"><ele>678.6666666666667</ele><time>2026-04-19T08:36:55.374Z</time></trkpt><trkpt lat="39.4073754" lon="-2.8785386"><ele>679.0</ele><time>2026-04-19T08:36:56.375Z</time></trkpt><trkpt lat="39.4072097" lon="-2.878535"><ele>678.3333333333334</ele><time>2026-04-19T08:36:57.375Z</time></trkpt><trkpt lat="39.4070492" lon="-2.8785493"><ele>677.6666666666666</ele><time>2026-04-19T08:36:58.377Z</time></trkpt><trkpt lat="39.4068895" lon="-2.8785763"><ele>677.0</ele><time>2026-04-19T08:36:59.371Z</time></trkpt><trkpt lat="39.4067284" lon="-2.8786011"><ele>677.0</ele><time>2026-04-19T08:37:00.371Z</time></trkpt><trkpt lat="39.4065572" lon="-2.8786133"><ele>677.0</ele><time>2026-04-19T08:37:01.372Z</time></trkpt><trkpt lat="39.4063866" lon="-2.8786116"><ele>677.0</ele><time>2026-04-19T08:37:02.378Z</time></trkpt><trkpt lat="39.4062202" lon="-2.8786029"><ele>676.6666666666666</ele><time>2026-04-19T08:37:03.378Z</time></trkpt><trkpt lat="39.406059" lon="-2.8785917"><ele>676.3333333333334</ele><time>2026-04-19T08:37:04.37Z</time></trkpt><trkpt lat="39.4059036" lon="-2.8785839"><ele>676.0</ele><time>2026-04-19T08:37:05.372Z</time></trkpt><trkpt lat="39.4057458" lon="-2.8785795"><ele>676.0</ele><time>2026-04-19T08:37:06.377Z</time></trkpt><trkpt lat="39.4055827" lon="-2.8785729"><ele>676.0</ele><time>2026-04-19T08:37:07.383Z</time></trkpt><trkpt lat="39.4054176" lon="-2.8785651"><ele>676.0</ele><time>2026-04-19T08:37:08.378Z</time></trkpt><trkpt lat="39.4052564" lon="-2.8785562"><ele>676.0</ele><time>2026-04-19T08:37:09.375Z</time></trkpt><trkpt lat="39.4050929" lon="-2.8785437"><ele>676.0</ele><time>2026-04-19T08:37:10.373Z</time></trkpt><trkpt lat="39.4049256" lon="-2.8785323"><ele>676.0</ele><time>2026-04-19T08:37:11.375Z</time></trkpt><trkpt lat="39.4047545" lon="-2.8785262"><ele>676.0</ele><time>2026-04-19T08:37:12.369Z</time></trkpt><trkpt lat="39.4045813" lon="-2.8785204"><ele>676.0</ele><time>2026-04-19T08:37:13.375Z</time></trkpt><trkpt lat="39.4044045" lon="-2.8785082"><ele>676.0</ele><time>2026-04-19T08:37:14.37Z</time></trkpt><trkpt lat="39.404226" lon="-2.8784934"><ele>676.0</ele><time>2026-04-19T08:37:15.368Z</time></trkpt><trkpt lat="39.4040472" lon="-2.8784832"><ele>676.0</ele><time>2026-04-19T08:37:16.374Z</time></trkpt><trkpt lat="39.4038699" lon="-2.8784759"><ele>676.0</ele><time>2026-04-19T08:37:17.376Z</time></trkpt><trkpt lat="39.4036934" lon="-2.8784717"><ele>675.0</ele><time>2026-04-19T08:37:18.378Z</time></trkpt><trkpt lat="39.4035228" lon="-2.878465"><ele>674.0</ele><time>2026-04-19T08:37:19.38Z</time></trkpt><trkpt lat="39.4033615" lon="-2.8784574"><ele>673.0</ele><time>2026-04-19T08:37:20.371Z</time></trkpt><trkpt lat="39.4032052" lon="-2.8784717"><ele>673.0</ele><time>2026-04-19T08:37:21.373Z</time></trkpt><trkpt lat="39.403051" lon="-2.8785162"><ele>673.0</ele><time>2026-04-19T08:37:22.375Z</time></trkpt><trkpt lat="39.4028985" lon="-2.8785763"><ele>673.0</ele><time>2026-04-19T08:37:23.371Z</time></trkpt><trkpt lat="39.4027412" lon="-2.8786393"><ele>673.3333333333334</ele><time>2026-04-19T08:37:24.391Z</time></trkpt><trkpt lat="39.4025742" lon="-2.878704"><ele>673.6666666666666</ele><time>2026-04-19T08:37:25.376Z</time></trkpt><trkpt lat="39.4024062" lon="-2.8787632"><ele>674.0</ele><time>2026-04-19T08:37:26.38Z</time></trkpt><trkpt lat="39.4022401" lon="-2.8788142"><ele>673.6666666666666</ele><time>2026-04-19T08:37:27.387Z</time></trkpt><trkpt lat="39.4020675" lon="-2.8788564"><ele>673.3333333333334</ele><time>2026-04-19T08:37:28.382Z</time></trkpt><trkpt lat="39.4018889" lon="-2.8789051"><ele>673.0</ele><time>2026-04-19T08:37:29.385Z</time></trkpt><trkpt lat="39.4017015" lon="-2.878975"><ele>673.0</ele><time>2026-04-19T08:37:30.375Z</time></trkpt><trkpt lat="39.4015044" lon="-2.879053"><ele>673.0</ele><time>2026-04-19T08:37:31.391Z</time></trkpt><trkpt lat="39.4013089" lon="-2.8791348"><ele>673.0</ele><time>2026-04-19T08:37:32.372Z</time></trkpt><trkpt lat="39.4011204" lon="-2.8792192"><ele>673.3333333333334</ele><time>2026-04-19T08:37:33.381Z</time></trkpt><trkpt lat="39.400941" lon="-2.8792979"><ele>673.6666666666666</ele><time>2026-04-19T08:37:34.376Z</time></trkpt><trkpt lat="39.4007715" lon="-2.8793776"><ele>674.0</ele><time>2026-04-19T08:37:35.381Z</time></trkpt><trkpt lat="39.4006082" lon="-2.8794724"><ele>673.3333333333333</ele><time>2026-04-19T08:37:36.373Z</time></trkpt><trkpt lat="39.4004566" lon="-2.879574"><ele>672.6666666666666</ele><time>2026-04-19T08:37:37.378Z</time></trkpt><trkpt lat="39.4003169" lon="-2.8796707"><ele>672.0</ele><time>2026-04-19T08:37:38.374Z</time></trkpt><trkpt lat="39.4001887" lon="-2.8797506"><ele>672.0</ele><time>2026-04-19T08:37:39.382Z</time></trkpt><trkpt lat="39.4000704" lon="-2.8798056"><ele>672.0</ele><time>2026-04-19T08:37:40.377Z</time></trkpt><trkpt lat="39.3999567" lon="-2.879837"><ele>672.0</ele><time>2026-04-19T08:37:41.377Z</time></trkpt><trkpt lat="39.3998485" lon="-2.8798508"><ele>672.0</ele><time>2026-04-19T08:37:42.376Z</time></trkpt><trkpt lat="39.3997489" lon="-2.8798556"><ele>672.2</ele><time>2026-04-19T08:37:43.382Z</time></trkpt><trkpt lat="39.3996632" lon="-2.8798574"><ele>672.4000000000001</ele><time>2026-04-19T08:37:44.375Z</time></trkpt><trkpt lat="39.3995934" lon="-2.8798606"><ele>672.5999999999999</ele><time>2026-04-19T08:37:45.378Z</time></trkpt><trkpt lat="39.3994984" lon="-2.879865"><ele>672.8</ele><time>2026-04-19T08:37:47.375Z</time></trkpt><trkpt lat="39.3993797" lon="-2.8798817"><ele>673.0</ele><time>2026-04-19T08:38:00.377Z</time></trkpt><trkpt lat="39.3992925" lon="-2.8799006"><ele>673.0</ele><time>2026-04-19T08:38:02.38Z</time></trkpt><trkpt lat="39.3992231" lon="-2.8799021"><ele>673.0</ele><time>2026-04-19T08:38:03.386Z</time></trkpt><trkpt lat="39.399144" lon="-2.8798982"><ele>673.0</ele><time>2026-04-19T08:38:04.382Z</time></trkpt><trkpt lat="39.3990715" lon="-2.8798911"><ele>673.0</ele><time>2026-04-19T08:38:05.373Z</time></trkpt><trkpt lat="39.3989979" lon="-2.8798733"><ele>673.0</ele><time>2026-04-19T08:38:06.381Z</time></trkpt><trkpt lat="39.3989221" lon="-2.8798515"><ele>673.0</ele><time>2026-04-19T08:38:07.374Z</time></trkpt><trkpt lat="39.3988479" lon="-2.8798416"><ele>673.0</ele><time>2026-04-19T08:38:08.374Z</time></trkpt><trkpt lat="39.3987759" lon="-2.879844"><ele>673.2</ele><time>2026-04-19T08:38:09.393Z</time></trkpt><trkpt lat="39.3987003" lon="-2.8798414"><ele>673.4</ele><time>2026-04-19T08:38:10.372Z</time></trkpt><trkpt lat="39.3986168" lon="-2.8798372"><ele>673.6</ele><time>2026-04-19T08:38:11.374Z</time></trkpt><trkpt lat="39.3985134" lon="-2.879839"><ele>673.8000000000001</ele><time>2026-04-19T08:38:12.38Z</time></trkpt><trkpt lat="39.3983966" lon="-2.879843"><ele>674.0</ele><time>2026-04-19T08:38:13.37Z</time></trkpt><trkpt lat="39.398274" lon="-2.8798494"><ele>674.0</ele><time>2026-04-19T08:38:14.377Z</time></trkpt><trkpt lat="39.3981445" lon="-2.8798515"><ele>674.0</ele><time>2026-04-19T08:38:15.376Z</time></trkpt><trkpt lat="39.3980294" lon="-2.8798693"><ele>674.0</ele><time>2026-04-19T08:38:16.378Z</time></trkpt><trkpt lat="39.3979191" lon="-2.8798965"><ele>674.0</ele><time>2026-04-19T08:38:17.378Z</time></trkpt><trkpt lat="39.3978208" lon="-2.8799301"><ele>674.2</ele><time>2026-04-19T08:38:18.381Z</time></trkpt><trkpt lat="39.3977163" lon="-2.8799787"><ele>674.4000000000001</ele><time>2026-04-19T08:38:19.374Z</time></trkpt><trkpt lat="39.3976126" lon="-2.8800281"><ele>674.6</ele><time>2026-04-19T08:38:20.377Z</time></trkpt><trkpt lat="39.3975113" lon="-2.8800765"><ele>674.8</ele><time>2026-04-19T08:38:21.374Z</time></trkpt><trkpt lat="39.3974072" lon="-2.8801231"><ele>675.0</ele><time>2026-04-19T08:38:22.374Z</time></trkpt><trkpt lat="39.3973007" lon="-2.8801717"><ele>675.0</ele><time>2026-04-19T08:38:23.371Z</time></trkpt><trkpt lat="39.3971966" lon="-2.8802199"><ele>675.0</ele><time>2026-04-19T08:38:24.382Z</time></trkpt><trkpt lat="39.3971014" lon="-2.8802635"><ele>675.0</ele><time>2026-04-19T08:38:25.378Z</time></trkpt><trkpt lat="39.397013" lon="-2.8803002"><ele>675.0</ele><time>2026-04-19T08:38:26.372Z</time></trkpt><trkpt lat="39.3969281" lon="-2.8803374"><ele>675.0</ele><time>2026-04-19T08:38:27.374Z</time></trkpt><trkpt lat="39.3968381" lon="-2.8803808"><ele>674.2</ele><time>2026-04-19T08:38:28.368Z</time></trkpt><trkpt lat="39.3967381" lon="-2.8804306"><ele>673.4</ele><time>2026-04-19T08:38:29.373Z</time></trkpt><trkpt lat="39.3966314" lon="-2.8804847"><ele>672.5999999999999</ele><time>2026-04-19T08:38:30.374Z</time></trkpt><trkpt lat="39.3965295" lon="-2.8805524"><ele>671.8</ele><time>2026-04-19T08:38:31.382Z</time></trkpt><trkpt lat="39.3964343" lon="-2.8806274"><ele>671.0</ele><time>2026-04-19T08:38:32.37Z</time></trkpt><trkpt lat="39.3963423" lon="-2.880702"><ele>670.4</ele><time>2026-04-19T08:38:33.376Z</time></trkpt><trkpt lat="39.396258" lon="-2.8807755"><ele>669.8</ele><time>2026-04-19T08:38:34.377Z</time></trkpt><trkpt lat="39.3961725" lon="-2.8808521"><ele>669.1999999999999</ele><time>2026-04-19T08:38:35.38Z</time></trkpt><trkpt lat="39.3960909" lon="-2.8809275"><ele>668.5999999999999</ele><time>2026-04-19T08:38:36.389Z</time></trkpt><trkpt lat="39.3960066" lon="-2.8809953"><ele>668.0</ele><time>2026-04-19T08:38:37.374Z</time></trkpt><trkpt lat="39.395915" lon="-2.8810383"><ele>668.0</ele><time>2026-04-19T08:38:38.377Z</time></trkpt><trkpt lat="39.3958095" lon="-2.881075"><ele>668.0</ele><time>2026-04-19T08:38:39.376Z</time></trkpt><trkpt lat="39.3956967" lon="-2.8811236"><ele>668.0</ele><time>2026-04-19T08:38:40.38Z</time></trkpt><trkpt lat="39.3955804" lon="-2.8811668"><ele>668.0</ele><time>2026-04-19T08:38:41.38Z</time></trkpt><trkpt lat="39.3954604" lon="-2.8812"><ele>667.5999999999999</ele><time>2026-04-19T08:38:42.374Z</time></trkpt><trkpt lat="39.3953378" lon="-2.8811863"><ele>667.1999999999999</ele><time>2026-04-19T08:38:43.374Z</time></trkpt><trkpt lat="39.3952137" lon="-2.8812036"><ele>666.8</ele><time>2026-04-19T08:38:44.381Z</time></trkpt><trkpt lat="39.3951076" lon="-2.8812241"><ele>666.4</ele><time>2026-04-19T08:38:45.375Z</time></trkpt><trkpt lat="39.3950177" lon="-2.8812424"><ele>666.0</ele><time>2026-04-19T08:38:46.37Z</time></trkpt><trkpt lat="39.3949484" lon="-2.8812594"><ele>666.0</ele><time>2026-04-19T08:38:47.372Z</time></trkpt><trkpt lat="39.3948479" lon="-2.8812835"><ele>666.0</ele><time>2026-04-19T08:38:49.374Z</time></trkpt><trkpt lat="39.394729" lon="-2.8812753"><ele>666.0</ele><time>2026-04-19T08:38:54.368Z</time></trkpt><trkpt lat="39.3946494" lon="-2.8812991"><ele>666.0</ele><time>2026-04-19T08:38:56.375Z</time></trkpt><trkpt lat="39.3945315" lon="-2.8813646"><ele>666.0</ele><time>2026-04-19T08:38:58.368Z</time></trkpt><trkpt lat="39.3944747" lon="-2.8814143"><ele>665.5999999999999</ele><time>2026-04-19T08:38:59.369Z</time></trkpt><trkpt lat="39.3944143" lon="-2.8814752"><ele>665.2</ele><time>2026-04-19T08:39:00.378Z</time></trkpt><trkpt lat="39.3943538" lon="-2.8815493"><ele>664.8</ele><time>2026-04-19T08:39:01.372Z</time></trkpt><trkpt lat="39.3942852" lon="-2.8816315"><ele>664.4000000000001</ele><time>2026-04-19T08:39:02.38Z</time></trkpt><trkpt lat="39.3942058" lon="-2.8817021"><ele>664.0</ele><time>2026-04-19T08:39:03.38Z</time></trkpt><trkpt lat="39.3941155" lon="-2.8817624"><ele>664.0</ele><time>2026-04-19T08:39:04.392Z</time></trkpt><trkpt lat="39.39402" lon="-2.8818343"><ele>664.0</ele><time>2026-04-19T08:39:05.374Z</time></trkpt><trkpt lat="39.3939169" lon="-2.881911"><ele>664.0</ele><time>2026-04-19T08:39:06.375Z</time></trkpt><trkpt lat="39.3938068" lon="-2.8819935"><ele>664.0</ele><time>2026-04-19T08:39:07.375Z</time></trkpt><trkpt lat="39.3936922" lon="-2.8820787"><ele>663.75</ele><time>2026-04-19T08:39:08.385Z</time></trkpt><trkpt lat="39.393577" lon="-2.8821697"><ele>663.5</ele><time>2026-04-19T08:39:09.379Z</time></trkpt><trkpt lat="39.3934538" lon="-2.882261"><ele>663.25</ele><time>2026-04-19T08:39:10.379Z</time></trkpt><trkpt lat="39.3933263" lon="-2.8823583"><ele>663.0</ele><time>2026-04-19T08:39:11.376Z</time></trkpt><trkpt lat="39.3931977" lon="-2.8824601"><ele>663.0</ele><time>2026-04-19T08:39:12.37Z</time></trkpt><trkpt lat="39.3930709" lon="-2.8825615"><ele>663.0</ele><time>2026-04-19T08:39:13.37Z</time></trkpt><trkpt lat="39.3929529" lon="-2.8826558"><ele>663.0</ele><time>2026-04-19T08:39:14.385Z</time></trkpt><trkpt lat="39.3928401" lon="-2.8827445"><ele>663.0</ele><time>2026-04-19T08:39:15.378Z</time></trkpt><trkpt lat="39.3927253" lon="-2.882831"><ele>663.5</ele><time>2026-04-19T08:39:16.386Z</time></trkpt><trkpt lat="39.3926082" lon="-2.8829189"><ele>664.0</ele><time>2026-04-19T08:39:17.379Z</time></trkpt><trkpt lat="39.3924883" lon="-2.8830109"><ele>664.5</ele><time>2026-04-19T08:39:18.374Z</time></trkpt><trkpt lat="39.39237" lon="-2.883114"><ele>665.0</ele><time>2026-04-19T08:39:19.375Z</time></trkpt><trkpt lat="39.3922521" lon="-2.8832122"><ele>664.75</ele><time>2026-04-19T08:39:20.383Z</time></trkpt><trkpt lat="39.3921389" lon="-2.8833018"><ele>664.5</ele><time>2026-04-19T08:39:21.373Z</time></trkpt><trkpt lat="39.3920349" lon="-2.8833862"><ele>664.25</ele><time>2026-04-19T08:39:22.371Z</time></trkpt><trkpt lat="39.3919349" lon="-2.8834696"><ele>664.0</ele><time>2026-04-19T08:39:23.373Z</time></trkpt><trkpt lat="39.3918338" lon="-2.8835521"><ele>664.5</ele><time>2026-04-19T08:39:24.377Z</time></trkpt><trkpt lat="39.3917307" lon="-2.8836291"><ele>665.0</ele><time>2026-04-19T08:39:25.377Z</time></trkpt><trkpt lat="39.3916246" lon="-2.8836966"><ele>665.5</ele><time>2026-04-19T08:39:26.375Z</time></trkpt><trkpt lat="39.3915137" lon="-2.88376"><ele>666.0</ele><time>2026-04-19T08:39:27.379Z</time></trkpt><trkpt lat="39.391406" lon="-2.883818"><ele>665.75</ele><time>2026-04-19T08:39:28.367Z</time></trkpt><trkpt lat="39.3913014" lon="-2.8838759"><ele>665.5</ele><time>2026-04-19T08:39:29.374Z</time></trkpt><trkpt lat="39.3911988" lon="-2.8839398"><ele>665.25</ele><time>2026-04-19T08:39:30.373Z</time></trkpt><trkpt lat="39.3910954" lon="-2.8840142"><ele>665.0</ele><time>2026-04-19T08:39:31.386Z</time></trkpt><trkpt lat="39.3909955" lon="-2.8840856"><ele>665.0</ele><time>2026-04-19T08:39:32.382Z</time></trkpt><trkpt lat="39.3908961" lon="-2.8841517"><ele>665.0</ele><time>2026-04-19T08:39:33.379Z</time></trkpt><trkpt lat="39.3908023" lon="-2.8842121"><ele>665.0</ele><time>2026-04-19T08:39:34.382Z</time></trkpt><trkpt lat="39.3907134" lon="-2.8842662"><ele>665.0</ele><time>2026-04-19T08:39:35.378Z</time></trkpt><trkpt lat="39.390626" lon="-2.8843065"><ele>665.0</ele><time>2026-04-19T08:39:36.378Z</time></trkpt><trkpt lat="39.390533" lon="-2.8843359"><ele>665.0</ele><time>2026-04-19T08:39:37.373Z</time></trkpt><trkpt lat="39.3904197" lon="-2.8843235"><ele>665.0</ele><time>2026-04-19T08:39:38.376Z</time></trkpt><trkpt lat="39.3903058" lon="-2.8842992"><ele>665.0</ele><time>2026-04-19T08:39:39.379Z</time></trkpt><trkpt lat="39.3901942" lon="-2.8842577"><ele>665.0</ele><time>2026-04-19T08:39:40.374Z</time></trkpt><trkpt lat="39.3900896" lon="-2.8842182"><ele>665.0</ele><time>2026-04-19T08:39:41.382Z</time></trkpt><trkpt lat="39.3899875" lon="-2.8841941"><ele>665.0</ele><time>2026-04-19T08:39:42.374Z</time></trkpt><trkpt lat="39.3898817" lon="-2.8841885"><ele>665.0</ele><time>2026-04-19T08:39:43.376Z</time></trkpt><trkpt lat="39.3897702" lon="-2.884189"><ele>665.0</ele><time>2026-04-19T08:39:44.377Z</time></trkpt><trkpt lat="39.3896504" lon="-2.8841854"><ele>665.0</ele><time>2026-04-19T08:39:45.381Z</time></trkpt><trkpt lat="39.3895249" lon="-2.884169"><ele>665.25</ele><time>2026-04-19T08:39:46.373Z</time></trkpt><trkpt lat="39.3893882" lon="-2.8841568"><ele>665.5</ele><time>2026-04-19T08:39:47.375Z</time></trkpt><trkpt lat="39.3892553" lon="-2.8841456"><ele>665.75</ele><time>2026-04-19T08:39:48.379Z</time></trkpt><trkpt lat="39.3891277" lon="-2.8841361"><ele>666.0</ele><time>2026-04-19T08:39:49.378Z</time></trkpt><trkpt lat="39.3890096" lon="-2.8841234"><ele>666.0</ele><time>2026-04-19T08:39:50.378Z</time></trkpt><trkpt lat="39.3888944" lon="-2.8841096"><ele>666.0</ele><time>2026-04-19T08:39:51.379Z</time></trkpt><trkpt lat="39.3887808" lon="-2.8841056"><ele>666.0</ele><time>2026-04-19T08:39:52.38Z</time></trkpt><trkpt lat="39.3886645" lon="-2.8840961"><ele>666.0</ele><time>2026-04-19T08:39:53.38Z</time></trkpt><trkpt lat="39.3885524" lon="-2.8840788"><ele>665.8</ele><time>2026-04-19T08:39:54.371Z</time></trkpt><trkpt lat="39.3884483" lon="-2.884055"><ele>665.5999999999999</ele><time>2026-04-19T08:39:55.377Z</time></trkpt><trkpt lat="39.3883474" lon="-2.8840414"><ele>665.4</ele><time>2026-04-19T08:39:56.38Z</time></trkpt><trkpt lat="39.3882389" lon="-2.8840443"><ele>665.2</ele><time>2026-04-19T08:39:57.371Z</time></trkpt><trkpt lat="39.3881249" lon="-2.8840582"><ele>665.0</ele><time>2026-04-19T08:39:58.382Z</time></trkpt><trkpt lat="39.3880061" lon="-2.8840798"><ele>665.0</ele><time>2026-04-19T08:39:59.377Z</time></trkpt><trkpt lat="39.3878826" lon="-2.8841085"><ele>665.0</ele><time>2026-04-19T08:40:00.371Z</time></trkpt><trkpt lat="39.387757" lon="-2.8841378"><ele>665.0</ele><time>2026-04-19T08:40:01.379Z</time></trkpt><trkpt lat="39.3876339" lon="-2.8841646"><ele>665.0</ele><time>2026-04-19T08:40:02.387Z</time></trkpt><trkpt lat="39.3875158" lon="-2.8841801"><ele>665.0</ele><time>2026-04-19T08:40:03.384Z</time></trkpt><trkpt lat="39.3874055" lon="-2.8841815"><ele>665.0</ele><time>2026-04-19T08:40:04.375Z</time></trkpt><trkpt lat="39.3872922" lon="-2.8841584"><ele>665.0</ele><time>2026-04-19T08:40:05.373Z</time></trkpt><trkpt lat="39.3871729" lon="-2.8841117"><ele>665.0</ele><time>2026-04-19T08:40:06.376Z</time></trkpt><trkpt lat="39.3870458" lon="-2.8840556"><ele>665.5</ele><time>2026-04-19T08:40:07.377Z</time></trkpt><trkpt lat="39.3869232" lon="-2.8840024"><ele>666.0</ele><time>2026-04-19T08:40:08.377Z</time></trkpt><trkpt lat="39.3868093" lon="-2.8839539"><ele>666.5</ele><time>2026-04-19T08:40:09.383Z</time></trkpt><trkpt lat="39.3867017" lon="-2.8839197"><ele>667.0</ele><time>2026-04-19T08:40:10.375Z</time></trkpt><trkpt lat="39.3866029" lon="-2.8839145"><ele>667.0</ele><time>2026-04-19T08:40:11.374Z</time></trkpt><trkpt lat="39.3865028" lon="-2.8839401"><ele>667.0</ele><time>2026-04-19T08:40:12.38Z</time></trkpt><trkpt lat="39.3863935" lon="-2.8839916"><ele>667.0</ele><time>2026-04-19T08:40:13.377Z</time></trkpt><trkpt lat="39.3862937" lon="-2.8840488"><ele>667.0</ele><time>2026-04-19T08:40:14.374Z</time></trkpt><trkpt lat="39.3862056" lon="-2.8841217"><ele>667.0</ele><time>2026-04-19T08:40:15.38Z</time></trkpt><trkpt lat="39.3861327" lon="-2.8842157"><ele>667.75</ele><time>2026-04-19T08:40:16.376Z</time></trkpt><trkpt lat="39.3860663" lon="-2.8843379"><ele>668.5</ele><time>2026-04-19T08:40:17.374Z</time></trkpt><trkpt lat="39.3859981" lon="-2.8844672"><ele>669.25</ele><time>2026-04-19T08:40:18.38Z</time></trkpt><trkpt lat="39.385923" lon="-2.8845798"><ele>670.0</ele><time>2026-04-19T08:40:19.382Z</time></trkpt><trkpt lat="39.3858338" lon="-2.8846875"><ele>670.0</ele><time>2026-04-19T08:40:20.375Z</time></trkpt><trkpt lat="39.3857343" lon="-2.8847977"><ele>670.0</ele><time>2026-04-19T08:40:21.38Z</time></trkpt><trkpt lat="39.3856249" lon="-2.8849129"><ele>670.0</ele><time>2026-04-19T08:40:22.383Z</time></trkpt><trkpt lat="39.3855092" lon="-2.8850249"><ele>670.0</ele><time>2026-04-19T08:40:23.374Z</time></trkpt><trkpt lat="39.3853903" lon="-2.8851309"><ele>670.75</ele><time>2026-04-19T08:40:24.379Z</time></trkpt><trkpt lat="39.3852713" lon="-2.8852447"><ele>671.5</ele><time>2026-04-19T08:40:25.377Z</time></trkpt><trkpt lat="39.3851514" lon="-2.8853384"><ele>672.25</ele><time>2026-04-19T08:40:26.377Z</time></trkpt><trkpt lat="39.3850291" lon="-2.8854316"><ele>673.0</ele><time>2026-04-19T08:40:27.38Z</time></trkpt><trkpt lat="39.3849139" lon="-2.8855182"><ele>673.0</ele><time>2026-04-19T08:40:28.38Z</time></trkpt><trkpt lat="39.3848129" lon="-2.8856053"><ele>673.0</ele><time>2026-04-19T08:40:29.372Z</time></trkpt><trkpt lat="39.3847214" lon="-2.8856857"><ele>673.0</ele><time>2026-04-19T08:40:30.386Z</time></trkpt><trkpt lat="39.3846522" lon="-2.8857526"><ele>673.0</ele><time>2026-04-19T08:40:31.38Z</time></trkpt><trkpt lat="39.3845997" lon="-2.8857987"><ele>673.0</ele><time>2026-04-19T08:40:32.375Z</time></trkpt><trkpt lat="39.3844875" lon="-2.8858527"><ele>673.0</ele><time>2026-04-19T08:40:37.375Z</time></trkpt><trkpt lat="39.3844052" lon="-2.8858905"><ele>673.0</ele><time>2026-04-19T08:40:39.378Z</time></trkpt><trkpt lat="39.384315" lon="-2.8859286"><ele>673.0</ele><time>2026-04-19T08:40:41.379Z</time></trkpt><trkpt lat="39.3842354" lon="-2.8859903"><ele>673.0</ele><time>2026-04-19T08:40:43.377Z</time></trkpt><trkpt lat="39.3841316" lon="-2.8860869"><ele>673.0</ele><time>2026-04-19T08:40:45.385Z</time></trkpt><trkpt lat="39.384069" lon="-2.8861486"><ele>673.0</ele><time>2026-04-19T08:40:46.392Z</time></trkpt><trkpt lat="39.3840074" lon="-2.8862098"><ele>673.0</ele><time>2026-04-19T08:40:47.375Z</time></trkpt><trkpt lat="39.3839311" lon="-2.8862692"><ele>673.0</ele><time>2026-04-19T08:40:48.371Z</time></trkpt><trkpt lat="39.3838396" lon="-2.8863383"><ele>673.0</ele><time>2026-04-19T08:40:49.376Z</time></trkpt><trkpt lat="39.3837412" lon="-2.886419"><ele>673.0</ele><time>2026-04-19T08:40:50.383Z</time></trkpt><trkpt lat="39.383634" lon="-2.8865096"><ele>673.0</ele><time>2026-04-19T08:40:51.38Z</time></trkpt><trkpt lat="39.3835148" lon="-2.8866042"><ele>673.0</ele><time>2026-04-19T08:40:52.382Z</time></trkpt><trkpt lat="39.3833795" lon="-2.8867082"><ele>673.0</ele><time>2026-04-19T08:40:53.379Z</time></trkpt><trkpt lat="39.3832412" lon="-2.8868072"><ele>673.25</ele><time>2026-04-19T08:40:54.37Z</time></trkpt><trkpt lat="39.3831118" lon="-2.8868957"><ele>673.5</ele><time>2026-04-19T08:40:55.372Z</time></trkpt><trkpt lat="39.3829946" lon="-2.8869781"><ele>673.75</ele><time>2026-04-19T08:40:56.376Z</time></trkpt><trkpt lat="39.382894" lon="-2.8870541"><ele>674.0</ele><time>2026-04-19T08:40:57.38Z</time></trkpt><trkpt lat="39.3828036" lon="-2.8871152"><ele>674.2</ele><time>2026-04-19T08:40:58.375Z</time></trkpt><trkpt lat="39.3827182" lon="-2.8871565"><ele>674.4000000000001</ele><time>2026-04-19T08:40:59.383Z</time></trkpt><trkpt lat="39.3826357" lon="-2.8871699"><ele>674.6</ele><time>2026-04-19T08:41:00.377Z</time></trkpt><trkpt lat="39.3825403" lon="-2.8871583"><ele>674.8</ele><time>2026-04-19T08:41:01.374Z</time></trkpt><trkpt lat="39.3824261" lon="-2.8871246"><ele>675.0</ele><time>2026-04-19T08:41:02.374Z</time></trkpt><trkpt lat="39.3823031" lon="-2.8870767"><ele>675.5</ele><time>2026-04-19T08:41:03.372Z</time></trkpt><trkpt lat="39.3821757" lon="-2.887015"><ele>676.0</ele><time>2026-04-19T08:41:04.384Z</time></trkpt><trkpt lat="39.3820433" lon="-2.8869461"><ele>676.5</ele><time>2026-04-19T08:41:05.371Z</time></trkpt><trkpt lat="39.3819102" lon="-2.886882"><ele>677.0</ele><time>2026-04-19T08:41:06.379Z</time></trkpt><trkpt lat="39.3817762" lon="-2.8868253"><ele>677.0</ele><time>2026-04-19T08:41:07.382Z</time></trkpt><trkpt lat="39.3816381" lon="-2.8867731"><ele>677.0</ele><time>2026-04-19T08:41:08.382Z</time></trkpt><trkpt lat="39.3815009" lon="-2.8867262"><ele>677.0</ele><time>2026-04-19T08:41:09.378Z</time></trkpt><trkpt lat="39.3813691" lon="-2.8866903"><ele>677.0</ele><time>2026-04-19T08:41:10.373Z</time></trkpt><trkpt lat="39.3812442" lon="-2.8866671"><ele>676.4000000000001</ele><time>2026-04-19T08:41:11.378Z</time></trkpt><trkpt lat="39.3811254" lon="-2.8866525"><ele>675.8000000000001</ele><time>2026-04-19T08:41:12.377Z</time></trkpt><trkpt lat="39.3810124" lon="-2.8866441"><ele>675.2</ele><time>2026-04-19T08:41:13.371Z</time></trkpt><trkpt lat="39.3809059" lon="-2.8866411"><ele>674.6</ele><time>2026-04-19T08:41:14.37Z</time></trkpt><trkpt lat="39.3808069" lon="-2.8866469"><ele>674.0</ele><time>2026-04-19T08:41:15.38Z</time></trkpt><trkpt lat="39.380709" lon="-2.8866645"><ele>674.0</ele><time>2026-04-19T08:41:16.376Z</time></trkpt><trkpt lat="39.3806097" lon="-2.8866861"><ele>674.0</ele><time>2026-04-19T08:41:17.371Z</time></trkpt><trkpt lat="39.380505" lon="-2.8867074"><ele>674.0</ele><time>2026-04-19T08:41:18.379Z</time></trkpt><trkpt lat="39.380396" lon="-2.88673"><ele>674.0</ele><time>2026-04-19T08:41:19.379Z</time></trkpt><trkpt lat="39.3802861" lon="-2.8867556"><ele>674.0</ele><time>2026-04-19T08:41:20.377Z</time></trkpt><trkpt lat="39.3801729" lon="-2.886782"><ele>674.4000000000001</ele><time>2026-04-19T08:41:21.379Z</time></trkpt><trkpt lat="39.3800586" lon="-2.8868068"><ele>674.8</ele><time>2026-04-19T08:41:22.38Z</time></trkpt><trkpt lat="39.3799517" lon="-2.886828"><ele>675.2</ele><time>2026-04-19T08:41:23.376Z</time></trkpt><trkpt lat="39.3798522" lon="-2.8868516"><ele>675.5999999999999</ele><time>2026-04-19T08:41:24.374Z</time></trkpt><trkpt lat="39.3797565" lon="-2.8868782"><ele>676.0</ele><time>2026-04-19T08:41:25.37Z</time></trkpt><trkpt lat="39.3796461" lon="-2.8869027"><ele>676.25</ele><time>2026-04-19T08:41:26.376Z</time></trkpt><trkpt lat="39.3795191" lon="-2.8869252"><ele>676.5</ele><time>2026-04-19T08:41:27.376Z</time></trkpt><trkpt lat="39.3793756" lon="-2.8869485"><ele>676.75</ele><time>2026-04-19T08:41:28.372Z</time></trkpt><trkpt lat="39.3792177" lon="-2.8869689"><ele>677.0</ele><time>2026-04-19T08:41:29.376Z</time></trkpt><trkpt lat="39.3790478" lon="-2.8869867"><ele>677.0</ele><time>2026-04-19T08:41:30.379Z</time></trkpt><trkpt lat="39.3788757" lon="-2.887004"><ele>677.0</ele><time>2026-04-19T08:41:31.374Z</time></trkpt><trkpt lat="39.3787134" lon="-2.8870203"><ele>677.0</ele><time>2026-04-19T08:41:32.379Z</time></trkpt><trkpt lat="39.3785616" lon="-2.8870427"><ele>677.0</ele><time>2026-04-19T08:41:33.376Z</time></trkpt><trkpt lat="39.3784211" lon="-2.8870779"><ele>677.0</ele><time>2026-04-19T08:41:34.374Z</time></trkpt><trkpt lat="39.3782863" lon="-2.8871331"><ele>677.0</ele><time>2026-04-19T08:41:35.374Z</time></trkpt><trkpt lat="39.3781648" lon="-2.8872035"><ele>677.0</ele><time>2026-04-19T08:41:36.384Z</time></trkpt><trkpt lat="39.3780623" lon="-2.8872814"><ele>677.0</ele><time>2026-04-19T08:41:37.373Z</time></trkpt><trkpt lat="39.3779627" lon="-2.8873636"><ele>677.0</ele><time>2026-04-19T08:41:38.381Z</time></trkpt><trkpt lat="39.3778505" lon="-2.8874544"><ele>677.0</ele><time>2026-04-19T08:41:39.375Z</time></trkpt><trkpt lat="39.3777214" lon="-2.8875481"><ele>677.0</ele><time>2026-04-19T08:41:40.374Z</time></trkpt><trkpt lat="39.3775864" lon="-2.8876574"><ele>677.3333333333333</ele><time>2026-04-19T08:41:41.376Z</time></trkpt><trkpt lat="39.3774606" lon="-2.8877749"><ele>677.6666666666666</ele><time>2026-04-19T08:41:42.377Z</time></trkpt><trkpt lat="39.3773392" lon="-2.8879142"><ele>678.0</ele><time>2026-04-19T08:41:43.377Z</time></trkpt><trkpt lat="39.3772265" lon="-2.8880447"><ele>677.75</ele><time>2026-04-19T08:41:44.387Z</time></trkpt><trkpt lat="39.3771117" lon="-2.8881745"><ele>677.5</ele><time>2026-04-19T08:41:45.382Z</time></trkpt><trkpt lat="39.3769973" lon="-2.8882935"><ele>677.25</ele><time>2026-04-19T08:41:46.376Z</time></trkpt><trkpt lat="39.3768761" lon="-2.8883878"><ele>677.0</ele><time>2026-04-19T08:41:47.38Z</time></trkpt><trkpt lat="39.3767376" lon="-2.8884615"><ele>677.0</ele><time>2026-04-19T08:41:48.388Z</time></trkpt><trkpt lat="39.3765885" lon="-2.8885361"><ele>677.0</ele><time>2026-04-19T08:41:49.377Z</time></trkpt><trkpt lat="39.3764388" lon="-2.8886105"><ele>677.0</ele><time>2026-04-19T08:41:50.366Z</time></trkpt><trkpt lat="39.3762899" lon="-2.8886831"><ele>677.0</ele><time>2026-04-19T08:41:51.372Z</time></trkpt><trkpt lat="39.3761472" lon="-2.8887586"><ele>677.0</ele><time>2026-04-19T08:41:52.377Z</time></trkpt><trkpt lat="39.376008" lon="-2.888835"><ele>677.0</ele><time>2026-04-19T08:41:53.388Z</time></trkpt><trkpt lat="39.3758677" lon="-2.8889141"><ele>677.0</ele><time>2026-04-19T08:41:54.373Z</time></trkpt><trkpt lat="39.3757281" lon="-2.8889929"><ele>677.0</ele><time>2026-04-19T08:41:55.378Z</time></trkpt><trkpt lat="39.3755884" lon="-2.8890704"><ele>677.0</ele><time>2026-04-19T08:41:56.379Z</time></trkpt><trkpt lat="39.3754515" lon="-2.8891461"><ele>677.0</ele><time>2026-04-19T08:41:57.388Z</time></trkpt><trkpt lat="39.375322" lon="-2.8892157"><ele>677.0</ele><time>2026-04-19T08:41:58.38Z</time></trkpt><trkpt lat="39.3752009" lon="-2.889283"><ele>677.0</ele><time>2026-04-19T08:41:59.37Z</time></trkpt><trkpt lat="39.3750881" lon="-2.8893477"><ele>677.0</ele><time>2026-04-19T08:42:00.385Z</time></trkpt><trkpt lat="39.3749812" lon="-2.8894093"><ele>677.0</ele><time>2026-04-19T08:42:01.374Z</time></trkpt><trkpt lat="39.3748751" lon="-2.8894661"><ele>677.0</ele><time>2026-04-19T08:42:02.378Z</time></trkpt><trkpt lat="39.3747731" lon="-2.889521"><ele>677.0</ele><time>2026-04-19T08:42:03.381Z</time></trkpt><trkpt lat="39.3746732" lon="-2.8895762"><ele>677.0</ele><time>2026-04-19T08:42:04.377Z</time></trkpt><trkpt lat="39.3745747" lon="-2.8896338"><ele>677.0</ele><time>2026-04-19T08:42:05.374Z</time></trkpt><trkpt lat="39.3744763" lon="-2.88969"><ele>676.8333333333333</ele><time>2026-04-19T08:42:06.376Z</time></trkpt><trkpt lat="39.3743791" lon="-2.8897346"><ele>676.6666666666666</ele><time>2026-04-19T08:42:07.38Z</time></trkpt><trkpt lat="39.3742877" lon="-2.8897746"><ele>676.5</ele><time>2026-04-19T08:42:08.374Z</time></trkpt><trkpt lat="39.3742057" lon="-2.8898172"><ele>676.3333333333334</ele><time>2026-04-19T08:42:09.382Z</time></trkpt><trkpt lat="39.3741335" lon="-2.8898562"><ele>676.1666666666667</ele><time>2026-04-19T08:42:10.381Z</time></trkpt><trkpt lat="39.3740689" lon="-2.8898926"><ele>676.0</ele><time>2026-04-19T08:42:11.372Z</time></trkpt><trkpt lat="39.3740099" lon="-2.8899251"><ele>676.0</ele><time>2026-04-19T08:42:12.379Z</time></trkpt><trkpt lat="39.3739032" lon="-2.8899892"><ele>676.0</ele><time>2026-04-19T08:42:14.375Z</time></trkpt><trkpt lat="39.3738065" lon="-2.8900463"><ele>676.0</ele><time>2026-04-19T08:42:16.389Z</time></trkpt><trkpt lat="39.3737252" lon="-2.8901006"><ele>676.0</ele><time>2026-04-19T08:42:18.385Z</time></trkpt><trkpt lat="39.3736398" lon="-2.8901483"><ele>676.0</ele><time>2026-04-19T08:42:20.393Z</time></trkpt><trkpt lat="39.3735497" lon="-2.8902064"><ele>676.8</ele><time>2026-04-19T08:42:22.377Z</time></trkpt><trkpt lat="39.3734468" lon="-2.8902804"><ele>677.5999999999999</ele><time>2026-04-19T08:42:24.375Z</time></trkpt><trkpt lat="39.3733404" lon="-2.8903625"><ele>678.4</ele><time>2026-04-19T08:42:26.376Z</time></trkpt><trkpt lat="39.3732851" lon="-2.8904041"><ele>679.2</ele><time>2026-04-19T08:42:27.376Z</time></trkpt><trkpt lat="39.3732246" lon="-2.8904509"><ele>680.0</ele><time>2026-04-19T08:42:28.375Z</time></trkpt><trkpt lat="39.373161" lon="-2.8904985"><ele>680.0</ele><time>2026-04-19T08:42:29.375Z</time></trkpt><trkpt lat="39.3730994" lon="-2.8905486"><ele>680.0</ele><time>2026-04-19T08:42:30.377Z</time></trkpt><trkpt lat="39.373042" lon="-2.8905977"><ele>680.0</ele><time>2026-04-19T08:42:31.381Z</time></trkpt><trkpt lat="39.3729833" lon="-2.8906451"><ele>680.0</ele><time>2026-04-19T08:42:32.385Z</time></trkpt><trkpt lat="39.3729213" lon="-2.8906912"><ele>680.0</ele><time>2026-04-19T08:42:33.377Z</time></trkpt><trkpt lat="39.3728534" lon="-2.8907454"><ele>680.0</ele><time>2026-04-19T08:42:34.38Z</time></trkpt><trkpt lat="39.3727814" lon="-2.8908098"><ele>680.0</ele><time>2026-04-19T08:42:35.391Z</time></trkpt><trkpt lat="39.3727031" lon="-2.8908839"><ele>680.0</ele><time>2026-04-19T08:42:36.383Z</time></trkpt><trkpt lat="39.3726187" lon="-2.890964"><ele>680.0</ele><time>2026-04-19T08:42:37.373Z</time></trkpt><trkpt lat="39.3725324" lon="-2.8910593"><ele>680.0</ele><time>2026-04-19T08:42:38.382Z</time></trkpt><trkpt lat="39.3724459" lon="-2.8911638"><ele>680.0</ele><time>2026-04-19T08:42:39.375Z</time></trkpt><trkpt lat="39.372357" lon="-2.8912692"><ele>680.25</ele><time>2026-04-19T08:42:40.376Z</time></trkpt><trkpt lat="39.3722696" lon="-2.891378"><ele>680.5</ele><time>2026-04-19T08:42:41.372Z</time></trkpt><trkpt lat="39.3721813" lon="-2.8914979"><ele>680.75</ele><time>2026-04-19T08:42:42.373Z</time></trkpt><trkpt lat="39.3720879" lon="-2.8916267"><ele>681.0</ele><time>2026-04-19T08:42:43.376Z</time></trkpt><trkpt lat="39.3719835" lon="-2.891759"><ele>681.0</ele><time>2026-04-19T08:42:44.372Z</time></trkpt><trkpt lat="39.3718721" lon="-2.891898"><ele>681.0</ele><time>2026-04-19T08:42:45.371Z</time></trkpt><trkpt lat="39.3717521" lon="-2.8920442"><ele>681.0</ele><time>2026-04-19T08:42:46.376Z</time></trkpt><trkpt lat="39.3716176" lon="-2.8922043"><ele>681.0</ele><time>2026-04-19T08:42:47.38Z</time></trkpt><trkpt lat="39.3714659" lon="-2.8923842"><ele>681.0</ele><time>2026-04-19T08:42:48.371Z</time></trkpt><trkpt lat="39.371306" lon="-2.8925667"><ele>681.0</ele><time>2026-04-19T08:42:49.373Z</time></trkpt><trkpt lat="39.3711408" lon="-2.8927466"><ele>680.6666666666666</ele><time>2026-04-19T08:42:50.38Z</time></trkpt><trkpt lat="39.37098" lon="-2.8929125"><ele>680.3333333333333</ele><time>2026-04-19T08:42:51.376Z</time></trkpt><trkpt lat="39.3708104" lon="-2.8930701"><ele>680.0</ele><time>2026-04-19T08:42:52.373Z</time></trkpt><trkpt lat="39.3706176" lon="-2.8932236"><ele>679.0</ele><time>2026-04-19T08:42:53.37Z</time></trkpt><trkpt lat="39.3703946" lon="-2.8933834"><ele>678.0</ele><time>2026-04-19T08:42:54.37Z</time></trkpt><trkpt lat="39.370156" lon="-2.8935534"><ele>678.0</ele><time>2026-04-19T08:42:55.379Z</time></trkpt><trkpt lat="39.3699421" lon="-2.8937031"><ele>678.0</ele><time>2026-04-19T08:42:56.372Z</time></trkpt><trkpt lat="39.369761" lon="-2.8938309"><ele>678.0</ele><time>2026-04-19T08:42:57.375Z</time></trkpt><trkpt lat="39.3696054" lon="-2.893943"><ele>677.75</ele><time>2026-04-19T08:42:58.382Z</time></trkpt><trkpt lat="39.3694671" lon="-2.8940428"><ele>677.5</ele><time>2026-04-19T08:42:59.375Z</time></trkpt><trkpt lat="39.3693435" lon="-2.8941275"><ele>677.25</ele><time>2026-04-19T08:43:00.371Z</time></trkpt><trkpt lat="39.3692317" lon="-2.8942074"><ele>677.0</ele><time>2026-04-19T08:43:01.376Z</time></trkpt><trkpt lat="39.3691111" lon="-2.8943068"><ele>676.6666666666666</ele><time>2026-04-19T08:43:02.379Z</time></trkpt><trkpt lat="39.3689763" lon="-2.8944333"><ele>676.3333333333334</ele><time>2026-04-19T08:43:03.386Z</time></trkpt><trkpt lat="39.3688195" lon="-2.8945844"><ele>676.0</ele><time>2026-04-19T08:43:04.38Z</time></trkpt><trkpt lat="39.3686377" lon="-2.8947494"><ele>675.5</ele><time>2026-04-19T08:43:05.373Z</time></trkpt><trkpt lat="39.3684455" lon="-2.8949205"><ele>675.0</ele><time>2026-04-19T08:43:06.378Z</time></trkpt><trkpt lat="39.3682299" lon="-2.8951093"><ele>675.0</ele><time>2026-04-19T08:43:07.376Z</time></trkpt><trkpt lat="39.3679983" lon="-2.8953051"><ele>675.0</ele><time>2026-04-19T08:43:08.38Z</time></trkpt><trkpt lat="39.3677721" lon="-2.8954847"><ele>675.0</ele><time>2026-04-19T08:43:09.377Z</time></trkpt><trkpt lat="39.3675421" lon="-2.895657"><ele>675.0</ele><time>2026-04-19T08:43:10.377Z</time></trkpt><trkpt lat="39.3673122" lon="-2.8958272"><ele>674.5</ele><time>2026-04-19T08:43:11.376Z</time></trkpt><trkpt lat="39.3670878" lon="-2.8960156"><ele>674.0</ele><time>2026-04-19T08:43:12.373Z</time></trkpt><trkpt lat="39.3668935" lon="-2.8961876"><ele>674.0</ele><time>2026-04-19T08:43:13.374Z</time></trkpt><trkpt lat="39.3667167" lon="-2.8963428"><ele>674.0</ele><time>2026-04-19T08:43:14.379Z</time></trkpt><trkpt lat="39.3665617" lon="-2.8964758"><ele>674.0</ele><time>2026-04-19T08:43:15.369Z</time></trkpt><trkpt lat="39.3664233" lon="-2.8965934"><ele>673.5</ele><time>2026-04-19T08:43:16.371Z</time></trkpt><trkpt lat="39.3662999" lon="-2.8966852"><ele>673.0</ele><time>2026-04-19T08:43:17.37Z</time></trkpt><trkpt lat="39.3661784" lon="-2.8967465"><ele>672.5</ele><time>2026-04-19T08:43:18.377Z</time></trkpt><trkpt lat="39.3660514" lon="-2.896773"><ele>672.0</ele><time>2026-04-19T08:43:19.371Z</time></trkpt><trkpt lat="39.3659072" lon="-2.8967633"><ele>672.0</ele><time>2026-04-19T08:43:20.373Z</time></trkpt><trkpt lat="39.3657393" lon="-2.8967191"><ele>672.0</ele><time>2026-04-19T08:43:21.372Z</time></trkpt><trkpt lat="39.3655534" lon="-2.8966394"><ele>672.0</ele><time>2026-04-19T08:43:22.374Z</time></trkpt><trkpt lat="39.3653563" lon="-2.8965378"><ele>672.0</ele><time>2026-04-19T08:43:23.375Z</time></trkpt><trkpt lat="39.3651672" lon="-2.896449"><ele>672.0</ele><time>2026-04-19T08:43:24.378Z</time></trkpt><trkpt lat="39.3649632" lon="-2.8963619"><ele>672.0</ele><time>2026-04-19T08:43:25.379Z</time></trkpt><trkpt lat="39.3647739" lon="-2.8962923"><ele>671.6666666666666</ele><time>2026-04-19T08:43:26.378Z</time></trkpt><trkpt lat="39.364598" lon="-2.8962346"><ele>671.3333333333333</ele><time>2026-04-19T08:43:27.377Z</time></trkpt><trkpt lat="39.3644444" lon="-2.8961905"><ele>671.0</ele><time>2026-04-19T08:43:28.369Z</time></trkpt><trkpt lat="39.3642751" lon="-2.8961646"><ele>671.0</ele><time>2026-04-19T08:43:29.371Z</time></trkpt><trkpt lat="39.3641154" lon="-2.8961629"><ele>671.0</ele><time>2026-04-19T08:43:30.371Z</time></trkpt><trkpt lat="39.3639468" lon="-2.8961797"><ele>671.0</ele><time>2026-04-19T08:43:31.37Z</time></trkpt><trkpt lat="39.3637562" lon="-2.8962127"><ele>669.6666666666666</ele><time>2026-04-19T08:43:32.376Z</time></trkpt><trkpt lat="39.3635762" lon="-2.8962516"><ele>668.3333333333334</ele><time>2026-04-19T08:43:33.37Z</time></trkpt><trkpt lat="39.3633983" lon="-2.8962874"><ele>667.0</ele><time>2026-04-19T08:43:34.375Z</time></trkpt><trkpt lat="39.3632168" lon="-2.8963401"><ele>667.0</ele><time>2026-04-19T08:43:35.375Z</time></trkpt><trkpt lat="39.3630465" lon="-2.8964085"><ele>667.0</ele><time>2026-04-19T08:43:36.372Z</time></trkpt><trkpt lat="39.3628666" lon="-2.8965113"><ele>667.0</ele><time>2026-04-19T08:43:37.375Z</time></trkpt><trkpt lat="39.3626899" lon="-2.8966443"><ele>666.3333333333334</ele><time>2026-04-19T08:43:38.371Z</time></trkpt><trkpt lat="39.3625335" lon="-2.8967808"><ele>665.6666666666666</ele><time>2026-04-19T08:43:39.372Z</time></trkpt><trkpt lat="39.3623874" lon="-2.8969111"><ele>665.0</ele><time>2026-04-19T08:43:40.373Z</time></trkpt><trkpt lat="39.3622468" lon="-2.8970239"><ele>665.5</ele><time>2026-04-19T08:43:41.38Z</time></trkpt><trkpt lat="39.3621113" lon="-2.8971122"><ele>666.0</ele><time>2026-04-19T08:43:42.373Z</time></trkpt><trkpt lat="39.361981" lon="-2.8971859"><ele>666.5</ele><time>2026-04-19T08:43:43.38Z</time></trkpt><trkpt lat="39.3618635" lon="-2.8972431"><ele>667.0</ele><time>2026-04-19T08:43:44.375Z</time></trkpt><trkpt lat="39.3617614" lon="-2.897288"><ele>667.0</ele><time>2026-04-19T08:43:45.374Z</time></trkpt><trkpt lat="39.3616741" lon="-2.8973221"><ele>667.0</ele><time>2026-04-19T08:43:46.372Z</time></trkpt><trkpt lat="39.361605" lon="-2.8973551"><ele>667.0</ele><time>2026-04-19T08:43:47.375Z</time></trkpt><trkpt lat="39.3615153" lon="-2.8974022"><ele>667.0</ele><time>2026-04-19T08:43:49.372Z</time></trkpt><trkpt lat="39.3614517" lon="-2.8974316"><ele>667.0</ele><time>2026-04-19T08:43:51.38Z</time></trkpt><trkpt lat="39.361343" lon="-2.8974573"><ele>667.0</ele><time>2026-04-19T08:43:53.373Z</time></trkpt><trkpt lat="39.3612723" lon="-2.8974828"><ele>667.0</ele><time>2026-04-19T08:43:54.378Z</time></trkpt><trkpt lat="39.3611803" lon="-2.8975208"><ele>667.0</ele><time>2026-04-19T08:43:55.381Z</time></trkpt><trkpt lat="39.3610707" lon="-2.8975689"><ele>667.0</ele><time>2026-04-19T08:43:56.38Z</time></trkpt><trkpt lat="39.3609389" lon="-2.8976213"><ele>667.0</ele><time>2026-04-19T08:43:57.374Z</time></trkpt><trkpt lat="39.3607986" lon="-2.8976664"><ele>667.0</ele><time>2026-04-19T08:43:58.371Z</time></trkpt><trkpt lat="39.3606789" lon="-2.8976872"><ele>667.0</ele><time>2026-04-19T08:43:59.372Z</time></trkpt><trkpt lat="39.3605707" lon="-2.8976841"><ele>667.0</ele><time>2026-04-19T08:44:00.376Z</time></trkpt><trkpt lat="39.360449" lon="-2.8976591"><ele>667.0</ele><time>2026-04-19T08:44:01.376Z</time></trkpt><trkpt lat="39.3603044" lon="-2.897611"><ele>667.6666666666667</ele><time>2026-04-19T08:44:02.374Z</time></trkpt><trkpt lat="39.3601458" lon="-2.8975483"><ele>668.3333333333334</ele><time>2026-04-19T08:44:03.374Z</time></trkpt><trkpt lat="39.359971" lon="-2.8974901"><ele>669.0</ele><time>2026-04-19T08:44:04.385Z</time></trkpt><trkpt lat="39.3597891" lon="-2.8974486"><ele>668.6666666666666</ele><time>2026-04-19T08:44:05.379Z</time></trkpt><trkpt lat="39.3596103" lon="-2.897429"><ele>668.3333333333333</ele><time>2026-04-19T08:44:06.372Z</time></trkpt><trkpt lat="39.3594287" lon="-2.8974357"><ele>668.0</ele><time>2026-04-19T08:44:07.376Z</time></trkpt><trkpt lat="39.3592364" lon="-2.8974756"><ele>668.0</ele><time>2026-04-19T08:44:08.371Z</time></trkpt><trkpt lat="39.3590208" lon="-2.8975351"><ele>668.0</ele><time>2026-04-19T08:44:09.376Z</time></trkpt><trkpt lat="39.3587834" lon="-2.8975999"><ele>666.5</ele><time>2026-04-19T08:44:10.383Z</time></trkpt><trkpt lat="39.3585285" lon="-2.8976616"><ele>665.0</ele><time>2026-04-19T08:44:11.374Z</time></trkpt><trkpt lat="39.3582679" lon="-2.8977243"><ele>665.0</ele><time>2026-04-19T08:44:12.384Z</time></trkpt><trkpt lat="39.3580047" lon="-2.8977954"><ele>665.0</ele><time>2026-04-19T08:44:13.374Z</time></trkpt><trkpt lat="39.3577602" lon="-2.8978736"><ele>665.0</ele><time>2026-04-19T08:44:14.375Z</time></trkpt><trkpt lat="39.3575352" lon="-2.8979536"><ele>665.0</ele><time>2026-04-19T08:44:15.378Z</time></trkpt><trkpt lat="39.3573114" lon="-2.8980302"><ele>664.5</ele><time>2026-04-19T08:44:16.378Z</time></trkpt><trkpt lat="39.357078" lon="-2.8981078"><ele>664.0</ele><time>2026-04-19T08:44:17.376Z</time></trkpt><trkpt lat="39.3568535" lon="-2.8981782"><ele>664.0</ele><time>2026-04-19T08:44:18.374Z</time></trkpt><trkpt lat="39.3566352" lon="-2.8982288"><ele>664.0</ele><time>2026-04-19T08:44:19.374Z</time></trkpt><trkpt lat="39.3564067" lon="-2.8982554"><ele>663.5</ele><time>2026-04-19T08:44:20.374Z</time></trkpt><trkpt lat="39.3561612" lon="-2.8982708"><ele>663.0</ele><time>2026-04-19T08:44:21.373Z</time></trkpt><trkpt lat="39.3559009" lon="-2.8982917"><ele>663.0</ele><time>2026-04-19T08:44:22.377Z</time></trkpt><trkpt lat="39.3556668" lon="-2.8983086"><ele>663.0</ele><time>2026-04-19T08:44:23.374Z</time></trkpt><trkpt lat="39.3554685" lon="-2.8983217"><ele>663.0</ele><time>2026-04-19T08:44:24.372Z</time></trkpt><trkpt lat="39.3552766" lon="-2.8983365"><ele>663.3333333333334</ele><time>2026-04-19T08:44:25.379Z</time></trkpt><trkpt lat="39.3550805" lon="-2.898323"><ele>663.6666666666667</ele><time>2026-04-19T08:44:26.374Z</time></trkpt><trkpt lat="39.3548675" lon="-2.89829"><ele>664.0</ele><time>2026-04-19T08:44:27.378Z</time></trkpt><trkpt lat="39.354643" lon="-2.8982492"><ele>664.0</ele><time>2026-04-19T08:44:28.376Z</time></trkpt><trkpt lat="39.3544435" lon="-2.8982169"><ele>664.0</ele><time>2026-04-19T08:44:29.373Z</time></trkpt><trkpt lat="39.3542719" lon="-2.8981959"><ele>664.0</ele><time>2026-04-19T08:44:30.386Z</time></trkpt><trkpt lat="39.35412" lon="-2.8981925"><ele>664.0</ele><time>2026-04-19T08:44:31.371Z</time></trkpt><trkpt lat="39.3539561" lon="-2.8982034"><ele>664.0</ele><time>2026-04-19T08:44:32.373Z</time></trkpt><trkpt lat="39.3537714" lon="-2.8982342"><ele>664.0</ele><time>2026-04-19T08:44:33.383Z</time></trkpt><trkpt lat="39.3535798" lon="-2.8982797"><ele>663.3333333333334</ele><time>2026-04-19T08:44:34.369Z</time></trkpt><trkpt lat="39.3534015" lon="-2.8983211"><ele>662.6666666666666</ele><time>2026-04-19T08:44:35.378Z</time></trkpt><trkpt lat="39.3532388" lon="-2.8983564"><ele>662.0</ele><time>2026-04-19T08:44:36.372Z</time></trkpt><trkpt lat="39.3530898" lon="-2.8983917"><ele>661.75</ele><time>2026-04-19T08:44:37.379Z</time></trkpt><trkpt lat="39.3529488" lon="-2.8984244"><ele>661.5</ele><time>2026-04-19T08:44:38.378Z</time></trkpt><trkpt lat="39.3528008" lon="-2.8984348"><ele>661.25</ele><time>2026-04-19T08:44:39.37Z</time></trkpt><trkpt lat="39.3526439" lon="-2.8984303"><ele>661.0</ele><time>2026-04-19T08:44:40.379Z</time></trkpt><trkpt lat="39.3524678" lon="-2.8984332"><ele>661.0</ele><time>2026-04-19T08:44:41.38Z</time></trkpt><trkpt lat="39.3522702" lon="-2.8984504"><ele>661.0</ele><time>2026-04-19T08:44:42.37Z</time></trkpt><trkpt lat="39.3520514" lon="-2.8984723"><ele>661.0</ele><time>2026-04-19T08:44:43.376Z</time></trkpt><trkpt lat="39.3518203" lon="-2.8984962"><ele>661.5</ele><time>2026-04-19T08:44:44.374Z</time></trkpt><trkpt lat="39.3515771" lon="-2.8985228"><ele>662.0</ele><time>2026-04-19T08:44:45.374Z</time></trkpt><trkpt lat="39.3513159" lon="-2.8985486"><ele>662.0</ele><time>2026-04-19T08:44:46.378Z</time></trkpt><trkpt lat="39.3510396" lon="-2.8985751"><ele>662.0</ele><time>2026-04-19T08:44:47.372Z</time></trkpt><trkpt lat="39.3507634" lon="-2.8985981"><ele>661.5</ele><time>2026-04-19T08:44:48.381Z</time></trkpt><trkpt lat="39.3504999" lon="-2.8986193"><ele>661.0</ele><time>2026-04-19T08:44:49.374Z</time></trkpt><trkpt lat="39.3502362" lon="-2.8986364"><ele>661.0</ele><time>2026-04-19T08:44:50.372Z</time></trkpt><trkpt lat="39.3499597" lon="-2.8986591"><ele>661.0</ele><time>2026-04-19T08:44:51.372Z</time></trkpt><trkpt lat="39.3496655" lon="-2.8986886"><ele>661.0</ele><time>2026-04-19T08:44:52.386Z</time></trkpt><trkpt lat="39.3493565" lon="-2.8987219"><ele>661.0</ele><time>2026-04-19T08:44:53.374Z</time></trkpt><trkpt lat="39.3490573" lon="-2.8987545"><ele>661.0</ele><time>2026-04-19T08:44:54.372Z</time></trkpt><trkpt lat="39.3487619" lon="-2.8987849"><ele>661.0</ele><time>2026-04-19T08:44:55.375Z</time></trkpt><trkpt lat="39.3484582" lon="-2.898818"><ele>661.0</ele><time>2026-04-19T08:44:56.367Z</time></trkpt><trkpt lat="39.3481446" lon="-2.8988529"><ele>661.0</ele><time>2026-04-19T08:44:57.381Z</time></trkpt><trkpt lat="39.3478235" lon="-2.8988869"><ele>660.5</ele><time>2026-04-19T08:44:58.379Z</time></trkpt><trkpt lat="39.3475212" lon="-2.8989181"><ele>660.0</ele><time>2026-04-19T08:44:59.373Z</time></trkpt><trkpt lat="39.3472324" lon="-2.8989471"><ele>659.5</ele><time>2026-04-19T08:45:00.379Z</time></trkpt><trkpt lat="39.346956" lon="-2.8989742"><ele>659.0</ele><time>2026-04-19T08:45:01.382Z</time></trkpt><trkpt lat="39.3466669" lon="-2.8990016"><ele>659.0</ele><time>2026-04-19T08:45:02.374Z</time></trkpt><trkpt lat="39.346379" lon="-2.8990254"><ele>659.0</ele><time>2026-04-19T08:45:03.37Z</time></trkpt><trkpt lat="39.3460776" lon="-2.8990577"><ele>659.5</ele><time>2026-04-19T08:45:04.372Z</time></trkpt><trkpt lat="39.3457732" lon="-2.8990848"><ele>660.0</ele><time>2026-04-19T08:45:05.373Z</time></trkpt><trkpt lat="39.3454627" lon="-2.8991125"><ele>660.0</ele><time>2026-04-19T08:45:06.381Z</time></trkpt><trkpt lat="39.3451538" lon="-2.8991429"><ele>660.0</ele><time>2026-04-19T08:45:07.372Z</time></trkpt><trkpt lat="39.344855" lon="-2.8991668"><ele>660.0</ele><time>2026-04-19T08:45:08.375Z</time></trkpt><trkpt lat="39.3445543" lon="-2.8991926"><ele>660.0</ele><time>2026-04-19T08:45:09.375Z</time></trkpt><trkpt lat="39.3442734" lon="-2.8992182"><ele>660.0</ele><time>2026-04-19T08:45:10.376Z</time></trkpt><trkpt lat="39.3440207" lon="-2.8992434"><ele>660.0</ele><time>2026-04-19T08:45:11.368Z</time></trkpt><trkpt lat="39.3437856" lon="-2.8992679"><ele>660.0</ele><time>2026-04-19T08:45:12.372Z</time></trkpt><trkpt lat="39.3435662" lon="-2.8992894"><ele>660.0</ele><time>2026-04-19T08:45:13.367Z</time></trkpt><trkpt lat="39.3433521" lon="-2.8993132"><ele>660.0</ele><time>2026-04-19T08:45:14.375Z</time></trkpt><trkpt lat="39.343155" lon="-2.8993371"><ele>660.0</ele><time>2026-04-19T08:45:15.37Z</time></trkpt><trkpt lat="39.3429719" lon="-2.8993613"><ele>660.0</ele><time>2026-04-19T08:45:16.38Z</time></trkpt><trkpt lat="39.3427958" lon="-2.8993709"><ele>660.0</ele><time>2026-04-19T08:45:17.382Z</time></trkpt><trkpt lat="39.3426223" lon="-2.8993522"><ele>660.0</ele><time>2026-04-19T08:45:18.372Z</time></trkpt><trkpt lat="39.3424598" lon="-2.899325"><ele>660.0</ele><time>2026-04-19T08:45:19.381Z</time></trkpt><trkpt lat="39.3423168" lon="-2.899302"><ele>660.0</ele><time>2026-04-19T08:45:20.373Z</time></trkpt><trkpt lat="39.3421978" lon="-2.8992934"><ele>660.0</ele><time>2026-04-19T08:45:21.381Z</time></trkpt><trkpt lat="39.3420927" lon="-2.8993062"><ele>659.5</ele><time>2026-04-19T08:45:22.379Z</time></trkpt><trkpt lat="39.3419845" lon="-2.8993478"><ele>659.0</ele><time>2026-04-19T08:45:23.376Z</time></trkpt><trkpt lat="39.3418665" lon="-2.8994279"><ele>658.5</ele><time>2026-04-19T08:45:24.373Z</time></trkpt><trkpt lat="39.3417401" lon="-2.8995496"><ele>658.0</ele><time>2026-04-19T08:45:25.382Z</time></trkpt><trkpt lat="39.3415994" lon="-2.8997024"><ele>658.0</ele><time>2026-04-19T08:45:26.38Z</time></trkpt><trkpt lat="39.341446" lon="-2.8998624"><ele>658.0</ele><time>2026-04-19T08:45:27.377Z</time></trkpt><trkpt lat="39.3412743" lon="-2.9000362"><ele>658.0</ele><time>2026-04-19T08:45:28.38Z</time></trkpt><trkpt lat="39.3411076" lon="-2.9002068"><ele>658.0</ele><time>2026-04-19T08:45:29.378Z</time></trkpt><trkpt lat="39.3409632" lon="-2.9003642"><ele>658.0</ele><time>2026-04-19T08:45:30.382Z</time></trkpt><trkpt lat="39.3408383" lon="-2.900511"><ele>658.0</ele><time>2026-04-19T08:45:31.37Z</time></trkpt><trkpt lat="39.3407281" lon="-2.9006416"><ele>658.0</ele><time>2026-04-19T08:45:32.376Z</time></trkpt><trkpt lat="39.3406346" lon="-2.9007514"><ele>658.0</ele><time>2026-04-19T08:45:33.379Z</time></trkpt><trkpt lat="39.3405557" lon="-2.9008453"><ele>658.0</ele><time>2026-04-19T08:45:34.377Z</time></trkpt><trkpt lat="39.3404768" lon="-2.9009627"><ele>658.0</ele><time>2026-04-19T08:45:35.377Z</time></trkpt><trkpt lat="39.3403983" lon="-2.9011129"><ele>658.25</ele><time>2026-04-19T08:45:36.383Z</time></trkpt><trkpt lat="39.3403258" lon="-2.9012724"><ele>658.5</ele><time>2026-04-19T08:45:37.372Z</time></trkpt><trkpt lat="39.3402639" lon="-2.9014263"><ele>658.75</ele><time>2026-04-19T08:45:38.386Z</time></trkpt><trkpt lat="39.3402087" lon="-2.9015591"><ele>659.0</ele><time>2026-04-19T08:45:39.383Z</time></trkpt><trkpt lat="39.3401612" lon="-2.9016658"><ele>658.8333333333333</ele><time>2026-04-19T08:45:40.375Z</time></trkpt><trkpt lat="39.3401211" lon="-2.901752"><ele>658.6666666666666</ele><time>2026-04-19T08:45:41.377Z</time></trkpt><trkpt lat="39.3400833" lon="-2.9018182"><ele>658.5</ele><time>2026-04-19T08:45:42.371Z</time></trkpt><trkpt lat="39.3400019" lon="-2.901898"><ele>658.3333333333334</ele><time>2026-04-19T08:45:44.378Z</time></trkpt><trkpt lat="39.3399221" lon="-2.9019132"><ele>658.1666666666667</ele><time>2026-04-19T08:45:46.37Z</time></trkpt><trkpt lat="39.3398524" lon="-2.9019186"><ele>658.0</ele><time>2026-04-19T08:45:48.383Z</time></trkpt><trkpt lat="39.3397669" lon="-2.9018941"><ele>658.0</ele><time>2026-04-19T08:45:51.375Z</time></trkpt><trkpt lat="39.3396989" lon="-2.9018896"><ele>658.0</ele><time>2026-04-19T08:45:53.372Z</time></trkpt><trkpt lat="39.3396268" lon="-2.9018825"><ele>658.0</ele><time>2026-04-19T08:45:55.392Z</time></trkpt><trkpt lat="39.3395585" lon="-2.9018868"><ele>658.0</ele><time>2026-04-19T08:45:57.381Z</time></trkpt><trkpt lat="39.3394783" lon="-2.9019175"><ele>658.0</ele><time>2026-04-19T08:46:00.377Z</time></trkpt><trkpt lat="39.3393933" lon="-2.9020164"><ele>658.0</ele><time>2026-04-19T08:46:06.378Z</time></trkpt><trkpt lat="39.3393422" lon="-2.9021192"><ele>658.0</ele><time>2026-04-19T08:46:10.393Z</time></trkpt><trkpt lat="39.339287" lon="-2.9022256"><ele>658.0</ele><time>2026-04-19T08:46:12.382Z</time></trkpt><trkpt lat="39.3391891" lon="-2.9023365"><ele>658.0</ele><time>2026-04-19T08:46:14.374Z</time></trkpt><trkpt lat="39.3391311" lon="-2.9023889"><ele>658.0</ele><time>2026-04-19T08:46:15.382Z</time></trkpt><trkpt lat="39.3390748" lon="-2.9024255"><ele>658.0</ele><time>2026-04-19T08:46:16.373Z</time></trkpt><trkpt lat="39.3389491" lon="-2.9024271"><ele>658.0</ele><time>2026-04-19T08:46:18.374Z</time></trkpt><trkpt lat="39.3388914" lon="-2.9023911"><ele>658.0</ele><time>2026-04-19T08:46:19.373Z</time></trkpt><trkpt lat="39.3388287" lon="-2.9023395"><ele>658.0</ele><time>2026-04-19T08:46:20.378Z</time></trkpt><trkpt lat="39.3387587" lon="-2.9022813"><ele>658.0</ele><time>2026-04-19T08:46:21.378Z</time></trkpt><trkpt lat="39.3386687" lon="-2.9022256"><ele>658.0</ele><time>2026-04-19T08:46:22.376Z</time></trkpt><trkpt lat="39.3385649" lon="-2.9021755"><ele>658.0</ele><time>2026-04-19T08:46:23.376Z</time></trkpt><trkpt lat="39.3384451" lon="-2.9021229"><ele>658.25</ele><time>2026-04-19T08:46:24.379Z</time></trkpt><trkpt lat="39.3383182" lon="-2.9020781"><ele>658.5</ele><time>2026-04-19T08:46:25.379Z</time></trkpt><trkpt lat="39.3381816" lon="-2.902032"><ele>658.75</ele><time>2026-04-19T08:46:26.38Z</time></trkpt><trkpt lat="39.3380367" lon="-2.9019737"><ele>659.0</ele><time>2026-04-19T08:46:27.381Z</time></trkpt><trkpt lat="39.3378723" lon="-2.9019116"><ele>659.3333333333333</ele><time>2026-04-19T08:46:28.372Z</time></trkpt><trkpt lat="39.3376915" lon="-2.9018539"><ele>659.6666666666666</ele><time>2026-04-19T08:46:29.371Z</time></trkpt><trkpt lat="39.3374936" lon="-2.901803"><ele>660.0</ele><time>2026-04-19T08:46:30.376Z</time></trkpt><trkpt lat="39.3372763" lon="-2.9017524"><ele>660.0</ele><time>2026-04-19T08:46:31.381Z</time></trkpt><trkpt lat="39.3370397" lon="-2.9017012"><ele>660.0</ele><time>2026-04-19T08:46:32.373Z</time></trkpt><trkpt lat="39.336784" lon="-2.901655"><ele>660.0</ele><time>2026-04-19T08:46:33.377Z</time></trkpt><trkpt lat="39.3365092" lon="-2.9016102"><ele>660.0</ele><time>2026-04-19T08:46:34.371Z</time></trkpt><trkpt lat="39.3362267" lon="-2.9015639"><ele>660.0</ele><time>2026-04-19T08:46:35.379Z</time></trkpt><trkpt lat="39.3359588" lon="-2.9015271"><ele>660.0</ele><time>2026-04-19T08:46:36.373Z</time></trkpt><trkpt lat="39.3356852" lon="-2.901503"><ele>660.0</ele><time>2026-04-19T08:46:37.375Z</time></trkpt><trkpt lat="39.3354117" lon="-2.9014872"><ele>660.0</ele><time>2026-04-19T08:46:38.376Z</time></trkpt><trkpt lat="39.335133" lon="-2.9014722"><ele>660.0</ele><time>2026-04-19T08:46:39.376Z</time></trkpt><trkpt lat="39.3348641" lon="-2.9014544"><ele>660.0</ele><time>2026-04-19T08:46:40.378Z</time></trkpt><trkpt lat="39.3346121" lon="-2.9014266"><ele>660.0</ele><time>2026-04-19T08:46:41.369Z</time></trkpt><trkpt lat="39.3343541" lon="-2.9013837"><ele>660.0</ele><time>2026-04-19T08:46:42.372Z</time></trkpt><trkpt lat="39.3340864" lon="-2.9013409"><ele>659.5</ele><time>2026-04-19T08:46:43.379Z</time></trkpt><trkpt lat="39.3338165" lon="-2.9012971"><ele>659.0</ele><time>2026-04-19T08:46:44.375Z</time></trkpt><trkpt lat="39.3335455" lon="-2.9012553"><ele>659.0</ele><time>2026-04-19T08:46:45.381Z</time></trkpt><trkpt lat="39.3332872" lon="-2.9012312"><ele>659.0</ele><time>2026-04-19T08:46:46.381Z</time></trkpt><trkpt lat="39.3330388" lon="-2.9012094"><ele>659.0</ele><time>2026-04-19T08:46:47.372Z</time></trkpt><trkpt lat="39.3327807" lon="-2.9011865"><ele>659.0</ele><time>2026-04-19T08:46:48.37Z</time></trkpt><trkpt lat="39.3325088" lon="-2.9011543"><ele>659.0</ele><time>2026-04-19T08:46:49.372Z</time></trkpt><trkpt lat="39.3322296" lon="-2.9011231"><ele>659.0</ele><time>2026-04-19T08:46:50.382Z</time></trkpt><trkpt lat="39.3319567" lon="-2.9010892"><ele>658.5</ele><time>2026-04-19T08:46:51.375Z</time></trkpt><trkpt lat="39.3317029" lon="-2.9010578"><ele>658.0</ele><time>2026-04-19T08:46:52.374Z</time></trkpt><trkpt lat="39.33146" lon="-2.9010288"><ele>658.5</ele><time>2026-04-19T08:46:53.376Z</time></trkpt><trkpt lat="39.331222" lon="-2.901002"><ele>659.0</ele><time>2026-04-19T08:46:54.376Z</time></trkpt><trkpt lat="39.3309837" lon="-2.9009702"><ele>659.0</ele><time>2026-04-19T08:46:55.378Z</time></trkpt><trkpt lat="39.3307456" lon="-2.9009415"><ele>659.0</ele><time>2026-04-19T08:46:56.371Z</time></trkpt><trkpt lat="39.3305118" lon="-2.9009207"><ele>658.6666666666666</ele><time>2026-04-19T08:46:57.38Z</time></trkpt><trkpt lat="39.3302931" lon="-2.9009036"><ele>658.3333333333334</ele><time>2026-04-19T08:46:58.371Z</time></trkpt><trkpt lat="39.3300739" lon="-2.9008793"><ele>658.0</ele><time>2026-04-19T08:46:59.375Z</time></trkpt><trkpt lat="39.3298454" lon="-2.9008473"><ele>658.5</ele><time>2026-04-19T08:47:00.375Z</time></trkpt><trkpt lat="39.3296126" lon="-2.9008045"><ele>659.0</ele><time>2026-04-19T08:47:01.378Z</time></trkpt><trkpt lat="39.3293699" lon="-2.9007538"><ele>659.0</ele><time>2026-04-19T08:47:02.374Z</time></trkpt><trkpt lat="39.3291122" lon="-2.9006977"><ele>659.0</ele><time>2026-04-19T08:47:03.378Z</time></trkpt><trkpt lat="39.3288417" lon="-2.9006412"><ele>659.0</ele><time>2026-04-19T08:47:04.371Z</time></trkpt><trkpt lat="39.3285709" lon="-2.900584"><ele>659.0</ele><time>2026-04-19T08:47:05.375Z</time></trkpt><trkpt lat="39.3283196" lon="-2.9005344"><ele>659.0</ele><time>2026-04-19T08:47:06.378Z</time></trkpt><trkpt lat="39.328073" lon="-2.9004908"><ele>659.0</ele><time>2026-04-19T08:47:07.369Z</time></trkpt><trkpt lat="39.3278188" lon="-2.9004575"><ele>659.5</ele><time>2026-04-19T08:47:08.38Z</time></trkpt><trkpt lat="39.3275793" lon="-2.9004197"><ele>660.0</ele><time>2026-04-19T08:47:09.379Z</time></trkpt><trkpt lat="39.327353" lon="-2.9003798"><ele>659.6666666666666</ele><time>2026-04-19T08:47:10.375Z</time></trkpt><trkpt lat="39.3271408" lon="-2.9003415"><ele>659.3333333333333</ele><time>2026-04-19T08:47:11.373Z</time></trkpt><trkpt lat="39.3269464" lon="-2.9003049"><ele>659.0</ele><time>2026-04-19T08:47:12.385Z</time></trkpt><trkpt lat="39.3267694" lon="-2.9002695"><ele>659.0</ele><time>2026-04-19T08:47:13.377Z</time></trkpt><trkpt lat="39.3266103" lon="-2.900236"><ele>659.0</ele><time>2026-04-19T08:47:14.375Z</time></trkpt><trkpt lat="39.3264692" lon="-2.9002052"><ele>659.0</ele><time>2026-04-19T08:47:15.373Z</time></trkpt><trkpt lat="39.3263444" lon="-2.9001765"><ele>659.0</ele><time>2026-04-19T08:47:16.376Z</time></trkpt><trkpt lat="39.3262334" lon="-2.9001488"><ele>658.8000000000001</ele><time>2026-04-19T08:47:17.374Z</time></trkpt><trkpt lat="39.3261354" lon="-2.9001184"><ele>658.6</ele><time>2026-04-19T08:47:18.372Z</time></trkpt><trkpt lat="39.3260465" lon="-2.9000867"><ele>658.4</ele><time>2026-04-19T08:47:19.369Z</time></trkpt><trkpt lat="39.3259492" lon="-2.9000485"><ele>658.2</ele><time>2026-04-19T08:47:20.377Z</time></trkpt><trkpt lat="39.3258377" lon="-2.9000033"><ele>658.0</ele><time>2026-04-19T08:47:21.377Z</time></trkpt><trkpt lat="39.3257063" lon="-2.8999499"><ele>657.6666666666667</ele><time>2026-04-19T08:47:22.373Z</time></trkpt><trkpt lat="39.3255539" lon="-2.8998989"><ele>657.3333333333334</ele><time>2026-04-19T08:47:23.381Z</time></trkpt><trkpt lat="39.3253851" lon="-2.8998611"><ele>657.0</ele><time>2026-04-19T08:47:24.383Z</time></trkpt><trkpt lat="39.3251964" lon="-2.8998325"><ele>657.0</ele><time>2026-04-19T08:47:25.375Z</time></trkpt><trkpt lat="39.3249889" lon="-2.8998031"><ele>657.0</ele><time>2026-04-19T08:47:26.377Z</time></trkpt><trkpt lat="39.3247713" lon="-2.8997709"><ele>657.0</ele><time>2026-04-19T08:47:27.377Z</time></trkpt><trkpt lat="39.324537" lon="-2.8997281"><ele>657.5</ele><time>2026-04-19T08:47:28.38Z</time></trkpt><trkpt lat="39.3243053" lon="-2.8996794"><ele>658.0</ele><time>2026-04-19T08:47:29.378Z</time></trkpt><trkpt lat="39.3240931" lon="-2.899626"><ele>658.0</ele><time>2026-04-19T08:47:30.379Z</time></trkpt><trkpt lat="39.3239006" lon="-2.8995675"><ele>658.0</ele><time>2026-04-19T08:47:31.369Z</time></trkpt><trkpt lat="39.3237199" lon="-2.8995089"><ele>658.0</ele><time>2026-04-19T08:47:32.374Z</time></trkpt><trkpt lat="39.3235458" lon="-2.8994595"><ele>658.6666666666667</ele><time>2026-04-19T08:47:33.38Z</time></trkpt><trkpt lat="39.3233635" lon="-2.8994152"><ele>659.3333333333334</ele><time>2026-04-19T08:47:34.375Z</time></trkpt><trkpt lat="39.3231858" lon="-2.8993736"><ele>660.0</ele><time>2026-04-19T08:47:35.371Z</time></trkpt><trkpt lat="39.3230185" lon="-2.8993329"><ele>660.0</ele><time>2026-04-19T08:47:36.375Z</time></trkpt><trkpt lat="39.3228566" lon="-2.8992868"><ele>660.0</ele><time>2026-04-19T08:47:37.371Z</time></trkpt><trkpt lat="39.3226858" lon="-2.8992251"><ele>660.0</ele><time>2026-04-19T08:47:38.37Z</time></trkpt><trkpt lat="39.3225155" lon="-2.8991489"><ele>659.6666666666666</ele><time>2026-04-19T08:47:39.374Z</time></trkpt><trkpt lat="39.3223598" lon="-2.8990684"><ele>659.3333333333333</ele><time>2026-04-19T08:47:40.379Z</time></trkpt><trkpt lat="39.3222115" lon="-2.8989929"><ele>659.0</ele><time>2026-04-19T08:47:41.373Z</time></trkpt><trkpt lat="39.3220639" lon="-2.8989179"><ele>658.6666666666666</ele><time>2026-04-19T08:47:42.374Z</time></trkpt><trkpt lat="39.3219119" lon="-2.8988304"><ele>658.3333333333334</ele><time>2026-04-19T08:47:43.38Z</time></trkpt><trkpt lat="39.3217536" lon="-2.898735"><ele>658.0</ele><time>2026-04-19T08:47:44.376Z</time></trkpt><trkpt lat="39.321606" lon="-2.8986311"><ele>658.0</ele><time>2026-04-19T08:47:45.376Z</time></trkpt><trkpt lat="39.3214783" lon="-2.8985151"><ele>658.0</ele><time>2026-04-19T08:47:46.374Z</time></trkpt><trkpt lat="39.3213638" lon="-2.8983942"><ele>658.0</ele><time>2026-04-19T08:47:47.374Z</time></trkpt><trkpt lat="39.3212523" lon="-2.8982835"><ele>658.0</ele><time>2026-04-19T08:47:48.375Z</time></trkpt><trkpt lat="39.3211526" lon="-2.8981919"><ele>658.2</ele><time>2026-04-19T08:47:49.372Z</time></trkpt><trkpt lat="39.3210635" lon="-2.8981302"><ele>658.4</ele><time>2026-04-19T08:47:50.379Z</time></trkpt><trkpt lat="39.320975" lon="-2.8981007"><ele>658.6</ele><time>2026-04-19T08:47:51.379Z</time></trkpt><trkpt lat="39.3208857" lon="-2.8980886"><ele>658.8000000000001</ele><time>2026-04-19T08:47:52.371Z</time></trkpt><trkpt lat="39.3207942" lon="-2.898087"><ele>659.0</ele><time>2026-04-19T08:47:53.376Z</time></trkpt><trkpt lat="39.3206907" lon="-2.8980836"><ele>659.0</ele><time>2026-04-19T08:47:54.376Z</time></trkpt><trkpt lat="39.3205854" lon="-2.8980795"><ele>659.0</ele><time>2026-04-19T08:47:55.372Z</time></trkpt><trkpt lat="39.3204861" lon="-2.8980811"><ele>659.0</ele><time>2026-04-19T08:47:56.373Z</time></trkpt><trkpt lat="39.3203906" lon="-2.8980755"><ele>659.0</ele><time>2026-04-19T08:47:57.378Z</time></trkpt><trkpt lat="39.3202925" lon="-2.8980768"><ele>659.0</ele><time>2026-04-19T08:47:58.379Z</time></trkpt><trkpt lat="39.3201988" lon="-2.8980891"><ele>659.2</ele><time>2026-04-19T08:47:59.374Z</time></trkpt><trkpt lat="39.3201049" lon="-2.8981215"><ele>659.4000000000001</ele><time>2026-04-19T08:48:00.373Z</time></trkpt><trkpt lat="39.320016" lon="-2.8981748"><ele>659.6</ele><time>2026-04-19T08:48:01.37Z</time></trkpt><trkpt lat="39.3199164" lon="-2.8982522"><ele>659.8</ele><time>2026-04-19T08:48:02.373Z</time></trkpt><trkpt lat="39.3198088" lon="-2.8983532"><ele>660.0</ele><time>2026-04-19T08:48:03.376Z</time></trkpt><trkpt lat="39.3196928" lon="-2.8984773"><ele>659.0</ele><time>2026-04-19T08:48:04.373Z</time></trkpt><trkpt lat="39.3195624" lon="-2.8986206"><ele>658.0</ele><time>2026-04-19T08:48:05.375Z</time></trkpt><trkpt lat="39.3194208" lon="-2.8987837"><ele>657.0</ele><time>2026-04-19T08:48:06.372Z</time></trkpt><trkpt lat="39.319277" lon="-2.8989595"><ele>657.0</ele><time>2026-04-19T08:48:07.371Z</time></trkpt><trkpt lat="39.3191246" lon="-2.899141"><ele>657.0</ele><time>2026-04-19T08:48:08.374Z</time></trkpt><trkpt lat="39.318972" lon="-2.8993214"><ele>657.0</ele><time>2026-04-19T08:48:09.376Z</time></trkpt><trkpt lat="39.3188338" lon="-2.8994829"><ele>657.75</ele><time>2026-04-19T08:48:10.378Z</time></trkpt><trkpt lat="39.3187097" lon="-2.8996226"><ele>658.5</ele><time>2026-04-19T08:48:11.376Z</time></trkpt><trkpt lat="39.3186061" lon="-2.8997402"><ele>659.25</ele><time>2026-04-19T08:48:12.374Z</time></trkpt><trkpt lat="39.3185154" lon="-2.8998361"><ele>660.0</ele><time>2026-04-19T08:48:13.376Z</time></trkpt><trkpt lat="39.3184335" lon="-2.899913"><ele>660.0</ele><time>2026-04-19T08:48:14.38Z</time></trkpt><trkpt lat="39.3183407" lon="-2.8999911"><ele>660.0</ele><time>2026-04-19T08:48:15.372Z</time></trkpt><trkpt lat="39.3182243" lon="-2.9000753"><ele>660.0</ele><time>2026-04-19T08:48:16.381Z</time></trkpt><trkpt lat="39.3180808" lon="-2.9001616"><ele>660.0</ele><time>2026-04-19T08:48:17.372Z</time></trkpt><trkpt lat="39.3179119" lon="-2.9002545"><ele>659.6666666666666</ele><time>2026-04-19T08:48:18.372Z</time></trkpt><trkpt lat="39.3177209" lon="-2.9003565"><ele>659.3333333333333</ele><time>2026-04-19T08:48:19.377Z</time></trkpt><trkpt lat="39.3175179" lon="-2.9004638"><ele>659.0</ele><time>2026-04-19T08:48:20.372Z</time></trkpt><trkpt lat="39.3172966" lon="-2.9005784"><ele>658.5</ele><time>2026-04-19T08:48:21.373Z</time></trkpt><trkpt lat="39.3170598" lon="-2.9006978"><ele>658.0</ele><time>2026-04-19T08:48:22.377Z</time></trkpt><trkpt lat="39.3168078" lon="-2.9008208"><ele>658.0</ele><time>2026-04-19T08:48:23.383Z</time></trkpt><trkpt lat="39.3165591" lon="-2.9009359"><ele>658.0</ele><time>2026-04-19T08:48:24.374Z</time></trkpt><trkpt lat="39.3163318" lon="-2.9010344"><ele>657.6666666666667</ele><time>2026-04-19T08:48:25.373Z</time></trkpt><trkpt lat="39.3161268" lon="-2.9011176"><ele>657.3333333333334</ele><time>2026-04-19T08:48:26.369Z</time></trkpt><trkpt lat="39.3159426" lon="-2.9011933"><ele>657.0</ele><time>2026-04-19T08:48:27.376Z</time></trkpt><trkpt lat="39.3157785" lon="-2.9012618"><ele>657.0</ele><time>2026-04-19T08:48:28.373Z</time></trkpt><trkpt lat="39.3156347" lon="-2.9013192"><ele>657.0</ele><time>2026-04-19T08:48:29.372Z</time></trkpt><trkpt lat="39.315509" lon="-2.9013678"><ele>657.0</ele><time>2026-04-19T08:48:30.371Z</time></trkpt><trkpt lat="39.3153999" lon="-2.9014066"><ele>657.0</ele><time>2026-04-19T08:48:31.369Z</time></trkpt><trkpt lat="39.315302" lon="-2.9014411"><ele>657.2</ele><time>2026-04-19T08:48:32.37Z</time></trkpt><trkpt lat="39.3152113" lon="-2.9014752"><ele>657.4000000000001</ele><time>2026-04-19T08:48:33.37Z</time></trkpt><trkpt lat="39.3151172" lon="-2.9015154"><ele>657.5999999999999</ele><time>2026-04-19T08:48:34.372Z</time></trkpt><trkpt lat="39.3150107" lon="-2.9015714"><ele>657.8</ele><time>2026-04-19T08:48:35.377Z</time></trkpt><trkpt lat="39.3148959" lon="-2.9016426"><ele>658.0</ele><time>2026-04-19T08:48:36.376Z</time></trkpt><trkpt lat="39.3147753" lon="-2.9017105"><ele>658.0</ele><time>2026-04-19T08:48:37.369Z</time></trkpt><trkpt lat="39.3146336" lon="-2.901767"><ele>658.0</ele><time>2026-04-19T08:48:38.376Z</time></trkpt><trkpt lat="39.3144677" lon="-2.9018156"><ele>658.0</ele><time>2026-04-19T08:48:39.376Z</time></trkpt><trkpt lat="39.3142853" lon="-2.9018544"><ele>658.0</ele><time>2026-04-19T08:48:40.374Z</time></trkpt><trkpt lat="39.3140869" lon="-2.9019032"><ele>658.0</ele><time>2026-04-19T08:48:41.377Z</time></trkpt><trkpt lat="39.313884" lon="-2.9019709"><ele>658.0</ele><time>2026-04-19T08:48:42.376Z</time></trkpt><trkpt lat="39.3136838" lon="-2.9020598"><ele>657.5</ele><time>2026-04-19T08:48:43.376Z</time></trkpt><trkpt lat="39.313473" lon="-2.9021737"><ele>657.0</ele><time>2026-04-19T08:48:44.375Z</time></trkpt><trkpt lat="39.313262" lon="-2.9022917"><ele>657.0</ele><time>2026-04-19T08:48:45.39Z</time></trkpt><trkpt lat="39.3130664" lon="-2.9024001"><ele>657.0</ele><time>2026-04-19T08:48:46.377Z</time></trkpt><trkpt lat="39.312887" lon="-2.902496"><ele>657.0</ele><time>2026-04-19T08:48:47.371Z</time></trkpt><trkpt lat="39.3127005" lon="-2.9025802"><ele>658.5</ele><time>2026-04-19T08:48:48.374Z</time></trkpt><trkpt lat="39.312491" lon="-2.9026528"><ele>660.0</ele><time>2026-04-19T08:48:49.376Z</time></trkpt><trkpt lat="39.312259" lon="-2.9027212"><ele>659.0</ele><time>2026-04-19T08:48:50.374Z</time></trkpt><trkpt lat="39.3120126" lon="-2.9027898"><ele>658.0</ele><time>2026-04-19T08:48:51.38Z</time></trkpt><trkpt lat="39.311759" lon="-2.9028612"><ele>658.0</ele><time>2026-04-19T08:48:52.368Z</time></trkpt><trkpt lat="39.3114955" lon="-2.9029464"><ele>658.0</ele><time>2026-04-19T08:48:53.379Z</time></trkpt><trkpt lat="39.3112354" lon="-2.9030433"><ele>658.0</ele><time>2026-04-19T08:48:54.372Z</time></trkpt><trkpt lat="39.3109817" lon="-2.9031386"><ele>658.0</ele><time>2026-04-19T08:48:55.373Z</time></trkpt><trkpt lat="39.3107389" lon="-2.9032407"><ele>658.0</ele><time>2026-04-19T08:48:56.378Z</time></trkpt><trkpt lat="39.3105093" lon="-2.903341"><ele>658.0</ele><time>2026-04-19T08:48:57.371Z</time></trkpt><trkpt lat="39.3102929" lon="-2.9034301"><ele>658.0</ele><time>2026-04-19T08:48:58.382Z</time></trkpt><trkpt lat="39.3100884" lon="-2.9035129"><ele>658.0</ele><time>2026-04-19T08:48:59.376Z</time></trkpt><trkpt lat="39.3098871" lon="-2.9035882"><ele>658.0</ele><time>2026-04-19T08:49:00.373Z</time></trkpt><trkpt lat="39.3096732" lon="-2.9036569"><ele>658.0</ele><time>2026-04-19T08:49:01.383Z</time></trkpt><trkpt lat="39.3094408" lon="-2.903719"><ele>658.0</ele><time>2026-04-19T08:49:02.382Z</time></trkpt><trkpt lat="39.3091982" lon="-2.9037737"><ele>658.0</ele><time>2026-04-19T08:49:03.373Z</time></trkpt><trkpt lat="39.3089745" lon="-2.9038242"><ele>658.0</ele><time>2026-04-19T08:49:04.374Z</time></trkpt><trkpt lat="39.308769" lon="-2.903879"><ele>658.0</ele><time>2026-04-19T08:49:05.376Z</time></trkpt><trkpt lat="39.3085559" lon="-2.9039455"><ele>657.5</ele><time>2026-04-19T08:49:06.38Z</time></trkpt><trkpt lat="39.3083336" lon="-2.9040345"><ele>657.0</ele><time>2026-04-19T08:49:07.374Z</time></trkpt><trkpt lat="39.308103" lon="-2.9041445"><ele>657.0</ele><time>2026-04-19T08:49:08.381Z</time></trkpt><trkpt lat="39.3078684" lon="-2.9042673"><ele>657.0</ele><time>2026-04-19T08:49:09.373Z</time></trkpt><trkpt lat="39.3076329" lon="-2.9043845"><ele>657.0</ele><time>2026-04-19T08:49:10.372Z</time></trkpt><trkpt lat="39.3074015" lon="-2.904488"><ele>657.0</ele><time>2026-04-19T08:49:11.379Z</time></trkpt><trkpt lat="39.3071665" lon="-2.9045982"><ele>657.5</ele><time>2026-04-19T08:49:12.378Z</time></trkpt><trkpt lat="39.3069329" lon="-2.9047362"><ele>658.0</ele><time>2026-04-19T08:49:13.372Z</time></trkpt><trkpt lat="39.3066892" lon="-2.9048919"><ele>658.0</ele><time>2026-04-19T08:49:14.384Z</time></trkpt><trkpt lat="39.3064357" lon="-2.9050562"><ele>658.0</ele><time>2026-04-19T08:49:15.384Z</time></trkpt><trkpt lat="39.3061771" lon="-2.9052258"><ele>658.5</ele><time>2026-04-19T08:49:16.372Z</time></trkpt><trkpt lat="39.305919" lon="-2.9054011"><ele>659.0</ele><time>2026-04-19T08:49:17.382Z</time></trkpt><trkpt lat="39.3056638" lon="-2.905588"><ele>659.0</ele><time>2026-04-19T08:49:18.369Z</time></trkpt><trkpt lat="39.3054138" lon="-2.9057745"><ele>659.0</ele><time>2026-04-19T08:49:19.375Z</time></trkpt><trkpt lat="39.3051796" lon="-2.9059475"><ele>659.0</ele><time>2026-04-19T08:49:20.377Z</time></trkpt><trkpt lat="39.3049609" lon="-2.90611"><ele>659.0</ele><time>2026-04-19T08:49:21.369Z</time></trkpt><trkpt lat="39.3047567" lon="-2.9062633"><ele>659.0</ele><time>2026-04-19T08:49:22.37Z</time></trkpt><trkpt lat="39.3045674" lon="-2.9064039"><ele>659.0</ele><time>2026-04-19T08:49:23.377Z</time></trkpt><trkpt lat="39.3043893" lon="-2.9065358"><ele>659.0</ele><time>2026-04-19T08:49:24.378Z</time></trkpt><trkpt lat="39.3042215" lon="-2.9066579"><ele>658.6666666666666</ele><time>2026-04-19T08:49:25.381Z</time></trkpt><trkpt lat="39.3040616" lon="-2.9067664"><ele>658.3333333333334</ele><time>2026-04-19T08:49:26.377Z</time></trkpt><trkpt lat="39.3039059" lon="-2.9068612"><ele>658.0</ele><time>2026-04-19T08:49:27.373Z</time></trkpt><trkpt lat="39.3037474" lon="-2.9069407"><ele>658.0</ele><time>2026-04-19T08:49:28.376Z</time></trkpt><trkpt lat="39.3035834" lon="-2.9070077"><ele>658.0</ele><time>2026-04-19T08:49:29.376Z</time></trkpt><trkpt lat="39.3034088" lon="-2.9070891"><ele>658.0</ele><time>2026-04-19T08:49:30.378Z</time></trkpt><trkpt lat="39.3032241" lon="-2.9071969"><ele>657.6666666666667</ele><time>2026-04-19T08:49:31.369Z</time></trkpt><trkpt lat="39.3030288" lon="-2.9073204"><ele>657.3333333333334</ele><time>2026-04-19T08:49:32.374Z</time></trkpt><trkpt lat="39.3028217" lon="-2.9074352"><ele>657.0</ele><time>2026-04-19T08:49:33.375Z</time></trkpt><trkpt lat="39.3025878" lon="-2.9075485"><ele>657.0</ele><time>2026-04-19T08:49:34.374Z</time></trkpt><trkpt lat="39.3023366" lon="-2.9076684"><ele>657.0</ele><time>2026-04-19T08:49:35.374Z</time></trkpt><trkpt lat="39.3020806" lon="-2.9077879"><ele>658.0</ele><time>2026-04-19T08:49:36.37Z</time></trkpt><trkpt lat="39.3018269" lon="-2.9079052"><ele>659.0</ele><time>2026-04-19T08:49:37.377Z</time></trkpt><trkpt lat="39.3015964" lon="-2.9080087"><ele>659.0</ele><time>2026-04-19T08:49:38.38Z</time></trkpt><trkpt lat="39.3013971" lon="-2.9080981"><ele>659.0</ele><time>2026-04-19T08:49:39.379Z</time></trkpt><trkpt lat="39.3012339" lon="-2.9081698"><ele>659.0</ele><time>2026-04-19T08:49:40.37Z</time></trkpt><trkpt lat="39.3011028" lon="-2.9082217"><ele>659.0</ele><time>2026-04-19T08:49:41.37Z</time></trkpt><trkpt lat="39.3009986" lon="-2.9082584"><ele>659.0</ele><time>2026-04-19T08:49:42.369Z</time></trkpt><trkpt lat="39.3009047" lon="-2.9082762"><ele>659.0</ele><time>2026-04-19T08:49:43.37Z</time></trkpt><trkpt lat="39.3008012" lon="-2.9082717"><ele>659.0</ele><time>2026-04-19T08:49:44.375Z</time></trkpt><trkpt lat="39.3006875" lon="-2.908242"><ele>659.0</ele><time>2026-04-19T08:49:45.376Z</time></trkpt><trkpt lat="39.3005579" lon="-2.9081891"><ele>658.6666666666666</ele><time>2026-04-19T08:49:46.371Z</time></trkpt><trkpt lat="39.3004128" lon="-2.9081221"><ele>658.3333333333334</ele><time>2026-04-19T08:49:47.373Z</time></trkpt><trkpt lat="39.3002476" lon="-2.9080513"><ele>658.0</ele><time>2026-04-19T08:49:48.38Z</time></trkpt><trkpt lat="39.300056" lon="-2.9079825"><ele>658.0</ele><time>2026-04-19T08:49:49.376Z</time></trkpt><trkpt lat="39.2998439" lon="-2.9079128"><ele>658.0</ele><time>2026-04-19T08:49:50.379Z</time></trkpt><trkpt lat="39.2996167" lon="-2.9078349"><ele>659.0</ele><time>2026-04-19T08:49:51.373Z</time></trkpt><trkpt lat="39.2993702" lon="-2.9077428"><ele>660.0</ele><time>2026-04-19T08:49:52.374Z</time></trkpt><trkpt lat="39.2991261" lon="-2.9076469"><ele>659.5</ele><time>2026-04-19T08:49:53.373Z</time></trkpt><trkpt lat="39.2988977" lon="-2.9075601"><ele>659.0</ele><time>2026-04-19T08:49:54.369Z</time></trkpt><trkpt lat="39.2986807" lon="-2.9074795"><ele>659.0</ele><time>2026-04-19T08:49:55.375Z</time></trkpt><trkpt lat="39.2984698" lon="-2.9074073"><ele>659.0</ele><time>2026-04-19T08:49:56.37Z</time></trkpt><trkpt lat="39.2982459" lon="-2.9073408"><ele>659.0</ele><time>2026-04-19T08:49:57.378Z</time></trkpt><trkpt lat="39.2980054" lon="-2.9072802"><ele>658.0</ele><time>2026-04-19T08:49:58.377Z</time></trkpt><trkpt lat="39.2977698" lon="-2.9072253"><ele>657.0</ele><time>2026-04-19T08:49:59.371Z</time></trkpt><trkpt lat="39.2975485" lon="-2.9071765"><ele>657.0</ele><time>2026-04-19T08:50:00.378Z</time></trkpt><trkpt lat="39.2973407" lon="-2.907139"><ele>657.0</ele><time>2026-04-19T08:50:01.374Z</time></trkpt><trkpt lat="39.2971354" lon="-2.907105"><ele>657.0</ele><time>2026-04-19T08:50:02.374Z</time></trkpt><trkpt lat="39.2969147" lon="-2.9070847"><ele>657.0</ele><time>2026-04-19T08:50:03.382Z</time></trkpt><trkpt lat="39.2966778" lon="-2.9070831"><ele>657.0</ele><time>2026-04-19T08:50:04.372Z</time></trkpt><trkpt lat="39.2964225" lon="-2.9070961"><ele>657.0</ele><time>2026-04-19T08:50:05.372Z</time></trkpt><trkpt lat="39.2961757" lon="-2.9071098"><ele>657.0</ele><time>2026-04-19T08:50:06.37Z</time></trkpt><trkpt lat="39.2959525" lon="-2.9071244"><ele>657.0</ele><time>2026-04-19T08:50:07.367Z</time></trkpt><trkpt lat="39.2957525" lon="-2.9071384"><ele>657.0</ele><time>2026-04-19T08:50:08.378Z</time></trkpt><trkpt lat="39.2955754" lon="-2.9071502"><ele>657.0</ele><time>2026-04-19T08:50:09.373Z</time></trkpt><trkpt lat="39.2954" lon="-2.9071614"><ele>657.3333333333334</ele><time>2026-04-19T08:50:10.379Z</time></trkpt><trkpt lat="39.2952063" lon="-2.9071717"><ele>657.6666666666667</ele><time>2026-04-19T08:50:11.37Z</time></trkpt><trkpt lat="39.2949886" lon="-2.9071871"><ele>658.0</ele><time>2026-04-19T08:50:12.374Z</time></trkpt><trkpt lat="39.2947479" lon="-2.9072078"><ele>658.0</ele><time>2026-04-19T08:50:13.368Z</time></trkpt><trkpt lat="39.2944991" lon="-2.9072316"><ele>658.0</ele><time>2026-04-19T08:50:14.367Z</time></trkpt><trkpt lat="39.2942682" lon="-2.907253"><ele>658.0</ele><time>2026-04-19T08:50:15.372Z</time></trkpt><trkpt lat="39.2940605" lon="-2.9072761"><ele>658.0</ele><time>2026-04-19T08:50:16.373Z</time></trkpt><trkpt lat="39.2938571" lon="-2.9072952"><ele>658.0</ele><time>2026-04-19T08:50:17.371Z</time></trkpt><trkpt lat="39.2936406" lon="-2.9073119"><ele>658.3333333333334</ele><time>2026-04-19T08:50:18.371Z</time></trkpt><trkpt lat="39.293417" lon="-2.9073249"><ele>658.6666666666666</ele><time>2026-04-19T08:50:19.373Z</time></trkpt><trkpt lat="39.2931993" lon="-2.9073291"><ele>659.0</ele><time>2026-04-19T08:50:20.368Z</time></trkpt><trkpt lat="39.2929684" lon="-2.9073262"><ele>659.0</ele><time>2026-04-19T08:50:21.374Z</time></trkpt><trkpt lat="39.2927263" lon="-2.9073146"><ele>659.0</ele><time>2026-04-19T08:50:22.372Z</time></trkpt><trkpt lat="39.2924812" lon="-2.9072928"><ele>659.0</ele><time>2026-04-19T08:50:23.366Z</time></trkpt><trkpt lat="39.2922609" lon="-2.9072691"><ele>659.0</ele><time>2026-04-19T08:50:24.373Z</time></trkpt><trkpt lat="39.2920662" lon="-2.9072449"><ele>659.0</ele><time>2026-04-19T08:50:25.37Z</time></trkpt><trkpt lat="39.291895" lon="-2.9072204"><ele>659.0</ele><time>2026-04-19T08:50:26.386Z</time></trkpt><trkpt lat="39.2917485" lon="-2.9071938"><ele>659.0</ele><time>2026-04-19T08:50:27.369Z</time></trkpt><trkpt lat="39.2916245" lon="-2.9071681"><ele>659.0</ele><time>2026-04-19T08:50:28.369Z</time></trkpt><trkpt lat="39.2915223" lon="-2.9071417"><ele>659.0</ele><time>2026-04-19T08:50:29.367Z</time></trkpt><trkpt lat="39.2914375" lon="-2.9071157"><ele>659.0</ele><time>2026-04-19T08:50:30.374Z</time></trkpt><trkpt lat="39.2913682" lon="-2.907095"><ele>659.0</ele><time>2026-04-19T08:50:31.366Z</time></trkpt><trkpt lat="39.2912744" lon="-2.9070654"><ele>659.0</ele><time>2026-04-19T08:50:33.367Z</time></trkpt><trkpt lat="39.2911553" lon="-2.9070367"><ele>659.0</ele><time>2026-04-19T08:50:38.368Z</time></trkpt><trkpt lat="39.2910857" lon="-2.9070159"><ele>659.0</ele><time>2026-04-19T08:50:40.371Z</time></trkpt><trkpt lat="39.2910212" lon="-2.9069925"><ele>659.0</ele><time>2026-04-19T08:50:42.37Z</time></trkpt><trkpt lat="39.2909267" lon="-2.9069627"><ele>659.0</ele><time>2026-04-19T08:50:44.378Z</time></trkpt><trkpt lat="39.2908646" lon="-2.9069356"><ele>659.0</ele><time>2026-04-19T08:50:45.37Z</time></trkpt><trkpt lat="39.2907811" lon="-2.9068987"><ele>659.0</ele><time>2026-04-19T08:50:46.367Z</time></trkpt><trkpt lat="39.2906894" lon="-2.9068591"><ele>659.0</ele><time>2026-04-19T08:50:47.364Z</time></trkpt><trkpt lat="39.2905815" lon="-2.9067997"><ele>659.0</ele><time>2026-04-19T08:50:48.376Z</time></trkpt><trkpt lat="39.2904507" lon="-2.9067223"><ele>659.0</ele><time>2026-04-19T08:50:49.365Z</time></trkpt><trkpt lat="39.2903056" lon="-2.9066349"><ele>659.0</ele><time>2026-04-19T08:50:50.371Z</time></trkpt><trkpt lat="39.2901416" lon="-2.9065384"><ele>659.0</ele><time>2026-04-19T08:50:51.377Z</time></trkpt><trkpt lat="39.2899695" lon="-2.9064401"><ele>659.0</ele><time>2026-04-19T08:50:52.374Z</time></trkpt><trkpt lat="39.2898073" lon="-2.9063468"><ele>659.0</ele><time>2026-04-19T08:50:53.37Z</time></trkpt><trkpt lat="39.2896558" lon="-2.9062468"><ele>659.0</ele><time>2026-04-19T08:50:54.37Z</time></trkpt><trkpt lat="39.289505" lon="-2.9061311"><ele>659.6666666666666</ele><time>2026-04-19T08:50:55.365Z</time></trkpt><trkpt lat="39.2893628" lon="-2.9059946"><ele>660.3333333333334</ele><time>2026-04-19T08:50:56.372Z</time></trkpt><trkpt lat="39.2892223" lon="-2.9058207"><ele>661.0</ele><time>2026-04-19T08:50:57.372Z</time></trkpt><trkpt lat="39.2890777" lon="-2.9056145"><ele>661.0</ele><time>2026-04-19T08:50:58.366Z</time></trkpt><trkpt lat="39.2889355" lon="-2.9053834"><ele>661.0</ele><time>2026-04-19T08:50:59.382Z</time></trkpt><trkpt lat="39.288791" lon="-2.9051218"><ele>661.0</ele><time>2026-04-19T08:51:00.37Z</time></trkpt><trkpt lat="39.2886541" lon="-2.9048451"><ele>661.0</ele><time>2026-04-19T08:51:01.37Z</time></trkpt><trkpt lat="39.2885221" lon="-2.9045415"><ele>660.0</ele><time>2026-04-19T08:51:02.37Z</time></trkpt><trkpt lat="39.2883964" lon="-2.9042238"><ele>659.0</ele><time>2026-04-19T08:51:03.365Z</time></trkpt><trkpt lat="39.2882818" lon="-2.9039276"><ele>659.0</ele><time>2026-04-19T08:51:04.368Z</time></trkpt><trkpt lat="39.2881777" lon="-2.9036557"><ele>659.0</ele><time>2026-04-19T08:51:05.365Z</time></trkpt><trkpt lat="39.288084" lon="-2.9034072"><ele>659.0</ele><time>2026-04-19T08:51:06.369Z</time></trkpt><trkpt lat="39.2879944" lon="-2.9031761"><ele>660.0</ele><time>2026-04-19T08:51:07.377Z</time></trkpt><trkpt lat="39.287904" lon="-2.9029657"><ele>661.0</ele><time>2026-04-19T08:51:08.369Z</time></trkpt><trkpt lat="39.2878144" lon="-2.9027784"><ele>662.0</ele><time>2026-04-19T08:51:09.371Z</time></trkpt><trkpt lat="39.2877205" lon="-2.9026105"><ele>662.3333333333333</ele><time>2026-04-19T08:51:10.369Z</time></trkpt><trkpt lat="39.2876044" lon="-2.9024361"><ele>662.6666666666666</ele><time>2026-04-19T08:51:11.365Z</time></trkpt><trkpt lat="39.2874684" lon="-2.9022704"><ele>663.0</ele><time>2026-04-19T08:51:12.371Z</time></trkpt><trkpt lat="39.2873155" lon="-2.9021118"><ele>662.3333333333334</ele><time>2026-04-19T08:51:13.367Z</time></trkpt><trkpt lat="39.2871484" lon="-2.9019747"><ele>661.6666666666667</ele><time>2026-04-19T08:51:14.37Z</time></trkpt><trkpt lat="39.2869982" lon="-2.9018562"><ele>661.0</ele><time>2026-04-19T08:51:15.362Z</time></trkpt><trkpt lat="39.286866" lon="-2.9017638"><ele>661.5</ele><time>2026-04-19T08:51:16.368Z</time></trkpt><trkpt lat="39.2867468" lon="-2.9016721"><ele>662.0</ele><time>2026-04-19T08:51:17.372Z</time></trkpt><trkpt lat="39.2866396" lon="-2.9015989"><ele>662.5</ele><time>2026-04-19T08:51:18.366Z</time></trkpt><trkpt lat="39.2865394" lon="-2.9015374"><ele>663.0</ele><time>2026-04-19T08:51:19.363Z</time></trkpt><trkpt lat="39.286451" lon="-2.9014802"><ele>662.8333333333334</ele><time>2026-04-19T08:51:20.366Z</time></trkpt><trkpt lat="39.2863633" lon="-2.9014371"><ele>662.6666666666666</ele><time>2026-04-19T08:51:21.37Z</time></trkpt><trkpt lat="39.2862871" lon="-2.9014115"><ele>662.5</ele><time>2026-04-19T08:51:22.372Z</time></trkpt><trkpt lat="39.2862211" lon="-2.9013869"><ele>662.3333333333333</ele><time>2026-04-19T08:51:23.372Z</time></trkpt><trkpt lat="39.2861398" lon="-2.9013116"><ele>662.1666666666666</ele><time>2026-04-19T08:51:25.371Z</time></trkpt><trkpt lat="39.286114" lon="-2.9012249"><ele>662.0</ele><time>2026-04-19T08:51:27.375Z</time></trkpt><trkpt lat="39.286106" lon="-2.9011196"><ele>662.0</ele><time>2026-04-19T08:51:29.367Z</time></trkpt><trkpt lat="39.2861162" lon="-2.9010183"><ele>662.0</ele><time>2026-04-19T08:51:31.369Z</time></trkpt><trkpt lat="39.2861145" lon="-2.9009273"><ele>662.0</ele><time>2026-04-19T08:51:33.37Z</time></trkpt><trkpt lat="39.2861561" lon="-2.900865"><ele>662.0</ele><time>2026-04-19T08:51:35.379Z</time></trkpt><trkpt lat="39.2862102" lon="-2.9007566"><ele>662.0</ele><time>2026-04-19T08:51:38.367Z</time></trkpt><trkpt lat="39.2862102" lon="-2.9005828"><ele>662.0</ele><time>2026-04-19T08:51:40.364Z</time></trkpt><trkpt lat="39.2862059" lon="-2.9004923"><ele>662.1666666666666</ele><time>2026-04-19T08:51:41.369Z</time></trkpt><trkpt lat="39.286203" lon="-2.9004085"><ele>662.3333333333333</ele><time>2026-04-19T08:51:42.367Z</time></trkpt><trkpt lat="39.2861963" lon="-2.9002721"><ele>662.5</ele><time>2026-04-19T08:51:44.367Z</time></trkpt><trkpt lat="39.2862083" lon="-2.9001694"><ele>662.6666666666666</ele><time>2026-04-19T08:51:46.372Z</time></trkpt><trkpt lat="39.2862217" lon="-2.9000866"><ele>662.8333333333334</ele><time>2026-04-19T08:51:48.375Z</time></trkpt><trkpt lat="39.2862134" lon="-2.8999912"><ele>663.0</ele><time>2026-04-19T08:51:50.369Z</time></trkpt><trkpt lat="39.2861878" lon="-2.8998659"><ele>663.0</ele><time>2026-04-19T08:51:52.379Z</time></trkpt><trkpt lat="39.2861682" lon="-2.8996992"><ele>663.0</ele><time>2026-04-19T08:51:54.378Z</time></trkpt><trkpt lat="39.2861645" lon="-2.8995909"><ele>663.0</ele><time>2026-04-19T08:51:55.381Z</time></trkpt><trkpt lat="39.2861533" lon="-2.899475"><ele>663.0</ele><time>2026-04-19T08:51:56.373Z</time></trkpt><trkpt lat="39.2861459" lon="-2.8993362"><ele>663.0</ele><time>2026-04-19T08:51:57.372Z</time></trkpt><trkpt lat="39.2861375" lon="-2.8991714"><ele>662.6666666666666</ele><time>2026-04-19T08:51:58.379Z</time></trkpt><trkpt lat="39.2861286" lon="-2.8989878"><ele>662.3333333333333</ele><time>2026-04-19T08:51:59.375Z</time></trkpt><trkpt lat="39.2861215" lon="-2.8987782"><ele>662.0</ele><time>2026-04-19T08:52:00.376Z</time></trkpt><trkpt lat="39.2861133" lon="-2.8985552"><ele>662.0</ele><time>2026-04-19T08:52:01.374Z</time></trkpt><trkpt lat="39.2861065" lon="-2.8983128"><ele>662.0</ele><time>2026-04-19T08:52:02.371Z</time></trkpt><trkpt lat="39.2860957" lon="-2.8980408"><ele>662.0</ele><time>2026-04-19T08:52:03.377Z</time></trkpt><trkpt lat="39.2860795" lon="-2.8977517"><ele>663.0</ele><time>2026-04-19T08:52:04.374Z</time></trkpt><trkpt lat="39.2860568" lon="-2.8974382"><ele>664.0</ele><time>2026-04-19T08:52:05.377Z</time></trkpt><trkpt lat="39.2860315" lon="-2.8970974"><ele>663.5</ele><time>2026-04-19T08:52:06.369Z</time></trkpt><trkpt lat="39.286004" lon="-2.8967439"><ele>663.0</ele><time>2026-04-19T08:52:07.368Z</time></trkpt><trkpt lat="39.2859778" lon="-2.8963719"><ele>663.0</ele><time>2026-04-19T08:52:08.384Z</time></trkpt><trkpt lat="39.2859513" lon="-2.8959816"><ele>663.0</ele><time>2026-04-19T08:52:09.374Z</time></trkpt><trkpt lat="39.2859243" lon="-2.8955835"><ele>663.0</ele><time>2026-04-19T08:52:10.369Z</time></trkpt><trkpt lat="39.2859012" lon="-2.8951847"><ele>663.0</ele><time>2026-04-19T08:52:11.37Z</time></trkpt><trkpt lat="39.2858789" lon="-2.8947717"><ele>663.0</ele><time>2026-04-19T08:52:12.37Z</time></trkpt><trkpt lat="39.2858569" lon="-2.8943582"><ele>663.0</ele><time>2026-04-19T08:52:13.377Z</time></trkpt><trkpt lat="39.2858318" lon="-2.8939733"><ele>663.5</ele><time>2026-04-19T08:52:14.371Z</time></trkpt><trkpt lat="39.2857982" lon="-2.8936165"><ele>664.0</ele><time>2026-04-19T08:52:15.375Z</time></trkpt><trkpt lat="39.285758" lon="-2.8932791"><ele>664.5</ele><time>2026-04-19T08:52:16.381Z</time></trkpt><trkpt lat="39.2857062" lon="-2.8929452"><ele>665.0</ele><time>2026-04-19T08:52:17.369Z</time></trkpt><trkpt lat="39.2856376" lon="-2.8925955"><ele>666.0</ele><time>2026-04-19T08:52:18.369Z</time></trkpt><trkpt lat="39.2855582" lon="-2.8922329"><ele>667.0</ele><time>2026-04-19T08:52:19.371Z</time></trkpt><trkpt lat="39.2854814" lon="-2.891892"><ele>666.5</ele><time>2026-04-19T08:52:20.366Z</time></trkpt><trkpt lat="39.2854082" lon="-2.8915763"><ele>666.0</ele><time>2026-04-19T08:52:21.374Z</time></trkpt><trkpt lat="39.2853372" lon="-2.8912876"><ele>666.0</ele><time>2026-04-19T08:52:22.378Z</time></trkpt><trkpt lat="39.2852692" lon="-2.8910264"><ele>666.0</ele><time>2026-04-19T08:52:23.374Z</time></trkpt><trkpt lat="39.2852074" lon="-2.8907917"><ele>666.0</ele><time>2026-04-19T08:52:24.378Z</time></trkpt><trkpt lat="39.2851518" lon="-2.8905796"><ele>666.0</ele><time>2026-04-19T08:52:25.374Z</time></trkpt><trkpt lat="39.2851007" lon="-2.8903873"><ele>666.0</ele><time>2026-04-19T08:52:26.372Z</time></trkpt><trkpt lat="39.2850555" lon="-2.8902137"><ele>666.0</ele><time>2026-04-19T08:52:27.373Z</time></trkpt><trkpt lat="39.2850162" lon="-2.8900566"><ele>666.0</ele><time>2026-04-19T08:52:28.381Z</time></trkpt><trkpt lat="39.284984" lon="-2.8899187"><ele>666.0</ele><time>2026-04-19T08:52:29.367Z</time></trkpt><trkpt lat="39.2849572" lon="-2.889802"><ele>666.0</ele><time>2026-04-19T08:52:30.374Z</time></trkpt><trkpt lat="39.2849319" lon="-2.8897017"><ele>666.0</ele><time>2026-04-19T08:52:31.371Z</time></trkpt><trkpt lat="39.2848937" lon="-2.8896131"><ele>666.0</ele><time>2026-04-19T08:52:32.369Z</time></trkpt><trkpt lat="39.2848324" lon="-2.8895345"><ele>666.0</ele><time>2026-04-19T08:52:33.375Z</time></trkpt><trkpt lat="39.2847511" lon="-2.8894663"><ele>666.0</ele><time>2026-04-19T08:52:34.374Z</time></trkpt><trkpt lat="39.2846404" lon="-2.8894035"><ele>666.6666666666666</ele><time>2026-04-19T08:52:35.371Z</time></trkpt><trkpt lat="39.284503" lon="-2.8893393"><ele>667.3333333333333</ele><time>2026-04-19T08:52:36.381Z</time></trkpt><trkpt lat="39.2843493" lon="-2.8892658"><ele>668.0</ele><time>2026-04-19T08:52:37.371Z</time></trkpt><trkpt lat="39.2841755" lon="-2.8891765"><ele>668.0</ele><time>2026-04-19T08:52:38.379Z</time></trkpt><trkpt lat="39.2839904" lon="-2.8890832"><ele>668.0</ele><time>2026-04-19T08:52:39.377Z</time></trkpt><trkpt lat="39.2837874" lon="-2.888984"><ele>668.0</ele><time>2026-04-19T08:52:40.372Z</time></trkpt><trkpt lat="39.2835647" lon="-2.8888791"><ele>667.0</ele><time>2026-04-19T08:52:41.372Z</time></trkpt><trkpt lat="39.2833242" lon="-2.8887657"><ele>666.0</ele><time>2026-04-19T08:52:42.379Z</time></trkpt><trkpt lat="39.283087" lon="-2.8886531"><ele>665.0</ele><time>2026-04-19T08:52:43.372Z</time></trkpt><trkpt lat="39.2828587" lon="-2.8885407"><ele>664.0</ele><time>2026-04-19T08:52:44.371Z</time></trkpt><trkpt lat="39.2826224" lon="-2.8884214"><ele>664.0</ele><time>2026-04-19T08:52:45.375Z</time></trkpt><trkpt lat="39.2823797" lon="-2.8883006"><ele>664.0</ele><time>2026-04-19T08:52:46.372Z</time></trkpt><trkpt lat="39.28213" lon="-2.8881846"><ele>663.5</ele><time>2026-04-19T08:52:47.371Z</time></trkpt><trkpt lat="39.2818903" lon="-2.8880798"><ele>663.0</ele><time>2026-04-19T08:52:48.367Z</time></trkpt><trkpt lat="39.2816629" lon="-2.88799"><ele>663.0</ele><time>2026-04-19T08:52:49.378Z</time></trkpt><trkpt lat="39.2814505" lon="-2.8879153"><ele>663.0</ele><time>2026-04-19T08:52:50.374Z</time></trkpt><trkpt lat="39.2812514" lon="-2.8878495"><ele>663.0</ele><time>2026-04-19T08:52:51.37Z</time></trkpt><trkpt lat="39.2810687" lon="-2.8877871"><ele>662.6666666666666</ele><time>2026-04-19T08:52:52.376Z</time></trkpt><trkpt lat="39.2809032" lon="-2.8877345"><ele>662.3333333333333</ele><time>2026-04-19T08:52:53.374Z</time></trkpt><trkpt lat="39.2807607" lon="-2.8876927"><ele>662.0</ele><time>2026-04-19T08:52:54.369Z</time></trkpt><trkpt lat="39.2806212" lon="-2.8876619"><ele>661.6666666666666</ele><time>2026-04-19T08:52:55.371Z</time></trkpt><trkpt lat="39.2804629" lon="-2.8876421"><ele>661.3333333333334</ele><time>2026-04-19T08:52:56.365Z</time></trkpt><trkpt lat="39.2802903" lon="-2.8876397"><ele>661.0</ele><time>2026-04-19T08:52:57.369Z</time></trkpt><trkpt lat="39.2801191" lon="-2.8876498"><ele>661.0</ele><time>2026-04-19T08:52:58.374Z</time></trkpt><trkpt lat="39.2799413" lon="-2.8876485"><ele>661.0</ele><time>2026-04-19T08:52:59.367Z</time></trkpt><trkpt lat="39.2797495" lon="-2.8876325"><ele>661.0</ele><time>2026-04-19T08:53:00.368Z</time></trkpt><trkpt lat="39.2795632" lon="-2.8876077"><ele>661.3333333333334</ele><time>2026-04-19T08:53:01.37Z</time></trkpt><trkpt lat="39.2793879" lon="-2.8875833"><ele>661.6666666666666</ele><time>2026-04-19T08:53:02.373Z</time></trkpt><trkpt lat="39.2792194" lon="-2.8875715"><ele>662.0</ele><time>2026-04-19T08:53:03.37Z</time></trkpt><trkpt lat="39.2790645" lon="-2.8875516"><ele>662.0</ele><time>2026-04-19T08:53:04.39Z</time></trkpt><trkpt lat="39.2789195" lon="-2.8875298"><ele>662.0</ele><time>2026-04-19T08:53:05.372Z</time></trkpt><trkpt lat="39.2787729" lon="-2.8875144"><ele>662.0</ele><time>2026-04-19T08:53:06.374Z</time></trkpt><trkpt lat="39.2786239" lon="-2.8875149"><ele>662.0</ele><time>2026-04-19T08:53:07.372Z</time></trkpt><trkpt lat="39.2784487" lon="-2.8874847"><ele>662.0</ele><time>2026-04-19T08:53:08.383Z</time></trkpt><trkpt lat="39.2782672" lon="-2.8874591"><ele>662.0</ele><time>2026-04-19T08:53:09.373Z</time></trkpt><trkpt lat="39.2780754" lon="-2.8874389"><ele>662.0</ele><time>2026-04-19T08:53:10.378Z</time></trkpt><trkpt lat="39.2778871" lon="-2.8874213"><ele>662.0</ele><time>2026-04-19T08:53:11.37Z</time></trkpt><trkpt lat="39.2776867" lon="-2.8873982"><ele>662.0</ele><time>2026-04-19T08:53:12.377Z</time></trkpt><trkpt lat="39.2774685" lon="-2.8873739"><ele>662.0</ele><time>2026-04-19T08:53:13.372Z</time></trkpt><trkpt lat="39.2772289" lon="-2.8873478"><ele>662.0</ele><time>2026-04-19T08:53:14.372Z</time></trkpt><trkpt lat="39.2769833" lon="-2.8873213"><ele>662.0</ele><time>2026-04-19T08:53:15.373Z</time></trkpt><trkpt lat="39.2767561" lon="-2.8872985"><ele>662.0</ele><time>2026-04-19T08:53:16.374Z</time></trkpt><trkpt lat="39.2765434" lon="-2.8872778"><ele>662.0</ele><time>2026-04-19T08:53:17.374Z</time></trkpt><trkpt lat="39.2763375" lon="-2.8872608"><ele>662.0</ele><time>2026-04-19T08:53:18.375Z</time></trkpt><trkpt lat="39.2761421" lon="-2.8872517"><ele>662.0</ele><time>2026-04-19T08:53:19.372Z</time></trkpt><trkpt lat="39.2759375" lon="-2.887255"><ele>662.0</ele><time>2026-04-19T08:53:20.376Z</time></trkpt><trkpt lat="39.2757241" lon="-2.8872616"><ele>662.0</ele><time>2026-04-19T08:53:21.378Z</time></trkpt><trkpt lat="39.2755017" lon="-2.8872824"><ele>661.6666666666666</ele><time>2026-04-19T08:53:22.375Z</time></trkpt><trkpt lat="39.2752979" lon="-2.8872987"><ele>661.3333333333334</ele><time>2026-04-19T08:53:23.376Z</time></trkpt><trkpt lat="39.2750824" lon="-2.8873188"><ele>661.0</ele><time>2026-04-19T08:53:24.375Z</time></trkpt><trkpt lat="39.2748615" lon="-2.8873366"><ele>661.0</ele><time>2026-04-19T08:53:25.367Z</time></trkpt><trkpt lat="39.2746363" lon="-2.8873454"><ele>661.0</ele><time>2026-04-19T08:53:26.375Z</time></trkpt><trkpt lat="39.2744075" lon="-2.8873491"><ele>661.0</ele><time>2026-04-19T08:53:27.377Z</time></trkpt><trkpt lat="39.2741613" lon="-2.8873637"><ele>661.0</ele><time>2026-04-19T08:53:28.378Z</time></trkpt><trkpt lat="39.2738976" lon="-2.8873767"><ele>661.0</ele><time>2026-04-19T08:53:29.38Z</time></trkpt><trkpt lat="39.2736199" lon="-2.8873844"><ele>661.0</ele><time>2026-04-19T08:53:30.379Z</time></trkpt><trkpt lat="39.273327" lon="-2.8873904"><ele>661.5</ele><time>2026-04-19T08:53:31.381Z</time></trkpt><trkpt lat="39.2730348" lon="-2.887409"><ele>662.0</ele><time>2026-04-19T08:53:32.376Z</time></trkpt><trkpt lat="39.2727559" lon="-2.8874037"><ele>662.0</ele><time>2026-04-19T08:53:33.381Z</time></trkpt><trkpt lat="39.2724988" lon="-2.8873962"><ele>662.0</ele><time>2026-04-19T08:53:34.37Z</time></trkpt><trkpt lat="39.2722565" lon="-2.8873894"><ele>662.0</ele><time>2026-04-19T08:53:35.388Z</time></trkpt><trkpt lat="39.2720336" lon="-2.8873827"><ele>662.0</ele><time>2026-04-19T08:53:36.378Z</time></trkpt><trkpt lat="39.2718247" lon="-2.887373"><ele>662.0</ele><time>2026-04-19T08:53:37.376Z</time></trkpt><trkpt lat="39.2716121" lon="-2.8873515"><ele>662.0</ele><time>2026-04-19T08:53:38.374Z</time></trkpt><trkpt lat="39.2713781" lon="-2.8873155"><ele>662.0</ele><time>2026-04-19T08:53:39.376Z</time></trkpt><trkpt lat="39.2711344" lon="-2.8872663"><ele>662.0</ele><time>2026-04-19T08:53:40.376Z</time></trkpt><trkpt lat="39.2709115" lon="-2.887203"><ele>662.0</ele><time>2026-04-19T08:53:41.37Z</time></trkpt><trkpt lat="39.2707016" lon="-2.8871377"><ele>662.0</ele><time>2026-04-19T08:53:42.375Z</time></trkpt><trkpt lat="39.2705093" lon="-2.8870705"><ele>662.6666666666666</ele><time>2026-04-19T08:53:43.374Z</time></trkpt><trkpt lat="39.2703294" lon="-2.8870034"><ele>663.3333333333334</ele><time>2026-04-19T08:53:44.374Z</time></trkpt><trkpt lat="39.2701619" lon="-2.886944"><ele>664.0</ele><time>2026-04-19T08:53:45.374Z</time></trkpt><trkpt lat="39.2699968" lon="-2.8868956"><ele>664.0</ele><time>2026-04-19T08:53:46.373Z</time></trkpt><trkpt lat="39.2698401" lon="-2.8868593"><ele>664.0</ele><time>2026-04-19T08:53:47.372Z</time></trkpt><trkpt lat="39.2696885" lon="-2.886832"><ele>664.0</ele><time>2026-04-19T08:53:48.37Z</time></trkpt><trkpt lat="39.2695339" lon="-2.8868061"><ele>664.0</ele><time>2026-04-19T08:53:49.373Z</time></trkpt><trkpt lat="39.2693709" lon="-2.8867802"><ele>664.0</ele><time>2026-04-19T08:53:50.367Z</time></trkpt><trkpt lat="39.2691958" lon="-2.8867521"><ele>664.0</ele><time>2026-04-19T08:53:51.372Z</time></trkpt><trkpt lat="39.2690128" lon="-2.8867062"><ele>663.6666666666667</ele><time>2026-04-19T08:53:52.372Z</time></trkpt><trkpt lat="39.2688265" lon="-2.8866407"><ele>663.3333333333334</ele><time>2026-04-19T08:53:53.368Z</time></trkpt><trkpt lat="39.2686449" lon="-2.8865763"><ele>663.0</ele><time>2026-04-19T08:53:54.372Z</time></trkpt><trkpt lat="39.2684539" lon="-2.8865181"><ele>663.0</ele><time>2026-04-19T08:53:55.385Z</time></trkpt><trkpt lat="39.2682465" lon="-2.8864584"><ele>663.0</ele><time>2026-04-19T08:53:56.37Z</time></trkpt><trkpt lat="39.268057" lon="-2.8864081"><ele>663.0</ele><time>2026-04-19T08:53:57.372Z</time></trkpt><trkpt lat="39.2678797" lon="-2.8863736"><ele>663.0</ele><time>2026-04-19T08:53:58.379Z</time></trkpt><trkpt lat="39.2676918" lon="-2.8863197"><ele>663.0</ele><time>2026-04-19T08:53:59.372Z</time></trkpt><trkpt lat="39.2675073" lon="-2.8862696"><ele>663.0</ele><time>2026-04-19T08:54:00.369Z</time></trkpt><trkpt lat="39.267336" lon="-2.8862193"><ele>663.3333333333334</ele><time>2026-04-19T08:54:01.369Z</time></trkpt><trkpt lat="39.2671774" lon="-2.8861758"><ele>663.6666666666667</ele><time>2026-04-19T08:54:02.382Z</time></trkpt><trkpt lat="39.2670303" lon="-2.886133"><ele>664.0</ele><time>2026-04-19T08:54:03.37Z</time></trkpt><trkpt lat="39.2668946" lon="-2.8860859"><ele>664.0</ele><time>2026-04-19T08:54:04.369Z</time></trkpt><trkpt lat="39.2667689" lon="-2.8860341"><ele>664.0</ele><time>2026-04-19T08:54:05.371Z</time></trkpt><trkpt lat="39.2666497" lon="-2.885979"><ele>664.0</ele><time>2026-04-19T08:54:06.367Z</time></trkpt><trkpt lat="39.2665365" lon="-2.8859156"><ele>664.0</ele><time>2026-04-19T08:54:07.377Z</time></trkpt><trkpt lat="39.2664148" lon="-2.8858388"><ele>663.3333333333334</ele><time>2026-04-19T08:54:08.369Z</time></trkpt><trkpt lat="39.2662767" lon="-2.8857495"><ele>662.6666666666666</ele><time>2026-04-19T08:54:09.378Z</time></trkpt><trkpt lat="39.2661168" lon="-2.8856421"><ele>662.0</ele><time>2026-04-19T08:54:10.371Z</time></trkpt><trkpt lat="39.2659345" lon="-2.8855124"><ele>662.0</ele><time>2026-04-19T08:54:11.371Z</time></trkpt><trkpt lat="39.2657343" lon="-2.8853691"><ele>662.0</ele><time>2026-04-19T08:54:12.379Z</time></trkpt><trkpt lat="39.2655432" lon="-2.8852343"><ele>662.0</ele><time>2026-04-19T08:54:13.37Z</time></trkpt><trkpt lat="39.2653654" lon="-2.8851121"><ele>662.3333333333333</ele><time>2026-04-19T08:54:14.373Z</time></trkpt><trkpt lat="39.2651896" lon="-2.8849999"><ele>662.6666666666666</ele><time>2026-04-19T08:54:15.373Z</time></trkpt><trkpt lat="39.2649917" lon="-2.8848851"><ele>663.0</ele><time>2026-04-19T08:54:16.37Z</time></trkpt><trkpt lat="39.2647814" lon="-2.8847628"><ele>663.0</ele><time>2026-04-19T08:54:17.367Z</time></trkpt><trkpt lat="39.2645621" lon="-2.8846295"><ele>663.0</ele><time>2026-04-19T08:54:18.376Z</time></trkpt><trkpt lat="39.2643286" lon="-2.8844832"><ele>663.0</ele><time>2026-04-19T08:54:19.368Z</time></trkpt><trkpt lat="39.2640938" lon="-2.8843319"><ele>663.0</ele><time>2026-04-19T08:54:20.37Z</time></trkpt><trkpt lat="39.2638525" lon="-2.8841792"><ele>663.5</ele><time>2026-04-19T08:54:21.37Z</time></trkpt><trkpt lat="39.2636204" lon="-2.8840333"><ele>664.0</ele><time>2026-04-19T08:54:22.37Z</time></trkpt><trkpt lat="39.2634109" lon="-2.8838967"><ele>664.0</ele><time>2026-04-19T08:54:23.371Z</time></trkpt><trkpt lat="39.2631983" lon="-2.8837419"><ele>664.0</ele><time>2026-04-19T08:54:24.377Z</time></trkpt><trkpt lat="39.2629948" lon="-2.8835949"><ele>663.3333333333334</ele><time>2026-04-19T08:54:25.375Z</time></trkpt><trkpt lat="39.2628306" lon="-2.8834559"><ele>662.6666666666666</ele><time>2026-04-19T08:54:26.364Z</time></trkpt><trkpt lat="39.2626802" lon="-2.8833419"><ele>662.0</ele><time>2026-04-19T08:54:27.373Z</time></trkpt><trkpt lat="39.2625121" lon="-2.8832268"><ele>662.0</ele><time>2026-04-19T08:54:28.374Z</time></trkpt><trkpt lat="39.2623438" lon="-2.8831135"><ele>662.0</ele><time>2026-04-19T08:54:29.374Z</time></trkpt><trkpt lat="39.2621565" lon="-2.8829931"><ele>662.0</ele><time>2026-04-19T08:54:30.374Z</time></trkpt><trkpt lat="39.2619618" lon="-2.8828625"><ele>662.5</ele><time>2026-04-19T08:54:31.369Z</time></trkpt><trkpt lat="39.2617596" lon="-2.8827116"><ele>663.0</ele><time>2026-04-19T08:54:32.374Z</time></trkpt><trkpt lat="39.261568" lon="-2.882548"><ele>663.0</ele><time>2026-04-19T08:54:33.379Z</time></trkpt><trkpt lat="39.2613852" lon="-2.882384"><ele>663.0</ele><time>2026-04-19T08:54:34.374Z</time></trkpt><trkpt lat="39.2611907" lon="-2.8822199"><ele>663.0</ele><time>2026-04-19T08:54:35.371Z</time></trkpt><trkpt lat="39.2609979" lon="-2.882067"><ele>663.0</ele><time>2026-04-19T08:54:36.37Z</time></trkpt><trkpt lat="39.2608182" lon="-2.881927"><ele>663.0</ele><time>2026-04-19T08:54:37.37Z</time></trkpt><trkpt lat="39.2606473" lon="-2.8817986"><ele>663.3333333333334</ele><time>2026-04-19T08:54:38.371Z</time></trkpt><trkpt lat="39.2604834" lon="-2.8816842"><ele>663.6666666666667</ele><time>2026-04-19T08:54:39.374Z</time></trkpt><trkpt lat="39.2603289" lon="-2.8815819"><ele>664.0</ele><time>2026-04-19T08:54:40.371Z</time></trkpt><trkpt lat="39.2601896" lon="-2.881489"><ele>664.0</ele><time>2026-04-19T08:54:41.373Z</time></trkpt><trkpt lat="39.26007" lon="-2.8814073"><ele>664.0</ele><time>2026-04-19T08:54:42.371Z</time></trkpt><trkpt lat="39.2599584" lon="-2.8813329"><ele>664.0</ele><time>2026-04-19T08:54:43.375Z</time></trkpt><trkpt lat="39.2598539" lon="-2.881257"><ele>664.0</ele><time>2026-04-19T08:54:44.372Z</time></trkpt><trkpt lat="39.2597511" lon="-2.8811682"><ele>664.25</ele><time>2026-04-19T08:54:45.376Z</time></trkpt><trkpt lat="39.2596391" lon="-2.8810668"><ele>664.5</ele><time>2026-04-19T08:54:46.373Z</time></trkpt><trkpt lat="39.2595253" lon="-2.8809553"><ele>664.75</ele><time>2026-04-19T08:54:47.379Z</time></trkpt><trkpt lat="39.2594098" lon="-2.8808264"><ele>665.0</ele><time>2026-04-19T08:54:48.373Z</time></trkpt><trkpt lat="39.2592903" lon="-2.8806836"><ele>665.3333333333333</ele><time>2026-04-19T08:54:49.38Z</time></trkpt><trkpt lat="39.2591598" lon="-2.8805338"><ele>665.6666666666666</ele><time>2026-04-19T08:54:50.376Z</time></trkpt><trkpt lat="39.2590089" lon="-2.8803848"><ele>666.0</ele><time>2026-04-19T08:54:51.384Z</time></trkpt><trkpt lat="39.2588314" lon="-2.880251"><ele>665.3333333333334</ele><time>2026-04-19T08:54:52.373Z</time></trkpt><trkpt lat="39.2586369" lon="-2.8801304"><ele>664.6666666666667</ele><time>2026-04-19T08:54:53.383Z</time></trkpt><trkpt lat="39.2584249" lon="-2.8800184"><ele>664.0</ele><time>2026-04-19T08:54:54.379Z</time></trkpt><trkpt lat="39.2582018" lon="-2.879914"><ele>664.6666666666667</ele><time>2026-04-19T08:54:55.373Z</time></trkpt><trkpt lat="39.2579827" lon="-2.8798205"><ele>665.3333333333334</ele><time>2026-04-19T08:54:56.369Z</time></trkpt><trkpt lat="39.2577871" lon="-2.8797278"><ele>666.0</ele><time>2026-04-19T08:54:57.387Z</time></trkpt><trkpt lat="39.2576123" lon="-2.8796333"><ele>666.0</ele><time>2026-04-19T08:54:58.376Z</time></trkpt><trkpt lat="39.2574544" lon="-2.8795442"><ele>666.0</ele><time>2026-04-19T08:54:59.368Z</time></trkpt><trkpt lat="39.2573124" lon="-2.8794579"><ele>666.0</ele><time>2026-04-19T08:55:00.378Z</time></trkpt><trkpt lat="39.2571881" lon="-2.8793795"><ele>666.0</ele><time>2026-04-19T08:55:01.376Z</time></trkpt><trkpt lat="39.2570833" lon="-2.8793076"><ele>666.0</ele><time>2026-04-19T08:55:02.375Z</time></trkpt><trkpt lat="39.2569985" lon="-2.8792437"><ele>666.0</ele><time>2026-04-19T08:55:03.373Z</time></trkpt><trkpt lat="39.2569363" lon="-2.8791975"><ele>666.0</ele><time>2026-04-19T08:55:04.374Z</time></trkpt><trkpt lat="39.2568268" lon="-2.8791209"><ele>666.0</ele><time>2026-04-19T08:55:06.378Z</time></trkpt><trkpt lat="39.2567502" lon="-2.8790637"><ele>666.0</ele><time>2026-04-19T08:55:07.376Z</time></trkpt><trkpt lat="39.2566487" lon="-2.8790034"><ele>666.0</ele><time>2026-04-19T08:55:08.375Z</time></trkpt><trkpt lat="39.2565211" lon="-2.8789392"><ele>666.0</ele><time>2026-04-19T08:55:09.372Z</time></trkpt><trkpt lat="39.2563761" lon="-2.878873"><ele>666.0</ele><time>2026-04-19T08:55:10.373Z</time></trkpt><trkpt lat="39.2562043" lon="-2.8787894"><ele>666.0</ele><time>2026-04-19T08:55:11.371Z</time></trkpt><trkpt lat="39.2560055" lon="-2.8786979"><ele>666.0</ele><time>2026-04-19T08:55:12.371Z</time></trkpt><trkpt lat="39.2557884" lon="-2.8785901"><ele>666.0</ele><time>2026-04-19T08:55:13.378Z</time></trkpt><trkpt lat="39.2555546" lon="-2.8784791"><ele>667.0</ele><time>2026-04-19T08:55:14.376Z</time></trkpt><trkpt lat="39.2553064" lon="-2.8783634"><ele>668.0</ele><time>2026-04-19T08:55:15.377Z</time></trkpt><trkpt lat="39.2550457" lon="-2.8782402"><ele>668.0</ele><time>2026-04-19T08:55:16.377Z</time></trkpt><trkpt lat="39.2547782" lon="-2.8781079"><ele>668.0</ele><time>2026-04-19T08:55:17.374Z</time></trkpt><trkpt lat="39.254512" lon="-2.8779749"><ele>668.0</ele><time>2026-04-19T08:55:18.376Z</time></trkpt><trkpt lat="39.2542374" lon="-2.8778424"><ele>668.0</ele><time>2026-04-19T08:55:19.373Z</time></trkpt><trkpt lat="39.2539641" lon="-2.8777172"><ele>668.0</ele><time>2026-04-19T08:55:20.372Z</time></trkpt><trkpt lat="39.2536977" lon="-2.8776013"><ele>668.0</ele><time>2026-04-19T08:55:21.375Z</time></trkpt><trkpt lat="39.2534435" lon="-2.8774884"><ele>668.0</ele><time>2026-04-19T08:55:22.374Z</time></trkpt><trkpt lat="39.2532131" lon="-2.8773804"><ele>668.0</ele><time>2026-04-19T08:55:23.375Z</time></trkpt><trkpt lat="39.2530002" lon="-2.8772851"><ele>668.3333333333333</ele><time>2026-04-19T08:55:24.373Z</time></trkpt><trkpt lat="39.2528065" lon="-2.8772019"><ele>668.6666666666666</ele><time>2026-04-19T08:55:25.373Z</time></trkpt><trkpt lat="39.2526267" lon="-2.8771259"><ele>669.0</ele><time>2026-04-19T08:55:26.382Z</time></trkpt><trkpt lat="39.2524463" lon="-2.8770571"><ele>669.0</ele><time>2026-04-19T08:55:27.367Z</time></trkpt><trkpt lat="39.2522685" lon="-2.8770066"><ele>669.0</ele><time>2026-04-19T08:55:28.375Z</time></trkpt><trkpt lat="39.2520743" lon="-2.8769728"><ele>669.0</ele><time>2026-04-19T08:55:29.375Z</time></trkpt><trkpt lat="39.2518588" lon="-2.8769494"><ele>669.0</ele><time>2026-04-19T08:55:30.422Z</time></trkpt><trkpt lat="39.2516259" lon="-2.8769258"><ele>669.0</ele><time>2026-04-19T08:55:31.371Z</time></trkpt><trkpt lat="39.2514094" lon="-2.876896"><ele>669.0</ele><time>2026-04-19T08:55:32.37Z</time></trkpt><trkpt lat="39.2512238" lon="-2.8768642"><ele>669.0</ele><time>2026-04-19T08:55:33.373Z</time></trkpt><trkpt lat="39.251072" lon="-2.8768364"><ele>669.0</ele><time>2026-04-19T08:55:34.376Z</time></trkpt><trkpt lat="39.2509589" lon="-2.8768198"><ele>669.0</ele><time>2026-04-19T08:55:35.374Z</time></trkpt><trkpt lat="39.2508831" lon="-2.8768139"><ele>669.0</ele><time>2026-04-19T08:55:36.369Z</time></trkpt><trkpt lat="39.2507794" lon="-2.8768612"><ele>669.0</ele><time>2026-04-19T08:55:38.372Z</time></trkpt><trkpt lat="39.2507225" lon="-2.8770033"><ele>669.0</ele><time>2026-04-19T08:55:40.375Z</time></trkpt><trkpt lat="39.2506958" lon="-2.8771206"><ele>669.0</ele><time>2026-04-19T08:55:41.376Z</time></trkpt><trkpt lat="39.2506652" lon="-2.8772569"><ele>669.0</ele><time>2026-04-19T08:55:42.377Z</time></trkpt><trkpt lat="39.2506265" lon="-2.8774196"><ele>669.0</ele><time>2026-04-19T08:55:43.373Z</time></trkpt><trkpt lat="39.2505759" lon="-2.8776014"><ele>669.0</ele><time>2026-04-19T08:55:44.375Z</time></trkpt><trkpt lat="39.2505145" lon="-2.8778131"><ele>668.6666666666666</ele><time>2026-04-19T08:55:45.373Z</time></trkpt><trkpt lat="39.2504475" lon="-2.8780599"><ele>668.3333333333333</ele><time>2026-04-19T08:55:46.378Z</time></trkpt><trkpt lat="39.2503719" lon="-2.8783281"><ele>668.0</ele><time>2026-04-19T08:55:47.371Z</time></trkpt><trkpt lat="39.2503068" lon="-2.8785836"><ele>668.0</ele><time>2026-04-19T08:55:48.373Z</time></trkpt><trkpt lat="39.2502463" lon="-2.8788044"><ele>668.0</ele><time>2026-04-19T08:55:49.374Z</time></trkpt><trkpt lat="39.250197" lon="-2.8789862"><ele>668.0</ele><time>2026-04-19T08:55:50.375Z</time></trkpt><trkpt lat="39.250157" lon="-2.8791326"><ele>668.0</ele><time>2026-04-19T08:55:51.377Z</time></trkpt><trkpt lat="39.2501259" lon="-2.8792422"><ele>668.0</ele><time>2026-04-19T08:55:52.368Z</time></trkpt><trkpt lat="39.2500927" lon="-2.8793186"><ele>668.0</ele><time>2026-04-19T08:55:53.374Z</time></trkpt><trkpt lat="39.2500043" lon="-2.879403"><ele>668.0</ele><time>2026-04-19T08:55:55.376Z</time></trkpt><trkpt lat="39.2498721" lon="-2.8793933"><ele>668.0</ele><time>2026-04-19T08:55:57.37Z</time></trkpt><trkpt lat="39.249759" lon="-2.8793504"><ele>667.6666666666666</ele><time>2026-04-19T08:55:58.372Z</time></trkpt><trkpt lat="39.2496283" lon="-2.8792964"><ele>667.3333333333334</ele><time>2026-04-19T08:55:59.374Z</time></trkpt><trkpt lat="39.2494621" lon="-2.8792351"><ele>667.0</ele><time>2026-04-19T08:56:00.376Z</time></trkpt><trkpt lat="39.249263" lon="-2.8791552"><ele>667.0</ele><time>2026-04-19T08:56:01.386Z</time></trkpt><trkpt lat="39.2490698" lon="-2.8790847"><ele>667.0</ele><time>2026-04-19T08:56:02.379Z</time></trkpt><trkpt lat="39.2488886" lon="-2.8790237"><ele>667.0</ele><time>2026-04-19T08:56:03.373Z</time></trkpt><trkpt lat="39.2487321" lon="-2.8789855"><ele>667.25</ele><time>2026-04-19T08:56:04.379Z</time></trkpt><trkpt lat="39.2485806" lon="-2.8789316"><ele>667.5</ele><time>2026-04-19T08:56:05.375Z</time></trkpt><trkpt lat="39.2484433" lon="-2.8788799"><ele>667.75</ele><time>2026-04-19T08:56:06.376Z</time></trkpt><trkpt lat="39.248331" lon="-2.8788305"><ele>668.0</ele><time>2026-04-19T08:56:07.369Z</time></trkpt><trkpt lat="39.2482303" lon="-2.8787834"><ele>668.0</ele><time>2026-04-19T08:56:08.377Z</time></trkpt><trkpt lat="39.2481361" lon="-2.8787423"><ele>668.0</ele><time>2026-04-19T08:56:09.373Z</time></trkpt><trkpt lat="39.2480549" lon="-2.8787025"><ele>668.0</ele><time>2026-04-19T08:56:10.39Z</time></trkpt><trkpt lat="39.2479856" lon="-2.8786686"><ele>668.0</ele><time>2026-04-19T08:56:11.371Z</time></trkpt><trkpt lat="39.2478854" lon="-2.8786252"><ele>668.0</ele><time>2026-04-19T08:56:13.372Z</time></trkpt><trkpt lat="39.2477998" lon="-2.8785887"><ele>668.1428571428571</ele><time>2026-04-19T08:56:16.371Z</time></trkpt><trkpt lat="39.2477472" lon="-2.8785217"><ele>668.2857142857143</ele><time>2026-04-19T08:56:18.376Z</time></trkpt><trkpt lat="39.2477111" lon="-2.8784394"><ele>668.4285714285714</ele><time>2026-04-19T08:56:20.373Z</time></trkpt><trkpt lat="39.2476751" lon="-2.8783636"><ele>668.5714285714286</ele><time>2026-04-19T08:56:22.377Z</time></trkpt><trkpt lat="39.2476253" lon="-2.8782906"><ele>668.7142857142857</ele><time>2026-04-19T08:56:24.383Z</time></trkpt><trkpt lat="39.2475822" lon="-2.8782238"><ele>668.8571428571429</ele><time>2026-04-19T08:56:26.378Z</time></trkpt><trkpt lat="39.2475463" lon="-2.8781553"><ele>669.0</ele><time>2026-04-19T08:56:28.371Z</time></trkpt><trkpt lat="39.2475004" lon="-2.8780698"><ele>669.0</ele><time>2026-04-19T08:56:31.393Z</time></trkpt><trkpt lat="39.2474397" lon="-2.8779782"><ele>669.0</ele><time>2026-04-19T08:56:35.371Z</time></trkpt><trkpt lat="39.2473654" lon="-2.8778617"><ele>669.0</ele><time>2026-04-19T08:56:37.38Z</time></trkpt><trkpt lat="39.2473037" lon="-2.8777708"><ele>669.0</ele><time>2026-04-19T08:56:38.378Z</time></trkpt><trkpt lat="39.2472256" lon="-2.8776658"><ele>669.0</ele><time>2026-04-19T08:56:39.369Z</time></trkpt><trkpt lat="39.2471438" lon="-2.8775529"><ele>668.75</ele><time>2026-04-19T08:56:40.375Z</time></trkpt><trkpt lat="39.2470591" lon="-2.877424"><ele>668.5</ele><time>2026-04-19T08:56:41.372Z</time></trkpt><trkpt lat="39.2469647" lon="-2.8772662"><ele>668.25</ele><time>2026-04-19T08:56:42.374Z</time></trkpt><trkpt lat="39.246869" lon="-2.8771066"><ele>668.0</ele><time>2026-04-19T08:56:43.38Z</time></trkpt><trkpt lat="39.2467741" lon="-2.8769648"><ele>668.0</ele><time>2026-04-19T08:56:44.371Z</time></trkpt><trkpt lat="39.2466815" lon="-2.8768536"><ele>668.0</ele><time>2026-04-19T08:56:45.378Z</time></trkpt><trkpt lat="39.2465785" lon="-2.8767659"><ele>668.0</ele><time>2026-04-19T08:56:46.377Z</time></trkpt><trkpt lat="39.2464463" lon="-2.8766881"><ele>668.0</ele><time>2026-04-19T08:56:47.366Z</time></trkpt><trkpt lat="39.2462884" lon="-2.8766193"><ele>668.0</ele><time>2026-04-19T08:56:48.375Z</time></trkpt><trkpt lat="39.2461054" lon="-2.8765506"><ele>668.0</ele><time>2026-04-19T08:56:49.376Z</time></trkpt><trkpt lat="39.2459083" lon="-2.8764779"><ele>668.0</ele><time>2026-04-19T08:56:50.37Z</time></trkpt><trkpt lat="39.2456903" lon="-2.8763968"><ele>668.5</ele><time>2026-04-19T08:56:51.372Z</time></trkpt><trkpt lat="39.2454609" lon="-2.8763143"><ele>669.0</ele><time>2026-04-19T08:56:52.38Z</time></trkpt><trkpt lat="39.2452487" lon="-2.8762455"><ele>669.0</ele><time>2026-04-19T08:56:53.366Z</time></trkpt><trkpt lat="39.2450614" lon="-2.8761908"><ele>669.0</ele><time>2026-04-19T08:56:54.373Z</time></trkpt><trkpt lat="39.2449012" lon="-2.8761457"><ele>669.0</ele><time>2026-04-19T08:56:55.377Z</time></trkpt><trkpt lat="39.2447664" lon="-2.8761155"><ele>669.0</ele><time>2026-04-19T08:56:56.376Z</time></trkpt><trkpt lat="39.2446566" lon="-2.8761058"><ele>669.0</ele><time>2026-04-19T08:56:57.374Z</time></trkpt><trkpt lat="39.2445659" lon="-2.8761066"><ele>669.0</ele><time>2026-04-19T08:56:58.368Z</time></trkpt><trkpt lat="39.24448" lon="-2.8760966"><ele>669.0</ele><time>2026-04-19T08:56:59.37Z</time></trkpt><trkpt lat="39.2443862" lon="-2.8760629"><ele>669.0</ele><time>2026-04-19T08:57:00.376Z</time></trkpt><trkpt lat="39.2442939" lon="-2.8759992"><ele>668.75</ele><time>2026-04-19T08:57:01.376Z</time></trkpt><trkpt lat="39.2442017" lon="-2.8759066"><ele>668.5</ele><time>2026-04-19T08:57:02.377Z</time></trkpt><trkpt lat="39.2441123" lon="-2.8757933"><ele>668.25</ele><time>2026-04-19T08:57:03.372Z</time></trkpt><trkpt lat="39.244021" lon="-2.8756688"><ele>668.0</ele><time>2026-04-19T08:57:04.376Z</time></trkpt><trkpt lat="39.2439265" lon="-2.875535"><ele>668.0</ele><time>2026-04-19T08:57:05.369Z</time></trkpt><trkpt lat="39.2438194" lon="-2.8753942"><ele>668.0</ele><time>2026-04-19T08:57:06.381Z</time></trkpt><trkpt lat="39.2436925" lon="-2.8752445"><ele>668.0</ele><time>2026-04-19T08:57:07.373Z</time></trkpt><trkpt lat="39.2435495" lon="-2.8750728"><ele>667.5</ele><time>2026-04-19T08:57:08.373Z</time></trkpt><trkpt lat="39.2433824" lon="-2.8748812"><ele>667.0</ele><time>2026-04-19T08:57:09.375Z</time></trkpt><trkpt lat="39.2431975" lon="-2.8746875"><ele>667.0</ele><time>2026-04-19T08:57:10.371Z</time></trkpt><trkpt lat="39.2429896" lon="-2.8744962"><ele>667.0</ele><time>2026-04-19T08:57:11.375Z</time></trkpt><trkpt lat="39.2427562" lon="-2.8742855"><ele>668.0</ele><time>2026-04-19T08:57:12.376Z</time></trkpt><trkpt lat="39.2425144" lon="-2.8740775"><ele>669.0</ele><time>2026-04-19T08:57:13.38Z</time></trkpt><trkpt lat="39.2422808" lon="-2.8738568"><ele>669.0</ele><time>2026-04-19T08:57:14.376Z</time></trkpt><trkpt lat="39.2420573" lon="-2.8736421"><ele>669.0</ele><time>2026-04-19T08:57:15.376Z</time></trkpt><trkpt lat="39.2418574" lon="-2.8734478"><ele>669.5</ele><time>2026-04-19T08:57:16.383Z</time></trkpt><trkpt lat="39.2416556" lon="-2.8732324"><ele>670.0</ele><time>2026-04-19T08:57:17.383Z</time></trkpt><trkpt lat="39.2414449" lon="-2.8729856"><ele>670.0</ele><time>2026-04-19T08:57:18.367Z</time></trkpt><trkpt lat="39.2412365" lon="-2.8727177"><ele>670.0</ele><time>2026-04-19T08:57:19.377Z</time></trkpt><trkpt lat="39.2410456" lon="-2.8724654"><ele>670.0</ele><time>2026-04-19T08:57:20.377Z</time></trkpt><trkpt lat="39.2408682" lon="-2.8722313"><ele>670.0</ele><time>2026-04-19T08:57:21.371Z</time></trkpt><trkpt lat="39.2406805" lon="-2.8719898"><ele>670.0</ele><time>2026-04-19T08:57:22.374Z</time></trkpt><trkpt lat="39.2404952" lon="-2.8717627"><ele>670.0</ele><time>2026-04-19T08:57:23.378Z</time></trkpt><trkpt lat="39.240333" lon="-2.8715671"><ele>670.0</ele><time>2026-04-19T08:57:24.373Z</time></trkpt><trkpt lat="39.2401931" lon="-2.8713994"><ele>670.0</ele><time>2026-04-19T08:57:25.38Z</time></trkpt><trkpt lat="39.2400613" lon="-2.8712519"><ele>670.0</ele><time>2026-04-19T08:57:26.374Z</time></trkpt><trkpt lat="39.2399188" lon="-2.8711282"><ele>669.6666666666667</ele><time>2026-04-19T08:57:27.378Z</time></trkpt><trkpt lat="39.2397661" lon="-2.8710138"><ele>669.3333333333334</ele><time>2026-04-19T08:57:28.381Z</time></trkpt><trkpt lat="39.2395699" lon="-2.8709171"><ele>669.0</ele><time>2026-04-19T08:57:29.372Z</time></trkpt><trkpt lat="39.239373" lon="-2.870824"><ele>669.0</ele><time>2026-04-19T08:57:30.375Z</time></trkpt><trkpt lat="39.2391533" lon="-2.870729"><ele>669.0</ele><time>2026-04-19T08:57:31.379Z</time></trkpt><trkpt lat="39.2389132" lon="-2.8706305"><ele>669.0</ele><time>2026-04-19T08:57:32.374Z</time></trkpt><trkpt lat="39.2386538" lon="-2.8705251"><ele>669.0</ele><time>2026-04-19T08:57:33.37Z</time></trkpt><trkpt lat="39.2383832" lon="-2.8704111"><ele>668.5</ele><time>2026-04-19T08:57:34.367Z</time></trkpt><trkpt lat="39.2380985" lon="-2.8702907"><ele>668.0</ele><time>2026-04-19T08:57:35.374Z</time></trkpt><trkpt lat="39.2378071" lon="-2.8701709"><ele>667.5</ele><time>2026-04-19T08:57:36.374Z</time></trkpt><trkpt lat="39.2375093" lon="-2.8700471"><ele>667.0</ele><time>2026-04-19T08:57:37.37Z</time></trkpt><trkpt lat="39.2372043" lon="-2.8699158"><ele>668.0</ele><time>2026-04-19T08:57:38.375Z</time></trkpt><trkpt lat="39.236907" lon="-2.8697881"><ele>669.0</ele><time>2026-04-19T08:57:39.375Z</time></trkpt><trkpt lat="39.2366073" lon="-2.8696594"><ele>670.0</ele><time>2026-04-19T08:57:40.37Z</time></trkpt><trkpt lat="39.2363064" lon="-2.8695318"><ele>671.0</ele><time>2026-04-19T08:57:41.378Z</time></trkpt><trkpt lat="39.2359985" lon="-2.8694047"><ele>671.0</ele><time>2026-04-19T08:57:42.38Z</time></trkpt><trkpt lat="39.2356941" lon="-2.8692801"><ele>671.0</ele><time>2026-04-19T08:57:43.377Z</time></trkpt><trkpt lat="39.2353883" lon="-2.869155"><ele>670.5</ele><time>2026-04-19T08:57:44.377Z</time></trkpt><trkpt lat="39.2350714" lon="-2.8690199"><ele>670.0</ele><time>2026-04-19T08:57:45.376Z</time></trkpt><trkpt lat="39.2347461" lon="-2.868875"><ele>670.0</ele><time>2026-04-19T08:57:46.373Z</time></trkpt><trkpt lat="39.2344428" lon="-2.8687347"><ele>670.0</ele><time>2026-04-19T08:57:47.374Z</time></trkpt><trkpt lat="39.2341614" lon="-2.8686064"><ele>670.0</ele><time>2026-04-19T08:57:48.369Z</time></trkpt><trkpt lat="39.2339001" lon="-2.8684946"><ele>670.0</ele><time>2026-04-19T08:57:49.383Z</time></trkpt><trkpt lat="39.2336543" lon="-2.868398"><ele>669.5</ele><time>2026-04-19T08:57:50.374Z</time></trkpt><trkpt lat="39.2334198" lon="-2.8683139"><ele>669.0</ele><time>2026-04-19T08:57:51.372Z</time></trkpt><trkpt lat="39.2331747" lon="-2.8682224"><ele>669.0</ele><time>2026-04-19T08:57:52.377Z</time></trkpt><trkpt lat="39.2329169" lon="-2.8681183"><ele>669.0</ele><time>2026-04-19T08:57:53.38Z</time></trkpt><trkpt lat="39.2326668" lon="-2.8680111"><ele>669.0</ele><time>2026-04-19T08:57:54.373Z</time></trkpt><trkpt lat="39.2324098" lon="-2.8679014"><ele>669.0</ele><time>2026-04-19T08:57:55.376Z</time></trkpt><trkpt lat="39.2321665" lon="-2.8677823"><ele>669.3333333333334</ele><time>2026-04-19T08:57:56.37Z</time></trkpt><trkpt lat="39.2319481" lon="-2.8676801"><ele>669.6666666666667</ele><time>2026-04-19T08:57:57.374Z</time></trkpt><trkpt lat="39.2317564" lon="-2.8675874"><ele>670.0</ele><time>2026-04-19T08:57:58.373Z</time></trkpt><trkpt lat="39.2315898" lon="-2.8675036"><ele>670.6666666666667</ele><time>2026-04-19T08:57:59.375Z</time></trkpt><trkpt lat="39.2314441" lon="-2.867416"><ele>671.3333333333334</ele><time>2026-04-19T08:58:00.377Z</time></trkpt><trkpt lat="39.2313121" lon="-2.8673172"><ele>672.0</ele><time>2026-04-19T08:58:01.376Z</time></trkpt><trkpt lat="39.2312007" lon="-2.8672076"><ele>672.0</ele><time>2026-04-19T08:58:02.381Z</time></trkpt><trkpt lat="39.2311062" lon="-2.8670879"><ele>672.0</ele><time>2026-04-19T08:58:03.366Z</time></trkpt><trkpt lat="39.2310207" lon="-2.866948"><ele>672.0</ele><time>2026-04-19T08:58:04.373Z</time></trkpt><trkpt lat="39.2309231" lon="-2.8667828"><ele>672.0</ele><time>2026-04-19T08:58:05.372Z</time></trkpt><trkpt lat="39.2308137" lon="-2.8665909"><ele>672.0</ele><time>2026-04-19T08:58:06.374Z</time></trkpt><trkpt lat="39.2306867" lon="-2.866373"><ele>672.0</ele><time>2026-04-19T08:58:07.377Z</time></trkpt><trkpt lat="39.2305495" lon="-2.8661467"><ele>672.0</ele><time>2026-04-19T08:58:08.371Z</time></trkpt><trkpt lat="39.230417" lon="-2.8659397"><ele>672.0</ele><time>2026-04-19T08:58:09.383Z</time></trkpt><trkpt lat="39.2302862" lon="-2.8657427"><ele>672.0</ele><time>2026-04-19T08:58:10.381Z</time></trkpt><trkpt lat="39.2301601" lon="-2.8655486"><ele>672.0</ele><time>2026-04-19T08:58:11.374Z</time></trkpt><trkpt lat="39.2300417" lon="-2.8653635"><ele>672.0</ele><time>2026-04-19T08:58:12.373Z</time></trkpt><trkpt lat="39.2299302" lon="-2.8651904"><ele>672.0</ele><time>2026-04-19T08:58:13.379Z</time></trkpt><trkpt lat="39.2298255" lon="-2.8650346"><ele>672.0</ele><time>2026-04-19T08:58:14.374Z</time></trkpt><trkpt lat="39.2297257" lon="-2.8648999"><ele>671.6666666666666</ele><time>2026-04-19T08:58:15.376Z</time></trkpt><trkpt lat="39.2296153" lon="-2.8647818"><ele>671.3333333333333</ele><time>2026-04-19T08:58:16.378Z</time></trkpt><trkpt lat="39.229477" lon="-2.8646677"><ele>671.0</ele><time>2026-04-19T08:58:17.373Z</time></trkpt><trkpt lat="39.2293244" lon="-2.864571"><ele>671.0</ele><time>2026-04-19T08:58:18.372Z</time></trkpt><trkpt lat="39.229144" lon="-2.8644855"><ele>671.0</ele><time>2026-04-19T08:58:19.371Z</time></trkpt><trkpt lat="39.2289423" lon="-2.8644058"><ele>671.0</ele><time>2026-04-19T08:58:20.371Z</time></trkpt><trkpt lat="39.2287027" lon="-2.8643288"><ele>671.5</ele><time>2026-04-19T08:58:21.374Z</time></trkpt><trkpt lat="39.22845" lon="-2.8642494"><ele>672.0</ele><time>2026-04-19T08:58:22.37Z</time></trkpt><trkpt lat="39.2281831" lon="-2.8641602"><ele>672.0</ele><time>2026-04-19T08:58:23.371Z</time></trkpt><trkpt lat="39.2279034" lon="-2.864054"><ele>672.0</ele><time>2026-04-19T08:58:24.372Z</time></trkpt><trkpt lat="39.2276127" lon="-2.8639402"><ele>671.5</ele><time>2026-04-19T08:58:25.381Z</time></trkpt><trkpt lat="39.2273092" lon="-2.8638126"><ele>671.0</ele><time>2026-04-19T08:58:26.372Z</time></trkpt><trkpt lat="39.2270121" lon="-2.863681"><ele>671.0</ele><time>2026-04-19T08:58:27.375Z</time></trkpt><trkpt lat="39.2267363" lon="-2.8635648"><ele>671.0</ele><time>2026-04-19T08:58:28.372Z</time></trkpt><trkpt lat="39.2264776" lon="-2.863459"><ele>670.0</ele><time>2026-04-19T08:58:29.377Z</time></trkpt><trkpt lat="39.2262333" lon="-2.8633609"><ele>669.0</ele><time>2026-04-19T08:58:30.368Z</time></trkpt><trkpt lat="39.2259973" lon="-2.8632662"><ele>669.0</ele><time>2026-04-19T08:58:31.37Z</time></trkpt><trkpt lat="39.2257492" lon="-2.8631553"><ele>669.0</ele><time>2026-04-19T08:58:32.372Z</time></trkpt><trkpt lat="39.2254877" lon="-2.8630302"><ele>670.0</ele><time>2026-04-19T08:58:33.375Z</time></trkpt><trkpt lat="39.225235" lon="-2.8629107"><ele>671.0</ele><time>2026-04-19T08:58:34.373Z</time></trkpt><trkpt lat="39.2249889" lon="-2.8627939"><ele>671.5</ele><time>2026-04-19T08:58:35.373Z</time></trkpt><trkpt lat="39.2247425" lon="-2.862682"><ele>672.0</ele><time>2026-04-19T08:58:36.367Z</time></trkpt><trkpt lat="39.2244803" lon="-2.8625742"><ele>672.0</ele><time>2026-04-19T08:58:37.374Z</time></trkpt><trkpt lat="39.2242155" lon="-2.8624739"><ele>672.0</ele><time>2026-04-19T08:58:38.377Z</time></trkpt><trkpt lat="39.2239782" lon="-2.8623842"><ele>672.0</ele><time>2026-04-19T08:58:39.376Z</time></trkpt><trkpt lat="39.2237701" lon="-2.8623027"><ele>672.0</ele><time>2026-04-19T08:58:40.375Z</time></trkpt><trkpt lat="39.2235799" lon="-2.8622268"><ele>672.0</ele><time>2026-04-19T08:58:41.371Z</time></trkpt><trkpt lat="39.2233828" lon="-2.8621405"><ele>672.0</ele><time>2026-04-19T08:58:42.369Z</time></trkpt><trkpt lat="39.2231644" lon="-2.8620404"><ele>672.0</ele><time>2026-04-19T08:58:43.374Z</time></trkpt><trkpt lat="39.2229274" lon="-2.861929"><ele>671.0</ele><time>2026-04-19T08:58:44.372Z</time></trkpt><trkpt lat="39.2226968" lon="-2.8618215"><ele>670.0</ele><time>2026-04-19T08:58:45.375Z</time></trkpt><trkpt lat="39.2224807" lon="-2.8617233"><ele>670.3333333333334</ele><time>2026-04-19T08:58:46.381Z</time></trkpt><trkpt lat="39.2222788" lon="-2.861633"><ele>670.6666666666666</ele><time>2026-04-19T08:58:47.371Z</time></trkpt><trkpt lat="39.2220914" lon="-2.8615523"><ele>671.0</ele><time>2026-04-19T08:58:48.373Z</time></trkpt><trkpt lat="39.2219172" lon="-2.8614881"><ele>671.0</ele><time>2026-04-19T08:58:49.37Z</time></trkpt><trkpt lat="39.2217527" lon="-2.861442"><ele>671.0</ele><time>2026-04-19T08:58:50.379Z</time></trkpt><trkpt lat="39.2215967" lon="-2.8614105"><ele>671.0</ele><time>2026-04-19T08:58:51.371Z</time></trkpt><trkpt lat="39.2214477" lon="-2.8613898"><ele>671.25</ele><time>2026-04-19T08:58:52.38Z</time></trkpt><trkpt lat="39.2213072" lon="-2.8613753"><ele>671.5</ele><time>2026-04-19T08:58:53.373Z</time></trkpt><trkpt lat="39.2211764" lon="-2.861361"><ele>671.75</ele><time>2026-04-19T08:58:54.375Z</time></trkpt><trkpt lat="39.2210609" lon="-2.861348"><ele>672.0</ele><time>2026-04-19T08:58:55.37Z</time></trkpt><trkpt lat="39.2209599" lon="-2.8613335"><ele>672.0</ele><time>2026-04-19T08:58:56.379Z</time></trkpt><trkpt lat="39.2208715" lon="-2.8613162"><ele>672.0</ele><time>2026-04-19T08:58:57.368Z</time></trkpt><trkpt lat="39.2207946" lon="-2.8612973"><ele>672.0</ele><time>2026-04-19T08:58:58.379Z</time></trkpt><trkpt lat="39.2207326" lon="-2.8612753"><ele>672.0</ele><time>2026-04-19T08:58:59.369Z</time></trkpt><trkpt lat="39.2206483" lon="-2.8612458"><ele>672.0</ele><time>2026-04-19T08:59:01.37Z</time></trkpt><trkpt lat="39.2205385" lon="-2.8612011"><ele>672.0</ele><time>2026-04-19T08:59:26.369Z</time></trkpt><trkpt lat="39.2204221" lon="-2.8611501"><ele>672.25</ele><time>2026-04-19T08:59:28.371Z</time></trkpt><trkpt lat="39.2203329" lon="-2.8611317"><ele>672.5</ele><time>2026-04-19T08:59:29.365Z</time></trkpt><trkpt lat="39.2202242" lon="-2.8611169"><ele>672.75</ele><time>2026-04-19T08:59:30.372Z</time></trkpt><trkpt lat="39.2201034" lon="-2.861098"><ele>673.0</ele><time>2026-04-19T08:59:31.375Z</time></trkpt><trkpt lat="39.2199677" lon="-2.8610708"><ele>673.0</ele><time>2026-04-19T08:59:32.376Z</time></trkpt><trkpt lat="39.2198169" lon="-2.8610349"><ele>673.0</ele><time>2026-04-19T08:59:33.371Z</time></trkpt><trkpt lat="39.2196507" lon="-2.8609927"><ele>673.0</ele><time>2026-04-19T08:59:34.374Z</time></trkpt><trkpt lat="39.2194636" lon="-2.8609508"><ele>673.0</ele><time>2026-04-19T08:59:35.372Z</time></trkpt><trkpt lat="39.2192646" lon="-2.8609233"><ele>673.0</ele><time>2026-04-19T08:59:36.379Z</time></trkpt><trkpt lat="39.2190485" lon="-2.8609112"><ele>673.0</ele><time>2026-04-19T08:59:37.372Z</time></trkpt><trkpt lat="39.2188196" lon="-2.8609044"><ele>672.5</ele><time>2026-04-19T08:59:38.378Z</time></trkpt><trkpt lat="39.2185763" lon="-2.8608982"><ele>672.0</ele><time>2026-04-19T08:59:39.381Z</time></trkpt><trkpt lat="39.2183238" lon="-2.8609015"><ele>672.5</ele><time>2026-04-19T08:59:40.37Z</time></trkpt><trkpt lat="39.2180749" lon="-2.8609067"><ele>673.0</ele><time>2026-04-19T08:59:41.371Z</time></trkpt><trkpt lat="39.2178282" lon="-2.8609"><ele>673.0</ele><time>2026-04-19T08:59:42.37Z</time></trkpt><trkpt lat="39.2175777" lon="-2.8608768"><ele>673.0</ele><time>2026-04-19T08:59:43.367Z</time></trkpt><trkpt lat="39.2173307" lon="-2.8608311"><ele>673.3333333333334</ele><time>2026-04-19T08:59:44.369Z</time></trkpt><trkpt lat="39.2171083" lon="-2.8607726"><ele>673.6666666666666</ele><time>2026-04-19T08:59:45.375Z</time></trkpt><trkpt lat="39.2169127" lon="-2.8607093"><ele>674.0</ele><time>2026-04-19T08:59:46.375Z</time></trkpt><trkpt lat="39.2167203" lon="-2.8606408"><ele>674.0</ele><time>2026-04-19T08:59:47.379Z</time></trkpt><trkpt lat="39.2165101" lon="-2.8605759"><ele>674.0</ele><time>2026-04-19T08:59:48.378Z</time></trkpt><trkpt lat="39.2162813" lon="-2.8605222"><ele>674.0</ele><time>2026-04-19T08:59:49.38Z</time></trkpt><trkpt lat="39.2160429" lon="-2.8604728"><ele>674.0</ele><time>2026-04-19T08:59:50.372Z</time></trkpt><trkpt lat="39.2157881" lon="-2.8604171"><ele>674.0</ele><time>2026-04-19T08:59:51.379Z</time></trkpt><trkpt lat="39.2155302" lon="-2.8603513"><ele>674.0</ele><time>2026-04-19T08:59:52.377Z</time></trkpt><trkpt lat="39.2152717" lon="-2.8602925"><ele>674.0</ele><time>2026-04-19T08:59:53.373Z</time></trkpt><trkpt lat="39.2150075" lon="-2.8602468"><ele>674.5</ele><time>2026-04-19T08:59:54.381Z</time></trkpt><trkpt lat="39.2147418" lon="-2.8602179"><ele>675.0</ele><time>2026-04-19T08:59:55.377Z</time></trkpt><trkpt lat="39.214473" lon="-2.8601822"><ele>675.0</ele><time>2026-04-19T08:59:56.375Z</time></trkpt><trkpt lat="39.2141901" lon="-2.8601441"><ele>675.0</ele><time>2026-04-19T08:59:57.38Z</time></trkpt><trkpt lat="39.213887" lon="-2.8601009"><ele>674.5</ele><time>2026-04-19T08:59:58.377Z</time></trkpt><trkpt lat="39.2135809" lon="-2.8600609"><ele>674.0</ele><time>2026-04-19T08:59:59.375Z</time></trkpt><trkpt lat="39.2132926" lon="-2.8600255"><ele>674.0</ele><time>2026-04-19T09:00:00.377Z</time></trkpt><trkpt lat="39.213014" lon="-2.8599737"><ele>674.0</ele><time>2026-04-19T09:00:01.375Z</time></trkpt><trkpt lat="39.2127377" lon="-2.8599303"><ele>674.0</ele><time>2026-04-19T09:00:02.376Z</time></trkpt><trkpt lat="39.2124767" lon="-2.8598901"><ele>674.0</ele><time>2026-04-19T09:00:03.382Z</time></trkpt><trkpt lat="39.2122425" lon="-2.8598561"><ele>674.3333333333333</ele><time>2026-04-19T09:00:04.378Z</time></trkpt><trkpt lat="39.2120228" lon="-2.8598303"><ele>674.6666666666666</ele><time>2026-04-19T09:00:05.375Z</time></trkpt><trkpt lat="39.211816" lon="-2.8598136"><ele>675.0</ele><time>2026-04-19T09:00:06.375Z</time></trkpt><trkpt lat="39.2116223" lon="-2.8598137"><ele>675.0</ele><time>2026-04-19T09:00:07.37Z</time></trkpt><trkpt lat="39.2114411" lon="-2.8598181"><ele>675.0</ele><time>2026-04-19T09:00:08.375Z</time></trkpt><trkpt lat="39.2112782" lon="-2.8598145"><ele>675.0</ele><time>2026-04-19T09:00:09.375Z</time></trkpt><trkpt lat="39.2111324" lon="-2.8598051"><ele>675.0</ele><time>2026-04-19T09:00:10.375Z</time></trkpt><trkpt lat="39.2110048" lon="-2.8597912"><ele>675.0</ele><time>2026-04-19T09:00:11.378Z</time></trkpt><trkpt lat="39.2108942" lon="-2.8597753"><ele>675.0</ele><time>2026-04-19T09:00:12.372Z</time></trkpt><trkpt lat="39.2107975" lon="-2.8597665"><ele>675.0</ele><time>2026-04-19T09:00:13.375Z</time></trkpt><trkpt lat="39.2107119" lon="-2.8597632"><ele>675.0</ele><time>2026-04-19T09:00:14.371Z</time></trkpt><trkpt lat="39.2106394" lon="-2.8597611"><ele>675.3333333333334</ele><time>2026-04-19T09:00:15.369Z</time></trkpt><trkpt lat="39.2105745" lon="-2.8597611"><ele>675.6666666666666</ele><time>2026-04-19T09:00:16.372Z</time></trkpt><trkpt lat="39.2104527" lon="-2.8597485"><ele>676.0</ele><time>2026-04-19T09:00:18.369Z</time></trkpt><trkpt lat="39.2103892" lon="-2.8597441"><ele>676.3333333333333</ele><time>2026-04-19T09:00:19.365Z</time></trkpt><trkpt lat="39.2103242" lon="-2.8597456"><ele>676.6666666666666</ele><time>2026-04-19T09:00:20.374Z</time></trkpt><trkpt lat="39.2102573" lon="-2.8597484"><ele>677.0</ele><time>2026-04-19T09:00:21.364Z</time></trkpt><trkpt lat="39.2101877" lon="-2.8597509"><ele>677.0</ele><time>2026-04-19T09:00:22.37Z</time></trkpt><trkpt lat="39.2101161" lon="-2.8597537"><ele>677.0</ele><time>2026-04-19T09:00:23.371Z</time></trkpt><trkpt lat="39.2100436" lon="-2.8597609"><ele>677.0</ele><time>2026-04-19T09:00:24.378Z</time></trkpt><trkpt lat="39.2099609" lon="-2.8597713"><ele>677.0</ele><time>2026-04-19T09:00:25.369Z</time></trkpt><trkpt lat="39.2098826" lon="-2.8597785"><ele>677.0</ele><time>2026-04-19T09:00:26.371Z</time></trkpt><trkpt lat="39.2097981" lon="-2.8597919"><ele>677.0</ele><time>2026-04-19T09:00:27.378Z</time></trkpt><trkpt lat="39.209704" lon="-2.8597996"><ele>677.0</ele><time>2026-04-19T09:00:28.369Z</time></trkpt><trkpt lat="39.2096015" lon="-2.8598046"><ele>677.0</ele><time>2026-04-19T09:00:29.37Z</time></trkpt><trkpt lat="39.2094862" lon="-2.8598172"><ele>677.0</ele><time>2026-04-19T09:00:30.37Z</time></trkpt><trkpt lat="39.2093672" lon="-2.8598319"><ele>677.0</ele><time>2026-04-19T09:00:31.369Z</time></trkpt><trkpt lat="39.2092403" lon="-2.8598532"><ele>677.0</ele><time>2026-04-19T09:00:32.377Z</time></trkpt><trkpt lat="39.2091122" lon="-2.8598754"><ele>677.0</ele><time>2026-04-19T09:00:33.372Z</time></trkpt><trkpt lat="39.2089871" lon="-2.8598927"><ele>677.0</ele><time>2026-04-19T09:00:34.379Z</time></trkpt><trkpt lat="39.2088583" lon="-2.859909"><ele>677.0</ele><time>2026-04-19T09:00:35.377Z</time></trkpt><trkpt lat="39.2087259" lon="-2.8599244"><ele>677.0</ele><time>2026-04-19T09:00:36.374Z</time></trkpt><trkpt lat="39.2085869" lon="-2.8599372"><ele>677.0</ele><time>2026-04-19T09:00:37.372Z</time></trkpt><trkpt lat="39.2084359" lon="-2.8599455"><ele>677.0</ele><time>2026-04-19T09:00:38.379Z</time></trkpt><trkpt lat="39.2082706" lon="-2.8599497"><ele>677.0</ele><time>2026-04-19T09:00:39.375Z</time></trkpt><trkpt lat="39.2080966" lon="-2.8599636"><ele>677.0</ele><time>2026-04-19T09:00:40.37Z</time></trkpt><trkpt lat="39.20791" lon="-2.8599752"><ele>677.0</ele><time>2026-04-19T09:00:41.371Z</time></trkpt><trkpt lat="39.2077059" lon="-2.8599756"><ele>677.0</ele><time>2026-04-19T09:00:42.374Z</time></trkpt><trkpt lat="39.2074801" lon="-2.8599608"><ele>677.0</ele><time>2026-04-19T09:00:43.378Z</time></trkpt><trkpt lat="39.2072361" lon="-2.8599342"><ele>677.0</ele><time>2026-04-19T09:00:44.385Z</time></trkpt><trkpt lat="39.2069753" lon="-2.8599076"><ele>677.0</ele><time>2026-04-19T09:00:45.376Z</time></trkpt><trkpt lat="39.2066975" lon="-2.859883"><ele>677.0</ele><time>2026-04-19T09:00:46.369Z</time></trkpt><trkpt lat="39.2064062" lon="-2.8598584"><ele>677.0</ele><time>2026-04-19T09:00:47.386Z</time></trkpt><trkpt lat="39.206099" lon="-2.8598268"><ele>677.0</ele><time>2026-04-19T09:00:48.373Z</time></trkpt><trkpt lat="39.2057952" lon="-2.8597963"><ele>677.0</ele><time>2026-04-19T09:00:49.375Z</time></trkpt><trkpt lat="39.2055131" lon="-2.859773"><ele>677.5</ele><time>2026-04-19T09:00:50.376Z</time></trkpt><trkpt lat="39.2052505" lon="-2.8597502"><ele>678.0</ele><time>2026-04-19T09:00:51.373Z</time></trkpt><trkpt lat="39.2050108" lon="-2.8597235"><ele>678.5</ele><time>2026-04-19T09:00:52.378Z</time></trkpt><trkpt lat="39.2047853" lon="-2.8596987"><ele>679.0</ele><time>2026-04-19T09:00:53.378Z</time></trkpt><trkpt lat="39.2045574" lon="-2.8596686"><ele>679.0</ele><time>2026-04-19T09:00:54.373Z</time></trkpt><trkpt lat="39.2043268" lon="-2.8596217"><ele>679.0</ele><time>2026-04-19T09:00:55.375Z</time></trkpt><trkpt lat="39.2040813" lon="-2.8595515"><ele>679.5</ele><time>2026-04-19T09:00:56.375Z</time></trkpt><trkpt lat="39.2038205" lon="-2.8594605"><ele>680.0</ele><time>2026-04-19T09:00:57.381Z</time></trkpt><trkpt lat="39.2035431" lon="-2.8593611"><ele>680.0</ele><time>2026-04-19T09:00:58.372Z</time></trkpt><trkpt lat="39.2032511" lon="-2.8592551"><ele>680.0</ele><time>2026-04-19T09:00:59.377Z</time></trkpt><trkpt lat="39.2029498" lon="-2.8591409"><ele>680.0</ele><time>2026-04-19T09:01:00.371Z</time></trkpt><trkpt lat="39.2026441" lon="-2.8590292"><ele>680.0</ele><time>2026-04-19T09:01:01.372Z</time></trkpt><trkpt lat="39.2023379" lon="-2.8589202"><ele>680.5</ele><time>2026-04-19T09:01:02.371Z</time></trkpt><trkpt lat="39.2020236" lon="-2.8588032"><ele>681.0</ele><time>2026-04-19T09:01:03.371Z</time></trkpt><trkpt lat="39.2016991" lon="-2.8586739"><ele>681.0</ele><time>2026-04-19T09:01:04.38Z</time></trkpt><trkpt lat="39.2013651" lon="-2.8585502"><ele>681.0</ele><time>2026-04-19T09:01:05.371Z</time></trkpt><trkpt lat="39.2010185" lon="-2.8584258"><ele>681.0</ele><time>2026-04-19T09:01:06.371Z</time></trkpt><trkpt lat="39.2007042" lon="-2.8583102"><ele>681.0</ele><time>2026-04-19T09:01:07.374Z</time></trkpt><trkpt lat="39.200414" lon="-2.8582061"><ele>681.0</ele><time>2026-04-19T09:01:08.378Z</time></trkpt><trkpt lat="39.2001586" lon="-2.8581136"><ele>681.0</ele><time>2026-04-19T09:01:09.377Z</time></trkpt><trkpt lat="39.1999325" lon="-2.8580329"><ele>681.0</ele><time>2026-04-19T09:01:10.373Z</time></trkpt><trkpt lat="39.1997134" lon="-2.8579641"><ele>681.0</ele><time>2026-04-19T09:01:11.382Z</time></trkpt><trkpt lat="39.1994826" lon="-2.8578959"><ele>681.0</ele><time>2026-04-19T09:01:12.373Z</time></trkpt><trkpt lat="39.1992592" lon="-2.8578473"><ele>681.0</ele><time>2026-04-19T09:01:13.374Z</time></trkpt><trkpt lat="39.1990201" lon="-2.8578168"><ele>680.5</ele><time>2026-04-19T09:01:14.377Z</time></trkpt><trkpt lat="39.1987888" lon="-2.8577916"><ele>680.0</ele><time>2026-04-19T09:01:15.379Z</time></trkpt><trkpt lat="39.1985574" lon="-2.8577642"><ele>680.0</ele><time>2026-04-19T09:01:16.38Z</time></trkpt><trkpt lat="39.1983122" lon="-2.8577153"><ele>680.0</ele><time>2026-04-19T09:01:17.377Z</time></trkpt><trkpt lat="39.198062" lon="-2.8576444"><ele>681.0</ele><time>2026-04-19T09:01:18.375Z</time></trkpt><trkpt lat="39.1978273" lon="-2.85757"><ele>682.0</ele><time>2026-04-19T09:01:19.378Z</time></trkpt><trkpt lat="39.1976165" lon="-2.8575064"><ele>682.0</ele><time>2026-04-19T09:01:20.37Z</time></trkpt><trkpt lat="39.1974289" lon="-2.857463"><ele>682.0</ele><time>2026-04-19T09:01:21.375Z</time></trkpt><trkpt lat="39.1972556" lon="-2.8574327"><ele>682.0</ele><time>2026-04-19T09:01:22.374Z</time></trkpt><trkpt lat="39.1970847" lon="-2.8574109"><ele>682.3333333333334</ele><time>2026-04-19T09:01:23.37Z</time></trkpt><trkpt lat="39.1968937" lon="-2.8573848"><ele>682.6666666666666</ele><time>2026-04-19T09:01:24.386Z</time></trkpt><trkpt lat="39.1966845" lon="-2.8573448"><ele>683.0</ele><time>2026-04-19T09:01:25.372Z</time></trkpt><trkpt lat="39.1964442" lon="-2.8573113"><ele>683.5</ele><time>2026-04-19T09:01:26.372Z</time></trkpt><trkpt lat="39.1962018" lon="-2.8572892"><ele>684.0</ele><time>2026-04-19T09:01:27.372Z</time></trkpt><trkpt lat="39.1959474" lon="-2.8572658"><ele>684.0</ele><time>2026-04-19T09:01:28.369Z</time></trkpt><trkpt lat="39.1957104" lon="-2.8572458"><ele>684.0</ele><time>2026-04-19T09:01:29.367Z</time></trkpt><trkpt lat="39.1954906" lon="-2.8572324"><ele>684.3333333333334</ele><time>2026-04-19T09:01:30.378Z</time></trkpt><trkpt lat="39.1952777" lon="-2.8572146"><ele>684.6666666666667</ele><time>2026-04-19T09:01:31.367Z</time></trkpt><trkpt lat="39.1950555" lon="-2.8571933"><ele>685.0</ele><time>2026-04-19T09:01:32.374Z</time></trkpt><trkpt lat="39.1948178" lon="-2.8571629"><ele>684.0</ele><time>2026-04-19T09:01:33.375Z</time></trkpt><trkpt lat="39.1945673" lon="-2.8571201"><ele>683.0</ele><time>2026-04-19T09:01:34.37Z</time></trkpt><trkpt lat="39.1943093" lon="-2.8570796"><ele>683.0</ele><time>2026-04-19T09:01:35.372Z</time></trkpt><trkpt lat="39.1940434" lon="-2.8570414"><ele>683.0</ele><time>2026-04-19T09:01:36.375Z</time></trkpt><trkpt lat="39.1937863" lon="-2.8570149"><ele>683.0</ele><time>2026-04-19T09:01:37.371Z</time></trkpt><trkpt lat="39.1935546" lon="-2.8569826"><ele>683.0</ele><time>2026-04-19T09:01:38.374Z</time></trkpt><trkpt lat="39.1933449" lon="-2.8569576"><ele>683.0</ele><time>2026-04-19T09:01:39.366Z</time></trkpt><trkpt lat="39.1931571" lon="-2.8569331"><ele>683.6666666666666</ele><time>2026-04-19T09:01:40.383Z</time></trkpt><trkpt lat="39.1929799" lon="-2.8569127"><ele>684.3333333333334</ele><time>2026-04-19T09:01:41.374Z</time></trkpt><trkpt lat="39.1928215" lon="-2.8568799"><ele>685.0</ele><time>2026-04-19T09:01:42.374Z</time></trkpt><trkpt lat="39.1926554" lon="-2.8568257"><ele>685.0</ele><time>2026-04-19T09:01:43.368Z</time></trkpt><trkpt lat="39.1924947" lon="-2.8567584"><ele>685.0</ele><time>2026-04-19T09:01:44.367Z</time></trkpt><trkpt lat="39.1923442" lon="-2.8566808"><ele>685.0</ele><time>2026-04-19T09:01:45.37Z</time></trkpt><trkpt lat="39.192208" lon="-2.8565934"><ele>685.0</ele><time>2026-04-19T09:01:46.371Z</time></trkpt><trkpt lat="39.1920802" lon="-2.8564939"><ele>685.0</ele><time>2026-04-19T09:01:47.372Z</time></trkpt><trkpt lat="39.1919547" lon="-2.8563814"><ele>685.0</ele><time>2026-04-19T09:01:48.373Z</time></trkpt><trkpt lat="39.1918241" lon="-2.8562584"><ele>685.0</ele><time>2026-04-19T09:01:49.371Z</time></trkpt><trkpt lat="39.1916853" lon="-2.8561155"><ele>685.0</ele><time>2026-04-19T09:01:50.375Z</time></trkpt><trkpt lat="39.1915394" lon="-2.8559927"><ele>685.0</ele><time>2026-04-19T09:01:51.37Z</time></trkpt><trkpt lat="39.1913928" lon="-2.855885"><ele>685.3333333333334</ele><time>2026-04-19T09:01:52.371Z</time></trkpt><trkpt lat="39.1912347" lon="-2.8557947"><ele>685.6666666666666</ele><time>2026-04-19T09:01:53.369Z</time></trkpt><trkpt lat="39.1910658" lon="-2.8557071"><ele>686.0</ele><time>2026-04-19T09:01:54.38Z</time></trkpt><trkpt lat="39.1909001" lon="-2.8556256"><ele>686.0</ele><time>2026-04-19T09:01:55.374Z</time></trkpt><trkpt lat="39.1907492" lon="-2.8555469"><ele>686.0</ele><time>2026-04-19T09:01:56.367Z</time></trkpt><trkpt lat="39.1906117" lon="-2.8554537"><ele>686.0</ele><time>2026-04-19T09:01:57.379Z</time></trkpt><trkpt lat="39.1904876" lon="-2.8553318"><ele>686.3333333333333</ele><time>2026-04-19T09:01:58.377Z</time></trkpt><trkpt lat="39.1903594" lon="-2.8551705"><ele>686.6666666666666</ele><time>2026-04-19T09:01:59.376Z</time></trkpt><trkpt lat="39.1902267" lon="-2.8549815"><ele>687.0</ele><time>2026-04-19T09:02:00.374Z</time></trkpt><trkpt lat="39.1900942" lon="-2.8547826"><ele>687.3333333333334</ele><time>2026-04-19T09:02:01.37Z</time></trkpt><trkpt lat="39.1899715" lon="-2.85461"><ele>687.6666666666667</ele><time>2026-04-19T09:02:02.375Z</time></trkpt><trkpt lat="39.1898543" lon="-2.8544645"><ele>688.0</ele><time>2026-04-19T09:02:03.38Z</time></trkpt><trkpt lat="39.1897293" lon="-2.8543416"><ele>688.0</ele><time>2026-04-19T09:02:04.37Z</time></trkpt><trkpt lat="39.1895982" lon="-2.8542457"><ele>688.0</ele><time>2026-04-19T09:02:05.376Z</time></trkpt><trkpt lat="39.1894486" lon="-2.8541555"><ele>688.0</ele><time>2026-04-19T09:02:06.374Z</time></trkpt><trkpt lat="39.1892869" lon="-2.8540479"><ele>688.0</ele><time>2026-04-19T09:02:07.371Z</time></trkpt><trkpt lat="39.1891145" lon="-2.8539149"><ele>688.0</ele><time>2026-04-19T09:02:08.381Z</time></trkpt><trkpt lat="39.1889282" lon="-2.8537664"><ele>688.0</ele><time>2026-04-19T09:02:09.384Z</time></trkpt><trkpt lat="39.1887359" lon="-2.8536284"><ele>688.0</ele><time>2026-04-19T09:02:10.372Z</time></trkpt><trkpt lat="39.1885467" lon="-2.8535048"><ele>688.0</ele><time>2026-04-19T09:02:11.377Z</time></trkpt><trkpt lat="39.1883689" lon="-2.8533916"><ele>688.0</ele><time>2026-04-19T09:02:12.375Z</time></trkpt><trkpt lat="39.1882035" lon="-2.8532737"><ele>688.3333333333334</ele><time>2026-04-19T09:02:13.371Z</time></trkpt><trkpt lat="39.1880465" lon="-2.8531288"><ele>688.6666666666666</ele><time>2026-04-19T09:02:14.377Z</time></trkpt><trkpt lat="39.1878961" lon="-2.8529597"><ele>689.0</ele><time>2026-04-19T09:02:15.381Z</time></trkpt><trkpt lat="39.1877549" lon="-2.8527747"><ele>689.0</ele><time>2026-04-19T09:02:16.376Z</time></trkpt><trkpt lat="39.1876127" lon="-2.8525559"><ele>689.0</ele><time>2026-04-19T09:02:17.37Z</time></trkpt><trkpt lat="39.1874804" lon="-2.8523243"><ele>689.0</ele><time>2026-04-19T09:02:18.382Z</time></trkpt><trkpt lat="39.1873487" lon="-2.8520907"><ele>689.0</ele><time>2026-04-19T09:02:19.378Z</time></trkpt><trkpt lat="39.1872111" lon="-2.8518421"><ele>689.0</ele><time>2026-04-19T09:02:20.376Z</time></trkpt><trkpt lat="39.1870544" lon="-2.8515855"><ele>689.0</ele><time>2026-04-19T09:02:21.38Z</time></trkpt><trkpt lat="39.1869017" lon="-2.8513494"><ele>689.0</ele><time>2026-04-19T09:02:22.377Z</time></trkpt><trkpt lat="39.1867614" lon="-2.8511369"><ele>689.6666666666666</ele><time>2026-04-19T09:02:23.372Z</time></trkpt><trkpt lat="39.1866339" lon="-2.8509467"><ele>690.3333333333334</ele><time>2026-04-19T09:02:24.374Z</time></trkpt><trkpt lat="39.1865151" lon="-2.850775"><ele>691.0</ele><time>2026-04-19T09:02:25.373Z</time></trkpt><trkpt lat="39.186395" lon="-2.8506231"><ele>691.0</ele><time>2026-04-19T09:02:26.367Z</time></trkpt><trkpt lat="39.1862776" lon="-2.8504923"><ele>691.0</ele><time>2026-04-19T09:02:27.384Z</time></trkpt><trkpt lat="39.1861633" lon="-2.850379"><ele>691.0</ele><time>2026-04-19T09:02:28.373Z</time></trkpt><trkpt lat="39.1860502" lon="-2.8502792"><ele>691.0</ele><time>2026-04-19T09:02:29.375Z</time></trkpt><trkpt lat="39.1859417" lon="-2.8501864"><ele>691.0</ele><time>2026-04-19T09:02:30.374Z</time></trkpt><trkpt lat="39.1858386" lon="-2.8501069"><ele>691.0</ele><time>2026-04-19T09:02:31.372Z</time></trkpt><trkpt lat="39.1857385" lon="-2.8500378"><ele>691.0</ele><time>2026-04-19T09:02:32.375Z</time></trkpt><trkpt lat="39.1856409" lon="-2.8499878"><ele>691.0</ele><time>2026-04-19T09:02:33.374Z</time></trkpt><trkpt lat="39.1855456" lon="-2.8499633"><ele>691.0</ele><time>2026-04-19T09:02:34.373Z</time></trkpt><trkpt lat="39.1854524" lon="-2.8499636"><ele>691.0</ele><time>2026-04-19T09:02:35.378Z</time></trkpt><trkpt lat="39.1853487" lon="-2.8499854"><ele>691.0</ele><time>2026-04-19T09:02:36.369Z</time></trkpt><trkpt lat="39.1852418" lon="-2.8500219"><ele>691.0</ele><time>2026-04-19T09:02:37.366Z</time></trkpt><trkpt lat="39.1851291" lon="-2.8500647"><ele>691.0</ele><time>2026-04-19T09:02:38.369Z</time></trkpt><trkpt lat="39.1850117" lon="-2.8501155"><ele>691.0</ele><time>2026-04-19T09:02:39.37Z</time></trkpt><trkpt lat="39.1848893" lon="-2.8501738"><ele>691.0</ele><time>2026-04-19T09:02:40.375Z</time></trkpt><trkpt lat="39.1847567" lon="-2.8502358"><ele>691.0</ele><time>2026-04-19T09:02:41.37Z</time></trkpt><trkpt lat="39.1846092" lon="-2.8502975"><ele>691.0</ele><time>2026-04-19T09:02:42.381Z</time></trkpt><trkpt lat="39.184444" lon="-2.8503634"><ele>691.3333333333334</ele><time>2026-04-19T09:02:43.372Z</time></trkpt><trkpt lat="39.1842563" lon="-2.8504379"><ele>691.6666666666666</ele><time>2026-04-19T09:02:44.377Z</time></trkpt><trkpt lat="39.1840539" lon="-2.8505165"><ele>692.0</ele><time>2026-04-19T09:02:45.381Z</time></trkpt><trkpt lat="39.1838321" lon="-2.8506015"><ele>692.5</ele><time>2026-04-19T09:02:46.373Z</time></trkpt><trkpt lat="39.18359" lon="-2.8506903"><ele>693.0</ele><time>2026-04-19T09:02:47.378Z</time></trkpt><trkpt lat="39.1833406" lon="-2.850781"><ele>692.0</ele><time>2026-04-19T09:02:48.377Z</time></trkpt><trkpt lat="39.1830871" lon="-2.8508696"><ele>691.0</ele><time>2026-04-19T09:02:49.374Z</time></trkpt><trkpt lat="39.182842" lon="-2.8509555"><ele>691.5</ele><time>2026-04-19T09:02:50.375Z</time></trkpt><trkpt lat="39.1826058" lon="-2.8510429"><ele>692.0</ele><time>2026-04-19T09:02:51.374Z</time></trkpt><trkpt lat="39.1823609" lon="-2.8511396"><ele>692.5</ele><time>2026-04-19T09:02:52.378Z</time></trkpt><trkpt lat="39.1821043" lon="-2.8512429"><ele>693.0</ele><time>2026-04-19T09:02:53.377Z</time></trkpt><trkpt lat="39.1818583" lon="-2.8513422"><ele>693.0</ele><time>2026-04-19T09:02:54.376Z</time></trkpt><trkpt lat="39.1816151" lon="-2.8514355"><ele>693.0</ele><time>2026-04-19T09:02:55.379Z</time></trkpt><trkpt lat="39.181384" lon="-2.851526"><ele>692.5</ele><time>2026-04-19T09:02:56.379Z</time></trkpt><trkpt lat="39.1811614" lon="-2.8516114"><ele>692.0</ele><time>2026-04-19T09:02:57.373Z</time></trkpt><trkpt lat="39.180947" lon="-2.8516945"><ele>692.0</ele><time>2026-04-19T09:02:58.375Z</time></trkpt><trkpt lat="39.1807384" lon="-2.8517859"><ele>692.0</ele><time>2026-04-19T09:02:59.38Z</time></trkpt><trkpt lat="39.1805214" lon="-2.8518945"><ele>692.5</ele><time>2026-04-19T09:03:00.373Z</time></trkpt><trkpt lat="39.1803023" lon="-2.8520118"><ele>693.0</ele><time>2026-04-19T09:03:01.377Z</time></trkpt><trkpt lat="39.1800723" lon="-2.8521307"><ele>693.5</ele><time>2026-04-19T09:03:02.376Z</time></trkpt><trkpt lat="39.1798287" lon="-2.8522477"><ele>694.0</ele><time>2026-04-19T09:03:03.376Z</time></trkpt><trkpt lat="39.1795741" lon="-2.8523642"><ele>694.0</ele><time>2026-04-19T09:03:04.379Z</time></trkpt><trkpt lat="39.1793064" lon="-2.85248"><ele>694.0</ele><time>2026-04-19T09:03:05.374Z</time></trkpt><trkpt lat="39.1790365" lon="-2.8525964"><ele>693.0</ele><time>2026-04-19T09:03:06.379Z</time></trkpt><trkpt lat="39.1787848" lon="-2.8526917"><ele>692.0</ele><time>2026-04-19T09:03:07.374Z</time></trkpt><trkpt lat="39.1785516" lon="-2.8527844"><ele>692.0</ele><time>2026-04-19T09:03:08.375Z</time></trkpt><trkpt lat="39.1783409" lon="-2.8528729"><ele>692.0</ele><time>2026-04-19T09:03:09.379Z</time></trkpt><trkpt lat="39.1781448" lon="-2.8529641"><ele>692.0</ele><time>2026-04-19T09:03:10.369Z</time></trkpt><trkpt lat="39.1779455" lon="-2.8530466"><ele>692.0</ele><time>2026-04-19T09:03:11.375Z</time></trkpt><trkpt lat="39.1777532" lon="-2.8531219"><ele>692.0</ele><time>2026-04-19T09:03:12.378Z</time></trkpt><trkpt lat="39.1775867" lon="-2.8531909"><ele>692.0</ele><time>2026-04-19T09:03:13.372Z</time></trkpt><trkpt lat="39.1774483" lon="-2.8532499"><ele>692.6</ele><time>2026-04-19T09:03:14.375Z</time></trkpt><trkpt lat="39.1773338" lon="-2.853302"><ele>693.2</ele><time>2026-04-19T09:03:15.372Z</time></trkpt><trkpt lat="39.1772449" lon="-2.8533411"><ele>693.8</ele><time>2026-04-19T09:03:16.366Z</time></trkpt><trkpt lat="39.1771789" lon="-2.8533707"><ele>694.4</ele><time>2026-04-19T09:03:17.366Z</time></trkpt><trkpt lat="39.1770975" lon="-2.8533583"><ele>695.0</ele><time>2026-04-19T09:03:19.369Z</time></trkpt><trkpt lat="39.1770309" lon="-2.8532032"><ele>695.0</ele><time>2026-04-19T09:03:21.372Z</time></trkpt><trkpt lat="39.1769868" lon="-2.8530623"><ele>695.0</ele><time>2026-04-19T09:03:22.374Z</time></trkpt><trkpt lat="39.1769287" lon="-2.8528952"><ele>695.0</ele><time>2026-04-19T09:03:23.373Z</time></trkpt><trkpt lat="39.1768561" lon="-2.852706"><ele>695.0</ele><time>2026-04-19T09:03:24.371Z</time></trkpt><trkpt lat="39.1767671" lon="-2.8524848"><ele>695.0</ele><time>2026-04-19T09:03:25.37Z</time></trkpt><trkpt lat="39.1766669" lon="-2.8522462"><ele>695.0</ele><time>2026-04-19T09:03:26.38Z</time></trkpt><trkpt lat="39.1765723" lon="-2.8520252"><ele>695.0</ele><time>2026-04-19T09:03:27.379Z</time></trkpt><trkpt lat="39.1764843" lon="-2.8518285"><ele>695.25</ele><time>2026-04-19T09:03:28.371Z</time></trkpt><trkpt lat="39.176402" lon="-2.8516565"><ele>695.5</ele><time>2026-04-19T09:03:29.371Z</time></trkpt><trkpt lat="39.1763276" lon="-2.8515177"><ele>695.75</ele><time>2026-04-19T09:03:30.37Z</time></trkpt><trkpt lat="39.1762587" lon="-2.8514111"><ele>696.0</ele><time>2026-04-19T09:03:31.372Z</time></trkpt><trkpt lat="39.176188" lon="-2.8513372"><ele>696.0</ele><time>2026-04-19T09:03:32.37Z</time></trkpt><trkpt lat="39.1761059" lon="-2.8512953"><ele>696.0</ele><time>2026-04-19T09:03:33.372Z</time></trkpt><trkpt lat="39.175994" lon="-2.8512718"><ele>696.0</ele><time>2026-04-19T09:03:34.374Z</time></trkpt><trkpt lat="39.1758491" lon="-2.8512551"><ele>696.0</ele><time>2026-04-19T09:03:35.37Z</time></trkpt><trkpt lat="39.1756827" lon="-2.8512442"><ele>696.0</ele><time>2026-04-19T09:03:36.375Z</time></trkpt><trkpt lat="39.1755211" lon="-2.8512271"><ele>696.0</ele><time>2026-04-19T09:03:37.382Z</time></trkpt><trkpt lat="39.1753763" lon="-2.8511919"><ele>696.0</ele><time>2026-04-19T09:03:38.37Z</time></trkpt><trkpt lat="39.1752556" lon="-2.8511414"><ele>696.0</ele><time>2026-04-19T09:03:39.369Z</time></trkpt><trkpt lat="39.1751481" lon="-2.8510605"><ele>695.6666666666666</ele><time>2026-04-19T09:03:40.369Z</time></trkpt><trkpt lat="39.1750385" lon="-2.8509379"><ele>695.3333333333333</ele><time>2026-04-19T09:03:41.37Z</time></trkpt><trkpt lat="39.1749188" lon="-2.8507769"><ele>695.0</ele><time>2026-04-19T09:03:42.363Z</time></trkpt><trkpt lat="39.1747879" lon="-2.8505855"><ele>695.0</ele><time>2026-04-19T09:03:43.375Z</time></trkpt><trkpt lat="39.174641" lon="-2.8503659"><ele>695.0</ele><time>2026-04-19T09:03:44.374Z</time></trkpt><trkpt lat="39.1744838" lon="-2.8501228"><ele>695.5</ele><time>2026-04-19T09:03:45.374Z</time></trkpt><trkpt lat="39.1743251" lon="-2.8498553"><ele>696.0</ele><time>2026-04-19T09:03:46.373Z</time></trkpt><trkpt lat="39.1741828" lon="-2.849594"><ele>696.0</ele><time>2026-04-19T09:03:47.373Z</time></trkpt><trkpt lat="39.1740577" lon="-2.8493507"><ele>696.0</ele><time>2026-04-19T09:03:48.371Z</time></trkpt><trkpt lat="39.1739427" lon="-2.849097"><ele>696.0</ele><time>2026-04-19T09:03:49.377Z</time></trkpt><trkpt lat="39.173833" lon="-2.8488137"><ele>696.0</ele><time>2026-04-19T09:03:50.375Z</time></trkpt><trkpt lat="39.1737349" lon="-2.848506"><ele>696.5</ele><time>2026-04-19T09:03:51.385Z</time></trkpt><trkpt lat="39.1736577" lon="-2.8481963"><ele>697.0</ele><time>2026-04-19T09:03:52.374Z</time></trkpt><trkpt lat="39.173596" lon="-2.847888"><ele>697.3333333333334</ele><time>2026-04-19T09:03:53.374Z</time></trkpt><trkpt lat="39.1735464" lon="-2.8476113"><ele>697.6666666666666</ele><time>2026-04-19T09:03:54.37Z</time></trkpt><trkpt lat="39.1735049" lon="-2.8473685"><ele>698.0</ele><time>2026-04-19T09:03:55.386Z</time></trkpt><trkpt lat="39.1734613" lon="-2.8471475"><ele>698.0</ele><time>2026-04-19T09:03:56.382Z</time></trkpt><trkpt lat="39.1734093" lon="-2.8469326"><ele>698.0</ele><time>2026-04-19T09:03:57.374Z</time></trkpt><trkpt lat="39.1733385" lon="-2.8467242"><ele>698.0</ele><time>2026-04-19T09:03:58.376Z</time></trkpt><trkpt lat="39.1732388" lon="-2.8465143"><ele>697.6666666666666</ele><time>2026-04-19T09:03:59.377Z</time></trkpt><trkpt lat="39.1731143" lon="-2.8462908"><ele>697.3333333333334</ele><time>2026-04-19T09:04:00.373Z</time></trkpt><trkpt lat="39.1729681" lon="-2.846061"><ele>697.0</ele><time>2026-04-19T09:04:01.371Z</time></trkpt><trkpt lat="39.1728052" lon="-2.8458154"><ele>697.0</ele><time>2026-04-19T09:04:02.375Z</time></trkpt><trkpt lat="39.1726454" lon="-2.8455569"><ele>697.0</ele><time>2026-04-19T09:04:03.371Z</time></trkpt><trkpt lat="39.1725002" lon="-2.8453149"><ele>698.0</ele><time>2026-04-19T09:04:04.379Z</time></trkpt><trkpt lat="39.1723539" lon="-2.8450986"><ele>699.0</ele><time>2026-04-19T09:04:05.377Z</time></trkpt><trkpt lat="39.1721834" lon="-2.8448952"><ele>699.0</ele><time>2026-04-19T09:04:06.375Z</time></trkpt><trkpt lat="39.1719872" lon="-2.8446976"><ele>699.0</ele><time>2026-04-19T09:04:07.369Z</time></trkpt><trkpt lat="39.1717761" lon="-2.8444974"><ele>699.0</ele><time>2026-04-19T09:04:08.376Z</time></trkpt><trkpt lat="39.1715598" lon="-2.844289"><ele>699.0</ele><time>2026-04-19T09:04:09.375Z</time></trkpt><trkpt lat="39.1713504" lon="-2.844083"><ele>699.5</ele><time>2026-04-19T09:04:10.372Z</time></trkpt><trkpt lat="39.1711252" lon="-2.8438825"><ele>700.0</ele><time>2026-04-19T09:04:11.389Z</time></trkpt><trkpt lat="39.1708994" lon="-2.8436976"><ele>700.0</ele><time>2026-04-19T09:04:12.375Z</time></trkpt><trkpt lat="39.1706821" lon="-2.8435341"><ele>700.0</ele><time>2026-04-19T09:04:13.375Z</time></trkpt><trkpt lat="39.1704747" lon="-2.8433806"><ele>699.5</ele><time>2026-04-19T09:04:14.37Z</time></trkpt><trkpt lat="39.1702589" lon="-2.8432019"><ele>699.0</ele><time>2026-04-19T09:04:15.371Z</time></trkpt><trkpt lat="39.1700377" lon="-2.843014"><ele>699.0</ele><time>2026-04-19T09:04:16.372Z</time></trkpt><trkpt lat="39.1698322" lon="-2.8428456"><ele>699.0</ele><time>2026-04-19T09:04:17.372Z</time></trkpt><trkpt lat="39.1696468" lon="-2.8426968"><ele>699.3333333333334</ele><time>2026-04-19T09:04:18.371Z</time></trkpt><trkpt lat="39.169478" lon="-2.8425656"><ele>699.6666666666667</ele><time>2026-04-19T09:04:19.379Z</time></trkpt><trkpt lat="39.1693216" lon="-2.8424484"><ele>700.0</ele><time>2026-04-19T09:04:20.377Z</time></trkpt><trkpt lat="39.1691747" lon="-2.8423456"><ele>700.0</ele><time>2026-04-19T09:04:21.377Z</time></trkpt><trkpt lat="39.1690367" lon="-2.8422512"><ele>700.0</ele><time>2026-04-19T09:04:22.379Z</time></trkpt><trkpt lat="39.1689135" lon="-2.8421637"><ele>700.0</ele><time>2026-04-19T09:04:23.377Z</time></trkpt><trkpt lat="39.1688054" lon="-2.8420797"><ele>700.0</ele><time>2026-04-19T09:04:24.371Z</time></trkpt><trkpt lat="39.1687151" lon="-2.8419942"><ele>700.0</ele><time>2026-04-19T09:04:25.375Z</time></trkpt><trkpt lat="39.1686381" lon="-2.8419022"><ele>700.0</ele><time>2026-04-19T09:04:26.383Z</time></trkpt><trkpt lat="39.1685766" lon="-2.8418028"><ele>700.0</ele><time>2026-04-19T09:04:27.373Z</time></trkpt><trkpt lat="39.1685204" lon="-2.8416912"><ele>700.0</ele><time>2026-04-19T09:04:28.366Z</time></trkpt><trkpt lat="39.1684651" lon="-2.8415612"><ele>700.0</ele><time>2026-04-19T09:04:29.371Z</time></trkpt><trkpt lat="39.1684145" lon="-2.8414396"><ele>700.5</ele><time>2026-04-19T09:04:30.368Z</time></trkpt><trkpt lat="39.1683754" lon="-2.8413288"><ele>701.0</ele><time>2026-04-19T09:04:31.371Z</time></trkpt><trkpt lat="39.1683444" lon="-2.8412274"><ele>701.5</ele><time>2026-04-19T09:04:32.368Z</time></trkpt><trkpt lat="39.1683205" lon="-2.8411335"><ele>702.0</ele><time>2026-04-19T09:04:33.371Z</time></trkpt><trkpt lat="39.1683065" lon="-2.8410429"><ele>702.5</ele><time>2026-04-19T09:04:34.376Z</time></trkpt><trkpt lat="39.1683066" lon="-2.8409518"><ele>703.0</ele><time>2026-04-19T09:04:35.372Z</time></trkpt><trkpt lat="39.1683245" lon="-2.8408519"><ele>703.0</ele><time>2026-04-19T09:04:36.374Z</time></trkpt><trkpt lat="39.1683472" lon="-2.8407572"><ele>703.0</ele><time>2026-04-19T09:04:37.379Z</time></trkpt><trkpt lat="39.1683532" lon="-2.8406431"><ele>703.0</ele><time>2026-04-19T09:04:39.371Z</time></trkpt><trkpt lat="39.1682769" lon="-2.8405974"><ele>703.0</ele><time>2026-04-19T09:04:42.375Z</time></trkpt><trkpt lat="39.1681782" lon="-2.8406118"><ele>703.0</ele><time>2026-04-19T09:04:44.381Z</time></trkpt><trkpt lat="39.1680927" lon="-2.8406726"><ele>703.0</ele><time>2026-04-19T09:04:46.381Z</time></trkpt><trkpt lat="39.1679813" lon="-2.840724"><ele>702.6666666666667</ele><time>2026-04-19T09:04:48.377Z</time></trkpt><trkpt lat="39.1679191" lon="-2.8407401"><ele>702.3333333333334</ele><time>2026-04-19T09:04:49.373Z</time></trkpt><trkpt lat="39.1678569" lon="-2.8407615"><ele>702.0</ele><time>2026-04-19T09:04:50.374Z</time></trkpt><trkpt lat="39.1677442" lon="-2.8407948"><ele>701.6666666666666</ele><time>2026-04-19T09:04:52.377Z</time></trkpt><trkpt lat="39.1676519" lon="-2.8408117"><ele>701.3333333333333</ele><time>2026-04-19T09:04:54.38Z</time></trkpt><trkpt lat="39.1675794" lon="-2.8408151"><ele>701.0</ele><time>2026-04-19T09:04:56.378Z</time></trkpt><trkpt lat="39.1675146" lon="-2.8408365"><ele>701.0</ele><time>2026-04-19T09:04:58.378Z</time></trkpt><trkpt lat="39.1674211" lon="-2.8408277"><ele>701.0</ele><time>2026-04-19T09:05:22.373Z</time></trkpt><trkpt lat="39.1673261" lon="-2.8408183"><ele>701.0</ele><time>2026-04-19T09:05:24.379Z</time></trkpt><trkpt lat="39.1672593" lon="-2.8408181"><ele>701.0</ele><time>2026-04-19T09:05:25.376Z</time></trkpt><trkpt lat="39.1671895" lon="-2.8408214"><ele>701.0</ele><time>2026-04-19T09:05:26.371Z</time></trkpt><trkpt lat="39.1671163" lon="-2.8408165"><ele>701.0</ele><time>2026-04-19T09:05:27.375Z</time></trkpt><trkpt lat="39.1670266" lon="-2.8408084"><ele>701.0</ele><time>2026-04-19T09:05:28.374Z</time></trkpt><trkpt lat="39.1669223" lon="-2.8407993"><ele>701.0</ele><time>2026-04-19T09:05:29.378Z</time></trkpt><trkpt lat="39.1667954" lon="-2.8407936"><ele>701.0</ele><time>2026-04-19T09:05:30.372Z</time></trkpt><trkpt lat="39.1666503" lon="-2.8407886"><ele>701.0</ele><time>2026-04-19T09:05:31.375Z</time></trkpt><trkpt lat="39.1664924" lon="-2.8407731"><ele>701.3333333333333</ele><time>2026-04-19T09:05:32.369Z</time></trkpt><trkpt lat="39.166314" lon="-2.8407533"><ele>701.6666666666666</ele><time>2026-04-19T09:05:33.371Z</time></trkpt><trkpt lat="39.1661323" lon="-2.8407386"><ele>702.0</ele><time>2026-04-19T09:05:34.372Z</time></trkpt><trkpt lat="39.1659649" lon="-2.8407265"><ele>702.0</ele><time>2026-04-19T09:05:35.372Z</time></trkpt><trkpt lat="39.1658202" lon="-2.8407172"><ele>702.0</ele><time>2026-04-19T09:05:36.368Z</time></trkpt><trkpt lat="39.1656914" lon="-2.8407103"><ele>702.0</ele><time>2026-04-19T09:05:37.377Z</time></trkpt><trkpt lat="39.1655736" lon="-2.8407117"><ele>702.0</ele><time>2026-04-19T09:05:38.371Z</time></trkpt><trkpt lat="39.1654681" lon="-2.8407319"><ele>702.2</ele><time>2026-04-19T09:05:39.371Z</time></trkpt><trkpt lat="39.1653678" lon="-2.8407811"><ele>702.4000000000001</ele><time>2026-04-19T09:05:40.369Z</time></trkpt><trkpt lat="39.1652689" lon="-2.8408604"><ele>702.5999999999999</ele><time>2026-04-19T09:05:41.374Z</time></trkpt><trkpt lat="39.1651872" lon="-2.8409569"><ele>702.8</ele><time>2026-04-19T09:05:42.371Z</time></trkpt><trkpt lat="39.1651248" lon="-2.8410667"><ele>703.0</ele><time>2026-04-19T09:05:43.373Z</time></trkpt><trkpt lat="39.1650773" lon="-2.8411936"><ele>703.1666666666667</ele><time>2026-04-19T09:05:44.369Z</time></trkpt><trkpt lat="39.1650479" lon="-2.8412999"><ele>703.3333333333334</ele><time>2026-04-19T09:05:45.372Z</time></trkpt><trkpt lat="39.1650166" lon="-2.8413848"><ele>703.5</ele><time>2026-04-19T09:05:46.374Z</time></trkpt><trkpt lat="39.164935" lon="-2.8414623"><ele>703.6666666666666</ele><time>2026-04-19T09:05:48.373Z</time></trkpt><trkpt lat="39.1648707" lon="-2.8414636"><ele>703.8333333333333</ele><time>2026-04-19T09:05:49.375Z</time></trkpt><trkpt lat="39.1647735" lon="-2.8414597"><ele>704.0</ele><time>2026-04-19T09:05:50.377Z</time></trkpt><trkpt lat="39.1646541" lon="-2.8414682"><ele>704.0</ele><time>2026-04-19T09:05:51.373Z</time></trkpt><trkpt lat="39.1645076" lon="-2.8414847"><ele>704.0</ele><time>2026-04-19T09:05:52.377Z</time></trkpt><trkpt lat="39.1643428" lon="-2.8415057"><ele>704.0</ele><time>2026-04-19T09:05:53.378Z</time></trkpt><trkpt lat="39.1641731" lon="-2.8415083"><ele>704.0</ele><time>2026-04-19T09:05:54.372Z</time></trkpt><trkpt lat="39.1639978" lon="-2.841496"><ele>704.0</ele><time>2026-04-19T09:05:55.369Z</time></trkpt><trkpt lat="39.1638145" lon="-2.8414739"><ele>704.0</ele><time>2026-04-19T09:05:56.375Z</time></trkpt><trkpt lat="39.1636175" lon="-2.8414325"><ele>704.0</ele><time>2026-04-19T09:05:57.373Z</time></trkpt><trkpt lat="39.163405" lon="-2.8413748"><ele>704.0</ele><time>2026-04-19T09:05:58.377Z</time></trkpt><trkpt lat="39.1631776" lon="-2.8413161"><ele>704.0</ele><time>2026-04-19T09:05:59.374Z</time></trkpt><trkpt lat="39.1629333" lon="-2.8412603"><ele>704.5</ele><time>2026-04-19T09:06:00.378Z</time></trkpt><trkpt lat="39.1626727" lon="-2.8412032"><ele>705.0</ele><time>2026-04-19T09:06:01.37Z</time></trkpt><trkpt lat="39.1623975" lon="-2.8411477"><ele>704.5</ele><time>2026-04-19T09:06:02.375Z</time></trkpt><trkpt lat="39.1621107" lon="-2.8410945"><ele>704.0</ele><time>2026-04-19T09:06:03.376Z</time></trkpt><trkpt lat="39.1618121" lon="-2.8410413"><ele>704.5</ele><time>2026-04-19T09:06:04.371Z</time></trkpt><trkpt lat="39.1615136" lon="-2.840987"><ele>705.0</ele><time>2026-04-19T09:06:05.374Z</time></trkpt><trkpt lat="39.1612134" lon="-2.8409332"><ele>705.0</ele><time>2026-04-19T09:06:06.376Z</time></trkpt><trkpt lat="39.1609176" lon="-2.840886"><ele>705.0</ele><time>2026-04-19T09:06:07.372Z</time></trkpt><trkpt lat="39.1606242" lon="-2.8408422"><ele>705.5</ele><time>2026-04-19T09:06:08.371Z</time></trkpt><trkpt lat="39.1603208" lon="-2.8407992"><ele>706.0</ele><time>2026-04-19T09:06:09.37Z</time></trkpt><trkpt lat="39.1600097" lon="-2.8407556"><ele>706.5</ele><time>2026-04-19T09:06:10.373Z</time></trkpt><trkpt lat="39.1597023" lon="-2.8407126"><ele>707.0</ele><time>2026-04-19T09:06:11.374Z</time></trkpt><trkpt lat="39.1593974" lon="-2.8406724"><ele>707.0</ele><time>2026-04-19T09:06:12.376Z</time></trkpt><trkpt lat="39.159093" lon="-2.840638"><ele>707.0</ele><time>2026-04-19T09:06:13.371Z</time></trkpt><trkpt lat="39.1587847" lon="-2.8406034"><ele>707.5</ele><time>2026-04-19T09:06:14.372Z</time></trkpt><trkpt lat="39.1584683" lon="-2.8405641"><ele>708.0</ele><time>2026-04-19T09:06:15.371Z</time></trkpt><trkpt lat="39.1581384" lon="-2.8405201"><ele>708.5</ele><time>2026-04-19T09:06:16.369Z</time></trkpt><trkpt lat="39.1577952" lon="-2.8404732"><ele>709.0</ele><time>2026-04-19T09:06:17.365Z</time></trkpt><trkpt lat="39.1574387" lon="-2.840424"><ele>709.0</ele><time>2026-04-19T09:06:18.373Z</time></trkpt><trkpt lat="39.1570691" lon="-2.8403737"><ele>709.0</ele><time>2026-04-19T09:06:19.377Z</time></trkpt><trkpt lat="39.1567026" lon="-2.8403257"><ele>710.0</ele><time>2026-04-19T09:06:20.372Z</time></trkpt><trkpt lat="39.1563624" lon="-2.8402821"><ele>711.0</ele><time>2026-04-19T09:06:21.368Z</time></trkpt><trkpt lat="39.1560334" lon="-2.8402381"><ele>711.0</ele><time>2026-04-19T09:06:22.378Z</time></trkpt><trkpt lat="39.1556992" lon="-2.8401952"><ele>711.0</ele><time>2026-04-19T09:06:23.376Z</time></trkpt><trkpt lat="39.1553858" lon="-2.8401592"><ele>711.5</ele><time>2026-04-19T09:06:24.37Z</time></trkpt><trkpt lat="39.1550962" lon="-2.8401239"><ele>712.0</ele><time>2026-04-19T09:06:25.384Z</time></trkpt><trkpt lat="39.1548274" lon="-2.8400917"><ele>712.0</ele><time>2026-04-19T09:06:26.377Z</time></trkpt><trkpt lat="39.1545738" lon="-2.8400653"><ele>712.0</ele><time>2026-04-19T09:06:27.377Z</time></trkpt><trkpt lat="39.1543172" lon="-2.8400419"><ele>712.0</ele><time>2026-04-19T09:06:28.377Z</time></trkpt><trkpt lat="39.1540472" lon="-2.8400324"><ele>712.0</ele><time>2026-04-19T09:06:29.376Z</time></trkpt><trkpt lat="39.1537638" lon="-2.8400403"><ele>712.0</ele><time>2026-04-19T09:06:30.374Z</time></trkpt><trkpt lat="39.1534655" lon="-2.8400611"><ele>712.0</ele><time>2026-04-19T09:06:31.37Z</time></trkpt><trkpt lat="39.1531594" lon="-2.8400878"><ele>711.5</ele><time>2026-04-19T09:06:32.371Z</time></trkpt><trkpt lat="39.1528711" lon="-2.8401159"><ele>711.0</ele><time>2026-04-19T09:06:33.37Z</time></trkpt><trkpt lat="39.1526035" lon="-2.8401446"><ele>712.5</ele><time>2026-04-19T09:06:34.376Z</time></trkpt><trkpt lat="39.1523538" lon="-2.8401733"><ele>714.0</ele><time>2026-04-19T09:06:35.376Z</time></trkpt><trkpt lat="39.152119" lon="-2.8401997"><ele>714.0</ele><time>2026-04-19T09:06:36.401Z</time></trkpt><trkpt lat="39.1519004" lon="-2.8402202"><ele>714.0</ele><time>2026-04-19T09:06:37.376Z</time></trkpt><trkpt lat="39.1516962" lon="-2.8402291"><ele>714.0</ele><time>2026-04-19T09:06:38.369Z</time></trkpt><trkpt lat="39.151501" lon="-2.84023"><ele>714.0</ele><time>2026-04-19T09:06:39.369Z</time></trkpt><trkpt lat="39.151305" lon="-2.8402274"><ele>714.0</ele><time>2026-04-19T09:06:40.376Z</time></trkpt><trkpt lat="39.1511029" lon="-2.8402237"><ele>714.0</ele><time>2026-04-19T09:06:41.369Z</time></trkpt><trkpt lat="39.1508844" lon="-2.8402166"><ele>714.5</ele><time>2026-04-19T09:06:42.368Z</time></trkpt><trkpt lat="39.1506476" lon="-2.8402112"><ele>715.0</ele><time>2026-04-19T09:06:43.368Z</time></trkpt><trkpt lat="39.1503916" lon="-2.840204"><ele>715.0</ele><time>2026-04-19T09:06:44.374Z</time></trkpt><trkpt lat="39.150128" lon="-2.840201"><ele>715.0</ele><time>2026-04-19T09:06:45.372Z</time></trkpt><trkpt lat="39.1498753" lon="-2.8401869"><ele>716.0</ele><time>2026-04-19T09:06:46.369Z</time></trkpt><trkpt lat="39.1496065" lon="-2.8401659"><ele>717.0</ele><time>2026-04-19T09:06:47.373Z</time></trkpt><trkpt lat="39.1493262" lon="-2.8401431"><ele>717.0</ele><time>2026-04-19T09:06:48.373Z</time></trkpt><trkpt lat="39.1490476" lon="-2.8401254"><ele>717.0</ele><time>2026-04-19T09:06:49.38Z</time></trkpt><trkpt lat="39.1487751" lon="-2.8401147"><ele>717.0</ele><time>2026-04-19T09:06:50.382Z</time></trkpt><trkpt lat="39.1484978" lon="-2.8401016"><ele>717.0</ele><time>2026-04-19T09:06:51.371Z</time></trkpt><trkpt lat="39.1482138" lon="-2.8400901"><ele>717.0</ele><time>2026-04-19T09:06:52.368Z</time></trkpt><trkpt lat="39.1479234" lon="-2.8400851"><ele>717.0</ele><time>2026-04-19T09:06:53.371Z</time></trkpt><trkpt lat="39.1476305" lon="-2.840082"><ele>717.5</ele><time>2026-04-19T09:06:54.373Z</time></trkpt><trkpt lat="39.1473312" lon="-2.8400761"><ele>718.0</ele><time>2026-04-19T09:06:55.377Z</time></trkpt><trkpt lat="39.1470391" lon="-2.8400712"><ele>718.0</ele><time>2026-04-19T09:06:56.372Z</time></trkpt><trkpt lat="39.1467505" lon="-2.840063"><ele>718.0</ele><time>2026-04-19T09:06:57.372Z</time></trkpt><trkpt lat="39.146477" lon="-2.8400569"><ele>718.5</ele><time>2026-04-19T09:06:58.379Z</time></trkpt><trkpt lat="39.1462225" lon="-2.8400547"><ele>719.0</ele><time>2026-04-19T09:06:59.376Z</time></trkpt><trkpt lat="39.1459853" lon="-2.8400558"><ele>719.0</ele><time>2026-04-19T09:07:00.382Z</time></trkpt><trkpt lat="39.1457573" lon="-2.8400564"><ele>719.0</ele><time>2026-04-19T09:07:01.376Z</time></trkpt><trkpt lat="39.1455362" lon="-2.8400608"><ele>719.0</ele><time>2026-04-19T09:07:02.373Z</time></trkpt><trkpt lat="39.1453027" lon="-2.8400779"><ele>719.5</ele><time>2026-04-19T09:07:03.377Z</time></trkpt><trkpt lat="39.1450556" lon="-2.8401147"><ele>720.0</ele><time>2026-04-19T09:07:04.37Z</time></trkpt><trkpt lat="39.1447948" lon="-2.8401676"><ele>721.5</ele><time>2026-04-19T09:07:05.369Z</time></trkpt><trkpt lat="39.1445266" lon="-2.8402309"><ele>723.0</ele><time>2026-04-19T09:07:06.368Z</time></trkpt><trkpt lat="39.1442522" lon="-2.840299"><ele>722.5</ele><time>2026-04-19T09:07:07.374Z</time></trkpt><trkpt lat="39.1439777" lon="-2.8403695"><ele>722.0</ele><time>2026-04-19T09:07:08.373Z</time></trkpt><trkpt lat="39.1437025" lon="-2.8404397"><ele>722.0</ele><time>2026-04-19T09:07:09.377Z</time></trkpt><trkpt lat="39.1434203" lon="-2.8405111"><ele>722.0</ele><time>2026-04-19T09:07:10.376Z</time></trkpt><trkpt lat="39.1431318" lon="-2.8405832"><ele>723.5</ele><time>2026-04-19T09:07:11.373Z</time></trkpt><trkpt lat="39.1428391" lon="-2.840655"><ele>725.0</ele><time>2026-04-19T09:07:12.373Z</time></trkpt><trkpt lat="39.1425429" lon="-2.8407266"><ele>726.0</ele><time>2026-04-19T09:07:13.376Z</time></trkpt><trkpt lat="39.1422487" lon="-2.8407976"><ele>727.0</ele><time>2026-04-19T09:07:14.382Z</time></trkpt><trkpt lat="39.1419586" lon="-2.8408678"><ele>727.0</ele><time>2026-04-19T09:07:15.375Z</time></trkpt><trkpt lat="39.1416744" lon="-2.840937"><ele>727.0</ele><time>2026-04-19T09:07:16.381Z</time></trkpt><trkpt lat="39.1413856" lon="-2.8410092"><ele>726.5</ele><time>2026-04-19T09:07:17.371Z</time></trkpt><trkpt lat="39.1410978" lon="-2.8410808"><ele>726.0</ele><time>2026-04-19T09:07:18.376Z</time></trkpt><trkpt lat="39.1408114" lon="-2.8411544"><ele>725.5</ele><time>2026-04-19T09:07:19.372Z</time></trkpt><trkpt lat="39.1405443" lon="-2.8412271"><ele>725.0</ele><time>2026-04-19T09:07:20.37Z</time></trkpt><trkpt lat="39.1403068" lon="-2.841296"><ele>725.0</ele><time>2026-04-19T09:07:21.367Z</time></trkpt><trkpt lat="39.140098" lon="-2.8413566"><ele>725.0</ele><time>2026-04-19T09:07:22.373Z</time></trkpt><trkpt lat="39.1398883" lon="-2.8414108"><ele>725.0</ele><time>2026-04-19T09:07:23.373Z</time></trkpt><trkpt lat="39.1396614" lon="-2.8414621"><ele>724.5</ele><time>2026-04-19T09:07:24.373Z</time></trkpt><trkpt lat="39.1394146" lon="-2.8415107"><ele>724.0</ele><time>2026-04-19T09:07:25.376Z</time></trkpt><trkpt lat="39.1391493" lon="-2.8415593"><ele>723.0</ele><time>2026-04-19T09:07:26.379Z</time></trkpt><trkpt lat="39.1388719" lon="-2.8416053"><ele>722.0</ele><time>2026-04-19T09:07:27.372Z</time></trkpt><trkpt lat="39.1385805" lon="-2.8416454"><ele>722.0</ele><time>2026-04-19T09:07:28.375Z</time></trkpt><trkpt lat="39.138278" lon="-2.8416836"><ele>722.0</ele><time>2026-04-19T09:07:29.373Z</time></trkpt><trkpt lat="39.1379702" lon="-2.8417231"><ele>722.5</ele><time>2026-04-19T09:07:30.368Z</time></trkpt><trkpt lat="39.1376557" lon="-2.8417654"><ele>723.0</ele><time>2026-04-19T09:07:31.371Z</time></trkpt><trkpt lat="39.1373428" lon="-2.8418066"><ele>723.0</ele><time>2026-04-19T09:07:32.37Z</time></trkpt><trkpt lat="39.1370278" lon="-2.8418488"><ele>723.0</ele><time>2026-04-19T09:07:33.371Z</time></trkpt><trkpt lat="39.136714" lon="-2.8418898"><ele>723.5</ele><time>2026-04-19T09:07:34.369Z</time></trkpt><trkpt lat="39.1363982" lon="-2.8419314"><ele>724.0</ele><time>2026-04-19T09:07:35.368Z</time></trkpt><trkpt lat="39.1361001" lon="-2.8419715"><ele>724.0</ele><time>2026-04-19T09:07:36.365Z</time></trkpt><trkpt lat="39.1358241" lon="-2.8420087"><ele>724.0</ele><time>2026-04-19T09:07:37.37Z</time></trkpt><trkpt lat="39.1355702" lon="-2.8420423"><ele>724.5</ele><time>2026-04-19T09:07:38.367Z</time></trkpt><trkpt lat="39.1353372" lon="-2.8420706"><ele>725.0</ele><time>2026-04-19T09:07:39.374Z</time></trkpt><trkpt lat="39.1350966" lon="-2.8421006"><ele>725.0</ele><time>2026-04-19T09:07:40.367Z</time></trkpt><trkpt lat="39.134839" lon="-2.8421315"><ele>725.0</ele><time>2026-04-19T09:07:41.366Z</time></trkpt><trkpt lat="39.1345666" lon="-2.8421654"><ele>725.0</ele><time>2026-04-19T09:07:42.373Z</time></trkpt><trkpt lat="39.1342816" lon="-2.8422062"><ele>725.0</ele><time>2026-04-19T09:07:43.372Z</time></trkpt><trkpt lat="39.1339878" lon="-2.8422447"><ele>726.5</ele><time>2026-04-19T09:07:44.37Z</time></trkpt><trkpt lat="39.1337115" lon="-2.8422796"><ele>728.0</ele><time>2026-04-19T09:07:45.37Z</time></trkpt><trkpt lat="39.1334652" lon="-2.8423111"><ele>728.0</ele><time>2026-04-19T09:07:46.373Z</time></trkpt><trkpt lat="39.1332497" lon="-2.8423428"><ele>728.0</ele><time>2026-04-19T09:07:47.367Z</time></trkpt><trkpt lat="39.1330618" lon="-2.8423749"><ele>728.0</ele><time>2026-04-19T09:07:48.37Z</time></trkpt><trkpt lat="39.1328944" lon="-2.8424135"><ele>728.5</ele><time>2026-04-19T09:07:49.376Z</time></trkpt><trkpt lat="39.1327426" lon="-2.8424585"><ele>729.0</ele><time>2026-04-19T09:07:50.37Z</time></trkpt><trkpt lat="39.1326052" lon="-2.842511"><ele>729.5</ele><time>2026-04-19T09:07:51.368Z</time></trkpt><trkpt lat="39.1324814" lon="-2.8425705"><ele>730.0</ele><time>2026-04-19T09:07:52.368Z</time></trkpt><trkpt lat="39.1323577" lon="-2.8426397"><ele>730.6666666666667</ele><time>2026-04-19T09:07:53.366Z</time></trkpt><trkpt lat="39.1322264" lon="-2.8427142"><ele>731.3333333333334</ele><time>2026-04-19T09:07:54.367Z</time></trkpt><trkpt lat="39.1320871" lon="-2.8427919"><ele>732.0</ele><time>2026-04-19T09:07:55.373Z</time></trkpt><trkpt lat="39.1319413" lon="-2.8428747"><ele>732.0</ele><time>2026-04-19T09:07:56.368Z</time></trkpt><trkpt lat="39.1317893" lon="-2.8429607"><ele>732.0</ele><time>2026-04-19T09:07:57.369Z</time></trkpt><trkpt lat="39.1316325" lon="-2.8430475"><ele>732.0</ele><time>2026-04-19T09:07:58.367Z</time></trkpt><trkpt lat="39.1314677" lon="-2.8431366"><ele>732.3333333333334</ele><time>2026-04-19T09:07:59.377Z</time></trkpt><trkpt lat="39.1312985" lon="-2.8432304"><ele>732.6666666666667</ele><time>2026-04-19T09:08:00.377Z</time></trkpt><trkpt lat="39.1311212" lon="-2.843332"><ele>733.0</ele><time>2026-04-19T09:08:01.367Z</time></trkpt><trkpt lat="39.1309263" lon="-2.8434449"><ele>733.3333333333334</ele><time>2026-04-19T09:08:02.368Z</time></trkpt><trkpt lat="39.1307349" lon="-2.8435617"><ele>733.6666666666666</ele><time>2026-04-19T09:08:03.372Z</time></trkpt><trkpt lat="39.1305605" lon="-2.8436802"><ele>734.0</ele><time>2026-04-19T09:08:04.368Z</time></trkpt><trkpt lat="39.1303947" lon="-2.8438089"><ele>734.3333333333333</ele><time>2026-04-19T09:08:05.372Z</time></trkpt><trkpt lat="39.1302372" lon="-2.8439493"><ele>734.6666666666666</ele><time>2026-04-19T09:08:06.373Z</time></trkpt><trkpt lat="39.1300849" lon="-2.8440959"><ele>735.0</ele><time>2026-04-19T09:08:07.366Z</time></trkpt><trkpt lat="39.1299382" lon="-2.8442429"><ele>735.0</ele><time>2026-04-19T09:08:08.376Z</time></trkpt><trkpt lat="39.1297916" lon="-2.8444029"><ele>735.0</ele><time>2026-04-19T09:08:09.375Z</time></trkpt><trkpt lat="39.1296457" lon="-2.8445888"><ele>735.0</ele><time>2026-04-19T09:08:10.367Z</time></trkpt><trkpt lat="39.1294995" lon="-2.8448059"><ele>735.0</ele><time>2026-04-19T09:08:11.376Z</time></trkpt><trkpt lat="39.1293592" lon="-2.845021"><ele>735.0</ele><time>2026-04-19T09:08:12.375Z</time></trkpt><trkpt lat="39.1292269" lon="-2.8452141"><ele>735.0</ele><time>2026-04-19T09:08:13.375Z</time></trkpt><trkpt lat="39.1291026" lon="-2.8453884"><ele>735.25</ele><time>2026-04-19T09:08:14.365Z</time></trkpt><trkpt lat="39.1289862" lon="-2.845534"><ele>735.5</ele><time>2026-04-19T09:08:15.375Z</time></trkpt><trkpt lat="39.1288754" lon="-2.8456495"><ele>735.75</ele><time>2026-04-19T09:08:16.379Z</time></trkpt><trkpt lat="39.1287572" lon="-2.8457433"><ele>736.0</ele><time>2026-04-19T09:08:17.366Z</time></trkpt><trkpt lat="39.1286254" lon="-2.8458141"><ele>736.0</ele><time>2026-04-19T09:08:18.37Z</time></trkpt><trkpt lat="39.1284966" lon="-2.8458591"><ele>736.0</ele><time>2026-04-19T09:08:19.372Z</time></trkpt><trkpt lat="39.1283761" lon="-2.8458865"><ele>736.0</ele><time>2026-04-19T09:08:20.37Z</time></trkpt><trkpt lat="39.1282708" lon="-2.845908"><ele>736.0</ele><time>2026-04-19T09:08:21.377Z</time></trkpt><trkpt lat="39.1281825" lon="-2.8459314"><ele>736.1999999999999</ele><time>2026-04-19T09:08:22.369Z</time></trkpt><trkpt lat="39.1281097" lon="-2.8459541"><ele>736.4</ele><time>2026-04-19T09:08:23.373Z</time></trkpt><trkpt lat="39.1279961" lon="-2.8459836"><ele>736.6</ele><time>2026-04-19T09:08:25.37Z</time></trkpt><trkpt lat="39.1279199" lon="-2.8459776"><ele>736.8</ele><time>2026-04-19T09:08:27.371Z</time></trkpt><trkpt lat="39.1278239" lon="-2.8459193"><ele>737.0</ele><time>2026-04-19T09:08:49.375Z</time></trkpt><trkpt lat="39.1277542" lon="-2.8457871"><ele>737.0</ele><time>2026-04-19T09:08:51.377Z</time></trkpt><trkpt lat="39.1276777" lon="-2.8457754"><ele>737.0</ele><time>2026-04-19T09:08:53.371Z</time></trkpt><trkpt lat="39.1276008" lon="-2.8458713"><ele>737.0</ele><time>2026-04-19T09:09:09.375Z</time></trkpt><trkpt lat="39.1275114" lon="-2.8459513"><ele>737.0</ele><time>2026-04-19T09:09:11.375Z</time></trkpt><trkpt lat="39.127448" lon="-2.8459833"><ele>737.0</ele><time>2026-04-19T09:09:12.377Z</time></trkpt><trkpt lat="39.1273619" lon="-2.846025"><ele>736.6</ele><time>2026-04-19T09:09:13.367Z</time></trkpt><trkpt lat="39.1272703" lon="-2.8460682"><ele>736.2</ele><time>2026-04-19T09:09:14.375Z</time></trkpt><trkpt lat="39.127166" lon="-2.8461179"><ele>735.8</ele><time>2026-04-19T09:09:15.376Z</time></trkpt><trkpt lat="39.1270689" lon="-2.8461804"><ele>735.4</ele><time>2026-04-19T09:09:16.373Z</time></trkpt><trkpt lat="39.1269664" lon="-2.8462553"><ele>735.0</ele><time>2026-04-19T09:09:17.374Z</time></trkpt><trkpt lat="39.1268525" lon="-2.8463418"><ele>735.0</ele><time>2026-04-19T09:09:18.37Z</time></trkpt><trkpt lat="39.1267286" lon="-2.8464265"><ele>735.0</ele><time>2026-04-19T09:09:19.374Z</time></trkpt><trkpt lat="39.1266026" lon="-2.8465009"><ele>735.0</ele><time>2026-04-19T09:09:20.381Z</time></trkpt><trkpt lat="39.1264634" lon="-2.8465621"><ele>735.0</ele><time>2026-04-19T09:09:21.371Z</time></trkpt><trkpt lat="39.126323" lon="-2.8466162"><ele>735.25</ele><time>2026-04-19T09:09:22.376Z</time></trkpt><trkpt lat="39.1261831" lon="-2.8466532"><ele>735.5</ele><time>2026-04-19T09:09:23.37Z</time></trkpt><trkpt lat="39.1260523" lon="-2.8466891"><ele>735.75</ele><time>2026-04-19T09:09:24.375Z</time></trkpt><trkpt lat="39.1259128" lon="-2.8467224"><ele>736.0</ele><time>2026-04-19T09:09:25.367Z</time></trkpt><trkpt lat="39.1257615" lon="-2.8467506"><ele>736.0</ele><time>2026-04-19T09:09:26.375Z</time></trkpt><trkpt lat="39.1256146" lon="-2.8467791"><ele>736.0</ele><time>2026-04-19T09:09:27.369Z</time></trkpt><trkpt lat="39.1254645" lon="-2.8468062"><ele>736.0</ele><time>2026-04-19T09:09:28.375Z</time></trkpt><trkpt lat="39.1253103" lon="-2.8468348"><ele>736.3333333333334</ele><time>2026-04-19T09:09:29.375Z</time></trkpt><trkpt lat="39.1251502" lon="-2.8468667"><ele>736.6666666666666</ele><time>2026-04-19T09:09:30.378Z</time></trkpt><trkpt lat="39.1249867" lon="-2.846904"><ele>737.0</ele><time>2026-04-19T09:09:31.375Z</time></trkpt><trkpt lat="39.1248209" lon="-2.8469413"><ele>737.0</ele><time>2026-04-19T09:09:32.369Z</time></trkpt><trkpt lat="39.1246554" lon="-2.8469796"><ele>737.0</ele><time>2026-04-19T09:09:33.376Z</time></trkpt><trkpt lat="39.1244897" lon="-2.8470188"><ele>737.0</ele><time>2026-04-19T09:09:34.373Z</time></trkpt><trkpt lat="39.1243208" lon="-2.8470539"><ele>737.0</ele><time>2026-04-19T09:09:35.373Z</time></trkpt><trkpt lat="39.1241507" lon="-2.8470848"><ele>737.0</ele><time>2026-04-19T09:09:36.37Z</time></trkpt><trkpt lat="39.1239824" lon="-2.8471133"><ele>737.0</ele><time>2026-04-19T09:09:37.37Z</time></trkpt><trkpt lat="39.1238144" lon="-2.8471257"><ele>737.6666666666666</ele><time>2026-04-19T09:09:38.372Z</time></trkpt><trkpt lat="39.1236445" lon="-2.8471167"><ele>738.3333333333334</ele><time>2026-04-19T09:09:39.367Z</time></trkpt><trkpt lat="39.1234686" lon="-2.8470894"><ele>739.0</ele><time>2026-04-19T09:09:40.369Z</time></trkpt><trkpt lat="39.1232859" lon="-2.8470472"><ele>739.3333333333334</ele><time>2026-04-19T09:09:41.368Z</time></trkpt><trkpt lat="39.1230966" lon="-2.8470012"><ele>739.6666666666666</ele><time>2026-04-19T09:09:42.367Z</time></trkpt><trkpt lat="39.1229024" lon="-2.8469592"><ele>740.0</ele><time>2026-04-19T09:09:43.373Z</time></trkpt><trkpt lat="39.122708" lon="-2.8469141"><ele>740.0</ele><time>2026-04-19T09:09:44.374Z</time></trkpt><trkpt lat="39.1225074" lon="-2.8468679"><ele>740.0</ele><time>2026-04-19T09:09:45.373Z</time></trkpt><trkpt lat="39.1223055" lon="-2.8468187"><ele>740.0</ele><time>2026-04-19T09:09:46.379Z</time></trkpt><trkpt lat="39.1221054" lon="-2.8467625"><ele>740.3333333333333</ele><time>2026-04-19T09:09:47.382Z</time></trkpt><trkpt lat="39.1219058" lon="-2.8466989"><ele>740.6666666666666</ele><time>2026-04-19T09:09:48.373Z</time></trkpt><trkpt lat="39.121707" lon="-2.846631"><ele>741.0</ele><time>2026-04-19T09:09:49.375Z</time></trkpt><trkpt lat="39.121513" lon="-2.8465522"><ele>741.3333333333334</ele><time>2026-04-19T09:09:50.369Z</time></trkpt><trkpt lat="39.1213226" lon="-2.8464624"><ele>741.6666666666667</ele><time>2026-04-19T09:09:51.365Z</time></trkpt><trkpt lat="39.1211383" lon="-2.8463686"><ele>742.0</ele><time>2026-04-19T09:09:52.375Z</time></trkpt><trkpt lat="39.12096" lon="-2.8462762"><ele>742.0</ele><time>2026-04-19T09:09:53.372Z</time></trkpt><trkpt lat="39.1207857" lon="-2.846188"><ele>742.0</ele><time>2026-04-19T09:09:54.379Z</time></trkpt><trkpt lat="39.1206155" lon="-2.8461073"><ele>742.0</ele><time>2026-04-19T09:09:55.371Z</time></trkpt><trkpt lat="39.1204497" lon="-2.8460292"><ele>742.3333333333334</ele><time>2026-04-19T09:09:56.38Z</time></trkpt><trkpt lat="39.1202833" lon="-2.8459478"><ele>742.6666666666666</ele><time>2026-04-19T09:09:57.371Z</time></trkpt><trkpt lat="39.1201126" lon="-2.8458624"><ele>743.0</ele><time>2026-04-19T09:09:58.383Z</time></trkpt><trkpt lat="39.1199391" lon="-2.8457774"><ele>743.3333333333333</ele><time>2026-04-19T09:09:59.367Z</time></trkpt><trkpt lat="39.1197609" lon="-2.8456919"><ele>743.6666666666666</ele><time>2026-04-19T09:10:00.383Z</time></trkpt><trkpt lat="39.1195765" lon="-2.8456009"><ele>744.0</ele><time>2026-04-19T09:10:01.37Z</time></trkpt><trkpt lat="39.1193947" lon="-2.8455089"><ele>744.0</ele><time>2026-04-19T09:10:02.372Z</time></trkpt><trkpt lat="39.1192142" lon="-2.8454166"><ele>744.0</ele><time>2026-04-19T09:10:03.371Z</time></trkpt><trkpt lat="39.1190329" lon="-2.8453226"><ele>744.0</ele><time>2026-04-19T09:10:04.37Z</time></trkpt><trkpt lat="39.1188475" lon="-2.8452277"><ele>744.3333333333334</ele><time>2026-04-19T09:10:05.371Z</time></trkpt><trkpt lat="39.1186583" lon="-2.8451281"><ele>744.6666666666667</ele><time>2026-04-19T09:10:06.378Z</time></trkpt><trkpt lat="39.1184652" lon="-2.8450259"><ele>745.0</ele><time>2026-04-19T09:10:07.371Z</time></trkpt><trkpt lat="39.118268" lon="-2.8449261"><ele>745.6666666666667</ele><time>2026-04-19T09:10:08.38Z</time></trkpt><trkpt lat="39.1180683" lon="-2.8448287"><ele>746.3333333333334</ele><time>2026-04-19T09:10:09.372Z</time></trkpt><trkpt lat="39.1178686" lon="-2.8447334"><ele>747.0</ele><time>2026-04-19T09:10:10.372Z</time></trkpt><trkpt lat="39.1176651" lon="-2.8446337"><ele>747.0</ele><time>2026-04-19T09:10:11.369Z</time></trkpt><trkpt lat="39.1174714" lon="-2.8445357"><ele>747.0</ele><time>2026-04-19T09:10:12.374Z</time></trkpt><trkpt lat="39.1172966" lon="-2.8444517"><ele>747.0</ele><time>2026-04-19T09:10:13.371Z</time></trkpt><trkpt lat="39.1171402" lon="-2.8443886"><ele>747.75</ele><time>2026-04-19T09:10:14.37Z</time></trkpt><trkpt lat="39.1170012" lon="-2.8443467"><ele>748.5</ele><time>2026-04-19T09:10:15.368Z</time></trkpt><trkpt lat="39.1168745" lon="-2.8443221"><ele>749.25</ele><time>2026-04-19T09:10:16.375Z</time></trkpt><trkpt lat="39.1167471" lon="-2.8443117"><ele>750.0</ele><time>2026-04-19T09:10:17.37Z</time></trkpt><trkpt lat="39.1166174" lon="-2.8443103"><ele>750.25</ele><time>2026-04-19T09:10:18.378Z</time></trkpt><trkpt lat="39.1164862" lon="-2.8443099"><ele>750.5</ele><time>2026-04-19T09:10:19.371Z</time></trkpt><trkpt lat="39.1163516" lon="-2.8443113"><ele>750.75</ele><time>2026-04-19T09:10:20.369Z</time></trkpt><trkpt lat="39.1162064" lon="-2.8443149"><ele>751.0</ele><time>2026-04-19T09:10:21.374Z</time></trkpt><trkpt lat="39.1160497" lon="-2.8443162"><ele>751.0</ele><time>2026-04-19T09:10:22.371Z</time></trkpt><trkpt lat="39.1158788" lon="-2.8443119"><ele>751.0</ele><time>2026-04-19T09:10:23.369Z</time></trkpt><trkpt lat="39.1156978" lon="-2.8442951"><ele>751.0</ele><time>2026-04-19T09:10:24.367Z</time></trkpt><trkpt lat="39.1155226" lon="-2.8442637"><ele>750.0</ele><time>2026-04-19T09:10:25.37Z</time></trkpt><trkpt lat="39.1153431" lon="-2.8442173"><ele>749.0</ele><time>2026-04-19T09:10:26.376Z</time></trkpt><trkpt lat="39.1151631" lon="-2.8441692"><ele>748.0</ele><time>2026-04-19T09:10:27.369Z</time></trkpt><trkpt lat="39.1149794" lon="-2.8441222"><ele>748.3333333333334</ele><time>2026-04-19T09:10:28.373Z</time></trkpt><trkpt lat="39.1147873" lon="-2.8440751"><ele>748.6666666666666</ele><time>2026-04-19T09:10:29.373Z</time></trkpt><trkpt lat="39.1145925" lon="-2.8440244"><ele>749.0</ele><time>2026-04-19T09:10:30.372Z</time></trkpt><trkpt lat="39.1143977" lon="-2.8439715"><ele>749.0</ele><time>2026-04-19T09:10:31.378Z</time></trkpt><trkpt lat="39.1142129" lon="-2.8439187"><ele>749.0</ele><time>2026-04-19T09:10:32.375Z</time></trkpt><trkpt lat="39.1140378" lon="-2.8438706"><ele>749.0</ele><time>2026-04-19T09:10:33.376Z</time></trkpt><trkpt lat="39.1138726" lon="-2.8438243"><ele>749.3333333333333</ele><time>2026-04-19T09:10:34.372Z</time></trkpt><trkpt lat="39.1137129" lon="-2.8437791"><ele>749.6666666666666</ele><time>2026-04-19T09:10:35.376Z</time></trkpt><trkpt lat="39.1135542" lon="-2.843736"><ele>750.0</ele><time>2026-04-19T09:10:36.38Z</time></trkpt><trkpt lat="39.1133974" lon="-2.8436911"><ele>750.0</ele><time>2026-04-19T09:10:37.37Z</time></trkpt><trkpt lat="39.1132392" lon="-2.8436429"><ele>750.0</ele><time>2026-04-19T09:10:38.373Z</time></trkpt><trkpt lat="39.1130825" lon="-2.8435967"><ele>750.0</ele><time>2026-04-19T09:10:39.381Z</time></trkpt><trkpt lat="39.1129244" lon="-2.8435489"><ele>750.6666666666666</ele><time>2026-04-19T09:10:40.362Z</time></trkpt><trkpt lat="39.1127712" lon="-2.8434946"><ele>751.3333333333333</ele><time>2026-04-19T09:10:41.378Z</time></trkpt><trkpt lat="39.112622" lon="-2.8434276"><ele>752.0</ele><time>2026-04-19T09:10:42.375Z</time></trkpt><trkpt lat="39.1124732" lon="-2.8433497"><ele>752.3333333333333</ele><time>2026-04-19T09:10:43.373Z</time></trkpt><trkpt lat="39.1123244" lon="-2.8432641"><ele>752.6666666666666</ele><time>2026-04-19T09:10:44.384Z</time></trkpt><trkpt lat="39.1121787" lon="-2.843174"><ele>753.0</ele><time>2026-04-19T09:10:45.378Z</time></trkpt><trkpt lat="39.1120351" lon="-2.8430792"><ele>753.0</ele><time>2026-04-19T09:10:46.378Z</time></trkpt><trkpt lat="39.1118912" lon="-2.8429798"><ele>753.0</ele><time>2026-04-19T09:10:47.376Z</time></trkpt><trkpt lat="39.1117447" lon="-2.8428793"><ele>753.0</ele><time>2026-04-19T09:10:48.37Z</time></trkpt><trkpt lat="39.1115984" lon="-2.8427767"><ele>753.0</ele><time>2026-04-19T09:10:49.371Z</time></trkpt><trkpt lat="39.1114507" lon="-2.8426724"><ele>753.0</ele><time>2026-04-19T09:10:50.379Z</time></trkpt><trkpt lat="39.1113" lon="-2.8425672"><ele>753.0</ele><time>2026-04-19T09:10:51.369Z</time></trkpt><trkpt lat="39.1111471" lon="-2.8424637"><ele>753.0</ele><time>2026-04-19T09:10:52.37Z</time></trkpt><trkpt lat="39.1109952" lon="-2.8423595"><ele>753.0</ele><time>2026-04-19T09:10:53.366Z</time></trkpt><trkpt lat="39.1108472" lon="-2.8422534"><ele>753.0</ele><time>2026-04-19T09:10:54.371Z</time></trkpt><trkpt lat="39.1106975" lon="-2.8421471"><ele>753.6666666666666</ele><time>2026-04-19T09:10:55.37Z</time></trkpt><trkpt lat="39.1105469" lon="-2.8420422"><ele>754.3333333333333</ele><time>2026-04-19T09:10:56.375Z</time></trkpt><trkpt lat="39.1103986" lon="-2.841943"><ele>755.0</ele><time>2026-04-19T09:10:57.37Z</time></trkpt><trkpt lat="39.1102488" lon="-2.8418496"><ele>754.6666666666666</ele><time>2026-04-19T09:10:58.373Z</time></trkpt><trkpt lat="39.1100929" lon="-2.841765"><ele>754.3333333333334</ele><time>2026-04-19T09:10:59.376Z</time></trkpt><trkpt lat="39.1099376" lon="-2.8417013"><ele>754.0</ele><time>2026-04-19T09:11:00.374Z</time></trkpt><trkpt lat="39.1097801" lon="-2.8416597"><ele>755.0</ele><time>2026-04-19T09:11:01.377Z</time></trkpt><trkpt lat="39.1096186" lon="-2.8416324"><ele>756.0</ele><time>2026-04-19T09:11:02.373Z</time></trkpt><trkpt lat="39.1094509" lon="-2.8416104"><ele>757.0</ele><time>2026-04-19T09:11:03.384Z</time></trkpt><trkpt lat="39.1092788" lon="-2.8415885"><ele>757.0</ele><time>2026-04-19T09:11:04.373Z</time></trkpt><trkpt lat="39.1091033" lon="-2.8415662"><ele>757.0</ele><time>2026-04-19T09:11:05.38Z</time></trkpt><trkpt lat="39.1089259" lon="-2.8415392"><ele>757.0</ele><time>2026-04-19T09:11:06.378Z</time></trkpt><trkpt lat="39.1087418" lon="-2.8415078"><ele>757.0</ele><time>2026-04-19T09:11:07.378Z</time></trkpt><trkpt lat="39.1085489" lon="-2.8414781"><ele>757.0</ele><time>2026-04-19T09:11:08.38Z</time></trkpt><trkpt lat="39.1083509" lon="-2.8414466"><ele>757.0</ele><time>2026-04-19T09:11:09.372Z</time></trkpt><trkpt lat="39.1081455" lon="-2.8414124"><ele>757.3333333333334</ele><time>2026-04-19T09:11:10.377Z</time></trkpt><trkpt lat="39.1079347" lon="-2.8413787"><ele>757.6666666666666</ele><time>2026-04-19T09:11:11.366Z</time></trkpt><trkpt lat="39.107732" lon="-2.8413448"><ele>758.0</ele><time>2026-04-19T09:11:12.377Z</time></trkpt><trkpt lat="39.107544" lon="-2.8413111"><ele>759.0</ele><time>2026-04-19T09:11:13.383Z</time></trkpt><trkpt lat="39.1073724" lon="-2.8412896"><ele>760.0</ele><time>2026-04-19T09:11:14.375Z</time></trkpt><trkpt lat="39.1072056" lon="-2.8412896"><ele>761.0</ele><time>2026-04-19T09:11:15.377Z</time></trkpt><trkpt lat="39.1070261" lon="-2.8413095"><ele>761.0</ele><time>2026-04-19T09:11:16.374Z</time></trkpt><trkpt lat="39.1068354" lon="-2.8413465"><ele>761.0</ele><time>2026-04-19T09:11:17.371Z</time></trkpt><trkpt lat="39.1066419" lon="-2.8413922"><ele>761.0</ele><time>2026-04-19T09:11:18.371Z</time></trkpt><trkpt lat="39.1064383" lon="-2.8414402"><ele>761.3333333333333</ele><time>2026-04-19T09:11:19.371Z</time></trkpt><trkpt lat="39.1062292" lon="-2.8414969"><ele>761.6666666666666</ele><time>2026-04-19T09:11:20.371Z</time></trkpt><trkpt lat="39.1060163" lon="-2.8415606"><ele>762.0</ele><time>2026-04-19T09:11:21.376Z</time></trkpt><trkpt lat="39.1058005" lon="-2.8416249"><ele>761.6666666666666</ele><time>2026-04-19T09:11:22.397Z</time></trkpt><trkpt lat="39.1055874" lon="-2.8416833"><ele>761.3333333333333</ele><time>2026-04-19T09:11:23.377Z</time></trkpt><trkpt lat="39.1053754" lon="-2.8417336"><ele>761.0</ele><time>2026-04-19T09:11:24.383Z</time></trkpt><trkpt lat="39.1051694" lon="-2.8417823"><ele>762.0</ele><time>2026-04-19T09:11:25.383Z</time></trkpt><trkpt lat="39.1049727" lon="-2.8418331"><ele>763.0</ele><time>2026-04-19T09:11:26.388Z</time></trkpt><trkpt lat="39.1047792" lon="-2.8418858"><ele>764.0</ele><time>2026-04-19T09:11:27.373Z</time></trkpt><trkpt lat="39.1045844" lon="-2.8419356"><ele>764.0</ele><time>2026-04-19T09:11:28.383Z</time></trkpt><trkpt lat="39.1043862" lon="-2.8419681"><ele>764.0</ele><time>2026-04-19T09:11:29.377Z</time></trkpt><trkpt lat="39.1041774" lon="-2.8419803"><ele>764.0</ele><time>2026-04-19T09:11:30.374Z</time></trkpt><trkpt lat="39.1039705" lon="-2.8419732"><ele>764.6666666666666</ele><time>2026-04-19T09:11:31.373Z</time></trkpt><trkpt lat="39.1037682" lon="-2.8419493"><ele>765.3333333333334</ele><time>2026-04-19T09:11:32.371Z</time></trkpt><trkpt lat="39.1035613" lon="-2.8419169"><ele>766.0</ele><time>2026-04-19T09:11:33.368Z</time></trkpt><trkpt lat="39.1033556" lon="-2.8418981"><ele>767.0</ele><time>2026-04-19T09:11:34.374Z</time></trkpt><trkpt lat="39.1031525" lon="-2.8418979"><ele>768.0</ele><time>2026-04-19T09:11:35.373Z</time></trkpt><trkpt lat="39.102951" lon="-2.8419042"><ele>769.0</ele><time>2026-04-19T09:11:36.381Z</time></trkpt><trkpt lat="39.102752" lon="-2.8419203"><ele>769.0</ele><time>2026-04-19T09:11:37.372Z</time></trkpt><trkpt lat="39.102554" lon="-2.8419458"><ele>769.0</ele><time>2026-04-19T09:11:38.366Z</time></trkpt><trkpt lat="39.1023561" lon="-2.8419729"><ele>769.0</ele><time>2026-04-19T09:11:39.37Z</time></trkpt><trkpt lat="39.1021684" lon="-2.8419947"><ele>769.0</ele><time>2026-04-19T09:11:40.365Z</time></trkpt><trkpt lat="39.1019832" lon="-2.8420187"><ele>769.0</ele><time>2026-04-19T09:11:41.37Z</time></trkpt><trkpt lat="39.1018096" lon="-2.842036"><ele>769.0</ele><time>2026-04-19T09:11:42.366Z</time></trkpt><trkpt lat="39.101631" lon="-2.8420565"><ele>769.0</ele><time>2026-04-19T09:11:43.374Z</time></trkpt><trkpt lat="39.1014551" lon="-2.8420752"><ele>769.0</ele><time>2026-04-19T09:11:44.367Z</time></trkpt><trkpt lat="39.1012782" lon="-2.8420939"><ele>769.0</ele><time>2026-04-19T09:11:45.369Z</time></trkpt><trkpt lat="39.1011011" lon="-2.842134"><ele>769.0</ele><time>2026-04-19T09:11:46.373Z</time></trkpt><trkpt lat="39.1009155" lon="-2.8421975"><ele>769.0</ele><time>2026-04-19T09:11:47.375Z</time></trkpt><trkpt lat="39.1007231" lon="-2.8422647"><ele>769.0</ele><time>2026-04-19T09:11:48.365Z</time></trkpt><trkpt lat="39.1005144" lon="-2.8423232"><ele>769.3333333333333</ele><time>2026-04-19T09:11:49.365Z</time></trkpt><trkpt lat="39.1002944" lon="-2.8423638"><ele>769.6666666666667</ele><time>2026-04-19T09:11:50.369Z</time></trkpt><trkpt lat="39.1000776" lon="-2.8423959"><ele>770.0</ele><time>2026-04-19T09:11:51.369Z</time></trkpt><trkpt lat="39.0998721" lon="-2.8424344"><ele>770.3333333333334</ele><time>2026-04-19T09:11:52.367Z</time></trkpt><trkpt lat="39.0996828" lon="-2.8424927"><ele>770.6666666666667</ele><time>2026-04-19T09:11:53.367Z</time></trkpt><trkpt lat="39.0995036" lon="-2.842565"><ele>771.0</ele><time>2026-04-19T09:11:54.371Z</time></trkpt><trkpt lat="39.0993304" lon="-2.8426386"><ele>772.0</ele><time>2026-04-19T09:11:55.371Z</time></trkpt><trkpt lat="39.0991525" lon="-2.842698"><ele>773.0</ele><time>2026-04-19T09:11:56.367Z</time></trkpt><trkpt lat="39.0989643" lon="-2.8427402"><ele>774.0</ele><time>2026-04-19T09:11:57.369Z</time></trkpt><trkpt lat="39.0987733" lon="-2.842776"><ele>774.3333333333333</ele><time>2026-04-19T09:11:58.372Z</time></trkpt><trkpt lat="39.098584" lon="-2.8428119"><ele>774.6666666666666</ele><time>2026-04-19T09:11:59.374Z</time></trkpt><trkpt lat="39.098399" lon="-2.842843"><ele>775.0</ele><time>2026-04-19T09:12:00.371Z</time></trkpt><trkpt lat="39.0982226" lon="-2.8428711"><ele>775.3333333333333</ele><time>2026-04-19T09:12:01.377Z</time></trkpt><trkpt lat="39.098058" lon="-2.8428975"><ele>775.6666666666667</ele><time>2026-04-19T09:12:02.376Z</time></trkpt><trkpt lat="39.0979026" lon="-2.8429321"><ele>776.0</ele><time>2026-04-19T09:12:03.37Z</time></trkpt><trkpt lat="39.0977586" lon="-2.842962"><ele>776.0</ele><time>2026-04-19T09:12:04.373Z</time></trkpt><trkpt lat="39.097624" lon="-2.8429901"><ele>776.0</ele><time>2026-04-19T09:12:05.366Z</time></trkpt><trkpt lat="39.0975034" lon="-2.8430146"><ele>776.0</ele><time>2026-04-19T09:12:06.371Z</time></trkpt><trkpt lat="39.0973961" lon="-2.8430363"><ele>776.0</ele><time>2026-04-19T09:12:07.365Z</time></trkpt><trkpt lat="39.097298" lon="-2.8430565"><ele>776.0</ele><time>2026-04-19T09:12:08.371Z</time></trkpt><trkpt lat="39.0971995" lon="-2.8430798"><ele>776.0</ele><time>2026-04-19T09:12:09.368Z</time></trkpt><trkpt lat="39.0970863" lon="-2.8431071"><ele>776.0</ele><time>2026-04-19T09:12:10.378Z</time></trkpt><trkpt lat="39.0969568" lon="-2.843139"><ele>776.0</ele><time>2026-04-19T09:12:11.37Z</time></trkpt><trkpt lat="39.0968088" lon="-2.8431716"><ele>776.0</ele><time>2026-04-19T09:12:12.37Z</time></trkpt><trkpt lat="39.0966485" lon="-2.8432036"><ele>776.0</ele><time>2026-04-19T09:12:13.376Z</time></trkpt><trkpt lat="39.0964868" lon="-2.8432335"><ele>776.0</ele><time>2026-04-19T09:12:14.372Z</time></trkpt><trkpt lat="39.0963213" lon="-2.8432667"><ele>775.3333333333334</ele><time>2026-04-19T09:12:15.375Z</time></trkpt><trkpt lat="39.0961524" lon="-2.8432994"><ele>774.6666666666667</ele><time>2026-04-19T09:12:16.382Z</time></trkpt><trkpt lat="39.0959906" lon="-2.8433252"><ele>774.0</ele><time>2026-04-19T09:12:17.376Z</time></trkpt><trkpt lat="39.0958358" lon="-2.8433407"><ele>774.0</ele><time>2026-04-19T09:12:18.378Z</time></trkpt><trkpt lat="39.0956912" lon="-2.8433527"><ele>774.0</ele><time>2026-04-19T09:12:19.374Z</time></trkpt><trkpt lat="39.0955562" lon="-2.8433784"><ele>774.0</ele><time>2026-04-19T09:12:20.375Z</time></trkpt><trkpt lat="39.0954173" lon="-2.8434272"><ele>774.0</ele><time>2026-04-19T09:12:21.381Z</time></trkpt><trkpt lat="39.0952665" lon="-2.8434933"><ele>775.0</ele><time>2026-04-19T09:12:22.376Z</time></trkpt><trkpt lat="39.0951028" lon="-2.8435684"><ele>776.0</ele><time>2026-04-19T09:12:23.372Z</time></trkpt><trkpt lat="39.0949238" lon="-2.8436439"><ele>777.0</ele><time>2026-04-19T09:12:24.376Z</time></trkpt><trkpt lat="39.0947421" lon="-2.8437111"><ele>777.0</ele><time>2026-04-19T09:12:25.371Z</time></trkpt><trkpt lat="39.0945462" lon="-2.8437721"><ele>777.0</ele><time>2026-04-19T09:12:26.372Z</time></trkpt><trkpt lat="39.0943606" lon="-2.8438243"><ele>777.0</ele><time>2026-04-19T09:12:27.373Z</time></trkpt><trkpt lat="39.0941937" lon="-2.8438812"><ele>777.0</ele><time>2026-04-19T09:12:28.377Z</time></trkpt><trkpt lat="39.0940304" lon="-2.8439468"><ele>777.0</ele><time>2026-04-19T09:12:29.378Z</time></trkpt><trkpt lat="39.0938531" lon="-2.8440215"><ele>777.0</ele><time>2026-04-19T09:12:30.367Z</time></trkpt><trkpt lat="39.0936656" lon="-2.8441014"><ele>777.0</ele><time>2026-04-19T09:12:31.374Z</time></trkpt><trkpt lat="39.0934764" lon="-2.8441639"><ele>777.0</ele><time>2026-04-19T09:12:32.37Z</time></trkpt><trkpt lat="39.0933096" lon="-2.8441975"><ele>777.0</ele><time>2026-04-19T09:12:33.379Z</time></trkpt><trkpt lat="39.0931568" lon="-2.8442295"><ele>777.0</ele><time>2026-04-19T09:12:34.379Z</time></trkpt><trkpt lat="39.0930158" lon="-2.8442704"><ele>777.0</ele><time>2026-04-19T09:12:35.374Z</time></trkpt><trkpt lat="39.092879" lon="-2.8443208"><ele>777.0</ele><time>2026-04-19T09:12:36.37Z</time></trkpt><trkpt lat="39.0927428" lon="-2.8443718"><ele>777.0</ele><time>2026-04-19T09:12:37.37Z</time></trkpt><trkpt lat="39.0926083" lon="-2.8444165"><ele>777.5</ele><time>2026-04-19T09:12:38.374Z</time></trkpt><trkpt lat="39.092488" lon="-2.844453"><ele>778.0</ele><time>2026-04-19T09:12:39.374Z</time></trkpt><trkpt lat="39.092364" lon="-2.8444893"><ele>778.5</ele><time>2026-04-19T09:12:40.378Z</time></trkpt><trkpt lat="39.0922101" lon="-2.8445345"><ele>779.0</ele><time>2026-04-19T09:12:41.376Z</time></trkpt><trkpt lat="39.0920548" lon="-2.8445813"><ele>779.0</ele><time>2026-04-19T09:12:42.369Z</time></trkpt><trkpt lat="39.0919262" lon="-2.8446199"><ele>779.0</ele><time>2026-04-19T09:12:43.391Z</time></trkpt><trkpt lat="39.0918423" lon="-2.8446501"><ele>779.0</ele><time>2026-04-19T09:12:44.367Z</time></trkpt><trkpt lat="39.091776" lon="-2.8446765"><ele>779.0</ele><time>2026-04-19T09:12:45.369Z</time></trkpt><trkpt lat="39.0916672" lon="-2.8447251"><ele>779.0</ele><time>2026-04-19T09:12:47.37Z</time></trkpt><trkpt lat="39.0915762" lon="-2.8447326"><ele>779.25</ele><time>2026-04-19T09:12:48.37Z</time></trkpt><trkpt lat="39.0914676" lon="-2.8447378"><ele>779.5</ele><time>2026-04-19T09:12:49.371Z</time></trkpt><trkpt lat="39.0913438" lon="-2.844747"><ele>779.75</ele><time>2026-04-19T09:12:50.375Z</time></trkpt><trkpt lat="39.0911919" lon="-2.8447523"><ele>780.0</ele><time>2026-04-19T09:12:51.373Z</time></trkpt><trkpt lat="39.0910342" lon="-2.8447547"><ele>780.0</ele><time>2026-04-19T09:12:52.368Z</time></trkpt><trkpt lat="39.0908616" lon="-2.8447812"><ele>780.0</ele><time>2026-04-19T09:12:53.369Z</time></trkpt><trkpt lat="39.090686" lon="-2.8448373"><ele>780.0</ele><time>2026-04-19T09:12:54.366Z</time></trkpt><trkpt lat="39.0904993" lon="-2.8449253"><ele>779.6666666666667</ele><time>2026-04-19T09:12:55.373Z</time></trkpt><trkpt lat="39.0903171" lon="-2.8450174"><ele>779.3333333333334</ele><time>2026-04-19T09:12:56.368Z</time></trkpt><trkpt lat="39.090143" lon="-2.8450896"><ele>779.0</ele><time>2026-04-19T09:12:57.367Z</time></trkpt><trkpt lat="39.0899847" lon="-2.8451427"><ele>780.0</ele><time>2026-04-19T09:12:58.373Z</time></trkpt><trkpt lat="39.0898509" lon="-2.8451709"><ele>781.0</ele><time>2026-04-19T09:12:59.376Z</time></trkpt><trkpt lat="39.0897126" lon="-2.8451718"><ele>782.0</ele><time>2026-04-19T09:13:00.369Z</time></trkpt><trkpt lat="39.0895585" lon="-2.8451708"><ele>783.0</ele><time>2026-04-19T09:13:01.366Z</time></trkpt><trkpt lat="39.089377" lon="-2.8451626"><ele>783.0</ele><time>2026-04-19T09:13:02.371Z</time></trkpt><trkpt lat="39.0891984" lon="-2.8451686"><ele>783.0</ele><time>2026-04-19T09:13:03.374Z</time></trkpt><trkpt lat="39.0890227" lon="-2.8451711"><ele>783.0</ele><time>2026-04-19T09:13:04.367Z</time></trkpt><trkpt lat="39.0888565" lon="-2.8451714"><ele>782.6666666666667</ele><time>2026-04-19T09:13:05.371Z</time></trkpt><trkpt lat="39.0886953" lon="-2.8451613"><ele>782.3333333333334</ele><time>2026-04-19T09:13:06.371Z</time></trkpt><trkpt lat="39.0885441" lon="-2.8451443"><ele>782.0</ele><time>2026-04-19T09:13:07.375Z</time></trkpt><trkpt lat="39.0883946" lon="-2.8451222"><ele>782.6666666666667</ele><time>2026-04-19T09:13:08.369Z</time></trkpt><trkpt lat="39.0882353" lon="-2.8451087"><ele>783.3333333333333</ele><time>2026-04-19T09:13:09.366Z</time></trkpt><trkpt lat="39.0880767" lon="-2.8451187"><ele>784.0</ele><time>2026-04-19T09:13:10.368Z</time></trkpt><trkpt lat="39.0879106" lon="-2.8451579"><ele>784.3333333333333</ele><time>2026-04-19T09:13:11.372Z</time></trkpt><trkpt lat="39.0877324" lon="-2.8452243"><ele>784.6666666666667</ele><time>2026-04-19T09:13:12.368Z</time></trkpt><trkpt lat="39.0875629" lon="-2.845304"><ele>785.0</ele><time>2026-04-19T09:13:13.378Z</time></trkpt><trkpt lat="39.0874107" lon="-2.8453847"><ele>785.0</ele><time>2026-04-19T09:13:14.363Z</time></trkpt><trkpt lat="39.0872708" lon="-2.8454648"><ele>785.0</ele><time>2026-04-19T09:13:15.37Z</time></trkpt><trkpt lat="39.0871407" lon="-2.8455438"><ele>785.0</ele><time>2026-04-19T09:13:16.373Z</time></trkpt><trkpt lat="39.0870211" lon="-2.8456242"><ele>785.0</ele><time>2026-04-19T09:13:17.376Z</time></trkpt><trkpt lat="39.0868937" lon="-2.845708"><ele>785.0</ele><time>2026-04-19T09:13:18.382Z</time></trkpt><trkpt lat="39.0867637" lon="-2.8458002"><ele>785.0</ele><time>2026-04-19T09:13:19.37Z</time></trkpt><trkpt lat="39.0866352" lon="-2.8459003"><ele>785.0</ele><time>2026-04-19T09:13:20.372Z</time></trkpt><trkpt lat="39.0865192" lon="-2.8459971"><ele>785.0</ele><time>2026-04-19T09:13:21.371Z</time></trkpt><trkpt lat="39.0864053" lon="-2.8460847"><ele>785.0</ele><time>2026-04-19T09:13:22.38Z</time></trkpt><trkpt lat="39.0862767" lon="-2.8461614"><ele>785.0</ele><time>2026-04-19T09:13:23.369Z</time></trkpt><trkpt lat="39.0861507" lon="-2.8462231"><ele>785.0</ele><time>2026-04-19T09:13:24.372Z</time></trkpt><trkpt lat="39.0860379" lon="-2.8462887"><ele>785.0</ele><time>2026-04-19T09:13:25.376Z</time></trkpt><trkpt lat="39.0859294" lon="-2.8463639"><ele>785.0</ele><time>2026-04-19T09:13:26.377Z</time></trkpt><trkpt lat="39.0858129" lon="-2.8464545"><ele>785.0</ele><time>2026-04-19T09:13:27.371Z</time></trkpt><trkpt lat="39.0856898" lon="-2.8465446"><ele>785.0</ele><time>2026-04-19T09:13:28.373Z</time></trkpt><trkpt lat="39.0855516" lon="-2.8466258"><ele>785.0</ele><time>2026-04-19T09:13:29.384Z</time></trkpt><trkpt lat="39.0854097" lon="-2.8467133"><ele>785.5</ele><time>2026-04-19T09:13:30.377Z</time></trkpt><trkpt lat="39.0852775" lon="-2.8468042"><ele>786.0</ele><time>2026-04-19T09:13:31.372Z</time></trkpt><trkpt lat="39.085153" lon="-2.846896"><ele>786.5</ele><time>2026-04-19T09:13:32.372Z</time></trkpt><trkpt lat="39.0850257" lon="-2.8469857"><ele>787.0</ele><time>2026-04-19T09:13:33.377Z</time></trkpt><trkpt lat="39.0848937" lon="-2.8470853"><ele>787.5</ele><time>2026-04-19T09:13:34.374Z</time></trkpt><trkpt lat="39.0847699" lon="-2.8471963"><ele>788.0</ele><time>2026-04-19T09:13:35.374Z</time></trkpt><trkpt lat="39.0846492" lon="-2.8472926"><ele>788.5</ele><time>2026-04-19T09:13:36.381Z</time></trkpt><trkpt lat="39.0845247" lon="-2.8473607"><ele>789.0</ele><time>2026-04-19T09:13:37.374Z</time></trkpt><trkpt lat="39.0843768" lon="-2.8474242"><ele>789.0</ele><time>2026-04-19T09:13:38.376Z</time></trkpt><trkpt lat="39.0842396" lon="-2.8475052"><ele>789.0</ele><time>2026-04-19T09:13:39.37Z</time></trkpt><trkpt lat="39.0841085" lon="-2.8476092"><ele>789.0</ele><time>2026-04-19T09:13:40.376Z</time></trkpt><trkpt lat="39.0839841" lon="-2.8477225"><ele>788.75</ele><time>2026-04-19T09:13:41.371Z</time></trkpt><trkpt lat="39.0838636" lon="-2.8478236"><ele>788.5</ele><time>2026-04-19T09:13:42.373Z</time></trkpt><trkpt lat="39.0837543" lon="-2.8479157"><ele>788.25</ele><time>2026-04-19T09:13:43.376Z</time></trkpt><trkpt lat="39.0836605" lon="-2.8480005"><ele>788.0</ele><time>2026-04-19T09:13:44.372Z</time></trkpt><trkpt lat="39.0835706" lon="-2.8480764"><ele>788.0</ele><time>2026-04-19T09:13:45.376Z</time></trkpt><trkpt lat="39.0834747" lon="-2.8481379"><ele>788.0</ele><time>2026-04-19T09:13:46.368Z</time></trkpt><trkpt lat="39.0833589" lon="-2.8481913"><ele>788.0</ele><time>2026-04-19T09:13:47.365Z</time></trkpt><trkpt lat="39.0832411" lon="-2.8482404"><ele>788.0</ele><time>2026-04-19T09:13:48.367Z</time></trkpt><trkpt lat="39.0831225" lon="-2.848276"><ele>788.0</ele><time>2026-04-19T09:13:49.373Z</time></trkpt><trkpt lat="39.083009" lon="-2.848303"><ele>788.0</ele><time>2026-04-19T09:13:50.374Z</time></trkpt><trkpt lat="39.0828951" lon="-2.8483256"><ele>788.0</ele><time>2026-04-19T09:13:51.365Z</time></trkpt><trkpt lat="39.0827784" lon="-2.8483224"><ele>788.0</ele><time>2026-04-19T09:13:52.381Z</time></trkpt><trkpt lat="39.0826685" lon="-2.8483374"><ele>788.0</ele><time>2026-04-19T09:13:53.375Z</time></trkpt><trkpt lat="39.0825734" lon="-2.8483671"><ele>788.0</ele><time>2026-04-19T09:13:54.366Z</time></trkpt><trkpt lat="39.0824922" lon="-2.848408"><ele>788.0</ele><time>2026-04-19T09:13:55.365Z</time></trkpt><trkpt lat="39.0824027" lon="-2.8484436"><ele>788.0</ele><time>2026-04-19T09:13:56.371Z</time></trkpt><trkpt lat="39.0823133" lon="-2.8484895"><ele>788.0</ele><time>2026-04-19T09:13:57.37Z</time></trkpt><trkpt lat="39.0822185" lon="-2.848554"><ele>788.75</ele><time>2026-04-19T09:13:58.365Z</time></trkpt><trkpt lat="39.0821139" lon="-2.8486384"><ele>789.5</ele><time>2026-04-19T09:13:59.371Z</time></trkpt><trkpt lat="39.0819961" lon="-2.8487301"><ele>790.25</ele><time>2026-04-19T09:14:00.373Z</time></trkpt><trkpt lat="39.0818732" lon="-2.8488244"><ele>791.0</ele><time>2026-04-19T09:14:01.376Z</time></trkpt><trkpt lat="39.0817466" lon="-2.8489233"><ele>791.0</ele><time>2026-04-19T09:14:02.381Z</time></trkpt><trkpt lat="39.0816196" lon="-2.8490177"><ele>791.0</ele><time>2026-04-19T09:14:03.372Z</time></trkpt><trkpt lat="39.0814995" lon="-2.8490918"><ele>791.0</ele><time>2026-04-19T09:14:04.366Z</time></trkpt><trkpt lat="39.0813852" lon="-2.849159"><ele>791.0</ele><time>2026-04-19T09:14:05.373Z</time></trkpt><trkpt lat="39.0812953" lon="-2.8492256"><ele>791.0</ele><time>2026-04-19T09:14:06.372Z</time></trkpt><trkpt lat="39.0812188" lon="-2.8493046"><ele>791.0</ele><time>2026-04-19T09:14:07.369Z</time></trkpt><trkpt lat="39.0811407" lon="-2.8493983"><ele>791.0</ele><time>2026-04-19T09:14:08.374Z</time></trkpt><trkpt lat="39.081072" lon="-2.8494756"><ele>791.0</ele><time>2026-04-19T09:14:09.373Z</time></trkpt><trkpt lat="39.080977" lon="-2.8495334"><ele>791.0</ele><time>2026-04-19T09:14:10.378Z</time></trkpt><trkpt lat="39.0808717" lon="-2.8495733"><ele>791.4</ele><time>2026-04-19T09:14:11.379Z</time></trkpt><trkpt lat="39.0807607" lon="-2.8496314"><ele>791.8</ele><time>2026-04-19T09:14:12.377Z</time></trkpt><trkpt lat="39.0806516" lon="-2.8497011"><ele>792.1999999999999</ele><time>2026-04-19T09:14:13.368Z</time></trkpt><trkpt lat="39.0805534" lon="-2.8497532"><ele>792.5999999999999</ele><time>2026-04-19T09:14:14.382Z</time></trkpt><trkpt lat="39.0804625" lon="-2.8497821"><ele>793.0</ele><time>2026-04-19T09:14:15.372Z</time></trkpt><trkpt lat="39.0803774" lon="-2.8497777"><ele>793.0</ele><time>2026-04-19T09:14:16.38Z</time></trkpt><trkpt lat="39.0802791" lon="-2.849762"><ele>793.0</ele><time>2026-04-19T09:14:17.368Z</time></trkpt><trkpt lat="39.0801698" lon="-2.8497571"><ele>793.0</ele><time>2026-04-19T09:14:18.379Z</time></trkpt><trkpt lat="39.0800533" lon="-2.8497689"><ele>793.0</ele><time>2026-04-19T09:14:19.373Z</time></trkpt><trkpt lat="39.0799253" lon="-2.8497923"><ele>793.0</ele><time>2026-04-19T09:14:20.366Z</time></trkpt><trkpt lat="39.0797886" lon="-2.8498151"><ele>793.0</ele><time>2026-04-19T09:14:21.366Z</time></trkpt><trkpt lat="39.0796447" lon="-2.8498385"><ele>793.0</ele><time>2026-04-19T09:14:22.377Z</time></trkpt><trkpt lat="39.0794997" lon="-2.8498619"><ele>793.0</ele><time>2026-04-19T09:14:23.375Z</time></trkpt><trkpt lat="39.079362" lon="-2.8498798"><ele>793.0</ele><time>2026-04-19T09:14:24.377Z</time></trkpt><trkpt lat="39.0792391" lon="-2.8499014"><ele>793.0</ele><time>2026-04-19T09:14:25.373Z</time></trkpt><trkpt lat="39.0791236" lon="-2.8499482"><ele>793.0</ele><time>2026-04-19T09:14:26.379Z</time></trkpt><trkpt lat="39.0790064" lon="-2.8500017"><ele>793.0</ele><time>2026-04-19T09:14:27.375Z</time></trkpt><trkpt lat="39.0788932" lon="-2.850056"><ele>793.0</ele><time>2026-04-19T09:14:28.37Z</time></trkpt><trkpt lat="39.0787602" lon="-2.8500885"><ele>793.0</ele><time>2026-04-19T09:14:29.374Z</time></trkpt><trkpt lat="39.0786027" lon="-2.8501047"><ele>793.0</ele><time>2026-04-19T09:14:30.381Z</time></trkpt><trkpt lat="39.0784481" lon="-2.8501223"><ele>793.0</ele><time>2026-04-19T09:14:31.37Z</time></trkpt><trkpt lat="39.0783018" lon="-2.8501284"><ele>793.9999999999999</ele><time>2026-04-19T09:14:32.376Z</time></trkpt><trkpt lat="39.0781799" lon="-2.8501277"><ele>795.0</ele><time>2026-04-19T09:14:33.376Z</time></trkpt><trkpt lat="39.0780845" lon="-2.8501326"><ele>796.0</ele><time>2026-04-19T09:14:34.379Z</time></trkpt><trkpt lat="39.0780106" lon="-2.8501517"><ele>797.0</ele><time>2026-04-19T09:14:35.37Z</time></trkpt><trkpt lat="39.0779464" lon="-2.8501876"><ele>797.9999999999999</ele><time>2026-04-19T09:14:36.379Z</time></trkpt><trkpt lat="39.0778744" lon="-2.8502343"><ele>799.0</ele><time>2026-04-19T09:14:37.372Z</time></trkpt><trkpt lat="39.077798" lon="-2.8503019"><ele>799.0</ele><time>2026-04-19T09:14:38.371Z</time></trkpt><trkpt lat="39.0777061" lon="-2.8503582"><ele>799.0</ele><time>2026-04-19T09:14:39.367Z</time></trkpt><trkpt lat="39.0775812" lon="-2.8503749"><ele>799.0</ele><time>2026-04-19T09:14:40.373Z</time></trkpt><trkpt lat="39.0774389" lon="-2.8503877"><ele>799.0</ele><time>2026-04-19T09:14:41.373Z</time></trkpt><trkpt lat="39.0772998" lon="-2.8504058"><ele>799.25</ele><time>2026-04-19T09:14:42.374Z</time></trkpt><trkpt lat="39.0771628" lon="-2.8504356"><ele>799.5</ele><time>2026-04-19T09:14:43.379Z</time></trkpt><trkpt lat="39.0770266" lon="-2.850469"><ele>799.75</ele><time>2026-04-19T09:14:44.365Z</time></trkpt><trkpt lat="39.0768831" lon="-2.8504876"><ele>800.0</ele><time>2026-04-19T09:14:45.359Z</time></trkpt><trkpt lat="39.076734" lon="-2.8505187"><ele>799.75</ele><time>2026-04-19T09:14:46.368Z</time></trkpt><trkpt lat="39.076592" lon="-2.8505539"><ele>799.5</ele><time>2026-04-19T09:14:47.366Z</time></trkpt><trkpt lat="39.0764815" lon="-2.8505835"><ele>799.25</ele><time>2026-04-19T09:14:48.367Z</time></trkpt><trkpt lat="39.076379" lon="-2.8506315"><ele>799.0</ele><time>2026-04-19T09:14:49.367Z</time></trkpt><trkpt lat="39.076297" lon="-2.8506819"><ele>799.0</ele><time>2026-04-19T09:14:50.367Z</time></trkpt><trkpt lat="39.0762107" lon="-2.8507066"><ele>799.0</ele><time>2026-04-19T09:14:51.367Z</time></trkpt><trkpt lat="39.0761034" lon="-2.8506905"><ele>799.0</ele><time>2026-04-19T09:14:52.364Z</time></trkpt><trkpt lat="39.075995" lon="-2.850671"><ele>799.0</ele><time>2026-04-19T09:14:53.366Z</time></trkpt><trkpt lat="39.0758984" lon="-2.8506687"><ele>799.0</ele><time>2026-04-19T09:14:54.366Z</time></trkpt><trkpt lat="39.0758083" lon="-2.8506816"><ele>799.0</ele><time>2026-04-19T09:14:55.369Z</time></trkpt><trkpt lat="39.0757064" lon="-2.850713"><ele>799.0</ele><time>2026-04-19T09:14:56.373Z</time></trkpt><trkpt lat="39.0755932" lon="-2.8507601"><ele>799.0</ele><time>2026-04-19T09:14:57.373Z</time></trkpt><trkpt lat="39.0754793" lon="-2.8508021"><ele>799.0</ele><time>2026-04-19T09:14:58.37Z</time></trkpt><trkpt lat="39.075372" lon="-2.8508634"><ele>799.0</ele><time>2026-04-19T09:14:59.372Z</time></trkpt><trkpt lat="39.0752648" lon="-2.8509487"><ele>799.0</ele><time>2026-04-19T09:15:00.371Z</time></trkpt><trkpt lat="39.0751617" lon="-2.8510544"><ele>799.0</ele><time>2026-04-19T09:15:01.373Z</time></trkpt><trkpt lat="39.0750554" lon="-2.8511675"><ele>799.0</ele><time>2026-04-19T09:15:02.367Z</time></trkpt><trkpt lat="39.0749541" lon="-2.8512727"><ele>799.6</ele><time>2026-04-19T09:15:03.368Z</time></trkpt><trkpt lat="39.0748634" lon="-2.8513521"><ele>800.2</ele><time>2026-04-19T09:15:04.37Z</time></trkpt><trkpt lat="39.0747748" lon="-2.8514235"><ele>800.8000000000001</ele><time>2026-04-19T09:15:05.371Z</time></trkpt><trkpt lat="39.0746865" lon="-2.8514905"><ele>801.4000000000001</ele><time>2026-04-19T09:15:06.368Z</time></trkpt><trkpt lat="39.0745917" lon="-2.8515472"><ele>802.0</ele><time>2026-04-19T09:15:07.375Z</time></trkpt><trkpt lat="39.0744805" lon="-2.8515914"><ele>802.0</ele><time>2026-04-19T09:15:08.371Z</time></trkpt><trkpt lat="39.0743501" lon="-2.851652"><ele>802.0</ele><time>2026-04-19T09:15:09.374Z</time></trkpt><trkpt lat="39.0742052" lon="-2.8517315"><ele>802.0</ele><time>2026-04-19T09:15:10.37Z</time></trkpt><trkpt lat="39.0740563" lon="-2.8518097"><ele>803.3333333333333</ele><time>2026-04-19T09:15:11.368Z</time></trkpt><trkpt lat="39.0739094" lon="-2.851887"><ele>804.6666666666667</ele><time>2026-04-19T09:15:12.374Z</time></trkpt><trkpt lat="39.0737684" lon="-2.851943"><ele>806.0</ele><time>2026-04-19T09:15:13.378Z</time></trkpt><trkpt lat="39.0736244" lon="-2.851986"><ele>806.0</ele><time>2026-04-19T09:15:14.375Z</time></trkpt><trkpt lat="39.0734859" lon="-2.8520394"><ele>806.0</ele><time>2026-04-19T09:15:15.373Z</time></trkpt><trkpt lat="39.0733631" lon="-2.8520958"><ele>806.0</ele><time>2026-04-19T09:15:16.37Z</time></trkpt><trkpt lat="39.0732438" lon="-2.8521437"><ele>806.0</ele><time>2026-04-19T09:15:17.375Z</time></trkpt><trkpt lat="39.0731062" lon="-2.852164"><ele>805.8</ele><time>2026-04-19T09:15:18.372Z</time></trkpt><trkpt lat="39.0729765" lon="-2.8521883"><ele>805.5999999999999</ele><time>2026-04-19T09:15:19.372Z</time></trkpt><trkpt lat="39.0728642" lon="-2.8522076"><ele>805.4</ele><time>2026-04-19T09:15:20.376Z</time></trkpt><trkpt lat="39.072767" lon="-2.8522267"><ele>805.2</ele><time>2026-04-19T09:15:21.363Z</time></trkpt><trkpt lat="39.072677" lon="-2.8522343"><ele>805.0</ele><time>2026-04-19T09:15:22.369Z</time></trkpt><trkpt lat="39.0725896" lon="-2.8522228"><ele>805.0</ele><time>2026-04-19T09:15:23.369Z</time></trkpt><trkpt lat="39.0724862" lon="-2.8522024"><ele>805.0</ele><time>2026-04-19T09:15:24.373Z</time></trkpt><trkpt lat="39.0723824" lon="-2.8521796"><ele>805.0</ele><time>2026-04-19T09:15:25.366Z</time></trkpt><trkpt lat="39.0722663" lon="-2.8521624"><ele>805.0</ele><time>2026-04-19T09:15:26.37Z</time></trkpt><trkpt lat="39.0721338" lon="-2.8521633"><ele>805.0</ele><time>2026-04-19T09:15:27.367Z</time></trkpt><trkpt lat="39.0719872" lon="-2.8521483"><ele>805.0</ele><time>2026-04-19T09:15:28.378Z</time></trkpt><trkpt lat="39.0718342" lon="-2.852142"><ele>805.0</ele><time>2026-04-19T09:15:29.362Z</time></trkpt><trkpt lat="39.0716956" lon="-2.8521415"><ele>805.0</ele><time>2026-04-19T09:15:30.367Z</time></trkpt><trkpt lat="39.0715665" lon="-2.8521289"><ele>805.0</ele><time>2026-04-19T09:15:31.367Z</time></trkpt><trkpt lat="39.0714446" lon="-2.8520991"><ele>805.0</ele><time>2026-04-19T09:15:32.369Z</time></trkpt><trkpt lat="39.0713164" lon="-2.8520742"><ele>805.0</ele><time>2026-04-19T09:15:33.365Z</time></trkpt><trkpt lat="39.0711812" lon="-2.8520667"><ele>805.0</ele><time>2026-04-19T09:15:34.366Z</time></trkpt><trkpt lat="39.0710405" lon="-2.8520715"><ele>805.0</ele><time>2026-04-19T09:15:35.362Z</time></trkpt><trkpt lat="39.070893" lon="-2.852072"><ele>805.0</ele><time>2026-04-19T09:15:36.37Z</time></trkpt><trkpt lat="39.0707421" lon="-2.8520637"><ele>805.0</ele><time>2026-04-19T09:15:37.369Z</time></trkpt><trkpt lat="39.0705861" lon="-2.8520568"><ele>806.0</ele><time>2026-04-19T09:15:38.373Z</time></trkpt><trkpt lat="39.0704323" lon="-2.8520632"><ele>807.0</ele><time>2026-04-19T09:15:39.365Z</time></trkpt><trkpt lat="39.0702723" lon="-2.8520866"><ele>808.0</ele><time>2026-04-19T09:15:40.361Z</time></trkpt><trkpt lat="39.0701114" lon="-2.8521284"><ele>808.0</ele><time>2026-04-19T09:15:41.375Z</time></trkpt><trkpt lat="39.0699546" lon="-2.8521838"><ele>808.0</ele><time>2026-04-19T09:15:42.364Z</time></trkpt><trkpt lat="39.0697931" lon="-2.8522482"><ele>808.0</ele><time>2026-04-19T09:15:43.375Z</time></trkpt><trkpt lat="39.0696278" lon="-2.852319"><ele>808.3333333333333</ele><time>2026-04-19T09:15:44.376Z</time></trkpt><trkpt lat="39.0694563" lon="-2.8523961"><ele>808.6666666666667</ele><time>2026-04-19T09:15:45.374Z</time></trkpt><trkpt lat="39.0692827" lon="-2.8524767"><ele>809.0</ele><time>2026-04-19T09:15:46.375Z</time></trkpt><trkpt lat="39.0691052" lon="-2.8525526"><ele>809.3333333333334</ele><time>2026-04-19T09:15:47.372Z</time></trkpt><trkpt lat="39.068921" lon="-2.8526196"><ele>809.6666666666667</ele><time>2026-04-19T09:15:48.376Z</time></trkpt><trkpt lat="39.0687437" lon="-2.8526903"><ele>810.0</ele><time>2026-04-19T09:15:49.381Z</time></trkpt><trkpt lat="39.0685751" lon="-2.8527602"><ele>810.0</ele><time>2026-04-19T09:15:50.37Z</time></trkpt><trkpt lat="39.068412" lon="-2.8528329"><ele>810.0</ele><time>2026-04-19T09:15:51.386Z</time></trkpt><trkpt lat="39.0682615" lon="-2.8528988"><ele>810.0</ele><time>2026-04-19T09:15:52.368Z</time></trkpt><trkpt lat="39.0681195" lon="-2.8529474"><ele>810.0</ele><time>2026-04-19T09:15:53.37Z</time></trkpt><trkpt lat="39.0679882" lon="-2.8529844"><ele>810.0</ele><time>2026-04-19T09:15:54.366Z</time></trkpt><trkpt lat="39.0678663" lon="-2.8530224"><ele>810.0</ele><time>2026-04-19T09:15:55.37Z</time></trkpt><trkpt lat="39.0677493" lon="-2.8530777"><ele>810.0</ele><time>2026-04-19T09:15:56.368Z</time></trkpt><trkpt lat="39.0676217" lon="-2.853149"><ele>810.0</ele><time>2026-04-19T09:15:57.369Z</time></trkpt><trkpt lat="39.0674978" lon="-2.8532451"><ele>810.0</ele><time>2026-04-19T09:15:58.369Z</time></trkpt><trkpt lat="39.0673682" lon="-2.8533584"><ele>810.0</ele><time>2026-04-19T09:15:59.372Z</time></trkpt><trkpt lat="39.0672429" lon="-2.85348"><ele>810.3333333333333</ele><time>2026-04-19T09:16:00.37Z</time></trkpt><trkpt lat="39.0671172" lon="-2.8536036"><ele>810.6666666666666</ele><time>2026-04-19T09:16:01.37Z</time></trkpt><trkpt lat="39.0669895" lon="-2.853722"><ele>811.0</ele><time>2026-04-19T09:16:02.365Z</time></trkpt><trkpt lat="39.0668701" lon="-2.8538308"><ele>811.0</ele><time>2026-04-19T09:16:03.372Z</time></trkpt><trkpt lat="39.0667555" lon="-2.8539325"><ele>811.0</ele><time>2026-04-19T09:16:04.37Z</time></trkpt><trkpt lat="39.0666248" lon="-2.8540123"><ele>811.0</ele><time>2026-04-19T09:16:05.367Z</time></trkpt><trkpt lat="39.0664955" lon="-2.8540941"><ele>811.0</ele><time>2026-04-19T09:16:06.369Z</time></trkpt><trkpt lat="39.0663633" lon="-2.8541718"><ele>811.25</ele><time>2026-04-19T09:16:07.367Z</time></trkpt><trkpt lat="39.0662422" lon="-2.8542595"><ele>811.5</ele><time>2026-04-19T09:16:08.366Z</time></trkpt><trkpt lat="39.0661353" lon="-2.8543443"><ele>811.75</ele><time>2026-04-19T09:16:09.366Z</time></trkpt><trkpt lat="39.066039" lon="-2.854426"><ele>812.0</ele><time>2026-04-19T09:16:10.37Z</time></trkpt><trkpt lat="39.0659634" lon="-2.8545166"><ele>812.0</ele><time>2026-04-19T09:16:11.369Z</time></trkpt><trkpt lat="39.0659088" lon="-2.8546191"><ele>812.0</ele><time>2026-04-19T09:16:12.367Z</time></trkpt><trkpt lat="39.0658646" lon="-2.8547356"><ele>812.0</ele><time>2026-04-19T09:16:13.37Z</time></trkpt><trkpt lat="39.065837" lon="-2.8548675"><ele>812.0</ele><time>2026-04-19T09:16:14.367Z</time></trkpt><trkpt lat="39.0658185" lon="-2.8550024"><ele>812.0</ele><time>2026-04-19T09:16:15.369Z</time></trkpt><trkpt lat="39.0657895" lon="-2.8551136"><ele>812.4000000000001</ele><time>2026-04-19T09:16:16.365Z</time></trkpt><trkpt lat="39.0657453" lon="-2.8552092"><ele>812.8000000000001</ele><time>2026-04-19T09:16:17.367Z</time></trkpt><trkpt lat="39.0656809" lon="-2.855314"><ele>813.2</ele><time>2026-04-19T09:16:18.369Z</time></trkpt><trkpt lat="39.0655993" lon="-2.8554257"><ele>813.6</ele><time>2026-04-19T09:16:19.368Z</time></trkpt><trkpt lat="39.065514" lon="-2.8555411"><ele>814.0</ele><time>2026-04-19T09:16:20.377Z</time></trkpt><trkpt lat="39.0654408" lon="-2.8556565"><ele>814.0</ele><time>2026-04-19T09:16:21.367Z</time></trkpt><trkpt lat="39.065381" lon="-2.8557787"><ele>814.0</ele><time>2026-04-19T09:16:22.368Z</time></trkpt><trkpt lat="39.0653306" lon="-2.8559207"><ele>814.0</ele><time>2026-04-19T09:16:23.367Z</time></trkpt><trkpt lat="39.0652902" lon="-2.8560723"><ele>814.0</ele><time>2026-04-19T09:16:24.37Z</time></trkpt><trkpt lat="39.0652459" lon="-2.8562173"><ele>814.0</ele><time>2026-04-19T09:16:25.372Z</time></trkpt><trkpt lat="39.0651985" lon="-2.8563347"><ele>814.0</ele><time>2026-04-19T09:16:26.364Z</time></trkpt><trkpt lat="39.0651555" lon="-2.8564382"><ele>814.0</ele><time>2026-04-19T09:16:27.369Z</time></trkpt><trkpt lat="39.0651224" lon="-2.8565344"><ele>814.0</ele><time>2026-04-19T09:16:28.369Z</time></trkpt><trkpt lat="39.065089" lon="-2.8566439"><ele>814.0</ele><time>2026-04-19T09:16:29.367Z</time></trkpt><trkpt lat="39.065045" lon="-2.8567633"><ele>814.75</ele><time>2026-04-19T09:16:30.363Z</time></trkpt><trkpt lat="39.0649967" lon="-2.8568896"><ele>815.5</ele><time>2026-04-19T09:16:31.372Z</time></trkpt><trkpt lat="39.0649359" lon="-2.8570249"><ele>816.25</ele><time>2026-04-19T09:16:32.372Z</time></trkpt><trkpt lat="39.0648724" lon="-2.8571592"><ele>817.0</ele><time>2026-04-19T09:16:33.37Z</time></trkpt><trkpt lat="39.0648152" lon="-2.8572855"><ele>817.0</ele><time>2026-04-19T09:16:34.362Z</time></trkpt><trkpt lat="39.0647698" lon="-2.8574071"><ele>817.0</ele><time>2026-04-19T09:16:35.373Z</time></trkpt><trkpt lat="39.0647315" lon="-2.8575392"><ele>817.0</ele><time>2026-04-19T09:16:36.374Z</time></trkpt><trkpt lat="39.0646948" lon="-2.8576745"><ele>817.0</ele><time>2026-04-19T09:16:37.366Z</time></trkpt><trkpt lat="39.0646598" lon="-2.8578158"><ele>817.0</ele><time>2026-04-19T09:16:38.368Z</time></trkpt><trkpt lat="39.0646134" lon="-2.8579452"><ele>817.0</ele><time>2026-04-19T09:16:39.366Z</time></trkpt><trkpt lat="39.0645359" lon="-2.8580684"><ele>817.0</ele><time>2026-04-19T09:16:40.375Z</time></trkpt><trkpt lat="39.0644362" lon="-2.8581792"><ele>817.0</ele><time>2026-04-19T09:16:41.374Z</time></trkpt><trkpt lat="39.0643298" lon="-2.858257"><ele>817.0</ele><time>2026-04-19T09:16:42.369Z</time></trkpt><trkpt lat="39.0642116" lon="-2.8583019"><ele>818.0</ele><time>2026-04-19T09:16:43.367Z</time></trkpt><trkpt lat="39.0640926" lon="-2.8583309"><ele>819.0</ele><time>2026-04-19T09:16:44.37Z</time></trkpt><trkpt lat="39.0639777" lon="-2.8583612"><ele>820.0</ele><time>2026-04-19T09:16:45.373Z</time></trkpt><trkpt lat="39.0638726" lon="-2.8583889"><ele>821.0</ele><time>2026-04-19T09:16:46.367Z</time></trkpt><trkpt lat="39.0637665" lon="-2.8583939"><ele>821.0</ele><time>2026-04-19T09:16:47.365Z</time></trkpt><trkpt lat="39.0636633" lon="-2.858363"><ele>821.0</ele><time>2026-04-19T09:16:48.366Z</time></trkpt><trkpt lat="39.063566" lon="-2.858302"><ele>821.0</ele><time>2026-04-19T09:16:49.368Z</time></trkpt><trkpt lat="39.0634702" lon="-2.8582146"><ele>821.0</ele><time>2026-04-19T09:16:50.362Z</time></trkpt><trkpt lat="39.0633732" lon="-2.8581273"><ele>821.4</ele><time>2026-04-19T09:16:51.362Z</time></trkpt><trkpt lat="39.0632642" lon="-2.858055"><ele>821.8</ele><time>2026-04-19T09:16:52.372Z</time></trkpt><trkpt lat="39.0631634" lon="-2.8580063"><ele>822.1999999999999</ele><time>2026-04-19T09:16:53.371Z</time></trkpt><trkpt lat="39.063079" lon="-2.857982"><ele>822.5999999999999</ele><time>2026-04-19T09:16:54.367Z</time></trkpt><trkpt lat="39.0629975" lon="-2.8579567"><ele>823.0</ele><time>2026-04-19T09:16:55.366Z</time></trkpt><trkpt lat="39.0629093" lon="-2.8579153"><ele>823.0</ele><time>2026-04-19T09:16:56.368Z</time></trkpt><trkpt lat="39.0628154" lon="-2.8578361"><ele>823.0</ele><time>2026-04-19T09:16:57.37Z</time></trkpt><trkpt lat="39.0627179" lon="-2.8577608"><ele>823.0</ele><time>2026-04-19T09:16:58.368Z</time></trkpt><trkpt lat="39.0626099" lon="-2.8576952"><ele>823.0</ele><time>2026-04-19T09:16:59.375Z</time></trkpt><trkpt lat="39.0624856" lon="-2.857644"><ele>823.0</ele><time>2026-04-19T09:17:00.37Z</time></trkpt><trkpt lat="39.0623679" lon="-2.8576036"><ele>823.0</ele><time>2026-04-19T09:17:01.366Z</time></trkpt><trkpt lat="39.0622642" lon="-2.8575563"><ele>823.0</ele><time>2026-04-19T09:17:02.369Z</time></trkpt><trkpt lat="39.062175" lon="-2.8574835"><ele>823.0</ele><time>2026-04-19T09:17:03.37Z</time></trkpt><trkpt lat="39.0621062" lon="-2.8573805"><ele>823.0</ele><time>2026-04-19T09:17:04.37Z</time></trkpt><trkpt lat="39.0620462" lon="-2.8572906"><ele>822.9999999999999</ele><time>2026-04-19T09:17:05.373Z</time></trkpt><trkpt lat="39.0619933" lon="-2.857227"><ele>823.0</ele><time>2026-04-19T09:17:06.364Z</time></trkpt><trkpt lat="39.0619493" lon="-2.8571678"><ele>823.0</ele><time>2026-04-19T09:17:07.367Z</time></trkpt><trkpt lat="39.0619162" lon="-2.8570963"><ele>823.0</ele><time>2026-04-19T09:17:08.369Z</time></trkpt><trkpt lat="39.061873" lon="-2.8570118"><ele>822.9999999999999</ele><time>2026-04-19T09:17:09.368Z</time></trkpt><trkpt lat="39.0618236" lon="-2.8569256"><ele>823.0</ele><time>2026-04-19T09:17:10.367Z</time></trkpt><trkpt lat="39.061767" lon="-2.8568388"><ele>823.0</ele><time>2026-04-19T09:17:11.362Z</time></trkpt><trkpt lat="39.061702" lon="-2.8567617"><ele>823.0</ele><time>2026-04-19T09:17:12.369Z</time></trkpt><trkpt lat="39.0616442" lon="-2.8567001"><ele>823.0</ele><time>2026-04-19T09:17:13.366Z</time></trkpt><trkpt lat="39.0615908" lon="-2.8566432"><ele>823.0</ele><time>2026-04-19T09:17:14.366Z</time></trkpt><trkpt lat="39.0615369" lon="-2.8565877"><ele>823.0</ele><time>2026-04-19T09:17:15.36Z</time></trkpt><trkpt lat="39.0614825" lon="-2.8565319"><ele>823.0</ele><time>2026-04-19T09:17:16.377Z</time></trkpt><trkpt lat="39.0614286" lon="-2.856482"><ele>823.0</ele><time>2026-04-19T09:17:17.368Z</time></trkpt><trkpt lat="39.0613294" lon="-2.8564543"><ele>823.0</ele><time>2026-04-19T09:17:19.363Z</time></trkpt><trkpt lat="39.0612208" lon="-2.8565237"><ele>823.0</ele><time>2026-04-19T09:17:21.369Z</time></trkpt><trkpt lat="39.0611709" lon="-2.8566005"><ele>823.0</ele><time>2026-04-19T09:17:22.369Z</time></trkpt><trkpt lat="39.061116" lon="-2.8567033"><ele>823.0</ele><time>2026-04-19T09:17:23.367Z</time></trkpt><trkpt lat="39.0610505" lon="-2.8568177"><ele>823.0</ele><time>2026-04-19T09:17:24.365Z</time></trkpt><trkpt lat="39.0609813" lon="-2.856942"><ele>823.0</ele><time>2026-04-19T09:17:25.361Z</time></trkpt><trkpt lat="39.0609054" lon="-2.8570857"><ele>823.0</ele><time>2026-04-19T09:17:26.366Z</time></trkpt><trkpt lat="39.0608175" lon="-2.8572191"><ele>823.0</ele><time>2026-04-19T09:17:27.372Z</time></trkpt><trkpt lat="39.060737" lon="-2.8573417"><ele>823.0</ele><time>2026-04-19T09:17:28.364Z</time></trkpt><trkpt lat="39.0606689" lon="-2.8574603"><ele>823.4</ele><time>2026-04-19T09:17:29.368Z</time></trkpt><trkpt lat="39.0606206" lon="-2.8575897"><ele>823.8</ele><time>2026-04-19T09:17:30.363Z</time></trkpt><trkpt lat="39.0605677" lon="-2.8577217"><ele>824.2</ele><time>2026-04-19T09:17:31.369Z</time></trkpt><trkpt lat="39.0605183" lon="-2.8578395"><ele>824.6</ele><time>2026-04-19T09:17:32.371Z</time></trkpt><trkpt lat="39.0604711" lon="-2.8579522"><ele>825.0</ele><time>2026-04-19T09:17:33.365Z</time></trkpt><trkpt lat="39.0604085" lon="-2.8580681"><ele>825.0</ele><time>2026-04-19T09:17:34.373Z</time></trkpt><trkpt lat="39.0603307" lon="-2.8581653"><ele>825.0</ele><time>2026-04-19T09:17:35.373Z</time></trkpt><trkpt lat="39.0602578" lon="-2.8582504"><ele>825.0</ele><time>2026-04-19T09:17:36.372Z</time></trkpt><trkpt lat="39.0601756" lon="-2.8583408"><ele>825.0</ele><time>2026-04-19T09:17:37.37Z</time></trkpt><trkpt lat="39.0600882" lon="-2.8584218"><ele>825.0</ele><time>2026-04-19T09:17:38.366Z</time></trkpt><trkpt lat="39.0599986" lon="-2.8584915"><ele>825.75</ele><time>2026-04-19T09:17:39.368Z</time></trkpt><trkpt lat="39.0598964" lon="-2.85856"><ele>826.5</ele><time>2026-04-19T09:17:40.366Z</time></trkpt><trkpt lat="39.0597859" lon="-2.8586386"><ele>827.25</ele><time>2026-04-19T09:17:41.37Z</time></trkpt><trkpt lat="39.0596758" lon="-2.8587127"><ele>828.0</ele><time>2026-04-19T09:17:42.369Z</time></trkpt><trkpt lat="39.0595762" lon="-2.8587821"><ele>828.0</ele><time>2026-04-19T09:17:43.367Z</time></trkpt><trkpt lat="39.0594833" lon="-2.8588392"><ele>828.0</ele><time>2026-04-19T09:17:44.367Z</time></trkpt><trkpt lat="39.0594004" lon="-2.8588758"><ele>828.0</ele><time>2026-04-19T09:17:45.366Z</time></trkpt><trkpt lat="39.0593345" lon="-2.8588992"><ele>828.0</ele><time>2026-04-19T09:17:46.372Z</time></trkpt><trkpt lat="39.0592302" lon="-2.8589109"><ele>828.0</ele><time>2026-04-19T09:17:48.369Z</time></trkpt><trkpt lat="39.059103" lon="-2.8588974"><ele>828.0</ele><time>2026-04-19T09:17:50.374Z</time></trkpt><trkpt lat="39.0590186" lon="-2.8589154"><ele>828.0</ele><time>2026-04-19T09:17:52.378Z</time></trkpt><trkpt lat="39.0590507" lon="-2.859012"><ele>828.0</ele><time>2026-04-19T09:17:56.365Z</time></trkpt><trkpt lat="39.0591246" lon="-2.8589389"><ele>828.0</ele><time>2026-04-19T09:17:58.377Z</time></trkpt><trkpt lat="39.0591757" lon="-2.8588631"><ele>828.0</ele><time>2026-04-19T09:18:00.374Z</time></trkpt><trkpt lat="39.0592334" lon="-2.8587952"><ele>828.0</ele><time>2026-04-19T09:18:02.375Z</time></trkpt><trkpt lat="39.0592101" lon="-2.8588809"><ele>828.0000000000001</ele><time>2026-04-19T09:23:33.374Z</time></trkpt><trkpt lat="39.0591463" lon="-2.8588925"><ele>828.0</ele><time>2026-04-19T09:23:34.37Z</time></trkpt><trkpt lat="39.0590736" lon="-2.8588912"><ele>828.0</ele><time>2026-04-19T09:23:35.373Z</time></trkpt><trkpt lat="39.0589993" lon="-2.8588859"><ele>828.0</ele><time>2026-04-19T09:23:36.373Z</time></trkpt><trkpt lat="39.0589333" lon="-2.858862"><ele>828.0</ele><time>2026-04-19T09:23:37.369Z</time></trkpt><trkpt lat="39.0588666" lon="-2.8588276"><ele>828.0000000000001</ele><time>2026-04-19T09:23:38.367Z</time></trkpt><trkpt lat="39.0588109" lon="-2.8587893"><ele>828.0</ele><time>2026-04-19T09:23:39.371Z</time></trkpt><trkpt lat="39.0587058" lon="-2.8587324"><ele>828.8333333333334</ele><time>2026-04-19T09:23:41.369Z</time></trkpt><trkpt lat="39.0585936" lon="-2.8587018"><ele>829.6666666666667</ele><time>2026-04-19T09:23:43.367Z</time></trkpt><trkpt lat="39.0585277" lon="-2.8586977"><ele>830.5</ele><time>2026-04-19T09:23:44.381Z</time></trkpt><trkpt lat="39.0584515" lon="-2.8586798"><ele>831.3333333333334</ele><time>2026-04-19T09:23:45.371Z</time></trkpt><trkpt lat="39.0583801" lon="-2.8586581"><ele>832.1666666666667</ele><time>2026-04-19T09:23:46.372Z</time></trkpt><trkpt lat="39.0583125" lon="-2.8586286"><ele>833.0</ele><time>2026-04-19T09:23:47.368Z</time></trkpt><trkpt lat="39.0582547" lon="-2.858596"><ele>833.2</ele><time>2026-04-19T09:23:48.368Z</time></trkpt><trkpt lat="39.0581595" lon="-2.8585217"><ele>833.4</ele><time>2026-04-19T09:23:50.363Z</time></trkpt><trkpt lat="39.0580688" lon="-2.8584312"><ele>833.6</ele><time>2026-04-19T09:23:52.36Z</time></trkpt><trkpt lat="39.0579907" lon="-2.8583506"><ele>833.8000000000001</ele><time>2026-04-19T09:23:54.364Z</time></trkpt><trkpt lat="39.0579327" lon="-2.8582917"><ele>834.0</ele><time>2026-04-19T09:23:56.369Z</time></trkpt><trkpt lat="39.0578951" lon="-2.858211"><ele>834.0</ele><time>2026-04-19T09:24:00.364Z</time></trkpt><trkpt lat="39.0578429" lon="-2.8581182"><ele>834.0</ele><time>2026-04-19T09:24:03.373Z</time></trkpt><trkpt lat="39.0577815" lon="-2.8580448"><ele>834.0</ele><time>2026-04-19T09:24:05.366Z</time></trkpt><trkpt lat="39.0577296" lon="-2.8579767"><ele>834.0</ele><time>2026-04-19T09:24:07.367Z</time></trkpt><trkpt lat="39.0576765" lon="-2.8579226"><ele>834.0</ele><time>2026-04-19T09:24:09.363Z</time></trkpt><trkpt lat="39.057641" lon="-2.8578169"><ele>834.0</ele><time>2026-04-19T09:24:12.365Z</time></trkpt><trkpt lat="39.0576267" lon="-2.8577229"><ele>834.0</ele><time>2026-04-19T09:24:15.365Z</time></trkpt><trkpt lat="39.0575884" lon="-2.8576429"><ele>834.0</ele><time>2026-04-19T09:24:18.367Z</time></trkpt><trkpt lat="39.0575325" lon="-2.8575854"><ele>834.0</ele><time>2026-04-19T09:24:20.365Z</time></trkpt><trkpt lat="39.057462" lon="-2.8575068"><ele>834.0</ele><time>2026-04-19T09:24:23.368Z</time></trkpt><trkpt lat="39.0574018" lon="-2.8574289"><ele>834.0</ele><time>2026-04-19T09:24:26.365Z</time></trkpt><trkpt lat="39.0573577" lon="-2.8573604"><ele>834.0</ele><time>2026-04-19T09:24:28.365Z</time></trkpt><trkpt lat="39.0573477" lon="-2.8572539"><ele>833.6</ele><time>2026-04-19T09:24:30.368Z</time></trkpt><trkpt lat="39.0573412" lon="-2.8571309"><ele>833.2</ele><time>2026-04-19T09:24:32.375Z</time></trkpt><trkpt lat="39.0573568" lon="-2.8570225"><ele>832.8000000000001</ele><time>2026-04-19T09:24:34.377Z</time></trkpt><trkpt lat="39.0573601" lon="-2.8569187"><ele>832.4000000000001</ele><time>2026-04-19T09:24:36.369Z</time></trkpt><trkpt lat="39.0573183" lon="-2.8568145"><ele>832.0</ele><time>2026-04-19T09:24:38.371Z</time></trkpt><trkpt lat="39.0572203" lon="-2.8567398"><ele>831.8333333333333</ele><time>2026-04-19T09:24:40.371Z</time></trkpt><trkpt lat="39.0571589" lon="-2.8567204"><ele>831.6666666666666</ele><time>2026-04-19T09:24:41.367Z</time></trkpt><trkpt lat="39.0570905" lon="-2.8567032"><ele>831.5</ele><time>2026-04-19T09:24:42.371Z</time></trkpt><trkpt lat="39.0570113" lon="-2.8566713"><ele>831.3333333333333</ele><time>2026-04-19T09:24:43.366Z</time></trkpt><trkpt lat="39.056917" lon="-2.8566332"><ele>831.1666666666666</ele><time>2026-04-19T09:24:44.372Z</time></trkpt><trkpt lat="39.0568173" lon="-2.8565904"><ele>831.0</ele><time>2026-04-19T09:24:45.372Z</time></trkpt><trkpt lat="39.0567168" lon="-2.8565505"><ele>831.75</ele><time>2026-04-19T09:24:46.378Z</time></trkpt><trkpt lat="39.0566082" lon="-2.8565101"><ele>832.5</ele><time>2026-04-19T09:24:47.377Z</time></trkpt><trkpt lat="39.0564935" lon="-2.856457"><ele>833.25</ele><time>2026-04-19T09:24:48.374Z</time></trkpt><trkpt lat="39.0563819" lon="-2.8564044"><ele>834.0</ele><time>2026-04-19T09:24:49.372Z</time></trkpt><trkpt lat="39.0562711" lon="-2.8563551"><ele>834.0</ele><time>2026-04-19T09:24:50.37Z</time></trkpt><trkpt lat="39.0561612" lon="-2.856296"><ele>834.0</ele><time>2026-04-19T09:24:51.372Z</time></trkpt><trkpt lat="39.0560593" lon="-2.8562221"><ele>834.0</ele><time>2026-04-19T09:24:52.371Z</time></trkpt><trkpt lat="39.0559681" lon="-2.8561481"><ele>834.0</ele><time>2026-04-19T09:24:53.373Z</time></trkpt><trkpt lat="39.0558681" lon="-2.8560863"><ele>834.75</ele><time>2026-04-19T09:24:54.369Z</time></trkpt><trkpt lat="39.0557556" lon="-2.8560304"><ele>835.5</ele><time>2026-04-19T09:24:55.368Z</time></trkpt><trkpt lat="39.055639" lon="-2.8559744"><ele>836.25</ele><time>2026-04-19T09:24:56.374Z</time></trkpt><trkpt lat="39.0555273" lon="-2.8559183"><ele>837.0</ele><time>2026-04-19T09:24:57.369Z</time></trkpt><trkpt lat="39.0554138" lon="-2.8558661"><ele>837.0</ele><time>2026-04-19T09:24:58.373Z</time></trkpt><trkpt lat="39.0552941" lon="-2.8558222"><ele>837.0</ele><time>2026-04-19T09:24:59.372Z</time></trkpt><trkpt lat="39.0551748" lon="-2.8557816"><ele>837.0</ele><time>2026-04-19T09:25:00.38Z</time></trkpt><trkpt lat="39.0550535" lon="-2.8557353"><ele>837.0</ele><time>2026-04-19T09:25:01.369Z</time></trkpt><trkpt lat="39.0549318" lon="-2.8556795"><ele>837.75</ele><time>2026-04-19T09:25:02.373Z</time></trkpt><trkpt lat="39.0548085" lon="-2.8556206"><ele>838.5</ele><time>2026-04-19T09:25:03.377Z</time></trkpt><trkpt lat="39.0546848" lon="-2.8555585"><ele>839.25</ele><time>2026-04-19T09:25:04.378Z</time></trkpt><trkpt lat="39.0545643" lon="-2.8555023"><ele>840.0</ele><time>2026-04-19T09:25:05.375Z</time></trkpt><trkpt lat="39.0544418" lon="-2.8554492"><ele>840.0</ele><time>2026-04-19T09:25:06.376Z</time></trkpt><trkpt lat="39.0543191" lon="-2.8554012"><ele>840.0</ele><time>2026-04-19T09:25:07.37Z</time></trkpt><trkpt lat="39.0541998" lon="-2.8553593"><ele>840.0</ele><time>2026-04-19T09:25:08.371Z</time></trkpt><trkpt lat="39.0540842" lon="-2.8553243"><ele>840.0</ele><time>2026-04-19T09:25:09.369Z</time></trkpt><trkpt lat="39.0539768" lon="-2.8552893"><ele>840.0</ele><time>2026-04-19T09:25:10.372Z</time></trkpt><trkpt lat="39.0538683" lon="-2.8552605"><ele>840.0</ele><time>2026-04-19T09:25:11.367Z</time></trkpt><trkpt lat="39.0537569" lon="-2.8552433"><ele>840.0</ele><time>2026-04-19T09:25:12.371Z</time></trkpt><trkpt lat="39.0536425" lon="-2.8552355"><ele>840.0</ele><time>2026-04-19T09:25:13.375Z</time></trkpt><trkpt lat="39.05353" lon="-2.8552351"><ele>840.0</ele><time>2026-04-19T09:25:14.373Z</time></trkpt><trkpt lat="39.0534135" lon="-2.8552425"><ele>840.0</ele><time>2026-04-19T09:25:15.375Z</time></trkpt><trkpt lat="39.0532946" lon="-2.8552503"><ele>840.0</ele><time>2026-04-19T09:25:16.367Z</time></trkpt><trkpt lat="39.053176" lon="-2.8552519"><ele>840.0</ele><time>2026-04-19T09:25:17.376Z</time></trkpt><trkpt lat="39.0530664" lon="-2.855255"><ele>840.0</ele><time>2026-04-19T09:25:18.375Z</time></trkpt><trkpt lat="39.0529673" lon="-2.8552638"><ele>840.0</ele><time>2026-04-19T09:25:19.371Z</time></trkpt><trkpt lat="39.0528819" lon="-2.8552721"><ele>840.0</ele><time>2026-04-19T09:25:20.375Z</time></trkpt><trkpt lat="39.0528135" lon="-2.855274"><ele>840.0</ele><time>2026-04-19T09:25:21.374Z</time></trkpt><trkpt lat="39.052716" lon="-2.8552827"><ele>840.0</ele><time>2026-04-19T09:25:23.378Z</time></trkpt><trkpt lat="39.0525963" lon="-2.8552976"><ele>840.0</ele><time>2026-04-19T09:25:25.378Z</time></trkpt><trkpt lat="39.0525266" lon="-2.8552963"><ele>840.0</ele><time>2026-04-19T09:25:26.368Z</time></trkpt><trkpt lat="39.0524006" lon="-2.8552892"><ele>840.0</ele><time>2026-04-19T09:25:28.376Z</time></trkpt><trkpt lat="39.0523256" lon="-2.8552943"><ele>840.0</ele><time>2026-04-19T09:25:29.374Z</time></trkpt><trkpt lat="39.0522478" lon="-2.8553012"><ele>840.0</ele><time>2026-04-19T09:25:30.369Z</time></trkpt><trkpt lat="39.0521739" lon="-2.8553058"><ele>840.0</ele><time>2026-04-19T09:25:31.379Z</time></trkpt><trkpt lat="39.052104" lon="-2.855312"><ele>840.3333333333334</ele><time>2026-04-19T09:25:32.381Z</time></trkpt><trkpt lat="39.0520311" lon="-2.8553103"><ele>840.6666666666667</ele><time>2026-04-19T09:25:33.374Z</time></trkpt><trkpt lat="39.051959" lon="-2.8552924"><ele>841.0</ele><time>2026-04-19T09:25:34.374Z</time></trkpt><trkpt lat="39.0518891" lon="-2.8552596"><ele>841.3333333333334</ele><time>2026-04-19T09:25:35.374Z</time></trkpt><trkpt lat="39.0518158" lon="-2.8552116"><ele>841.6666666666667</ele><time>2026-04-19T09:25:36.386Z</time></trkpt><trkpt lat="39.0517449" lon="-2.8551621"><ele>842.0</ele><time>2026-04-19T09:25:37.377Z</time></trkpt><trkpt lat="39.0516692" lon="-2.8551106"><ele>842.1666666666667</ele><time>2026-04-19T09:25:38.37Z</time></trkpt><trkpt lat="39.0515919" lon="-2.8550553"><ele>842.3333333333334</ele><time>2026-04-19T09:25:39.372Z</time></trkpt><trkpt lat="39.0515094" lon="-2.8549973"><ele>842.5</ele><time>2026-04-19T09:25:40.368Z</time></trkpt><trkpt lat="39.0514345" lon="-2.8549437"><ele>842.6666666666667</ele><time>2026-04-19T09:25:41.376Z</time></trkpt><trkpt lat="39.0513657" lon="-2.8548943"><ele>842.8333333333334</ele><time>2026-04-19T09:25:42.377Z</time></trkpt><trkpt lat="39.0513062" lon="-2.8548489"><ele>843.0</ele><time>2026-04-19T09:25:43.37Z</time></trkpt><trkpt lat="39.0512221" lon="-2.8547866"><ele>843.0</ele><time>2026-04-19T09:25:45.372Z</time></trkpt><trkpt lat="39.051147" lon="-2.8547657"><ele>843.0</ele><time>2026-04-19T09:25:48.384Z</time></trkpt><trkpt lat="39.0510772" lon="-2.8547555"><ele>843.0</ele><time>2026-04-19T09:25:53.377Z</time></trkpt><trkpt lat="39.0510372" lon="-2.8546804"><ele>843.0</ele><time>2026-04-19T09:26:10.377Z</time></trkpt><trkpt lat="39.0509879" lon="-2.8545745"><ele>843.0</ele><time>2026-04-19T09:26:13.365Z</time></trkpt><trkpt lat="39.0509063" lon="-2.8544856"><ele>843.0</ele><time>2026-04-19T09:26:15.365Z</time></trkpt><trkpt lat="39.0508128" lon="-2.8544128"><ele>843.6666666666666</ele><time>2026-04-19T09:26:17.367Z</time></trkpt><trkpt lat="39.0507454" lon="-2.8543443"><ele>844.3333333333333</ele><time>2026-04-19T09:26:19.364Z</time></trkpt><trkpt lat="39.0506679" lon="-2.8542368"><ele>845.0</ele><time>2026-04-19T09:26:21.367Z</time></trkpt><trkpt lat="39.0506119" lon="-2.8541699"><ele>845.6666666666666</ele><time>2026-04-19T09:26:22.367Z</time></trkpt><trkpt lat="39.0505533" lon="-2.8541037"><ele>846.3333333333333</ele><time>2026-04-19T09:26:23.369Z</time></trkpt><trkpt lat="39.0504986" lon="-2.8540339"><ele>847.0</ele><time>2026-04-19T09:26:24.362Z</time></trkpt><trkpt lat="39.0504385" lon="-2.853949"><ele>847.0</ele><time>2026-04-19T09:26:25.362Z</time></trkpt><trkpt lat="39.0503856" lon="-2.8538715"><ele>847.0</ele><time>2026-04-19T09:26:26.371Z</time></trkpt><trkpt lat="39.050311" lon="-2.8537689"><ele>847.0</ele><time>2026-04-19T09:26:28.367Z</time></trkpt><trkpt lat="39.0502544" lon="-2.8536605"><ele>847.0</ele><time>2026-04-19T09:26:30.373Z</time></trkpt><trkpt lat="39.0502112" lon="-2.8535286"><ele>847.0</ele><time>2026-04-19T09:26:32.368Z</time></trkpt><trkpt lat="39.0501749" lon="-2.8533861"><ele>846.6</ele><time>2026-04-19T09:26:34.367Z</time></trkpt><trkpt lat="39.0501364" lon="-2.8532367"><ele>846.2</ele><time>2026-04-19T09:26:36.366Z</time></trkpt><trkpt lat="39.050127" lon="-2.8531546"><ele>845.8</ele><time>2026-04-19T09:26:37.37Z</time></trkpt><trkpt lat="39.0501225" lon="-2.8530198"><ele>845.4</ele><time>2026-04-19T09:26:39.366Z</time></trkpt><trkpt lat="39.0501123" lon="-2.8529158"><ele>845.0</ele><time>2026-04-19T09:26:41.374Z</time></trkpt><trkpt lat="39.0500955" lon="-2.8528169"><ele>845.0</ele><time>2026-04-19T09:26:43.372Z</time></trkpt><trkpt lat="39.0500747" lon="-2.8527158"><ele>845.0</ele><time>2026-04-19T09:26:45.366Z</time></trkpt><trkpt lat="39.0500498" lon="-2.8526395"><ele>845.0</ele><time>2026-04-19T09:27:00.368Z</time></trkpt><trkpt lat="39.0500335" lon="-2.8525283"><ele>845.0</ele><time>2026-04-19T09:27:02.368Z</time></trkpt><trkpt lat="39.0499927" lon="-2.8523856"><ele>845.0</ele><time>2026-04-19T09:27:04.366Z</time></trkpt><trkpt lat="39.0499467" lon="-2.8522577"><ele>845.6</ele><time>2026-04-19T09:27:06.37Z</time></trkpt><trkpt lat="39.0498814" lon="-2.8521568"><ele>846.2</ele><time>2026-04-19T09:27:08.381Z</time></trkpt><trkpt lat="39.049775" lon="-2.8520852"><ele>846.8</ele><time>2026-04-19T09:27:10.376Z</time></trkpt><trkpt lat="39.0497064" lon="-2.8520575"><ele>847.4</ele><time>2026-04-19T09:27:11.369Z</time></trkpt><trkpt lat="39.0496321" lon="-2.8520163"><ele>848.0</ele><time>2026-04-19T09:27:12.368Z</time></trkpt><trkpt lat="39.0495587" lon="-2.8519595"><ele>848.0000000000001</ele><time>2026-04-19T09:27:13.373Z</time></trkpt><trkpt lat="39.0494935" lon="-2.8519134"><ele>848.0</ele><time>2026-04-19T09:27:14.368Z</time></trkpt><trkpt lat="39.0493788" lon="-2.8518731"><ele>848.0</ele><time>2026-04-19T09:27:16.371Z</time></trkpt><trkpt lat="39.0493084" lon="-2.8518742"><ele>848.0</ele><time>2026-04-19T09:27:17.373Z</time></trkpt><trkpt lat="39.0492239" lon="-2.851868"><ele>848.0000000000001</ele><time>2026-04-19T09:27:18.367Z</time></trkpt><trkpt lat="39.0491413" lon="-2.8518505"><ele>848.0</ele><time>2026-04-19T09:27:19.375Z</time></trkpt><trkpt lat="39.0490551" lon="-2.8518179"><ele>848.8333333333334</ele><time>2026-04-19T09:27:20.369Z</time></trkpt><trkpt lat="39.0489764" lon="-2.8517731"><ele>849.6666666666667</ele><time>2026-04-19T09:27:21.373Z</time></trkpt><trkpt lat="39.0489075" lon="-2.8517191"><ele>850.5</ele><time>2026-04-19T09:27:22.371Z</time></trkpt><trkpt lat="39.0488525" lon="-2.8516534"><ele>851.3333333333333</ele><time>2026-04-19T09:27:23.369Z</time></trkpt><trkpt lat="39.048798" lon="-2.85157"><ele>852.1666666666666</ele><time>2026-04-19T09:27:24.371Z</time></trkpt><trkpt lat="39.0487483" lon="-2.8514922"><ele>853.0</ele><time>2026-04-19T09:27:25.373Z</time></trkpt><trkpt lat="39.0487015" lon="-2.8514246"><ele>852.9999999999999</ele><time>2026-04-19T09:27:26.378Z</time></trkpt><trkpt lat="39.0486162" lon="-2.8513296"><ele>853.0</ele><time>2026-04-19T09:27:28.377Z</time></trkpt><trkpt lat="39.0485632" lon="-2.8512146"><ele>853.0</ele><time>2026-04-19T09:27:30.441Z</time></trkpt><trkpt lat="39.048533" lon="-2.8511432"><ele>853.0</ele><time>2026-04-19T09:27:31.383Z</time></trkpt><trkpt lat="39.0485009" lon="-2.8510547"><ele>852.9999999999999</ele><time>2026-04-19T09:27:32.384Z</time></trkpt><trkpt lat="39.0484705" lon="-2.8509741"><ele>853.0</ele><time>2026-04-19T09:27:33.369Z</time></trkpt><trkpt lat="39.0484392" lon="-2.8509036"><ele>852.8333333333333</ele><time>2026-04-19T09:27:34.364Z</time></trkpt><trkpt lat="39.0483938" lon="-2.8507957"><ele>852.6666666666666</ele><time>2026-04-19T09:27:36.381Z</time></trkpt><trkpt lat="39.0483479" lon="-2.8507329"><ele>852.5</ele><time>2026-04-19T09:27:44.378Z</time></trkpt><trkpt lat="39.0482944" lon="-2.850688"><ele>852.3333333333333</ele><time>2026-04-19T09:27:46.382Z</time></trkpt><trkpt lat="39.0482421" lon="-2.8506203"><ele>852.1666666666666</ele><time>2026-04-19T09:27:49.374Z</time></trkpt><trkpt lat="39.0482136" lon="-2.8505342"><ele>852.0</ele><time>2026-04-19T09:27:51.378Z</time></trkpt><trkpt lat="39.0481781" lon="-2.8504408"><ele>852.3333333333334</ele><time>2026-04-19T09:27:53.375Z</time></trkpt><trkpt lat="39.0481252" lon="-2.8503355"><ele>852.6666666666667</ele><time>2026-04-19T09:27:55.386Z</time></trkpt><trkpt lat="39.0480553" lon="-2.8502364"><ele>853.0</ele><time>2026-04-19T09:27:57.366Z</time></trkpt><trkpt lat="39.048009" lon="-2.8501776"><ele>853.3333333333334</ele><time>2026-04-19T09:27:58.371Z</time></trkpt><trkpt lat="39.0479484" lon="-2.8501098"><ele>853.6666666666667</ele><time>2026-04-19T09:27:59.37Z</time></trkpt><trkpt lat="39.0478792" lon="-2.8500388"><ele>854.0</ele><time>2026-04-19T09:28:00.378Z</time></trkpt><trkpt lat="39.0478014" lon="-2.8499674"><ele>854.0000000000001</ele><time>2026-04-19T09:28:01.378Z</time></trkpt><trkpt lat="39.0477266" lon="-2.8498934"><ele>854.0</ele><time>2026-04-19T09:28:02.371Z</time></trkpt><trkpt lat="39.04766" lon="-2.8498218"><ele>854.0</ele><time>2026-04-19T09:28:03.378Z</time></trkpt><trkpt lat="39.0475992" lon="-2.8497624"><ele>854.0</ele><time>2026-04-19T09:28:04.383Z</time></trkpt><trkpt lat="39.0475434" lon="-2.8497099"><ele>854.0000000000001</ele><time>2026-04-19T09:28:05.375Z</time></trkpt><trkpt lat="39.0474907" lon="-2.8496581"><ele>854.0</ele><time>2026-04-19T09:28:06.368Z</time></trkpt><trkpt lat="39.0474352" lon="-2.8496123"><ele>854.1428571428571</ele><time>2026-04-19T09:28:07.371Z</time></trkpt><trkpt lat="39.0473748" lon="-2.8495751"><ele>854.2857142857142</ele><time>2026-04-19T09:28:08.375Z</time></trkpt><trkpt lat="39.0473086" lon="-2.849533"><ele>854.4285714285714</ele><time>2026-04-19T09:28:09.388Z</time></trkpt><trkpt lat="39.0472477" lon="-2.8494765"><ele>854.5714285714286</ele><time>2026-04-19T09:28:10.374Z</time></trkpt><trkpt lat="39.047192" lon="-2.8494284"><ele>854.7142857142857</ele><time>2026-04-19T09:28:11.372Z</time></trkpt><trkpt lat="39.0471331" lon="-2.8493802"><ele>854.8571428571429</ele><time>2026-04-19T09:28:12.378Z</time></trkpt><trkpt lat="39.0470667" lon="-2.8493254"><ele>855.0</ele><time>2026-04-19T09:28:13.379Z</time></trkpt><trkpt lat="39.0469979" lon="-2.8492603"><ele>855.0</ele><time>2026-04-19T09:28:14.379Z</time></trkpt><trkpt lat="39.0469304" lon="-2.8491822"><ele>855.0</ele><time>2026-04-19T09:28:15.379Z</time></trkpt><trkpt lat="39.0468669" lon="-2.8490911"><ele>855.0</ele><time>2026-04-19T09:28:16.37Z</time></trkpt><trkpt lat="39.0468009" lon="-2.8489925"><ele>855.0</ele><time>2026-04-19T09:28:17.373Z</time></trkpt><trkpt lat="39.0467279" lon="-2.8488916"><ele>855.0</ele><time>2026-04-19T09:28:18.374Z</time></trkpt><trkpt lat="39.0466576" lon="-2.8487885"><ele>855.4</ele><time>2026-04-19T09:28:19.376Z</time></trkpt><trkpt lat="39.0465947" lon="-2.8486828"><ele>855.8</ele><time>2026-04-19T09:28:20.367Z</time></trkpt><trkpt lat="39.046536" lon="-2.8485805"><ele>856.2</ele><time>2026-04-19T09:28:21.37Z</time></trkpt><trkpt lat="39.0464869" lon="-2.8484846"><ele>856.6</ele><time>2026-04-19T09:28:22.367Z</time></trkpt><trkpt lat="39.0464432" lon="-2.8483959"><ele>857.0</ele><time>2026-04-19T09:28:23.371Z</time></trkpt><trkpt lat="39.0464144" lon="-2.8483029"><ele>857.0000000000001</ele><time>2026-04-19T09:28:24.37Z</time></trkpt><trkpt lat="39.0463701" lon="-2.8482115"><ele>857.0</ele><time>2026-04-19T09:28:25.371Z</time></trkpt><trkpt lat="39.046333" lon="-2.8481203"><ele>857.0</ele><time>2026-04-19T09:28:26.373Z</time></trkpt><trkpt lat="39.0463002" lon="-2.8480411"><ele>857.0</ele><time>2026-04-19T09:28:27.369Z</time></trkpt><trkpt lat="39.0462529" lon="-2.8479631"><ele>857.0000000000001</ele><time>2026-04-19T09:28:28.374Z</time></trkpt><trkpt lat="39.0461981" lon="-2.8478938"><ele>857.0</ele><time>2026-04-19T09:28:29.371Z</time></trkpt><trkpt lat="39.0461522" lon="-2.8478265"><ele>857.0000000000001</ele><time>2026-04-19T09:28:30.372Z</time></trkpt><trkpt lat="39.0461144" lon="-2.847752"><ele>857.0</ele><time>2026-04-19T09:28:31.363Z</time></trkpt><trkpt lat="39.0460783" lon="-2.8476654"><ele>857.0</ele><time>2026-04-19T09:28:32.377Z</time></trkpt><trkpt lat="39.0460362" lon="-2.8475808"><ele>857.0</ele><time>2026-04-19T09:28:33.375Z</time></trkpt><trkpt lat="39.0459748" lon="-2.847504"><ele>857.0000000000001</ele><time>2026-04-19T09:28:34.371Z</time></trkpt><trkpt lat="39.0458966" lon="-2.8474427"><ele>857.0</ele><time>2026-04-19T09:28:35.364Z</time></trkpt><trkpt lat="39.0458066" lon="-2.8473902"><ele>857.8333333333334</ele><time>2026-04-19T09:28:36.374Z</time></trkpt><trkpt lat="39.0457111" lon="-2.8473465"><ele>858.6666666666667</ele><time>2026-04-19T09:28:37.371Z</time></trkpt><trkpt lat="39.0456261" lon="-2.8472998"><ele>859.5</ele><time>2026-04-19T09:28:38.381Z</time></trkpt><trkpt lat="39.0455566" lon="-2.8472445"><ele>860.3333333333333</ele><time>2026-04-19T09:28:39.367Z</time></trkpt><trkpt lat="39.0455009" lon="-2.8471869"><ele>861.1666666666666</ele><time>2026-04-19T09:28:40.366Z</time></trkpt><trkpt lat="39.0454495" lon="-2.8471369"><ele>862.0</ele><time>2026-04-19T09:28:41.369Z</time></trkpt><trkpt lat="39.0453757" lon="-2.8470934"><ele>862.0</ele><time>2026-04-19T09:28:42.37Z</time></trkpt><trkpt lat="39.0452851" lon="-2.8470537"><ele>862.0</ele><time>2026-04-19T09:28:43.376Z</time></trkpt><trkpt lat="39.0452089" lon="-2.8469898"><ele>862.0</ele><time>2026-04-19T09:28:44.371Z</time></trkpt><trkpt lat="39.0451272" lon="-2.8469295"><ele>862.0</ele><time>2026-04-19T09:28:45.383Z</time></trkpt><trkpt lat="39.045037" lon="-2.8468862"><ele>862.0</ele><time>2026-04-19T09:28:46.377Z</time></trkpt><trkpt lat="39.0449391" lon="-2.8468465"><ele>862.2</ele><time>2026-04-19T09:28:47.367Z</time></trkpt><trkpt lat="39.0448398" lon="-2.8468171"><ele>862.4000000000001</ele><time>2026-04-19T09:28:48.375Z</time></trkpt><trkpt lat="39.0447361" lon="-2.8467979"><ele>862.5999999999999</ele><time>2026-04-19T09:28:49.375Z</time></trkpt><trkpt lat="39.0446325" lon="-2.8467775"><ele>862.8</ele><time>2026-04-19T09:28:50.375Z</time></trkpt><trkpt lat="39.0445368" lon="-2.8467545"><ele>863.0</ele><time>2026-04-19T09:28:51.372Z</time></trkpt><trkpt lat="39.0444522" lon="-2.846724"><ele>863.0000000000001</ele><time>2026-04-19T09:28:52.377Z</time></trkpt><trkpt lat="39.0443757" lon="-2.8466959"><ele>863.0</ele><time>2026-04-19T09:28:53.373Z</time></trkpt><trkpt lat="39.0443002" lon="-2.8466711"><ele>863.0</ele><time>2026-04-19T09:28:54.376Z</time></trkpt><trkpt lat="39.0442181" lon="-2.846652"><ele>863.0</ele><time>2026-04-19T09:28:55.37Z</time></trkpt><trkpt lat="39.0441345" lon="-2.8466403"><ele>863.0000000000001</ele><time>2026-04-19T09:28:56.384Z</time></trkpt><trkpt lat="39.0440607" lon="-2.8466343"><ele>863.0</ele><time>2026-04-19T09:28:57.383Z</time></trkpt><trkpt lat="39.0439911" lon="-2.8466328"><ele>863.0000000000001</ele><time>2026-04-19T09:28:58.374Z</time></trkpt><trkpt lat="39.0438834" lon="-2.8466175"><ele>863.0</ele><time>2026-04-19T09:29:00.38Z</time></trkpt><trkpt lat="39.0438171" lon="-2.8466186"><ele>863.0</ele><time>2026-04-19T09:29:02.378Z</time></trkpt><trkpt lat="39.0437227" lon="-2.8466117"><ele>863.0</ele><time>2026-04-19T09:29:05.372Z</time></trkpt><trkpt lat="39.0436402" lon="-2.8465482"><ele>863.0000000000001</ele><time>2026-04-19T09:29:07.369Z</time></trkpt><trkpt lat="39.0435617" lon="-2.8465132"><ele>863.0</ele><time>2026-04-19T09:29:09.374Z</time></trkpt><trkpt lat="39.0434909" lon="-2.8465457"><ele>863.0000000000001</ele><time>2026-04-19T09:29:12.376Z</time></trkpt><trkpt lat="39.0434366" lon="-2.8465941"><ele>863.0</ele><time>2026-04-19T09:29:46.36Z</time></trkpt><trkpt lat="39.0433774" lon="-2.8466389"><ele>863.0</ele><time>2026-04-19T09:29:52.363Z</time></trkpt><trkpt lat="39.0433136" lon="-2.8466932"><ele>863.0</ele><time>2026-04-19T09:29:58.365Z</time></trkpt><trkpt lat="39.0432472" lon="-2.846719"><ele>863.0</ele><time>2026-04-19T09:31:11.376Z</time></trkpt><trkpt lat="39.0431696" lon="-2.8466621"><ele>863.0000000000001</ele><time>2026-04-19T09:31:14.369Z</time></trkpt><trkpt lat="39.0431133" lon="-2.8466065"><ele>863.0</ele><time>2026-04-19T09:31:16.374Z</time></trkpt><trkpt lat="39.0430503" lon="-2.8465223"><ele>863.2</ele><time>2026-04-19T09:31:18.374Z</time></trkpt><trkpt lat="39.0429716" lon="-2.8464249"><ele>863.4</ele><time>2026-04-19T09:31:20.369Z</time></trkpt><trkpt lat="39.0428929" lon="-2.8463277"><ele>863.6000000000001</ele><time>2026-04-19T09:31:22.376Z</time></trkpt><trkpt lat="39.0428126" lon="-2.8462358"><ele>863.8000000000001</ele><time>2026-04-19T09:31:24.38Z</time></trkpt><trkpt lat="39.0427121" lon="-2.8461475"><ele>864.0</ele><time>2026-04-19T09:31:26.372Z</time></trkpt><trkpt lat="39.042602" lon="-2.8460955"><ele>864.0</ele><time>2026-04-19T09:31:28.372Z</time></trkpt><trkpt lat="39.042537" lon="-2.8460741"><ele>864.0</ele><time>2026-04-19T09:31:29.375Z</time></trkpt><trkpt lat="39.0424352" lon="-2.8460309"><ele>864.0</ele><time>2026-04-19T09:31:31.369Z</time></trkpt><trkpt lat="39.0423588" lon="-2.8460256"><ele>864.0</ele><time>2026-04-19T09:31:33.369Z</time></trkpt><trkpt lat="39.0422911" lon="-2.8460523"><ele>864.0</ele><time>2026-04-19T09:31:36.37Z</time></trkpt><trkpt lat="39.0422159" lon="-2.8460268"><ele>864.0</ele><time>2026-04-19T09:32:15.371Z</time></trkpt><trkpt lat="39.0421118" lon="-2.8460498"><ele>864.1666666666666</ele><time>2026-04-19T09:32:17.377Z</time></trkpt><trkpt lat="39.0420436" lon="-2.8460549"><ele>864.3333333333333</ele><time>2026-04-19T09:32:18.372Z</time></trkpt><trkpt lat="39.0419661" lon="-2.846057"><ele>864.5</ele><time>2026-04-19T09:32:19.371Z</time></trkpt><trkpt lat="39.0418782" lon="-2.8460725"><ele>864.6666666666666</ele><time>2026-04-19T09:32:20.371Z</time></trkpt><trkpt lat="39.0417794" lon="-2.8460895"><ele>864.8333333333333</ele><time>2026-04-19T09:32:21.369Z</time></trkpt><trkpt lat="39.04168" lon="-2.8461061"><ele>865.0</ele><time>2026-04-19T09:32:22.369Z</time></trkpt><trkpt lat="39.0415664" lon="-2.8461205"><ele>866.25</ele><time>2026-04-19T09:32:23.368Z</time></trkpt><trkpt lat="39.0414526" lon="-2.8461343"><ele>867.5</ele><time>2026-04-19T09:32:24.376Z</time></trkpt><trkpt lat="39.0413398" lon="-2.8461592"><ele>868.75</ele><time>2026-04-19T09:32:25.376Z</time></trkpt><trkpt lat="39.0412369" lon="-2.8462007"><ele>870.0</ele><time>2026-04-19T09:32:26.375Z</time></trkpt><trkpt lat="39.0411223" lon="-2.8462427"><ele>870.0</ele><time>2026-04-19T09:32:27.366Z</time></trkpt><trkpt lat="39.0410006" lon="-2.8462793"><ele>870.0</ele><time>2026-04-19T09:32:28.377Z</time></trkpt><trkpt lat="39.0408785" lon="-2.8463165"><ele>870.0</ele><time>2026-04-19T09:32:29.367Z</time></trkpt><trkpt lat="39.0407674" lon="-2.846361"><ele>870.0</ele><time>2026-04-19T09:32:30.376Z</time></trkpt><trkpt lat="39.0406695" lon="-2.846398"><ele>870.1666666666666</ele><time>2026-04-19T09:32:31.371Z</time></trkpt><trkpt lat="39.0405789" lon="-2.8464341"><ele>870.3333333333333</ele><time>2026-04-19T09:32:32.368Z</time></trkpt><trkpt lat="39.0404995" lon="-2.8464775"><ele>870.5</ele><time>2026-04-19T09:32:33.374Z</time></trkpt><trkpt lat="39.0404286" lon="-2.8465306"><ele>870.6666666666666</ele><time>2026-04-19T09:32:34.38Z</time></trkpt><trkpt lat="39.0403675" lon="-2.8465817"><ele>870.8333333333333</ele><time>2026-04-19T09:32:35.367Z</time></trkpt><trkpt lat="39.0403124" lon="-2.846623"><ele>871.0</ele><time>2026-04-19T09:32:36.368Z</time></trkpt><trkpt lat="39.0402406" lon="-2.8466541"><ele>871.0</ele><time>2026-04-19T09:32:37.37Z</time></trkpt><trkpt lat="39.0401608" lon="-2.8466883"><ele>870.9999999999999</ele><time>2026-04-19T09:32:38.374Z</time></trkpt><trkpt lat="39.0400636" lon="-2.8467274"><ele>870.9999999999999</ele><time>2026-04-19T09:32:39.374Z</time></trkpt><trkpt lat="39.0399605" lon="-2.846756"><ele>871.0</ele><time>2026-04-19T09:32:40.374Z</time></trkpt><trkpt lat="39.0398615" lon="-2.8467787"><ele>871.0</ele><time>2026-04-19T09:32:41.372Z</time></trkpt><trkpt lat="39.0397833" lon="-2.8468062"><ele>871.3333333333333</ele><time>2026-04-19T09:32:42.372Z</time></trkpt><trkpt lat="39.0396834" lon="-2.8468585"><ele>871.6666666666666</ele><time>2026-04-19T09:32:44.367Z</time></trkpt><trkpt lat="39.0396171" lon="-2.8469393"><ele>872.0</ele><time>2026-04-19T09:32:46.372Z</time></trkpt><trkpt lat="39.0395693" lon="-2.8469928"><ele>872.3333333333333</ele><time>2026-04-19T09:32:47.367Z</time></trkpt><trkpt lat="39.039513" lon="-2.8470529"><ele>872.6666666666666</ele><time>2026-04-19T09:32:48.378Z</time></trkpt><trkpt lat="39.0394355" lon="-2.8470865"><ele>873.0</ele><time>2026-04-19T09:32:49.371Z</time></trkpt><trkpt lat="39.0393416" lon="-2.8471002"><ele>873.0</ele><time>2026-04-19T09:32:50.37Z</time></trkpt><trkpt lat="39.0392258" lon="-2.8470983"><ele>873.0</ele><time>2026-04-19T09:32:51.365Z</time></trkpt><trkpt lat="39.0390966" lon="-2.8470969"><ele>873.0</ele><time>2026-04-19T09:32:52.371Z</time></trkpt><trkpt lat="39.0389795" lon="-2.8470881"><ele>873.0</ele><time>2026-04-19T09:32:53.367Z</time></trkpt><trkpt lat="39.0388787" lon="-2.8470733"><ele>873.0</ele><time>2026-04-19T09:32:54.37Z</time></trkpt><trkpt lat="39.0387914" lon="-2.84706"><ele>873.0</ele><time>2026-04-19T09:32:55.368Z</time></trkpt><trkpt lat="39.0387296" lon="-2.8470275"><ele>873.0</ele><time>2026-04-19T09:32:56.371Z</time></trkpt><trkpt lat="39.0386329" lon="-2.8469093"><ele>873.0</ele><time>2026-04-19T09:32:58.37Z</time></trkpt><trkpt lat="39.03859" lon="-2.8468466"><ele>873.0</ele><time>2026-04-19T09:32:59.371Z</time></trkpt><trkpt lat="39.0385007" lon="-2.8467717"><ele>873.0</ele><time>2026-04-19T09:33:01.373Z</time></trkpt><trkpt lat="39.0383851" lon="-2.8467223"><ele>873.0</ele><time>2026-04-19T09:33:03.366Z</time></trkpt><trkpt lat="39.0383147" lon="-2.8467016"><ele>873.0</ele><time>2026-04-19T09:33:04.37Z</time></trkpt><trkpt lat="39.0382408" lon="-2.8466998"><ele>873.0</ele><time>2026-04-19T09:33:05.37Z</time></trkpt><trkpt lat="39.0381542" lon="-2.8467089"><ele>873.0</ele><time>2026-04-19T09:33:06.382Z</time></trkpt><trkpt lat="39.038072" lon="-2.8467224"><ele>873.0</ele><time>2026-04-19T09:33:07.364Z</time></trkpt><trkpt lat="39.0379843" lon="-2.846745"><ele>873.4</ele><time>2026-04-19T09:33:08.367Z</time></trkpt><trkpt lat="39.0378929" lon="-2.8467702"><ele>873.8</ele><time>2026-04-19T09:33:09.37Z</time></trkpt><trkpt lat="39.037796" lon="-2.8467981"><ele>874.2</ele><time>2026-04-19T09:33:10.371Z</time></trkpt><trkpt lat="39.0377032" lon="-2.8468212"><ele>874.6</ele><time>2026-04-19T09:33:11.374Z</time></trkpt><trkpt lat="39.0376153" lon="-2.84685"><ele>875.0</ele><time>2026-04-19T09:33:12.373Z</time></trkpt><trkpt lat="39.0375456" lon="-2.8468796"><ele>875.2</ele><time>2026-04-19T09:33:13.365Z</time></trkpt><trkpt lat="39.0374693" lon="-2.8469079"><ele>875.4</ele><time>2026-04-19T09:33:14.379Z</time></trkpt><trkpt lat="39.0373714" lon="-2.8469499"><ele>875.5999999999999</ele><time>2026-04-19T09:33:15.372Z</time></trkpt><trkpt lat="39.0372693" lon="-2.8469903"><ele>875.8</ele><time>2026-04-19T09:33:16.366Z</time></trkpt><trkpt lat="39.0371767" lon="-2.847027"><ele>876.0</ele><time>2026-04-19T09:33:17.373Z</time></trkpt><trkpt lat="39.0370854" lon="-2.8470675"><ele>876.3333333333334</ele><time>2026-04-19T09:33:18.372Z</time></trkpt><trkpt lat="39.0369876" lon="-2.8471134"><ele>876.6666666666667</ele><time>2026-04-19T09:33:19.371Z</time></trkpt><trkpt lat="39.0368913" lon="-2.8471653"><ele>877.0</ele><time>2026-04-19T09:33:20.366Z</time></trkpt><trkpt lat="39.0368118" lon="-2.8472127"><ele>877.3333333333334</ele><time>2026-04-19T09:33:21.365Z</time></trkpt><trkpt lat="39.0367417" lon="-2.8472385"><ele>877.6666666666667</ele><time>2026-04-19T09:33:22.363Z</time></trkpt><trkpt lat="39.036675" lon="-2.8472347"><ele>878.0</ele><time>2026-04-19T09:33:23.365Z</time></trkpt><trkpt lat="39.0365999" lon="-2.8472149"><ele>878.0</ele><time>2026-04-19T09:33:24.368Z</time></trkpt><trkpt lat="39.0365173" lon="-2.8471936"><ele>878.0</ele><time>2026-04-19T09:33:25.372Z</time></trkpt><trkpt lat="39.0364044" lon="-2.8471955"><ele>878.0</ele><time>2026-04-19T09:33:26.369Z</time></trkpt><trkpt lat="39.036278" lon="-2.8471976"><ele>878.0</ele><time>2026-04-19T09:33:27.371Z</time></trkpt><trkpt lat="39.0361479" lon="-2.8471881"><ele>878.0</ele><time>2026-04-19T09:33:28.375Z</time></trkpt><trkpt lat="39.0360268" lon="-2.8471792"><ele>878.0</ele><time>2026-04-19T09:33:29.365Z</time></trkpt><trkpt lat="39.0359184" lon="-2.8471711"><ele>878.0</ele><time>2026-04-19T09:33:30.37Z</time></trkpt><trkpt lat="39.0358315" lon="-2.8471769"><ele>878.0</ele><time>2026-04-19T09:33:31.367Z</time></trkpt><trkpt lat="39.0357562" lon="-2.8471952"><ele>878.0</ele><time>2026-04-19T09:33:32.374Z</time></trkpt><trkpt lat="39.035679" lon="-2.8472127"><ele>878.3333333333334</ele><time>2026-04-19T09:33:33.37Z</time></trkpt><trkpt lat="39.0355973" lon="-2.8472287"><ele>878.6666666666667</ele><time>2026-04-19T09:33:34.373Z</time></trkpt><trkpt lat="39.0355111" lon="-2.8472396"><ele>879.0</ele><time>2026-04-19T09:33:35.367Z</time></trkpt><trkpt lat="39.0354258" lon="-2.847248"><ele>879.3333333333333</ele><time>2026-04-19T09:33:36.376Z</time></trkpt><trkpt lat="39.0353416" lon="-2.8472417"><ele>879.6666666666666</ele><time>2026-04-19T09:33:37.368Z</time></trkpt><trkpt lat="39.0352683" lon="-2.8472314"><ele>880.0</ele><time>2026-04-19T09:33:38.372Z</time></trkpt><trkpt lat="39.0352006" lon="-2.8472291"><ele>880.0</ele><time>2026-04-19T09:33:39.37Z</time></trkpt><trkpt lat="39.0350911" lon="-2.8472623"><ele>880.0</ele><time>2026-04-19T09:33:41.365Z</time></trkpt><trkpt lat="39.0349761" lon="-2.8473452"><ele>880.0</ele><time>2026-04-19T09:33:43.37Z</time></trkpt><trkpt lat="39.0348968" lon="-2.8473838"><ele>880.0</ele><time>2026-04-19T09:33:44.363Z</time></trkpt><trkpt lat="39.0348011" lon="-2.847412"><ele>880.0</ele><time>2026-04-19T09:33:45.374Z</time></trkpt><trkpt lat="39.034701" lon="-2.8474314"><ele>880.4</ele><time>2026-04-19T09:33:46.371Z</time></trkpt><trkpt lat="39.0345943" lon="-2.8474528"><ele>880.8</ele><time>2026-04-19T09:33:47.369Z</time></trkpt><trkpt lat="39.0344833" lon="-2.8474554"><ele>881.2</ele><time>2026-04-19T09:33:48.37Z</time></trkpt><trkpt lat="39.0343824" lon="-2.8474549"><ele>881.6</ele><time>2026-04-19T09:33:49.373Z</time></trkpt><trkpt lat="39.034297" lon="-2.8474435"><ele>882.0</ele><time>2026-04-19T09:33:50.372Z</time></trkpt><trkpt lat="39.0342276" lon="-2.8474577"><ele>882.0</ele><time>2026-04-19T09:33:51.375Z</time></trkpt><trkpt lat="39.0341667" lon="-2.8474888"><ele>882.0</ele><time>2026-04-19T09:33:52.372Z</time></trkpt><trkpt lat="39.0340986" lon="-2.8475331"><ele>882.0</ele><time>2026-04-19T09:33:53.381Z</time></trkpt><trkpt lat="39.0340275" lon="-2.847571"><ele>882.0</ele><time>2026-04-19T09:33:54.37Z</time></trkpt><trkpt lat="39.0339384" lon="-2.8475873"><ele>882.0</ele><time>2026-04-19T09:33:55.376Z</time></trkpt><trkpt lat="39.033824" lon="-2.847594"><ele>882.0</ele><time>2026-04-19T09:33:56.372Z</time></trkpt><trkpt lat="39.0337054" lon="-2.8476096"><ele>884.0</ele><time>2026-04-19T09:33:57.375Z</time></trkpt><trkpt lat="39.0335768" lon="-2.8476273"><ele>886.0</ele><time>2026-04-19T09:33:58.372Z</time></trkpt><trkpt lat="39.0334594" lon="-2.8476472"><ele>888.0</ele><time>2026-04-19T09:33:59.373Z</time></trkpt><trkpt lat="39.033354" lon="-2.8476665"><ele>890.0</ele><time>2026-04-19T09:34:00.37Z</time></trkpt><trkpt lat="39.0332598" lon="-2.84769"><ele>890.0000000000001</ele><time>2026-04-19T09:34:01.366Z</time></trkpt><trkpt lat="39.0331736" lon="-2.8476987"><ele>890.0</ele><time>2026-04-19T09:34:02.368Z</time></trkpt><trkpt lat="39.0330936" lon="-2.8476848"><ele>890.0</ele><time>2026-04-19T09:34:03.366Z</time></trkpt><trkpt lat="39.0330154" lon="-2.8476708"><ele>890.0</ele><time>2026-04-19T09:34:04.371Z</time></trkpt><trkpt lat="39.0329436" lon="-2.8476747"><ele>890.0000000000001</ele><time>2026-04-19T09:34:05.366Z</time></trkpt><trkpt lat="39.0328736" lon="-2.8476915"><ele>890.0</ele><time>2026-04-19T09:34:06.37Z</time></trkpt><trkpt lat="39.0328003" lon="-2.8477212"><ele>890.0000000000001</ele><time>2026-04-19T09:34:07.371Z</time></trkpt><trkpt lat="39.032719" lon="-2.8477578"><ele>890.0</ele><time>2026-04-19T09:34:08.369Z</time></trkpt><trkpt lat="39.0326381" lon="-2.8477737"><ele>890.0</ele><time>2026-04-19T09:34:09.366Z</time></trkpt><trkpt lat="39.0325585" lon="-2.8477606"><ele>890.0</ele><time>2026-04-19T09:34:10.405Z</time></trkpt><trkpt lat="39.0324737" lon="-2.8477208"><ele>890.0000000000001</ele><time>2026-04-19T09:34:11.362Z</time></trkpt><trkpt lat="39.0323934" lon="-2.8476717"><ele>890.0</ele><time>2026-04-19T09:34:12.372Z</time></trkpt><trkpt lat="39.0323216" lon="-2.847628"><ele>890.0</ele><time>2026-04-19T09:34:13.365Z</time></trkpt><trkpt lat="39.0322525" lon="-2.8475957"><ele>890.0</ele><time>2026-04-19T09:34:14.371Z</time></trkpt><trkpt lat="39.0321794" lon="-2.847577"><ele>890.0</ele><time>2026-04-19T09:34:15.361Z</time></trkpt><trkpt lat="39.0320766" lon="-2.8475509"><ele>890.0</ele><time>2026-04-19T09:34:17.369Z</time></trkpt><trkpt lat="39.0319891" lon="-2.8475557"><ele>890.0</ele><time>2026-04-19T09:34:19.369Z</time></trkpt><trkpt lat="39.0318718" lon="-2.8475142"><ele>890.0000000000001</ele><time>2026-04-19T09:34:21.364Z</time></trkpt><trkpt lat="39.0318013" lon="-2.8474725"><ele>890.0</ele><time>2026-04-19T09:34:22.361Z</time></trkpt><trkpt lat="39.031732" lon="-2.8474373"><ele>890.0</ele><time>2026-04-19T09:34:23.371Z</time></trkpt><trkpt lat="39.0316596" lon="-2.8474095"><ele>890.0</ele><time>2026-04-19T09:34:24.368Z</time></trkpt><trkpt lat="39.0315869" lon="-2.8473827"><ele>890.0000000000001</ele><time>2026-04-19T09:34:25.363Z</time></trkpt><trkpt lat="39.0315092" lon="-2.8473656"><ele>890.0</ele><time>2026-04-19T09:34:26.37Z</time></trkpt><trkpt lat="39.0314306" lon="-2.847347"><ele>890.1666666666667</ele><time>2026-04-19T09:34:27.368Z</time></trkpt><trkpt lat="39.0313649" lon="-2.8473331"><ele>890.3333333333334</ele><time>2026-04-19T09:34:28.37Z</time></trkpt><trkpt lat="39.0313017" lon="-2.8473321"><ele>890.5</ele><time>2026-04-19T09:34:29.372Z</time></trkpt><trkpt lat="39.0312234" lon="-2.8473462"><ele>890.6666666666667</ele><time>2026-04-19T09:34:30.362Z</time></trkpt><trkpt lat="39.0311357" lon="-2.8473629"><ele>890.8333333333334</ele><time>2026-04-19T09:34:31.371Z</time></trkpt><trkpt lat="39.0310276" lon="-2.847398"><ele>891.0</ele><time>2026-04-19T09:34:32.373Z</time></trkpt><trkpt lat="39.0309314" lon="-2.8474321"><ele>891.0</ele><time>2026-04-19T09:34:33.372Z</time></trkpt><trkpt lat="39.030839" lon="-2.8474429"><ele>891.0</ele><time>2026-04-19T09:34:34.367Z</time></trkpt><trkpt lat="39.0307448" lon="-2.8474226"><ele>891.0</ele><time>2026-04-19T09:34:35.369Z</time></trkpt><trkpt lat="39.0306587" lon="-2.8474019"><ele>891.0</ele><time>2026-04-19T09:34:36.37Z</time></trkpt><trkpt lat="39.0305788" lon="-2.8473895"><ele>891.0</ele><time>2026-04-19T09:34:37.372Z</time></trkpt><trkpt lat="39.0305119" lon="-2.8473778"><ele>891.0</ele><time>2026-04-19T09:34:38.366Z</time></trkpt><trkpt lat="39.0304484" lon="-2.847376"><ele>891.4285714285714</ele><time>2026-04-19T09:34:39.373Z</time></trkpt><trkpt lat="39.0303792" lon="-2.8473831"><ele>891.8571428571429</ele><time>2026-04-19T09:34:40.368Z</time></trkpt><trkpt lat="39.0303163" lon="-2.8473882"><ele>892.2857142857142</ele><time>2026-04-19T09:34:41.367Z</time></trkpt><trkpt lat="39.0302442" lon="-2.8473862"><ele>892.7142857142858</ele><time>2026-04-19T09:34:42.375Z</time></trkpt><trkpt lat="39.0301663" lon="-2.8473823"><ele>893.1428571428571</ele><time>2026-04-19T09:34:43.374Z</time></trkpt><trkpt lat="39.0300844" lon="-2.8473833"><ele>893.5714285714286</ele><time>2026-04-19T09:34:44.367Z</time></trkpt><trkpt lat="39.0300135" lon="-2.8473883"><ele>894.0</ele><time>2026-04-19T09:34:45.375Z</time></trkpt><trkpt lat="39.0299474" lon="-2.8474063"><ele>894.8333333333334</ele><time>2026-04-19T09:34:46.384Z</time></trkpt><trkpt lat="39.0298803" lon="-2.8474372"><ele>895.6666666666667</ele><time>2026-04-19T09:34:47.368Z</time></trkpt><trkpt lat="39.0298053" lon="-2.8474693"><ele>896.5</ele><time>2026-04-19T09:34:48.375Z</time></trkpt><trkpt lat="39.0297282" lon="-2.8475002"><ele>897.3333333333334</ele><time>2026-04-19T09:34:49.375Z</time></trkpt><trkpt lat="39.0296377" lon="-2.8475176"><ele>898.1666666666667</ele><time>2026-04-19T09:34:50.372Z</time></trkpt><trkpt lat="39.0295568" lon="-2.8475375"><ele>899.0</ele><time>2026-04-19T09:34:51.369Z</time></trkpt><trkpt lat="39.0294954" lon="-2.8475973"><ele>898.8000000000001</ele><time>2026-04-19T09:34:52.37Z</time></trkpt><trkpt lat="39.0294416" lon="-2.8476868"><ele>898.6000000000001</ele><time>2026-04-19T09:34:53.373Z</time></trkpt><trkpt lat="39.029382" lon="-2.84779"><ele>898.4</ele><time>2026-04-19T09:34:54.365Z</time></trkpt><trkpt lat="39.0293009" lon="-2.8478929"><ele>898.2</ele><time>2026-04-19T09:34:55.375Z</time></trkpt><trkpt lat="39.0292092" lon="-2.8479926"><ele>898.0</ele><time>2026-04-19T09:34:56.375Z</time></trkpt><trkpt lat="39.0291147" lon="-2.8480963"><ele>899.0</ele><time>2026-04-19T09:34:57.375Z</time></trkpt><trkpt lat="39.0290173" lon="-2.8482025"><ele>900.0</ele><time>2026-04-19T09:34:58.37Z</time></trkpt><trkpt lat="39.0289138" lon="-2.848297"><ele>901.0</ele><time>2026-04-19T09:34:59.367Z</time></trkpt><trkpt lat="39.0288097" lon="-2.8483881"><ele>902.0</ele><time>2026-04-19T09:35:00.368Z</time></trkpt><trkpt lat="39.028721" lon="-2.8484825"><ele>902.0</ele><time>2026-04-19T09:35:01.376Z</time></trkpt><trkpt lat="39.0286422" lon="-2.8485859"><ele>902.0</ele><time>2026-04-19T09:35:02.367Z</time></trkpt><trkpt lat="39.0285645" lon="-2.8486833"><ele>902.0</ele><time>2026-04-19T09:35:03.366Z</time></trkpt><trkpt lat="39.0284764" lon="-2.8487706"><ele>902.0</ele><time>2026-04-19T09:35:04.372Z</time></trkpt><trkpt lat="39.0283704" lon="-2.8488555"><ele>902.5</ele><time>2026-04-19T09:35:05.382Z</time></trkpt><trkpt lat="39.0282569" lon="-2.8489352"><ele>903.0</ele><time>2026-04-19T09:35:06.367Z</time></trkpt><trkpt lat="39.0281459" lon="-2.8489997"><ele>903.5</ele><time>2026-04-19T09:35:07.368Z</time></trkpt><trkpt lat="39.0280412" lon="-2.8490512"><ele>904.0</ele><time>2026-04-19T09:35:08.371Z</time></trkpt><trkpt lat="39.0279338" lon="-2.849096"><ele>904.0</ele><time>2026-04-19T09:35:09.366Z</time></trkpt><trkpt lat="39.0278268" lon="-2.8491344"><ele>904.0000000000001</ele><time>2026-04-19T09:35:10.362Z</time></trkpt><trkpt lat="39.0277276" lon="-2.8491712"><ele>904.0000000000001</ele><time>2026-04-19T09:35:11.366Z</time></trkpt><trkpt lat="39.0276385" lon="-2.8492151"><ele>904.0</ele><time>2026-04-19T09:35:12.367Z</time></trkpt><trkpt lat="39.0275497" lon="-2.8492608"><ele>904.0</ele><time>2026-04-19T09:35:13.371Z</time></trkpt><trkpt lat="39.0274547" lon="-2.8493385"><ele>905.0</ele><time>2026-04-19T09:35:14.365Z</time></trkpt><trkpt lat="39.0273529" lon="-2.8494221"><ele>906.0</ele><time>2026-04-19T09:35:15.373Z</time></trkpt><trkpt lat="39.0272442" lon="-2.8495299"><ele>907.0</ele><time>2026-04-19T09:35:16.363Z</time></trkpt><trkpt lat="39.0271319" lon="-2.8496409"><ele>908.0</ele><time>2026-04-19T09:35:17.378Z</time></trkpt><trkpt lat="39.0270196" lon="-2.849749"><ele>908.0</ele><time>2026-04-19T09:35:18.363Z</time></trkpt><trkpt lat="39.0269081" lon="-2.8498477"><ele>908.0</ele><time>2026-04-19T09:35:19.368Z</time></trkpt><trkpt lat="39.0267906" lon="-2.8499391"><ele>908.0</ele><time>2026-04-19T09:35:20.363Z</time></trkpt><trkpt lat="39.0266595" lon="-2.8500198"><ele>908.0</ele><time>2026-04-19T09:35:21.37Z</time></trkpt><trkpt lat="39.026516" lon="-2.8500931"><ele>909.3333333333334</ele><time>2026-04-19T09:35:22.371Z</time></trkpt><trkpt lat="39.0263717" lon="-2.8501595"><ele>910.6666666666667</ele><time>2026-04-19T09:35:23.361Z</time></trkpt><trkpt lat="39.0262282" lon="-2.8502149"><ele>912.0</ele><time>2026-04-19T09:35:24.366Z</time></trkpt><trkpt lat="39.0260871" lon="-2.8502705"><ele>912.0</ele><time>2026-04-19T09:35:25.368Z</time></trkpt><trkpt lat="39.0259583" lon="-2.8503335"><ele>912.0</ele><time>2026-04-19T09:35:26.365Z</time></trkpt><trkpt lat="39.0258375" lon="-2.850401"><ele>912.0</ele><time>2026-04-19T09:35:27.362Z</time></trkpt><trkpt lat="39.0257064" lon="-2.8504717"><ele>912.0</ele><time>2026-04-19T09:35:28.359Z</time></trkpt><trkpt lat="39.0255909" lon="-2.8505289"><ele>912.8</ele><time>2026-04-19T09:35:29.365Z</time></trkpt><trkpt lat="39.0254805" lon="-2.8505676"><ele>913.6</ele><time>2026-04-19T09:35:30.362Z</time></trkpt><trkpt lat="39.0253865" lon="-2.8505964"><ele>914.3999999999999</ele><time>2026-04-19T09:35:31.37Z</time></trkpt><trkpt lat="39.0252921" lon="-2.8506081"><ele>915.1999999999999</ele><time>2026-04-19T09:35:32.365Z</time></trkpt><trkpt lat="39.0251912" lon="-2.8506175"><ele>916.0</ele><time>2026-04-19T09:35:33.366Z</time></trkpt><trkpt lat="39.0250945" lon="-2.850646"><ele>916.0</ele><time>2026-04-19T09:35:34.363Z</time></trkpt><trkpt lat="39.0249922" lon="-2.8506993"><ele>916.0</ele><time>2026-04-19T09:35:35.365Z</time></trkpt><trkpt lat="39.0248872" lon="-2.8507705"><ele>916.0</ele><time>2026-04-19T09:35:36.366Z</time></trkpt><trkpt lat="39.0247806" lon="-2.8508385"><ele>916.0</ele><time>2026-04-19T09:35:37.363Z</time></trkpt><trkpt lat="39.0246722" lon="-2.850889"><ele>916.5</ele><time>2026-04-19T09:35:38.366Z</time></trkpt><trkpt lat="39.0245571" lon="-2.8509257"><ele>917.0</ele><time>2026-04-19T09:35:39.372Z</time></trkpt><trkpt lat="39.0244362" lon="-2.8509607"><ele>917.5</ele><time>2026-04-19T09:35:40.363Z</time></trkpt><trkpt lat="39.0243095" lon="-2.8509957"><ele>918.0</ele><time>2026-04-19T09:35:41.368Z</time></trkpt><trkpt lat="39.0241836" lon="-2.8510311"><ele>919.25</ele><time>2026-04-19T09:35:42.367Z</time></trkpt><trkpt lat="39.0240437" lon="-2.8510899"><ele>920.5</ele><time>2026-04-19T09:35:43.369Z</time></trkpt><trkpt lat="39.0239015" lon="-2.8511641"><ele>921.75</ele><time>2026-04-19T09:35:44.367Z</time></trkpt><trkpt lat="39.0237752" lon="-2.8512409"><ele>923.0</ele><time>2026-04-19T09:35:45.371Z</time></trkpt><trkpt lat="39.0236557" lon="-2.851312"><ele>923.0</ele><time>2026-04-19T09:35:46.367Z</time></trkpt><trkpt lat="39.0235274" lon="-2.8513854"><ele>923.0</ele><time>2026-04-19T09:35:47.374Z</time></trkpt><trkpt lat="39.0233983" lon="-2.8514562"><ele>923.0</ele><time>2026-04-19T09:35:48.368Z</time></trkpt><trkpt lat="39.0232788" lon="-2.8515126"><ele>923.0</ele><time>2026-04-19T09:35:49.366Z</time></trkpt><trkpt lat="39.0231645" lon="-2.8515551"><ele>924.0</ele><time>2026-04-19T09:35:50.372Z</time></trkpt><trkpt lat="39.0230616" lon="-2.8515895"><ele>925.0</ele><time>2026-04-19T09:35:51.364Z</time></trkpt><trkpt lat="39.0229626" lon="-2.851614"><ele>926.0</ele><time>2026-04-19T09:35:52.377Z</time></trkpt><trkpt lat="39.0228746" lon="-2.8516298"><ele>927.0</ele><time>2026-04-19T09:35:53.379Z</time></trkpt><trkpt lat="39.0227887" lon="-2.8516332"><ele>928.0</ele><time>2026-04-19T09:35:54.368Z</time></trkpt><trkpt lat="39.0227051" lon="-2.8516482"><ele>927.9999999999999</ele><time>2026-04-19T09:35:55.367Z</time></trkpt><trkpt lat="39.0226375" lon="-2.8516554"><ele>928.0</ele><time>2026-04-19T09:35:56.37Z</time></trkpt><trkpt lat="39.0225256" lon="-2.8516532"><ele>928.0</ele><time>2026-04-19T09:35:58.364Z</time></trkpt><trkpt lat="39.0224527" lon="-2.851666"><ele>928.0</ele><time>2026-04-19T09:36:00.37Z</time></trkpt><trkpt lat="39.0223763" lon="-2.8516928"><ele>927.9999999999999</ele><time>2026-04-19T09:36:02.377Z</time></trkpt><trkpt lat="39.0223145" lon="-2.8517112"><ele>928.0</ele><time>2026-04-19T09:36:04.372Z</time></trkpt><trkpt lat="39.0222265" lon="-2.8516978"><ele>927.8333333333333</ele><time>2026-04-19T09:36:07.38Z</time></trkpt><trkpt lat="39.022162" lon="-2.8516684"><ele>927.6666666666666</ele><time>2026-04-19T09:36:09.37Z</time></trkpt><trkpt lat="39.0220763" lon="-2.851654"><ele>927.5</ele><time>2026-04-19T09:36:30.384Z</time></trkpt><trkpt lat="39.0219894" lon="-2.8516625"><ele>927.3333333333333</ele><time>2026-04-19T09:36:32.37Z</time></trkpt><trkpt lat="39.0218976" lon="-2.851679"><ele>927.1666666666666</ele><time>2026-04-19T09:36:34.379Z</time></trkpt><trkpt lat="39.0218055" lon="-2.8516747"><ele>927.0</ele><time>2026-04-19T09:36:36.382Z</time></trkpt><trkpt lat="39.021674" lon="-2.8516367"><ele>926.5714285714284</ele><time>2026-04-19T09:36:38.365Z</time></trkpt><trkpt lat="39.0215991" lon="-2.8516087"><ele>926.1428571428571</ele><time>2026-04-19T09:36:39.366Z</time></trkpt><trkpt lat="39.0215323" lon="-2.8515914"><ele>925.7142857142857</ele><time>2026-04-19T09:36:40.377Z</time></trkpt><trkpt lat="39.0214688" lon="-2.8515983"><ele>925.2857142857142</ele><time>2026-04-19T09:36:41.367Z</time></trkpt><trkpt lat="39.0214006" lon="-2.8516106"><ele>924.8571428571429</ele><time>2026-04-19T09:36:42.374Z</time></trkpt><trkpt lat="39.0213313" lon="-2.8516317"><ele>924.4285714285714</ele><time>2026-04-19T09:36:43.379Z</time></trkpt><trkpt lat="39.0212448" lon="-2.8516815"><ele>924.0</ele><time>2026-04-19T09:36:44.377Z</time></trkpt><trkpt lat="39.0211619" lon="-2.8517192"><ele>924.0</ele><time>2026-04-19T09:36:45.367Z</time></trkpt><trkpt lat="39.0210874" lon="-2.8517586"><ele>924.0000000000001</ele><time>2026-04-19T09:36:46.371Z</time></trkpt><trkpt lat="39.0210151" lon="-2.8517885"><ele>924.0000000000001</ele><time>2026-04-19T09:36:47.372Z</time></trkpt><trkpt lat="39.0209465" lon="-2.8518344"><ele>924.0</ele><time>2026-04-19T09:36:48.37Z</time></trkpt><trkpt lat="39.0208415" lon="-2.8519206"><ele>924.0</ele><time>2026-04-19T09:36:50.37Z</time></trkpt><trkpt lat="39.0207308" lon="-2.8519813"><ele>923.4000000000001</ele><time>2026-04-19T09:36:52.373Z</time></trkpt><trkpt lat="39.0206207" lon="-2.8520221"><ele>922.8000000000001</ele><time>2026-04-19T09:36:54.367Z</time></trkpt><trkpt lat="39.0205275" lon="-2.8520701"><ele>922.1999999999999</ele><time>2026-04-19T09:36:56.368Z</time></trkpt><trkpt lat="39.0204256" lon="-2.8520847"><ele>921.5999999999999</ele><time>2026-04-19T09:36:58.376Z</time></trkpt><trkpt lat="39.0203219" lon="-2.8520663"><ele>921.0</ele><time>2026-04-19T09:37:00.368Z</time></trkpt><trkpt lat="39.0202068" lon="-2.8520778"><ele>921.0</ele><time>2026-04-19T09:37:02.382Z</time></trkpt><trkpt lat="39.0201038" lon="-2.8521094"><ele>920.9999999999999</ele><time>2026-04-19T09:37:04.366Z</time></trkpt><trkpt lat="39.0200106" lon="-2.8521377"><ele>920.9999999999999</ele><time>2026-04-19T09:37:06.377Z</time></trkpt><trkpt lat="39.0199129" lon="-2.852176"><ele>921.0</ele><time>2026-04-19T09:37:08.369Z</time></trkpt><trkpt lat="39.0197924" lon="-2.8522261"><ele>921.0</ele><time>2026-04-19T09:37:10.364Z</time></trkpt><trkpt lat="39.0196775" lon="-2.8522857"><ele>920.6666666666666</ele><time>2026-04-19T09:37:12.374Z</time></trkpt><trkpt lat="39.0196133" lon="-2.8523215"><ele>920.3333333333333</ele><time>2026-04-19T09:37:13.368Z</time></trkpt><trkpt lat="39.0195456" lon="-2.8523537"><ele>920.0</ele><time>2026-04-19T09:37:14.37Z</time></trkpt><trkpt lat="39.0194686" lon="-2.8523878"><ele>919.6666666666666</ele><time>2026-04-19T09:37:15.373Z</time></trkpt><trkpt lat="39.0193894" lon="-2.8524129"><ele>919.3333333333333</ele><time>2026-04-19T09:37:16.371Z</time></trkpt><trkpt lat="39.0193002" lon="-2.8524407"><ele>919.0</ele><time>2026-04-19T09:37:17.378Z</time></trkpt><trkpt lat="39.0192157" lon="-2.8524524"><ele>918.4999999999999</ele><time>2026-04-19T09:37:18.371Z</time></trkpt><trkpt lat="39.0191441" lon="-2.8524559"><ele>918.0</ele><time>2026-04-19T09:37:19.372Z</time></trkpt><trkpt lat="39.0190658" lon="-2.8524542"><ele>917.5</ele><time>2026-04-19T09:37:20.376Z</time></trkpt><trkpt lat="39.018984" lon="-2.8524517"><ele>917.0</ele><time>2026-04-19T09:37:21.369Z</time></trkpt><trkpt lat="39.0189043" lon="-2.8524583"><ele>916.4999999999999</ele><time>2026-04-19T09:37:22.371Z</time></trkpt><trkpt lat="39.0188185" lon="-2.8524826"><ele>916.0</ele><time>2026-04-19T09:37:23.37Z</time></trkpt><trkpt lat="39.0187249" lon="-2.852536"><ele>916.0</ele><time>2026-04-19T09:37:24.369Z</time></trkpt><trkpt lat="39.0186127" lon="-2.8526009"><ele>916.0</ele><time>2026-04-19T09:37:25.369Z</time></trkpt><trkpt lat="39.0184746" lon="-2.8526798"><ele>916.0</ele><time>2026-04-19T09:37:26.371Z</time></trkpt><trkpt lat="39.0183524" lon="-2.852748"><ele>916.0</ele><time>2026-04-19T09:37:27.37Z</time></trkpt><trkpt lat="39.0182409" lon="-2.8528148"><ele>915.4</ele><time>2026-04-19T09:37:28.365Z</time></trkpt><trkpt lat="39.0181379" lon="-2.8528726"><ele>914.8</ele><time>2026-04-19T09:37:29.373Z</time></trkpt><trkpt lat="39.0180389" lon="-2.8529178"><ele>914.1999999999999</ele><time>2026-04-19T09:37:30.37Z</time></trkpt><trkpt lat="39.0179361" lon="-2.8529505"><ele>913.5999999999999</ele><time>2026-04-19T09:37:31.373Z</time></trkpt><trkpt lat="39.0178286" lon="-2.85297"><ele>913.0</ele><time>2026-04-19T09:37:32.364Z</time></trkpt><trkpt lat="39.0177299" lon="-2.8529744"><ele>913.0</ele><time>2026-04-19T09:37:33.372Z</time></trkpt><trkpt lat="39.0176359" lon="-2.8529709"><ele>913.0</ele><time>2026-04-19T09:37:34.374Z</time></trkpt><trkpt lat="39.0175347" lon="-2.8529678"><ele>913.0</ele><time>2026-04-19T09:37:35.373Z</time></trkpt><trkpt lat="39.0174384" lon="-2.8529671"><ele>913.0</ele><time>2026-04-19T09:37:36.375Z</time></trkpt><trkpt lat="39.0173471" lon="-2.852973"><ele>913.0</ele><time>2026-04-19T09:37:37.381Z</time></trkpt><trkpt lat="39.0172615" lon="-2.8529864"><ele>912.6666666666666</ele><time>2026-04-19T09:37:38.367Z</time></trkpt><trkpt lat="39.0171825" lon="-2.8530012"><ele>912.3333333333333</ele><time>2026-04-19T09:37:39.38Z</time></trkpt><trkpt lat="39.0171046" lon="-2.8530174"><ele>912.0</ele><time>2026-04-19T09:37:40.37Z</time></trkpt><trkpt lat="39.0170283" lon="-2.8530417"><ele>911.6666666666667</ele><time>2026-04-19T09:37:41.369Z</time></trkpt><trkpt lat="39.0169597" lon="-2.8530735"><ele>911.3333333333334</ele><time>2026-04-19T09:37:42.372Z</time></trkpt><trkpt lat="39.0168892" lon="-2.853115"><ele>911.0</ele><time>2026-04-19T09:37:43.388Z</time></trkpt><trkpt lat="39.0168145" lon="-2.8531737"><ele>911.0</ele><time>2026-04-19T09:37:44.373Z</time></trkpt><trkpt lat="39.0167354" lon="-2.8532398"><ele>910.9999999999999</ele><time>2026-04-19T09:37:45.372Z</time></trkpt><trkpt lat="39.016661" lon="-2.8533148"><ele>910.9999999999999</ele><time>2026-04-19T09:37:46.37Z</time></trkpt><trkpt lat="39.0165899" lon="-2.8533917"><ele>911.0</ele><time>2026-04-19T09:37:47.378Z</time></trkpt><trkpt lat="39.0165291" lon="-2.8534785"><ele>911.0</ele><time>2026-04-19T09:37:48.372Z</time></trkpt><trkpt lat="39.0164587" lon="-2.8535644"><ele>910.5999999999999</ele><time>2026-04-19T09:37:49.378Z</time></trkpt><trkpt lat="39.0163809" lon="-2.8536389"><ele>910.1999999999999</ele><time>2026-04-19T09:37:50.37Z</time></trkpt><trkpt lat="39.0162854" lon="-2.853712"><ele>909.8000000000001</ele><time>2026-04-19T09:37:51.369Z</time></trkpt><trkpt lat="39.0161945" lon="-2.8537807"><ele>909.4000000000001</ele><time>2026-04-19T09:37:52.377Z</time></trkpt><trkpt lat="39.0161051" lon="-2.8538455"><ele>909.0</ele><time>2026-04-19T09:37:53.373Z</time></trkpt><trkpt lat="39.0160109" lon="-2.8539041"><ele>909.0</ele><time>2026-04-19T09:37:54.367Z</time></trkpt><trkpt lat="39.0159254" lon="-2.8539595"><ele>909.0000000000001</ele><time>2026-04-19T09:37:55.372Z</time></trkpt><trkpt lat="39.0158381" lon="-2.8540088"><ele>909.0000000000001</ele><time>2026-04-19T09:37:56.369Z</time></trkpt><trkpt lat="39.0157461" lon="-2.8540668"><ele>909.0</ele><time>2026-04-19T09:37:57.381Z</time></trkpt><trkpt lat="39.0156641" lon="-2.8541371"><ele>909.0</ele><time>2026-04-19T09:37:58.368Z</time></trkpt><trkpt lat="39.0155917" lon="-2.8542124"><ele>908.6666666666666</ele><time>2026-04-19T09:37:59.367Z</time></trkpt><trkpt lat="39.0155277" lon="-2.8542797"><ele>908.3333333333333</ele><time>2026-04-19T09:38:00.37Z</time></trkpt><trkpt lat="39.0154699" lon="-2.8543368"><ele>908.0</ele><time>2026-04-19T09:38:01.368Z</time></trkpt><trkpt lat="39.0154155" lon="-2.8543888"><ele>907.6666666666666</ele><time>2026-04-19T09:38:02.37Z</time></trkpt><trkpt lat="39.0153495" lon="-2.8544357"><ele>907.3333333333333</ele><time>2026-04-19T09:38:03.368Z</time></trkpt><trkpt lat="39.0152745" lon="-2.8544789"><ele>907.0</ele><time>2026-04-19T09:38:04.367Z</time></trkpt><trkpt lat="39.0151923" lon="-2.8545227"><ele>907.0</ele><time>2026-04-19T09:38:05.374Z</time></trkpt><trkpt lat="39.0151057" lon="-2.8545711"><ele>907.0</ele><time>2026-04-19T09:38:06.375Z</time></trkpt><trkpt lat="39.0150106" lon="-2.8546287"><ele>907.0</ele><time>2026-04-19T09:38:07.384Z</time></trkpt><trkpt lat="39.0149088" lon="-2.8547006"><ele>907.0</ele><time>2026-04-19T09:38:08.369Z</time></trkpt><trkpt lat="39.0148016" lon="-2.8547838"><ele>907.0</ele><time>2026-04-19T09:38:09.369Z</time></trkpt><trkpt lat="39.0146924" lon="-2.8548668"><ele>906.75</ele><time>2026-04-19T09:38:10.366Z</time></trkpt><trkpt lat="39.014579" lon="-2.8549501"><ele>906.5</ele><time>2026-04-19T09:38:11.372Z</time></trkpt><trkpt lat="39.0144654" lon="-2.8550354"><ele>906.25</ele><time>2026-04-19T09:38:12.368Z</time></trkpt><trkpt lat="39.0143578" lon="-2.8551184"><ele>906.0</ele><time>2026-04-19T09:38:13.369Z</time></trkpt><trkpt lat="39.0142598" lon="-2.8552016"><ele>905.75</ele><time>2026-04-19T09:38:14.364Z</time></trkpt><trkpt lat="39.0141628" lon="-2.8552843"><ele>905.5</ele><time>2026-04-19T09:38:15.383Z</time></trkpt><trkpt lat="39.0140537" lon="-2.8553702"><ele>905.25</ele><time>2026-04-19T09:38:16.366Z</time></trkpt><trkpt lat="39.0139425" lon="-2.8554607"><ele>905.0</ele><time>2026-04-19T09:38:17.376Z</time></trkpt><trkpt lat="39.0138383" lon="-2.8555507"><ele>905.0</ele><time>2026-04-19T09:38:18.364Z</time></trkpt><trkpt lat="39.0137433" lon="-2.8556437"><ele>905.0</ele><time>2026-04-19T09:38:19.381Z</time></trkpt><trkpt lat="39.0136531" lon="-2.855736"><ele>905.0</ele><time>2026-04-19T09:38:20.37Z</time></trkpt><trkpt lat="39.013557" lon="-2.8558235"><ele>905.0</ele><time>2026-04-19T09:38:21.373Z</time></trkpt><trkpt lat="39.0134513" lon="-2.8559043"><ele>904.75</ele><time>2026-04-19T09:38:22.366Z</time></trkpt><trkpt lat="39.0133421" lon="-2.8559775"><ele>904.5</ele><time>2026-04-19T09:38:23.368Z</time></trkpt><trkpt lat="39.0132452" lon="-2.8560585"><ele>904.25</ele><time>2026-04-19T09:38:24.368Z</time></trkpt><trkpt lat="39.0131489" lon="-2.8561448"><ele>904.0</ele><time>2026-04-19T09:38:25.366Z</time></trkpt><trkpt lat="39.0130538" lon="-2.8562225"><ele>904.0</ele><time>2026-04-19T09:38:26.371Z</time></trkpt><trkpt lat="39.0129636" lon="-2.8562921"><ele>904.0000000000001</ele><time>2026-04-19T09:38:27.376Z</time></trkpt><trkpt lat="39.0128766" lon="-2.8563609"><ele>904.0000000000001</ele><time>2026-04-19T09:38:28.374Z</time></trkpt><trkpt lat="39.0127878" lon="-2.8564267"><ele>904.0</ele><time>2026-04-19T09:38:29.372Z</time></trkpt><trkpt lat="39.0126979" lon="-2.8564816"><ele>904.0</ele><time>2026-04-19T09:38:30.365Z</time></trkpt><trkpt lat="39.0126038" lon="-2.8565262"><ele>904.0</ele><time>2026-04-19T09:38:31.376Z</time></trkpt><trkpt lat="39.0125066" lon="-2.8565676"><ele>904.0000000000001</ele><time>2026-04-19T09:38:32.371Z</time></trkpt><trkpt lat="39.0124089" lon="-2.8566118"><ele>904.0000000000001</ele><time>2026-04-19T09:38:33.379Z</time></trkpt><trkpt lat="39.0123131" lon="-2.8566534"><ele>904.0</ele><time>2026-04-19T09:38:34.377Z</time></trkpt><trkpt lat="39.012221" lon="-2.8566898"><ele>904.0</ele><time>2026-04-19T09:38:35.364Z</time></trkpt><trkpt lat="39.0121346" lon="-2.8567322"><ele>903.6</ele><time>2026-04-19T09:38:36.377Z</time></trkpt><trkpt lat="39.0120516" lon="-2.8567811"><ele>903.2</ele><time>2026-04-19T09:38:37.369Z</time></trkpt><trkpt lat="39.0119713" lon="-2.856834"><ele>902.8000000000001</ele><time>2026-04-19T09:38:38.376Z</time></trkpt><trkpt lat="39.0118934" lon="-2.8568852"><ele>902.4000000000001</ele><time>2026-04-19T09:38:39.371Z</time></trkpt><trkpt lat="39.0118075" lon="-2.8569375"><ele>902.0</ele><time>2026-04-19T09:38:40.365Z</time></trkpt><trkpt lat="39.0117083" lon="-2.8569928"><ele>901.6</ele><time>2026-04-19T09:38:41.37Z</time></trkpt><trkpt lat="39.0116085" lon="-2.8570488"><ele>901.2</ele><time>2026-04-19T09:38:42.368Z</time></trkpt><trkpt lat="39.0115157" lon="-2.8571097"><ele>900.8</ele><time>2026-04-19T09:38:43.375Z</time></trkpt><trkpt lat="39.0114236" lon="-2.8571701"><ele>900.4</ele><time>2026-04-19T09:38:44.374Z</time></trkpt><trkpt lat="39.0113282" lon="-2.8572426"><ele>900.0</ele><time>2026-04-19T09:38:45.369Z</time></trkpt><trkpt lat="39.0112419" lon="-2.8573204"><ele>900.0</ele><time>2026-04-19T09:38:46.382Z</time></trkpt><trkpt lat="39.0111531" lon="-2.8573993"><ele>900.0</ele><time>2026-04-19T09:38:47.368Z</time></trkpt><trkpt lat="39.0110557" lon="-2.8574769"><ele>900.0</ele><time>2026-04-19T09:38:48.378Z</time></trkpt><trkpt lat="39.0109473" lon="-2.8575539"><ele>900.0</ele><time>2026-04-19T09:38:49.375Z</time></trkpt><trkpt lat="39.0108442" lon="-2.8576288"><ele>900.0</ele><time>2026-04-19T09:38:50.367Z</time></trkpt><trkpt lat="39.0107472" lon="-2.857703"><ele>900.0</ele><time>2026-04-19T09:38:51.371Z</time></trkpt><trkpt lat="39.0106484" lon="-2.8577769"><ele>900.0</ele><time>2026-04-19T09:38:52.369Z</time></trkpt><trkpt lat="39.0105478" lon="-2.8578488"><ele>900.0</ele><time>2026-04-19T09:38:53.375Z</time></trkpt><trkpt lat="39.0104499" lon="-2.8579194"><ele>900.0</ele><time>2026-04-19T09:38:54.37Z</time></trkpt><trkpt lat="39.0103475" lon="-2.8579868"><ele>900.0</ele><time>2026-04-19T09:38:55.376Z</time></trkpt><trkpt lat="39.0102448" lon="-2.8580473"><ele>900.0</ele><time>2026-04-19T09:38:56.371Z</time></trkpt><trkpt lat="39.0101501" lon="-2.8581118"><ele>900.0</ele><time>2026-04-19T09:38:57.375Z</time></trkpt><trkpt lat="39.0100598" lon="-2.8581914"><ele>900.0</ele><time>2026-04-19T09:38:58.37Z</time></trkpt><trkpt lat="39.0099669" lon="-2.8582851"><ele>900.0</ele><time>2026-04-19T09:38:59.373Z</time></trkpt><trkpt lat="39.0098774" lon="-2.8583761"><ele>900.0</ele><time>2026-04-19T09:39:00.368Z</time></trkpt><trkpt lat="39.0097929" lon="-2.8584618"><ele>900.0</ele><time>2026-04-19T09:39:01.376Z</time></trkpt><trkpt lat="39.0097148" lon="-2.8585491"><ele>900.0</ele><time>2026-04-19T09:39:02.372Z</time></trkpt><trkpt lat="39.0096399" lon="-2.8586376"><ele>900.0</ele><time>2026-04-19T09:39:03.371Z</time></trkpt><trkpt lat="39.009566" lon="-2.8587127"><ele>900.0</ele><time>2026-04-19T09:39:04.367Z</time></trkpt><trkpt lat="39.0094981" lon="-2.8587833"><ele>900.0</ele><time>2026-04-19T09:39:05.373Z</time></trkpt><trkpt lat="39.0094336" lon="-2.8588618"><ele>900.0</ele><time>2026-04-19T09:39:06.365Z</time></trkpt><trkpt lat="39.0093675" lon="-2.8589456"><ele>900.0</ele><time>2026-04-19T09:39:07.372Z</time></trkpt><trkpt lat="39.009291" lon="-2.859027"><ele>900.0</ele><time>2026-04-19T09:39:08.372Z</time></trkpt><trkpt lat="39.0092042" lon="-2.8591049"><ele>900.2</ele><time>2026-04-19T09:39:09.382Z</time></trkpt><trkpt lat="39.0091084" lon="-2.8591766"><ele>900.4</ele><time>2026-04-19T09:39:10.368Z</time></trkpt><trkpt lat="39.0090091" lon="-2.8592448"><ele>900.5999999999999</ele><time>2026-04-19T09:39:11.376Z</time></trkpt><trkpt lat="39.0089143" lon="-2.8593138"><ele>900.8</ele><time>2026-04-19T09:39:12.373Z</time></trkpt><trkpt lat="39.0088244" lon="-2.8593904"><ele>901.0</ele><time>2026-04-19T09:39:13.37Z</time></trkpt><trkpt lat="39.0087411" lon="-2.859469"><ele>901.1999999999999</ele><time>2026-04-19T09:39:14.373Z</time></trkpt><trkpt lat="39.0086651" lon="-2.8595485"><ele>901.3999999999999</ele><time>2026-04-19T09:39:15.368Z</time></trkpt><trkpt lat="39.0085931" lon="-2.8596331"><ele>901.6</ele><time>2026-04-19T09:39:16.367Z</time></trkpt><trkpt lat="39.0085232" lon="-2.8597138"><ele>901.8</ele><time>2026-04-19T09:39:17.379Z</time></trkpt><trkpt lat="39.0084502" lon="-2.8597894"><ele>902.0</ele><time>2026-04-19T09:39:18.375Z</time></trkpt><trkpt lat="39.0083709" lon="-2.8598567"><ele>902.0</ele><time>2026-04-19T09:39:19.37Z</time></trkpt><trkpt lat="39.0082873" lon="-2.8599181"><ele>902.0</ele><time>2026-04-19T09:39:20.366Z</time></trkpt><trkpt lat="39.0082023" lon="-2.8599783"><ele>902.0</ele><time>2026-04-19T09:39:21.385Z</time></trkpt><trkpt lat="39.008123" lon="-2.860035"><ele>902.0</ele><time>2026-04-19T09:39:22.369Z</time></trkpt><trkpt lat="39.0080457" lon="-2.860091"><ele>902.0</ele><time>2026-04-19T09:39:23.378Z</time></trkpt><trkpt lat="39.007974" lon="-2.8601498"><ele>901.6666666666667</ele><time>2026-04-19T09:39:24.368Z</time></trkpt><trkpt lat="39.0079056" lon="-2.8602153"><ele>901.3333333333334</ele><time>2026-04-19T09:39:25.376Z</time></trkpt><trkpt lat="39.0078374" lon="-2.8602869"><ele>901.0</ele><time>2026-04-19T09:39:26.372Z</time></trkpt><trkpt lat="39.007769" lon="-2.8603582"><ele>900.6666666666667</ele><time>2026-04-19T09:39:27.37Z</time></trkpt><trkpt lat="39.0077024" lon="-2.8604232"><ele>900.3333333333334</ele><time>2026-04-19T09:39:28.368Z</time></trkpt><trkpt lat="39.007645" lon="-2.8604941"><ele>900.0</ele><time>2026-04-19T09:39:29.38Z</time></trkpt><trkpt lat="39.0075964" lon="-2.8605658"><ele>900.0000000000001</ele><time>2026-04-19T09:39:30.372Z</time></trkpt><trkpt lat="39.0075522" lon="-2.8606379"><ele>900.0</ele><time>2026-04-19T09:39:31.372Z</time></trkpt><trkpt lat="39.0075118" lon="-2.8607071"><ele>900.0000000000001</ele><time>2026-04-19T09:39:32.368Z</time></trkpt><trkpt lat="39.0074694" lon="-2.8607769"><ele>900.0000000000001</ele><time>2026-04-19T09:39:33.371Z</time></trkpt><trkpt lat="39.0074055" lon="-2.8608273"><ele>900.0</ele><time>2026-04-19T09:39:34.373Z</time></trkpt><trkpt lat="39.0073346" lon="-2.8608668"><ele>900.0000000000001</ele><time>2026-04-19T09:39:35.377Z</time></trkpt><trkpt lat="39.0072618" lon="-2.8609016"><ele>900.0000000000001</ele><time>2026-04-19T09:39:36.374Z</time></trkpt><trkpt lat="39.0071901" lon="-2.8609348"><ele>899.5714285714287</ele><time>2026-04-19T09:39:37.387Z</time></trkpt><trkpt lat="39.0071151" lon="-2.8609634"><ele>899.1428571428571</ele><time>2026-04-19T09:39:38.374Z</time></trkpt><trkpt lat="39.0070455" lon="-2.8609986"><ele>898.7142857142858</ele><time>2026-04-19T09:39:39.37Z</time></trkpt><trkpt lat="39.006987" lon="-2.8610465"><ele>898.2857142857143</ele><time>2026-04-19T09:39:40.374Z</time></trkpt><trkpt lat="39.0069352" lon="-2.8610986"><ele>897.8571428571429</ele><time>2026-04-19T09:39:41.363Z</time></trkpt><trkpt lat="39.0068784" lon="-2.8611555"><ele>897.4285714285714</ele><time>2026-04-19T09:39:42.38Z</time></trkpt><trkpt lat="39.0068218" lon="-2.8612073"><ele>897.0</ele><time>2026-04-19T09:39:43.378Z</time></trkpt><trkpt lat="39.0067614" lon="-2.8612394"><ele>897.0</ele><time>2026-04-19T09:39:44.369Z</time></trkpt><trkpt lat="39.0066928" lon="-2.8612564"><ele>897.0</ele><time>2026-04-19T09:39:45.377Z</time></trkpt><trkpt lat="39.0066212" lon="-2.8612554"><ele>897.0</ele><time>2026-04-19T09:39:46.371Z</time></trkpt><trkpt lat="39.0065409" lon="-2.8612515"><ele>897.0</ele><time>2026-04-19T09:39:47.373Z</time></trkpt><trkpt lat="39.0064652" lon="-2.8612577"><ele>897.0</ele><time>2026-04-19T09:39:48.37Z</time></trkpt><trkpt lat="39.0063904" lon="-2.8612597"><ele>897.0</ele><time>2026-04-19T09:39:49.372Z</time></trkpt><trkpt lat="39.0063222" lon="-2.8612686"><ele>897.0</ele><time>2026-04-19T09:39:50.373Z</time></trkpt><trkpt lat="39.0062548" lon="-2.8612911"><ele>896.2</ele><time>2026-04-19T09:39:51.375Z</time></trkpt><trkpt lat="39.0061805" lon="-2.8613304"><ele>895.4000000000001</ele><time>2026-04-19T09:39:52.371Z</time></trkpt><trkpt lat="39.0061" lon="-2.8613879"><ele>894.5999999999999</ele><time>2026-04-19T09:39:53.381Z</time></trkpt><trkpt lat="39.0060158" lon="-2.8614488"><ele>893.8</ele><time>2026-04-19T09:39:54.367Z</time></trkpt><trkpt lat="39.0059354" lon="-2.8615044"><ele>893.0</ele><time>2026-04-19T09:39:55.374Z</time></trkpt><trkpt lat="39.0058481" lon="-2.8615412"><ele>892.4</ele><time>2026-04-19T09:39:56.379Z</time></trkpt><trkpt lat="39.0057569" lon="-2.8615752"><ele>891.8</ele><time>2026-04-19T09:39:57.373Z</time></trkpt><trkpt lat="39.005661" lon="-2.8616107"><ele>891.2</ele><time>2026-04-19T09:39:58.369Z</time></trkpt><trkpt lat="39.0055617" lon="-2.8616363"><ele>890.6</ele><time>2026-04-19T09:39:59.374Z</time></trkpt><trkpt lat="39.0054585" lon="-2.8616431"><ele>890.0</ele><time>2026-04-19T09:40:00.366Z</time></trkpt><trkpt lat="39.0053576" lon="-2.8616363"><ele>890.0000000000001</ele><time>2026-04-19T09:40:01.374Z</time></trkpt><trkpt lat="39.0052646" lon="-2.8616314"><ele>890.0</ele><time>2026-04-19T09:40:02.368Z</time></trkpt><trkpt lat="39.0051753" lon="-2.8616295"><ele>890.0</ele><time>2026-04-19T09:40:03.375Z</time></trkpt><trkpt lat="39.0050925" lon="-2.8616349"><ele>890.0</ele><time>2026-04-19T09:40:04.372Z</time></trkpt><trkpt lat="39.0050086" lon="-2.8616545"><ele>890.0000000000001</ele><time>2026-04-19T09:40:05.376Z</time></trkpt><trkpt lat="39.0049165" lon="-2.8616896"><ele>890.0</ele><time>2026-04-19T09:40:06.369Z</time></trkpt><trkpt lat="39.0048193" lon="-2.8617399"><ele>889.75</ele><time>2026-04-19T09:40:07.377Z</time></trkpt><trkpt lat="39.0047152" lon="-2.8617942"><ele>889.5</ele><time>2026-04-19T09:40:08.372Z</time></trkpt><trkpt lat="39.0046064" lon="-2.8618568"><ele>889.25</ele><time>2026-04-19T09:40:09.371Z</time></trkpt><trkpt lat="39.0044917" lon="-2.8619399"><ele>889.0</ele><time>2026-04-19T09:40:10.372Z</time></trkpt><trkpt lat="39.0043785" lon="-2.8620315"><ele>889.0</ele><time>2026-04-19T09:40:11.372Z</time></trkpt><trkpt lat="39.0042725" lon="-2.8621154"><ele>889.0</ele><time>2026-04-19T09:40:12.369Z</time></trkpt><trkpt lat="39.0041696" lon="-2.8621959"><ele>889.0</ele><time>2026-04-19T09:40:13.37Z</time></trkpt><trkpt lat="39.0040686" lon="-2.8622669"><ele>889.0</ele><time>2026-04-19T09:40:14.37Z</time></trkpt><trkpt lat="39.0039722" lon="-2.8623331"><ele>889.0</ele><time>2026-04-19T09:40:15.377Z</time></trkpt><trkpt lat="39.0038773" lon="-2.8623845"><ele>889.0</ele><time>2026-04-19T09:40:16.375Z</time></trkpt><trkpt lat="39.003784" lon="-2.8624549"><ele>889.0</ele><time>2026-04-19T09:40:17.374Z</time></trkpt><trkpt lat="39.0036858" lon="-2.8625387"><ele>889.0</ele><time>2026-04-19T09:40:18.375Z</time></trkpt><trkpt lat="39.0035812" lon="-2.8626314"><ele>889.75</ele><time>2026-04-19T09:40:19.371Z</time></trkpt><trkpt lat="39.0034822" lon="-2.8627363"><ele>890.5</ele><time>2026-04-19T09:40:20.379Z</time></trkpt><trkpt lat="39.0033814" lon="-2.8628443"><ele>891.25</ele><time>2026-04-19T09:40:21.383Z</time></trkpt><trkpt lat="39.0032896" lon="-2.8629447"><ele>892.0</ele><time>2026-04-19T09:40:22.372Z</time></trkpt><trkpt lat="39.0032026" lon="-2.863035"><ele>892.0</ele><time>2026-04-19T09:40:23.372Z</time></trkpt><trkpt lat="39.0031246" lon="-2.8631082"><ele>892.0</ele><time>2026-04-19T09:40:24.372Z</time></trkpt><trkpt lat="39.0030554" lon="-2.863172"><ele>892.0</ele><time>2026-04-19T09:40:25.38Z</time></trkpt><trkpt lat="39.0029778" lon="-2.8632114"><ele>892.0</ele><time>2026-04-19T09:40:26.376Z</time></trkpt><trkpt lat="39.0028898" lon="-2.863252"><ele>892.0</ele><time>2026-04-19T09:40:27.37Z</time></trkpt><trkpt lat="39.0028025" lon="-2.8632935"><ele>891.9999999999999</ele><time>2026-04-19T09:40:28.374Z</time></trkpt><trkpt lat="39.0027218" lon="-2.8633339"><ele>892.0</ele><time>2026-04-19T09:40:29.367Z</time></trkpt><trkpt lat="39.0026535" lon="-2.8633821"><ele>892.0</ele><time>2026-04-19T09:40:30.38Z</time></trkpt><trkpt lat="39.002579" lon="-2.8634216"><ele>892.0</ele><time>2026-04-19T09:40:31.37Z</time></trkpt><trkpt lat="39.0024923" lon="-2.8634521"><ele>891.9999999999999</ele><time>2026-04-19T09:40:32.373Z</time></trkpt><trkpt lat="39.0024016" lon="-2.8634761"><ele>892.0</ele><time>2026-04-19T09:40:33.377Z</time></trkpt><trkpt lat="39.0023144" lon="-2.8634865"><ele>892.0</ele><time>2026-04-19T09:40:34.374Z</time></trkpt><trkpt lat="39.0022214" lon="-2.8634937"><ele>892.0</ele><time>2026-04-19T09:40:35.37Z</time></trkpt><trkpt lat="39.0021354" lon="-2.8635045"><ele>892.0</ele><time>2026-04-19T09:40:36.373Z</time></trkpt><trkpt lat="39.0020531" lon="-2.8635349"><ele>892.0</ele><time>2026-04-19T09:40:37.373Z</time></trkpt><trkpt lat="39.0019683" lon="-2.8635943"><ele>892.0</ele><time>2026-04-19T09:40:38.377Z</time></trkpt><trkpt lat="39.0018833" lon="-2.8636675"><ele>892.0</ele><time>2026-04-19T09:40:39.367Z</time></trkpt><trkpt lat="39.0017896" lon="-2.8637315"><ele>892.0</ele><time>2026-04-19T09:40:40.375Z</time></trkpt><trkpt lat="39.0016881" lon="-2.8637849"><ele>892.0</ele><time>2026-04-19T09:40:41.367Z</time></trkpt><trkpt lat="39.0015841" lon="-2.8638238"><ele>892.0</ele><time>2026-04-19T09:40:42.376Z</time></trkpt><trkpt lat="39.0014845" lon="-2.8638551"><ele>892.0</ele><time>2026-04-19T09:40:43.368Z</time></trkpt><trkpt lat="39.0013789" lon="-2.8638861"><ele>891.5</ele><time>2026-04-19T09:40:44.379Z</time></trkpt><trkpt lat="39.0012681" lon="-2.8639235"><ele>891.0</ele><time>2026-04-19T09:40:45.376Z</time></trkpt><trkpt lat="39.0011534" lon="-2.8639704"><ele>890.5</ele><time>2026-04-19T09:40:46.37Z</time></trkpt><trkpt lat="39.0010357" lon="-2.8640258"><ele>890.0</ele><time>2026-04-19T09:40:47.37Z</time></trkpt><trkpt lat="39.0009176" lon="-2.8640807"><ele>889.75</ele><time>2026-04-19T09:40:48.373Z</time></trkpt><trkpt lat="39.0007966" lon="-2.8641302"><ele>889.5</ele><time>2026-04-19T09:40:49.373Z</time></trkpt><trkpt lat="39.0006798" lon="-2.8641848"><ele>889.25</ele><time>2026-04-19T09:40:50.377Z</time></trkpt><trkpt lat="39.0005683" lon="-2.8642386"><ele>889.0</ele><time>2026-04-19T09:40:51.375Z</time></trkpt><trkpt lat="39.0004664" lon="-2.8642983"><ele>888.75</ele><time>2026-04-19T09:40:52.371Z</time></trkpt><trkpt lat="39.0003594" lon="-2.86434"><ele>888.5</ele><time>2026-04-19T09:40:53.378Z</time></trkpt><trkpt lat="39.0002445" lon="-2.8643705"><ele>888.25</ele><time>2026-04-19T09:40:54.369Z</time></trkpt><trkpt lat="39.000129" lon="-2.8644024"><ele>888.0</ele><time>2026-04-19T09:40:55.377Z</time></trkpt><trkpt lat="39.0000069" lon="-2.8644447"><ele>888.0</ele><time>2026-04-19T09:40:56.377Z</time></trkpt><trkpt lat="38.9998862" lon="-2.8644884"><ele>888.0</ele><time>2026-04-19T09:40:57.376Z</time></trkpt><trkpt lat="38.9997588" lon="-2.8645326"><ele>888.0</ele><time>2026-04-19T09:40:58.37Z</time></trkpt><trkpt lat="38.9996352" lon="-2.8645839"><ele>888.0</ele><time>2026-04-19T09:40:59.375Z</time></trkpt><trkpt lat="38.9995119" lon="-2.8646544"><ele>888.0</ele><time>2026-04-19T09:41:00.372Z</time></trkpt><trkpt lat="38.999395" lon="-2.8647335"><ele>888.0</ele><time>2026-04-19T09:41:01.376Z</time></trkpt><trkpt lat="38.9992838" lon="-2.8648113"><ele>888.0</ele><time>2026-04-19T09:41:02.372Z</time></trkpt><trkpt lat="38.9991844" lon="-2.8648868"><ele>888.0</ele><time>2026-04-19T09:41:03.373Z</time></trkpt><trkpt lat="38.9990898" lon="-2.8649687"><ele>888.0</ele><time>2026-04-19T09:41:04.374Z</time></trkpt><trkpt lat="38.9990071" lon="-2.8650557"><ele>888.0</ele><time>2026-04-19T09:41:05.371Z</time></trkpt><trkpt lat="38.9989239" lon="-2.8651478"><ele>888.0</ele><time>2026-04-19T09:41:06.373Z</time></trkpt><trkpt lat="38.9988423" lon="-2.8652298"><ele>888.0</ele><time>2026-04-19T09:41:07.38Z</time></trkpt><trkpt lat="38.998756" lon="-2.8652972"><ele>888.0</ele><time>2026-04-19T09:41:08.374Z</time></trkpt><trkpt lat="38.998672" lon="-2.8653479"><ele>887.8</ele><time>2026-04-19T09:41:09.369Z</time></trkpt><trkpt lat="38.9985936" lon="-2.8653921"><ele>887.5999999999999</ele><time>2026-04-19T09:41:10.369Z</time></trkpt><trkpt lat="38.9985231" lon="-2.8654333"><ele>887.4000000000001</ele><time>2026-04-19T09:41:11.375Z</time></trkpt><trkpt lat="38.9984575" lon="-2.8654692"><ele>887.2</ele><time>2026-04-19T09:41:12.374Z</time></trkpt><trkpt lat="38.9983482" lon="-2.8655199"><ele>887.0</ele><time>2026-04-19T09:41:14.375Z</time></trkpt><trkpt lat="38.9982533" lon="-2.8655692"><ele>887.6</ele><time>2026-04-19T09:41:16.375Z</time></trkpt><trkpt lat="38.9981516" lon="-2.8656216"><ele>888.2</ele><time>2026-04-19T09:41:18.376Z</time></trkpt><trkpt lat="38.9980526" lon="-2.8656762"><ele>888.8</ele><time>2026-04-19T09:41:20.386Z</time></trkpt><trkpt lat="38.9979549" lon="-2.8657319"><ele>889.4</ele><time>2026-04-19T09:41:22.381Z</time></trkpt><trkpt lat="38.9978462" lon="-2.8657808"><ele>890.0</ele><time>2026-04-19T09:41:24.374Z</time></trkpt><trkpt lat="38.9977393" lon="-2.8658434"><ele>890.0000000000001</ele><time>2026-04-19T09:41:26.382Z</time></trkpt><trkpt lat="38.9976423" lon="-2.8659179"><ele>890.0</ele><time>2026-04-19T09:41:28.378Z</time></trkpt><trkpt lat="38.9975883" lon="-2.8659615"><ele>890.0</ele><time>2026-04-19T09:41:29.376Z</time></trkpt><trkpt lat="38.9975319" lon="-2.866012"><ele>890.0</ele><time>2026-04-19T09:41:30.375Z</time></trkpt><trkpt lat="38.9974722" lon="-2.8660646"><ele>890.0000000000001</ele><time>2026-04-19T09:41:31.373Z</time></trkpt><trkpt lat="38.9974131" lon="-2.8661153"><ele>890.0</ele><time>2026-04-19T09:41:32.372Z</time></trkpt><trkpt lat="38.9973576" lon="-2.8661711"><ele>889.1666666666667</ele><time>2026-04-19T09:41:33.374Z</time></trkpt><trkpt lat="38.9973096" lon="-2.8662261"><ele>888.3333333333334</ele><time>2026-04-19T09:41:34.376Z</time></trkpt><trkpt lat="38.9972474" lon="-2.8663068"><ele>887.5</ele><time>2026-04-19T09:41:36.381Z</time></trkpt><trkpt lat="38.9972059" lon="-2.8663699"><ele>886.6666666666667</ele><time>2026-04-19T09:41:38.369Z</time></trkpt><trkpt lat="38.9971541" lon="-2.8664416"><ele>885.8333333333334</ele><time>2026-04-19T09:41:40.374Z</time></trkpt><trkpt lat="38.9970918" lon="-2.8665281"><ele>885.0</ele><time>2026-04-19T09:41:42.372Z</time></trkpt><trkpt lat="38.9970083" lon="-2.8666391"><ele>885.0</ele><time>2026-04-19T09:41:44.377Z</time></trkpt><trkpt lat="38.9969123" lon="-2.8667434"><ele>885.0</ele><time>2026-04-19T09:41:46.365Z</time></trkpt><trkpt lat="38.9968456" lon="-2.8667877"><ele>885.0</ele><time>2026-04-19T09:41:47.373Z</time></trkpt><trkpt lat="38.9967798" lon="-2.8668243"><ele>885.0</ele><time>2026-04-19T09:41:48.402Z</time></trkpt><trkpt lat="38.9966747" lon="-2.8668838"><ele>885.0</ele><time>2026-04-19T09:41:50.372Z</time></trkpt><trkpt lat="38.9965981" lon="-2.8669383"><ele>884.8</ele><time>2026-04-19T09:41:52.385Z</time></trkpt><trkpt lat="38.9965245" lon="-2.8669864"><ele>884.6</ele><time>2026-04-19T09:41:54.371Z</time></trkpt><trkpt lat="38.9964412" lon="-2.8670114"><ele>884.4000000000001</ele><time>2026-04-19T09:41:56.369Z</time></trkpt><trkpt lat="38.9963469" lon="-2.8670328"><ele>884.2</ele><time>2026-04-19T09:41:58.375Z</time></trkpt><trkpt lat="38.9962472" lon="-2.8670332"><ele>884.0</ele><time>2026-04-19T09:42:00.371Z</time></trkpt><trkpt lat="38.9961601" lon="-2.8670221"><ele>884.0000000000001</ele><time>2026-04-19T09:42:02.376Z</time></trkpt><trkpt lat="38.9960927" lon="-2.8670066"><ele>884.0</ele><time>2026-04-19T09:42:04.377Z</time></trkpt><trkpt lat="38.9960095" lon="-2.866979"><ele>884.0</ele><time>2026-04-19T09:42:09.374Z</time></trkpt><trkpt lat="38.9959257" lon="-2.866976"><ele>884.0</ele><time>2026-04-19T09:42:11.378Z</time></trkpt><trkpt lat="38.9958025" lon="-2.8669897"><ele>884.0000000000001</ele><time>2026-04-19T09:42:13.373Z</time></trkpt><trkpt lat="38.9957246" lon="-2.8670182"><ele>884.0</ele><time>2026-04-19T09:42:14.375Z</time></trkpt><trkpt lat="38.9956377" lon="-2.8670654"><ele>882.25</ele><time>2026-04-19T09:42:15.369Z</time></trkpt><trkpt lat="38.9955432" lon="-2.8671358"><ele>880.5</ele><time>2026-04-19T09:42:16.366Z</time></trkpt><trkpt lat="38.9954375" lon="-2.8672363"><ele>878.75</ele><time>2026-04-19T09:42:17.375Z</time></trkpt><trkpt lat="38.9953187" lon="-2.8673512"><ele>877.0</ele><time>2026-04-19T09:42:18.367Z</time></trkpt><trkpt lat="38.9951777" lon="-2.867481"><ele>876.0</ele><time>2026-04-19T09:42:19.372Z</time></trkpt><trkpt lat="38.9950216" lon="-2.8676288"><ele>875.0</ele><time>2026-04-19T09:42:20.367Z</time></trkpt><trkpt lat="38.9948766" lon="-2.8677681"><ele>874.0</ele><time>2026-04-19T09:42:21.369Z</time></trkpt><trkpt lat="38.9947492" lon="-2.8678951"><ele>873.25</ele><time>2026-04-19T09:42:22.374Z</time></trkpt><trkpt lat="38.9946399" lon="-2.8680029"><ele>872.5</ele><time>2026-04-19T09:42:23.371Z</time></trkpt><trkpt lat="38.9945437" lon="-2.8680924"><ele>871.75</ele><time>2026-04-19T09:42:24.377Z</time></trkpt><trkpt lat="38.9944552" lon="-2.8681632"><ele>871.0</ele><time>2026-04-19T09:42:25.373Z</time></trkpt><trkpt lat="38.9943563" lon="-2.8682324"><ele>871.0</ele><time>2026-04-19T09:42:26.368Z</time></trkpt><trkpt lat="38.9942364" lon="-2.8683081"><ele>871.0</ele><time>2026-04-19T09:42:27.369Z</time></trkpt><trkpt lat="38.994108" lon="-2.8683887"><ele>871.0</ele><time>2026-04-19T09:42:28.375Z</time></trkpt><trkpt lat="38.9939837" lon="-2.8684706"><ele>871.0</ele><time>2026-04-19T09:42:29.372Z</time></trkpt><trkpt lat="38.9938596" lon="-2.8685573"><ele>870.5</ele><time>2026-04-19T09:42:30.375Z</time></trkpt><trkpt lat="38.993728" lon="-2.8686483"><ele>870.0</ele><time>2026-04-19T09:42:31.372Z</time></trkpt><trkpt lat="38.9936013" lon="-2.8687345"><ele>869.5</ele><time>2026-04-19T09:42:32.372Z</time></trkpt><trkpt lat="38.9934843" lon="-2.8688094"><ele>869.0</ele><time>2026-04-19T09:42:33.373Z</time></trkpt><trkpt lat="38.9933778" lon="-2.868887"><ele>869.25</ele><time>2026-04-19T09:42:34.375Z</time></trkpt><trkpt lat="38.9932762" lon="-2.8689717"><ele>869.5</ele><time>2026-04-19T09:42:35.366Z</time></trkpt><trkpt lat="38.9931753" lon="-2.8690661"><ele>869.75</ele><time>2026-04-19T09:42:36.384Z</time></trkpt><trkpt lat="38.9930627" lon="-2.8691754"><ele>870.0</ele><time>2026-04-19T09:42:37.37Z</time></trkpt><trkpt lat="38.9929306" lon="-2.8692883"><ele>870.0</ele><time>2026-04-19T09:42:38.372Z</time></trkpt><trkpt lat="38.9927996" lon="-2.8693929"><ele>870.0</ele><time>2026-04-19T09:42:39.373Z</time></trkpt><trkpt lat="38.9926631" lon="-2.8694978"><ele>870.0</ele><time>2026-04-19T09:42:40.375Z</time></trkpt><trkpt lat="38.992519" lon="-2.8696032"><ele>870.5</ele><time>2026-04-19T09:42:41.368Z</time></trkpt><trkpt lat="38.9923854" lon="-2.8697023"><ele>871.0</ele><time>2026-04-19T09:42:42.382Z</time></trkpt><trkpt lat="38.9922768" lon="-2.8697855"><ele>871.5</ele><time>2026-04-19T09:42:43.375Z</time></trkpt><trkpt lat="38.9921949" lon="-2.8698614"><ele>872.0</ele><time>2026-04-19T09:42:44.368Z</time></trkpt><trkpt lat="38.9921266" lon="-2.8699448"><ele>872.0</ele><time>2026-04-19T09:42:45.38Z</time></trkpt><trkpt lat="38.9920518" lon="-2.8700475"><ele>872.0</ele><time>2026-04-19T09:42:46.373Z</time></trkpt><trkpt lat="38.9919725" lon="-2.8701572"><ele>872.0</ele><time>2026-04-19T09:42:47.371Z</time></trkpt><trkpt lat="38.9918977" lon="-2.8702536"><ele>872.0</ele><time>2026-04-19T09:42:48.384Z</time></trkpt><trkpt lat="38.9918307" lon="-2.8703525"><ele>872.0</ele><time>2026-04-19T09:42:49.37Z</time></trkpt><trkpt lat="38.9917551" lon="-2.8704707"><ele>871.75</ele><time>2026-04-19T09:42:50.37Z</time></trkpt><trkpt lat="38.9916811" lon="-2.8706013"><ele>871.5</ele><time>2026-04-19T09:42:51.366Z</time></trkpt><trkpt lat="38.9916033" lon="-2.8707502"><ele>871.25</ele><time>2026-04-19T09:42:52.368Z</time></trkpt><trkpt lat="38.9915325" lon="-2.870896"><ele>871.0</ele><time>2026-04-19T09:42:53.374Z</time></trkpt><trkpt lat="38.9914613" lon="-2.8710353"><ele>869.75</ele><time>2026-04-19T09:42:54.366Z</time></trkpt><trkpt lat="38.9913913" lon="-2.8711584"><ele>868.5</ele><time>2026-04-19T09:42:55.379Z</time></trkpt><trkpt lat="38.9913194" lon="-2.8712787"><ele>867.25</ele><time>2026-04-19T09:42:56.371Z</time></trkpt><trkpt lat="38.9912372" lon="-2.8714069"><ele>866.0</ele><time>2026-04-19T09:42:57.374Z</time></trkpt><trkpt lat="38.9911643" lon="-2.871543"><ele>866.0</ele><time>2026-04-19T09:42:58.374Z</time></trkpt><trkpt lat="38.9910952" lon="-2.8716712"><ele>866.0</ele><time>2026-04-19T09:42:59.37Z</time></trkpt><trkpt lat="38.9910279" lon="-2.8717998"><ele>866.0</ele><time>2026-04-19T09:43:00.375Z</time></trkpt><trkpt lat="38.9909697" lon="-2.8719283"><ele>866.0</ele><time>2026-04-19T09:43:01.371Z</time></trkpt><trkpt lat="38.9909278" lon="-2.872055"><ele>865.5</ele><time>2026-04-19T09:43:02.37Z</time></trkpt><trkpt lat="38.9908948" lon="-2.8721936"><ele>865.0</ele><time>2026-04-19T09:43:03.379Z</time></trkpt><trkpt lat="38.990869" lon="-2.8723454"><ele>864.5</ele><time>2026-04-19T09:43:04.377Z</time></trkpt><trkpt lat="38.990841" lon="-2.8725067"><ele>864.0</ele><time>2026-04-19T09:43:05.374Z</time></trkpt><trkpt lat="38.9908111" lon="-2.8726682"><ele>865.25</ele><time>2026-04-19T09:43:06.373Z</time></trkpt><trkpt lat="38.9907832" lon="-2.8728277"><ele>866.5</ele><time>2026-04-19T09:43:07.373Z</time></trkpt><trkpt lat="38.9907562" lon="-2.8729787"><ele>867.75</ele><time>2026-04-19T09:43:08.376Z</time></trkpt><trkpt lat="38.9907369" lon="-2.8731193"><ele>869.0</ele><time>2026-04-19T09:43:09.374Z</time></trkpt><trkpt lat="38.9907224" lon="-2.8732436"><ele>869.0000000000001</ele><time>2026-04-19T09:43:10.371Z</time></trkpt><trkpt lat="38.9907025" lon="-2.8733553"><ele>869.0</ele><time>2026-04-19T09:43:11.378Z</time></trkpt><trkpt lat="38.9906733" lon="-2.8734615"><ele>869.0</ele><time>2026-04-19T09:43:12.381Z</time></trkpt><trkpt lat="38.9906389" lon="-2.8735624"><ele>869.0</ele><time>2026-04-19T09:43:13.376Z</time></trkpt><trkpt lat="38.9906043" lon="-2.8736542"><ele>869.0000000000001</ele><time>2026-04-19T09:43:14.384Z</time></trkpt><trkpt lat="38.9905651" lon="-2.8737413"><ele>869.0</ele><time>2026-04-19T09:43:15.378Z</time></trkpt><trkpt lat="38.9905188" lon="-2.8738332"><ele>868.8333333333334</ele><time>2026-04-19T09:43:16.375Z</time></trkpt><trkpt lat="38.9904733" lon="-2.8739275"><ele>868.6666666666667</ele><time>2026-04-19T09:43:17.374Z</time></trkpt><trkpt lat="38.9904237" lon="-2.8740169"><ele>868.5</ele><time>2026-04-19T09:43:18.373Z</time></trkpt><trkpt lat="38.9903702" lon="-2.874101"><ele>868.3333333333333</ele><time>2026-04-19T09:43:19.374Z</time></trkpt><trkpt lat="38.9903168" lon="-2.8741821"><ele>868.1666666666666</ele><time>2026-04-19T09:43:20.364Z</time></trkpt><trkpt lat="38.9902618" lon="-2.8742633"><ele>868.0</ele><time>2026-04-19T09:43:21.379Z</time></trkpt><trkpt lat="38.9902016" lon="-2.8743512"><ele>867.8</ele><time>2026-04-19T09:43:22.37Z</time></trkpt><trkpt lat="38.9901414" lon="-2.8744472"><ele>867.5999999999999</ele><time>2026-04-19T09:43:23.378Z</time></trkpt><trkpt lat="38.9900825" lon="-2.8745478"><ele>867.4000000000001</ele><time>2026-04-19T09:43:24.369Z</time></trkpt><trkpt lat="38.9900277" lon="-2.874653"><ele>867.2</ele><time>2026-04-19T09:43:25.372Z</time></trkpt><trkpt lat="38.9899694" lon="-2.874757"><ele>867.0</ele><time>2026-04-19T09:43:26.383Z</time></trkpt><trkpt lat="38.9899034" lon="-2.8748556"><ele>867.0</ele><time>2026-04-19T09:43:27.375Z</time></trkpt><trkpt lat="38.9898316" lon="-2.874951"><ele>867.0</ele><time>2026-04-19T09:43:28.378Z</time></trkpt><trkpt lat="38.989759" lon="-2.8750471"><ele>867.0</ele><time>2026-04-19T09:43:29.377Z</time></trkpt><trkpt lat="38.9896843" lon="-2.8751513"><ele>867.0</ele><time>2026-04-19T09:43:30.378Z</time></trkpt><trkpt lat="38.9896058" lon="-2.8752635"><ele>867.0</ele><time>2026-04-19T09:43:31.372Z</time></trkpt><trkpt lat="38.9895288" lon="-2.8753776"><ele>866.0</ele><time>2026-04-19T09:43:32.372Z</time></trkpt><trkpt lat="38.9894545" lon="-2.8754859"><ele>865.0</ele><time>2026-04-19T09:43:33.375Z</time></trkpt><trkpt lat="38.9893849" lon="-2.8755845"><ele>864.0</ele><time>2026-04-19T09:43:34.375Z</time></trkpt><trkpt lat="38.9893213" lon="-2.8756773"><ele>863.0</ele><time>2026-04-19T09:43:35.374Z</time></trkpt><trkpt lat="38.9892648" lon="-2.8757665"><ele>862.0</ele><time>2026-04-19T09:43:36.378Z</time></trkpt><trkpt lat="38.9892134" lon="-2.875851"><ele>862.0</ele><time>2026-04-19T09:43:37.386Z</time></trkpt><trkpt lat="38.9891626" lon="-2.8759309"><ele>862.0</ele><time>2026-04-19T09:43:38.376Z</time></trkpt><trkpt lat="38.9891074" lon="-2.8760203"><ele>862.0</ele><time>2026-04-19T09:43:39.373Z</time></trkpt><trkpt lat="38.9890448" lon="-2.8761279"><ele>862.0</ele><time>2026-04-19T09:43:40.378Z</time></trkpt><trkpt lat="38.9889715" lon="-2.8762524"><ele>862.0</ele><time>2026-04-19T09:43:41.377Z</time></trkpt><trkpt lat="38.9888907" lon="-2.8763873"><ele>862.0</ele><time>2026-04-19T09:43:42.381Z</time></trkpt><trkpt lat="38.9888131" lon="-2.876516"><ele>862.0</ele><time>2026-04-19T09:43:43.384Z</time></trkpt><trkpt lat="38.9887408" lon="-2.8766356"><ele>862.0</ele><time>2026-04-19T09:43:44.38Z</time></trkpt><trkpt lat="38.9886776" lon="-2.8767492"><ele>862.0</ele><time>2026-04-19T09:43:45.371Z</time></trkpt><trkpt lat="38.9886238" lon="-2.8768555"><ele>861.9999999999999</ele><time>2026-04-19T09:43:46.373Z</time></trkpt><trkpt lat="38.988574" lon="-2.8769507"><ele>862.0</ele><time>2026-04-19T09:43:47.372Z</time></trkpt><trkpt lat="38.9885236" lon="-2.8770382"><ele>862.0</ele><time>2026-04-19T09:43:48.378Z</time></trkpt><trkpt lat="38.9884696" lon="-2.8771194"><ele>862.0</ele><time>2026-04-19T09:43:49.379Z</time></trkpt><trkpt lat="38.9884091" lon="-2.8771962"><ele>861.9999999999999</ele><time>2026-04-19T09:43:50.371Z</time></trkpt><trkpt lat="38.9883434" lon="-2.8772647"><ele>862.0</ele><time>2026-04-19T09:43:51.369Z</time></trkpt><trkpt lat="38.9882682" lon="-2.8773281"><ele>862.0</ele><time>2026-04-19T09:43:52.37Z</time></trkpt><trkpt lat="38.9881826" lon="-2.8773875"><ele>862.0</ele><time>2026-04-19T09:43:53.374Z</time></trkpt><trkpt lat="38.9880972" lon="-2.8774458"><ele>862.0</ele><time>2026-04-19T09:43:54.367Z</time></trkpt><trkpt lat="38.9880185" lon="-2.8775067"><ele>862.0</ele><time>2026-04-19T09:43:55.37Z</time></trkpt><trkpt lat="38.9879434" lon="-2.8775692"><ele>862.0</ele><time>2026-04-19T09:43:56.367Z</time></trkpt><trkpt lat="38.9878641" lon="-2.877636"><ele>861.6</ele><time>2026-04-19T09:43:57.367Z</time></trkpt><trkpt lat="38.9877808" lon="-2.8776941"><ele>861.2</ele><time>2026-04-19T09:43:58.37Z</time></trkpt><trkpt lat="38.9876912" lon="-2.8777481"><ele>860.8</ele><time>2026-04-19T09:43:59.385Z</time></trkpt><trkpt lat="38.9875992" lon="-2.877814"><ele>860.4</ele><time>2026-04-19T09:44:00.373Z</time></trkpt><trkpt lat="38.9875172" lon="-2.8778819"><ele>860.0</ele><time>2026-04-19T09:44:01.38Z</time></trkpt><trkpt lat="38.9874368" lon="-2.8779547"><ele>860.0</ele><time>2026-04-19T09:44:02.377Z</time></trkpt><trkpt lat="38.9873519" lon="-2.8780401"><ele>860.0</ele><time>2026-04-19T09:44:03.377Z</time></trkpt><trkpt lat="38.9872594" lon="-2.878117"><ele>860.0</ele><time>2026-04-19T09:44:04.386Z</time></trkpt><trkpt lat="38.9871759" lon="-2.8781914"><ele>860.0</ele><time>2026-04-19T09:44:05.373Z</time></trkpt><trkpt lat="38.9870949" lon="-2.8782673"><ele>860.0</ele><time>2026-04-19T09:44:06.372Z</time></trkpt><trkpt lat="38.9870163" lon="-2.8783518"><ele>859.6</ele><time>2026-04-19T09:44:07.377Z</time></trkpt><trkpt lat="38.9869381" lon="-2.8784448"><ele>859.2</ele><time>2026-04-19T09:44:08.373Z</time></trkpt><trkpt lat="38.9868626" lon="-2.8785438"><ele>858.8</ele><time>2026-04-19T09:44:09.375Z</time></trkpt><trkpt lat="38.9867887" lon="-2.8786525"><ele>858.4</ele><time>2026-04-19T09:44:10.373Z</time></trkpt><trkpt lat="38.9867179" lon="-2.8787696"><ele>858.0</ele><time>2026-04-19T09:44:11.378Z</time></trkpt><trkpt lat="38.9866493" lon="-2.878889"><ele>858.0</ele><time>2026-04-19T09:44:12.372Z</time></trkpt><trkpt lat="38.9865755" lon="-2.8790084"><ele>858.0</ele><time>2026-04-19T09:44:13.378Z</time></trkpt><trkpt lat="38.9864896" lon="-2.8791186"><ele>858.0</ele><time>2026-04-19T09:44:14.368Z</time></trkpt><trkpt lat="38.986401" lon="-2.8792186"><ele>858.0</ele><time>2026-04-19T09:44:15.371Z</time></trkpt><trkpt lat="38.9863113" lon="-2.8793094"><ele>857.5999999999999</ele><time>2026-04-19T09:44:16.379Z</time></trkpt><trkpt lat="38.98623" lon="-2.8793873"><ele>857.1999999999999</ele><time>2026-04-19T09:44:17.375Z</time></trkpt><trkpt lat="38.986153" lon="-2.8794669"><ele>856.8</ele><time>2026-04-19T09:44:18.375Z</time></trkpt><trkpt lat="38.9860792" lon="-2.8795509"><ele>856.4</ele><time>2026-04-19T09:44:19.376Z</time></trkpt><trkpt lat="38.9860083" lon="-2.8796406"><ele>856.0</ele><time>2026-04-19T09:44:20.378Z</time></trkpt><trkpt lat="38.9859376" lon="-2.8797393"><ele>856.0</ele><time>2026-04-19T09:44:21.37Z</time></trkpt><trkpt lat="38.9858733" lon="-2.8798468"><ele>855.9999999999999</ele><time>2026-04-19T09:44:22.377Z</time></trkpt><trkpt lat="38.9858115" lon="-2.8799581"><ele>855.9999999999999</ele><time>2026-04-19T09:44:23.381Z</time></trkpt><trkpt lat="38.9857481" lon="-2.8800664"><ele>856.0</ele><time>2026-04-19T09:44:24.367Z</time></trkpt><trkpt lat="38.9856829" lon="-2.8801709"><ele>856.0</ele><time>2026-04-19T09:44:25.376Z</time></trkpt><trkpt lat="38.9856235" lon="-2.880264"><ele>856.4999999999999</ele><time>2026-04-19T09:44:26.37Z</time></trkpt><trkpt lat="38.9855663" lon="-2.8803495"><ele>857.0</ele><time>2026-04-19T09:44:27.378Z</time></trkpt><trkpt lat="38.9855135" lon="-2.8804307"><ele>857.5</ele><time>2026-04-19T09:44:28.375Z</time></trkpt><trkpt lat="38.985465" lon="-2.880509"><ele>858.0</ele><time>2026-04-19T09:44:29.374Z</time></trkpt><trkpt lat="38.985427" lon="-2.8805922"><ele>858.4999999999999</ele><time>2026-04-19T09:44:30.372Z</time></trkpt><trkpt lat="38.9853983" lon="-2.8806731"><ele>859.0</ele><time>2026-04-19T09:44:31.379Z</time></trkpt><trkpt lat="38.9853618" lon="-2.8808221"><ele>858.4000000000001</ele><time>2026-04-19T09:44:33.37Z</time></trkpt><trkpt lat="38.9853426" lon="-2.8809688"><ele>857.8000000000001</ele><time>2026-04-19T09:44:35.381Z</time></trkpt><trkpt lat="38.9852852" lon="-2.8811095"><ele>857.1999999999999</ele><time>2026-04-19T09:44:37.378Z</time></trkpt><trkpt lat="38.9852324" lon="-2.8811806"><ele>856.5999999999999</ele><time>2026-04-19T09:44:38.371Z</time></trkpt><trkpt lat="38.9851738" lon="-2.8812458"><ele>856.0</ele><time>2026-04-19T09:44:39.366Z</time></trkpt><trkpt lat="38.9851158" lon="-2.8813009"><ele>856.0000000000001</ele><time>2026-04-19T09:44:40.383Z</time></trkpt><trkpt lat="38.985059" lon="-2.8813493"><ele>856.0</ele><time>2026-04-19T09:44:41.374Z</time></trkpt><trkpt lat="38.9850039" lon="-2.8813955"><ele>856.0</ele><time>2026-04-19T09:44:42.376Z</time></trkpt><trkpt lat="38.9849438" lon="-2.8814446"><ele>856.0</ele><time>2026-04-19T09:44:43.385Z</time></trkpt><trkpt lat="38.9848805" lon="-2.881487"><ele>856.0</ele><time>2026-04-19T09:44:44.378Z</time></trkpt><trkpt lat="38.9848178" lon="-2.8815246"><ele>856.0000000000001</ele><time>2026-04-19T09:44:45.375Z</time></trkpt><trkpt lat="38.9847585" lon="-2.8815644"><ele>856.0</ele><time>2026-04-19T09:44:46.374Z</time></trkpt><trkpt lat="38.9847041" lon="-2.8816078"><ele>856.5714285714287</ele><time>2026-04-19T09:44:47.377Z</time></trkpt><trkpt lat="38.9846464" lon="-2.8816525"><ele>857.1428571428571</ele><time>2026-04-19T09:44:48.375Z</time></trkpt><trkpt lat="38.984586" lon="-2.8816976"><ele>857.7142857142858</ele><time>2026-04-19T09:44:49.375Z</time></trkpt><trkpt lat="38.9845248" lon="-2.8817347"><ele>858.2857142857143</ele><time>2026-04-19T09:44:50.37Z</time></trkpt><trkpt lat="38.9844623" lon="-2.8817683"><ele>858.8571428571429</ele><time>2026-04-19T09:44:51.377Z</time></trkpt><trkpt lat="38.9844028" lon="-2.8818052"><ele>859.4285714285714</ele><time>2026-04-19T09:44:52.383Z</time></trkpt><trkpt lat="38.9843436" lon="-2.8818432"><ele>860.0</ele><time>2026-04-19T09:44:53.378Z</time></trkpt><trkpt lat="38.9842355" lon="-2.8819123"><ele>859.25</ele><time>2026-04-19T09:44:55.378Z</time></trkpt><trkpt lat="38.9841213" lon="-2.8819738"><ele>858.5</ele><time>2026-04-19T09:44:57.375Z</time></trkpt><trkpt lat="38.9840028" lon="-2.8820259"><ele>857.75</ele><time>2026-04-19T09:44:59.381Z</time></trkpt><trkpt lat="38.9838919" lon="-2.8820539"><ele>857.0</ele><time>2026-04-19T09:45:01.368Z</time></trkpt><trkpt lat="38.9837802" lon="-2.8820577"><ele>857.0</ele><time>2026-04-19T09:45:03.374Z</time></trkpt><trkpt lat="38.9836642" lon="-2.8820489"><ele>857.0</ele><time>2026-04-19T09:45:05.371Z</time></trkpt><trkpt lat="38.9835661" lon="-2.8820365"><ele>857.0</ele><time>2026-04-19T09:45:07.376Z</time></trkpt><trkpt lat="38.9834742" lon="-2.8819758"><ele>857.0</ele><time>2026-04-19T09:45:09.374Z</time></trkpt><trkpt lat="38.9833773" lon="-2.8819253"><ele>857.0</ele><time>2026-04-19T09:45:11.374Z</time></trkpt><trkpt lat="38.9832899" lon="-2.8819073"><ele>855.6666666666667</ele><time>2026-04-19T09:45:13.367Z</time></trkpt><trkpt lat="38.9831892" lon="-2.8819469"><ele>854.3333333333334</ele><time>2026-04-19T09:45:15.374Z</time></trkpt><trkpt lat="38.9831397" lon="-2.8819971"><ele>853.0</ele><time>2026-04-19T09:45:16.373Z</time></trkpt><trkpt lat="38.9830855" lon="-2.8820429"><ele>851.6666666666667</ele><time>2026-04-19T09:45:17.375Z</time></trkpt><trkpt lat="38.9829807" lon="-2.8821333"><ele>850.3333333333334</ele><time>2026-04-19T09:45:19.371Z</time></trkpt><trkpt lat="38.9829246" lon="-2.8821859"><ele>849.0</ele><time>2026-04-19T09:45:20.371Z</time></trkpt><trkpt lat="38.9828776" lon="-2.8822431"><ele>849.0</ele><time>2026-04-19T09:45:21.37Z</time></trkpt><trkpt lat="38.9828295" lon="-2.8823068"><ele>849.0</ele><time>2026-04-19T09:45:22.37Z</time></trkpt><trkpt lat="38.9827741" lon="-2.8823746"><ele>849.0</ele><time>2026-04-19T09:45:23.369Z</time></trkpt><trkpt lat="38.9827122" lon="-2.8824431"><ele>849.0</ele><time>2026-04-19T09:45:24.371Z</time></trkpt><trkpt lat="38.9826469" lon="-2.8825069"><ele>849.0</ele><time>2026-04-19T09:45:25.371Z</time></trkpt><trkpt lat="38.9825821" lon="-2.8825674"><ele>849.0</ele><time>2026-04-19T09:45:26.372Z</time></trkpt><trkpt lat="38.9825196" lon="-2.8826272"><ele>847.0</ele><time>2026-04-19T09:45:27.369Z</time></trkpt><trkpt lat="38.9824551" lon="-2.8826892"><ele>845.0</ele><time>2026-04-19T09:45:28.372Z</time></trkpt><trkpt lat="38.9823868" lon="-2.8827572"><ele>843.0</ele><time>2026-04-19T09:45:29.37Z</time></trkpt><trkpt lat="38.9823217" lon="-2.8828322"><ele>841.0</ele><time>2026-04-19T09:45:30.372Z</time></trkpt><trkpt lat="38.9822586" lon="-2.8829065"><ele>839.0</ele><time>2026-04-19T09:45:31.377Z</time></trkpt><trkpt lat="38.9822023" lon="-2.8829863"><ele>837.0</ele><time>2026-04-19T09:45:32.377Z</time></trkpt><trkpt lat="38.9821495" lon="-2.8830636"><ele>837.0</ele><time>2026-04-19T09:45:33.366Z</time></trkpt><trkpt lat="38.9820986" lon="-2.88314"><ele>837.0</ele><time>2026-04-19T09:45:34.37Z</time></trkpt><trkpt lat="38.9820546" lon="-2.8832174"><ele>837.0</ele><time>2026-04-19T09:45:35.366Z</time></trkpt><trkpt lat="38.9820148" lon="-2.8832981"><ele>837.0</ele><time>2026-04-19T09:45:36.37Z</time></trkpt><trkpt lat="38.9819828" lon="-2.8833805"><ele>837.0</ele><time>2026-04-19T09:45:37.375Z</time></trkpt><trkpt lat="38.9819543" lon="-2.8834626"><ele>837.0</ele><time>2026-04-19T09:45:38.367Z</time></trkpt><trkpt lat="38.9819342" lon="-2.8835414"><ele>837.0</ele><time>2026-04-19T09:45:39.366Z</time></trkpt><trkpt lat="38.9818985" lon="-2.8836776"><ele>836.2</ele><time>2026-04-19T09:45:41.365Z</time></trkpt><trkpt lat="38.9818411" lon="-2.8838042"><ele>835.4000000000001</ele><time>2026-04-19T09:45:43.369Z</time></trkpt><trkpt lat="38.9817426" lon="-2.8839186"><ele>834.5999999999999</ele><time>2026-04-19T09:45:45.371Z</time></trkpt><trkpt lat="38.9816807" lon="-2.8839832"><ele>833.8</ele><time>2026-04-19T09:45:46.371Z</time></trkpt><trkpt lat="38.9816154" lon="-2.884047"><ele>833.0</ele><time>2026-04-19T09:45:47.37Z</time></trkpt><trkpt lat="38.9815471" lon="-2.8841072"><ele>832.6666666666667</ele><time>2026-04-19T09:45:48.367Z</time></trkpt><trkpt lat="38.9814788" lon="-2.8841669"><ele>832.3333333333334</ele><time>2026-04-19T09:45:49.368Z</time></trkpt><trkpt lat="38.9814096" lon="-2.8842298"><ele>832.0</ele><time>2026-04-19T09:45:50.363Z</time></trkpt><trkpt lat="38.9813397" lon="-2.884296"><ele>831.6666666666667</ele><time>2026-04-19T09:45:51.366Z</time></trkpt><trkpt lat="38.9812749" lon="-2.8843699"><ele>831.3333333333334</ele><time>2026-04-19T09:45:52.367Z</time></trkpt><trkpt lat="38.981211" lon="-2.8844547"><ele>831.0</ele><time>2026-04-19T09:45:53.363Z</time></trkpt><trkpt lat="38.981152" lon="-2.8845402"><ele>830.0</ele><time>2026-04-19T09:45:54.368Z</time></trkpt><trkpt lat="38.9810925" lon="-2.88462"><ele>829.0</ele><time>2026-04-19T09:45:55.37Z</time></trkpt><trkpt lat="38.981028" lon="-2.8846924"><ele>828.0</ele><time>2026-04-19T09:45:56.365Z</time></trkpt><trkpt lat="38.980955" lon="-2.8847707"><ele>827.0</ele><time>2026-04-19T09:45:57.365Z</time></trkpt><trkpt lat="38.9808767" lon="-2.8848539"><ele>826.0</ele><time>2026-04-19T09:45:58.366Z</time></trkpt><trkpt lat="38.9808018" lon="-2.8849341"><ele>826.0</ele><time>2026-04-19T09:45:59.366Z</time></trkpt><trkpt lat="38.980728" lon="-2.885008"><ele>826.0</ele><time>2026-04-19T09:46:00.367Z</time></trkpt><trkpt lat="38.9806462" lon="-2.8850773"><ele>826.0</ele><time>2026-04-19T09:46:01.369Z</time></trkpt><trkpt lat="38.9805519" lon="-2.8851451"><ele>826.0</ele><time>2026-04-19T09:46:02.367Z</time></trkpt><trkpt lat="38.9804537" lon="-2.8852039"><ele>826.0</ele><time>2026-04-19T09:46:03.368Z</time></trkpt><trkpt lat="38.9803623" lon="-2.8852529"><ele>825.8333333333333</ele><time>2026-04-19T09:46:04.37Z</time></trkpt><trkpt lat="38.980283" lon="-2.8852862"><ele>825.6666666666666</ele><time>2026-04-19T09:46:05.371Z</time></trkpt><trkpt lat="38.9802117" lon="-2.8853011"><ele>825.5</ele><time>2026-04-19T09:46:06.366Z</time></trkpt><trkpt lat="38.9801485" lon="-2.8853131"><ele>825.3333333333333</ele><time>2026-04-19T09:46:07.37Z</time></trkpt><trkpt lat="38.9800645" lon="-2.8853076"><ele>825.1666666666666</ele><time>2026-04-19T09:46:09.374Z</time></trkpt><trkpt lat="38.9799906" lon="-2.8852916"><ele>825.0</ele><time>2026-04-19T09:46:12.377Z</time></trkpt><trkpt lat="38.9799352" lon="-2.8853526"><ele>825.0</ele><time>2026-04-19T09:46:23.371Z</time></trkpt><trkpt lat="38.9799265" lon="-2.8854508"><ele>825.0</ele><time>2026-04-19T09:46:25.371Z</time></trkpt><trkpt lat="38.9799149" lon="-2.8855861"><ele>825.0</ele><time>2026-04-19T09:46:27.371Z</time></trkpt><trkpt lat="38.9798434" lon="-2.8856939"><ele>825.0</ele><time>2026-04-19T09:46:29.366Z</time></trkpt><trkpt lat="38.9797589" lon="-2.8857664"><ele>825.0</ele><time>2026-04-19T09:46:31.372Z</time></trkpt><trkpt lat="38.9796851" lon="-2.8857897"><ele>825.0</ele><time>2026-04-19T09:46:33.365Z</time></trkpt><trkpt lat="38.9796106" lon="-2.8857677"><ele>825.0</ele><time>2026-04-19T09:46:36.373Z</time></trkpt><trkpt lat="38.9795418" lon="-2.8857036"><ele>825.0</ele><time>2026-04-19T09:46:40.367Z</time></trkpt><trkpt lat="38.9794732" lon="-2.8856686"><ele>825.0</ele><time>2026-04-19T09:46:43.366Z</time></trkpt><trkpt lat="38.9793857" lon="-2.8856595"><ele>825.0</ele><time>2026-04-19T09:46:45.37Z</time></trkpt><trkpt lat="38.9792696" lon="-2.8856611"><ele>825.0</ele><time>2026-04-19T09:46:47.373Z</time></trkpt><trkpt lat="38.9791383" lon="-2.885673"><ele>823.7142857142857</ele><time>2026-04-19T09:46:49.366Z</time></trkpt><trkpt lat="38.9790653" lon="-2.8856779"><ele>822.4285714285714</ele><time>2026-04-19T09:46:50.369Z</time></trkpt><trkpt lat="38.9789902" lon="-2.8856814"><ele>821.1428571428571</ele><time>2026-04-19T09:46:51.364Z</time></trkpt><trkpt lat="38.9789174" lon="-2.8856874"><ele>819.8571428571429</ele><time>2026-04-19T09:46:52.368Z</time></trkpt><trkpt lat="38.9788457" lon="-2.8856928"><ele>818.5714285714287</ele><time>2026-04-19T09:46:53.365Z</time></trkpt><trkpt lat="38.9787744" lon="-2.8857061"><ele>817.2857142857143</ele><time>2026-04-19T09:46:54.367Z</time></trkpt><trkpt lat="38.9787038" lon="-2.8857203"><ele>816.0</ele><time>2026-04-19T09:46:55.365Z</time></trkpt><trkpt lat="38.9786412" lon="-2.8857322"><ele>816.0</ele><time>2026-04-19T09:46:56.364Z</time></trkpt><trkpt lat="38.9785571" lon="-2.8857573"><ele>816.0</ele><time>2026-04-19T09:46:58.367Z</time></trkpt><trkpt lat="38.9784976" lon="-2.8857903"><ele>816.0</ele><time>2026-04-19T09:47:00.37Z</time></trkpt><trkpt lat="38.9784402" lon="-2.8858587"><ele>816.0</ele><time>2026-04-19T09:48:19.377Z</time></trkpt><trkpt lat="38.9784108" lon="-2.885942"><ele>816.0</ele><time>2026-04-19T09:48:22.365Z</time></trkpt><trkpt lat="38.9783753" lon="-2.8860258"><ele>816.0</ele><time>2026-04-19T09:48:36.384Z</time></trkpt><trkpt lat="38.9783424" lon="-2.8861327"><ele>815.0</ele><time>2026-04-19T09:48:38.369Z</time></trkpt><trkpt lat="38.9783199" lon="-2.8862559"><ele>814.0</ele><time>2026-04-19T09:48:40.367Z</time></trkpt><trkpt lat="38.9783153" lon="-2.8863969"><ele>813.0</ele><time>2026-04-19T09:48:42.367Z</time></trkpt><trkpt lat="38.9783402" lon="-2.8865407"><ele>812.0</ele><time>2026-04-19T09:48:44.369Z</time></trkpt><trkpt lat="38.978407" lon="-2.8866578"><ele>811.0</ele><time>2026-04-19T09:48:46.376Z</time></trkpt><trkpt lat="38.9784915" lon="-2.8867415"><ele>810.5999999999999</ele><time>2026-04-19T09:48:48.371Z</time></trkpt><trkpt lat="38.9785443" lon="-2.8868479"><ele>810.2</ele><time>2026-04-19T09:48:50.369Z</time></trkpt><trkpt lat="38.9785602" lon="-2.8869356"><ele>809.8</ele><time>2026-04-19T09:48:51.369Z</time></trkpt><trkpt lat="38.978575" lon="-2.8870491"><ele>809.4000000000001</ele><time>2026-04-19T09:48:52.376Z</time></trkpt><trkpt lat="38.9785908" lon="-2.8871752"><ele>809.0</ele><time>2026-04-19T09:48:53.369Z</time></trkpt><trkpt lat="38.9786042" lon="-2.8873289"><ele>809.0000000000001</ele><time>2026-04-19T09:48:54.382Z</time></trkpt><trkpt lat="38.9786155" lon="-2.8874697"><ele>809.0</ele><time>2026-04-19T09:48:55.372Z</time></trkpt><trkpt lat="38.9786236" lon="-2.8875851"><ele>809.0</ele><time>2026-04-19T09:48:56.37Z</time></trkpt><trkpt lat="38.9786258" lon="-2.8876874"><ele>809.0</ele><time>2026-04-19T09:48:57.374Z</time></trkpt><trkpt lat="38.9786161" lon="-2.8877743"><ele>809.0000000000001</ele><time>2026-04-19T09:48:58.369Z</time></trkpt><trkpt lat="38.978588" lon="-2.8878795"><ele>809.0</ele><time>2026-04-19T09:48:59.362Z</time></trkpt><trkpt lat="38.9785558" lon="-2.8880097"><ele>809.3333333333334</ele><time>2026-04-19T09:49:00.37Z</time></trkpt><trkpt lat="38.978528" lon="-2.888144"><ele>809.6666666666667</ele><time>2026-04-19T09:49:01.369Z</time></trkpt><trkpt lat="38.9785113" lon="-2.8882697"><ele>810.0</ele><time>2026-04-19T09:49:02.378Z</time></trkpt><trkpt lat="38.9784966" lon="-2.8883855"><ele>810.3333333333333</ele><time>2026-04-19T09:49:03.373Z</time></trkpt><trkpt lat="38.9784807" lon="-2.8884848"><ele>810.6666666666666</ele><time>2026-04-19T09:49:04.37Z</time></trkpt><trkpt lat="38.9784631" lon="-2.8885657"><ele>811.0</ele><time>2026-04-19T09:49:05.376Z</time></trkpt><trkpt lat="38.9784421" lon="-2.8886432"><ele>810.9999999999999</ele><time>2026-04-19T09:49:06.375Z</time></trkpt><trkpt lat="38.9784211" lon="-2.8887224"><ele>811.0</ele><time>2026-04-19T09:49:07.367Z</time></trkpt><trkpt lat="38.9783472" lon="-2.8888552"><ele>811.0</ele><time>2026-04-19T09:49:09.371Z</time></trkpt><trkpt lat="38.9782668" lon="-2.8889137"><ele>811.0</ele><time>2026-04-19T09:49:11.37Z</time></trkpt><trkpt lat="38.9782034" lon="-2.8889372"><ele>810.9999999999999</ele><time>2026-04-19T09:49:13.371Z</time></trkpt><trkpt lat="38.9781289" lon="-2.8889717"><ele>811.0</ele><time>2026-04-19T09:49:16.372Z</time></trkpt><trkpt lat="38.9780572" lon="-2.88903"><ele>808.0</ele><time>2026-04-19T09:49:19.37Z</time></trkpt><trkpt lat="38.9779779" lon="-2.8890752"><ele>805.0</ele><time>2026-04-19T09:49:22.37Z</time></trkpt><trkpt lat="38.9779087" lon="-2.889136"><ele>802.0</ele><time>2026-04-19T09:49:24.373Z</time></trkpt><trkpt lat="38.9778252" lon="-2.8892239"><ele>799.0</ele><time>2026-04-19T09:49:26.368Z</time></trkpt><trkpt lat="38.977734" lon="-2.8893079"><ele>796.0</ele><time>2026-04-19T09:49:28.367Z</time></trkpt><trkpt lat="38.9776411" lon="-2.8893887"><ele>795.9999999999999</ele><time>2026-04-19T09:49:30.362Z</time></trkpt><trkpt lat="38.9775788" lon="-2.8894949"><ele>796.0</ele><time>2026-04-19T09:49:32.37Z</time></trkpt><trkpt lat="38.9775315" lon="-2.8896405"><ele>796.0</ele><time>2026-04-19T09:49:34.373Z</time></trkpt><trkpt lat="38.9775117" lon="-2.8897296"><ele>796.0</ele><time>2026-04-19T09:49:35.368Z</time></trkpt><trkpt lat="38.9774907" lon="-2.8898162"><ele>795.9999999999999</ele><time>2026-04-19T09:49:36.372Z</time></trkpt><trkpt lat="38.9774765" lon="-2.8899032"><ele>796.0</ele><time>2026-04-19T09:49:37.366Z</time></trkpt><trkpt lat="38.9774421" lon="-2.8900539"><ele>793.4999999999999</ele><time>2026-04-19T09:49:39.373Z</time></trkpt><trkpt lat="38.9773963" lon="-2.8901597"><ele>791.0</ele><time>2026-04-19T09:49:41.369Z</time></trkpt><trkpt lat="38.9773331" lon="-2.890203"><ele>788.5</ele><time>2026-04-19T09:49:47.366Z</time></trkpt><trkpt lat="38.9772953" lon="-2.8900972"><ele>786.0</ele><time>2026-04-19T09:49:50.375Z</time></trkpt><trkpt lat="38.977306" lon="-2.8900012"><ele>783.4999999999999</ele><time>2026-04-19T09:49:51.372Z</time></trkpt><trkpt lat="38.9773212" lon="-2.889885"><ele>781.0</ele><time>2026-04-19T09:49:52.372Z</time></trkpt><trkpt lat="38.9773349" lon="-2.8897409"><ele>781.0</ele><time>2026-04-19T09:49:53.372Z</time></trkpt><trkpt lat="38.9773496" lon="-2.8895715"><ele>781.0</ele><time>2026-04-19T09:49:54.364Z</time></trkpt><trkpt lat="38.977369" lon="-2.8893881"><ele>781.0</ele><time>2026-04-19T09:49:55.371Z</time></trkpt><trkpt lat="38.9773927" lon="-2.8891897"><ele>781.0</ele><time>2026-04-19T09:49:56.372Z</time></trkpt><trkpt lat="38.9774153" lon="-2.8889872"><ele>781.0</ele><time>2026-04-19T09:49:57.369Z</time></trkpt><trkpt lat="38.9774222" lon="-2.8887918"><ele>781.0</ele><time>2026-04-19T09:49:58.37Z</time></trkpt><trkpt lat="38.977397" lon="-2.8886105"><ele>781.0</ele><time>2026-04-19T09:49:59.372Z</time></trkpt><trkpt lat="38.9773438" lon="-2.8884383"><ele>781.0</ele><time>2026-04-19T09:50:00.368Z</time></trkpt><trkpt lat="38.9772745" lon="-2.8882859"><ele>781.0</ele><time>2026-04-19T09:50:01.369Z</time></trkpt><trkpt lat="38.9771965" lon="-2.8881377"><ele>781.0</ele><time>2026-04-19T09:50:02.371Z</time></trkpt><trkpt lat="38.9771343" lon="-2.8879718"><ele>781.0</ele><time>2026-04-19T09:50:03.367Z</time></trkpt><trkpt lat="38.9770921" lon="-2.8877917"><ele>781.0</ele><time>2026-04-19T09:50:04.369Z</time></trkpt><trkpt lat="38.97707" lon="-2.8876154"><ele>782.25</ele><time>2026-04-19T09:50:05.371Z</time></trkpt><trkpt lat="38.9770611" lon="-2.8874472"><ele>783.5</ele><time>2026-04-19T09:50:06.372Z</time></trkpt><trkpt lat="38.9770599" lon="-2.8872865"><ele>784.75</ele><time>2026-04-19T09:50:07.374Z</time></trkpt><trkpt lat="38.9770631" lon="-2.8871283"><ele>786.0</ele><time>2026-04-19T09:50:08.372Z</time></trkpt><trkpt lat="38.9770674" lon="-2.8869683"><ele>786.0</ele><time>2026-04-19T09:50:09.369Z</time></trkpt><trkpt lat="38.9770686" lon="-2.8867961"><ele>786.0</ele><time>2026-04-19T09:50:10.362Z</time></trkpt><trkpt lat="38.9770655" lon="-2.8866289"><ele>786.0</ele><time>2026-04-19T09:50:11.369Z</time></trkpt><trkpt lat="38.9770626" lon="-2.8864746"><ele>786.0</ele><time>2026-04-19T09:50:12.366Z</time></trkpt><trkpt lat="38.9770586" lon="-2.8863289"><ele>787.0</ele><time>2026-04-19T09:50:13.371Z</time></trkpt><trkpt lat="38.9770588" lon="-2.8861674"><ele>788.0</ele><time>2026-04-19T09:50:14.377Z</time></trkpt><trkpt lat="38.97705" lon="-2.8859985"><ele>789.0</ele><time>2026-04-19T09:50:15.371Z</time></trkpt><trkpt lat="38.9770379" lon="-2.8858211"><ele>790.0</ele><time>2026-04-19T09:50:16.371Z</time></trkpt><trkpt lat="38.9770333" lon="-2.8856561"><ele>790.0</ele><time>2026-04-19T09:50:17.376Z</time></trkpt><trkpt lat="38.9770347" lon="-2.8854976"><ele>790.0</ele><time>2026-04-19T09:50:18.369Z</time></trkpt><trkpt lat="38.977039" lon="-2.8853566"><ele>790.0</ele><time>2026-04-19T09:50:19.372Z</time></trkpt><trkpt lat="38.9770541" lon="-2.8852255"><ele>790.0</ele><time>2026-04-19T09:50:20.375Z</time></trkpt><trkpt lat="38.977073" lon="-2.885117"><ele>790.0</ele><time>2026-04-19T09:50:21.372Z</time></trkpt><trkpt lat="38.9770962" lon="-2.8850325"><ele>787.0</ele><time>2026-04-19T09:50:22.365Z</time></trkpt><trkpt lat="38.9771186" lon="-2.8849205"><ele>787.0</ele><time>2026-04-19T09:50:24.373Z</time></trkpt><trkpt lat="38.9771787" lon="-2.8848863"><ele>787.0</ele><time>2026-04-19T09:50:27.37Z</time></trkpt><trkpt lat="38.9772574" lon="-2.8849566"><ele>787.0</ele><time>2026-04-19T09:50:29.367Z</time></trkpt><trkpt lat="38.9773357" lon="-2.8849406"><ele>787.0</ele><time>2026-04-19T09:50:31.371Z</time></trkpt></trkseg><trkseg><trkpt lat="38.9772478" lon="-2.8849791"><ele>786.9999999999999</ele><time>2026-04-19T10:04:44.619Z</time></trkpt><trkpt lat="38.9771622" lon="-2.8849776"><ele>787.0</ele><time>2026-04-19T10:04:48.62Z</time></trkpt><trkpt lat="38.9771209" lon="-2.8849126"><ele>787.0</ele><time>2026-04-19T10:04:51.618Z</time></trkpt><trkpt lat="38.9771069" lon="-2.8848086"><ele>787.0</ele><time>2026-04-19T10:04:53.622Z</time></trkpt><trkpt lat="38.9771006" lon="-2.8846929"><ele>786.9999999999999</ele><time>2026-04-19T10:04:55.619Z</time></trkpt><trkpt lat="38.9770639" lon="-2.8845973"><ele>787.0</ele><time>2026-04-19T10:04:57.61Z</time></trkpt><trkpt lat="38.9770071" lon="-2.8845036"><ele>787.0</ele><time>2026-04-19T10:04:59.616Z</time></trkpt><trkpt lat="38.9769469" lon="-2.8844303"><ele>787.0</ele><time>2026-04-19T10:05:01.607Z</time></trkpt><trkpt lat="38.9768754" lon="-2.8844011"><ele>787.0</ele><time>2026-04-19T10:05:11.613Z</time></trkpt><trkpt lat="38.9768136" lon="-2.8844558"><ele>787.0</ele><time>2026-04-19T10:05:13.618Z</time></trkpt><trkpt lat="38.9767397" lon="-2.8845536"><ele>787.0</ele><time>2026-04-19T10:05:15.613Z</time></trkpt><trkpt lat="38.9766598" lon="-2.8846579"><ele>786.1666666666666</ele><time>2026-04-19T10:05:17.61Z</time></trkpt><trkpt lat="38.9765751" lon="-2.8847717"><ele>785.3333333333333</ele><time>2026-04-19T10:05:19.609Z</time></trkpt><trkpt lat="38.9765221" lon="-2.8848372"><ele>784.5</ele><time>2026-04-19T10:05:20.617Z</time></trkpt><trkpt lat="38.976458" lon="-2.8849068"><ele>783.6666666666667</ele><time>2026-04-19T10:05:21.607Z</time></trkpt><trkpt lat="38.9763893" lon="-2.8849733"><ele>782.8333333333334</ele><time>2026-04-19T10:05:22.615Z</time></trkpt><trkpt lat="38.9763261" lon="-2.885032"><ele>782.0</ele><time>2026-04-19T10:05:23.612Z</time></trkpt><trkpt lat="38.9762719" lon="-2.8850853"><ele>781.8333333333334</ele><time>2026-04-19T10:05:24.619Z</time></trkpt><trkpt lat="38.9762255" lon="-2.8851428"><ele>781.6666666666667</ele><time>2026-04-19T10:05:25.611Z</time></trkpt><trkpt lat="38.9761757" lon="-2.8852129"><ele>781.5</ele><time>2026-04-19T10:05:26.611Z</time></trkpt><trkpt lat="38.9761137" lon="-2.8852927"><ele>781.3333333333333</ele><time>2026-04-19T10:05:27.618Z</time></trkpt><trkpt lat="38.9760509" lon="-2.8853792"><ele>781.1666666666666</ele><time>2026-04-19T10:05:28.611Z</time></trkpt><trkpt lat="38.9759934" lon="-2.8854671"><ele>781.0</ele><time>2026-04-19T10:05:29.61Z</time></trkpt><trkpt lat="38.9759393" lon="-2.8855601"><ele>780.9999999999999</ele><time>2026-04-19T10:05:30.608Z</time></trkpt><trkpt lat="38.9758925" lon="-2.8856564"><ele>781.0</ele><time>2026-04-19T10:05:31.616Z</time></trkpt><trkpt lat="38.9758511" lon="-2.8857575"><ele>781.0</ele><time>2026-04-19T10:05:32.611Z</time></trkpt><trkpt lat="38.9758102" lon="-2.8858581"><ele>781.0</ele><time>2026-04-19T10:05:33.611Z</time></trkpt><trkpt lat="38.9757628" lon="-2.8859521"><ele>780.9999999999999</ele><time>2026-04-19T10:05:34.611Z</time></trkpt><trkpt lat="38.9757078" lon="-2.8860345"><ele>781.0</ele><time>2026-04-19T10:05:35.62Z</time></trkpt><trkpt lat="38.9756456" lon="-2.886105"><ele>782.3333333333333</ele><time>2026-04-19T10:05:36.62Z</time></trkpt><trkpt lat="38.975578" lon="-2.8861677"><ele>783.6666666666666</ele><time>2026-04-19T10:05:37.612Z</time></trkpt><trkpt lat="38.9755066" lon="-2.8862258"><ele>785.0</ele><time>2026-04-19T10:05:38.618Z</time></trkpt><trkpt lat="38.9754376" lon="-2.8862845"><ele>786.3333333333333</ele><time>2026-04-19T10:05:39.614Z</time></trkpt><trkpt lat="38.9753713" lon="-2.8863406"><ele>787.6666666666666</ele><time>2026-04-19T10:05:40.612Z</time></trkpt><trkpt lat="38.9753059" lon="-2.8863977"><ele>789.0</ele><time>2026-04-19T10:05:41.613Z</time></trkpt><trkpt lat="38.9752419" lon="-2.8864545"><ele>789.0</ele><time>2026-04-19T10:05:42.611Z</time></trkpt><trkpt lat="38.975173" lon="-2.8865125"><ele>789.0</ele><time>2026-04-19T10:05:43.612Z</time></trkpt><trkpt lat="38.9751006" lon="-2.8865694"><ele>789.0</ele><time>2026-04-19T10:05:44.609Z</time></trkpt><trkpt lat="38.9750267" lon="-2.886623"><ele>789.0</ele><time>2026-04-19T10:05:45.613Z</time></trkpt><trkpt lat="38.9749517" lon="-2.8866749"><ele>789.0</ele><time>2026-04-19T10:05:46.617Z</time></trkpt><trkpt lat="38.9748725" lon="-2.8867246"><ele>789.0</ele><time>2026-04-19T10:05:47.615Z</time></trkpt><trkpt lat="38.9747878" lon="-2.886774"><ele>788.6</ele><time>2026-04-19T10:05:48.611Z</time></trkpt><trkpt lat="38.9746996" lon="-2.8868207"><ele>788.2</ele><time>2026-04-19T10:05:49.615Z</time></trkpt><trkpt lat="38.9746166" lon="-2.8868688"><ele>787.8000000000001</ele><time>2026-04-19T10:05:50.613Z</time></trkpt><trkpt lat="38.9745419" lon="-2.886932"><ele>787.4000000000001</ele><time>2026-04-19T10:05:51.612Z</time></trkpt><trkpt lat="38.9744673" lon="-2.8870014"><ele>787.0</ele><time>2026-04-19T10:05:52.62Z</time></trkpt><trkpt lat="38.974381" lon="-2.8870591"><ele>787.0</ele><time>2026-04-19T10:05:53.615Z</time></trkpt><trkpt lat="38.9742845" lon="-2.8871002"><ele>787.0</ele><time>2026-04-19T10:05:54.619Z</time></trkpt><trkpt lat="38.9741841" lon="-2.8871306"><ele>787.0</ele><time>2026-04-19T10:05:55.615Z</time></trkpt><trkpt lat="38.974082" lon="-2.8871593"><ele>787.0</ele><time>2026-04-19T10:05:56.614Z</time></trkpt><trkpt lat="38.9739789" lon="-2.8871907"><ele>787.0</ele><time>2026-04-19T10:05:57.608Z</time></trkpt><trkpt lat="38.9738705" lon="-2.887227"><ele>787.25</ele><time>2026-04-19T10:05:58.612Z</time></trkpt><trkpt lat="38.9737604" lon="-2.8872791"><ele>787.5</ele><time>2026-04-19T10:05:59.615Z</time></trkpt><trkpt lat="38.9736544" lon="-2.8873525"><ele>787.75</ele><time>2026-04-19T10:06:00.615Z</time></trkpt><trkpt lat="38.9735567" lon="-2.8874474"><ele>788.0</ele><time>2026-04-19T10:06:01.613Z</time></trkpt><trkpt lat="38.9734652" lon="-2.8875582"><ele>787.25</ele><time>2026-04-19T10:06:02.617Z</time></trkpt><trkpt lat="38.9733794" lon="-2.8876849"><ele>786.5</ele><time>2026-04-19T10:06:03.613Z</time></trkpt><trkpt lat="38.9732954" lon="-2.8878209"><ele>785.75</ele><time>2026-04-19T10:06:04.621Z</time></trkpt><trkpt lat="38.973231" lon="-2.8879729"><ele>785.0</ele><time>2026-04-19T10:06:05.613Z</time></trkpt><trkpt lat="38.9731413" lon="-2.8881082"><ele>785.0</ele><time>2026-04-19T10:06:06.61Z</time></trkpt><trkpt lat="38.9730526" lon="-2.8882412"><ele>785.0</ele><time>2026-04-19T10:06:07.611Z</time></trkpt><trkpt lat="38.9729662" lon="-2.8883662"><ele>785.0</ele><time>2026-04-19T10:06:08.614Z</time></trkpt><trkpt lat="38.9728793" lon="-2.8884819"><ele>785.0</ele><time>2026-04-19T10:06:09.613Z</time></trkpt><trkpt lat="38.9727892" lon="-2.8885814"><ele>784.75</ele><time>2026-04-19T10:06:10.614Z</time></trkpt><trkpt lat="38.9726857" lon="-2.8886689"><ele>784.5</ele><time>2026-04-19T10:06:11.613Z</time></trkpt><trkpt lat="38.9725688" lon="-2.8887379"><ele>784.25</ele><time>2026-04-19T10:06:12.613Z</time></trkpt><trkpt lat="38.9724472" lon="-2.888795"><ele>784.0</ele><time>2026-04-19T10:06:13.613Z</time></trkpt><trkpt lat="38.9723253" lon="-2.8888449"><ele>784.0</ele><time>2026-04-19T10:06:14.616Z</time></trkpt><trkpt lat="38.972205" lon="-2.8888929"><ele>784.0</ele><time>2026-04-19T10:06:15.611Z</time></trkpt><trkpt lat="38.9720939" lon="-2.8889415"><ele>784.0</ele><time>2026-04-19T10:06:16.618Z</time></trkpt><trkpt lat="38.971997" lon="-2.8889822"><ele>784.0</ele><time>2026-04-19T10:06:17.607Z</time></trkpt><trkpt lat="38.9719144" lon="-2.8890109"><ele>784.0</ele><time>2026-04-19T10:06:18.618Z</time></trkpt><trkpt lat="38.9718416" lon="-2.8890371"><ele>784.0</ele><time>2026-04-19T10:06:19.615Z</time></trkpt><trkpt lat="38.9717759" lon="-2.8890589"><ele>784.0</ele><time>2026-04-19T10:06:20.619Z</time></trkpt><trkpt lat="38.9716558" lon="-2.8891071"><ele>784.0</ele><time>2026-04-19T10:06:22.613Z</time></trkpt><trkpt lat="38.9715477" lon="-2.8891602"><ele>784.0</ele><time>2026-04-19T10:06:24.617Z</time></trkpt><trkpt lat="38.9714924" lon="-2.8892261"><ele>784.0</ele><time>2026-04-19T10:06:26.614Z</time></trkpt><trkpt lat="38.9714643" lon="-2.8893052"><ele>784.4999999999999</ele><time>2026-04-19T10:06:29.61Z</time></trkpt><trkpt lat="38.9714211" lon="-2.8892349"><ele>785.0</ele><time>2026-04-19T10:06:47.623Z</time></trkpt><trkpt lat="38.9713298" lon="-2.8892473"><ele>785.5</ele><time>2026-04-19T10:06:50.617Z</time></trkpt><trkpt lat="38.9712335" lon="-2.8893273"><ele>786.0</ele><time>2026-04-19T10:06:52.612Z</time></trkpt><trkpt lat="38.9711738" lon="-2.8893694"><ele>786.4999999999999</ele><time>2026-04-19T10:06:53.614Z</time></trkpt><trkpt lat="38.9711097" lon="-2.8894284"><ele>787.0</ele><time>2026-04-19T10:06:54.616Z</time></trkpt><trkpt lat="38.9710503" lon="-2.8895118"><ele>787.4000000000001</ele><time>2026-04-19T10:06:55.616Z</time></trkpt><trkpt lat="38.9710005" lon="-2.8896163"><ele>787.8000000000001</ele><time>2026-04-19T10:06:56.611Z</time></trkpt><trkpt lat="38.9709659" lon="-2.8897294"><ele>788.2</ele><time>2026-04-19T10:06:57.61Z</time></trkpt><trkpt lat="38.970944" lon="-2.8898522"><ele>788.6</ele><time>2026-04-19T10:06:58.619Z</time></trkpt><trkpt lat="38.9709396" lon="-2.889981"><ele>789.0</ele><time>2026-04-19T10:06:59.614Z</time></trkpt><trkpt lat="38.9709579" lon="-2.8901081"><ele>790.4000000000001</ele><time>2026-04-19T10:07:00.628Z</time></trkpt><trkpt lat="38.9709946" lon="-2.8902284"><ele>791.8</ele><time>2026-04-19T10:07:01.612Z</time></trkpt><trkpt lat="38.9710453" lon="-2.890339"><ele>793.2</ele><time>2026-04-19T10:07:02.615Z</time></trkpt><trkpt lat="38.971118" lon="-2.8904354"><ele>794.5999999999999</ele><time>2026-04-19T10:07:03.617Z</time></trkpt><trkpt lat="38.9712076" lon="-2.8905118"><ele>796.0</ele><time>2026-04-19T10:07:04.616Z</time></trkpt><trkpt lat="38.9713011" lon="-2.8905827"><ele>796.0</ele><time>2026-04-19T10:07:05.61Z</time></trkpt><trkpt lat="38.9713898" lon="-2.8906644"><ele>796.0</ele><time>2026-04-19T10:07:06.62Z</time></trkpt><trkpt lat="38.9714694" lon="-2.8907704"><ele>796.0</ele><time>2026-04-19T10:07:07.612Z</time></trkpt><trkpt lat="38.9715399" lon="-2.8908965"><ele>796.0</ele><time>2026-04-19T10:07:08.612Z</time></trkpt><trkpt lat="38.9715978" lon="-2.8910373"><ele>797.75</ele><time>2026-04-19T10:07:09.621Z</time></trkpt><trkpt lat="38.9716353" lon="-2.891186"><ele>799.5</ele><time>2026-04-19T10:07:10.621Z</time></trkpt><trkpt lat="38.9716514" lon="-2.8913502"><ele>801.25</ele><time>2026-04-19T10:07:11.619Z</time></trkpt><trkpt lat="38.9716475" lon="-2.8915247"><ele>803.0</ele><time>2026-04-19T10:07:12.616Z</time></trkpt><trkpt lat="38.9716273" lon="-2.8917054"><ele>802.3333333333334</ele><time>2026-04-19T10:07:13.611Z</time></trkpt><trkpt lat="38.9715941" lon="-2.8918908"><ele>801.6666666666667</ele><time>2026-04-19T10:07:14.626Z</time></trkpt><trkpt lat="38.9715544" lon="-2.8920808"><ele>801.0</ele><time>2026-04-19T10:07:15.621Z</time></trkpt><trkpt lat="38.9715096" lon="-2.89227"><ele>801.0</ele><time>2026-04-19T10:07:16.62Z</time></trkpt><trkpt lat="38.9714573" lon="-2.8924503"><ele>801.0</ele><time>2026-04-19T10:07:17.621Z</time></trkpt><trkpt lat="38.9713985" lon="-2.8926209"><ele>801.0</ele><time>2026-04-19T10:07:18.619Z</time></trkpt><trkpt lat="38.9713375" lon="-2.8927844"><ele>801.0</ele><time>2026-04-19T10:07:19.621Z</time></trkpt><trkpt lat="38.9712784" lon="-2.8929452"><ele>801.25</ele><time>2026-04-19T10:07:20.622Z</time></trkpt><trkpt lat="38.9712312" lon="-2.8931089"><ele>801.5</ele><time>2026-04-19T10:07:21.625Z</time></trkpt><trkpt lat="38.9712062" lon="-2.8932756"><ele>801.75</ele><time>2026-04-19T10:07:22.624Z</time></trkpt><trkpt lat="38.9711989" lon="-2.8934421"><ele>802.0</ele><time>2026-04-19T10:07:23.624Z</time></trkpt><trkpt lat="38.971205" lon="-2.8936132"><ele>803.0</ele><time>2026-04-19T10:07:24.628Z</time></trkpt><trkpt lat="38.9712115" lon="-2.8937843"><ele>804.0</ele><time>2026-04-19T10:07:25.643Z</time></trkpt><trkpt lat="38.971238" lon="-2.8939574"><ele>805.0</ele><time>2026-04-19T10:07:26.634Z</time></trkpt><trkpt lat="38.9712578" lon="-2.8941413"><ele>806.0</ele><time>2026-04-19T10:07:27.619Z</time></trkpt><trkpt lat="38.9712632" lon="-2.8943362"><ele>808.3333333333334</ele><time>2026-04-19T10:07:28.614Z</time></trkpt><trkpt lat="38.971253" lon="-2.8945445"><ele>810.6666666666667</ele><time>2026-04-19T10:07:29.627Z</time></trkpt><trkpt lat="38.9712295" lon="-2.8947498"><ele>813.0</ele><time>2026-04-19T10:07:30.617Z</time></trkpt><trkpt lat="38.9711943" lon="-2.8949378"><ele>815.25</ele><time>2026-04-19T10:07:31.622Z</time></trkpt><trkpt lat="38.9711505" lon="-2.8951048"><ele>817.5</ele><time>2026-04-19T10:07:32.613Z</time></trkpt><trkpt lat="38.9711026" lon="-2.8952598"><ele>819.75</ele><time>2026-04-19T10:07:33.619Z</time></trkpt><trkpt lat="38.9710578" lon="-2.895399"><ele>822.0</ele><time>2026-04-19T10:07:34.614Z</time></trkpt><trkpt lat="38.9710219" lon="-2.8955169"><ele>822.0</ele><time>2026-04-19T10:07:35.62Z</time></trkpt><trkpt lat="38.9710008" lon="-2.8956072"><ele>822.0</ele><time>2026-04-19T10:07:36.624Z</time></trkpt><trkpt lat="38.9709751" lon="-2.895709"><ele>822.0</ele><time>2026-04-19T10:07:38.613Z</time></trkpt><trkpt lat="38.9709046" lon="-2.8957693"><ele>822.0</ele><time>2026-04-19T10:08:26.625Z</time></trkpt><trkpt lat="38.970807" lon="-2.8958968"><ele>822.0</ele><time>2026-04-19T10:08:28.635Z</time></trkpt><trkpt lat="38.9707426" lon="-2.895988"><ele>822.5</ele><time>2026-04-19T10:08:29.634Z</time></trkpt><trkpt lat="38.9706653" lon="-2.8960815"><ele>823.0</ele><time>2026-04-19T10:08:30.625Z</time></trkpt><trkpt lat="38.9705748" lon="-2.8961827"><ele>823.5</ele><time>2026-04-19T10:08:31.692Z</time></trkpt><trkpt lat="38.9704754" lon="-2.8963048"><ele>824.0</ele><time>2026-04-19T10:08:32.632Z</time></trkpt><trkpt lat="38.970371" lon="-2.8964402"><ele>824.0</ele><time>2026-04-19T10:08:33.629Z</time></trkpt><trkpt lat="38.9702581" lon="-2.8965814"><ele>824.0</ele><time>2026-04-19T10:08:34.634Z</time></trkpt><trkpt lat="38.9701293" lon="-2.896731"><ele>824.0</ele><time>2026-04-19T10:08:35.638Z</time></trkpt><trkpt lat="38.9699842" lon="-2.8968887"><ele>826.0</ele><time>2026-04-19T10:08:36.634Z</time></trkpt><trkpt lat="38.9698266" lon="-2.8970354"><ele>828.0</ele><time>2026-04-19T10:08:37.641Z</time></trkpt><trkpt lat="38.9696551" lon="-2.8971638"><ele>830.0</ele><time>2026-04-19T10:08:38.643Z</time></trkpt><trkpt lat="38.9694735" lon="-2.8972704"><ele>830.0</ele><time>2026-04-19T10:08:39.635Z</time></trkpt><trkpt lat="38.9692901" lon="-2.8973554"><ele>830.0</ele><time>2026-04-19T10:08:40.629Z</time></trkpt><trkpt lat="38.9690916" lon="-2.8974323"><ele>830.0</ele><time>2026-04-19T10:08:41.62Z</time></trkpt><trkpt lat="38.9688708" lon="-2.8974938"><ele>833.5</ele><time>2026-04-19T10:08:42.624Z</time></trkpt><trkpt lat="38.968632" lon="-2.8975579"><ele>837.0</ele><time>2026-04-19T10:08:43.631Z</time></trkpt><trkpt lat="38.9683906" lon="-2.8976438"><ele>839.0</ele><time>2026-04-19T10:08:44.648Z</time></trkpt><trkpt lat="38.968147" lon="-2.8977417"><ele>841.0</ele><time>2026-04-19T10:08:45.643Z</time></trkpt><trkpt lat="38.9678959" lon="-2.8978428"><ele>841.0</ele><time>2026-04-19T10:08:46.642Z</time></trkpt><trkpt lat="38.9676581" lon="-2.8979367"><ele>841.0</ele><time>2026-04-19T10:08:47.636Z</time></trkpt><trkpt lat="38.967429" lon="-2.8980237"><ele>844.0</ele><time>2026-04-19T10:08:48.634Z</time></trkpt><trkpt lat="38.9671903" lon="-2.8981103"><ele>847.0</ele><time>2026-04-19T10:08:49.641Z</time></trkpt><trkpt lat="38.9669391" lon="-2.8981997"><ele>851.0</ele><time>2026-04-19T10:08:50.641Z</time></trkpt><trkpt lat="38.966689" lon="-2.898293"><ele>855.0</ele><time>2026-04-19T10:08:51.633Z</time></trkpt><trkpt lat="38.966445" lon="-2.8983926"><ele>853.5</ele><time>2026-04-19T10:08:52.632Z</time></trkpt><trkpt lat="38.9662049" lon="-2.8984997"><ele>852.0</ele><time>2026-04-19T10:08:53.647Z</time></trkpt><trkpt lat="38.9659686" lon="-2.8986141"><ele>854.0</ele><time>2026-04-19T10:08:54.63Z</time></trkpt><trkpt lat="38.9657368" lon="-2.8987408"><ele>856.0</ele><time>2026-04-19T10:08:55.627Z</time></trkpt><trkpt lat="38.9655094" lon="-2.8988832"><ele>856.0</ele><time>2026-04-19T10:08:56.623Z</time></trkpt><trkpt lat="38.9652911" lon="-2.8990367"><ele>856.0</ele><time>2026-04-19T10:08:57.634Z</time></trkpt><trkpt lat="38.9650877" lon="-2.8991953"><ele>859.3333333333333</ele><time>2026-04-19T10:08:58.633Z</time></trkpt><trkpt lat="38.9648983" lon="-2.8993564"><ele>862.6666666666667</ele><time>2026-04-19T10:08:59.631Z</time></trkpt><trkpt lat="38.964721" lon="-2.8995207"><ele>866.0</ele><time>2026-04-19T10:09:00.619Z</time></trkpt><trkpt lat="38.9645497" lon="-2.8996937"><ele>866.0</ele><time>2026-04-19T10:09:01.638Z</time></trkpt><trkpt lat="38.9643858" lon="-2.8998757"><ele>866.0</ele><time>2026-04-19T10:09:02.628Z</time></trkpt><trkpt lat="38.9642287" lon="-2.9000655"><ele>866.0</ele><time>2026-04-19T10:09:03.618Z</time></trkpt><trkpt lat="38.964076" lon="-2.9002607"><ele>871.5</ele><time>2026-04-19T10:09:04.625Z</time></trkpt><trkpt lat="38.963928" lon="-2.9004623"><ele>877.0</ele><time>2026-04-19T10:09:05.633Z</time></trkpt><trkpt lat="38.963645" lon="-2.9008884"><ele>878.3333333333333</ele><time>2026-04-19T10:09:07.623Z</time></trkpt><trkpt lat="38.963506" lon="-2.9011092"><ele>879.6666666666667</ele><time>2026-04-19T10:09:08.626Z</time></trkpt><trkpt lat="38.9633677" lon="-2.9013387"><ele>881.0</ele><time>2026-04-19T10:09:09.621Z</time></trkpt><trkpt lat="38.9632251" lon="-2.90158"><ele>882.0</ele><time>2026-04-19T10:09:10.627Z</time></trkpt><trkpt lat="38.9630778" lon="-2.9018344"><ele>883.0</ele><time>2026-04-19T10:09:11.631Z</time></trkpt><trkpt lat="38.9629274" lon="-2.9020988"><ele>883.0</ele><time>2026-04-19T10:09:12.629Z</time></trkpt><trkpt lat="38.9627733" lon="-2.9023696"><ele>883.0</ele><time>2026-04-19T10:09:13.636Z</time></trkpt><trkpt lat="38.9626196" lon="-2.9026421"><ele>884.5</ele><time>2026-04-19T10:09:14.637Z</time></trkpt><trkpt lat="38.9624658" lon="-2.9029182"><ele>886.0</ele><time>2026-04-19T10:09:15.653Z</time></trkpt><trkpt lat="38.9623102" lon="-2.9031954"><ele>885.0</ele><time>2026-04-19T10:09:16.639Z</time></trkpt><trkpt lat="38.9621465" lon="-2.9034784"><ele>884.0</ele><time>2026-04-19T10:09:17.625Z</time></trkpt><trkpt lat="38.9619793" lon="-2.9037628"><ele>884.0</ele><time>2026-04-19T10:09:18.622Z</time></trkpt><trkpt lat="38.9618139" lon="-2.9040419"><ele>884.0</ele><time>2026-04-19T10:09:19.624Z</time></trkpt><trkpt lat="38.9616454" lon="-2.904318"><ele>886.5</ele><time>2026-04-19T10:09:20.622Z</time></trkpt><trkpt lat="38.9614694" lon="-2.9045926"><ele>889.0</ele><time>2026-04-19T10:09:21.627Z</time></trkpt><trkpt lat="38.9612834" lon="-2.9048672"><ele>889.5</ele><time>2026-04-19T10:09:22.625Z</time></trkpt><trkpt lat="38.961092" lon="-2.9051348"><ele>890.0</ele><time>2026-04-19T10:09:23.631Z</time></trkpt><trkpt lat="38.9608961" lon="-2.9053952"><ele>890.0</ele><time>2026-04-19T10:09:24.621Z</time></trkpt><trkpt lat="38.960695" lon="-2.9056477"><ele>890.0</ele><time>2026-04-19T10:09:25.633Z</time></trkpt><trkpt lat="38.9604976" lon="-2.9058837"><ele>890.0</ele><time>2026-04-19T10:09:26.625Z</time></trkpt><trkpt lat="38.9603058" lon="-2.9061022"><ele>890.0</ele><time>2026-04-19T10:09:27.624Z</time></trkpt><trkpt lat="38.9601092" lon="-2.9063159"><ele>889.0</ele><time>2026-04-19T10:09:28.622Z</time></trkpt><trkpt lat="38.9598996" lon="-2.9065326"><ele>888.0</ele><time>2026-04-19T10:09:29.63Z</time></trkpt><trkpt lat="38.959679" lon="-2.9067522"><ele>888.0</ele><time>2026-04-19T10:09:30.626Z</time></trkpt><trkpt lat="38.9594581" lon="-2.9069712"><ele>888.0</ele><time>2026-04-19T10:09:31.638Z</time></trkpt><trkpt lat="38.9592444" lon="-2.9071869"><ele>887.0</ele><time>2026-04-19T10:09:32.622Z</time></trkpt><trkpt lat="38.9590297" lon="-2.9074092"><ele>886.0</ele><time>2026-04-19T10:09:33.621Z</time></trkpt><trkpt lat="38.9588162" lon="-2.9076383"><ele>885.0</ele><time>2026-04-19T10:09:34.634Z</time></trkpt><trkpt lat="38.9586094" lon="-2.9078714"><ele>884.0</ele><time>2026-04-19T10:09:35.618Z</time></trkpt><trkpt lat="38.9584115" lon="-2.9081156"><ele>883.0</ele><time>2026-04-19T10:09:36.623Z</time></trkpt><trkpt lat="38.9582252" lon="-2.9083742"><ele>882.0</ele><time>2026-04-19T10:09:37.624Z</time></trkpt><trkpt lat="38.958051" lon="-2.9086473"><ele>880.0</ele><time>2026-04-19T10:09:38.625Z</time></trkpt><trkpt lat="38.9578755" lon="-2.908918"><ele>878.0</ele><time>2026-04-19T10:09:39.624Z</time></trkpt><trkpt lat="38.9577263" lon="-2.9092126"><ele>878.0</ele><time>2026-04-19T10:09:40.631Z</time></trkpt><trkpt lat="38.9575831" lon="-2.9095082"><ele>878.0</ele><time>2026-04-19T10:09:41.632Z</time></trkpt><trkpt lat="38.9574447" lon="-2.9098012"><ele>879.0</ele><time>2026-04-19T10:09:42.633Z</time></trkpt><trkpt lat="38.95731" lon="-2.9100869"><ele>880.0</ele><time>2026-04-19T10:09:43.634Z</time></trkpt><trkpt lat="38.9571849" lon="-2.9103574"><ele>880.0</ele><time>2026-04-19T10:09:44.628Z</time></trkpt><trkpt lat="38.9570681" lon="-2.9106141"><ele>880.0</ele><time>2026-04-19T10:09:45.634Z</time></trkpt><trkpt lat="38.9569552" lon="-2.9108553"><ele>881.0</ele><time>2026-04-19T10:09:46.636Z</time></trkpt><trkpt lat="38.9568504" lon="-2.9110818"><ele>882.0</ele><time>2026-04-19T10:09:47.629Z</time></trkpt><trkpt lat="38.9567542" lon="-2.9112835"><ele>883.0</ele><time>2026-04-19T10:09:48.642Z</time></trkpt><trkpt lat="38.9566683" lon="-2.9114576"><ele>883.0</ele><time>2026-04-19T10:09:49.632Z</time></trkpt><trkpt lat="38.9565959" lon="-2.9116063"><ele>883.0</ele><time>2026-04-19T10:09:50.637Z</time></trkpt><trkpt lat="38.9565408" lon="-2.91173"><ele>883.0</ele><time>2026-04-19T10:09:51.646Z</time></trkpt><trkpt lat="38.956496" lon="-2.9118289"><ele>883.0</ele><time>2026-04-19T10:09:52.632Z</time></trkpt><trkpt lat="38.9564686" lon="-2.9119034"><ele>883.0</ele><time>2026-04-19T10:09:53.629Z</time></trkpt><trkpt lat="38.9564687" lon="-2.9120079"><ele>883.4</ele><time>2026-04-19T10:09:55.64Z</time></trkpt><trkpt lat="38.9564645" lon="-2.9121252"><ele>883.8</ele><time>2026-04-19T10:09:57.644Z</time></trkpt><trkpt lat="38.9564391" lon="-2.9122033"><ele>884.2</ele><time>2026-04-19T10:09:58.645Z</time></trkpt><trkpt lat="38.9563588" lon="-2.912329"><ele>884.6</ele><time>2026-04-19T10:10:00.64Z</time></trkpt><trkpt lat="38.9562825" lon="-2.9124473"><ele>885.0</ele><time>2026-04-19T10:10:02.622Z</time></trkpt><trkpt lat="38.9562418" lon="-2.9125172"><ele>885.6</ele><time>2026-04-19T10:10:03.62Z</time></trkpt><trkpt lat="38.9561922" lon="-2.9126071"><ele>886.2</ele><time>2026-04-19T10:10:04.633Z</time></trkpt><trkpt lat="38.9561464" lon="-2.9127027"><ele>886.8</ele><time>2026-04-19T10:10:05.643Z</time></trkpt><trkpt lat="38.9560939" lon="-2.9128153"><ele>887.4</ele><time>2026-04-19T10:10:06.634Z</time></trkpt><trkpt lat="38.9560339" lon="-2.9129386"><ele>888.0</ele><time>2026-04-19T10:10:07.629Z</time></trkpt><trkpt lat="38.9559613" lon="-2.9130703"><ele>888.0</ele><time>2026-04-19T10:10:08.635Z</time></trkpt><trkpt lat="38.9558803" lon="-2.9132199"><ele>888.0</ele><time>2026-04-19T10:10:09.645Z</time></trkpt><trkpt lat="38.9558003" lon="-2.9133765"><ele>888.0</ele><time>2026-04-19T10:10:10.624Z</time></trkpt><trkpt lat="38.9557163" lon="-2.913552"><ele>888.0</ele><time>2026-04-19T10:10:11.648Z</time></trkpt><trkpt lat="38.9556295" lon="-2.913745"><ele>888.0</ele><time>2026-04-19T10:10:12.645Z</time></trkpt><trkpt lat="38.9555399" lon="-2.9139463"><ele>888.0</ele><time>2026-04-19T10:10:13.636Z</time></trkpt><trkpt lat="38.9554505" lon="-2.914147"><ele>888.0</ele><time>2026-04-19T10:10:14.631Z</time></trkpt><trkpt lat="38.9553667" lon="-2.9143328"><ele>888.6666666666667</ele><time>2026-04-19T10:10:15.629Z</time></trkpt><trkpt lat="38.9552811" lon="-2.9145107"><ele>889.3333333333334</ele><time>2026-04-19T10:10:16.629Z</time></trkpt><trkpt lat="38.9552003" lon="-2.9146892"><ele>890.0</ele><time>2026-04-19T10:10:17.631Z</time></trkpt><trkpt lat="38.9551212" lon="-2.914871"><ele>890.0</ele><time>2026-04-19T10:10:18.644Z</time></trkpt><trkpt lat="38.9550388" lon="-2.9150535"><ele>890.0</ele><time>2026-04-19T10:10:19.667Z</time></trkpt><trkpt lat="38.954954" lon="-2.9152337"><ele>890.0</ele><time>2026-04-19T10:10:20.642Z</time></trkpt><trkpt lat="38.9548702" lon="-2.9154233"><ele>891.0</ele><time>2026-04-19T10:10:21.646Z</time></trkpt><trkpt lat="38.9547944" lon="-2.9156126"><ele>892.0</ele><time>2026-04-19T10:10:22.648Z</time></trkpt><trkpt lat="38.9547207" lon="-2.9157949"><ele>893.0</ele><time>2026-04-19T10:10:23.645Z</time></trkpt><trkpt lat="38.9546385" lon="-2.9159765"><ele>893.3333333333334</ele><time>2026-04-19T10:10:24.632Z</time></trkpt><trkpt lat="38.9545516" lon="-2.9161623"><ele>893.6666666666667</ele><time>2026-04-19T10:10:25.625Z</time></trkpt><trkpt lat="38.9544662" lon="-2.9163493"><ele>894.0</ele><time>2026-04-19T10:10:26.645Z</time></trkpt><trkpt lat="38.9543823" lon="-2.9165361"><ele>894.0</ele><time>2026-04-19T10:10:27.643Z</time></trkpt><trkpt lat="38.9542926" lon="-2.9167196"><ele>894.0</ele><time>2026-04-19T10:10:28.645Z</time></trkpt><trkpt lat="38.9541885" lon="-2.9168955"><ele>894.0</ele><time>2026-04-19T10:10:29.639Z</time></trkpt><trkpt lat="38.9540694" lon="-2.9170638"><ele>894.0</ele><time>2026-04-19T10:10:30.667Z</time></trkpt><trkpt lat="38.9539406" lon="-2.9172215"><ele>894.0</ele><time>2026-04-19T10:10:31.645Z</time></trkpt><trkpt lat="38.953808" lon="-2.917368"><ele>894.0</ele><time>2026-04-19T10:10:32.636Z</time></trkpt><trkpt lat="38.9536711" lon="-2.9175115"><ele>893.6666666666667</ele><time>2026-04-19T10:10:33.644Z</time></trkpt><trkpt lat="38.9535369" lon="-2.9176607"><ele>893.3333333333334</ele><time>2026-04-19T10:10:34.643Z</time></trkpt><trkpt lat="38.953401" lon="-2.9178137"><ele>893.0</ele><time>2026-04-19T10:10:35.647Z</time></trkpt><trkpt lat="38.9532582" lon="-2.9179612"><ele>893.0</ele><time>2026-04-19T10:10:36.634Z</time></trkpt><trkpt lat="38.9531058" lon="-2.9181052"><ele>893.0</ele><time>2026-04-19T10:10:37.635Z</time></trkpt><trkpt lat="38.9529409" lon="-2.9182445"><ele>893.0</ele><time>2026-04-19T10:10:38.634Z</time></trkpt><trkpt lat="38.9527632" lon="-2.9183776"><ele>893.0</ele><time>2026-04-19T10:10:39.635Z</time></trkpt><trkpt lat="38.9525778" lon="-2.918507"><ele>893.0</ele><time>2026-04-19T10:10:40.644Z</time></trkpt><trkpt lat="38.9523935" lon="-2.9186414"><ele>893.0</ele><time>2026-04-19T10:10:41.635Z</time></trkpt><trkpt lat="38.9522125" lon="-2.9187783"><ele>893.0</ele><time>2026-04-19T10:10:42.631Z</time></trkpt><trkpt lat="38.9520335" lon="-2.9189146"><ele>893.0</ele><time>2026-04-19T10:10:43.64Z</time></trkpt><trkpt lat="38.9518541" lon="-2.9190464"><ele>893.0</ele><time>2026-04-19T10:10:44.635Z</time></trkpt><trkpt lat="38.9516801" lon="-2.9191739"><ele>894.3333333333334</ele><time>2026-04-19T10:10:45.633Z</time></trkpt><trkpt lat="38.9515165" lon="-2.9192982"><ele>895.6666666666667</ele><time>2026-04-19T10:10:46.627Z</time></trkpt><trkpt lat="38.9513616" lon="-2.9194148"><ele>897.0</ele><time>2026-04-19T10:10:47.633Z</time></trkpt><trkpt lat="38.9512128" lon="-2.9195201"><ele>897.0</ele><time>2026-04-19T10:10:48.635Z</time></trkpt><trkpt lat="38.9510726" lon="-2.9196207"><ele>897.0</ele><time>2026-04-19T10:10:49.634Z</time></trkpt><trkpt lat="38.9509429" lon="-2.9197218"><ele>897.0</ele><time>2026-04-19T10:10:50.633Z</time></trkpt><trkpt lat="38.9508207" lon="-2.9198171"><ele>897.25</ele><time>2026-04-19T10:10:51.639Z</time></trkpt><trkpt lat="38.9507059" lon="-2.9199044"><ele>897.5</ele><time>2026-04-19T10:10:52.626Z</time></trkpt><trkpt lat="38.9506072" lon="-2.9200029"><ele>897.75</ele><time>2026-04-19T10:10:53.638Z</time></trkpt><trkpt lat="38.9505119" lon="-2.9201131"><ele>898.0</ele><time>2026-04-19T10:10:54.631Z</time></trkpt><trkpt lat="38.9504214" lon="-2.9202221"><ele>897.5</ele><time>2026-04-19T10:10:55.643Z</time></trkpt><trkpt lat="38.9503286" lon="-2.9203264"><ele>897.0</ele><time>2026-04-19T10:10:56.636Z</time></trkpt><trkpt lat="38.9502595" lon="-2.9204398"><ele>896.5</ele><time>2026-04-19T10:10:57.642Z</time></trkpt><trkpt lat="38.9501793" lon="-2.9205548"><ele>896.0</ele><time>2026-04-19T10:10:58.634Z</time></trkpt><trkpt lat="38.9501034" lon="-2.9206573"><ele>896.1999999999999</ele><time>2026-04-19T10:10:59.641Z</time></trkpt><trkpt lat="38.9500267" lon="-2.9207535"><ele>896.3999999999999</ele><time>2026-04-19T10:11:00.64Z</time></trkpt><trkpt lat="38.9499478" lon="-2.9208328"><ele>896.6</ele><time>2026-04-19T10:11:01.637Z</time></trkpt><trkpt lat="38.9498663" lon="-2.9208996"><ele>896.8</ele><time>2026-04-19T10:11:02.649Z</time></trkpt><trkpt lat="38.9497719" lon="-2.9209571"><ele>897.0</ele><time>2026-04-19T10:11:03.661Z</time></trkpt><trkpt lat="38.949663" lon="-2.9210182"><ele>897.0</ele><time>2026-04-19T10:11:04.63Z</time></trkpt><trkpt lat="38.9495498" lon="-2.9210959"><ele>897.0</ele><time>2026-04-19T10:11:05.65Z</time></trkpt><trkpt lat="38.9494413" lon="-2.9211761"><ele>897.0</ele><time>2026-04-19T10:11:06.64Z</time></trkpt><trkpt lat="38.9493173" lon="-2.9212498"><ele>897.0</ele><time>2026-04-19T10:11:07.641Z</time></trkpt><trkpt lat="38.9491892" lon="-2.9213094"><ele>897.0</ele><time>2026-04-19T10:11:08.639Z</time></trkpt><trkpt lat="38.949071" lon="-2.9213623"><ele>897.0</ele><time>2026-04-19T10:11:09.631Z</time></trkpt><trkpt lat="38.9489632" lon="-2.9214248"><ele>897.0</ele><time>2026-04-19T10:11:10.642Z</time></trkpt><trkpt lat="38.9488555" lon="-2.9215038"><ele>897.0</ele><time>2026-04-19T10:11:11.641Z</time></trkpt><trkpt lat="38.9487616" lon="-2.9215825"><ele>897.0</ele><time>2026-04-19T10:11:12.641Z</time></trkpt><trkpt lat="38.9486765" lon="-2.9216572"><ele>897.0</ele><time>2026-04-19T10:11:13.639Z</time></trkpt><trkpt lat="38.9485881" lon="-2.9217235"><ele>897.0</ele><time>2026-04-19T10:11:14.649Z</time></trkpt><trkpt lat="38.9484874" lon="-2.9217817"><ele>897.0</ele><time>2026-04-19T10:11:15.644Z</time></trkpt><trkpt lat="38.9483734" lon="-2.9218138"><ele>897.0</ele><time>2026-04-19T10:11:16.649Z</time></trkpt><trkpt lat="38.9482758" lon="-2.9218383"><ele>897.5</ele><time>2026-04-19T10:11:17.625Z</time></trkpt><trkpt lat="38.9482012" lon="-2.9218558"><ele>898.0</ele><time>2026-04-19T10:11:18.635Z</time></trkpt><trkpt lat="38.9481407" lon="-2.9218898"><ele>898.5</ele><time>2026-04-19T10:11:19.643Z</time></trkpt><trkpt lat="38.9480732" lon="-2.9219497"><ele>899.0</ele><time>2026-04-19T10:11:20.637Z</time></trkpt><trkpt lat="38.9479923" lon="-2.9220272"><ele>899.5</ele><time>2026-04-19T10:11:21.641Z</time></trkpt><trkpt lat="38.9479099" lon="-2.9220992"><ele>900.0</ele><time>2026-04-19T10:11:22.624Z</time></trkpt><trkpt lat="38.947839" lon="-2.9221597"><ele>900.0</ele><time>2026-04-19T10:11:23.627Z</time></trkpt><trkpt lat="38.9477756" lon="-2.9222176"><ele>900.0</ele><time>2026-04-19T10:11:24.621Z</time></trkpt><trkpt lat="38.9477093" lon="-2.9222904"><ele>900.0</ele><time>2026-04-19T10:11:25.626Z</time></trkpt><trkpt lat="38.9476345" lon="-2.9223779"><ele>900.0</ele><time>2026-04-19T10:11:26.651Z</time></trkpt><trkpt lat="38.9475568" lon="-2.9224793"><ele>900.0</ele><time>2026-04-19T10:11:27.63Z</time></trkpt><trkpt lat="38.9474867" lon="-2.9226036"><ele>901.5</ele><time>2026-04-19T10:11:28.641Z</time></trkpt><trkpt lat="38.9474303" lon="-2.9227584"><ele>903.0</ele><time>2026-04-19T10:11:29.635Z</time></trkpt><trkpt lat="38.9473782" lon="-2.9229217"><ele>904.5</ele><time>2026-04-19T10:11:30.629Z</time></trkpt><trkpt lat="38.9473122" lon="-2.9230913"><ele>906.0</ele><time>2026-04-19T10:11:31.638Z</time></trkpt><trkpt lat="38.9472261" lon="-2.9232775"><ele>906.0</ele><time>2026-04-19T10:11:32.648Z</time></trkpt><trkpt lat="38.9471205" lon="-2.9234837"><ele>906.0</ele><time>2026-04-19T10:11:33.635Z</time></trkpt><trkpt lat="38.9469907" lon="-2.9237036"><ele>906.0</ele><time>2026-04-19T10:11:34.627Z</time></trkpt><trkpt lat="38.9468443" lon="-2.9239374"><ele>907.5</ele><time>2026-04-19T10:11:35.638Z</time></trkpt><trkpt lat="38.9467042" lon="-2.924166"><ele>909.0</ele><time>2026-04-19T10:11:36.639Z</time></trkpt><trkpt lat="38.9465611" lon="-2.9243984"><ele>909.0</ele><time>2026-04-19T10:11:37.648Z</time></trkpt><trkpt lat="38.9464229" lon="-2.9246173"><ele>909.0</ele><time>2026-04-19T10:11:38.636Z</time></trkpt><trkpt lat="38.9462903" lon="-2.9248242"><ele>909.0</ele><time>2026-04-19T10:11:39.629Z</time></trkpt><trkpt lat="38.9461565" lon="-2.9250264"><ele>909.0</ele><time>2026-04-19T10:11:40.645Z</time></trkpt><trkpt lat="38.9460274" lon="-2.9252175"><ele>909.0</ele><time>2026-04-19T10:11:41.625Z</time></trkpt><trkpt lat="38.9459068" lon="-2.9254005"><ele>909.0</ele><time>2026-04-19T10:11:42.646Z</time></trkpt><trkpt lat="38.9457916" lon="-2.9255749"><ele>909.0</ele><time>2026-04-19T10:11:43.631Z</time></trkpt><trkpt lat="38.9456804" lon="-2.9257383"><ele>909.0</ele><time>2026-04-19T10:11:44.622Z</time></trkpt><trkpt lat="38.9455697" lon="-2.9258877"><ele>909.0</ele><time>2026-04-19T10:11:45.622Z</time></trkpt><trkpt lat="38.9454566" lon="-2.9260187"><ele>909.2</ele><time>2026-04-19T10:11:46.639Z</time></trkpt><trkpt lat="38.9453502" lon="-2.9261219"><ele>909.4000000000001</ele><time>2026-04-19T10:11:47.638Z</time></trkpt><trkpt lat="38.9452597" lon="-2.9262113"><ele>909.6</ele><time>2026-04-19T10:11:48.647Z</time></trkpt><trkpt lat="38.9451854" lon="-2.9262991"><ele>909.8</ele><time>2026-04-19T10:11:49.634Z</time></trkpt><trkpt lat="38.9451208" lon="-2.9263852"><ele>910.0</ele><time>2026-04-19T10:11:50.645Z</time></trkpt><trkpt lat="38.9450609" lon="-2.9264688"><ele>909.8</ele><time>2026-04-19T10:11:51.632Z</time></trkpt><trkpt lat="38.9450005" lon="-2.9265558"><ele>909.6</ele><time>2026-04-19T10:11:52.632Z</time></trkpt><trkpt lat="38.9449322" lon="-2.9266534"><ele>909.4000000000001</ele><time>2026-04-19T10:11:53.645Z</time></trkpt><trkpt lat="38.9448499" lon="-2.9267609"><ele>909.2</ele><time>2026-04-19T10:11:54.635Z</time></trkpt><trkpt lat="38.9447545" lon="-2.9268722"><ele>909.0</ele><time>2026-04-19T10:11:55.665Z</time></trkpt><trkpt lat="38.944658" lon="-2.9269725"><ele>908.8000000000001</ele><time>2026-04-19T10:11:56.634Z</time></trkpt><trkpt lat="38.9445638" lon="-2.9270635"><ele>908.6000000000001</ele><time>2026-04-19T10:11:57.647Z</time></trkpt><trkpt lat="38.9444713" lon="-2.9271439"><ele>908.4</ele><time>2026-04-19T10:11:58.634Z</time></trkpt><trkpt lat="38.9443859" lon="-2.9272139"><ele>908.2</ele><time>2026-04-19T10:11:59.635Z</time></trkpt><trkpt lat="38.9443102" lon="-2.927275"><ele>908.0</ele><time>2026-04-19T10:12:00.653Z</time></trkpt><trkpt lat="38.9442459" lon="-2.9273392"><ele>907.4</ele><time>2026-04-19T10:12:01.633Z</time></trkpt><trkpt lat="38.9441955" lon="-2.9274264"><ele>906.8</ele><time>2026-04-19T10:12:02.626Z</time></trkpt><trkpt lat="38.9441516" lon="-2.9275591"><ele>906.2</ele><time>2026-04-19T10:12:03.625Z</time></trkpt><trkpt lat="38.9440988" lon="-2.9277027"><ele>905.6</ele><time>2026-04-19T10:12:04.64Z</time></trkpt><trkpt lat="38.94405" lon="-2.9278492"><ele>905.0</ele><time>2026-04-19T10:12:05.641Z</time></trkpt><trkpt lat="38.9440174" lon="-2.9279849"><ele>904.5</ele><time>2026-04-19T10:12:06.645Z</time></trkpt><trkpt lat="38.9440041" lon="-2.9281335"><ele>904.0</ele><time>2026-04-19T10:12:07.64Z</time></trkpt><trkpt lat="38.944007" lon="-2.9282917"><ele>903.5</ele><time>2026-04-19T10:12:08.625Z</time></trkpt><trkpt lat="38.9440258" lon="-2.9284519"><ele>903.0</ele><time>2026-04-19T10:12:09.625Z</time></trkpt><trkpt lat="38.9440546" lon="-2.9286161"><ele>902.75</ele><time>2026-04-19T10:12:10.632Z</time></trkpt><trkpt lat="38.9440889" lon="-2.9287853"><ele>902.5</ele><time>2026-04-19T10:12:11.642Z</time></trkpt><trkpt lat="38.9441149" lon="-2.9289602"><ele>902.25</ele><time>2026-04-19T10:12:12.629Z</time></trkpt><trkpt lat="38.9441279" lon="-2.9291407"><ele>902.0</ele><time>2026-04-19T10:12:13.633Z</time></trkpt><trkpt lat="38.9441419" lon="-2.9293214"><ele>902.25</ele><time>2026-04-19T10:12:14.647Z</time></trkpt><trkpt lat="38.944169" lon="-2.9294919"><ele>902.5</ele><time>2026-04-19T10:12:15.639Z</time></trkpt><trkpt lat="38.9442092" lon="-2.9296472"><ele>902.75</ele><time>2026-04-19T10:12:16.633Z</time></trkpt><trkpt lat="38.9442618" lon="-2.9297978"><ele>903.0</ele><time>2026-04-19T10:12:17.64Z</time></trkpt><trkpt lat="38.9443182" lon="-2.9299491"><ele>902.8</ele><time>2026-04-19T10:12:18.632Z</time></trkpt><trkpt lat="38.9443829" lon="-2.9300873"><ele>902.5999999999999</ele><time>2026-04-19T10:12:19.628Z</time></trkpt><trkpt lat="38.9444401" lon="-2.9302122"><ele>902.4000000000001</ele><time>2026-04-19T10:12:20.631Z</time></trkpt><trkpt lat="38.9444814" lon="-2.9303309"><ele>902.2</ele><time>2026-04-19T10:12:21.64Z</time></trkpt><trkpt lat="38.9445189" lon="-2.9304497"><ele>902.0</ele><time>2026-04-19T10:12:22.634Z</time></trkpt><trkpt lat="38.9445535" lon="-2.9305871"><ele>902.0000000000001</ele><time>2026-04-19T10:12:23.621Z</time></trkpt><trkpt lat="38.9445788" lon="-2.9307267"><ele>902.0</ele><time>2026-04-19T10:12:24.63Z</time></trkpt><trkpt lat="38.9446003" lon="-2.9308556"><ele>902.0</ele><time>2026-04-19T10:12:25.644Z</time></trkpt><trkpt lat="38.9446262" lon="-2.9309589"><ele>902.0</ele><time>2026-04-19T10:12:26.632Z</time></trkpt><trkpt lat="38.944647" lon="-2.9310472"><ele>902.0000000000001</ele><time>2026-04-19T10:12:27.635Z</time></trkpt><trkpt lat="38.9446382" lon="-2.931132"><ele>902.0</ele><time>2026-04-19T10:12:28.636Z</time></trkpt><trkpt lat="38.9446058" lon="-2.9312209"><ele>902.0</ele><time>2026-04-19T10:12:29.642Z</time></trkpt><trkpt lat="38.9445412" lon="-2.931328"><ele>902.0</ele><time>2026-04-19T10:12:30.633Z</time></trkpt><trkpt lat="38.9444868" lon="-2.9314279"><ele>902.0</ele><time>2026-04-19T10:12:31.633Z</time></trkpt><trkpt lat="38.9444451" lon="-2.9315443"><ele>902.0</ele><time>2026-04-19T10:12:32.615Z</time></trkpt><trkpt lat="38.944426" lon="-2.9316872"><ele>902.0</ele><time>2026-04-19T10:12:33.642Z</time></trkpt><trkpt lat="38.944415" lon="-2.9318711"><ele>902.5</ele><time>2026-04-19T10:12:34.63Z</time></trkpt><trkpt lat="38.9444114" lon="-2.9320605"><ele>903.0</ele><time>2026-04-19T10:12:35.642Z</time></trkpt><trkpt lat="38.9444004" lon="-2.9322378"><ele>903.5</ele><time>2026-04-19T10:12:36.634Z</time></trkpt><trkpt lat="38.9443722" lon="-2.9324222"><ele>904.0</ele><time>2026-04-19T10:12:37.625Z</time></trkpt><trkpt lat="38.9443249" lon="-2.9326125"><ele>904.3333333333333</ele><time>2026-04-19T10:12:38.624Z</time></trkpt><trkpt lat="38.9442533" lon="-2.9328253"><ele>904.6666666666667</ele><time>2026-04-19T10:12:39.63Z</time></trkpt><trkpt lat="38.9441703" lon="-2.9330578"><ele>905.0</ele><time>2026-04-19T10:12:40.622Z</time></trkpt><trkpt lat="38.9440911" lon="-2.9332732"><ele>903.5</ele><time>2026-04-19T10:12:41.636Z</time></trkpt><trkpt lat="38.9440229" lon="-2.9334628"><ele>902.0</ele><time>2026-04-19T10:12:42.632Z</time></trkpt><trkpt lat="38.9439596" lon="-2.9336313"><ele>900.5</ele><time>2026-04-19T10:12:43.633Z</time></trkpt><trkpt lat="38.9438934" lon="-2.9337875"><ele>899.0</ele><time>2026-04-19T10:12:44.631Z</time></trkpt><trkpt lat="38.9438337" lon="-2.9339374"><ele>899.0</ele><time>2026-04-19T10:12:45.637Z</time></trkpt><trkpt lat="38.9437805" lon="-2.9341005"><ele>899.0</ele><time>2026-04-19T10:12:46.643Z</time></trkpt><trkpt lat="38.943738" lon="-2.9342823"><ele>899.0</ele><time>2026-04-19T10:12:47.628Z</time></trkpt><trkpt lat="38.9437065" lon="-2.9344637"><ele>899.0</ele><time>2026-04-19T10:12:48.63Z</time></trkpt><trkpt lat="38.9436755" lon="-2.9346316"><ele>899.0</ele><time>2026-04-19T10:12:49.623Z</time></trkpt><trkpt lat="38.9436411" lon="-2.9347864"><ele>899.0</ele><time>2026-04-19T10:12:50.626Z</time></trkpt><trkpt lat="38.9436049" lon="-2.9349285"><ele>899.0</ele><time>2026-04-19T10:12:51.637Z</time></trkpt><trkpt lat="38.9435734" lon="-2.9350601"><ele>899.0</ele><time>2026-04-19T10:12:52.621Z</time></trkpt><trkpt lat="38.9435212" lon="-2.9352939"><ele>898.4000000000001</ele><time>2026-04-19T10:12:54.634Z</time></trkpt><trkpt lat="38.9435027" lon="-2.9353984"><ele>897.8000000000001</ele><time>2026-04-19T10:12:55.627Z</time></trkpt><trkpt lat="38.943492" lon="-2.9354962"><ele>897.1999999999999</ele><time>2026-04-19T10:12:56.622Z</time></trkpt><trkpt lat="38.9434879" lon="-2.9355878"><ele>896.5999999999999</ele><time>2026-04-19T10:12:57.622Z</time></trkpt><trkpt lat="38.9434868" lon="-2.9357417"><ele>896.0</ele><time>2026-04-19T10:12:59.623Z</time></trkpt><trkpt lat="38.9434912" lon="-2.93588"><ele>895.5999999999999</ele><time>2026-04-19T10:13:01.626Z</time></trkpt><trkpt lat="38.9434923" lon="-2.9360039"><ele>895.1999999999999</ele><time>2026-04-19T10:13:03.648Z</time></trkpt><trkpt lat="38.9434951" lon="-2.9361267"><ele>894.8000000000001</ele><time>2026-04-19T10:13:15.635Z</time></trkpt><trkpt lat="38.9435061" lon="-2.9362682"><ele>894.4000000000001</ele><time>2026-04-19T10:13:17.629Z</time></trkpt><trkpt lat="38.9435192" lon="-2.9363788"><ele>894.0</ele><time>2026-04-19T10:13:18.629Z</time></trkpt><trkpt lat="38.9435368" lon="-2.9365159"><ele>894.0</ele><time>2026-04-19T10:13:19.629Z</time></trkpt><trkpt lat="38.9435505" lon="-2.9366523"><ele>894.0000000000001</ele><time>2026-04-19T10:13:20.628Z</time></trkpt><trkpt lat="38.9435578" lon="-2.9367805"><ele>894.0000000000001</ele><time>2026-04-19T10:13:21.625Z</time></trkpt><trkpt lat="38.9435604" lon="-2.9369081"><ele>894.0</ele><time>2026-04-19T10:13:22.627Z</time></trkpt><trkpt lat="38.9435612" lon="-2.9370345"><ele>894.0</ele><time>2026-04-19T10:13:23.623Z</time></trkpt><trkpt lat="38.9435544" lon="-2.9371629"><ele>894.6</ele><time>2026-04-19T10:13:24.632Z</time></trkpt><trkpt lat="38.9435394" lon="-2.9372898"><ele>895.2</ele><time>2026-04-19T10:13:25.626Z</time></trkpt><trkpt lat="38.9435332" lon="-2.937421"><ele>895.8000000000001</ele><time>2026-04-19T10:13:26.622Z</time></trkpt><trkpt lat="38.943534" lon="-2.9375728"><ele>896.4000000000001</ele><time>2026-04-19T10:13:27.625Z</time></trkpt><trkpt lat="38.9435354" lon="-2.9377293"><ele>897.0</ele><time>2026-04-19T10:13:28.62Z</time></trkpt><trkpt lat="38.943535" lon="-2.9378712"><ele>897.6</ele><time>2026-04-19T10:13:29.629Z</time></trkpt><trkpt lat="38.9435356" lon="-2.9380035"><ele>898.2</ele><time>2026-04-19T10:13:30.614Z</time></trkpt><trkpt lat="38.9435354" lon="-2.9381434"><ele>898.8</ele><time>2026-04-19T10:13:31.626Z</time></trkpt><trkpt lat="38.9435407" lon="-2.9382837"><ele>899.4</ele><time>2026-04-19T10:13:32.619Z</time></trkpt><trkpt lat="38.9435464" lon="-2.9384222"><ele>900.0</ele><time>2026-04-19T10:13:33.621Z</time></trkpt><trkpt lat="38.943554" lon="-2.9385619"><ele>900.4</ele><time>2026-04-19T10:13:34.628Z</time></trkpt><trkpt lat="38.9435526" lon="-2.9387144"><ele>900.8</ele><time>2026-04-19T10:13:35.624Z</time></trkpt><trkpt lat="38.9435506" lon="-2.9388597"><ele>901.2</ele><time>2026-04-19T10:13:36.616Z</time></trkpt><trkpt lat="38.9435458" lon="-2.9389921"><ele>901.6</ele><time>2026-04-19T10:13:37.622Z</time></trkpt><trkpt lat="38.9435475" lon="-2.9391236"><ele>902.0</ele><time>2026-04-19T10:13:38.622Z</time></trkpt><trkpt lat="38.9435595" lon="-2.9392492"><ele>902.1666666666667</ele><time>2026-04-19T10:13:39.625Z</time></trkpt><trkpt lat="38.9435726" lon="-2.939365"><ele>902.3333333333334</ele><time>2026-04-19T10:13:40.619Z</time></trkpt><trkpt lat="38.9435754" lon="-2.9394754"><ele>902.5</ele><time>2026-04-19T10:13:41.628Z</time></trkpt><trkpt lat="38.9435781" lon="-2.9395795"><ele>902.6666666666667</ele><time>2026-04-19T10:13:42.618Z</time></trkpt><trkpt lat="38.9435921" lon="-2.9396899"><ele>902.8333333333334</ele><time>2026-04-19T10:13:43.627Z</time></trkpt><trkpt lat="38.9435781" lon="-2.9397892"><ele>903.0</ele><time>2026-04-19T10:13:44.62Z</time></trkpt><trkpt lat="38.9435625" lon="-2.9399035"><ele>903.0</ele><time>2026-04-19T10:13:45.637Z</time></trkpt><trkpt lat="38.9435406" lon="-2.9400174"><ele>903.0</ele><time>2026-04-19T10:13:46.62Z</time></trkpt><trkpt lat="38.9435151" lon="-2.9401313"><ele>903.0</ele><time>2026-04-19T10:13:47.621Z</time></trkpt><trkpt lat="38.9434964" lon="-2.9402567"><ele>903.0</ele><time>2026-04-19T10:13:48.622Z</time></trkpt><trkpt lat="38.9434838" lon="-2.9403921"><ele>903.0</ele><time>2026-04-19T10:13:49.625Z</time></trkpt><trkpt lat="38.9434766" lon="-2.9405359"><ele>903.0</ele><time>2026-04-19T10:13:50.621Z</time></trkpt><trkpt lat="38.9434751" lon="-2.940668"><ele>903.0</ele><time>2026-04-19T10:13:51.623Z</time></trkpt><trkpt lat="38.9434754" lon="-2.9408081"><ele>903.0</ele><time>2026-04-19T10:13:52.629Z</time></trkpt><trkpt lat="38.9434653" lon="-2.9409521"><ele>903.0</ele><time>2026-04-19T10:13:53.625Z</time></trkpt><trkpt lat="38.943435" lon="-2.9411072"><ele>903.0</ele><time>2026-04-19T10:13:54.619Z</time></trkpt><trkpt lat="38.9434003" lon="-2.9412665"><ele>904.25</ele><time>2026-04-19T10:13:55.621Z</time></trkpt><trkpt lat="38.9433735" lon="-2.9414163"><ele>905.5</ele><time>2026-04-19T10:13:56.627Z</time></trkpt><trkpt lat="38.9433666" lon="-2.9415865"><ele>906.75</ele><time>2026-04-19T10:13:57.63Z</time></trkpt><trkpt lat="38.9433645" lon="-2.9417545"><ele>908.0</ele><time>2026-04-19T10:13:58.622Z</time></trkpt><trkpt lat="38.9433647" lon="-2.9419101"><ele>908.0</ele><time>2026-04-19T10:13:59.623Z</time></trkpt><trkpt lat="38.943353" lon="-2.9420751"><ele>908.0</ele><time>2026-04-19T10:14:00.628Z</time></trkpt><trkpt lat="38.9433278" lon="-2.9422348"><ele>908.0</ele><time>2026-04-19T10:14:01.629Z</time></trkpt><trkpt lat="38.9432862" lon="-2.9423963"><ele>908.0</ele><time>2026-04-19T10:14:02.624Z</time></trkpt><trkpt lat="38.9432326" lon="-2.9425408"><ele>908.2</ele><time>2026-04-19T10:14:03.621Z</time></trkpt><trkpt lat="38.9431836" lon="-2.9426731"><ele>908.4</ele><time>2026-04-19T10:14:04.614Z</time></trkpt><trkpt lat="38.9431552" lon="-2.9428035"><ele>908.6000000000001</ele><time>2026-04-19T10:14:05.63Z</time></trkpt><trkpt lat="38.9431395" lon="-2.9429376"><ele>908.8000000000001</ele><time>2026-04-19T10:14:06.62Z</time></trkpt><trkpt lat="38.9431448" lon="-2.9430776"><ele>909.0</ele><time>2026-04-19T10:14:07.623Z</time></trkpt><trkpt lat="38.943156" lon="-2.9432335"><ele>908.5</ele><time>2026-04-19T10:14:08.628Z</time></trkpt><trkpt lat="38.9431502" lon="-2.9433993"><ele>908.0</ele><time>2026-04-19T10:14:09.627Z</time></trkpt><trkpt lat="38.9431297" lon="-2.943572"><ele>907.5</ele><time>2026-04-19T10:14:10.618Z</time></trkpt><trkpt lat="38.9430979" lon="-2.9437397"><ele>907.0</ele><time>2026-04-19T10:14:11.622Z</time></trkpt><trkpt lat="38.9430487" lon="-2.9439058"><ele>907.0</ele><time>2026-04-19T10:14:12.628Z</time></trkpt><trkpt lat="38.942974" lon="-2.9440814"><ele>907.0</ele><time>2026-04-19T10:14:13.646Z</time></trkpt><trkpt lat="38.94289" lon="-2.9442509"><ele>907.0</ele><time>2026-04-19T10:14:14.636Z</time></trkpt><trkpt lat="38.9428184" lon="-2.9444018"><ele>907.0</ele><time>2026-04-19T10:14:15.635Z</time></trkpt><trkpt lat="38.942762" lon="-2.9445359"><ele>907.1666666666666</ele><time>2026-04-19T10:14:16.632Z</time></trkpt><trkpt lat="38.9427152" lon="-2.9446522"><ele>907.3333333333333</ele><time>2026-04-19T10:14:17.623Z</time></trkpt><trkpt lat="38.9426772" lon="-2.9447461"><ele>907.5</ele><time>2026-04-19T10:14:18.629Z</time></trkpt><trkpt lat="38.9426548" lon="-2.9448315"><ele>907.6666666666667</ele><time>2026-04-19T10:14:19.628Z</time></trkpt><trkpt lat="38.9426438" lon="-2.9449122"><ele>907.8333333333334</ele><time>2026-04-19T10:14:20.632Z</time></trkpt><trkpt lat="38.9426547" lon="-2.9450449"><ele>908.0</ele><time>2026-04-19T10:14:22.623Z</time></trkpt><trkpt lat="38.942689" lon="-2.9451152"><ele>908.0</ele><time>2026-04-19T10:14:23.625Z</time></trkpt><trkpt lat="38.9427462" lon="-2.9451975"><ele>908.0</ele><time>2026-04-19T10:14:24.625Z</time></trkpt><trkpt lat="38.9428166" lon="-2.9452799"><ele>908.0</ele><time>2026-04-19T10:14:25.626Z</time></trkpt><trkpt lat="38.9428945" lon="-2.9453798"><ele>908.0</ele><time>2026-04-19T10:14:26.633Z</time></trkpt><trkpt lat="38.9429774" lon="-2.9454981"><ele>908.0</ele><time>2026-04-19T10:14:27.634Z</time></trkpt><trkpt lat="38.9430653" lon="-2.9456309"><ele>908.0</ele><time>2026-04-19T10:14:28.624Z</time></trkpt><trkpt lat="38.9431597" lon="-2.945788"><ele>908.0</ele><time>2026-04-19T10:14:29.63Z</time></trkpt><trkpt lat="38.9432667" lon="-2.9459653"><ele>908.0</ele><time>2026-04-19T10:14:30.627Z</time></trkpt><trkpt lat="38.9433887" lon="-2.9461563"><ele>907.6666666666667</ele><time>2026-04-19T10:14:31.631Z</time></trkpt><trkpt lat="38.943506" lon="-2.9463345"><ele>907.3333333333333</ele><time>2026-04-19T10:14:32.618Z</time></trkpt><trkpt lat="38.9436134" lon="-2.9465128"><ele>907.0</ele><time>2026-04-19T10:14:33.626Z</time></trkpt><trkpt lat="38.9437121" lon="-2.9466861"><ele>907.0</ele><time>2026-04-19T10:14:34.631Z</time></trkpt><trkpt lat="38.943814" lon="-2.9468593"><ele>907.0</ele><time>2026-04-19T10:14:35.632Z</time></trkpt><trkpt lat="38.943915" lon="-2.9470214"><ele>907.0</ele><time>2026-04-19T10:14:36.63Z</time></trkpt><trkpt lat="38.9440155" lon="-2.9471714"><ele>907.0</ele><time>2026-04-19T10:14:37.639Z</time></trkpt><trkpt lat="38.9441144" lon="-2.9473215"><ele>907.0</ele><time>2026-04-19T10:14:38.632Z</time></trkpt><trkpt lat="38.9442211" lon="-2.9474781"><ele>907.0</ele><time>2026-04-19T10:14:39.625Z</time></trkpt><trkpt lat="38.9443246" lon="-2.9476349"><ele>907.5</ele><time>2026-04-19T10:14:40.633Z</time></trkpt><trkpt lat="38.9444175" lon="-2.9477725"><ele>908.0</ele><time>2026-04-19T10:14:41.633Z</time></trkpt><trkpt lat="38.9445082" lon="-2.9478872"><ele>908.5</ele><time>2026-04-19T10:14:42.627Z</time></trkpt><trkpt lat="38.9446164" lon="-2.9479954"><ele>909.0</ele><time>2026-04-19T10:14:43.636Z</time></trkpt><trkpt lat="38.9447414" lon="-2.948103"><ele>909.0</ele><time>2026-04-19T10:14:44.628Z</time></trkpt><trkpt lat="38.9448699" lon="-2.9482204"><ele>909.0</ele><time>2026-04-19T10:14:45.627Z</time></trkpt><trkpt lat="38.9450042" lon="-2.9483512"><ele>909.0</ele><time>2026-04-19T10:14:46.624Z</time></trkpt><trkpt lat="38.9451354" lon="-2.9484677"><ele>909.0</ele><time>2026-04-19T10:14:47.632Z</time></trkpt><trkpt lat="38.9452509" lon="-2.9485661"><ele>909.0000000000001</ele><time>2026-04-19T10:14:48.622Z</time></trkpt><trkpt lat="38.9453462" lon="-2.9486464"><ele>909.0000000000001</ele><time>2026-04-19T10:14:49.629Z</time></trkpt><trkpt lat="38.9454283" lon="-2.9487074"><ele>909.0</ele><time>2026-04-19T10:14:50.619Z</time></trkpt><trkpt lat="38.9455175" lon="-2.9487533"><ele>909.0</ele><time>2026-04-19T10:14:51.629Z</time></trkpt><trkpt lat="38.9456086" lon="-2.9487902"><ele>909.0</ele><time>2026-04-19T10:14:52.64Z</time></trkpt><trkpt lat="38.94572" lon="-2.9488253"><ele>909.0</ele><time>2026-04-19T10:14:53.627Z</time></trkpt><trkpt lat="38.9458465" lon="-2.9488776"><ele>909.0</ele><time>2026-04-19T10:14:54.628Z</time></trkpt><trkpt lat="38.9459818" lon="-2.9489379"><ele>909.0</ele><time>2026-04-19T10:14:55.623Z</time></trkpt><trkpt lat="38.9461109" lon="-2.949003"><ele>908.8000000000001</ele><time>2026-04-19T10:14:56.633Z</time></trkpt><trkpt lat="38.946224" lon="-2.9490651"><ele>908.6000000000001</ele><time>2026-04-19T10:14:57.628Z</time></trkpt><trkpt lat="38.9463192" lon="-2.9491291"><ele>908.4</ele><time>2026-04-19T10:14:58.638Z</time></trkpt><trkpt lat="38.9464094" lon="-2.9491801"><ele>908.2</ele><time>2026-04-19T10:14:59.629Z</time></trkpt><trkpt lat="38.9465005" lon="-2.9492099"><ele>908.0</ele><time>2026-04-19T10:15:00.632Z</time></trkpt><trkpt lat="38.946605" lon="-2.9492157"><ele>907.75</ele><time>2026-04-19T10:15:01.627Z</time></trkpt><trkpt lat="38.946732" lon="-2.9492022"><ele>907.5</ele><time>2026-04-19T10:15:02.619Z</time></trkpt><trkpt lat="38.9468734" lon="-2.9491815"><ele>907.25</ele><time>2026-04-19T10:15:03.633Z</time></trkpt><trkpt lat="38.9470027" lon="-2.9491615"><ele>907.0</ele><time>2026-04-19T10:15:04.622Z</time></trkpt><trkpt lat="38.9471401" lon="-2.9491412"><ele>907.0</ele><time>2026-04-19T10:15:05.625Z</time></trkpt><trkpt lat="38.947272" lon="-2.94911"><ele>907.0</ele><time>2026-04-19T10:15:06.622Z</time></trkpt><trkpt lat="38.9473864" lon="-2.9490859"><ele>907.0</ele><time>2026-04-19T10:15:07.621Z</time></trkpt><trkpt lat="38.9474895" lon="-2.9490635"><ele>907.0</ele><time>2026-04-19T10:15:08.633Z</time></trkpt><trkpt lat="38.9475798" lon="-2.9490449"><ele>907.0</ele><time>2026-04-19T10:15:09.629Z</time></trkpt><trkpt lat="38.9476592" lon="-2.9490224"><ele>908.0</ele><time>2026-04-19T10:15:10.631Z</time></trkpt><trkpt lat="38.9477276" lon="-2.9489913"><ele>909.0</ele><time>2026-04-19T10:15:11.631Z</time></trkpt><trkpt lat="38.9478321" lon="-2.9489161"><ele>910.0</ele><time>2026-04-19T10:15:13.624Z</time></trkpt><trkpt lat="38.9479221" lon="-2.9488348"><ele>911.0</ele><time>2026-04-19T10:15:15.623Z</time></trkpt><trkpt lat="38.947969" lon="-2.9487701"><ele>912.0</ele><time>2026-04-19T10:15:16.629Z</time></trkpt><trkpt lat="38.9480142" lon="-2.9486785"><ele>912.0</ele><time>2026-04-19T10:15:17.616Z</time></trkpt><trkpt lat="38.9480514" lon="-2.9485651"><ele>912.0</ele><time>2026-04-19T10:15:18.627Z</time></trkpt><trkpt lat="38.9480859" lon="-2.9484426"><ele>912.0</ele><time>2026-04-19T10:15:19.628Z</time></trkpt><trkpt lat="38.9481216" lon="-2.9483147"><ele>912.0</ele><time>2026-04-19T10:15:20.627Z</time></trkpt><trkpt lat="38.948153" lon="-2.9481858"><ele>912.0</ele><time>2026-04-19T10:15:21.624Z</time></trkpt><trkpt lat="38.9482201" lon="-2.9480794"><ele>912.0</ele><time>2026-04-19T10:15:22.623Z</time></trkpt><trkpt lat="38.9482945" lon="-2.9479852"><ele>912.0</ele><time>2026-04-19T10:15:23.622Z</time></trkpt><trkpt lat="38.9483778" lon="-2.9478761"><ele>912.0</ele><time>2026-04-19T10:15:24.634Z</time></trkpt><trkpt lat="38.9484551" lon="-2.947747"><ele>912.0</ele><time>2026-04-19T10:15:25.622Z</time></trkpt><trkpt lat="38.9485358" lon="-2.9476127"><ele>912.25</ele><time>2026-04-19T10:15:26.63Z</time></trkpt><trkpt lat="38.9486291" lon="-2.9474806"><ele>912.5</ele><time>2026-04-19T10:15:27.621Z</time></trkpt><trkpt lat="38.9487268" lon="-2.947362"><ele>912.75</ele><time>2026-04-19T10:15:28.626Z</time></trkpt><trkpt lat="38.9488203" lon="-2.9472656"><ele>913.0</ele><time>2026-04-19T10:15:29.63Z</time></trkpt><trkpt lat="38.9489069" lon="-2.9471903"><ele>913.0</ele><time>2026-04-19T10:15:30.627Z</time></trkpt><trkpt lat="38.9489908" lon="-2.9471426"><ele>913.0</ele><time>2026-04-19T10:15:31.623Z</time></trkpt><trkpt lat="38.9490702" lon="-2.9471035"><ele>913.0</ele><time>2026-04-19T10:15:32.63Z</time></trkpt><trkpt lat="38.9491571" lon="-2.947091"><ele>913.0</ele><time>2026-04-19T10:15:33.63Z</time></trkpt><trkpt lat="38.9492557" lon="-2.9471047"><ele>913.0</ele><time>2026-04-19T10:15:34.625Z</time></trkpt><trkpt lat="38.9493596" lon="-2.9471344"><ele>913.5</ele><time>2026-04-19T10:15:35.625Z</time></trkpt><trkpt lat="38.9494824" lon="-2.9471821"><ele>914.0</ele><time>2026-04-19T10:15:36.634Z</time></trkpt><trkpt lat="38.9496062" lon="-2.947231"><ele>914.5</ele><time>2026-04-19T10:15:37.623Z</time></trkpt><trkpt lat="38.9497324" lon="-2.9472758"><ele>915.0</ele><time>2026-04-19T10:15:38.625Z</time></trkpt><trkpt lat="38.9498626" lon="-2.9473437"><ele>915.0</ele><time>2026-04-19T10:15:39.639Z</time></trkpt><trkpt lat="38.949999" lon="-2.947404"><ele>915.0</ele><time>2026-04-19T10:15:40.624Z</time></trkpt><trkpt lat="38.9501378" lon="-2.947458"><ele>915.0</ele><time>2026-04-19T10:15:41.628Z</time></trkpt><trkpt lat="38.9502828" lon="-2.9475095"><ele>915.0</ele><time>2026-04-19T10:15:42.625Z</time></trkpt><trkpt lat="38.9504262" lon="-2.9475674"><ele>914.75</ele><time>2026-04-19T10:15:43.626Z</time></trkpt><trkpt lat="38.9505697" lon="-2.9476187"><ele>914.5</ele><time>2026-04-19T10:15:44.634Z</time></trkpt><trkpt lat="38.9507138" lon="-2.9476635"><ele>914.25</ele><time>2026-04-19T10:15:45.633Z</time></trkpt><trkpt lat="38.9508589" lon="-2.9477097"><ele>914.0</ele><time>2026-04-19T10:15:46.627Z</time></trkpt><trkpt lat="38.9510062" lon="-2.9477656"><ele>914.0</ele><time>2026-04-19T10:15:47.631Z</time></trkpt><trkpt lat="38.9511545" lon="-2.9478272"><ele>914.0</ele><time>2026-04-19T10:15:48.619Z</time></trkpt><trkpt lat="38.9513048" lon="-2.9478861"><ele>914.0</ele><time>2026-04-19T10:15:49.628Z</time></trkpt><trkpt lat="38.9514556" lon="-2.9479428"><ele>914.0</ele><time>2026-04-19T10:15:50.63Z</time></trkpt><trkpt lat="38.95161" lon="-2.9480052"><ele>914.0</ele><time>2026-04-19T10:15:51.63Z</time></trkpt><trkpt lat="38.9517615" lon="-2.9480656"><ele>914.0</ele><time>2026-04-19T10:15:52.625Z</time></trkpt><trkpt lat="38.9519196" lon="-2.9481283"><ele>912.3333333333334</ele><time>2026-04-19T10:15:53.629Z</time></trkpt><trkpt lat="38.9520788" lon="-2.9481937"><ele>910.6666666666667</ele><time>2026-04-19T10:15:54.624Z</time></trkpt><trkpt lat="38.9522402" lon="-2.9482593"><ele>909.0</ele><time>2026-04-19T10:15:55.62Z</time></trkpt><trkpt lat="38.9523929" lon="-2.948327"><ele>908.6666666666667</ele><time>2026-04-19T10:15:56.627Z</time></trkpt><trkpt lat="38.9525419" lon="-2.9484078"><ele>908.3333333333334</ele><time>2026-04-19T10:15:57.628Z</time></trkpt><trkpt lat="38.9526879" lon="-2.9484694"><ele>908.0</ele><time>2026-04-19T10:15:58.636Z</time></trkpt><trkpt lat="38.9528505" lon="-2.9485434"><ele>908.0</ele><time>2026-04-19T10:15:59.625Z</time></trkpt><trkpt lat="38.9530222" lon="-2.9486122"><ele>908.0</ele><time>2026-04-19T10:16:00.627Z</time></trkpt><trkpt lat="38.9531953" lon="-2.9486675"><ele>908.0</ele><time>2026-04-19T10:16:01.629Z</time></trkpt><trkpt lat="38.9533552" lon="-2.9487238"><ele>907.75</ele><time>2026-04-19T10:16:02.629Z</time></trkpt><trkpt lat="38.9535013" lon="-2.9487888"><ele>907.5</ele><time>2026-04-19T10:16:03.632Z</time></trkpt><trkpt lat="38.9536338" lon="-2.9488595"><ele>907.25</ele><time>2026-04-19T10:16:04.623Z</time></trkpt><trkpt lat="38.9537518" lon="-2.9489287"><ele>907.0</ele><time>2026-04-19T10:16:05.622Z</time></trkpt><trkpt lat="38.9538609" lon="-2.9489924"><ele>907.0</ele><time>2026-04-19T10:16:06.627Z</time></trkpt><trkpt lat="38.953972" lon="-2.9490402"><ele>907.0</ele><time>2026-04-19T10:16:07.624Z</time></trkpt><trkpt lat="38.9540934" lon="-2.9490752"><ele>907.0</ele><time>2026-04-19T10:16:08.625Z</time></trkpt><trkpt lat="38.9542286" lon="-2.9490934"><ele>907.0</ele><time>2026-04-19T10:16:09.63Z</time></trkpt><trkpt lat="38.9543797" lon="-2.9491129"><ele>905.6666666666666</ele><time>2026-04-19T10:16:10.626Z</time></trkpt><trkpt lat="38.9545313" lon="-2.9491365"><ele>904.3333333333333</ele><time>2026-04-19T10:16:11.631Z</time></trkpt><trkpt lat="38.9546861" lon="-2.9491584"><ele>903.0</ele><time>2026-04-19T10:16:12.629Z</time></trkpt><trkpt lat="38.9548387" lon="-2.9491854"><ele>902.3333333333333</ele><time>2026-04-19T10:16:13.629Z</time></trkpt><trkpt lat="38.9549985" lon="-2.9492103"><ele>901.6666666666666</ele><time>2026-04-19T10:16:14.622Z</time></trkpt><trkpt lat="38.95516" lon="-2.9492347"><ele>901.0</ele><time>2026-04-19T10:16:15.637Z</time></trkpt><trkpt lat="38.9553193" lon="-2.9492585"><ele>899.6666666666666</ele><time>2026-04-19T10:16:16.622Z</time></trkpt><trkpt lat="38.9554756" lon="-2.9492817"><ele>898.3333333333333</ele><time>2026-04-19T10:16:17.624Z</time></trkpt><trkpt lat="38.9556361" lon="-2.9493058"><ele>897.0</ele><time>2026-04-19T10:16:18.636Z</time></trkpt><trkpt lat="38.9557999" lon="-2.9493326"><ele>896.0</ele><time>2026-04-19T10:16:19.626Z</time></trkpt><trkpt lat="38.955968" lon="-2.9493586"><ele>895.0</ele><time>2026-04-19T10:16:20.624Z</time></trkpt><trkpt lat="38.9561341" lon="-2.9493798"><ele>894.0</ele><time>2026-04-19T10:16:21.632Z</time></trkpt><trkpt lat="38.9562978" lon="-2.9494032"><ele>894.0</ele><time>2026-04-19T10:16:22.623Z</time></trkpt><trkpt lat="38.9564567" lon="-2.949428"><ele>894.0</ele><time>2026-04-19T10:16:23.625Z</time></trkpt><trkpt lat="38.9566085" lon="-2.9494537"><ele>894.0</ele><time>2026-04-19T10:16:24.62Z</time></trkpt><trkpt lat="38.9567532" lon="-2.9494762"><ele>893.25</ele><time>2026-04-19T10:16:25.629Z</time></trkpt><trkpt lat="38.9568941" lon="-2.9494946"><ele>892.5</ele><time>2026-04-19T10:16:26.623Z</time></trkpt><trkpt lat="38.9570281" lon="-2.9495144"><ele>891.75</ele><time>2026-04-19T10:16:27.622Z</time></trkpt><trkpt lat="38.9571546" lon="-2.9495372"><ele>891.0</ele><time>2026-04-19T10:16:28.629Z</time></trkpt><trkpt lat="38.9572879" lon="-2.9495603"><ele>891.0</ele><time>2026-04-19T10:16:29.63Z</time></trkpt><trkpt lat="38.9574156" lon="-2.9495822"><ele>891.0</ele><time>2026-04-19T10:16:30.631Z</time></trkpt><trkpt lat="38.9575377" lon="-2.9496049"><ele>891.0</ele><time>2026-04-19T10:16:31.625Z</time></trkpt><trkpt lat="38.9576568" lon="-2.9496266"><ele>891.0</ele><time>2026-04-19T10:16:32.624Z</time></trkpt><trkpt lat="38.95778" lon="-2.9496464"><ele>890.75</ele><time>2026-04-19T10:16:33.63Z</time></trkpt><trkpt lat="38.9579081" lon="-2.9496646"><ele>890.5</ele><time>2026-04-19T10:16:34.626Z</time></trkpt><trkpt lat="38.9580418" lon="-2.9496781"><ele>890.25</ele><time>2026-04-19T10:16:35.625Z</time></trkpt><trkpt lat="38.9581892" lon="-2.9496832"><ele>890.0</ele><time>2026-04-19T10:16:36.631Z</time></trkpt><trkpt lat="38.9583424" lon="-2.9496881"><ele>889.5</ele><time>2026-04-19T10:16:37.634Z</time></trkpt><trkpt lat="38.9584894" lon="-2.9496992"><ele>889.0</ele><time>2026-04-19T10:16:38.626Z</time></trkpt><trkpt lat="38.958633" lon="-2.9497245"><ele>888.5</ele><time>2026-04-19T10:16:39.634Z</time></trkpt><trkpt lat="38.9587675" lon="-2.9497688"><ele>888.0</ele><time>2026-04-19T10:16:40.629Z</time></trkpt><trkpt lat="38.9588953" lon="-2.949813"><ele>888.0</ele><time>2026-04-19T10:16:41.625Z</time></trkpt><trkpt lat="38.959015" lon="-2.9498472"><ele>888.0</ele><time>2026-04-19T10:16:42.624Z</time></trkpt><trkpt lat="38.9591294" lon="-2.9498658"><ele>888.0</ele><time>2026-04-19T10:16:43.633Z</time></trkpt><trkpt lat="38.9592395" lon="-2.9498674"><ele>888.0</ele><time>2026-04-19T10:16:44.626Z</time></trkpt><trkpt lat="38.9593457" lon="-2.9498432"><ele>887.5999999999999</ele><time>2026-04-19T10:16:45.631Z</time></trkpt><trkpt lat="38.959447" lon="-2.9497956"><ele>887.1999999999999</ele><time>2026-04-19T10:16:46.625Z</time></trkpt><trkpt lat="38.9595381" lon="-2.9497312"><ele>886.8</ele><time>2026-04-19T10:16:47.622Z</time></trkpt><trkpt lat="38.9596171" lon="-2.9496483"><ele>886.4</ele><time>2026-04-19T10:16:48.621Z</time></trkpt><trkpt lat="38.9596821" lon="-2.9495401"><ele>886.0</ele><time>2026-04-19T10:16:49.626Z</time></trkpt><trkpt lat="38.9597501" lon="-2.9494262"><ele>886.0</ele><time>2026-04-19T10:16:50.627Z</time></trkpt><trkpt lat="38.95982" lon="-2.9493115"><ele>886.0</ele><time>2026-04-19T10:16:51.624Z</time></trkpt><trkpt lat="38.9599078" lon="-2.9491991"><ele>886.0</ele><time>2026-04-19T10:16:52.622Z</time></trkpt><trkpt lat="38.9600005" lon="-2.9490876"><ele>886.0</ele><time>2026-04-19T10:16:53.622Z</time></trkpt><trkpt lat="38.9601022" lon="-2.9489715"><ele>886.25</ele><time>2026-04-19T10:16:54.636Z</time></trkpt><trkpt lat="38.9602103" lon="-2.9488535"><ele>886.5</ele><time>2026-04-19T10:16:55.623Z</time></trkpt><trkpt lat="38.9603244" lon="-2.9487342"><ele>886.75</ele><time>2026-04-19T10:16:56.622Z</time></trkpt><trkpt lat="38.9604439" lon="-2.9486096"><ele>887.0</ele><time>2026-04-19T10:16:57.624Z</time></trkpt><trkpt lat="38.9605773" lon="-2.9484817"><ele>887.3333333333334</ele><time>2026-04-19T10:16:58.63Z</time></trkpt><trkpt lat="38.9607254" lon="-2.9483436"><ele>887.6666666666667</ele><time>2026-04-19T10:16:59.641Z</time></trkpt><trkpt lat="38.9608859" lon="-2.9481978"><ele>888.0</ele><time>2026-04-19T10:17:00.628Z</time></trkpt><trkpt lat="38.9610659" lon="-2.9480432"><ele>888.5</ele><time>2026-04-19T10:17:01.624Z</time></trkpt><trkpt lat="38.9612602" lon="-2.9478804"><ele>889.0</ele><time>2026-04-19T10:17:02.632Z</time></trkpt><trkpt lat="38.9614721" lon="-2.9477009"><ele>888.5</ele><time>2026-04-19T10:17:03.635Z</time></trkpt><trkpt lat="38.9616723" lon="-2.9475233"><ele>888.0</ele><time>2026-04-19T10:17:04.63Z</time></trkpt><trkpt lat="38.9618561" lon="-2.9473521"><ele>887.6666666666667</ele><time>2026-04-19T10:17:05.631Z</time></trkpt><trkpt lat="38.962028" lon="-2.9471745"><ele>887.3333333333334</ele><time>2026-04-19T10:17:06.63Z</time></trkpt><trkpt lat="38.9621946" lon="-2.9470125"><ele>887.0</ele><time>2026-04-19T10:17:07.624Z</time></trkpt><trkpt lat="38.9623504" lon="-2.946851"><ele>887.0</ele><time>2026-04-19T10:17:08.628Z</time></trkpt><trkpt lat="38.9625007" lon="-2.9467248"><ele>887.0</ele><time>2026-04-19T10:17:09.629Z</time></trkpt><trkpt lat="38.96262" lon="-2.9466118"><ele>887.0</ele><time>2026-04-19T10:17:10.628Z</time></trkpt><trkpt lat="38.962721" lon="-2.9465126"><ele>887.6</ele><time>2026-04-19T10:17:11.628Z</time></trkpt><trkpt lat="38.9628071" lon="-2.9464233"><ele>888.2</ele><time>2026-04-19T10:17:12.627Z</time></trkpt><trkpt lat="38.9628801" lon="-2.9463526"><ele>888.8</ele><time>2026-04-19T10:17:13.627Z</time></trkpt><trkpt lat="38.962951" lon="-2.9463059"><ele>889.4</ele><time>2026-04-19T10:17:14.622Z</time></trkpt><trkpt lat="38.9630307" lon="-2.9462788"><ele>890.0</ele><time>2026-04-19T10:17:15.631Z</time></trkpt><trkpt lat="38.9631221" lon="-2.9462769"><ele>890.0</ele><time>2026-04-19T10:17:16.622Z</time></trkpt><trkpt lat="38.9632324" lon="-2.9462883"><ele>890.0</ele><time>2026-04-19T10:17:17.632Z</time></trkpt><trkpt lat="38.9633569" lon="-2.9463155"><ele>890.0</ele><time>2026-04-19T10:17:18.628Z</time></trkpt><trkpt lat="38.9634705" lon="-2.9463355"><ele>890.0</ele><time>2026-04-19T10:17:19.627Z</time></trkpt><trkpt lat="38.9635746" lon="-2.9463564"><ele>890.5000000000001</ele><time>2026-04-19T10:17:20.629Z</time></trkpt><trkpt lat="38.9636673" lon="-2.9463695"><ele>891.0</ele><time>2026-04-19T10:17:21.631Z</time></trkpt><trkpt lat="38.9637554" lon="-2.9463731"><ele>891.5</ele><time>2026-04-19T10:17:22.63Z</time></trkpt><trkpt lat="38.9638334" lon="-2.9463695"><ele>892.0</ele><time>2026-04-19T10:17:23.63Z</time></trkpt><trkpt lat="38.9639002" lon="-2.9463437"><ele>892.5000000000001</ele><time>2026-04-19T10:17:24.625Z</time></trkpt><trkpt lat="38.9639621" lon="-2.9463013"><ele>893.0</ele><time>2026-04-19T10:17:25.624Z</time></trkpt><trkpt lat="38.9640164" lon="-2.9462401"><ele>893.0</ele><time>2026-04-19T10:17:26.622Z</time></trkpt><trkpt lat="38.9640547" lon="-2.9461642"><ele>893.0</ele><time>2026-04-19T10:17:27.629Z</time></trkpt><trkpt lat="38.9640893" lon="-2.9460868"><ele>893.0</ele><time>2026-04-19T10:17:28.628Z</time></trkpt><trkpt lat="38.9641297" lon="-2.9460241"><ele>893.0</ele><time>2026-04-19T10:17:29.633Z</time></trkpt><trkpt lat="38.9641882" lon="-2.9459759"><ele>893.0</ele><time>2026-04-19T10:17:30.625Z</time></trkpt><trkpt lat="38.9642606" lon="-2.9459417"><ele>893.0</ele><time>2026-04-19T10:17:31.624Z</time></trkpt><trkpt lat="38.9643415" lon="-2.9459281"><ele>893.0</ele><time>2026-04-19T10:17:32.623Z</time></trkpt><trkpt lat="38.9644317" lon="-2.9459312"><ele>893.5</ele><time>2026-04-19T10:17:33.627Z</time></trkpt><trkpt lat="38.964533" lon="-2.9459493"><ele>894.0</ele><time>2026-04-19T10:17:34.624Z</time></trkpt><trkpt lat="38.9646418" lon="-2.9459793"><ele>894.5</ele><time>2026-04-19T10:17:35.634Z</time></trkpt><trkpt lat="38.9647626" lon="-2.9460119"><ele>895.0</ele><time>2026-04-19T10:17:36.623Z</time></trkpt><trkpt lat="38.9648889" lon="-2.9460423"><ele>895.0</ele><time>2026-04-19T10:17:37.628Z</time></trkpt><trkpt lat="38.9650086" lon="-2.9460669"><ele>895.0</ele><time>2026-04-19T10:17:38.622Z</time></trkpt><trkpt lat="38.9651239" lon="-2.9460883"><ele>895.0</ele><time>2026-04-19T10:17:39.626Z</time></trkpt><trkpt lat="38.9652325" lon="-2.9461061"><ele>895.0</ele><time>2026-04-19T10:17:40.62Z</time></trkpt><trkpt lat="38.9653403" lon="-2.9461224"><ele>895.0</ele><time>2026-04-19T10:17:41.624Z</time></trkpt><trkpt lat="38.9654526" lon="-2.9461355"><ele>895.0</ele><time>2026-04-19T10:17:42.63Z</time></trkpt><trkpt lat="38.9655648" lon="-2.9461403"><ele>895.0</ele><time>2026-04-19T10:17:43.627Z</time></trkpt><trkpt lat="38.9656831" lon="-2.9461282"><ele>895.0</ele><time>2026-04-19T10:17:44.619Z</time></trkpt><trkpt lat="38.965805" lon="-2.9461104"><ele>894.75</ele><time>2026-04-19T10:17:45.621Z</time></trkpt><trkpt lat="38.9659376" lon="-2.94607"><ele>894.5</ele><time>2026-04-19T10:17:46.627Z</time></trkpt><trkpt lat="38.9660797" lon="-2.9460273"><ele>894.25</ele><time>2026-04-19T10:17:47.621Z</time></trkpt><trkpt lat="38.9662439" lon="-2.9459871"><ele>894.0</ele><time>2026-04-19T10:17:48.621Z</time></trkpt><trkpt lat="38.9663927" lon="-2.9459518"><ele>894.0</ele><time>2026-04-19T10:17:49.62Z</time></trkpt><trkpt lat="38.9665425" lon="-2.9459324"><ele>894.0</ele><time>2026-04-19T10:17:50.627Z</time></trkpt><trkpt lat="38.9666736" lon="-2.945914"><ele>894.0</ele><time>2026-04-19T10:17:51.625Z</time></trkpt><trkpt lat="38.9668008" lon="-2.9458915"><ele>894.0</ele><time>2026-04-19T10:17:52.622Z</time></trkpt><trkpt lat="38.9669381" lon="-2.9458583"><ele>894.6666666666667</ele><time>2026-04-19T10:17:53.633Z</time></trkpt><trkpt lat="38.9670869" lon="-2.9458071"><ele>895.3333333333334</ele><time>2026-04-19T10:17:54.624Z</time></trkpt><trkpt lat="38.9672344" lon="-2.9457694"><ele>896.0</ele><time>2026-04-19T10:17:55.629Z</time></trkpt><trkpt lat="38.9673818" lon="-2.9457435"><ele>895.0</ele><time>2026-04-19T10:17:56.632Z</time></trkpt><trkpt lat="38.9675279" lon="-2.9457125"><ele>894.0</ele><time>2026-04-19T10:17:57.627Z</time></trkpt><trkpt lat="38.9676809" lon="-2.9456663"><ele>893.0</ele><time>2026-04-19T10:17:58.634Z</time></trkpt><trkpt lat="38.9678592" lon="-2.9455998"><ele>893.0</ele><time>2026-04-19T10:17:59.624Z</time></trkpt><trkpt lat="38.9680315" lon="-2.9455426"><ele>893.0</ele><time>2026-04-19T10:18:00.633Z</time></trkpt><trkpt lat="38.9682157" lon="-2.9454926"><ele>893.0</ele><time>2026-04-19T10:18:01.625Z</time></trkpt><trkpt lat="38.9683978" lon="-2.9454631"><ele>893.0</ele><time>2026-04-19T10:18:02.629Z</time></trkpt><trkpt lat="38.9685748" lon="-2.9454342"><ele>893.0</ele><time>2026-04-19T10:18:03.625Z</time></trkpt><trkpt lat="38.9687445" lon="-2.9453988"><ele>893.0</ele><time>2026-04-19T10:18:04.632Z</time></trkpt><trkpt lat="38.9688946" lon="-2.9453579"><ele>893.0</ele><time>2026-04-19T10:18:05.63Z</time></trkpt><trkpt lat="38.9690211" lon="-2.9453212"><ele>893.0</ele><time>2026-04-19T10:18:06.632Z</time></trkpt><trkpt lat="38.9691342" lon="-2.9452856"><ele>893.0</ele><time>2026-04-19T10:18:07.625Z</time></trkpt><trkpt lat="38.9692295" lon="-2.9452526"><ele>893.0</ele><time>2026-04-19T10:18:08.625Z</time></trkpt><trkpt lat="38.9693155" lon="-2.9452388"><ele>893.0</ele><time>2026-04-19T10:18:09.629Z</time></trkpt><trkpt lat="38.9693986" lon="-2.9452435"><ele>892.6666666666667</ele><time>2026-04-19T10:18:10.627Z</time></trkpt><trkpt lat="38.9694849" lon="-2.9452631"><ele>892.3333333333334</ele><time>2026-04-19T10:18:11.622Z</time></trkpt><trkpt lat="38.96957" lon="-2.9452948"><ele>892.0</ele><time>2026-04-19T10:18:12.635Z</time></trkpt><trkpt lat="38.969652" lon="-2.9453333"><ele>891.6666666666667</ele><time>2026-04-19T10:18:13.63Z</time></trkpt><trkpt lat="38.969726" lon="-2.9453691"><ele>891.3333333333334</ele><time>2026-04-19T10:18:14.624Z</time></trkpt><trkpt lat="38.969792" lon="-2.9453975"><ele>891.0</ele><time>2026-04-19T10:18:15.632Z</time></trkpt><trkpt lat="38.9698916" lon="-2.9454442"><ele>891.0</ele><time>2026-04-19T10:18:17.627Z</time></trkpt><trkpt lat="38.9699943" lon="-2.9455183"><ele>890.9999999999999</ele><time>2026-04-19T10:18:28.65Z</time></trkpt><trkpt lat="38.9700763" lon="-2.9456124"><ele>890.9999999999999</ele><time>2026-04-19T10:18:30.644Z</time></trkpt><trkpt lat="38.9701224" lon="-2.9456825"><ele>891.0</ele><time>2026-04-19T10:18:31.629Z</time></trkpt><trkpt lat="38.9701726" lon="-2.9457736"><ele>891.0</ele><time>2026-04-19T10:18:32.631Z</time></trkpt><trkpt lat="38.970225" lon="-2.945879"><ele>889.25</ele><time>2026-04-19T10:18:33.617Z</time></trkpt><trkpt lat="38.9702803" lon="-2.945997"><ele>887.5</ele><time>2026-04-19T10:18:34.627Z</time></trkpt><trkpt lat="38.9703356" lon="-2.9461354"><ele>885.75</ele><time>2026-04-19T10:18:35.627Z</time></trkpt><trkpt lat="38.9704012" lon="-2.946292"><ele>884.0</ele><time>2026-04-19T10:18:36.628Z</time></trkpt><trkpt lat="38.9704792" lon="-2.9464548"><ele>884.0</ele><time>2026-04-19T10:18:37.628Z</time></trkpt><trkpt lat="38.9705605" lon="-2.9466257"><ele>884.0</ele><time>2026-04-19T10:18:38.628Z</time></trkpt><trkpt lat="38.9706364" lon="-2.9467849"><ele>884.0</ele><time>2026-04-19T10:18:39.626Z</time></trkpt><trkpt lat="38.9707104" lon="-2.9469377"><ele>884.0</ele><time>2026-04-19T10:18:40.634Z</time></trkpt><trkpt lat="38.9707814" lon="-2.9470844"><ele>884.0</ele><time>2026-04-19T10:18:41.629Z</time></trkpt><trkpt lat="38.9708463" lon="-2.9472256"><ele>884.0</ele><time>2026-04-19T10:18:42.63Z</time></trkpt><trkpt lat="38.9709097" lon="-2.9473626"><ele>884.0</ele><time>2026-04-19T10:18:43.629Z</time></trkpt><trkpt lat="38.9709822" lon="-2.9475105"><ele>884.0</ele><time>2026-04-19T10:18:44.625Z</time></trkpt><trkpt lat="38.9710627" lon="-2.9476695"><ele>883.3333333333334</ele><time>2026-04-19T10:18:45.622Z</time></trkpt><trkpt lat="38.9711451" lon="-2.9478457"><ele>882.6666666666667</ele><time>2026-04-19T10:18:46.632Z</time></trkpt><trkpt lat="38.9712274" lon="-2.9480262"><ele>882.0</ele><time>2026-04-19T10:18:47.678Z</time></trkpt><trkpt lat="38.9713092" lon="-2.9481959"><ele>882.0</ele><time>2026-04-19T10:18:48.626Z</time></trkpt><trkpt lat="38.971385" lon="-2.9483534"><ele>882.0</ele><time>2026-04-19T10:18:49.619Z</time></trkpt><trkpt lat="38.971463" lon="-2.9485136"><ele>882.0</ele><time>2026-04-19T10:18:50.622Z</time></trkpt><trkpt lat="38.9715402" lon="-2.9486691"><ele>882.0</ele><time>2026-04-19T10:18:51.625Z</time></trkpt><trkpt lat="38.9716135" lon="-2.9488129"><ele>882.0</ele><time>2026-04-19T10:18:52.627Z</time></trkpt><trkpt lat="38.9716882" lon="-2.9489617"><ele>882.0</ele><time>2026-04-19T10:18:53.622Z</time></trkpt><trkpt lat="38.9717704" lon="-2.9491338"><ele>882.0</ele><time>2026-04-19T10:18:54.631Z</time></trkpt><trkpt lat="38.9718614" lon="-2.9493267"><ele>882.0</ele><time>2026-04-19T10:18:55.626Z</time></trkpt><trkpt lat="38.9719525" lon="-2.9495169"><ele>882.0</ele><time>2026-04-19T10:18:56.633Z</time></trkpt><trkpt lat="38.972041" lon="-2.9497061"><ele>882.0</ele><time>2026-04-19T10:18:57.628Z</time></trkpt><trkpt lat="38.972123" lon="-2.949891"><ele>881.6666666666667</ele><time>2026-04-19T10:18:58.623Z</time></trkpt><trkpt lat="38.9722102" lon="-2.950075"><ele>881.3333333333334</ele><time>2026-04-19T10:18:59.633Z</time></trkpt><trkpt lat="38.9722983" lon="-2.9502535"><ele>881.0</ele><time>2026-04-19T10:19:00.627Z</time></trkpt><trkpt lat="38.9723917" lon="-2.950443"><ele>881.0</ele><time>2026-04-19T10:19:01.622Z</time></trkpt><trkpt lat="38.9724871" lon="-2.9506391"><ele>881.0</ele><time>2026-04-19T10:19:02.637Z</time></trkpt><trkpt lat="38.9725869" lon="-2.9508418"><ele>881.0</ele><time>2026-04-19T10:19:03.624Z</time></trkpt><trkpt lat="38.9726958" lon="-2.9510609"><ele>881.0</ele><time>2026-04-19T10:19:04.631Z</time></trkpt><trkpt lat="38.9728123" lon="-2.9512888"><ele>881.0</ele><time>2026-04-19T10:19:05.629Z</time></trkpt><trkpt lat="38.9729229" lon="-2.9515016"><ele>881.0</ele><time>2026-04-19T10:19:06.621Z</time></trkpt><trkpt lat="38.9730266" lon="-2.9517087"><ele>881.0</ele><time>2026-04-19T10:19:07.633Z</time></trkpt><trkpt lat="38.9731321" lon="-2.9519141"><ele>881.0</ele><time>2026-04-19T10:19:08.623Z</time></trkpt><trkpt lat="38.9732312" lon="-2.9521168"><ele>881.0</ele><time>2026-04-19T10:19:09.635Z</time></trkpt><trkpt lat="38.9733304" lon="-2.9523218"><ele>880.6666666666667</ele><time>2026-04-19T10:19:10.622Z</time></trkpt><trkpt lat="38.9734272" lon="-2.9525215"><ele>880.3333333333333</ele><time>2026-04-19T10:19:11.626Z</time></trkpt><trkpt lat="38.9735208" lon="-2.9527149"><ele>880.0</ele><time>2026-04-19T10:19:12.634Z</time></trkpt><trkpt lat="38.973612" lon="-2.9529057"><ele>879.6666666666666</ele><time>2026-04-19T10:19:13.633Z</time></trkpt><trkpt lat="38.9737033" lon="-2.9530989"><ele>879.3333333333333</ele><time>2026-04-19T10:19:14.627Z</time></trkpt><trkpt lat="38.9737949" lon="-2.9532897"><ele>879.0</ele><time>2026-04-19T10:19:15.665Z</time></trkpt><trkpt lat="38.9738872" lon="-2.953475"><ele>879.0</ele><time>2026-04-19T10:19:16.622Z</time></trkpt><trkpt lat="38.9739818" lon="-2.9536608"><ele>879.0</ele><time>2026-04-19T10:19:17.659Z</time></trkpt><trkpt lat="38.9740683" lon="-2.9538524"><ele>879.0</ele><time>2026-04-19T10:19:18.654Z</time></trkpt><trkpt lat="38.9741622" lon="-2.9540358"><ele>879.6666666666667</ele><time>2026-04-19T10:19:19.65Z</time></trkpt><trkpt lat="38.9742425" lon="-2.9542238"><ele>880.3333333333334</ele><time>2026-04-19T10:19:20.632Z</time></trkpt><trkpt lat="38.9743199" lon="-2.9544091"><ele>881.0</ele><time>2026-04-19T10:19:21.624Z</time></trkpt><trkpt lat="38.9743867" lon="-2.954594"><ele>881.0</ele><time>2026-04-19T10:19:22.627Z</time></trkpt><trkpt lat="38.9744446" lon="-2.9547807"><ele>881.0</ele><time>2026-04-19T10:19:23.635Z</time></trkpt><trkpt lat="38.9744881" lon="-2.9549689"><ele>881.0</ele><time>2026-04-19T10:19:24.633Z</time></trkpt><trkpt lat="38.9745231" lon="-2.9551477"><ele>880.3333333333334</ele><time>2026-04-19T10:19:25.637Z</time></trkpt><trkpt lat="38.9745618" lon="-2.9553264"><ele>879.6666666666667</ele><time>2026-04-19T10:19:26.625Z</time></trkpt><trkpt lat="38.9746052" lon="-2.9555117"><ele>879.0</ele><time>2026-04-19T10:19:27.628Z</time></trkpt><trkpt lat="38.9746653" lon="-2.9557034"><ele>877.6666666666667</ele><time>2026-04-19T10:19:28.627Z</time></trkpt><trkpt lat="38.9747449" lon="-2.9559079"><ele>876.3333333333334</ele><time>2026-04-19T10:19:29.636Z</time></trkpt><trkpt lat="38.9748401" lon="-2.9561248"><ele>875.0</ele><time>2026-04-19T10:19:30.625Z</time></trkpt><trkpt lat="38.9749378" lon="-2.956352"><ele>875.3333333333334</ele><time>2026-04-19T10:19:31.628Z</time></trkpt><trkpt lat="38.9750281" lon="-2.9565949"><ele>875.6666666666667</ele><time>2026-04-19T10:19:32.628Z</time></trkpt><trkpt lat="38.9751108" lon="-2.9568433"><ele>876.0</ele><time>2026-04-19T10:19:33.631Z</time></trkpt><trkpt lat="38.9751833" lon="-2.9570906"><ele>876.0</ele><time>2026-04-19T10:19:34.624Z</time></trkpt><trkpt lat="38.9752413" lon="-2.9573547"><ele>876.0</ele><time>2026-04-19T10:19:35.627Z</time></trkpt><trkpt lat="38.9752945" lon="-2.9576456"><ele>876.0</ele><time>2026-04-19T10:19:36.629Z</time></trkpt><trkpt lat="38.9753463" lon="-2.9579495"><ele>876.5</ele><time>2026-04-19T10:19:37.627Z</time></trkpt><trkpt lat="38.9753888" lon="-2.9582651"><ele>877.0</ele><time>2026-04-19T10:19:38.629Z</time></trkpt><trkpt lat="38.975425" lon="-2.9585946"><ele>877.5</ele><time>2026-04-19T10:19:39.631Z</time></trkpt><trkpt lat="38.9754704" lon="-2.9589263"><ele>878.0</ele><time>2026-04-19T10:19:40.626Z</time></trkpt><trkpt lat="38.9754987" lon="-2.959229"><ele>878.5</ele><time>2026-04-19T10:19:41.633Z</time></trkpt><trkpt lat="38.9755347" lon="-2.9595472"><ele>879.0</ele><time>2026-04-19T10:19:42.631Z</time></trkpt><trkpt lat="38.975573" lon="-2.9598713"><ele>880.5</ele><time>2026-04-19T10:19:43.628Z</time></trkpt><trkpt lat="38.9756149" lon="-2.9601727"><ele>882.0</ele><time>2026-04-19T10:19:44.624Z</time></trkpt><trkpt lat="38.9756534" lon="-2.9604522"><ele>882.0</ele><time>2026-04-19T10:19:45.632Z</time></trkpt><trkpt lat="38.9756858" lon="-2.9607082"><ele>882.0</ele><time>2026-04-19T10:19:46.62Z</time></trkpt><trkpt lat="38.9757139" lon="-2.9609487"><ele>882.0</ele><time>2026-04-19T10:19:47.621Z</time></trkpt><trkpt lat="38.9757527" lon="-2.9611921"><ele>882.0</ele><time>2026-04-19T10:19:48.623Z</time></trkpt><trkpt lat="38.9757921" lon="-2.9614194"><ele>882.0</ele><time>2026-04-19T10:19:49.623Z</time></trkpt><trkpt lat="38.9758355" lon="-2.9616305"><ele>882.0</ele><time>2026-04-19T10:19:50.631Z</time></trkpt><trkpt lat="38.9758764" lon="-2.9618261"><ele>883.75</ele><time>2026-04-19T10:19:51.624Z</time></trkpt><trkpt lat="38.9759167" lon="-2.9620026"><ele>885.5</ele><time>2026-04-19T10:19:52.621Z</time></trkpt><trkpt lat="38.9759541" lon="-2.9621653"><ele>887.25</ele><time>2026-04-19T10:19:53.635Z</time></trkpt><trkpt lat="38.976001" lon="-2.9623126"><ele>889.0</ele><time>2026-04-19T10:19:54.627Z</time></trkpt><trkpt lat="38.97605" lon="-2.9624412"><ele>888.75</ele><time>2026-04-19T10:19:55.628Z</time></trkpt><trkpt lat="38.9760995" lon="-2.9625702"><ele>888.5</ele><time>2026-04-19T10:19:56.63Z</time></trkpt><trkpt lat="38.9761429" lon="-2.9627075"><ele>888.25</ele><time>2026-04-19T10:19:57.635Z</time></trkpt><trkpt lat="38.9761852" lon="-2.962848"><ele>888.0</ele><time>2026-04-19T10:19:58.64Z</time></trkpt><trkpt lat="38.976227" lon="-2.962996"><ele>888.0</ele><time>2026-04-19T10:19:59.637Z</time></trkpt><trkpt lat="38.9762675" lon="-2.9631456"><ele>888.0</ele><time>2026-04-19T10:20:00.623Z</time></trkpt><trkpt lat="38.9763089" lon="-2.9632978"><ele>888.0</ele><time>2026-04-19T10:20:01.622Z</time></trkpt><trkpt lat="38.9763531" lon="-2.9634459"><ele>888.0</ele><time>2026-04-19T10:20:02.63Z</time></trkpt><trkpt lat="38.9763994" lon="-2.9635919"><ele>887.0</ele><time>2026-04-19T10:20:03.63Z</time></trkpt><trkpt lat="38.9764504" lon="-2.9637352"><ele>886.0</ele><time>2026-04-19T10:20:04.635Z</time></trkpt><trkpt lat="38.9765118" lon="-2.9638734"><ele>885.0</ele><time>2026-04-19T10:20:05.626Z</time></trkpt><trkpt lat="38.9765838" lon="-2.9640103"><ele>884.0</ele><time>2026-04-19T10:20:06.64Z</time></trkpt><trkpt lat="38.9766577" lon="-2.9641409"><ele>883.25</ele><time>2026-04-19T10:20:07.637Z</time></trkpt><trkpt lat="38.9767363" lon="-2.9642713"><ele>882.5</ele><time>2026-04-19T10:20:08.624Z</time></trkpt><trkpt lat="38.9768139" lon="-2.9644159"><ele>881.75</ele><time>2026-04-19T10:20:09.641Z</time></trkpt><trkpt lat="38.9768981" lon="-2.9645647"><ele>881.0</ele><time>2026-04-19T10:20:10.637Z</time></trkpt><trkpt lat="38.9769829" lon="-2.9647107"><ele>881.0</ele><time>2026-04-19T10:20:11.626Z</time></trkpt><trkpt lat="38.9770762" lon="-2.9648514"><ele>881.0</ele><time>2026-04-19T10:20:12.63Z</time></trkpt><trkpt lat="38.9771761" lon="-2.9649907"><ele>881.0</ele><time>2026-04-19T10:20:13.629Z</time></trkpt><trkpt lat="38.9772748" lon="-2.9651294"><ele>881.0</ele><time>2026-04-19T10:20:14.626Z</time></trkpt><trkpt lat="38.9773729" lon="-2.9652753"><ele>879.75</ele><time>2026-04-19T10:20:15.623Z</time></trkpt><trkpt lat="38.9774717" lon="-2.965424"><ele>878.5</ele><time>2026-04-19T10:20:16.64Z</time></trkpt><trkpt lat="38.9775665" lon="-2.9655696"><ele>877.25</ele><time>2026-04-19T10:20:17.627Z</time></trkpt><trkpt lat="38.9776582" lon="-2.9657146"><ele>876.0</ele><time>2026-04-19T10:20:18.622Z</time></trkpt><trkpt lat="38.9777468" lon="-2.9658524"><ele>874.25</ele><time>2026-04-19T10:20:19.627Z</time></trkpt><trkpt lat="38.977831" lon="-2.9659837"><ele>872.5</ele><time>2026-04-19T10:20:20.634Z</time></trkpt><trkpt lat="38.977916" lon="-2.9661123"><ele>870.75</ele><time>2026-04-19T10:20:21.63Z</time></trkpt><trkpt lat="38.9780005" lon="-2.9662434"><ele>869.0</ele><time>2026-04-19T10:20:22.633Z</time></trkpt><trkpt lat="38.9780905" lon="-2.9663818"><ele>869.0</ele><time>2026-04-19T10:20:23.626Z</time></trkpt><trkpt lat="38.9781847" lon="-2.9665218"><ele>869.0</ele><time>2026-04-19T10:20:24.625Z</time></trkpt><trkpt lat="38.9782702" lon="-2.966661"><ele>869.0</ele><time>2026-04-19T10:20:25.63Z</time></trkpt><trkpt lat="38.9783553" lon="-2.9667965"><ele>869.0</ele><time>2026-04-19T10:20:26.641Z</time></trkpt><trkpt lat="38.9784393" lon="-2.9669227"><ele>867.5</ele><time>2026-04-19T10:20:27.628Z</time></trkpt><trkpt lat="38.9785112" lon="-2.9670351"><ele>866.0</ele><time>2026-04-19T10:20:28.631Z</time></trkpt><trkpt lat="38.9785877" lon="-2.9671426"><ele>864.5</ele><time>2026-04-19T10:20:29.627Z</time></trkpt><trkpt lat="38.9786713" lon="-2.967247"><ele>863.0</ele><time>2026-04-19T10:20:30.632Z</time></trkpt><trkpt lat="38.9787593" lon="-2.9673404"><ele>863.0</ele><time>2026-04-19T10:20:31.627Z</time></trkpt><trkpt lat="38.9788533" lon="-2.967429"><ele>863.0</ele><time>2026-04-19T10:20:32.632Z</time></trkpt><trkpt lat="38.9789634" lon="-2.9675179"><ele>863.0</ele><time>2026-04-19T10:20:33.636Z</time></trkpt><trkpt lat="38.9790923" lon="-2.9676027"><ele>863.0</ele><time>2026-04-19T10:20:34.633Z</time></trkpt><trkpt lat="38.9792427" lon="-2.9676858"><ele>861.6666666666667</ele><time>2026-04-19T10:20:35.626Z</time></trkpt><trkpt lat="38.9794001" lon="-2.9677607"><ele>860.3333333333333</ele><time>2026-04-19T10:20:36.619Z</time></trkpt><trkpt lat="38.9795533" lon="-2.9678297"><ele>859.0</ele><time>2026-04-19T10:20:37.631Z</time></trkpt><trkpt lat="38.9797082" lon="-2.9679038"><ele>859.0</ele><time>2026-04-19T10:20:38.629Z</time></trkpt><trkpt lat="38.9798584" lon="-2.9679797"><ele>859.0</ele><time>2026-04-19T10:20:39.629Z</time></trkpt><trkpt lat="38.9800059" lon="-2.968067"><ele>859.0</ele><time>2026-04-19T10:20:40.622Z</time></trkpt><trkpt lat="38.9801543" lon="-2.9681834"><ele>858.0</ele><time>2026-04-19T10:20:41.626Z</time></trkpt><trkpt lat="38.9802971" lon="-2.9682932"><ele>857.0</ele><time>2026-04-19T10:20:42.629Z</time></trkpt><trkpt lat="38.9804285" lon="-2.9684069"><ele>856.0</ele><time>2026-04-19T10:20:43.627Z</time></trkpt><trkpt lat="38.9805548" lon="-2.9685219"><ele>856.0</ele><time>2026-04-19T10:20:44.623Z</time></trkpt><trkpt lat="38.9806631" lon="-2.9686462"><ele>856.0</ele><time>2026-04-19T10:20:45.628Z</time></trkpt><trkpt lat="38.9807535" lon="-2.9687823"><ele>856.0</ele><time>2026-04-19T10:20:46.632Z</time></trkpt><trkpt lat="38.9808355" lon="-2.9689295"><ele>856.0</ele><time>2026-04-19T10:20:47.623Z</time></trkpt><trkpt lat="38.9808937" lon="-2.9690724"><ele>856.75</ele><time>2026-04-19T10:20:48.624Z</time></trkpt><trkpt lat="38.9809472" lon="-2.9692286"><ele>857.5</ele><time>2026-04-19T10:20:49.631Z</time></trkpt><trkpt lat="38.9809894" lon="-2.9693966"><ele>858.25</ele><time>2026-04-19T10:20:50.633Z</time></trkpt><trkpt lat="38.9810241" lon="-2.9695722"><ele>859.0</ele><time>2026-04-19T10:20:51.625Z</time></trkpt><trkpt lat="38.9810502" lon="-2.9697563"><ele>859.0</ele><time>2026-04-19T10:20:52.622Z</time></trkpt><trkpt lat="38.9810726" lon="-2.9699601"><ele>859.0</ele><time>2026-04-19T10:20:53.632Z</time></trkpt><trkpt lat="38.9810971" lon="-2.9701734"><ele>859.0</ele><time>2026-04-19T10:20:54.633Z</time></trkpt><trkpt lat="38.9811331" lon="-2.9703821"><ele>860.0</ele><time>2026-04-19T10:20:55.632Z</time></trkpt><trkpt lat="38.9811814" lon="-2.9705812"><ele>861.0</ele><time>2026-04-19T10:20:56.625Z</time></trkpt><trkpt lat="38.9812382" lon="-2.9707884"><ele>862.0</ele><time>2026-04-19T10:20:57.623Z</time></trkpt><trkpt lat="38.9812913" lon="-2.9710022"><ele>863.0</ele><time>2026-04-19T10:20:58.624Z</time></trkpt><trkpt lat="38.9813306" lon="-2.971259"><ele>864.0</ele><time>2026-04-19T10:20:59.622Z</time></trkpt><trkpt lat="38.9813672" lon="-2.9715058"><ele>865.0</ele><time>2026-04-19T10:21:00.632Z</time></trkpt><trkpt lat="38.9814081" lon="-2.9717455"><ele>866.0</ele><time>2026-04-19T10:21:01.62Z</time></trkpt><trkpt lat="38.9814571" lon="-2.9719874"><ele>867.0</ele><time>2026-04-19T10:21:02.633Z</time></trkpt><trkpt lat="38.9815056" lon="-2.9721977"><ele>868.0</ele><time>2026-04-19T10:21:03.628Z</time></trkpt><trkpt lat="38.9815347" lon="-2.9724031"><ele>868.25</ele><time>2026-04-19T10:21:04.626Z</time></trkpt><trkpt lat="38.9815769" lon="-2.9725932"><ele>868.5</ele><time>2026-04-19T10:21:05.622Z</time></trkpt><trkpt lat="38.9816274" lon="-2.9727661"><ele>868.75</ele><time>2026-04-19T10:21:06.628Z</time></trkpt><trkpt lat="38.9816772" lon="-2.9729179"><ele>869.0</ele><time>2026-04-19T10:21:07.63Z</time></trkpt><trkpt lat="38.9817278" lon="-2.9731063"><ele>869.0</ele><time>2026-04-19T10:21:08.632Z</time></trkpt><trkpt lat="38.9817673" lon="-2.9732902"><ele>869.0</ele><time>2026-04-19T10:21:09.623Z</time></trkpt><trkpt lat="38.9817997" lon="-2.9734694"><ele>869.0</ele><time>2026-04-19T10:21:10.629Z</time></trkpt><trkpt lat="38.9818377" lon="-2.9736469"><ele>869.0</ele><time>2026-04-19T10:21:11.626Z</time></trkpt><trkpt lat="38.9818744" lon="-2.973803"><ele>869.2</ele><time>2026-04-19T10:21:12.635Z</time></trkpt><trkpt lat="38.9819171" lon="-2.9739348"><ele>869.4000000000001</ele><time>2026-04-19T10:21:13.635Z</time></trkpt><trkpt lat="38.9819717" lon="-2.9740457"><ele>869.6</ele><time>2026-04-19T10:21:14.63Z</time></trkpt><trkpt lat="38.9820456" lon="-2.9741426"><ele>869.8</ele><time>2026-04-19T10:21:15.621Z</time></trkpt><trkpt lat="38.9821508" lon="-2.9742361"><ele>870.0</ele><time>2026-04-19T10:21:16.631Z</time></trkpt><trkpt lat="38.982278" lon="-2.9743222"><ele>870.0</ele><time>2026-04-19T10:21:17.625Z</time></trkpt><trkpt lat="38.9824065" lon="-2.9743991"><ele>870.0</ele><time>2026-04-19T10:21:18.63Z</time></trkpt><trkpt lat="38.9825324" lon="-2.9744857"><ele>870.0</ele><time>2026-04-19T10:21:19.628Z</time></trkpt><trkpt lat="38.9826571" lon="-2.9745818"><ele>870.0</ele><time>2026-04-19T10:21:20.663Z</time></trkpt><trkpt lat="38.98278" lon="-2.9746674"><ele>869.6666666666667</ele><time>2026-04-19T10:21:21.623Z</time></trkpt><trkpt lat="38.9829094" lon="-2.9747506"><ele>869.3333333333334</ele><time>2026-04-19T10:21:22.627Z</time></trkpt><trkpt lat="38.983044" lon="-2.9748478"><ele>869.0</ele><time>2026-04-19T10:21:23.629Z</time></trkpt><trkpt lat="38.9831824" lon="-2.9749706"><ele>868.3333333333334</ele><time>2026-04-19T10:21:24.633Z</time></trkpt><trkpt lat="38.9833245" lon="-2.9751041"><ele>867.6666666666667</ele><time>2026-04-19T10:21:25.629Z</time></trkpt><trkpt lat="38.9834669" lon="-2.975229"><ele>867.0</ele><time>2026-04-19T10:21:26.625Z</time></trkpt><trkpt lat="38.9836058" lon="-2.9753532"><ele>868.75</ele><time>2026-04-19T10:21:27.628Z</time></trkpt><trkpt lat="38.9837333" lon="-2.9754719"><ele>870.5</ele><time>2026-04-19T10:21:28.63Z</time></trkpt><trkpt lat="38.9838471" lon="-2.975582"><ele>872.25</ele><time>2026-04-19T10:21:29.63Z</time></trkpt><trkpt lat="38.9839581" lon="-2.9756954"><ele>874.0</ele><time>2026-04-19T10:21:30.631Z</time></trkpt><trkpt lat="38.9840449" lon="-2.9758333"><ele>873.0</ele><time>2026-04-19T10:21:31.628Z</time></trkpt><trkpt lat="38.9841253" lon="-2.9759477"><ele>872.0</ele><time>2026-04-19T10:21:32.621Z</time></trkpt><trkpt lat="38.9842108" lon="-2.9760405"><ele>871.0</ele><time>2026-04-19T10:21:33.633Z</time></trkpt><trkpt lat="38.9843041" lon="-2.9761216"><ele>870.0</ele><time>2026-04-19T10:21:34.628Z</time></trkpt><trkpt lat="38.9844093" lon="-2.9761823"><ele>870.0</ele><time>2026-04-19T10:21:35.63Z</time></trkpt><trkpt lat="38.9845172" lon="-2.9762358"><ele>870.0</ele><time>2026-04-19T10:21:36.628Z</time></trkpt><trkpt lat="38.9846227" lon="-2.9762651"><ele>870.0</ele><time>2026-04-19T10:21:37.623Z</time></trkpt><trkpt lat="38.9847169" lon="-2.9762827"><ele>870.0</ele><time>2026-04-19T10:21:38.617Z</time></trkpt><trkpt lat="38.9847992" lon="-2.9763062"><ele>870.0</ele><time>2026-04-19T10:21:39.629Z</time></trkpt><trkpt lat="38.9848697" lon="-2.9763416"><ele>870.0</ele><time>2026-04-19T10:21:40.635Z</time></trkpt><trkpt lat="38.9849303" lon="-2.9764136"><ele>870.0</ele><time>2026-04-19T10:21:41.626Z</time></trkpt><trkpt lat="38.9849779" lon="-2.9765138"><ele>870.0</ele><time>2026-04-19T10:21:42.633Z</time></trkpt><trkpt lat="38.9850276" lon="-2.9766404"><ele>870.0</ele><time>2026-04-19T10:21:43.639Z</time></trkpt><trkpt lat="38.9850793" lon="-2.9767629"><ele>870.0</ele><time>2026-04-19T10:21:44.625Z</time></trkpt><trkpt lat="38.9851354" lon="-2.9768763"><ele>868.0</ele><time>2026-04-19T10:21:45.628Z</time></trkpt><trkpt lat="38.9851932" lon="-2.9769917"><ele>866.0</ele><time>2026-04-19T10:21:46.632Z</time></trkpt><trkpt lat="38.985248" lon="-2.9771269"><ele>864.0</ele><time>2026-04-19T10:21:47.633Z</time></trkpt><trkpt lat="38.9852928" lon="-2.9772801"><ele>862.0</ele><time>2026-04-19T10:21:48.634Z</time></trkpt><trkpt lat="38.9853279" lon="-2.9774371"><ele>861.2</ele><time>2026-04-19T10:21:49.639Z</time></trkpt><trkpt lat="38.9853639" lon="-2.9775853"><ele>860.4000000000001</ele><time>2026-04-19T10:21:50.634Z</time></trkpt><trkpt lat="38.9854054" lon="-2.9777124"><ele>859.5999999999999</ele><time>2026-04-19T10:21:51.624Z</time></trkpt><trkpt lat="38.9854464" lon="-2.9778355"><ele>858.8</ele><time>2026-04-19T10:21:52.637Z</time></trkpt><trkpt lat="38.9854862" lon="-2.9779506"><ele>858.0</ele><time>2026-04-19T10:21:53.635Z</time></trkpt><trkpt lat="38.9855314" lon="-2.9780534"><ele>858.0</ele><time>2026-04-19T10:21:54.632Z</time></trkpt><trkpt lat="38.9855868" lon="-2.9781445"><ele>858.0</ele><time>2026-04-19T10:21:55.631Z</time></trkpt><trkpt lat="38.9856483" lon="-2.9782318"><ele>858.0</ele><time>2026-04-19T10:21:56.63Z</time></trkpt><trkpt lat="38.98571" lon="-2.9783152"><ele>858.0</ele><time>2026-04-19T10:21:57.631Z</time></trkpt><trkpt lat="38.9857711" lon="-2.9784027"><ele>858.0</ele><time>2026-04-19T10:21:58.641Z</time></trkpt><trkpt lat="38.9858267" lon="-2.978492"><ele>857.1666666666666</ele><time>2026-04-19T10:21:59.631Z</time></trkpt><trkpt lat="38.9858764" lon="-2.9785762"><ele>856.3333333333333</ele><time>2026-04-19T10:22:00.63Z</time></trkpt><trkpt lat="38.9859205" lon="-2.9786518"><ele>855.5</ele><time>2026-04-19T10:22:01.63Z</time></trkpt><trkpt lat="38.9859575" lon="-2.9787194"><ele>854.6666666666666</ele><time>2026-04-19T10:22:02.629Z</time></trkpt><trkpt lat="38.9860073" lon="-2.9788168"><ele>853.8333333333333</ele><time>2026-04-19T10:22:04.63Z</time></trkpt><trkpt lat="38.9860547" lon="-2.9789122"><ele>853.0</ele><time>2026-04-19T10:22:07.631Z</time></trkpt><trkpt lat="38.9860991" lon="-2.9789939"><ele>852.9999999999999</ele><time>2026-04-19T10:22:09.633Z</time></trkpt><trkpt lat="38.9861624" lon="-2.9790944"><ele>853.0</ele><time>2026-04-19T10:22:11.626Z</time></trkpt><trkpt lat="38.9862482" lon="-2.9791941"><ele>853.0</ele><time>2026-04-19T10:22:13.621Z</time></trkpt><trkpt lat="38.9862993" lon="-2.9792437"><ele>853.0</ele><time>2026-04-19T10:22:14.632Z</time></trkpt><trkpt lat="38.9863529" lon="-2.9793008"><ele>852.9999999999999</ele><time>2026-04-19T10:22:15.626Z</time></trkpt><trkpt lat="38.9864114" lon="-2.9793539"><ele>853.0</ele><time>2026-04-19T10:22:16.628Z</time></trkpt><trkpt lat="38.9864778" lon="-2.979426"><ele>852.4999999999999</ele><time>2026-04-19T10:22:17.628Z</time></trkpt><trkpt lat="38.986542" lon="-2.9795116"><ele>852.0</ele><time>2026-04-19T10:22:18.624Z</time></trkpt><trkpt lat="38.986605" lon="-2.9795908"><ele>851.5</ele><time>2026-04-19T10:22:19.625Z</time></trkpt><trkpt lat="38.9866739" lon="-2.9796672"><ele>851.0</ele><time>2026-04-19T10:22:20.627Z</time></trkpt><trkpt lat="38.9867464" lon="-2.9797362"><ele>850.4999999999999</ele><time>2026-04-19T10:22:21.626Z</time></trkpt><trkpt lat="38.9868029" lon="-2.9797854"><ele>850.0</ele><time>2026-04-19T10:22:22.628Z</time></trkpt><trkpt lat="38.9869046" lon="-2.97989"><ele>849.1666666666666</ele><time>2026-04-19T10:22:24.625Z</time></trkpt><trkpt lat="38.9869977" lon="-2.9799929"><ele>848.3333333333333</ele><time>2026-04-19T10:22:26.625Z</time></trkpt><trkpt lat="38.987049" lon="-2.9800591"><ele>847.5</ele><time>2026-04-19T10:22:28.632Z</time></trkpt><trkpt lat="38.9870035" lon="-2.9799895"><ele>846.6666666666667</ele><time>2026-04-19T10:22:36.625Z</time></trkpt><trkpt lat="38.9869262" lon="-2.9799092"><ele>845.8333333333334</ele><time>2026-04-19T10:22:38.633Z</time></trkpt><trkpt lat="38.9868598" lon="-2.979848"><ele>845.0</ele><time>2026-04-19T10:22:40.631Z</time></trkpt><trkpt lat="38.9868101" lon="-2.9797978"><ele>845.0</ele><time>2026-04-19T10:22:42.626Z</time></trkpt><trkpt lat="38.9867816" lon="-2.9797139"><ele>845.0</ele><time>2026-04-19T10:23:00.637Z</time></trkpt><trkpt lat="38.9868931" lon="-2.9796878"><ele>845.0</ele><time>2026-04-19T10:23:03.631Z</time></trkpt><trkpt lat="38.9870078" lon="-2.9796202"><ele>845.0</ele><time>2026-04-19T10:23:05.624Z</time></trkpt><trkpt lat="38.987079" lon="-2.9795489"><ele>845.0</ele><time>2026-04-19T10:23:06.633Z</time></trkpt><trkpt lat="38.987149" lon="-2.9794924"><ele>845.0000000000001</ele><time>2026-04-19T10:23:07.636Z</time></trkpt><trkpt lat="38.9872195" lon="-2.9794646"><ele>845.0</ele><time>2026-04-19T10:23:08.627Z</time></trkpt><trkpt lat="38.9872924" lon="-2.9794679"><ele>845.0</ele><time>2026-04-19T10:23:09.637Z</time></trkpt><trkpt lat="38.9873617" lon="-2.9795052"><ele>845.0</ele><time>2026-04-19T10:23:10.63Z</time></trkpt><trkpt lat="38.9874338" lon="-2.9795686"><ele>845.0000000000001</ele><time>2026-04-19T10:23:11.626Z</time></trkpt><trkpt lat="38.9875043" lon="-2.9796232"><ele>845.0</ele><time>2026-04-19T10:23:12.632Z</time></trkpt><trkpt lat="38.9875727" lon="-2.9796871"><ele>844.5000000000001</ele><time>2026-04-19T10:23:13.638Z</time></trkpt><trkpt lat="38.987639" lon="-2.9797371"><ele>844.0</ele><time>2026-04-19T10:23:14.634Z</time></trkpt><trkpt lat="38.9877096" lon="-2.9797633"><ele>843.5</ele><time>2026-04-19T10:23:15.632Z</time></trkpt><trkpt lat="38.987772" lon="-2.9797768"><ele>843.0</ele><time>2026-04-19T10:23:16.625Z</time></trkpt><trkpt lat="38.9878664" lon="-2.9797987"><ele>842.5000000000001</ele><time>2026-04-19T10:23:18.635Z</time></trkpt><trkpt lat="38.9879737" lon="-2.9797763"><ele>842.0</ele><time>2026-04-19T10:23:23.63Z</time></trkpt><trkpt lat="38.9880409" lon="-2.9797575"><ele>842.0000000000001</ele><time>2026-04-19T10:23:34.635Z</time></trkpt><trkpt lat="38.9880217" lon="-2.9798463"><ele>842.0</ele><time>2026-04-19T10:23:40.64Z</time></trkpt><trkpt lat="38.9880035" lon="-2.9799326"><ele>842.0</ele><time>2026-04-19T10:23:43.63Z</time></trkpt><trkpt lat="38.9879575" lon="-2.9800122"><ele>842.0</ele><time>2026-04-19T10:23:46.626Z</time></trkpt><trkpt lat="38.9878894" lon="-2.9799783"><ele>842.0000000000001</ele><time>2026-04-19T10:23:48.627Z</time></trkpt><trkpt lat="38.9878723" lon="-2.9798854"><ele>842.0</ele><time>2026-04-19T10:23:50.627Z</time></trkpt><trkpt lat="38.9878011" lon="-2.9798015"><ele>842.0000000000001</ele><time>2026-04-19T10:23:52.629Z</time></trkpt><trkpt lat="38.9877296" lon="-2.9797756"><ele>842.0</ele><time>2026-04-19T10:23:53.635Z</time></trkpt><trkpt lat="38.9876515" lon="-2.9797449"><ele>842.0</ele><time>2026-04-19T10:23:54.625Z</time></trkpt><trkpt lat="38.9875723" lon="-2.9796873"><ele>842.0</ele><time>2026-04-19T10:23:55.626Z</time></trkpt><trkpt lat="38.9874951" lon="-2.9796254"><ele>842.0000000000001</ele><time>2026-04-19T10:23:56.629Z</time></trkpt><trkpt lat="38.9874352" lon="-2.9795559"><ele>842.0</ele><time>2026-04-19T10:23:57.63Z</time></trkpt><trkpt lat="38.987388" lon="-2.9794929"><ele>842.5000000000001</ele><time>2026-04-19T10:23:58.624Z</time></trkpt><trkpt lat="38.9873469" lon="-2.9794258"><ele>843.0</ele><time>2026-04-19T10:23:59.629Z</time></trkpt><trkpt lat="38.9873271" lon="-2.9793112"><ele>843.5</ele><time>2026-04-19T10:24:01.628Z</time></trkpt><trkpt lat="38.9873212" lon="-2.9792264"><ele>844.0</ele><time>2026-04-19T10:24:03.634Z</time></trkpt><trkpt lat="38.9872492" lon="-2.9791486"><ele>844.5000000000001</ele><time>2026-04-19T10:24:06.629Z</time></trkpt><trkpt lat="38.9871577" lon="-2.9791047"><ele>845.0</ele><time>2026-04-19T10:24:08.628Z</time></trkpt><trkpt lat="38.9870934" lon="-2.9790782"><ele>845.3333333333334</ele><time>2026-04-19T10:24:09.63Z</time></trkpt><trkpt lat="38.9870217" lon="-2.9790244"><ele>845.6666666666667</ele><time>2026-04-19T10:24:10.627Z</time></trkpt><trkpt lat="38.9869623" lon="-2.9789571"><ele>846.0</ele><time>2026-04-19T10:24:11.634Z</time></trkpt><trkpt lat="38.9869281" lon="-2.9788871"><ele>846.3333333333333</ele><time>2026-04-19T10:24:12.62Z</time></trkpt><trkpt lat="38.9868981" lon="-2.9788146"><ele>846.6666666666666</ele><time>2026-04-19T10:24:13.635Z</time></trkpt><trkpt lat="38.9868984" lon="-2.9787067"><ele>847.0</ele><time>2026-04-19T10:24:14.621Z</time></trkpt><trkpt lat="38.9868964" lon="-2.9785851"><ele>847.0</ele><time>2026-04-19T10:24:15.627Z</time></trkpt><trkpt lat="38.9868698" lon="-2.9784568"><ele>847.0</ele><time>2026-04-19T10:24:16.625Z</time></trkpt><trkpt lat="38.986831" lon="-2.9783418"><ele>847.0</ele><time>2026-04-19T10:24:17.633Z</time></trkpt><trkpt lat="38.9867931" lon="-2.9782383"><ele>847.0</ele><time>2026-04-19T10:24:18.627Z</time></trkpt><trkpt lat="38.9867609" lon="-2.9781505"><ele>847.0</ele><time>2026-04-19T10:24:19.637Z</time></trkpt><trkpt lat="38.9867956" lon="-2.9779747"><ele>847.3333333333333</ele><time>2026-04-19T10:24:21.633Z</time></trkpt><trkpt lat="38.9868164" lon="-2.9778676"><ele>847.6666666666666</ele><time>2026-04-19T10:24:22.626Z</time></trkpt><trkpt lat="38.986834" lon="-2.9777541"><ele>848.0</ele><time>2026-04-19T10:24:23.63Z</time></trkpt><trkpt lat="38.9868579" lon="-2.9776472"><ele>848.3333333333333</ele><time>2026-04-19T10:24:24.624Z</time></trkpt><trkpt lat="38.9868859" lon="-2.9775498"><ele>848.6666666666666</ele><time>2026-04-19T10:24:25.632Z</time></trkpt><trkpt lat="38.9869198" lon="-2.9774543"><ele>849.0</ele><time>2026-04-19T10:24:26.624Z</time></trkpt><trkpt lat="38.986952" lon="-2.9773509"><ele>849.3333333333334</ele><time>2026-04-19T10:24:27.617Z</time></trkpt><trkpt lat="38.9869837" lon="-2.9772492"><ele>849.6666666666667</ele><time>2026-04-19T10:24:28.637Z</time></trkpt><trkpt lat="38.9870172" lon="-2.9771433"><ele>850.0</ele><time>2026-04-19T10:24:29.635Z</time></trkpt><trkpt lat="38.9870567" lon="-2.977049"><ele>850.3333333333334</ele><time>2026-04-19T10:24:30.63Z</time></trkpt><trkpt lat="38.9870976" lon="-2.9769619"><ele>850.6666666666667</ele><time>2026-04-19T10:24:31.632Z</time></trkpt><trkpt lat="38.987137" lon="-2.9768804"><ele>851.0</ele><time>2026-04-19T10:24:32.634Z</time></trkpt><trkpt lat="38.9871932" lon="-2.9768165"><ele>851.0</ele><time>2026-04-19T10:24:33.628Z</time></trkpt><trkpt lat="38.9872561" lon="-2.9767705"><ele>851.0</ele><time>2026-04-19T10:24:34.627Z</time></trkpt><trkpt lat="38.9873538" lon="-2.9767566"><ele>851.0</ele><time>2026-04-19T10:24:36.631Z</time></trkpt><trkpt lat="38.98747" lon="-2.976824"><ele>851.0</ele><time>2026-04-19T10:24:38.636Z</time></trkpt><trkpt lat="38.9875341" lon="-2.9769033"><ele>851.0</ele><time>2026-04-19T10:24:39.627Z</time></trkpt><trkpt lat="38.9875902" lon="-2.9769972"><ele>850.0000000000001</ele><time>2026-04-19T10:24:40.62Z</time></trkpt><trkpt lat="38.9876377" lon="-2.9770928"><ele>849.0</ele><time>2026-04-19T10:24:41.634Z</time></trkpt><trkpt lat="38.987687" lon="-2.9771815"><ele>848.0</ele><time>2026-04-19T10:24:42.637Z</time></trkpt><trkpt lat="38.9877434" lon="-2.9772606"><ele>847.0</ele><time>2026-04-19T10:24:43.625Z</time></trkpt><trkpt lat="38.9878099" lon="-2.9773287"><ele>846.0000000000001</ele><time>2026-04-19T10:24:44.62Z</time></trkpt><trkpt lat="38.987883" lon="-2.9773885"><ele>845.0</ele><time>2026-04-19T10:24:45.623Z</time></trkpt><trkpt lat="38.9879573" lon="-2.9774541"><ele>845.0</ele><time>2026-04-19T10:24:46.622Z</time></trkpt><trkpt lat="38.9880283" lon="-2.9775323"><ele>845.0</ele><time>2026-04-19T10:24:47.632Z</time></trkpt><trkpt lat="38.9880914" lon="-2.9776206"><ele>845.0</ele><time>2026-04-19T10:24:48.625Z</time></trkpt><trkpt lat="38.9881444" lon="-2.9777186"><ele>845.0</ele><time>2026-04-19T10:24:49.623Z</time></trkpt><trkpt lat="38.9881813" lon="-2.9778114"><ele>845.0</ele><time>2026-04-19T10:24:50.622Z</time></trkpt><trkpt lat="38.9881974" lon="-2.9779573"><ele>845.0</ele><time>2026-04-19T10:24:52.633Z</time></trkpt><trkpt lat="38.9881898" lon="-2.9780449"><ele>845.0</ele><time>2026-04-19T10:24:53.623Z</time></trkpt><trkpt lat="38.9881722" lon="-2.9781573"><ele>845.0</ele><time>2026-04-19T10:24:54.63Z</time></trkpt><trkpt lat="38.9881472" lon="-2.9782921"><ele>845.0</ele><time>2026-04-19T10:24:55.625Z</time></trkpt><trkpt lat="38.9881179" lon="-2.9784435"><ele>845.0</ele><time>2026-04-19T10:24:56.635Z</time></trkpt><trkpt lat="38.9880844" lon="-2.9786018"><ele>844.75</ele><time>2026-04-19T10:24:57.632Z</time></trkpt><trkpt lat="38.9880513" lon="-2.9787589"><ele>844.5</ele><time>2026-04-19T10:24:58.63Z</time></trkpt><trkpt lat="38.9880294" lon="-2.9789173"><ele>844.25</ele><time>2026-04-19T10:24:59.625Z</time></trkpt><trkpt lat="38.9880344" lon="-2.9790853"><ele>844.0</ele><time>2026-04-19T10:25:00.632Z</time></trkpt><trkpt lat="38.9880633" lon="-2.9792545"><ele>843.5</ele><time>2026-04-19T10:25:01.624Z</time></trkpt><trkpt lat="38.9881088" lon="-2.9794064"><ele>843.0</ele><time>2026-04-19T10:25:02.619Z</time></trkpt><trkpt lat="38.9881688" lon="-2.9795378"><ele>842.5</ele><time>2026-04-19T10:25:03.624Z</time></trkpt><trkpt lat="38.9882477" lon="-2.9796394"><ele>842.0</ele><time>2026-04-19T10:25:04.628Z</time></trkpt><trkpt lat="38.9883445" lon="-2.9797159"><ele>841.6666666666667</ele><time>2026-04-19T10:25:05.63Z</time></trkpt><trkpt lat="38.9884678" lon="-2.9797849"><ele>841.3333333333333</ele><time>2026-04-19T10:25:06.625Z</time></trkpt><trkpt lat="38.9886158" lon="-2.9798617"><ele>841.0</ele><time>2026-04-19T10:25:07.632Z</time></trkpt><trkpt lat="38.9887849" lon="-2.9799581"><ele>841.0</ele><time>2026-04-19T10:25:08.631Z</time></trkpt><trkpt lat="38.9889657" lon="-2.980066"><ele>841.0</ele><time>2026-04-19T10:25:09.621Z</time></trkpt><trkpt lat="38.989153" lon="-2.980182"><ele>841.0</ele><time>2026-04-19T10:25:10.634Z</time></trkpt><trkpt lat="38.98933" lon="-2.9802909"><ele>841.0</ele><time>2026-04-19T10:25:11.629Z</time></trkpt><trkpt lat="38.9894975" lon="-2.9803784"><ele>841.0</ele><time>2026-04-19T10:25:12.628Z</time></trkpt><trkpt lat="38.9896514" lon="-2.9804373"><ele>841.0</ele><time>2026-04-19T10:25:13.635Z</time></trkpt><trkpt lat="38.98979" lon="-2.9804698"><ele>841.0</ele><time>2026-04-19T10:25:14.629Z</time></trkpt><trkpt lat="38.9899069" lon="-2.9804746"><ele>841.0</ele><time>2026-04-19T10:25:15.623Z</time></trkpt><trkpt lat="38.9900059" lon="-2.980459"><ele>841.0</ele><time>2026-04-19T10:25:16.629Z</time></trkpt><trkpt lat="38.9900964" lon="-2.9804254"><ele>841.0</ele><time>2026-04-19T10:25:17.625Z</time></trkpt><trkpt lat="38.9901815" lon="-2.9803753"><ele>841.0</ele><time>2026-04-19T10:25:18.629Z</time></trkpt><trkpt lat="38.990269" lon="-2.9803094"><ele>841.0</ele><time>2026-04-19T10:25:19.622Z</time></trkpt><trkpt lat="38.9903541" lon="-2.9802322"><ele>841.0</ele><time>2026-04-19T10:25:20.63Z</time></trkpt><trkpt lat="38.9904322" lon="-2.9801503"><ele>841.0</ele><time>2026-04-19T10:25:21.636Z</time></trkpt><trkpt lat="38.9905056" lon="-2.9800777"><ele>841.0</ele><time>2026-04-19T10:25:22.627Z</time></trkpt><trkpt lat="38.9905799" lon="-2.9800214"><ele>841.0</ele><time>2026-04-19T10:25:23.625Z</time></trkpt><trkpt lat="38.9906545" lon="-2.9799772"><ele>840.9999999999999</ele><time>2026-04-19T10:25:24.63Z</time></trkpt><trkpt lat="38.990742" lon="-2.9799664"><ele>841.0</ele><time>2026-04-19T10:25:25.624Z</time></trkpt><trkpt lat="38.9908157" lon="-2.9799924"><ele>841.0</ele><time>2026-04-19T10:25:26.626Z</time></trkpt><trkpt lat="38.9908861" lon="-2.9800349"><ele>841.0</ele><time>2026-04-19T10:25:27.623Z</time></trkpt><trkpt lat="38.9909494" lon="-2.9800902"><ele>840.9999999999999</ele><time>2026-04-19T10:25:28.619Z</time></trkpt><trkpt lat="38.99101" lon="-2.9801637"><ele>841.0</ele><time>2026-04-19T10:25:29.625Z</time></trkpt><trkpt lat="38.9910684" lon="-2.9802595"><ele>839.75</ele><time>2026-04-19T10:25:30.632Z</time></trkpt><trkpt lat="38.991135" lon="-2.9803722"><ele>838.5</ele><time>2026-04-19T10:25:31.63Z</time></trkpt><trkpt lat="38.9912194" lon="-2.9804891"><ele>837.25</ele><time>2026-04-19T10:25:32.639Z</time></trkpt><trkpt lat="38.9913074" lon="-2.9805936"><ele>836.0</ele><time>2026-04-19T10:25:33.622Z</time></trkpt><trkpt lat="38.9914075" lon="-2.9806822"><ele>836.0</ele><time>2026-04-19T10:25:34.624Z</time></trkpt><trkpt lat="38.9914967" lon="-2.9807763"><ele>836.0</ele><time>2026-04-19T10:25:35.626Z</time></trkpt><trkpt lat="38.9915752" lon="-2.9808771"><ele>836.0</ele><time>2026-04-19T10:25:36.624Z</time></trkpt><trkpt lat="38.9916356" lon="-2.9809966"><ele>836.0</ele><time>2026-04-19T10:25:37.63Z</time></trkpt><trkpt lat="38.9916979" lon="-2.9811134"><ele>836.0</ele><time>2026-04-19T10:25:38.626Z</time></trkpt><trkpt lat="38.9917525" lon="-2.9812367"><ele>835.25</ele><time>2026-04-19T10:25:39.62Z</time></trkpt><trkpt lat="38.9918058" lon="-2.9813546"><ele>834.5</ele><time>2026-04-19T10:25:40.629Z</time></trkpt><trkpt lat="38.991882" lon="-2.981466"><ele>833.75</ele><time>2026-04-19T10:25:41.629Z</time></trkpt><trkpt lat="38.9919661" lon="-2.9815725"><ele>833.0</ele><time>2026-04-19T10:25:42.629Z</time></trkpt><trkpt lat="38.9920669" lon="-2.9816805"><ele>831.5</ele><time>2026-04-19T10:25:43.63Z</time></trkpt><trkpt lat="38.9921795" lon="-2.9817854"><ele>830.0</ele><time>2026-04-19T10:25:44.627Z</time></trkpt><trkpt lat="38.9922946" lon="-2.9818706"><ele>828.5</ele><time>2026-04-19T10:25:45.631Z</time></trkpt><trkpt lat="38.9924053" lon="-2.9819483"><ele>827.0</ele><time>2026-04-19T10:25:46.624Z</time></trkpt><trkpt lat="38.9925047" lon="-2.982027"><ele>827.3333333333334</ele><time>2026-04-19T10:25:47.626Z</time></trkpt><trkpt lat="38.9925893" lon="-2.9821056"><ele>827.6666666666667</ele><time>2026-04-19T10:25:48.626Z</time></trkpt><trkpt lat="38.992663" lon="-2.9821735"><ele>828.0</ele><time>2026-04-19T10:25:49.629Z</time></trkpt><trkpt lat="38.9927293" lon="-2.982232"><ele>828.3333333333333</ele><time>2026-04-19T10:25:50.623Z</time></trkpt><trkpt lat="38.9927839" lon="-2.982279"><ele>828.6666666666666</ele><time>2026-04-19T10:25:51.634Z</time></trkpt><trkpt lat="38.9928727" lon="-2.9823509"><ele>829.0</ele><time>2026-04-19T10:25:53.63Z</time></trkpt><trkpt lat="38.9929529" lon="-2.9824553"><ele>827.9999999999999</ele><time>2026-04-19T10:25:55.626Z</time></trkpt><trkpt lat="38.9929854" lon="-2.982533"><ele>827.0</ele><time>2026-04-19T10:25:56.639Z</time></trkpt><trkpt lat="38.9930171" lon="-2.9826153"><ele>826.0</ele><time>2026-04-19T10:25:57.625Z</time></trkpt><trkpt lat="38.9930558" lon="-2.982692"><ele>825.0</ele><time>2026-04-19T10:25:58.623Z</time></trkpt><trkpt lat="38.9931067" lon="-2.9827755"><ele>823.9999999999999</ele><time>2026-04-19T10:25:59.625Z</time></trkpt><trkpt lat="38.9931663" lon="-2.9828571"><ele>823.0</ele><time>2026-04-19T10:26:00.642Z</time></trkpt><trkpt lat="38.9932293" lon="-2.982934"><ele>822.9999999999999</ele><time>2026-04-19T10:26:01.626Z</time></trkpt><trkpt lat="38.9932845" lon="-2.983017"><ele>823.0</ele><time>2026-04-19T10:26:02.637Z</time></trkpt><trkpt lat="38.993336" lon="-2.9831085"><ele>823.0</ele><time>2026-04-19T10:26:03.619Z</time></trkpt><trkpt lat="38.9933805" lon="-2.9832068"><ele>823.0</ele><time>2026-04-19T10:26:04.624Z</time></trkpt><trkpt lat="38.993412" lon="-2.9833074"><ele>822.9999999999999</ele><time>2026-04-19T10:26:05.627Z</time></trkpt><trkpt lat="38.9934347" lon="-2.9834107"><ele>823.0</ele><time>2026-04-19T10:26:06.63Z</time></trkpt><trkpt lat="38.9934537" lon="-2.9835111"><ele>822.1666666666666</ele><time>2026-04-19T10:26:07.626Z</time></trkpt><trkpt lat="38.9934788" lon="-2.9836061"><ele>821.3333333333333</ele><time>2026-04-19T10:26:08.627Z</time></trkpt><trkpt lat="38.9935167" lon="-2.9836924"><ele>820.5</ele><time>2026-04-19T10:26:09.63Z</time></trkpt><trkpt lat="38.9935541" lon="-2.9837688"><ele>819.6666666666667</ele><time>2026-04-19T10:26:10.629Z</time></trkpt><trkpt lat="38.9936217" lon="-2.9838101"><ele>818.8333333333334</ele><time>2026-04-19T10:26:11.626Z</time></trkpt><trkpt lat="38.993702" lon="-2.9838242"><ele>818.0</ele><time>2026-04-19T10:26:12.63Z</time></trkpt><trkpt lat="38.9937977" lon="-2.9838299"><ele>818.0</ele><time>2026-04-19T10:26:13.628Z</time></trkpt><trkpt lat="38.9939149" lon="-2.98383"><ele>818.0</ele><time>2026-04-19T10:26:14.632Z</time></trkpt><trkpt lat="38.9940425" lon="-2.9838474"><ele>818.0</ele><time>2026-04-19T10:26:15.622Z</time></trkpt><trkpt lat="38.9941786" lon="-2.983885"><ele>818.0</ele><time>2026-04-19T10:26:16.632Z</time></trkpt><trkpt lat="38.994297" lon="-2.9839262"><ele>817.8</ele><time>2026-04-19T10:26:17.627Z</time></trkpt><trkpt lat="38.9943869" lon="-2.9839446"><ele>817.5999999999999</ele><time>2026-04-19T10:26:18.632Z</time></trkpt><trkpt lat="38.9944505" lon="-2.9839481"><ele>817.4000000000001</ele><time>2026-04-19T10:26:19.624Z</time></trkpt><trkpt lat="38.994549" lon="-2.9838733"><ele>817.2</ele><time>2026-04-19T10:26:21.632Z</time></trkpt><trkpt lat="38.9946126" lon="-2.9837913"><ele>817.0</ele><time>2026-04-19T10:26:22.618Z</time></trkpt><trkpt lat="38.9946848" lon="-2.9836948"><ele>817.0</ele><time>2026-04-19T10:26:23.626Z</time></trkpt><trkpt lat="38.9947599" lon="-2.9836117"><ele>817.0</ele><time>2026-04-19T10:26:24.625Z</time></trkpt><trkpt lat="38.9948326" lon="-2.9835488"><ele>817.0</ele><time>2026-04-19T10:26:25.628Z</time></trkpt><trkpt lat="38.9949167" lon="-2.9835153"><ele>817.0</ele><time>2026-04-19T10:26:26.627Z</time></trkpt><trkpt lat="38.9950131" lon="-2.9834963"><ele>817.0</ele><time>2026-04-19T10:26:27.624Z</time></trkpt><trkpt lat="38.9951367" lon="-2.983507"><ele>816.5</ele><time>2026-04-19T10:26:28.639Z</time></trkpt><trkpt lat="38.9952681" lon="-2.9834882"><ele>816.0</ele><time>2026-04-19T10:26:29.628Z</time></trkpt><trkpt lat="38.9953981" lon="-2.9834445"><ele>815.5</ele><time>2026-04-19T10:26:30.631Z</time></trkpt><trkpt lat="38.9955248" lon="-2.9833951"><ele>815.0</ele><time>2026-04-19T10:26:31.64Z</time></trkpt><trkpt lat="38.9956455" lon="-2.9833559"><ele>815.0</ele><time>2026-04-19T10:26:32.617Z</time></trkpt><trkpt lat="38.995749" lon="-2.9833431"><ele>815.0</ele><time>2026-04-19T10:26:33.627Z</time></trkpt><trkpt lat="38.9958417" lon="-2.9833539"><ele>815.0</ele><time>2026-04-19T10:26:34.63Z</time></trkpt><trkpt lat="38.9959373" lon="-2.9833972"><ele>815.0</ele><time>2026-04-19T10:26:35.621Z</time></trkpt><trkpt lat="38.9960427" lon="-2.9834711"><ele>815.0</ele><time>2026-04-19T10:26:36.641Z</time></trkpt><trkpt lat="38.9961613" lon="-2.983572"><ele>814.0</ele><time>2026-04-19T10:26:37.637Z</time></trkpt><trkpt lat="38.9962921" lon="-2.9836922"><ele>813.0</ele><time>2026-04-19T10:26:38.629Z</time></trkpt><trkpt lat="38.9964435" lon="-2.9838259"><ele>812.0</ele><time>2026-04-19T10:26:39.63Z</time></trkpt><trkpt lat="38.9966128" lon="-2.9839755"><ele>812.0</ele><time>2026-04-19T10:26:40.631Z</time></trkpt><trkpt lat="38.996785" lon="-2.9841311"><ele>812.0</ele><time>2026-04-19T10:26:41.629Z</time></trkpt><trkpt lat="38.9969535" lon="-2.9842716"><ele>812.0</ele><time>2026-04-19T10:26:42.627Z</time></trkpt><trkpt lat="38.99712" lon="-2.9843931"><ele>812.3333333333334</ele><time>2026-04-19T10:26:43.629Z</time></trkpt><trkpt lat="38.9972825" lon="-2.9844903"><ele>812.6666666666667</ele><time>2026-04-19T10:26:44.624Z</time></trkpt><trkpt lat="38.997429" lon="-2.9845605"><ele>813.0</ele><time>2026-04-19T10:26:45.629Z</time></trkpt><trkpt lat="38.9975553" lon="-2.9846119"><ele>813.0</ele><time>2026-04-19T10:26:46.629Z</time></trkpt><trkpt lat="38.9976618" lon="-2.9846641"><ele>813.0</ele><time>2026-04-19T10:26:47.625Z</time></trkpt><trkpt lat="38.9977495" lon="-2.9847338"><ele>813.0</ele><time>2026-04-19T10:26:48.625Z</time></trkpt><trkpt lat="38.9978311" lon="-2.9848135"><ele>813.0</ele><time>2026-04-19T10:26:49.624Z</time></trkpt><trkpt lat="38.997881" lon="-2.9849385"><ele>813.0</ele><time>2026-04-19T10:26:50.626Z</time></trkpt><trkpt lat="38.9979067" lon="-2.9850829"><ele>812.75</ele><time>2026-04-19T10:26:51.623Z</time></trkpt><trkpt lat="38.9979268" lon="-2.9852506"><ele>812.5</ele><time>2026-04-19T10:26:52.633Z</time></trkpt><trkpt lat="38.9979459" lon="-2.9854233"><ele>812.25</ele><time>2026-04-19T10:26:53.627Z</time></trkpt><trkpt lat="38.9979539" lon="-2.9855934"><ele>812.0</ele><time>2026-04-19T10:26:54.627Z</time></trkpt><trkpt lat="38.9979627" lon="-2.9857425"><ele>811.25</ele><time>2026-04-19T10:26:55.626Z</time></trkpt><trkpt lat="38.9979295" lon="-2.9859071"><ele>810.5</ele><time>2026-04-19T10:26:56.625Z</time></trkpt><trkpt lat="38.9979135" lon="-2.9860586"><ele>809.75</ele><time>2026-04-19T10:26:57.621Z</time></trkpt><trkpt lat="38.9979174" lon="-2.9862218"><ele>809.0</ele><time>2026-04-19T10:26:58.629Z</time></trkpt><trkpt lat="38.9979241" lon="-2.9863897"><ele>809.0</ele><time>2026-04-19T10:26:59.627Z</time></trkpt><trkpt lat="38.9979409" lon="-2.9866208"><ele>809.0</ele><time>2026-04-19T10:27:00.636Z</time></trkpt><trkpt lat="38.9979388" lon="-2.9868441"><ele>809.0</ele><time>2026-04-19T10:27:01.631Z</time></trkpt><trkpt lat="38.9979519" lon="-2.9870422"><ele>808.3333333333334</ele><time>2026-04-19T10:27:02.625Z</time></trkpt><trkpt lat="38.9979912" lon="-2.9872245"><ele>807.6666666666667</ele><time>2026-04-19T10:27:03.625Z</time></trkpt><trkpt lat="38.9980591" lon="-2.9874121"><ele>807.0</ele><time>2026-04-19T10:27:04.63Z</time></trkpt><trkpt lat="38.9981506" lon="-2.9876097"><ele>807.0</ele><time>2026-04-19T10:27:05.622Z</time></trkpt><trkpt lat="38.9982549" lon="-2.9878059"><ele>807.0</ele><time>2026-04-19T10:27:06.627Z</time></trkpt><trkpt lat="38.9983483" lon="-2.987977"><ele>807.0</ele><time>2026-04-19T10:27:07.619Z</time></trkpt><trkpt lat="38.9984465" lon="-2.9881221"><ele>807.25</ele><time>2026-04-19T10:27:08.624Z</time></trkpt><trkpt lat="38.9985358" lon="-2.9882466"><ele>807.5</ele><time>2026-04-19T10:27:09.631Z</time></trkpt><trkpt lat="38.9986102" lon="-2.988362"><ele>807.75</ele><time>2026-04-19T10:27:10.628Z</time></trkpt><trkpt lat="38.9986606" lon="-2.988476"><ele>808.0</ele><time>2026-04-19T10:27:11.621Z</time></trkpt><trkpt lat="38.9986835" lon="-2.9886237"><ele>808.0</ele><time>2026-04-19T10:27:12.632Z</time></trkpt><trkpt lat="38.9986963" lon="-2.9887939"><ele>808.0</ele><time>2026-04-19T10:27:13.638Z</time></trkpt><trkpt lat="38.9986914" lon="-2.9889982"><ele>808.0</ele><time>2026-04-19T10:27:14.625Z</time></trkpt><trkpt lat="38.9986958" lon="-2.989185"><ele>808.0</ele><time>2026-04-19T10:27:15.631Z</time></trkpt><trkpt lat="38.9987151" lon="-2.9893693"><ele>807.25</ele><time>2026-04-19T10:27:16.63Z</time></trkpt><trkpt lat="38.9987269" lon="-2.9895339"><ele>806.5</ele><time>2026-04-19T10:27:17.634Z</time></trkpt><trkpt lat="38.9987401" lon="-2.9896885"><ele>805.75</ele><time>2026-04-19T10:27:18.624Z</time></trkpt><trkpt lat="38.998754" lon="-2.9898377"><ele>805.0</ele><time>2026-04-19T10:27:19.623Z</time></trkpt><trkpt lat="38.9987725" lon="-2.9899751"><ele>805.6</ele><time>2026-04-19T10:27:20.63Z</time></trkpt><trkpt lat="38.9988056" lon="-2.9901016"><ele>806.2</ele><time>2026-04-19T10:27:21.621Z</time></trkpt><trkpt lat="38.9988561" lon="-2.9902149"><ele>806.8</ele><time>2026-04-19T10:27:22.621Z</time></trkpt><trkpt lat="38.9989272" lon="-2.9903137"><ele>807.4</ele><time>2026-04-19T10:27:23.618Z</time></trkpt><trkpt lat="38.9990185" lon="-2.9903913"><ele>808.0</ele><time>2026-04-19T10:27:24.618Z</time></trkpt><trkpt lat="38.9991375" lon="-2.9904683"><ele>807.6666666666666</ele><time>2026-04-19T10:27:25.635Z</time></trkpt><trkpt lat="38.9992776" lon="-2.9905624"><ele>807.3333333333333</ele><time>2026-04-19T10:27:26.627Z</time></trkpt><trkpt lat="38.9994294" lon="-2.9906734"><ele>807.0</ele><time>2026-04-19T10:27:27.628Z</time></trkpt><trkpt lat="38.9995899" lon="-2.9907823"><ele>807.0</ele><time>2026-04-19T10:27:28.625Z</time></trkpt><trkpt lat="38.9997773" lon="-2.9908803"><ele>807.0</ele><time>2026-04-19T10:27:29.632Z</time></trkpt><trkpt lat="38.999977" lon="-2.9909625"><ele>807.0</ele><time>2026-04-19T10:27:30.628Z</time></trkpt><trkpt lat="39.0001662" lon="-2.9910374"><ele>807.0</ele><time>2026-04-19T10:27:31.623Z</time></trkpt><trkpt lat="39.0003441" lon="-2.9911116"><ele>807.0</ele><time>2026-04-19T10:27:32.63Z</time></trkpt><trkpt lat="39.0005152" lon="-2.9911777"><ele>807.0</ele><time>2026-04-19T10:27:33.618Z</time></trkpt><trkpt lat="39.00068" lon="-2.9912231"><ele>807.0</ele><time>2026-04-19T10:27:34.633Z</time></trkpt><trkpt lat="39.0008323" lon="-2.9912503"><ele>807.0</ele><time>2026-04-19T10:27:35.642Z</time></trkpt><trkpt lat="39.0009661" lon="-2.9912725"><ele>807.0</ele><time>2026-04-19T10:27:36.632Z</time></trkpt><trkpt lat="39.0010891" lon="-2.9912963"><ele>807.0</ele><time>2026-04-19T10:27:37.627Z</time></trkpt><trkpt lat="39.0011763" lon="-2.9913242"><ele>807.25</ele><time>2026-04-19T10:27:38.625Z</time></trkpt><trkpt lat="39.0012441" lon="-2.9913785"><ele>807.5</ele><time>2026-04-19T10:27:39.629Z</time></trkpt><trkpt lat="39.0013252" lon="-2.9914602"><ele>807.75</ele><time>2026-04-19T10:27:40.638Z</time></trkpt><trkpt lat="39.0014248" lon="-2.9915664"><ele>808.0</ele><time>2026-04-19T10:27:41.625Z</time></trkpt><trkpt lat="39.0015331" lon="-2.9916879"><ele>808.0</ele><time>2026-04-19T10:27:42.641Z</time></trkpt><trkpt lat="39.0016611" lon="-2.9918053"><ele>808.0</ele><time>2026-04-19T10:27:43.643Z</time></trkpt><trkpt lat="39.0018062" lon="-2.9919155"><ele>808.0</ele><time>2026-04-19T10:27:44.631Z</time></trkpt><trkpt lat="39.0019636" lon="-2.9920187"><ele>807.3333333333333</ele><time>2026-04-19T10:27:45.631Z</time></trkpt><trkpt lat="39.0021172" lon="-2.9921159"><ele>806.6666666666667</ele><time>2026-04-19T10:27:46.633Z</time></trkpt><trkpt lat="39.002268" lon="-2.9922128"><ele>806.0</ele><time>2026-04-19T10:27:47.628Z</time></trkpt><trkpt lat="39.0024189" lon="-2.9923186"><ele>806.0</ele><time>2026-04-19T10:27:48.637Z</time></trkpt><trkpt lat="39.0025707" lon="-2.9924319"><ele>806.0</ele><time>2026-04-19T10:27:49.63Z</time></trkpt><trkpt lat="39.0027213" lon="-2.9925529"><ele>806.0</ele><time>2026-04-19T10:27:50.637Z</time></trkpt><trkpt lat="39.0028692" lon="-2.9926887"><ele>806.0</ele><time>2026-04-19T10:27:51.626Z</time></trkpt><trkpt lat="39.0030161" lon="-2.9928304"><ele>806.0</ele><time>2026-04-19T10:27:52.626Z</time></trkpt><trkpt lat="39.0031601" lon="-2.9929711"><ele>806.0</ele><time>2026-04-19T10:27:53.632Z</time></trkpt><trkpt lat="39.0033035" lon="-2.9931116"><ele>806.0</ele><time>2026-04-19T10:27:54.627Z</time></trkpt><trkpt lat="39.0034443" lon="-2.9932536"><ele>806.0</ele><time>2026-04-19T10:27:55.628Z</time></trkpt><trkpt lat="39.0035832" lon="-2.9933936"><ele>806.0</ele><time>2026-04-19T10:27:56.622Z</time></trkpt><trkpt lat="39.0037239" lon="-2.9935268"><ele>806.0</ele><time>2026-04-19T10:27:57.631Z</time></trkpt><trkpt lat="39.0038616" lon="-2.9936495"><ele>806.0</ele><time>2026-04-19T10:27:58.632Z</time></trkpt><trkpt lat="39.0039933" lon="-2.9937625"><ele>806.0</ele><time>2026-04-19T10:27:59.629Z</time></trkpt><trkpt lat="39.0041184" lon="-2.9938728"><ele>805.3333333333334</ele><time>2026-04-19T10:28:00.635Z</time></trkpt><trkpt lat="39.0042433" lon="-2.9939993"><ele>804.6666666666667</ele><time>2026-04-19T10:28:01.637Z</time></trkpt><trkpt lat="39.0043644" lon="-2.9941457"><ele>804.0</ele><time>2026-04-19T10:28:02.628Z</time></trkpt><trkpt lat="39.0044782" lon="-2.9942917"><ele>804.0</ele><time>2026-04-19T10:28:03.634Z</time></trkpt><trkpt lat="39.0045852" lon="-2.9944379"><ele>804.0</ele><time>2026-04-19T10:28:04.627Z</time></trkpt><trkpt lat="39.0046973" lon="-2.9945622"><ele>804.0</ele><time>2026-04-19T10:28:05.641Z</time></trkpt><trkpt lat="39.0048217" lon="-2.9946661"><ele>804.0</ele><time>2026-04-19T10:28:06.632Z</time></trkpt><trkpt lat="39.0049591" lon="-2.9947609"><ele>804.0</ele><time>2026-04-19T10:28:07.622Z</time></trkpt><trkpt lat="39.0050926" lon="-2.9948434"><ele>804.0</ele><time>2026-04-19T10:28:08.623Z</time></trkpt><trkpt lat="39.0052296" lon="-2.9949319"><ele>804.0</ele><time>2026-04-19T10:28:09.642Z</time></trkpt><trkpt lat="39.0053642" lon="-2.9950286"><ele>804.0</ele><time>2026-04-19T10:28:10.631Z</time></trkpt><trkpt lat="39.0054966" lon="-2.9951404"><ele>804.0</ele><time>2026-04-19T10:28:11.637Z</time></trkpt><trkpt lat="39.005628" lon="-2.9952663"><ele>804.0</ele><time>2026-04-19T10:28:12.623Z</time></trkpt><trkpt lat="39.0057563" lon="-2.9953979"><ele>804.0</ele><time>2026-04-19T10:28:13.62Z</time></trkpt><trkpt lat="39.0058917" lon="-2.9955302"><ele>804.0</ele><time>2026-04-19T10:28:14.631Z</time></trkpt><trkpt lat="39.0060272" lon="-2.9956572"><ele>802.6666666666667</ele><time>2026-04-19T10:28:15.633Z</time></trkpt><trkpt lat="39.0061596" lon="-2.9957842"><ele>801.3333333333334</ele><time>2026-04-19T10:28:16.624Z</time></trkpt><trkpt lat="39.0062829" lon="-2.9959129"><ele>800.0</ele><time>2026-04-19T10:28:17.631Z</time></trkpt><trkpt lat="39.0063962" lon="-2.9960459"><ele>800.0</ele><time>2026-04-19T10:28:18.637Z</time></trkpt><trkpt lat="39.0064972" lon="-2.9961662"><ele>800.0</ele><time>2026-04-19T10:28:19.625Z</time></trkpt><trkpt lat="39.0065902" lon="-2.9962694"><ele>800.0</ele><time>2026-04-19T10:28:20.622Z</time></trkpt><trkpt lat="39.0066786" lon="-2.9963555"><ele>800.0</ele><time>2026-04-19T10:28:21.624Z</time></trkpt><trkpt lat="39.0067649" lon="-2.9964231"><ele>799.6666666666667</ele><time>2026-04-19T10:28:22.622Z</time></trkpt><trkpt lat="39.0068453" lon="-2.9964789"><ele>799.3333333333334</ele><time>2026-04-19T10:28:23.639Z</time></trkpt><trkpt lat="39.0069177" lon="-2.9965387"><ele>799.0</ele><time>2026-04-19T10:28:24.626Z</time></trkpt><trkpt lat="39.0069717" lon="-2.9966124"><ele>798.6666666666667</ele><time>2026-04-19T10:28:25.623Z</time></trkpt><trkpt lat="39.0070125" lon="-2.996705"><ele>798.3333333333334</ele><time>2026-04-19T10:28:26.628Z</time></trkpt><trkpt lat="39.0070429" lon="-2.996801"><ele>798.0</ele><time>2026-04-19T10:28:27.634Z</time></trkpt><trkpt lat="39.0070684" lon="-2.9968927"><ele>798.0</ele><time>2026-04-19T10:28:28.622Z</time></trkpt><trkpt lat="39.0070997" lon="-2.9969709"><ele>798.0</ele><time>2026-04-19T10:28:29.629Z</time></trkpt><trkpt lat="39.0071976" lon="-2.997065"><ele>798.0</ele><time>2026-04-19T10:28:31.63Z</time></trkpt><trkpt lat="39.0072636" lon="-2.9970904"><ele>798.0</ele><time>2026-04-19T10:28:32.62Z</time></trkpt><trkpt lat="39.0073399" lon="-2.9971032"><ele>798.0</ele><time>2026-04-19T10:28:33.627Z</time></trkpt><trkpt lat="39.0074098" lon="-2.9971116"><ele>798.0</ele><time>2026-04-19T10:28:34.634Z</time></trkpt><trkpt lat="39.0074763" lon="-2.9971202"><ele>797.5999999999999</ele><time>2026-04-19T10:28:35.633Z</time></trkpt><trkpt lat="39.0075485" lon="-2.9971276"><ele>797.1999999999999</ele><time>2026-04-19T10:28:36.631Z</time></trkpt><trkpt lat="39.0076345" lon="-2.9971301"><ele>796.8</ele><time>2026-04-19T10:28:37.63Z</time></trkpt><trkpt lat="39.0077328" lon="-2.9971393"><ele>796.4</ele><time>2026-04-19T10:28:38.63Z</time></trkpt><trkpt lat="39.0078282" lon="-2.9971517"><ele>796.0</ele><time>2026-04-19T10:28:39.626Z</time></trkpt><trkpt lat="39.0079414" lon="-2.9972016"><ele>796.0</ele><time>2026-04-19T10:28:40.624Z</time></trkpt><trkpt lat="39.0080328" lon="-2.9972709"><ele>796.0</ele><time>2026-04-19T10:28:41.627Z</time></trkpt><trkpt lat="39.0081158" lon="-2.9973715"><ele>796.0</ele><time>2026-04-19T10:28:42.632Z</time></trkpt><trkpt lat="39.0081943" lon="-2.9974938"><ele>796.0</ele><time>2026-04-19T10:28:43.623Z</time></trkpt><trkpt lat="39.0082828" lon="-2.9976309"><ele>795.3333333333333</ele><time>2026-04-19T10:28:44.629Z</time></trkpt><trkpt lat="39.0083707" lon="-2.997767"><ele>794.6666666666667</ele><time>2026-04-19T10:28:45.629Z</time></trkpt><trkpt lat="39.0084713" lon="-2.9979157"><ele>794.0</ele><time>2026-04-19T10:28:46.624Z</time></trkpt><trkpt lat="39.0085788" lon="-2.9980751"><ele>794.0</ele><time>2026-04-19T10:28:47.626Z</time></trkpt><trkpt lat="39.0086772" lon="-2.9982563"><ele>794.0</ele><time>2026-04-19T10:28:48.631Z</time></trkpt><trkpt lat="39.0087672" lon="-2.9984468"><ele>794.0</ele><time>2026-04-19T10:28:49.628Z</time></trkpt><trkpt lat="39.0088503" lon="-2.9986694"><ele>793.6666666666667</ele><time>2026-04-19T10:28:50.623Z</time></trkpt><trkpt lat="39.0089399" lon="-2.9988847"><ele>793.3333333333333</ele><time>2026-04-19T10:28:51.633Z</time></trkpt><trkpt lat="39.0090288" lon="-2.9990881"><ele>793.0</ele><time>2026-04-19T10:28:52.632Z</time></trkpt><trkpt lat="39.0091144" lon="-2.9992732"><ele>792.3333333333333</ele><time>2026-04-19T10:28:53.629Z</time></trkpt><trkpt lat="39.0092097" lon="-2.9994581"><ele>791.6666666666667</ele><time>2026-04-19T10:28:54.627Z</time></trkpt><trkpt lat="39.0093189" lon="-2.999626"><ele>791.0</ele><time>2026-04-19T10:28:55.619Z</time></trkpt><trkpt lat="39.0094254" lon="-2.9997697"><ele>791.0</ele><time>2026-04-19T10:28:56.631Z</time></trkpt><trkpt lat="39.0095251" lon="-2.9998917"><ele>791.0</ele><time>2026-04-19T10:28:57.629Z</time></trkpt><trkpt lat="39.0096092" lon="-2.9999988"><ele>791.0</ele><time>2026-04-19T10:28:58.624Z</time></trkpt><trkpt lat="39.0096787" lon="-3.0000905"><ele>791.0</ele><time>2026-04-19T10:28:59.622Z</time></trkpt><trkpt lat="39.0097321" lon="-3.0001705"><ele>791.0</ele><time>2026-04-19T10:29:00.626Z</time></trkpt><trkpt lat="39.0097738" lon="-3.0002328"><ele>791.0000000000001</ele><time>2026-04-19T10:29:01.638Z</time></trkpt><trkpt lat="39.0098183" lon="-3.0003154"><ele>791.0</ele><time>2026-04-19T10:29:03.634Z</time></trkpt><trkpt lat="39.0098432" lon="-3.0003939"><ele>791.0</ele><time>2026-04-19T10:29:18.644Z</time></trkpt><trkpt lat="39.009862" lon="-3.000535"><ele>791.0</ele><time>2026-04-19T10:29:20.632Z</time></trkpt><trkpt lat="39.0099236" lon="-3.0006641"><ele>791.0000000000001</ele><time>2026-04-19T10:29:22.634Z</time></trkpt><trkpt lat="39.0099729" lon="-3.0007235"><ele>791.0</ele><time>2026-04-19T10:29:23.634Z</time></trkpt><trkpt lat="39.0100355" lon="-3.000784"><ele>791.0000000000001</ele><time>2026-04-19T10:29:24.626Z</time></trkpt><trkpt lat="39.0100995" lon="-3.0008385"><ele>791.0</ele><time>2026-04-19T10:29:25.628Z</time></trkpt><trkpt lat="39.0101632" lon="-3.000882"><ele>791.0</ele><time>2026-04-19T10:29:26.636Z</time></trkpt><trkpt lat="39.0102374" lon="-3.0009222"><ele>791.0</ele><time>2026-04-19T10:29:27.638Z</time></trkpt><trkpt lat="39.0103201" lon="-3.0009456"><ele>791.0000000000001</ele><time>2026-04-19T10:29:28.645Z</time></trkpt><trkpt lat="39.0104024" lon="-3.0009574"><ele>791.0</ele><time>2026-04-19T10:29:29.64Z</time></trkpt><trkpt lat="39.0104905" lon="-3.0009738"><ele>791.0000000000001</ele><time>2026-04-19T10:29:30.634Z</time></trkpt><trkpt lat="39.0105723" lon="-3.0009908"><ele>791.0</ele><time>2026-04-19T10:29:31.641Z</time></trkpt><trkpt lat="39.0106559" lon="-3.001035"><ele>791.0</ele><time>2026-04-19T10:29:32.633Z</time></trkpt><trkpt lat="39.0107325" lon="-3.0011046"><ele>791.0</ele><time>2026-04-19T10:29:33.631Z</time></trkpt><trkpt lat="39.010801" lon="-3.0011709"><ele>791.0000000000001</ele><time>2026-04-19T10:29:34.636Z</time></trkpt><trkpt lat="39.0108686" lon="-3.001226"><ele>791.0</ele><time>2026-04-19T10:29:35.626Z</time></trkpt><trkpt lat="39.0109416" lon="-3.0012565"><ele>791.8333333333334</ele><time>2026-04-19T10:29:36.635Z</time></trkpt><trkpt lat="39.0110144" lon="-3.0012742"><ele>792.6666666666667</ele><time>2026-04-19T10:29:37.634Z</time></trkpt><trkpt lat="39.0110864" lon="-3.0012876"><ele>793.5</ele><time>2026-04-19T10:29:38.631Z</time></trkpt><trkpt lat="39.0112149" lon="-3.0012723"><ele>794.3333333333333</ele><time>2026-04-19T10:29:40.627Z</time></trkpt><trkpt lat="39.0112937" lon="-3.001249"><ele>795.1666666666666</ele><time>2026-04-19T10:29:41.627Z</time></trkpt><trkpt lat="39.0113627" lon="-3.0011962"><ele>796.0</ele><time>2026-04-19T10:29:42.627Z</time></trkpt><trkpt lat="39.0114364" lon="-3.0011466"><ele>795.9999999999999</ele><time>2026-04-19T10:29:43.634Z</time></trkpt><trkpt lat="39.0115038" lon="-3.0011127"><ele>796.0</ele><time>2026-04-19T10:29:44.635Z</time></trkpt><trkpt lat="39.0115732" lon="-3.0010952"><ele>796.0</ele><time>2026-04-19T10:29:45.633Z</time></trkpt><trkpt lat="39.0116499" lon="-3.0010965"><ele>796.0</ele><time>2026-04-19T10:29:46.633Z</time></trkpt><trkpt lat="39.0117375" lon="-3.001111"><ele>795.9999999999999</ele><time>2026-04-19T10:29:47.629Z</time></trkpt><trkpt lat="39.0118261" lon="-3.0011313"><ele>796.0</ele><time>2026-04-19T10:29:48.638Z</time></trkpt><trkpt lat="39.0119063" lon="-3.0011498"><ele>795.9999999999999</ele><time>2026-04-19T10:29:49.625Z</time></trkpt><trkpt lat="39.0119829" lon="-3.001168"><ele>796.0</ele><time>2026-04-19T10:29:50.626Z</time></trkpt><trkpt lat="39.012047" lon="-3.001185"><ele>796.0</ele><time>2026-04-19T10:29:51.629Z</time></trkpt><trkpt lat="39.0121463" lon="-3.0012081"><ele>796.0</ele><time>2026-04-19T10:29:53.632Z</time></trkpt><trkpt lat="39.0122191" lon="-3.0012521"><ele>795.9999999999999</ele><time>2026-04-19T10:29:55.634Z</time></trkpt><trkpt lat="39.0123047" lon="-3.0013215"><ele>796.0</ele><time>2026-04-19T10:29:57.626Z</time></trkpt><trkpt lat="39.0123765" lon="-3.0013828"><ele>795.9999999999999</ele><time>2026-04-19T10:29:59.626Z</time></trkpt><trkpt lat="39.0124411" lon="-3.0014309"><ele>796.0</ele><time>2026-04-19T10:30:01.625Z</time></trkpt><trkpt lat="39.012513" lon="-3.0014639"><ele>796.0</ele><time>2026-04-19T10:30:03.626Z</time></trkpt><trkpt lat="39.0125736" lon="-3.0014405"><ele>796.0</ele><time>2026-04-19T10:30:05.632Z</time></trkpt><trkpt lat="39.0126489" lon="-3.0013723"><ele>795.9999999999999</ele><time>2026-04-19T10:30:07.632Z</time></trkpt><trkpt lat="39.0127476" lon="-3.0012799"><ele>796.0</ele><time>2026-04-19T10:30:09.633Z</time></trkpt><trkpt lat="39.0127996" lon="-3.0012218"><ele>795.0</ele><time>2026-04-19T10:30:10.642Z</time></trkpt><trkpt lat="39.0129074" lon="-3.001148"><ele>794.0</ele><time>2026-04-19T10:30:12.633Z</time></trkpt><trkpt lat="39.0130129" lon="-3.0011097"><ele>793.0</ele><time>2026-04-19T10:30:14.633Z</time></trkpt><trkpt lat="39.013118" lon="-3.001078"><ele>792.0</ele><time>2026-04-19T10:30:16.624Z</time></trkpt><trkpt lat="39.0132288" lon="-3.0010385"><ele>790.8</ele><time>2026-04-19T10:30:18.623Z</time></trkpt><trkpt lat="39.0133561" lon="-3.0009911"><ele>789.6</ele><time>2026-04-19T10:30:20.633Z</time></trkpt><trkpt lat="39.0134209" lon="-3.0009639"><ele>788.4</ele><time>2026-04-19T10:30:21.627Z</time></trkpt><trkpt lat="39.0134864" lon="-3.0009269"><ele>787.1999999999999</ele><time>2026-04-19T10:30:22.634Z</time></trkpt><trkpt lat="39.0135455" lon="-3.0008909"><ele>786.0</ele><time>2026-04-19T10:30:23.623Z</time></trkpt><trkpt lat="39.0136574" lon="-3.0008384"><ele>787.1666666666666</ele><time>2026-04-19T10:30:25.628Z</time></trkpt><trkpt lat="39.0137173" lon="-3.0008064"><ele>788.3333333333333</ele><time>2026-04-19T10:30:26.631Z</time></trkpt><trkpt lat="39.0137864" lon="-3.000761"><ele>789.5</ele><time>2026-04-19T10:30:27.626Z</time></trkpt><trkpt lat="39.0138597" lon="-3.0007099"><ele>790.6666666666666</ele><time>2026-04-19T10:30:28.631Z</time></trkpt><trkpt lat="39.0139329" lon="-3.0006533"><ele>791.8333333333333</ele><time>2026-04-19T10:30:29.636Z</time></trkpt><trkpt lat="39.0140062" lon="-3.0006"><ele>793.0</ele><time>2026-04-19T10:30:30.625Z</time></trkpt><trkpt lat="39.0140931" lon="-3.0005534"><ele>792.1666666666666</ele><time>2026-04-19T10:30:31.619Z</time></trkpt><trkpt lat="39.014178" lon="-3.000509"><ele>791.3333333333333</ele><time>2026-04-19T10:30:32.638Z</time></trkpt><trkpt lat="39.0142513" lon="-3.0004701"><ele>790.5</ele><time>2026-04-19T10:30:33.632Z</time></trkpt><trkpt lat="39.0143265" lon="-3.0004491"><ele>789.6666666666667</ele><time>2026-04-19T10:30:34.631Z</time></trkpt><trkpt lat="39.0144139" lon="-3.0004353"><ele>788.8333333333334</ele><time>2026-04-19T10:30:35.624Z</time></trkpt><trkpt lat="39.0145017" lon="-3.0004273"><ele>788.0</ele><time>2026-04-19T10:30:36.628Z</time></trkpt><trkpt lat="39.0145932" lon="-3.0004238"><ele>788.0000000000001</ele><time>2026-04-19T10:30:37.633Z</time></trkpt><trkpt lat="39.0146744" lon="-3.0004134"><ele>788.0</ele><time>2026-04-19T10:30:38.628Z</time></trkpt><trkpt lat="39.0147579" lon="-3.0004163"><ele>788.0</ele><time>2026-04-19T10:30:39.622Z</time></trkpt><trkpt lat="39.0148464" lon="-3.0004244"><ele>788.0</ele><time>2026-04-19T10:30:40.63Z</time></trkpt><trkpt lat="39.0149327" lon="-3.000423"><ele>788.0000000000001</ele><time>2026-04-19T10:30:41.635Z</time></trkpt><trkpt lat="39.0150179" lon="-3.000431"><ele>788.0</ele><time>2026-04-19T10:30:42.627Z</time></trkpt><trkpt lat="39.0151069" lon="-3.0004446"><ele>787.7142857142858</ele><time>2026-04-19T10:30:43.62Z</time></trkpt><trkpt lat="39.0151844" lon="-3.0004609"><ele>787.4285714285714</ele><time>2026-04-19T10:30:44.629Z</time></trkpt><trkpt lat="39.01526" lon="-3.0004693"><ele>787.1428571428571</ele><time>2026-04-19T10:30:45.629Z</time></trkpt><trkpt lat="39.0153277" lon="-3.0004644"><ele>786.8571428571429</ele><time>2026-04-19T10:30:46.632Z</time></trkpt><trkpt lat="39.0153958" lon="-3.0004586"><ele>786.5714285714286</ele><time>2026-04-19T10:30:47.627Z</time></trkpt><trkpt lat="39.015465" lon="-3.0004358"><ele>786.2857142857143</ele><time>2026-04-19T10:30:48.626Z</time></trkpt><trkpt lat="39.0155405" lon="-3.0004182"><ele>786.0</ele><time>2026-04-19T10:30:49.623Z</time></trkpt><trkpt lat="39.0156161" lon="-3.000406"><ele>786.0</ele><time>2026-04-19T10:30:50.627Z</time></trkpt><trkpt lat="39.015694" lon="-3.0003877"><ele>786.0</ele><time>2026-04-19T10:30:51.632Z</time></trkpt><trkpt lat="39.0157661" lon="-3.0003774"><ele>786.0</ele><time>2026-04-19T10:30:52.635Z</time></trkpt><trkpt lat="39.0158858" lon="-3.0003625"><ele>786.0</ele><time>2026-04-19T10:30:54.623Z</time></trkpt><trkpt lat="39.0160117" lon="-3.0003509"><ele>786.0</ele><time>2026-04-19T10:30:56.619Z</time></trkpt><trkpt lat="39.0160871" lon="-3.0003442"><ele>785.5</ele><time>2026-04-19T10:30:57.625Z</time></trkpt><trkpt lat="39.0161713" lon="-3.0003458"><ele>785.0</ele><time>2026-04-19T10:30:58.625Z</time></trkpt><trkpt lat="39.0162583" lon="-3.0003488"><ele>784.5</ele><time>2026-04-19T10:30:59.627Z</time></trkpt><trkpt lat="39.0163563" lon="-3.0003483"><ele>784.0</ele><time>2026-04-19T10:31:00.636Z</time></trkpt><trkpt lat="39.0164428" lon="-3.0003471"><ele>783.5</ele><time>2026-04-19T10:31:01.631Z</time></trkpt><trkpt lat="39.016518" lon="-3.0003524"><ele>783.0</ele><time>2026-04-19T10:31:02.627Z</time></trkpt><trkpt lat="39.0165864" lon="-3.0003731"><ele>782.5</ele><time>2026-04-19T10:31:03.628Z</time></trkpt><trkpt lat="39.0166549" lon="-3.0003962"><ele>782.0</ele><time>2026-04-19T10:31:04.631Z</time></trkpt><trkpt lat="39.0167337" lon="-3.0004248"><ele>781.5</ele><time>2026-04-19T10:31:05.627Z</time></trkpt><trkpt lat="39.0168151" lon="-3.0004569"><ele>781.0</ele><time>2026-04-19T10:31:06.622Z</time></trkpt><trkpt lat="39.0168936" lon="-3.0004962"><ele>780.5</ele><time>2026-04-19T10:31:07.625Z</time></trkpt><trkpt lat="39.0169672" lon="-3.0005312"><ele>780.0</ele><time>2026-04-19T10:31:08.629Z</time></trkpt><trkpt lat="39.0170353" lon="-3.0005653"><ele>780.0</ele><time>2026-04-19T10:31:09.636Z</time></trkpt><trkpt lat="39.0170952" lon="-3.0006084"><ele>780.0</ele><time>2026-04-19T10:31:10.627Z</time></trkpt><trkpt lat="39.0171524" lon="-3.0006495"><ele>780.0</ele><time>2026-04-19T10:31:11.631Z</time></trkpt><trkpt lat="39.017243" lon="-3.0007318"><ele>780.0</ele><time>2026-04-19T10:31:13.631Z</time></trkpt><trkpt lat="39.0173376" lon="-3.0008126"><ele>780.0</ele><time>2026-04-19T10:31:15.634Z</time></trkpt><trkpt lat="39.0173924" lon="-3.0008757"><ele>780.0</ele><time>2026-04-19T10:31:16.628Z</time></trkpt><trkpt lat="39.0174445" lon="-3.0009356"><ele>779.8333333333334</ele><time>2026-04-19T10:31:17.633Z</time></trkpt><trkpt lat="39.0174984" lon="-3.0009793"><ele>779.6666666666667</ele><time>2026-04-19T10:31:18.629Z</time></trkpt><trkpt lat="39.0175624" lon="-3.0010261"><ele>779.5</ele><time>2026-04-19T10:31:19.621Z</time></trkpt><trkpt lat="39.0176268" lon="-3.0010977"><ele>779.3333333333334</ele><time>2026-04-19T10:31:20.632Z</time></trkpt><trkpt lat="39.0176876" lon="-3.0011772"><ele>779.1666666666667</ele><time>2026-04-19T10:31:21.634Z</time></trkpt><trkpt lat="39.0177409" lon="-3.001257"><ele>779.0</ele><time>2026-04-19T10:31:22.632Z</time></trkpt><trkpt lat="39.0178002" lon="-3.0013241"><ele>779.0000000000001</ele><time>2026-04-19T10:31:23.635Z</time></trkpt><trkpt lat="39.0178683" lon="-3.0013822"><ele>779.0</ele><time>2026-04-19T10:31:24.625Z</time></trkpt><trkpt lat="39.0179356" lon="-3.001448"><ele>779.0</ele><time>2026-04-19T10:31:25.626Z</time></trkpt><trkpt lat="39.0180014" lon="-3.001545"><ele>779.0</ele><time>2026-04-19T10:31:26.63Z</time></trkpt><trkpt lat="39.0180653" lon="-3.0016292"><ele>779.0000000000001</ele><time>2026-04-19T10:31:27.631Z</time></trkpt><trkpt lat="39.0181313" lon="-3.0016962"><ele>779.0</ele><time>2026-04-19T10:31:28.643Z</time></trkpt><trkpt lat="39.0181928" lon="-3.0017475"><ele>779.0</ele><time>2026-04-19T10:31:29.639Z</time></trkpt><trkpt lat="39.0182907" lon="-3.0018222"><ele>779.0</ele><time>2026-04-19T10:31:31.625Z</time></trkpt><trkpt lat="39.0183964" lon="-3.0018623"><ele>779.0</ele><time>2026-04-19T10:31:33.635Z</time></trkpt><trkpt lat="39.0184973" lon="-3.0018848"><ele>779.0</ele><time>2026-04-19T10:31:35.627Z</time></trkpt><trkpt lat="39.0185639" lon="-3.0019088"><ele>779.0</ele><time>2026-04-19T10:31:36.633Z</time></trkpt><trkpt lat="39.0186376" lon="-3.0019403"><ele>778.3333333333334</ele><time>2026-04-19T10:31:37.622Z</time></trkpt><trkpt lat="39.0187172" lon="-3.0019779"><ele>777.6666666666667</ele><time>2026-04-19T10:31:38.638Z</time></trkpt><trkpt lat="39.0187937" lon="-3.0020225"><ele>777.0</ele><time>2026-04-19T10:31:39.633Z</time></trkpt><trkpt lat="39.018865" lon="-3.0020652"><ele>776.3333333333333</ele><time>2026-04-19T10:31:40.636Z</time></trkpt><trkpt lat="39.0189428" lon="-3.0021058"><ele>775.6666666666666</ele><time>2026-04-19T10:31:41.63Z</time></trkpt><trkpt lat="39.0190199" lon="-3.0021426"><ele>775.0</ele><time>2026-04-19T10:31:42.632Z</time></trkpt><trkpt lat="39.0191062" lon="-3.0021536"><ele>775.5</ele><time>2026-04-19T10:31:43.628Z</time></trkpt><trkpt lat="39.0192124" lon="-3.0021672"><ele>776.0</ele><time>2026-04-19T10:31:44.629Z</time></trkpt><trkpt lat="39.0193264" lon="-3.002165"><ele>776.5</ele><time>2026-04-19T10:31:45.629Z</time></trkpt><trkpt lat="39.0194524" lon="-3.0021743"><ele>777.0</ele><time>2026-04-19T10:31:46.639Z</time></trkpt><trkpt lat="39.0195637" lon="-3.0021914"><ele>777.0</ele><time>2026-04-19T10:31:47.626Z</time></trkpt><trkpt lat="39.0196564" lon="-3.0022184"><ele>777.0</ele><time>2026-04-19T10:31:48.635Z</time></trkpt><trkpt lat="39.0197484" lon="-3.0022508"><ele>777.0</ele><time>2026-04-19T10:31:49.631Z</time></trkpt><trkpt lat="39.0198438" lon="-3.0023302"><ele>777.0</ele><time>2026-04-19T10:31:50.632Z</time></trkpt><trkpt lat="39.0199273" lon="-3.0024039"><ele>777.0</ele><time>2026-04-19T10:31:51.631Z</time></trkpt><trkpt lat="39.0200113" lon="-3.0024791"><ele>776.6</ele><time>2026-04-19T10:31:52.624Z</time></trkpt><trkpt lat="39.0200666" lon="-3.0025769"><ele>776.2</ele><time>2026-04-19T10:31:53.626Z</time></trkpt><trkpt lat="39.020115" lon="-3.0026823"><ele>775.8</ele><time>2026-04-19T10:31:54.625Z</time></trkpt><trkpt lat="39.0201646" lon="-3.0027786"><ele>775.4</ele><time>2026-04-19T10:31:55.629Z</time></trkpt><trkpt lat="39.0202153" lon="-3.0028649"><ele>775.0</ele><time>2026-04-19T10:31:56.624Z</time></trkpt><trkpt lat="39.0202821" lon="-3.0029525"><ele>775.0</ele><time>2026-04-19T10:31:57.674Z</time></trkpt><trkpt lat="39.0203605" lon="-3.0030488"><ele>775.0</ele><time>2026-04-19T10:31:58.631Z</time></trkpt><trkpt lat="39.0204442" lon="-3.0031689"><ele>775.0</ele><time>2026-04-19T10:31:59.623Z</time></trkpt><trkpt lat="39.0205318" lon="-3.0032991"><ele>775.0</ele><time>2026-04-19T10:32:00.632Z</time></trkpt><trkpt lat="39.020612" lon="-3.0034252"><ele>775.0</ele><time>2026-04-19T10:32:01.628Z</time></trkpt><trkpt lat="39.0206874" lon="-3.0035351"><ele>775.0</ele><time>2026-04-19T10:32:02.631Z</time></trkpt><trkpt lat="39.0207604" lon="-3.0036305"><ele>775.0</ele><time>2026-04-19T10:32:03.623Z</time></trkpt><trkpt lat="39.0208267" lon="-3.003708"><ele>775.0</ele><time>2026-04-19T10:32:04.636Z</time></trkpt><trkpt lat="39.0208894" lon="-3.0037816"><ele>775.0</ele><time>2026-04-19T10:32:05.628Z</time></trkpt><trkpt lat="39.0209624" lon="-3.0038443"><ele>775.0</ele><time>2026-04-19T10:32:06.628Z</time></trkpt><trkpt lat="39.0210482" lon="-3.0038913"><ele>775.0</ele><time>2026-04-19T10:32:07.63Z</time></trkpt><trkpt lat="39.0211267" lon="-3.0039541"><ele>775.0</ele><time>2026-04-19T10:32:08.627Z</time></trkpt><trkpt lat="39.0212106" lon="-3.0040206"><ele>775.0</ele><time>2026-04-19T10:32:09.626Z</time></trkpt><trkpt lat="39.0212833" lon="-3.0040943"><ele>775.0</ele><time>2026-04-19T10:32:10.636Z</time></trkpt><trkpt lat="39.0213602" lon="-3.0041663"><ele>775.2</ele><time>2026-04-19T10:32:11.622Z</time></trkpt><trkpt lat="39.0214445" lon="-3.0042412"><ele>775.4</ele><time>2026-04-19T10:32:12.632Z</time></trkpt><trkpt lat="39.0215414" lon="-3.0043125"><ele>775.5999999999999</ele><time>2026-04-19T10:32:13.633Z</time></trkpt><trkpt lat="39.021635" lon="-3.0043779"><ele>775.8</ele><time>2026-04-19T10:32:14.626Z</time></trkpt><trkpt lat="39.021722" lon="-3.0044412"><ele>776.0</ele><time>2026-04-19T10:32:15.628Z</time></trkpt><trkpt lat="39.0217986" lon="-3.0045078"><ele>775.5999999999999</ele><time>2026-04-19T10:32:16.628Z</time></trkpt><trkpt lat="39.02187" lon="-3.0045858"><ele>775.2</ele><time>2026-04-19T10:32:17.621Z</time></trkpt><trkpt lat="39.0219502" lon="-3.0046723"><ele>774.8</ele><time>2026-04-19T10:32:18.629Z</time></trkpt><trkpt lat="39.022033" lon="-3.0047538"><ele>774.4000000000001</ele><time>2026-04-19T10:32:19.641Z</time></trkpt><trkpt lat="39.0221191" lon="-3.004818"><ele>774.0</ele><time>2026-04-19T10:32:20.636Z</time></trkpt><trkpt lat="39.0221897" lon="-3.0048928"><ele>774.0</ele><time>2026-04-19T10:32:21.631Z</time></trkpt><trkpt lat="39.0222474" lon="-3.00497"><ele>774.0</ele><time>2026-04-19T10:32:22.634Z</time></trkpt><trkpt lat="39.0223007" lon="-3.0050494"><ele>774.0</ele><time>2026-04-19T10:32:23.629Z</time></trkpt><trkpt lat="39.0223449" lon="-3.0051288"><ele>774.0</ele><time>2026-04-19T10:32:24.632Z</time></trkpt><trkpt lat="39.0223877" lon="-3.0051976"><ele>774.0</ele><time>2026-04-19T10:32:25.639Z</time></trkpt><trkpt lat="39.0224312" lon="-3.0052655"><ele>774.0</ele><time>2026-04-19T10:32:26.626Z</time></trkpt><trkpt lat="39.0225278" lon="-3.0053399"><ele>773.4000000000001</ele><time>2026-04-19T10:32:28.626Z</time></trkpt><trkpt lat="39.0226307" lon="-3.0053723"><ele>772.8</ele><time>2026-04-19T10:32:30.623Z</time></trkpt><trkpt lat="39.022741" lon="-3.0054604"><ele>772.2</ele><time>2026-04-19T10:32:32.628Z</time></trkpt><trkpt lat="39.0228002" lon="-3.0055235"><ele>771.5999999999999</ele><time>2026-04-19T10:32:33.627Z</time></trkpt><trkpt lat="39.0228616" lon="-3.0055863"><ele>771.0</ele><time>2026-04-19T10:32:34.633Z</time></trkpt><trkpt lat="39.022926" lon="-3.0056513"><ele>771.0</ele><time>2026-04-19T10:32:35.638Z</time></trkpt><trkpt lat="39.0229815" lon="-3.0057374"><ele>771.0</ele><time>2026-04-19T10:32:36.625Z</time></trkpt><trkpt lat="39.0230331" lon="-3.0058212"><ele>771.0</ele><time>2026-04-19T10:32:37.632Z</time></trkpt><trkpt lat="39.0230879" lon="-3.0059111"><ele>771.0</ele><time>2026-04-19T10:32:38.629Z</time></trkpt><trkpt lat="39.0231472" lon="-3.0060014"><ele>771.0</ele><time>2026-04-19T10:32:39.627Z</time></trkpt><trkpt lat="39.0232103" lon="-3.0060765"><ele>771.0</ele><time>2026-04-19T10:32:40.624Z</time></trkpt><trkpt lat="39.0232712" lon="-3.0061353"><ele>771.4</ele><time>2026-04-19T10:32:41.632Z</time></trkpt><trkpt lat="39.0233322" lon="-3.0061951"><ele>771.8</ele><time>2026-04-19T10:32:42.626Z</time></trkpt><trkpt lat="39.0233982" lon="-3.0062582"><ele>772.1999999999999</ele><time>2026-04-19T10:32:43.625Z</time></trkpt><trkpt lat="39.0234867" lon="-3.0063147"><ele>772.5999999999999</ele><time>2026-04-19T10:32:44.626Z</time></trkpt><trkpt lat="39.0235957" lon="-3.0063723"><ele>773.0</ele><time>2026-04-19T10:32:45.627Z</time></trkpt><trkpt lat="39.0236967" lon="-3.0064465"><ele>773.0</ele><time>2026-04-19T10:32:46.625Z</time></trkpt><trkpt lat="39.0238014" lon="-3.0065254"><ele>773.0</ele><time>2026-04-19T10:32:47.629Z</time></trkpt><trkpt lat="39.023901" lon="-3.0065947"><ele>773.0</ele><time>2026-04-19T10:32:48.624Z</time></trkpt><trkpt lat="39.023991" lon="-3.0066598"><ele>773.0</ele><time>2026-04-19T10:32:49.621Z</time></trkpt><trkpt lat="39.0240734" lon="-3.0067199"><ele>773.0</ele><time>2026-04-19T10:32:50.626Z</time></trkpt><trkpt lat="39.024157" lon="-3.0067703"><ele>772.4</ele><time>2026-04-19T10:32:51.631Z</time></trkpt><trkpt lat="39.0242347" lon="-3.0068156"><ele>771.8</ele><time>2026-04-19T10:32:52.624Z</time></trkpt><trkpt lat="39.0243034" lon="-3.0068521"><ele>771.2</ele><time>2026-04-19T10:32:53.623Z</time></trkpt><trkpt lat="39.0244066" lon="-3.0069029"><ele>770.6</ele><time>2026-04-19T10:32:55.622Z</time></trkpt><trkpt lat="39.0245098" lon="-3.0069574"><ele>770.0</ele><time>2026-04-19T10:32:57.631Z</time></trkpt><trkpt lat="39.0245949" lon="-3.0070466"><ele>770.0000000000001</ele><time>2026-04-19T10:32:59.645Z</time></trkpt><trkpt lat="39.0246858" lon="-3.0071202"><ele>770.0</ele><time>2026-04-19T10:33:01.625Z</time></trkpt><trkpt lat="39.0247646" lon="-3.0071233"><ele>770.0</ele><time>2026-04-19T10:33:03.62Z</time></trkpt><trkpt lat="39.0248256" lon="-3.0070631"><ele>770.0</ele><time>2026-04-19T10:34:25.63Z</time></trkpt><trkpt lat="39.0248737" lon="-3.0070086"><ele>770.0000000000001</ele><time>2026-04-19T10:34:27.623Z</time></trkpt><trkpt lat="39.0249293" lon="-3.0069282"><ele>770.0</ele><time>2026-04-19T10:34:29.621Z</time></trkpt><trkpt lat="39.0250174" lon="-3.0068013"><ele>770.4</ele><time>2026-04-19T10:34:31.635Z</time></trkpt><trkpt lat="39.0250642" lon="-3.006733"><ele>770.8</ele><time>2026-04-19T10:34:32.629Z</time></trkpt><trkpt lat="39.0251043" lon="-3.0066672"><ele>771.2</ele><time>2026-04-19T10:34:33.625Z</time></trkpt><trkpt lat="39.0251821" lon="-3.006545"><ele>771.6</ele><time>2026-04-19T10:34:35.628Z</time></trkpt><trkpt lat="39.0252709" lon="-3.0064383"><ele>772.0</ele><time>2026-04-19T10:34:37.622Z</time></trkpt><trkpt lat="39.0253452" lon="-3.0063943"><ele>772.0</ele><time>2026-04-19T10:34:38.622Z</time></trkpt><trkpt lat="39.0254309" lon="-3.0063443"><ele>772.0</ele><time>2026-04-19T10:34:39.635Z</time></trkpt><trkpt lat="39.0255313" lon="-3.0063001"><ele>772.0</ele><time>2026-04-19T10:34:40.626Z</time></trkpt><trkpt lat="39.0256291" lon="-3.00626"><ele>772.0</ele><time>2026-04-19T10:34:41.621Z</time></trkpt><trkpt lat="39.0257236" lon="-3.0062682"><ele>772.0</ele><time>2026-04-19T10:34:42.616Z</time></trkpt><trkpt lat="39.0258333" lon="-3.0062855"><ele>771.5</ele><time>2026-04-19T10:34:43.63Z</time></trkpt><trkpt lat="39.0259517" lon="-3.0063648"><ele>771.0</ele><time>2026-04-19T10:34:44.628Z</time></trkpt><trkpt lat="39.0260771" lon="-3.0064462"><ele>770.5</ele><time>2026-04-19T10:34:45.622Z</time></trkpt><trkpt lat="39.0262147" lon="-3.006531"><ele>770.0</ele><time>2026-04-19T10:34:46.622Z</time></trkpt><trkpt lat="39.0263412" lon="-3.0066154"><ele>768.2</ele><time>2026-04-19T10:34:47.627Z</time></trkpt><trkpt lat="39.0264485" lon="-3.0066879"><ele>766.4</ele><time>2026-04-19T10:34:48.624Z</time></trkpt><trkpt lat="39.0265365" lon="-3.0067377"><ele>764.5999999999999</ele><time>2026-04-19T10:34:49.62Z</time></trkpt><trkpt lat="39.0266216" lon="-3.0067691"><ele>762.8</ele><time>2026-04-19T10:34:50.623Z</time></trkpt><trkpt lat="39.0267137" lon="-3.0068024"><ele>761.0</ele><time>2026-04-19T10:34:51.625Z</time></trkpt><trkpt lat="39.0268096" lon="-3.0068208"><ele>760.8</ele><time>2026-04-19T10:34:52.622Z</time></trkpt><trkpt lat="39.0268885" lon="-3.0068364"><ele>760.5999999999999</ele><time>2026-04-19T10:34:53.626Z</time></trkpt><trkpt lat="39.027005" lon="-3.0068326"><ele>760.4</ele><time>2026-04-19T10:34:55.626Z</time></trkpt><trkpt lat="39.0270998" lon="-3.0068082"><ele>760.2</ele><time>2026-04-19T10:34:56.63Z</time></trkpt><trkpt lat="39.0271978" lon="-3.0067876"><ele>760.0</ele><time>2026-04-19T10:34:57.623Z</time></trkpt><trkpt lat="39.0272908" lon="-3.0067772"><ele>760.0</ele><time>2026-04-19T10:34:58.62Z</time></trkpt><trkpt lat="39.0273706" lon="-3.0067718"><ele>760.0</ele><time>2026-04-19T10:34:59.622Z</time></trkpt><trkpt lat="39.0274388" lon="-3.0068248"><ele>760.0</ele><time>2026-04-19T10:35:01.619Z</time></trkpt><trkpt lat="39.0274639" lon="-3.006942"><ele>760.0</ele><time>2026-04-19T10:35:05.623Z</time></trkpt><trkpt lat="39.0274898" lon="-3.0070741"><ele>760.0</ele><time>2026-04-19T10:35:07.619Z</time></trkpt><trkpt lat="39.0274851" lon="-3.0071798"><ele>760.0</ele><time>2026-04-19T10:35:08.615Z</time></trkpt><trkpt lat="39.0274802" lon="-3.0073001"><ele>760.0</ele><time>2026-04-19T10:35:09.619Z</time></trkpt><trkpt lat="39.027462" lon="-3.007433"><ele>760.0</ele><time>2026-04-19T10:35:10.618Z</time></trkpt><trkpt lat="39.0274655" lon="-3.0075636"><ele>760.0</ele><time>2026-04-19T10:35:11.62Z</time></trkpt><trkpt lat="39.027508" lon="-3.0076933"><ele>760.0</ele><time>2026-04-19T10:35:12.626Z</time></trkpt><trkpt lat="39.0275636" lon="-3.0078346"><ele>760.0</ele><time>2026-04-19T10:35:13.616Z</time></trkpt><trkpt lat="39.0276363" lon="-3.007999"><ele>760.3333333333334</ele><time>2026-04-19T10:35:14.617Z</time></trkpt><trkpt lat="39.027719" lon="-3.0081616"><ele>760.6666666666666</ele><time>2026-04-19T10:35:15.619Z</time></trkpt><trkpt lat="39.0278149" lon="-3.0083327"><ele>761.0</ele><time>2026-04-19T10:35:16.618Z</time></trkpt><trkpt lat="39.0279122" lon="-3.0085121"><ele>761.25</ele><time>2026-04-19T10:35:17.619Z</time></trkpt><trkpt lat="39.0279968" lon="-3.0086625"><ele>761.5</ele><time>2026-04-19T10:35:18.62Z</time></trkpt><trkpt lat="39.0280762" lon="-3.0088057"><ele>761.75</ele><time>2026-04-19T10:35:19.618Z</time></trkpt><trkpt lat="39.0281461" lon="-3.0089664"><ele>762.0</ele><time>2026-04-19T10:35:20.632Z</time></trkpt><trkpt lat="39.028206" lon="-3.0091309"><ele>762.5</ele><time>2026-04-19T10:35:21.627Z</time></trkpt><trkpt lat="39.0282676" lon="-3.0092915"><ele>763.0</ele><time>2026-04-19T10:35:22.626Z</time></trkpt><trkpt lat="39.028323" lon="-3.0094261"><ele>763.5</ele><time>2026-04-19T10:35:23.627Z</time></trkpt><trkpt lat="39.0283827" lon="-3.0095486"><ele>764.0</ele><time>2026-04-19T10:35:24.62Z</time></trkpt><trkpt lat="39.0284434" lon="-3.0096689"><ele>762.25</ele><time>2026-04-19T10:35:25.627Z</time></trkpt><trkpt lat="39.028526" lon="-3.0098205"><ele>760.5</ele><time>2026-04-19T10:35:26.628Z</time></trkpt><trkpt lat="39.0285937" lon="-3.009956"><ele>758.75</ele><time>2026-04-19T10:35:27.637Z</time></trkpt><trkpt lat="39.0286381" lon="-3.0100715"><ele>757.0</ele><time>2026-04-19T10:35:28.623Z</time></trkpt><trkpt lat="39.0286745" lon="-3.0101676"><ele>756.7142857142858</ele><time>2026-04-19T10:35:29.622Z</time></trkpt><trkpt lat="39.0287164" lon="-3.0102426"><ele>756.4285714285713</ele><time>2026-04-19T10:35:30.617Z</time></trkpt><trkpt lat="39.0287726" lon="-3.0103143"><ele>756.1428571428571</ele><time>2026-04-19T10:35:31.624Z</time></trkpt><trkpt lat="39.0288244" lon="-3.0103697"><ele>755.8571428571429</ele><time>2026-04-19T10:35:32.633Z</time></trkpt><trkpt lat="39.0288895" lon="-3.0104076"><ele>755.5714285714287</ele><time>2026-04-19T10:35:34.632Z</time></trkpt><trkpt lat="39.0289806" lon="-3.0103921"><ele>755.2857142857142</ele><time>2026-04-19T10:35:36.616Z</time></trkpt><trkpt lat="39.0290413" lon="-3.0103668"><ele>755.0</ele><time>2026-04-19T10:35:37.624Z</time></trkpt><trkpt lat="39.029109" lon="-3.0103228"><ele>754.8333333333333</ele><time>2026-04-19T10:35:38.626Z</time></trkpt><trkpt lat="39.029162" lon="-3.0102728"><ele>754.6666666666666</ele><time>2026-04-19T10:35:39.633Z</time></trkpt><trkpt lat="39.0292135" lon="-3.0102143"><ele>754.5</ele><time>2026-04-19T10:35:40.63Z</time></trkpt><trkpt lat="39.0292774" lon="-3.0101436"><ele>754.3333333333334</ele><time>2026-04-19T10:35:41.636Z</time></trkpt><trkpt lat="39.0293455" lon="-3.0100724"><ele>754.1666666666667</ele><time>2026-04-19T10:35:42.632Z</time></trkpt><trkpt lat="39.0293996" lon="-3.0099973"><ele>754.0</ele><time>2026-04-19T10:35:43.631Z</time></trkpt><trkpt lat="39.0294571" lon="-3.0099238"><ele>754.0</ele><time>2026-04-19T10:35:44.638Z</time></trkpt><trkpt lat="39.0294939" lon="-3.0098205"><ele>754.0</ele><time>2026-04-19T10:35:45.634Z</time></trkpt><trkpt lat="39.0295391" lon="-3.0097038"><ele>754.0</ele><time>2026-04-19T10:35:46.63Z</time></trkpt><trkpt lat="39.0295973" lon="-3.0095713"><ele>754.0</ele><time>2026-04-19T10:35:47.632Z</time></trkpt><trkpt lat="39.0296543" lon="-3.0094356"><ele>754.0</ele><time>2026-04-19T10:35:48.635Z</time></trkpt><trkpt lat="39.0297041" lon="-3.0093114"><ele>754.0</ele><time>2026-04-19T10:35:49.632Z</time></trkpt><trkpt lat="39.0297468" lon="-3.0092034"><ele>754.0</ele><time>2026-04-19T10:35:50.632Z</time></trkpt><trkpt lat="39.0297976" lon="-3.0090957"><ele>754.0</ele><time>2026-04-19T10:35:51.62Z</time></trkpt><trkpt lat="39.0298492" lon="-3.0090193"><ele>754.0</ele><time>2026-04-19T10:35:52.635Z</time></trkpt><trkpt lat="39.0299275" lon="-3.0089565"><ele>754.0</ele><time>2026-04-19T10:35:53.624Z</time></trkpt><trkpt lat="39.0300194" lon="-3.0088978"><ele>753.8000000000001</ele><time>2026-04-19T10:35:54.616Z</time></trkpt><trkpt lat="39.030106" lon="-3.0088424"><ele>753.6</ele><time>2026-04-19T10:35:55.627Z</time></trkpt><trkpt lat="39.0301718" lon="-3.0088085"><ele>753.4</ele><time>2026-04-19T10:35:56.62Z</time></trkpt><trkpt lat="39.030291" lon="-3.0088052"><ele>753.2</ele><time>2026-04-19T10:35:58.62Z</time></trkpt><trkpt lat="39.0303754" lon="-3.0088368"><ele>753.0</ele><time>2026-04-19T10:35:59.616Z</time></trkpt><trkpt lat="39.0304687" lon="-3.0088818"><ele>753.0</ele><time>2026-04-19T10:36:00.617Z</time></trkpt><trkpt lat="39.0305507" lon="-3.0089227"><ele>753.0</ele><time>2026-04-19T10:36:01.619Z</time></trkpt><trkpt lat="39.0306139" lon="-3.0090043"><ele>753.0</ele><time>2026-04-19T10:36:03.628Z</time></trkpt><trkpt lat="39.0306428" lon="-3.009102"><ele>753.0</ele><time>2026-04-19T10:36:06.62Z</time></trkpt><trkpt lat="39.0307238" lon="-3.0092123"><ele>753.0</ele><time>2026-04-19T10:36:08.628Z</time></trkpt><trkpt lat="39.0308137" lon="-3.0092681"><ele>751.75</ele><time>2026-04-19T10:36:09.625Z</time></trkpt><trkpt lat="39.0309207" lon="-3.0093236"><ele>750.5</ele><time>2026-04-19T10:36:10.618Z</time></trkpt><trkpt lat="39.0310236" lon="-3.0093832"><ele>749.25</ele><time>2026-04-19T10:36:11.622Z</time></trkpt><trkpt lat="39.03113" lon="-3.0094402"><ele>748.0</ele><time>2026-04-19T10:36:12.619Z</time></trkpt><trkpt lat="39.0312635" lon="-3.0094717"><ele>748.0</ele><time>2026-04-19T10:36:13.62Z</time></trkpt><trkpt lat="39.0313742" lon="-3.0094924"><ele>748.0</ele><time>2026-04-19T10:36:14.619Z</time></trkpt><trkpt lat="39.0314715" lon="-3.0094897"><ele>748.0</ele><time>2026-04-19T10:36:15.617Z</time></trkpt><trkpt lat="39.0315789" lon="-3.0094562"><ele>748.0</ele><time>2026-04-19T10:36:16.621Z</time></trkpt><trkpt lat="39.0316999" lon="-3.0094116"><ele>748.0</ele><time>2026-04-19T10:36:17.616Z</time></trkpt><trkpt lat="39.0318378" lon="-3.009321"><ele>748.3333333333334</ele><time>2026-04-19T10:36:18.623Z</time></trkpt><trkpt lat="39.0319816" lon="-3.0092356"><ele>748.6666666666666</ele><time>2026-04-19T10:36:19.621Z</time></trkpt><trkpt lat="39.0321082" lon="-3.0091369"><ele>749.0</ele><time>2026-04-19T10:36:20.623Z</time></trkpt><trkpt lat="39.0322332" lon="-3.0090101"><ele>748.75</ele><time>2026-04-19T10:36:21.623Z</time></trkpt><trkpt lat="39.0323484" lon="-3.0088948"><ele>748.5</ele><time>2026-04-19T10:36:22.627Z</time></trkpt><trkpt lat="39.0324531" lon="-3.0087886"><ele>748.25</ele><time>2026-04-19T10:36:23.622Z</time></trkpt><trkpt lat="39.0325454" lon="-3.0086971"><ele>748.0</ele><time>2026-04-19T10:36:24.624Z</time></trkpt><trkpt lat="39.0326633" lon="-3.008604"><ele>748.0</ele><time>2026-04-19T10:36:25.622Z</time></trkpt><trkpt lat="39.0328091" lon="-3.0084917"><ele>748.0</ele><time>2026-04-19T10:36:26.621Z</time></trkpt><trkpt lat="39.0329473" lon="-3.0083796"><ele>748.0</ele><time>2026-04-19T10:36:27.625Z</time></trkpt><trkpt lat="39.0330684" lon="-3.0082777"><ele>748.0</ele><time>2026-04-19T10:36:28.617Z</time></trkpt><trkpt lat="39.0331966" lon="-3.008194"><ele>748.0</ele><time>2026-04-19T10:36:29.617Z</time></trkpt><trkpt lat="39.033338" lon="-3.0081244"><ele>748.0</ele><time>2026-04-19T10:36:30.622Z</time></trkpt><trkpt lat="39.0334784" lon="-3.0080588"><ele>748.0</ele><time>2026-04-19T10:36:31.623Z</time></trkpt><trkpt lat="39.0336126" lon="-3.0079899"><ele>748.0</ele><time>2026-04-19T10:36:32.62Z</time></trkpt><trkpt lat="39.0337357" lon="-3.0079193"><ele>748.0</ele><time>2026-04-19T10:36:33.618Z</time></trkpt><trkpt lat="39.0338326" lon="-3.0078444"><ele>748.0</ele><time>2026-04-19T10:36:34.624Z</time></trkpt><trkpt lat="39.0339089" lon="-3.0077576"><ele>748.0</ele><time>2026-04-19T10:36:35.617Z</time></trkpt><trkpt lat="39.0339844" lon="-3.0076512"><ele>748.0</ele><time>2026-04-19T10:36:36.627Z</time></trkpt><trkpt lat="39.0340538" lon="-3.0075429"><ele>748.0</ele><time>2026-04-19T10:36:37.635Z</time></trkpt><trkpt lat="39.0341344" lon="-3.0074647"><ele>748.0</ele><time>2026-04-19T10:36:38.63Z</time></trkpt><trkpt lat="39.0342356" lon="-3.00741"><ele>748.0</ele><time>2026-04-19T10:36:39.625Z</time></trkpt><trkpt lat="39.0343319" lon="-3.0073579"><ele>748.0</ele><time>2026-04-19T10:36:40.622Z</time></trkpt><trkpt lat="39.0344133" lon="-3.007284"><ele>747.5</ele><time>2026-04-19T10:36:41.622Z</time></trkpt><trkpt lat="39.0344992" lon="-3.0071897"><ele>747.0</ele><time>2026-04-19T10:36:42.619Z</time></trkpt><trkpt lat="39.034599" lon="-3.007077"><ele>746.5</ele><time>2026-04-19T10:36:43.635Z</time></trkpt><trkpt lat="39.0347121" lon="-3.0069649"><ele>746.0</ele><time>2026-04-19T10:36:44.622Z</time></trkpt><trkpt lat="39.0348141" lon="-3.0068771"><ele>746.0</ele><time>2026-04-19T10:36:45.636Z</time></trkpt><trkpt lat="39.0348938" lon="-3.0068116"><ele>746.0</ele><time>2026-04-19T10:36:46.627Z</time></trkpt><trkpt lat="39.0349597" lon="-3.0067782"><ele>746.0</ele><time>2026-04-19T10:36:48.625Z</time></trkpt><trkpt lat="39.0350555" lon="-3.0067811"><ele>746.0</ele><time>2026-04-19T10:36:50.627Z</time></trkpt><trkpt lat="39.035134" lon="-3.0067687"><ele>746.0</ele><time>2026-04-19T10:36:51.623Z</time></trkpt><trkpt lat="39.0352238" lon="-3.0067558"><ele>746.0</ele><time>2026-04-19T10:36:52.622Z</time></trkpt><trkpt lat="39.0353126" lon="-3.0067391"><ele>745.25</ele><time>2026-04-19T10:36:53.626Z</time></trkpt><trkpt lat="39.0354143" lon="-3.0067341"><ele>744.5</ele><time>2026-04-19T10:36:54.629Z</time></trkpt><trkpt lat="39.0355419" lon="-3.0067443"><ele>743.75</ele><time>2026-04-19T10:36:55.632Z</time></trkpt><trkpt lat="39.0356924" lon="-3.0067647"><ele>743.0</ele><time>2026-04-19T10:36:56.632Z</time></trkpt><trkpt lat="39.0358549" lon="-3.0067761"><ele>742.75</ele><time>2026-04-19T10:36:57.634Z</time></trkpt><trkpt lat="39.0359944" lon="-3.0067854"><ele>742.5</ele><time>2026-04-19T10:36:58.631Z</time></trkpt><trkpt lat="39.0360996" lon="-3.0068032"><ele>742.25</ele><time>2026-04-19T10:36:59.634Z</time></trkpt><trkpt lat="39.0361881" lon="-3.0068442"><ele>742.0</ele><time>2026-04-19T10:37:00.623Z</time></trkpt><trkpt lat="39.0362945" lon="-3.0069186"><ele>742.0</ele><time>2026-04-19T10:37:01.625Z</time></trkpt><trkpt lat="39.0364282" lon="-3.0070097"><ele>742.0</ele><time>2026-04-19T10:37:02.629Z</time></trkpt><trkpt lat="39.0365819" lon="-3.0071091"><ele>742.0</ele><time>2026-04-19T10:37:03.638Z</time></trkpt><trkpt lat="39.0367358" lon="-3.0072158"><ele>741.5</ele><time>2026-04-19T10:37:04.631Z</time></trkpt><trkpt lat="39.0368806" lon="-3.0073089"><ele>741.0</ele><time>2026-04-19T10:37:05.627Z</time></trkpt><trkpt lat="39.0370097" lon="-3.0073747"><ele>740.5</ele><time>2026-04-19T10:37:06.627Z</time></trkpt><trkpt lat="39.0371239" lon="-3.0074179"><ele>740.0</ele><time>2026-04-19T10:37:07.618Z</time></trkpt><trkpt lat="39.0372245" lon="-3.0074595"><ele>740.4</ele><time>2026-04-19T10:37:08.62Z</time></trkpt><trkpt lat="39.0373044" lon="-3.0074993"><ele>740.8</ele><time>2026-04-19T10:37:09.618Z</time></trkpt><trkpt lat="39.0373622" lon="-3.0075376"><ele>741.2</ele><time>2026-04-19T10:37:10.627Z</time></trkpt><trkpt lat="39.0374219" lon="-3.0076498"><ele>741.6</ele><time>2026-04-19T10:37:12.621Z</time></trkpt><trkpt lat="39.0374301" lon="-3.0077763"><ele>742.0</ele><time>2026-04-19T10:37:14.624Z</time></trkpt><trkpt lat="39.0373593" lon="-3.0079071"><ele>742.0</ele><time>2026-04-19T10:37:16.631Z</time></trkpt><trkpt lat="39.0373138" lon="-3.0079733"><ele>742.0</ele><time>2026-04-19T10:37:17.619Z</time></trkpt><trkpt lat="39.0372619" lon="-3.0081018"><ele>742.0</ele><time>2026-04-19T10:37:19.626Z</time></trkpt><trkpt lat="39.0372443" lon="-3.0082466"><ele>742.0</ele><time>2026-04-19T10:37:21.618Z</time></trkpt><trkpt lat="39.0372498" lon="-3.0083329"><ele>742.0</ele><time>2026-04-19T10:37:22.619Z</time></trkpt><trkpt lat="39.037262" lon="-3.0084233"><ele>742.0</ele><time>2026-04-19T10:37:23.622Z</time></trkpt><trkpt lat="39.0372815" lon="-3.0085205"><ele>742.0</ele><time>2026-04-19T10:37:24.622Z</time></trkpt><trkpt lat="39.0373" lon="-3.0086098"><ele>742.0</ele><time>2026-04-19T10:37:25.625Z</time></trkpt><trkpt lat="39.037323" lon="-3.0086901"><ele>742.0</ele><time>2026-04-19T10:37:26.628Z</time></trkpt><trkpt lat="39.0373893" lon="-3.0088141"><ele>742.0</ele><time>2026-04-19T10:37:28.622Z</time></trkpt><trkpt lat="39.0374379" lon="-3.0088662"><ele>742.0</ele><time>2026-04-19T10:37:29.634Z</time></trkpt><trkpt lat="39.0375037" lon="-3.0089191"><ele>742.0</ele><time>2026-04-19T10:37:30.63Z</time></trkpt><trkpt lat="39.0375779" lon="-3.0089727"><ele>742.0</ele><time>2026-04-19T10:37:31.62Z</time></trkpt><trkpt lat="39.0376647" lon="-3.0090309"><ele>742.0</ele><time>2026-04-19T10:37:32.628Z</time></trkpt><trkpt lat="39.0377484" lon="-3.0090776"><ele>742.0</ele><time>2026-04-19T10:37:33.63Z</time></trkpt><trkpt lat="39.037827" lon="-3.009105"><ele>742.0</ele><time>2026-04-19T10:37:34.627Z</time></trkpt><trkpt lat="39.037903" lon="-3.0091148"><ele>742.0</ele><time>2026-04-19T10:37:35.629Z</time></trkpt><trkpt lat="39.0379779" lon="-3.0091047"><ele>742.0</ele><time>2026-04-19T10:37:36.633Z</time></trkpt><trkpt lat="39.0380533" lon="-3.0090833"><ele>742.0</ele><time>2026-04-19T10:37:37.63Z</time></trkpt><trkpt lat="39.0381397" lon="-3.0090557"><ele>742.0</ele><time>2026-04-19T10:37:38.635Z</time></trkpt><trkpt lat="39.038218" lon="-3.0090221"><ele>742.0</ele><time>2026-04-19T10:37:39.647Z</time></trkpt><trkpt lat="39.038291" lon="-3.0089852"><ele>742.0</ele><time>2026-04-19T10:37:40.632Z</time></trkpt><trkpt lat="39.0383566" lon="-3.0089425"><ele>742.0</ele><time>2026-04-19T10:37:41.633Z</time></trkpt><trkpt lat="39.0384811" lon="-3.0088611"><ele>740.75</ele><time>2026-04-19T10:37:43.638Z</time></trkpt><trkpt lat="39.038667" lon="-3.0087639"><ele>739.5</ele><time>2026-04-19T10:37:46.625Z</time></trkpt><trkpt lat="39.0387583" lon="-3.0087293"><ele>738.25</ele><time>2026-04-19T10:37:47.623Z</time></trkpt><trkpt lat="39.0388697" lon="-3.0086925"><ele>737.0</ele><time>2026-04-19T10:37:48.637Z</time></trkpt><trkpt lat="39.0389899" lon="-3.0086625"><ele>737.0</ele><time>2026-04-19T10:37:49.628Z</time></trkpt><trkpt lat="39.0391192" lon="-3.0086332"><ele>737.0</ele><time>2026-04-19T10:37:50.637Z</time></trkpt><trkpt lat="39.0392772" lon="-3.0085938"><ele>737.0</ele><time>2026-04-19T10:37:51.628Z</time></trkpt><trkpt lat="39.0394544" lon="-3.0085523"><ele>737.0</ele><time>2026-04-19T10:37:52.624Z</time></trkpt><trkpt lat="39.0396489" lon="-3.0085077"><ele>737.0</ele><time>2026-04-19T10:37:53.625Z</time></trkpt><trkpt lat="39.0398321" lon="-3.0084657"><ele>737.0</ele><time>2026-04-19T10:37:54.628Z</time></trkpt><trkpt lat="39.0399898" lon="-3.0084358"><ele>737.0</ele><time>2026-04-19T10:37:55.628Z</time></trkpt><trkpt lat="39.0401277" lon="-3.0084218"><ele>737.0</ele><time>2026-04-19T10:37:56.631Z</time></trkpt><trkpt lat="39.0402681" lon="-3.0084322"><ele>737.0</ele><time>2026-04-19T10:37:57.627Z</time></trkpt><trkpt lat="39.0404361" lon="-3.0084696"><ele>737.0</ele><time>2026-04-19T10:37:58.631Z</time></trkpt><trkpt lat="39.0405988" lon="-3.008524"><ele>737.0</ele><time>2026-04-19T10:37:59.626Z</time></trkpt><trkpt lat="39.0407638" lon="-3.0085901"><ele>737.0</ele><time>2026-04-19T10:38:00.631Z</time></trkpt><trkpt lat="39.0409195" lon="-3.0086582"><ele>737.0</ele><time>2026-04-19T10:38:01.629Z</time></trkpt><trkpt lat="39.0410659" lon="-3.0087196"><ele>737.0</ele><time>2026-04-19T10:38:02.63Z</time></trkpt><trkpt lat="39.0412" lon="-3.0087722"><ele>737.0</ele><time>2026-04-19T10:38:03.626Z</time></trkpt><trkpt lat="39.0413348" lon="-3.0088062"><ele>737.0</ele><time>2026-04-19T10:38:04.624Z</time></trkpt><trkpt lat="39.0414545" lon="-3.0088197"><ele>737.0</ele><time>2026-04-19T10:38:05.626Z</time></trkpt><trkpt lat="39.0415795" lon="-3.0088134"><ele>737.5</ele><time>2026-04-19T10:38:06.62Z</time></trkpt><trkpt lat="39.041721" lon="-3.0087887"><ele>738.0</ele><time>2026-04-19T10:38:07.621Z</time></trkpt><trkpt lat="39.0418713" lon="-3.0087494"><ele>738.5</ele><time>2026-04-19T10:38:08.634Z</time></trkpt><trkpt lat="39.0419954" lon="-3.0087156"><ele>739.0</ele><time>2026-04-19T10:38:09.634Z</time></trkpt><trkpt lat="39.0420972" lon="-3.0086962"><ele>739.0</ele><time>2026-04-19T10:38:10.623Z</time></trkpt><trkpt lat="39.0421911" lon="-3.0087065"><ele>739.0</ele><time>2026-04-19T10:38:11.632Z</time></trkpt><trkpt lat="39.0423061" lon="-3.0087396"><ele>739.0</ele><time>2026-04-19T10:38:12.624Z</time></trkpt><trkpt lat="39.0424145" lon="-3.00876"><ele>739.0</ele><time>2026-04-19T10:38:13.628Z</time></trkpt><trkpt lat="39.0425088" lon="-3.0087574"><ele>739.0</ele><time>2026-04-19T10:38:14.636Z</time></trkpt><trkpt lat="39.0425943" lon="-3.0087411"><ele>740.2</ele><time>2026-04-19T10:38:15.624Z</time></trkpt><trkpt lat="39.0426974" lon="-3.0087324"><ele>741.4000000000001</ele><time>2026-04-19T10:38:16.622Z</time></trkpt><trkpt lat="39.0427961" lon="-3.0087413"><ele>742.6</ele><time>2026-04-19T10:38:17.624Z</time></trkpt><trkpt lat="39.0429005" lon="-3.0087617"><ele>743.8</ele><time>2026-04-19T10:38:18.622Z</time></trkpt><trkpt lat="39.0430168" lon="-3.0088266"><ele>745.0</ele><time>2026-04-19T10:38:19.627Z</time></trkpt><trkpt lat="39.0431205" lon="-3.0088883"><ele>745.0</ele><time>2026-04-19T10:38:20.638Z</time></trkpt><trkpt lat="39.0432024" lon="-3.0089494"><ele>745.0</ele><time>2026-04-19T10:38:21.635Z</time></trkpt><trkpt lat="39.0432901" lon="-3.0090086"><ele>745.0</ele><time>2026-04-19T10:38:22.625Z</time></trkpt><trkpt lat="39.0433807" lon="-3.0090547"><ele>745.0</ele><time>2026-04-19T10:38:23.623Z</time></trkpt><trkpt lat="39.043482" lon="-3.009087"><ele>745.0</ele><time>2026-04-19T10:38:24.628Z</time></trkpt><trkpt lat="39.0435926" lon="-3.0091026"><ele>746.0</ele><time>2026-04-19T10:38:25.628Z</time></trkpt><trkpt lat="39.0437004" lon="-3.0091168"><ele>747.0</ele><time>2026-04-19T10:38:26.63Z</time></trkpt><trkpt lat="39.0438088" lon="-3.0091491"><ele>748.0</ele><time>2026-04-19T10:38:27.62Z</time></trkpt><trkpt lat="39.0439286" lon="-3.0092104"><ele>749.0</ele><time>2026-04-19T10:38:28.614Z</time></trkpt><trkpt lat="39.0440562" lon="-3.0092866"><ele>748.5</ele><time>2026-04-19T10:38:29.625Z</time></trkpt><trkpt lat="39.0441773" lon="-3.009375"><ele>748.0</ele><time>2026-04-19T10:38:30.625Z</time></trkpt><trkpt lat="39.0442908" lon="-3.0094651"><ele>747.5</ele><time>2026-04-19T10:38:31.634Z</time></trkpt><trkpt lat="39.0444023" lon="-3.0095684"><ele>747.0</ele><time>2026-04-19T10:38:32.627Z</time></trkpt><trkpt lat="39.0445136" lon="-3.0096861"><ele>747.0</ele><time>2026-04-19T10:38:33.634Z</time></trkpt><trkpt lat="39.0446163" lon="-3.0098215"><ele>747.0</ele><time>2026-04-19T10:38:34.629Z</time></trkpt><trkpt lat="39.0447119" lon="-3.0099733"><ele>747.0</ele><time>2026-04-19T10:38:35.635Z</time></trkpt><trkpt lat="39.0448033" lon="-3.0101517"><ele>746.6666666666666</ele><time>2026-04-19T10:38:36.629Z</time></trkpt><trkpt lat="39.0448993" lon="-3.0103456"><ele>746.3333333333333</ele><time>2026-04-19T10:38:37.637Z</time></trkpt><trkpt lat="39.0449976" lon="-3.0105478"><ele>746.0</ele><time>2026-04-19T10:38:38.618Z</time></trkpt><trkpt lat="39.0450961" lon="-3.0107586"><ele>744.6666666666666</ele><time>2026-04-19T10:38:39.624Z</time></trkpt><trkpt lat="39.0451743" lon="-3.010972"><ele>743.3333333333334</ele><time>2026-04-19T10:38:40.621Z</time></trkpt><trkpt lat="39.0452582" lon="-3.0111674"><ele>742.0</ele><time>2026-04-19T10:38:41.63Z</time></trkpt><trkpt lat="39.0453481" lon="-3.0113508"><ele>742.0</ele><time>2026-04-19T10:38:42.623Z</time></trkpt><trkpt lat="39.0454293" lon="-3.0115317"><ele>742.0</ele><time>2026-04-19T10:38:43.626Z</time></trkpt><trkpt lat="39.0455032" lon="-3.0117316"><ele>742.0</ele><time>2026-04-19T10:38:44.635Z</time></trkpt><trkpt lat="39.0455683" lon="-3.0119302"><ele>742.0</ele><time>2026-04-19T10:38:45.629Z</time></trkpt><trkpt lat="39.0456222" lon="-3.0121171"><ele>742.0</ele><time>2026-04-19T10:38:46.624Z</time></trkpt><trkpt lat="39.0456689" lon="-3.0122901"><ele>742.0</ele><time>2026-04-19T10:38:47.631Z</time></trkpt><trkpt lat="39.0457111" lon="-3.0124531"><ele>742.0</ele><time>2026-04-19T10:38:48.633Z</time></trkpt><trkpt lat="39.0457717" lon="-3.0126119"><ele>741.0</ele><time>2026-04-19T10:38:49.631Z</time></trkpt><trkpt lat="39.0458564" lon="-3.0127661"><ele>740.0</ele><time>2026-04-19T10:38:50.636Z</time></trkpt><trkpt lat="39.045964" lon="-3.0129116"><ele>739.0</ele><time>2026-04-19T10:38:51.628Z</time></trkpt><trkpt lat="39.046085" lon="-3.0130563"><ele>739.0</ele><time>2026-04-19T10:38:52.636Z</time></trkpt><trkpt lat="39.0462088" lon="-3.0131985"><ele>739.0</ele><time>2026-04-19T10:38:53.629Z</time></trkpt><trkpt lat="39.0463359" lon="-3.0133403"><ele>739.0</ele><time>2026-04-19T10:38:54.622Z</time></trkpt><trkpt lat="39.0464665" lon="-3.0134654"><ele>738.75</ele><time>2026-04-19T10:38:55.621Z</time></trkpt><trkpt lat="39.0465947" lon="-3.013564"><ele>738.5</ele><time>2026-04-19T10:38:56.638Z</time></trkpt><trkpt lat="39.046718" lon="-3.0136444"><ele>738.25</ele><time>2026-04-19T10:38:57.635Z</time></trkpt><trkpt lat="39.0468322" lon="-3.0137351"><ele>738.0</ele><time>2026-04-19T10:38:58.638Z</time></trkpt><trkpt lat="39.046935" lon="-3.0138566"><ele>739.75</ele><time>2026-04-19T10:38:59.628Z</time></trkpt><trkpt lat="39.0470288" lon="-3.0140013"><ele>741.5</ele><time>2026-04-19T10:39:00.624Z</time></trkpt><trkpt lat="39.0471146" lon="-3.0141292"><ele>743.25</ele><time>2026-04-19T10:39:01.629Z</time></trkpt><trkpt lat="39.0472067" lon="-3.0142341"><ele>745.0</ele><time>2026-04-19T10:39:02.621Z</time></trkpt><trkpt lat="39.0472996" lon="-3.0143216"><ele>745.0</ele><time>2026-04-19T10:39:03.626Z</time></trkpt><trkpt lat="39.0473896" lon="-3.0143976"><ele>745.0</ele><time>2026-04-19T10:39:04.637Z</time></trkpt><trkpt lat="39.0474508" lon="-3.0144767"><ele>745.0</ele><time>2026-04-19T10:39:05.631Z</time></trkpt><trkpt lat="39.047487" lon="-3.0145695"><ele>745.0</ele><time>2026-04-19T10:39:06.626Z</time></trkpt><trkpt lat="39.0475099" lon="-3.0146879"><ele>745.0</ele><time>2026-04-19T10:39:07.629Z</time></trkpt><trkpt lat="39.0475285" lon="-3.0147972"><ele>744.8</ele><time>2026-04-19T10:39:08.623Z</time></trkpt><trkpt lat="39.0475425" lon="-3.0148891"><ele>744.6</ele><time>2026-04-19T10:39:09.623Z</time></trkpt><trkpt lat="39.0475998" lon="-3.0149898"><ele>744.4000000000001</ele><time>2026-04-19T10:39:11.63Z</time></trkpt><trkpt lat="39.0477137" lon="-3.015004"><ele>744.2</ele><time>2026-04-19T10:39:13.627Z</time></trkpt><trkpt lat="39.0477858" lon="-3.0149728"><ele>744.0</ele><time>2026-04-19T10:39:14.623Z</time></trkpt><trkpt lat="39.0478732" lon="-3.0149316"><ele>744.6</ele><time>2026-04-19T10:39:15.629Z</time></trkpt><trkpt lat="39.0479856" lon="-3.0148938"><ele>745.2</ele><time>2026-04-19T10:39:16.633Z</time></trkpt><trkpt lat="39.0480918" lon="-3.0148584"><ele>745.8000000000001</ele><time>2026-04-19T10:39:17.626Z</time></trkpt><trkpt lat="39.0481779" lon="-3.0148035"><ele>746.4000000000001</ele><time>2026-04-19T10:39:18.625Z</time></trkpt><trkpt lat="39.0482565" lon="-3.0147422"><ele>747.0</ele><time>2026-04-19T10:39:19.62Z</time></trkpt><trkpt lat="39.0483257" lon="-3.0147006"><ele>745.2</ele><time>2026-04-19T10:39:20.622Z</time></trkpt><trkpt lat="39.0484282" lon="-3.0146276"><ele>743.4000000000001</ele><time>2026-04-19T10:39:22.622Z</time></trkpt><trkpt lat="39.0485383" lon="-3.0145654"><ele>741.5999999999999</ele><time>2026-04-19T10:39:24.622Z</time></trkpt><trkpt lat="39.0486631" lon="-3.0145116"><ele>739.8</ele><time>2026-04-19T10:39:26.627Z</time></trkpt><trkpt lat="39.0487316" lon="-3.0144892"><ele>738.0</ele><time>2026-04-19T10:39:27.624Z</time></trkpt><trkpt lat="39.0487998" lon="-3.0144617"><ele>738.0</ele><time>2026-04-19T10:39:28.614Z</time></trkpt><trkpt lat="39.0488655" lon="-3.0144335"><ele>738.0</ele><time>2026-04-19T10:39:29.624Z</time></trkpt><trkpt lat="39.0489334" lon="-3.0144099"><ele>738.0</ele><time>2026-04-19T10:39:30.613Z</time></trkpt><trkpt lat="39.0490036" lon="-3.0143952"><ele>738.0</ele><time>2026-04-19T10:39:31.618Z</time></trkpt><trkpt lat="39.0490831" lon="-3.0143841"><ele>738.0</ele><time>2026-04-19T10:39:32.619Z</time></trkpt><trkpt lat="39.0491707" lon="-3.01437"><ele>738.0</ele><time>2026-04-19T10:39:33.619Z</time></trkpt><trkpt lat="39.049265" lon="-3.0143525"><ele>736.5999999999999</ele><time>2026-04-19T10:39:34.625Z</time></trkpt><trkpt lat="39.0493702" lon="-3.0143393"><ele>735.1999999999999</ele><time>2026-04-19T10:39:35.622Z</time></trkpt><trkpt lat="39.0494866" lon="-3.0143396"><ele>733.8</ele><time>2026-04-19T10:39:36.63Z</time></trkpt><trkpt lat="39.0495975" lon="-3.0143445"><ele>732.4</ele><time>2026-04-19T10:39:37.625Z</time></trkpt><trkpt lat="39.0496974" lon="-3.0143507"><ele>731.0</ele><time>2026-04-19T10:39:38.613Z</time></trkpt><trkpt lat="39.0497874" lon="-3.014369"><ele>731.0</ele><time>2026-04-19T10:39:39.629Z</time></trkpt><trkpt lat="39.0498765" lon="-3.0144127"><ele>731.0</ele><time>2026-04-19T10:39:40.624Z</time></trkpt><trkpt lat="39.0499795" lon="-3.0144879"><ele>731.0</ele><time>2026-04-19T10:39:41.63Z</time></trkpt><trkpt lat="39.0500966" lon="-3.0145832"><ele>731.0</ele><time>2026-04-19T10:39:42.622Z</time></trkpt><trkpt lat="39.0502136" lon="-3.0146666"><ele>731.0</ele><time>2026-04-19T10:39:43.629Z</time></trkpt><trkpt lat="39.050336" lon="-3.0147255"><ele>731.0</ele><time>2026-04-19T10:39:44.637Z</time></trkpt><trkpt lat="39.0504659" lon="-3.0147751"><ele>731.0</ele><time>2026-04-19T10:39:45.622Z</time></trkpt><trkpt lat="39.0505941" lon="-3.0148411"><ele>731.0</ele><time>2026-04-19T10:39:46.621Z</time></trkpt><trkpt lat="39.0507313" lon="-3.0149173"><ele>728.3333333333333</ele><time>2026-04-19T10:39:47.625Z</time></trkpt><trkpt lat="39.0508929" lon="-3.0149876"><ele>725.6666666666666</ele><time>2026-04-19T10:39:48.624Z</time></trkpt><trkpt lat="39.0510779" lon="-3.0150596"><ele>723.0</ele><time>2026-04-19T10:39:49.629Z</time></trkpt><trkpt lat="39.0512805" lon="-3.0151561"><ele>723.0</ele><time>2026-04-19T10:39:50.631Z</time></trkpt><trkpt lat="39.0514778" lon="-3.0152536"><ele>723.0</ele><time>2026-04-19T10:39:51.637Z</time></trkpt><trkpt lat="39.0516609" lon="-3.0153402"><ele>723.0</ele><time>2026-04-19T10:39:52.619Z</time></trkpt><trkpt lat="39.0518242" lon="-3.0154138"><ele>722.0</ele><time>2026-04-19T10:39:53.62Z</time></trkpt><trkpt lat="39.0519716" lon="-3.0154868"><ele>721.0</ele><time>2026-04-19T10:39:54.627Z</time></trkpt><trkpt lat="39.0521092" lon="-3.0155692"><ele>720.0</ele><time>2026-04-19T10:39:55.628Z</time></trkpt><trkpt lat="39.052237" lon="-3.0156455"><ele>720.0</ele><time>2026-04-19T10:39:56.621Z</time></trkpt><trkpt lat="39.0523578" lon="-3.0157091"><ele>720.0</ele><time>2026-04-19T10:39:57.628Z</time></trkpt><trkpt lat="39.0524795" lon="-3.0157532"><ele>720.0</ele><time>2026-04-19T10:39:58.62Z</time></trkpt><trkpt lat="39.0526117" lon="-3.0157805"><ele>720.0</ele><time>2026-04-19T10:39:59.63Z</time></trkpt><trkpt lat="39.0527399" lon="-3.0157941"><ele>719.6</ele><time>2026-04-19T10:40:00.629Z</time></trkpt><trkpt lat="39.0528626" lon="-3.0158037"><ele>719.2</ele><time>2026-04-19T10:40:01.629Z</time></trkpt><trkpt lat="39.0529793" lon="-3.0158149"><ele>718.8</ele><time>2026-04-19T10:40:02.629Z</time></trkpt><trkpt lat="39.0530877" lon="-3.0158233"><ele>718.4</ele><time>2026-04-19T10:40:03.621Z</time></trkpt><trkpt lat="39.0531845" lon="-3.0158286"><ele>718.0</ele><time>2026-04-19T10:40:04.627Z</time></trkpt><trkpt lat="39.0532666" lon="-3.0158332"><ele>716.0</ele><time>2026-04-19T10:40:05.624Z</time></trkpt><trkpt lat="39.053334" lon="-3.0158291"><ele>714.0</ele><time>2026-04-19T10:40:06.63Z</time></trkpt><trkpt lat="39.0534201" lon="-3.0157937"><ele>712.0</ele><time>2026-04-19T10:40:08.618Z</time></trkpt><trkpt lat="39.0535303" lon="-3.0157552"><ele>710.0</ele><time>2026-04-19T10:40:18.631Z</time></trkpt><trkpt lat="39.053629" lon="-3.0157343"><ele>708.0</ele><time>2026-04-19T10:40:20.629Z</time></trkpt><trkpt lat="39.0537391" lon="-3.015744"><ele>708.0</ele><time>2026-04-19T10:40:22.629Z</time></trkpt><trkpt lat="39.0538277" lon="-3.0158117"><ele>708.0</ele><time>2026-04-19T10:40:24.625Z</time></trkpt><trkpt lat="39.0539028" lon="-3.0159407"><ele>708.0</ele><time>2026-04-19T10:40:26.619Z</time></trkpt><trkpt lat="39.0539354" lon="-3.0160253"><ele>708.0</ele><time>2026-04-19T10:40:27.616Z</time></trkpt><trkpt lat="39.053964" lon="-3.0161061"><ele>708.0</ele><time>2026-04-19T10:40:28.618Z</time></trkpt><trkpt lat="39.0539885" lon="-3.0161832"><ele>708.0</ele><time>2026-04-19T10:40:29.618Z</time></trkpt><trkpt lat="39.0540643" lon="-3.0163033"><ele>706.5999999999999</ele><time>2026-04-19T10:40:31.625Z</time></trkpt><trkpt lat="39.0541858" lon="-3.0163655"><ele>705.1999999999999</ele><time>2026-04-19T10:40:33.62Z</time></trkpt><trkpt lat="39.0542695" lon="-3.01639"><ele>703.8</ele><time>2026-04-19T10:40:34.614Z</time></trkpt><trkpt lat="39.0543572" lon="-3.0164208"><ele>702.4</ele><time>2026-04-19T10:40:35.624Z</time></trkpt><trkpt lat="39.0544456" lon="-3.0164539"><ele>701.0</ele><time>2026-04-19T10:40:36.616Z</time></trkpt><trkpt lat="39.0545361" lon="-3.0164823"><ele>701.0</ele><time>2026-04-19T10:40:37.624Z</time></trkpt><trkpt lat="39.054622" lon="-3.0165044"><ele>701.0</ele><time>2026-04-19T10:40:38.624Z</time></trkpt><trkpt lat="39.0547011" lon="-3.0165231"><ele>701.0</ele><time>2026-04-19T10:40:39.628Z</time></trkpt><trkpt lat="39.054772" lon="-3.0165446"><ele>701.0</ele><time>2026-04-19T10:40:40.623Z</time></trkpt><trkpt lat="39.0548376" lon="-3.0165671"><ele>701.0</ele><time>2026-04-19T10:40:41.618Z</time></trkpt><trkpt lat="39.054939" lon="-3.0166213"><ele>701.0</ele><time>2026-04-19T10:40:43.627Z</time></trkpt><trkpt lat="39.0550088" lon="-3.0167368"><ele>700.5999999999999</ele><time>2026-04-19T10:40:45.631Z</time></trkpt><trkpt lat="39.0550508" lon="-3.0168454"><ele>700.2</ele><time>2026-04-19T10:40:47.624Z</time></trkpt><trkpt lat="39.055086" lon="-3.0169548"><ele>699.8</ele><time>2026-04-19T10:40:49.624Z</time></trkpt><trkpt lat="39.0551304" lon="-3.0171029"><ele>699.4000000000001</ele><time>2026-04-19T10:40:51.623Z</time></trkpt><trkpt lat="39.0551687" lon="-3.017246"><ele>699.0</ele><time>2026-04-19T10:40:53.624Z</time></trkpt><trkpt lat="39.0551971" lon="-3.0173588"><ele>699.0</ele><time>2026-04-19T10:40:55.633Z</time></trkpt><trkpt lat="39.055234" lon="-3.017477"><ele>699.0</ele><time>2026-04-19T10:40:57.629Z</time></trkpt><trkpt lat="39.0552695" lon="-3.0175758"><ele>699.0</ele><time>2026-04-19T10:40:59.628Z</time></trkpt><trkpt lat="39.0552875" lon="-3.0176912"><ele>699.0</ele><time>2026-04-19T10:41:01.633Z</time></trkpt><trkpt lat="39.0552943" lon="-3.0177906"><ele>699.0</ele><time>2026-04-19T10:41:02.627Z</time></trkpt><trkpt lat="39.055307" lon="-3.0178995"><ele>699.0</ele><time>2026-04-19T10:41:03.627Z</time></trkpt><trkpt lat="39.0553272" lon="-3.0180178"><ele>699.0</ele><time>2026-04-19T10:41:04.633Z</time></trkpt><trkpt lat="39.0553633" lon="-3.0181441"><ele>699.0</ele><time>2026-04-19T10:41:05.625Z</time></trkpt><trkpt lat="39.0554101" lon="-3.0182691"><ele>699.0</ele><time>2026-04-19T10:41:06.648Z</time></trkpt><trkpt lat="39.0554546" lon="-3.0183829"><ele>699.0</ele><time>2026-04-19T10:41:07.645Z</time></trkpt><trkpt lat="39.055495" lon="-3.0184883"><ele>699.0</ele><time>2026-04-19T10:41:08.624Z</time></trkpt><trkpt lat="39.0555363" lon="-3.0185889"><ele>699.0</ele><time>2026-04-19T10:41:09.631Z</time></trkpt><trkpt lat="39.0555825" lon="-3.018712"><ele>699.0</ele><time>2026-04-19T10:41:10.638Z</time></trkpt><trkpt lat="39.0556383" lon="-3.0188648"><ele>699.0</ele><time>2026-04-19T10:41:11.626Z</time></trkpt><trkpt lat="39.0557098" lon="-3.0190315"><ele>699.0</ele><time>2026-04-19T10:41:12.628Z</time></trkpt><trkpt lat="39.0557801" lon="-3.0192022"><ele>700.0</ele><time>2026-04-19T10:41:13.624Z</time></trkpt><trkpt lat="39.0558483" lon="-3.0193794"><ele>701.0</ele><time>2026-04-19T10:41:14.63Z</time></trkpt><trkpt lat="39.0559141" lon="-3.0195547"><ele>702.0</ele><time>2026-04-19T10:41:15.619Z</time></trkpt><trkpt lat="39.0559763" lon="-3.0197213"><ele>703.0</ele><time>2026-04-19T10:41:16.619Z</time></trkpt><trkpt lat="39.056038" lon="-3.0198998"><ele>702.5</ele><time>2026-04-19T10:41:17.627Z</time></trkpt><trkpt lat="39.0561022" lon="-3.0200758"><ele>702.0</ele><time>2026-04-19T10:41:18.618Z</time></trkpt><trkpt lat="39.056161" lon="-3.0202357"><ele>701.5</ele><time>2026-04-19T10:41:19.62Z</time></trkpt><trkpt lat="39.0562194" lon="-3.0203946"><ele>701.0</ele><time>2026-04-19T10:41:20.617Z</time></trkpt><trkpt lat="39.0562762" lon="-3.0205553"><ele>701.0</ele><time>2026-04-19T10:41:21.627Z</time></trkpt><trkpt lat="39.0563333" lon="-3.0206968"><ele>701.0</ele><time>2026-04-19T10:41:22.618Z</time></trkpt><trkpt lat="39.056391" lon="-3.0208225"><ele>701.0</ele><time>2026-04-19T10:41:23.618Z</time></trkpt><trkpt lat="39.0564532" lon="-3.0209492"><ele>701.0</ele><time>2026-04-19T10:41:24.621Z</time></trkpt><trkpt lat="39.0565322" lon="-3.0210542"><ele>700.5999999999999</ele><time>2026-04-19T10:41:25.624Z</time></trkpt><trkpt lat="39.0566139" lon="-3.0211531"><ele>700.2</ele><time>2026-04-19T10:41:26.628Z</time></trkpt><trkpt lat="39.0566964" lon="-3.0212314"><ele>699.8</ele><time>2026-04-19T10:41:27.626Z</time></trkpt><trkpt lat="39.0567716" lon="-3.0212968"><ele>699.4000000000001</ele><time>2026-04-19T10:41:28.623Z</time></trkpt><trkpt lat="39.0568401" lon="-3.0213593"><ele>699.0</ele><time>2026-04-19T10:41:29.638Z</time></trkpt><trkpt lat="39.056907" lon="-3.0214193"><ele>699.5</ele><time>2026-04-19T10:41:30.624Z</time></trkpt><trkpt lat="39.0569787" lon="-3.021479"><ele>700.0</ele><time>2026-04-19T10:41:31.621Z</time></trkpt><trkpt lat="39.0570572" lon="-3.0215338"><ele>700.5</ele><time>2026-04-19T10:41:32.619Z</time></trkpt><trkpt lat="39.0571379" lon="-3.0215659"><ele>701.0</ele><time>2026-04-19T10:41:33.615Z</time></trkpt><trkpt lat="39.0572106" lon="-3.0215798"><ele>701.5</ele><time>2026-04-19T10:41:34.625Z</time></trkpt><trkpt lat="39.0573133" lon="-3.0215777"><ele>702.0</ele><time>2026-04-19T10:41:36.623Z</time></trkpt><trkpt lat="39.057365" lon="-3.021652"><ele>702.0</ele><time>2026-04-19T10:41:39.616Z</time></trkpt><trkpt lat="39.0573184" lon="-3.0217306"><ele>702.0</ele><time>2026-04-19T10:41:41.627Z</time></trkpt><trkpt lat="39.0572407" lon="-3.0217623"><ele>702.0</ele><time>2026-04-19T10:41:43.617Z</time></trkpt><trkpt lat="39.0571292" lon="-3.0217591"><ele>702.0</ele><time>2026-04-19T10:41:45.626Z</time></trkpt><trkpt lat="39.0570629" lon="-3.021736"><ele>702.0</ele><time>2026-04-19T10:41:46.626Z</time></trkpt><trkpt lat="39.0569855" lon="-3.0216912"><ele>702.0</ele><time>2026-04-19T10:41:47.623Z</time></trkpt><trkpt lat="39.0568909" lon="-3.0216306"><ele>702.75</ele><time>2026-04-19T10:41:48.62Z</time></trkpt><trkpt lat="39.0567859" lon="-3.021566"><ele>703.5</ele><time>2026-04-19T10:41:49.621Z</time></trkpt><trkpt lat="39.0566812" lon="-3.021506"><ele>704.25</ele><time>2026-04-19T10:41:50.63Z</time></trkpt><trkpt lat="39.0565748" lon="-3.0214637"><ele>705.0</ele><time>2026-04-19T10:41:51.624Z</time></trkpt><trkpt lat="39.0564518" lon="-3.0214321"><ele>704.0</ele><time>2026-04-19T10:41:52.625Z</time></trkpt><trkpt lat="39.0563504" lon="-3.0214084"><ele>703.0</ele><time>2026-04-19T10:41:53.623Z</time></trkpt><trkpt lat="39.0562627" lon="-3.021386"><ele>702.0</ele><time>2026-04-19T10:41:54.625Z</time></trkpt><trkpt lat="39.056181" lon="-3.02137"><ele>701.0</ele><time>2026-04-19T10:41:55.628Z</time></trkpt><trkpt lat="39.0561039" lon="-3.0213925"><ele>700.0</ele><time>2026-04-19T10:41:56.622Z</time></trkpt><trkpt lat="39.0560315" lon="-3.021419"><ele>699.0</ele><time>2026-04-19T10:41:57.621Z</time></trkpt><trkpt lat="39.0559597" lon="-3.0214487"><ele>699.0</ele><time>2026-04-19T10:41:58.621Z</time></trkpt><trkpt lat="39.0558897" lon="-3.0214703"><ele>699.0</ele><time>2026-04-19T10:41:59.628Z</time></trkpt><trkpt lat="39.0558154" lon="-3.0214895"><ele>699.0</ele><time>2026-04-19T10:42:00.624Z</time></trkpt><trkpt lat="39.055741" lon="-3.0215193"><ele>699.0</ele><time>2026-04-19T10:42:01.628Z</time></trkpt><trkpt lat="39.0556738" lon="-3.0215537"><ele>699.0</ele><time>2026-04-19T10:42:02.627Z</time></trkpt><trkpt lat="39.055603" lon="-3.0215887"><ele>699.0</ele><time>2026-04-19T10:42:03.62Z</time></trkpt><trkpt lat="39.0555348" lon="-3.0216348"><ele>699.2</ele><time>2026-04-19T10:42:04.618Z</time></trkpt><trkpt lat="39.0554696" lon="-3.0216661"><ele>699.4000000000001</ele><time>2026-04-19T10:42:05.626Z</time></trkpt><trkpt lat="39.0553857" lon="-3.0217077"><ele>699.6</ele><time>2026-04-19T10:42:07.625Z</time></trkpt><trkpt lat="39.0554503" lon="-3.0218282"><ele>699.8</ele><time>2026-04-19T10:42:16.624Z</time></trkpt><trkpt lat="39.0555438" lon="-3.0219472"><ele>700.0</ele><time>2026-04-19T10:42:18.624Z</time></trkpt><trkpt lat="39.0556028" lon="-3.0220458"><ele>700.0</ele><time>2026-04-19T10:42:19.623Z</time></trkpt><trkpt lat="39.0556639" lon="-3.022167"><ele>700.0</ele><time>2026-04-19T10:42:20.616Z</time></trkpt><trkpt lat="39.0557285" lon="-3.0223114"><ele>700.0</ele><time>2026-04-19T10:42:21.626Z</time></trkpt><trkpt lat="39.0558043" lon="-3.0224949"><ele>700.0</ele><time>2026-04-19T10:42:22.622Z</time></trkpt><trkpt lat="39.0558833" lon="-3.0227079"><ele>699.3333333333334</ele><time>2026-04-19T10:42:23.623Z</time></trkpt><trkpt lat="39.0559545" lon="-3.0229137"><ele>698.6666666666666</ele><time>2026-04-19T10:42:24.615Z</time></trkpt><trkpt lat="39.0560205" lon="-3.0231048"><ele>698.0</ele><time>2026-04-19T10:42:25.628Z</time></trkpt><trkpt lat="39.0560806" lon="-3.0232814"><ele>698.0</ele><time>2026-04-19T10:42:26.622Z</time></trkpt><trkpt lat="39.0561334" lon="-3.0234494"><ele>698.0</ele><time>2026-04-19T10:42:27.622Z</time></trkpt><trkpt lat="39.0561778" lon="-3.0236346"><ele>698.0</ele><time>2026-04-19T10:42:28.619Z</time></trkpt><trkpt lat="39.0562231" lon="-3.0238374"><ele>698.0</ele><time>2026-04-19T10:42:29.63Z</time></trkpt><trkpt lat="39.0562711" lon="-3.0240412"><ele>698.0</ele><time>2026-04-19T10:42:30.622Z</time></trkpt><trkpt lat="39.0563149" lon="-3.0242452"><ele>698.0</ele><time>2026-04-19T10:42:31.622Z</time></trkpt><trkpt lat="39.0563551" lon="-3.024444"><ele>698.0</ele><time>2026-04-19T10:42:32.623Z</time></trkpt><trkpt lat="39.0563986" lon="-3.0246399"><ele>698.0</ele><time>2026-04-19T10:42:33.624Z</time></trkpt><trkpt lat="39.0564391" lon="-3.0248369"><ele>698.0</ele><time>2026-04-19T10:42:34.624Z</time></trkpt><trkpt lat="39.0564759" lon="-3.0250409"><ele>697.3333333333333</ele><time>2026-04-19T10:42:35.629Z</time></trkpt><trkpt lat="39.0565126" lon="-3.0252462"><ele>696.6666666666666</ele><time>2026-04-19T10:42:36.626Z</time></trkpt><trkpt lat="39.0565481" lon="-3.0254481"><ele>696.0</ele><time>2026-04-19T10:42:37.628Z</time></trkpt><trkpt lat="39.0565676" lon="-3.0256506"><ele>696.0</ele><time>2026-04-19T10:42:38.625Z</time></trkpt><trkpt lat="39.0565815" lon="-3.0258676"><ele>696.0</ele><time>2026-04-19T10:42:39.618Z</time></trkpt><trkpt lat="39.0566091" lon="-3.0260875"><ele>696.0</ele><time>2026-04-19T10:42:40.617Z</time></trkpt><trkpt lat="39.056624" lon="-3.026323"><ele>696.3333333333334</ele><time>2026-04-19T10:42:41.626Z</time></trkpt><trkpt lat="39.0566404" lon="-3.0265677"><ele>696.6666666666667</ele><time>2026-04-19T10:42:42.627Z</time></trkpt><trkpt lat="39.0566635" lon="-3.0268177"><ele>697.0</ele><time>2026-04-19T10:42:43.619Z</time></trkpt><trkpt lat="39.0566867" lon="-3.0270631"><ele>697.0</ele><time>2026-04-19T10:42:44.624Z</time></trkpt><trkpt lat="39.0567089" lon="-3.0273132"><ele>697.0</ele><time>2026-04-19T10:42:45.616Z</time></trkpt><trkpt lat="39.0567296" lon="-3.0275565"><ele>697.0</ele><time>2026-04-19T10:42:46.618Z</time></trkpt><trkpt lat="39.0567541" lon="-3.0278108"><ele>696.6666666666667</ele><time>2026-04-19T10:42:47.617Z</time></trkpt><trkpt lat="39.056777" lon="-3.0280654"><ele>696.3333333333334</ele><time>2026-04-19T10:42:48.624Z</time></trkpt><trkpt lat="39.0567981" lon="-3.0283165"><ele>696.0</ele><time>2026-04-19T10:42:49.633Z</time></trkpt><trkpt lat="39.056817" lon="-3.0285728"><ele>696.3333333333334</ele><time>2026-04-19T10:42:50.619Z</time></trkpt><trkpt lat="39.0568285" lon="-3.0288425"><ele>696.6666666666667</ele><time>2026-04-19T10:42:51.622Z</time></trkpt><trkpt lat="39.0568485" lon="-3.0291034"><ele>697.0</ele><time>2026-04-19T10:42:52.632Z</time></trkpt><trkpt lat="39.0568705" lon="-3.0293516"><ele>697.0</ele><time>2026-04-19T10:42:53.624Z</time></trkpt><trkpt lat="39.0568936" lon="-3.0295953"><ele>697.0</ele><time>2026-04-19T10:42:54.625Z</time></trkpt><trkpt lat="39.0569149" lon="-3.0298312"><ele>697.0</ele><time>2026-04-19T10:42:55.62Z</time></trkpt><trkpt lat="39.056935" lon="-3.0300657"><ele>696.6666666666667</ele><time>2026-04-19T10:42:56.626Z</time></trkpt><trkpt lat="39.0569585" lon="-3.0302955"><ele>696.3333333333334</ele><time>2026-04-19T10:42:57.627Z</time></trkpt><trkpt lat="39.0569777" lon="-3.0305259"><ele>696.0</ele><time>2026-04-19T10:42:58.626Z</time></trkpt><trkpt lat="39.056995" lon="-3.0307461"><ele>695.6666666666666</ele><time>2026-04-19T10:42:59.627Z</time></trkpt><trkpt lat="39.0570163" lon="-3.0309807"><ele>695.3333333333333</ele><time>2026-04-19T10:43:00.626Z</time></trkpt><trkpt lat="39.0570392" lon="-3.0312146"><ele>695.0</ele><time>2026-04-19T10:43:01.623Z</time></trkpt><trkpt lat="39.0570613" lon="-3.0314383"><ele>695.2</ele><time>2026-04-19T10:43:02.623Z</time></trkpt><trkpt lat="39.057086" lon="-3.0316405"><ele>695.4</ele><time>2026-04-19T10:43:03.625Z</time></trkpt><trkpt lat="39.0571075" lon="-3.0317982"><ele>695.5999999999999</ele><time>2026-04-19T10:43:04.626Z</time></trkpt><trkpt lat="39.0571296" lon="-3.0319098"><ele>695.8</ele><time>2026-04-19T10:43:05.626Z</time></trkpt><trkpt lat="39.0571435" lon="-3.0320014"><ele>696.0</ele><time>2026-04-19T10:43:06.623Z</time></trkpt><trkpt lat="39.0571634" lon="-3.0321341"><ele>696.0</ele><time>2026-04-19T10:43:08.626Z</time></trkpt><trkpt lat="39.0571837" lon="-3.0322262"><ele>696.0</ele><time>2026-04-19T10:43:10.628Z</time></trkpt><trkpt lat="39.0572007" lon="-3.0323288"><ele>696.0</ele><time>2026-04-19T10:43:12.63Z</time></trkpt><trkpt lat="39.057224" lon="-3.0324602"><ele>696.0</ele><time>2026-04-19T10:43:14.634Z</time></trkpt><trkpt lat="39.0572599" lon="-3.032621"><ele>696.0</ele><time>2026-04-19T10:43:16.624Z</time></trkpt><trkpt lat="39.0572878" lon="-3.0327266"><ele>696.1999999999999</ele><time>2026-04-19T10:43:17.621Z</time></trkpt><trkpt lat="39.0573204" lon="-3.0328288"><ele>696.4</ele><time>2026-04-19T10:43:18.623Z</time></trkpt><trkpt lat="39.0573582" lon="-3.032938"><ele>696.6</ele><time>2026-04-19T10:43:19.621Z</time></trkpt><trkpt lat="39.0573984" lon="-3.0330632"><ele>696.8</ele><time>2026-04-19T10:43:20.626Z</time></trkpt><trkpt lat="39.0574387" lon="-3.0332068"><ele>697.0</ele><time>2026-04-19T10:43:21.626Z</time></trkpt><trkpt lat="39.0574854" lon="-3.0333638"><ele>697.0</ele><time>2026-04-19T10:43:22.618Z</time></trkpt><trkpt lat="39.057539" lon="-3.0335183"><ele>697.0</ele><time>2026-04-19T10:43:23.627Z</time></trkpt><trkpt lat="39.0575958" lon="-3.0336612"><ele>697.0</ele><time>2026-04-19T10:43:24.623Z</time></trkpt><trkpt lat="39.057659" lon="-3.0338098"><ele>697.0</ele><time>2026-04-19T10:43:25.628Z</time></trkpt><trkpt lat="39.0577164" lon="-3.0339547"><ele>697.0</ele><time>2026-04-19T10:43:26.625Z</time></trkpt><trkpt lat="39.0577686" lon="-3.0340817"><ele>697.0</ele><time>2026-04-19T10:43:27.632Z</time></trkpt><trkpt lat="39.0578178" lon="-3.0341897"><ele>697.0</ele><time>2026-04-19T10:43:28.621Z</time></trkpt><trkpt lat="39.0578613" lon="-3.0342789"><ele>697.0</ele><time>2026-04-19T10:43:29.621Z</time></trkpt><trkpt lat="39.0578995" lon="-3.034352"><ele>697.0</ele><time>2026-04-19T10:43:30.63Z</time></trkpt><trkpt lat="39.0579619" lon="-3.0344609"><ele>696.6</ele><time>2026-04-19T10:43:32.624Z</time></trkpt><trkpt lat="39.0580238" lon="-3.0345527"><ele>696.2</ele><time>2026-04-19T10:43:34.63Z</time></trkpt><trkpt lat="39.058087" lon="-3.034658"><ele>695.8</ele><time>2026-04-19T10:43:36.617Z</time></trkpt><trkpt lat="39.0581495" lon="-3.0347841"><ele>695.4</ele><time>2026-04-19T10:43:38.622Z</time></trkpt><trkpt lat="39.0581939" lon="-3.0348565"><ele>695.0</ele><time>2026-04-19T10:43:39.62Z</time></trkpt><trkpt lat="39.0582404" lon="-3.0349355"><ele>695.0</ele><time>2026-04-19T10:43:40.621Z</time></trkpt><trkpt lat="39.0582872" lon="-3.0350206"><ele>695.0</ele><time>2026-04-19T10:43:41.628Z</time></trkpt><trkpt lat="39.0583418" lon="-3.0351083"><ele>695.0</ele><time>2026-04-19T10:43:42.624Z</time></trkpt><trkpt lat="39.0583998" lon="-3.0352006"><ele>695.0</ele><time>2026-04-19T10:43:43.62Z</time></trkpt><trkpt lat="39.0584561" lon="-3.0352909"><ele>695.0</ele><time>2026-04-19T10:43:44.624Z</time></trkpt><trkpt lat="39.0585116" lon="-3.0353746"><ele>695.0</ele><time>2026-04-19T10:43:45.62Z</time></trkpt><trkpt lat="39.0585664" lon="-3.0354593"><ele>695.0</ele><time>2026-04-19T10:43:46.623Z</time></trkpt><trkpt lat="39.0586195" lon="-3.0355435"><ele>695.0</ele><time>2026-04-19T10:43:47.621Z</time></trkpt><trkpt lat="39.0586733" lon="-3.0356284"><ele>695.0</ele><time>2026-04-19T10:43:48.629Z</time></trkpt><trkpt lat="39.0587242" lon="-3.0357112"><ele>695.0</ele><time>2026-04-19T10:43:49.618Z</time></trkpt><trkpt lat="39.0587711" lon="-3.0357911"><ele>695.0</ele><time>2026-04-19T10:43:50.623Z</time></trkpt><trkpt lat="39.0588149" lon="-3.035868"><ele>695.0</ele><time>2026-04-19T10:43:51.627Z</time></trkpt><trkpt lat="39.0588542" lon="-3.0359446"><ele>694.8333333333333</ele><time>2026-04-19T10:43:52.623Z</time></trkpt><trkpt lat="39.0588913" lon="-3.0360236"><ele>694.6666666666666</ele><time>2026-04-19T10:43:53.623Z</time></trkpt><trkpt lat="39.0589275" lon="-3.0361033"><ele>694.5</ele><time>2026-04-19T10:43:54.631Z</time></trkpt><trkpt lat="39.0589647" lon="-3.0361852"><ele>694.3333333333334</ele><time>2026-04-19T10:43:55.619Z</time></trkpt><trkpt lat="39.0590047" lon="-3.0362778"><ele>694.1666666666667</ele><time>2026-04-19T10:43:56.616Z</time></trkpt><trkpt lat="39.0590487" lon="-3.0363856"><ele>694.0</ele><time>2026-04-19T10:43:57.623Z</time></trkpt><trkpt lat="39.0590925" lon="-3.0365115"><ele>694.25</ele><time>2026-04-19T10:43:58.627Z</time></trkpt><trkpt lat="39.059136" lon="-3.0366525"><ele>694.5</ele><time>2026-04-19T10:43:59.633Z</time></trkpt><trkpt lat="39.0591775" lon="-3.0368001"><ele>694.75</ele><time>2026-04-19T10:44:00.631Z</time></trkpt><trkpt lat="39.0592173" lon="-3.0369623"><ele>695.0</ele><time>2026-04-19T10:44:01.628Z</time></trkpt><trkpt lat="39.0592544" lon="-3.0371431"><ele>695.0</ele><time>2026-04-19T10:44:02.622Z</time></trkpt><trkpt lat="39.0592904" lon="-3.0373382"><ele>695.0</ele><time>2026-04-19T10:44:03.625Z</time></trkpt><trkpt lat="39.0593268" lon="-3.0375395"><ele>695.0</ele><time>2026-04-19T10:44:04.627Z</time></trkpt><trkpt lat="39.059371" lon="-3.0377777"><ele>695.0</ele><time>2026-04-19T10:44:05.63Z</time></trkpt><trkpt lat="39.0594115" lon="-3.0380293"><ele>695.0</ele><time>2026-04-19T10:44:06.631Z</time></trkpt><trkpt lat="39.0594453" lon="-3.0382866"><ele>695.0</ele><time>2026-04-19T10:44:07.622Z</time></trkpt><trkpt lat="39.0594837" lon="-3.0385195"><ele>695.0</ele><time>2026-04-19T10:44:08.621Z</time></trkpt><trkpt lat="39.059514" lon="-3.0387394"><ele>695.0</ele><time>2026-04-19T10:44:09.626Z</time></trkpt><trkpt lat="39.059531" lon="-3.038944"><ele>695.0</ele><time>2026-04-19T10:44:10.622Z</time></trkpt><trkpt lat="39.0595445" lon="-3.0391366"><ele>695.0</ele><time>2026-04-19T10:44:11.624Z</time></trkpt><trkpt lat="39.0595604" lon="-3.0393247"><ele>695.0</ele><time>2026-04-19T10:44:12.623Z</time></trkpt><trkpt lat="39.0595823" lon="-3.0395134"><ele>695.0</ele><time>2026-04-19T10:44:13.622Z</time></trkpt><trkpt lat="39.0596119" lon="-3.0396884"><ele>695.0</ele><time>2026-04-19T10:44:14.626Z</time></trkpt><trkpt lat="39.0596446" lon="-3.0398432"><ele>694.6</ele><time>2026-04-19T10:44:15.624Z</time></trkpt><trkpt lat="39.0596802" lon="-3.0399855"><ele>694.2</ele><time>2026-04-19T10:44:16.626Z</time></trkpt><trkpt lat="39.0597155" lon="-3.0401107"><ele>693.8</ele><time>2026-04-19T10:44:17.626Z</time></trkpt><trkpt lat="39.0597497" lon="-3.040221"><ele>693.4</ele><time>2026-04-19T10:44:18.629Z</time></trkpt><trkpt lat="39.0597781" lon="-3.0403277"><ele>693.0</ele><time>2026-04-19T10:44:19.625Z</time></trkpt><trkpt lat="39.0598077" lon="-3.0404379"><ele>693.0</ele><time>2026-04-19T10:44:20.627Z</time></trkpt><trkpt lat="39.0598492" lon="-3.0405627"><ele>693.0</ele><time>2026-04-19T10:44:21.627Z</time></trkpt><trkpt lat="39.0599044" lon="-3.0406935"><ele>693.0</ele><time>2026-04-19T10:44:22.627Z</time></trkpt><trkpt lat="39.0599703" lon="-3.0408359"><ele>693.0</ele><time>2026-04-19T10:44:23.628Z</time></trkpt><trkpt lat="39.0600421" lon="-3.0409821"><ele>692.6666666666666</ele><time>2026-04-19T10:44:24.627Z</time></trkpt><trkpt lat="39.0601165" lon="-3.0411351"><ele>692.3333333333333</ele><time>2026-04-19T10:44:25.626Z</time></trkpt><trkpt lat="39.0602014" lon="-3.0412947"><ele>692.0</ele><time>2026-04-19T10:44:26.619Z</time></trkpt><trkpt lat="39.0602978" lon="-3.0414607"><ele>692.0</ele><time>2026-04-19T10:44:27.623Z</time></trkpt><trkpt lat="39.0603974" lon="-3.0416247"><ele>692.0</ele><time>2026-04-19T10:44:28.628Z</time></trkpt><trkpt lat="39.0604968" lon="-3.0417848"><ele>692.0</ele><time>2026-04-19T10:44:29.626Z</time></trkpt><trkpt lat="39.0606082" lon="-3.041939"><ele>691.6666666666666</ele><time>2026-04-19T10:44:30.627Z</time></trkpt><trkpt lat="39.0607367" lon="-3.0420905"><ele>691.3333333333334</ele><time>2026-04-19T10:44:31.626Z</time></trkpt><trkpt lat="39.060858" lon="-3.0422181"><ele>691.0</ele><time>2026-04-19T10:44:32.622Z</time></trkpt><trkpt lat="39.0609654" lon="-3.0423221"><ele>691.2857142857142</ele><time>2026-04-19T10:44:33.622Z</time></trkpt><trkpt lat="39.061052" lon="-3.0423998"><ele>691.5714285714286</ele><time>2026-04-19T10:44:34.627Z</time></trkpt><trkpt lat="39.0611138" lon="-3.0424538"><ele>691.8571428571429</ele><time>2026-04-19T10:44:35.629Z</time></trkpt><trkpt lat="39.061171" lon="-3.0425007"><ele>692.1428571428571</ele><time>2026-04-19T10:44:36.628Z</time></trkpt><trkpt lat="39.0612292" lon="-3.0425424"><ele>692.4285714285714</ele><time>2026-04-19T10:44:37.627Z</time></trkpt><trkpt lat="39.0612865" lon="-3.0425833"><ele>692.7142857142857</ele><time>2026-04-19T10:44:38.63Z</time></trkpt><trkpt lat="39.0613402" lon="-3.0426281"><ele>693.0</ele><time>2026-04-19T10:44:39.631Z</time></trkpt><trkpt lat="39.0614346" lon="-3.042713"><ele>693.1666666666666</ele><time>2026-04-19T10:44:41.613Z</time></trkpt><trkpt lat="39.0615217" lon="-3.042785"><ele>693.3333333333334</ele><time>2026-04-19T10:44:43.623Z</time></trkpt><trkpt lat="39.0616174" lon="-3.0428671"><ele>693.5</ele><time>2026-04-19T10:44:45.628Z</time></trkpt><trkpt lat="39.0616693" lon="-3.0429167"><ele>693.6666666666667</ele><time>2026-04-19T10:44:46.627Z</time></trkpt><trkpt lat="39.0617245" lon="-3.042967"><ele>693.8333333333334</ele><time>2026-04-19T10:44:47.615Z</time></trkpt><trkpt lat="39.0617798" lon="-3.0430173"><ele>694.0</ele><time>2026-04-19T10:44:48.62Z</time></trkpt><trkpt lat="39.0618313" lon="-3.0430655"><ele>693.6666666666667</ele><time>2026-04-19T10:44:49.624Z</time></trkpt><trkpt lat="39.0618839" lon="-3.0431207"><ele>693.3333333333334</ele><time>2026-04-19T10:44:50.627Z</time></trkpt><trkpt lat="39.0619439" lon="-3.0431786"><ele>693.0</ele><time>2026-04-19T10:44:51.623Z</time></trkpt><trkpt lat="39.0620063" lon="-3.0432333"><ele>692.6666666666666</ele><time>2026-04-19T10:44:52.624Z</time></trkpt><trkpt lat="39.0620665" lon="-3.043296"><ele>692.3333333333333</ele><time>2026-04-19T10:44:53.632Z</time></trkpt><trkpt lat="39.0621304" lon="-3.0433686"><ele>692.0</ele><time>2026-04-19T10:44:54.628Z</time></trkpt><trkpt lat="39.0622002" lon="-3.0434445"><ele>692.0</ele><time>2026-04-19T10:44:55.628Z</time></trkpt><trkpt lat="39.0622743" lon="-3.0435217"><ele>692.0</ele><time>2026-04-19T10:44:56.629Z</time></trkpt><trkpt lat="39.0623525" lon="-3.0435973"><ele>692.0</ele><time>2026-04-19T10:44:57.622Z</time></trkpt><trkpt lat="39.0624315" lon="-3.0436807"><ele>692.0</ele><time>2026-04-19T10:44:58.618Z</time></trkpt><trkpt lat="39.0625151" lon="-3.0437657"><ele>692.0</ele><time>2026-04-19T10:44:59.625Z</time></trkpt><trkpt lat="39.0625962" lon="-3.0438533"><ele>692.0</ele><time>2026-04-19T10:45:00.629Z</time></trkpt><trkpt lat="39.0626809" lon="-3.0439416"><ele>692.0</ele><time>2026-04-19T10:45:01.623Z</time></trkpt><trkpt lat="39.0627647" lon="-3.0440334"><ele>692.0</ele><time>2026-04-19T10:45:02.626Z</time></trkpt><trkpt lat="39.0628488" lon="-3.0441356"><ele>692.0</ele><time>2026-04-19T10:45:03.621Z</time></trkpt><trkpt lat="39.062933" lon="-3.0442461"><ele>692.0</ele><time>2026-04-19T10:45:04.624Z</time></trkpt><trkpt lat="39.063019" lon="-3.0443631"><ele>692.0</ele><time>2026-04-19T10:45:05.631Z</time></trkpt><trkpt lat="39.0631097" lon="-3.0444912"><ele>692.0</ele><time>2026-04-19T10:45:06.619Z</time></trkpt><trkpt lat="39.0632032" lon="-3.0446322"><ele>692.0</ele><time>2026-04-19T10:45:07.617Z</time></trkpt><trkpt lat="39.0632929" lon="-3.0447707"><ele>692.0</ele><time>2026-04-19T10:45:08.625Z</time></trkpt><trkpt lat="39.0633775" lon="-3.0449109"><ele>692.0</ele><time>2026-04-19T10:45:09.628Z</time></trkpt><trkpt lat="39.0634665" lon="-3.0450531"><ele>692.0</ele><time>2026-04-19T10:45:10.625Z</time></trkpt><trkpt lat="39.0635536" lon="-3.0451901"><ele>692.0</ele><time>2026-04-19T10:45:11.623Z</time></trkpt><trkpt lat="39.0636393" lon="-3.0453273"><ele>692.25</ele><time>2026-04-19T10:45:12.626Z</time></trkpt><trkpt lat="39.0637203" lon="-3.0454712"><ele>692.5</ele><time>2026-04-19T10:45:13.626Z</time></trkpt><trkpt lat="39.0638003" lon="-3.0456093"><ele>692.75</ele><time>2026-04-19T10:45:14.625Z</time></trkpt><trkpt lat="39.0638778" lon="-3.0457323"><ele>693.0</ele><time>2026-04-19T10:45:15.625Z</time></trkpt><trkpt lat="39.0639638" lon="-3.0458481"><ele>693.0</ele><time>2026-04-19T10:45:16.616Z</time></trkpt><trkpt lat="39.0640394" lon="-3.0459491"><ele>693.0</ele><time>2026-04-19T10:45:17.622Z</time></trkpt><trkpt lat="39.0640978" lon="-3.0460521"><ele>693.0</ele><time>2026-04-19T10:45:18.626Z</time></trkpt><trkpt lat="39.0641542" lon="-3.0461527"><ele>693.0</ele><time>2026-04-19T10:45:19.628Z</time></trkpt><trkpt lat="39.0642099" lon="-3.0462517"><ele>693.0</ele><time>2026-04-19T10:45:20.623Z</time></trkpt><trkpt lat="39.0642634" lon="-3.0463453"><ele>693.0</ele><time>2026-04-19T10:45:21.62Z</time></trkpt><trkpt lat="39.0643091" lon="-3.0464338"><ele>693.0</ele><time>2026-04-19T10:45:22.622Z</time></trkpt><trkpt lat="39.0643472" lon="-3.0465085"><ele>693.0</ele><time>2026-04-19T10:45:23.63Z</time></trkpt><trkpt lat="39.0643851" lon="-3.0465749"><ele>693.0</ele><time>2026-04-19T10:45:24.624Z</time></trkpt><trkpt lat="39.064421" lon="-3.0466481"><ele>693.0</ele><time>2026-04-19T10:45:25.623Z</time></trkpt><trkpt lat="39.0644619" lon="-3.0467141"><ele>693.0</ele><time>2026-04-19T10:45:26.623Z</time></trkpt><trkpt lat="39.0645075" lon="-3.0467917"><ele>693.0</ele><time>2026-04-19T10:45:27.626Z</time></trkpt><trkpt lat="39.0645529" lon="-3.0468721"><ele>692.8</ele><time>2026-04-19T10:45:28.626Z</time></trkpt><trkpt lat="39.0646017" lon="-3.0469584"><ele>692.5999999999999</ele><time>2026-04-19T10:45:29.635Z</time></trkpt><trkpt lat="39.064652" lon="-3.0470534"><ele>692.4000000000001</ele><time>2026-04-19T10:45:30.629Z</time></trkpt><trkpt lat="39.0647011" lon="-3.0471528"><ele>692.2</ele><time>2026-04-19T10:45:31.622Z</time></trkpt><trkpt lat="39.0647567" lon="-3.0472589"><ele>692.0</ele><time>2026-04-19T10:45:32.628Z</time></trkpt><trkpt lat="39.0648201" lon="-3.0473711"><ele>691.5</ele><time>2026-04-19T10:45:33.625Z</time></trkpt><trkpt lat="39.0648926" lon="-3.0474933"><ele>691.0</ele><time>2026-04-19T10:45:34.62Z</time></trkpt><trkpt lat="39.0649702" lon="-3.0476306"><ele>690.5</ele><time>2026-04-19T10:45:35.621Z</time></trkpt><trkpt lat="39.0650551" lon="-3.0477789"><ele>690.0</ele><time>2026-04-19T10:45:36.626Z</time></trkpt><trkpt lat="39.065146" lon="-3.0479347"><ele>690.0</ele><time>2026-04-19T10:45:37.622Z</time></trkpt><trkpt lat="39.0652368" lon="-3.048095"><ele>690.0</ele><time>2026-04-19T10:45:38.63Z</time></trkpt><trkpt lat="39.065326" lon="-3.0482521"><ele>690.0</ele><time>2026-04-19T10:45:39.623Z</time></trkpt><trkpt lat="39.0654165" lon="-3.0484074"><ele>690.25</ele><time>2026-04-19T10:45:40.632Z</time></trkpt><trkpt lat="39.0655069" lon="-3.0485584"><ele>690.5</ele><time>2026-04-19T10:45:41.624Z</time></trkpt><trkpt lat="39.065596" lon="-3.0487136"><ele>690.75</ele><time>2026-04-19T10:45:42.622Z</time></trkpt><trkpt lat="39.0656842" lon="-3.048871"><ele>691.0</ele><time>2026-04-19T10:45:43.618Z</time></trkpt><trkpt lat="39.0657746" lon="-3.0490238"><ele>691.0</ele><time>2026-04-19T10:45:44.628Z</time></trkpt><trkpt lat="39.0658671" lon="-3.0491772"><ele>691.0</ele><time>2026-04-19T10:45:45.627Z</time></trkpt><trkpt lat="39.0659589" lon="-3.0493334"><ele>691.0</ele><time>2026-04-19T10:45:46.62Z</time></trkpt><trkpt lat="39.0660488" lon="-3.0494889"><ele>691.0</ele><time>2026-04-19T10:45:47.627Z</time></trkpt><trkpt lat="39.0661369" lon="-3.0496468"><ele>691.0</ele><time>2026-04-19T10:45:48.625Z</time></trkpt><trkpt lat="39.066227" lon="-3.0498032"><ele>691.0</ele><time>2026-04-19T10:45:49.623Z</time></trkpt><trkpt lat="39.0663177" lon="-3.0499564"><ele>691.0</ele><time>2026-04-19T10:45:50.63Z</time></trkpt><trkpt lat="39.0664076" lon="-3.0501083"><ele>691.0</ele><time>2026-04-19T10:45:51.622Z</time></trkpt><trkpt lat="39.0664949" lon="-3.0502602"><ele>691.0</ele><time>2026-04-19T10:45:52.624Z</time></trkpt><trkpt lat="39.0665806" lon="-3.0504101"><ele>691.0</ele><time>2026-04-19T10:45:53.628Z</time></trkpt><trkpt lat="39.0666624" lon="-3.0505483"><ele>691.0</ele><time>2026-04-19T10:45:54.626Z</time></trkpt><trkpt lat="39.0667434" lon="-3.0506809"><ele>691.0</ele><time>2026-04-19T10:45:55.625Z</time></trkpt><trkpt lat="39.0668212" lon="-3.0508097"><ele>691.0</ele><time>2026-04-19T10:45:56.619Z</time></trkpt><trkpt lat="39.0668912" lon="-3.0509339"><ele>691.0</ele><time>2026-04-19T10:45:57.622Z</time></trkpt><trkpt lat="39.066958" lon="-3.0510567"><ele>690.5999999999999</ele><time>2026-04-19T10:45:58.623Z</time></trkpt><trkpt lat="39.0670246" lon="-3.051179"><ele>690.2</ele><time>2026-04-19T10:45:59.627Z</time></trkpt><trkpt lat="39.0670895" lon="-3.0512978"><ele>689.8</ele><time>2026-04-19T10:46:00.622Z</time></trkpt><trkpt lat="39.0671541" lon="-3.0514134"><ele>689.4000000000001</ele><time>2026-04-19T10:46:01.624Z</time></trkpt><trkpt lat="39.0672147" lon="-3.0515196"><ele>689.0</ele><time>2026-04-19T10:46:02.62Z</time></trkpt><trkpt lat="39.0672711" lon="-3.0516161"><ele>689.0</ele><time>2026-04-19T10:46:03.624Z</time></trkpt><trkpt lat="39.0673239" lon="-3.0517033"><ele>689.0</ele><time>2026-04-19T10:46:04.622Z</time></trkpt><trkpt lat="39.0673727" lon="-3.0517845"><ele>689.0</ele><time>2026-04-19T10:46:05.633Z</time></trkpt><trkpt lat="39.0674191" lon="-3.05186"><ele>689.0</ele><time>2026-04-19T10:46:06.628Z</time></trkpt><trkpt lat="39.067465" lon="-3.05193"><ele>689.0</ele><time>2026-04-19T10:46:07.63Z</time></trkpt><trkpt lat="39.0675074" lon="-3.0519989"><ele>689.0</ele><time>2026-04-19T10:46:08.626Z</time></trkpt><trkpt lat="39.0675466" lon="-3.0520687"><ele>689.0</ele><time>2026-04-19T10:46:09.629Z</time></trkpt><trkpt lat="39.0675851" lon="-3.0521353"><ele>689.0</ele><time>2026-04-19T10:46:10.631Z</time></trkpt><trkpt lat="39.0676261" lon="-3.0522007"><ele>689.0</ele><time>2026-04-19T10:46:11.623Z</time></trkpt><trkpt lat="39.0676686" lon="-3.0522672"><ele>689.0</ele><time>2026-04-19T10:46:12.627Z</time></trkpt><trkpt lat="39.0677126" lon="-3.0523387"><ele>689.0</ele><time>2026-04-19T10:46:13.622Z</time></trkpt><trkpt lat="39.0677631" lon="-3.0524146"><ele>689.0</ele><time>2026-04-19T10:46:14.629Z</time></trkpt><trkpt lat="39.0678169" lon="-3.0524915"><ele>689.0</ele><time>2026-04-19T10:46:15.629Z</time></trkpt><trkpt lat="39.067875" lon="-3.0525737"><ele>689.0</ele><time>2026-04-19T10:46:16.625Z</time></trkpt><trkpt lat="39.0679375" lon="-3.0526613"><ele>689.0</ele><time>2026-04-19T10:46:17.628Z</time></trkpt><trkpt lat="39.0680074" lon="-3.0527528"><ele>689.0</ele><time>2026-04-19T10:46:18.629Z</time></trkpt><trkpt lat="39.0680793" lon="-3.0528421"><ele>689.0</ele><time>2026-04-19T10:46:19.63Z</time></trkpt><trkpt lat="39.0681535" lon="-3.0529345"><ele>689.0</ele><time>2026-04-19T10:46:20.628Z</time></trkpt><trkpt lat="39.0682326" lon="-3.0530279"><ele>689.0</ele><time>2026-04-19T10:46:21.619Z</time></trkpt><trkpt lat="39.0683138" lon="-3.0531257"><ele>689.0</ele><time>2026-04-19T10:46:22.629Z</time></trkpt><trkpt lat="39.0683975" lon="-3.0532298"><ele>689.0</ele><time>2026-04-19T10:46:23.635Z</time></trkpt><trkpt lat="39.0684846" lon="-3.0533389"><ele>689.0</ele><time>2026-04-19T10:46:24.627Z</time></trkpt><trkpt lat="39.0685749" lon="-3.0534504"><ele>689.0</ele><time>2026-04-19T10:46:25.625Z</time></trkpt><trkpt lat="39.0686695" lon="-3.0535615"><ele>688.75</ele><time>2026-04-19T10:46:26.622Z</time></trkpt><trkpt lat="39.0687669" lon="-3.0536723"><ele>688.5</ele><time>2026-04-19T10:46:27.628Z</time></trkpt><trkpt lat="39.0688641" lon="-3.053784"><ele>688.25</ele><time>2026-04-19T10:46:28.627Z</time></trkpt><trkpt lat="39.0689654" lon="-3.0538991"><ele>688.0</ele><time>2026-04-19T10:46:29.623Z</time></trkpt><trkpt lat="39.0690806" lon="-3.0540157"><ele>688.3333333333334</ele><time>2026-04-19T10:46:30.619Z</time></trkpt><trkpt lat="39.0692069" lon="-3.0541372"><ele>688.6666666666666</ele><time>2026-04-19T10:46:31.63Z</time></trkpt><trkpt lat="39.0693332" lon="-3.0542613"><ele>689.0</ele><time>2026-04-19T10:46:32.623Z</time></trkpt><trkpt lat="39.0694517" lon="-3.0543768"><ele>689.0</ele><time>2026-04-19T10:46:33.616Z</time></trkpt><trkpt lat="39.0695728" lon="-3.0544902"><ele>689.0</ele><time>2026-04-19T10:46:34.629Z</time></trkpt><trkpt lat="39.0697001" lon="-3.0546103"><ele>689.0</ele><time>2026-04-19T10:46:35.627Z</time></trkpt><trkpt lat="39.0698237" lon="-3.0547266"><ele>689.25</ele><time>2026-04-19T10:46:36.626Z</time></trkpt><trkpt lat="39.0699432" lon="-3.0548396"><ele>689.5</ele><time>2026-04-19T10:46:37.632Z</time></trkpt><trkpt lat="39.0700567" lon="-3.0549459"><ele>689.75</ele><time>2026-04-19T10:46:38.627Z</time></trkpt><trkpt lat="39.0701639" lon="-3.0550453"><ele>690.0</ele><time>2026-04-19T10:46:39.625Z</time></trkpt><trkpt lat="39.0702683" lon="-3.0551384"><ele>690.0</ele><time>2026-04-19T10:46:40.629Z</time></trkpt><trkpt lat="39.0703639" lon="-3.055233"><ele>690.0</ele><time>2026-04-19T10:46:41.622Z</time></trkpt><trkpt lat="39.0704679" lon="-3.0553228"><ele>690.0</ele><time>2026-04-19T10:46:42.623Z</time></trkpt><trkpt lat="39.0705753" lon="-3.0554248"><ele>690.0</ele><time>2026-04-19T10:46:43.62Z</time></trkpt><trkpt lat="39.0706806" lon="-3.055522"><ele>690.0</ele><time>2026-04-19T10:46:44.624Z</time></trkpt><trkpt lat="39.0707722" lon="-3.0556196"><ele>690.0</ele><time>2026-04-19T10:46:45.627Z</time></trkpt><trkpt lat="39.070858" lon="-3.0556911"><ele>690.0</ele><time>2026-04-19T10:46:46.62Z</time></trkpt><trkpt lat="39.0709292" lon="-3.0557661"><ele>690.0</ele><time>2026-04-19T10:46:47.616Z</time></trkpt><trkpt lat="39.0709924" lon="-3.0558273"><ele>690.0</ele><time>2026-04-19T10:46:48.627Z</time></trkpt><trkpt lat="39.0710894" lon="-3.0559388"><ele>690.0</ele><time>2026-04-19T10:46:50.627Z</time></trkpt><trkpt lat="39.0711435" lon="-3.056042"><ele>690.0</ele><time>2026-04-19T10:46:52.621Z</time></trkpt><trkpt lat="39.0711474" lon="-3.0561346"><ele>690.0</ele><time>2026-04-19T10:46:55.631Z</time></trkpt><trkpt lat="39.0710928" lon="-3.0562295"><ele>690.0</ele><time>2026-04-19T10:46:57.627Z</time></trkpt><trkpt lat="39.0710444" lon="-3.0563219"><ele>690.0</ele><time>2026-04-19T10:46:59.636Z</time></trkpt><trkpt lat="39.0710442" lon="-3.0564339"><ele>690.0</ele><time>2026-04-19T10:47:02.63Z</time></trkpt><trkpt lat="39.0710537" lon="-3.0565147"><ele>690.0</ele><time>2026-04-19T10:47:04.617Z</time></trkpt><trkpt lat="39.0710353" lon="-3.0566497"><ele>690.0</ele><time>2026-04-19T10:47:09.619Z</time></trkpt><trkpt lat="39.0711144" lon="-3.0566523"><ele>690.0</ele><time>2026-04-19T10:47:12.624Z</time></trkpt><trkpt lat="39.0711592" lon="-3.0565914"><ele>690.0</ele><time>2026-04-19T10:47:14.627Z</time></trkpt><trkpt lat="39.0712089" lon="-3.0565287"><ele>690.0</ele><time>2026-04-19T10:47:16.636Z</time></trkpt><trkpt lat="39.0712812" lon="-3.0564608"><ele>690.0</ele><time>2026-04-19T10:47:18.625Z</time></trkpt><trkpt lat="39.0713529" lon="-3.0564011"><ele>690.0</ele><time>2026-04-19T10:47:20.626Z</time></trkpt><trkpt lat="39.0714259" lon="-3.0564059"><ele>690.0</ele><time>2026-04-19T10:47:22.625Z</time></trkpt><trkpt lat="39.0715246" lon="-3.0564921"><ele>690.0</ele><time>2026-04-19T10:47:24.637Z</time></trkpt><trkpt lat="39.0715767" lon="-3.0565555"><ele>690.0</ele><time>2026-04-19T10:47:25.619Z</time></trkpt><trkpt lat="39.0716524" lon="-3.0566246"><ele>690.0</ele><time>2026-04-19T10:47:26.626Z</time></trkpt><trkpt lat="39.0717317" lon="-3.0566897"><ele>689.8</ele><time>2026-04-19T10:47:27.627Z</time></trkpt><trkpt lat="39.0718203" lon="-3.0567659"><ele>689.6</ele><time>2026-04-19T10:47:28.628Z</time></trkpt><trkpt lat="39.0719166" lon="-3.0568515"><ele>689.4000000000001</ele><time>2026-04-19T10:47:29.628Z</time></trkpt><trkpt lat="39.0720111" lon="-3.056939"><ele>689.2</ele><time>2026-04-19T10:47:30.621Z</time></trkpt><trkpt lat="39.0720985" lon="-3.0570218"><ele>689.0</ele><time>2026-04-19T10:47:31.624Z</time></trkpt><trkpt lat="39.0721737" lon="-3.0570999"><ele>689.0</ele><time>2026-04-19T10:47:32.628Z</time></trkpt><trkpt lat="39.0722445" lon="-3.0571674"><ele>689.0</ele><time>2026-04-19T10:47:33.621Z</time></trkpt><trkpt lat="39.0723183" lon="-3.0572304"><ele>689.0</ele><time>2026-04-19T10:47:34.625Z</time></trkpt><trkpt lat="39.0724061" lon="-3.0572952"><ele>689.0</ele><time>2026-04-19T10:47:35.624Z</time></trkpt><trkpt lat="39.0725022" lon="-3.0573648"><ele>689.0</ele><time>2026-04-19T10:47:36.622Z</time></trkpt><trkpt lat="39.0726023" lon="-3.0574451"><ele>689.25</ele><time>2026-04-19T10:47:37.621Z</time></trkpt><trkpt lat="39.072706" lon="-3.0575394"><ele>689.5</ele><time>2026-04-19T10:47:38.625Z</time></trkpt><trkpt lat="39.0728128" lon="-3.0576347"><ele>689.75</ele><time>2026-04-19T10:47:39.621Z</time></trkpt><trkpt lat="39.0729264" lon="-3.0577374"><ele>690.0</ele><time>2026-04-19T10:47:40.63Z</time></trkpt><trkpt lat="39.0730484" lon="-3.057844"><ele>690.0</ele><time>2026-04-19T10:47:41.628Z</time></trkpt><trkpt lat="39.0731784" lon="-3.0579588"><ele>690.0</ele><time>2026-04-19T10:47:42.627Z</time></trkpt><trkpt lat="39.0733137" lon="-3.0580886"><ele>690.0</ele><time>2026-04-19T10:47:43.63Z</time></trkpt><trkpt lat="39.073449" lon="-3.0582407"><ele>689.0</ele><time>2026-04-19T10:47:44.63Z</time></trkpt><trkpt lat="39.07357" lon="-3.0584"><ele>688.0</ele><time>2026-04-19T10:47:45.621Z</time></trkpt><trkpt lat="39.0736792" lon="-3.0585583"><ele>687.0</ele><time>2026-04-19T10:47:46.627Z</time></trkpt><trkpt lat="39.0737839" lon="-3.0587055"><ele>687.0</ele><time>2026-04-19T10:47:47.624Z</time></trkpt><trkpt lat="39.0738926" lon="-3.0588522"><ele>687.0</ele><time>2026-04-19T10:47:48.625Z</time></trkpt><trkpt lat="39.0740089" lon="-3.0590085"><ele>687.0</ele><time>2026-04-19T10:47:49.626Z</time></trkpt><trkpt lat="39.0741302" lon="-3.0591739"><ele>687.0</ele><time>2026-04-19T10:47:50.627Z</time></trkpt><trkpt lat="39.0742511" lon="-3.0593621"><ele>687.0</ele><time>2026-04-19T10:47:51.623Z</time></trkpt><trkpt lat="39.0743716" lon="-3.0595618"><ele>687.0</ele><time>2026-04-19T10:47:52.622Z</time></trkpt><trkpt lat="39.0744866" lon="-3.0597475"><ele>687.0</ele><time>2026-04-19T10:47:53.618Z</time></trkpt><trkpt lat="39.0745978" lon="-3.0599207"><ele>687.0</ele><time>2026-04-19T10:47:54.619Z</time></trkpt><trkpt lat="39.0747" lon="-3.0600806"><ele>687.0</ele><time>2026-04-19T10:47:55.626Z</time></trkpt><trkpt lat="39.0747952" lon="-3.0602244"><ele>687.0</ele><time>2026-04-19T10:47:56.633Z</time></trkpt><trkpt lat="39.074887" lon="-3.0603497"><ele>687.0</ele><time>2026-04-19T10:47:57.625Z</time></trkpt><trkpt lat="39.0749811" lon="-3.0604676"><ele>687.0</ele><time>2026-04-19T10:47:58.626Z</time></trkpt><trkpt lat="39.0750843" lon="-3.0605794"><ele>687.0</ele><time>2026-04-19T10:47:59.623Z</time></trkpt><trkpt lat="39.0751874" lon="-3.0606765"><ele>687.2</ele><time>2026-04-19T10:48:00.626Z</time></trkpt><trkpt lat="39.0752832" lon="-3.060767"><ele>687.4000000000001</ele><time>2026-04-19T10:48:01.629Z</time></trkpt><trkpt lat="39.0753773" lon="-3.0608457"><ele>687.5999999999999</ele><time>2026-04-19T10:48:02.631Z</time></trkpt><trkpt lat="39.0754693" lon="-3.0609117"><ele>687.8</ele><time>2026-04-19T10:48:03.626Z</time></trkpt><trkpt lat="39.0755581" lon="-3.0609787"><ele>688.0</ele><time>2026-04-19T10:48:04.625Z</time></trkpt><trkpt lat="39.075642" lon="-3.0610398"><ele>687.6666666666667</ele><time>2026-04-19T10:48:05.627Z</time></trkpt><trkpt lat="39.0757163" lon="-3.0610909"><ele>687.3333333333334</ele><time>2026-04-19T10:48:06.628Z</time></trkpt><trkpt lat="39.0757838" lon="-3.0611397"><ele>687.0</ele><time>2026-04-19T10:48:07.635Z</time></trkpt><trkpt lat="39.0758455" lon="-3.0611865"><ele>686.6666666666666</ele><time>2026-04-19T10:48:08.629Z</time></trkpt><trkpt lat="39.0759017" lon="-3.0612232"><ele>686.3333333333333</ele><time>2026-04-19T10:48:09.619Z</time></trkpt><trkpt lat="39.0759693" lon="-3.061265"><ele>686.0</ele><time>2026-04-19T10:48:10.619Z</time></trkpt><trkpt lat="39.0760547" lon="-3.0613108"><ele>686.0</ele><time>2026-04-19T10:48:11.617Z</time></trkpt><trkpt lat="39.0761537" lon="-3.0613575"><ele>686.0</ele><time>2026-04-19T10:48:12.628Z</time></trkpt><trkpt lat="39.0762654" lon="-3.0614015"><ele>686.0</ele><time>2026-04-19T10:48:13.622Z</time></trkpt><trkpt lat="39.0763821" lon="-3.0614393"><ele>686.0</ele><time>2026-04-19T10:48:14.63Z</time></trkpt><trkpt lat="39.0765034" lon="-3.0614816"><ele>686.25</ele><time>2026-04-19T10:48:15.624Z</time></trkpt><trkpt lat="39.0766283" lon="-3.0615287"><ele>686.5</ele><time>2026-04-19T10:48:16.626Z</time></trkpt><trkpt lat="39.0767502" lon="-3.0615758"><ele>686.75</ele><time>2026-04-19T10:48:17.621Z</time></trkpt><trkpt lat="39.0768606" lon="-3.0616187"><ele>687.0</ele><time>2026-04-19T10:48:18.625Z</time></trkpt><trkpt lat="39.0769821" lon="-3.0616538"><ele>687.0</ele><time>2026-04-19T10:48:19.624Z</time></trkpt><trkpt lat="39.0771196" lon="-3.0616905"><ele>687.0</ele><time>2026-04-19T10:48:20.623Z</time></trkpt><trkpt lat="39.0772606" lon="-3.0617307"><ele>687.0</ele><time>2026-04-19T10:48:21.616Z</time></trkpt><trkpt lat="39.077413" lon="-3.0617744"><ele>687.0</ele><time>2026-04-19T10:48:22.616Z</time></trkpt><trkpt lat="39.0775694" lon="-3.0618168"><ele>686.6666666666666</ele><time>2026-04-19T10:48:23.623Z</time></trkpt><trkpt lat="39.0777319" lon="-3.0618677"><ele>686.3333333333333</ele><time>2026-04-19T10:48:24.622Z</time></trkpt><trkpt lat="39.0778875" lon="-3.0619215"><ele>686.0</ele><time>2026-04-19T10:48:25.619Z</time></trkpt><trkpt lat="39.0780462" lon="-3.0619738"><ele>686.0</ele><time>2026-04-19T10:48:26.622Z</time></trkpt><trkpt lat="39.0781986" lon="-3.0620255"><ele>686.0</ele><time>2026-04-19T10:48:27.621Z</time></trkpt><trkpt lat="39.0783411" lon="-3.0620714"><ele>686.0</ele><time>2026-04-19T10:48:28.628Z</time></trkpt><trkpt lat="39.0784821" lon="-3.0621123"><ele>686.0</ele><time>2026-04-19T10:48:29.629Z</time></trkpt><trkpt lat="39.078617" lon="-3.0621475"><ele>686.0</ele><time>2026-04-19T10:48:30.626Z</time></trkpt><trkpt lat="39.0787508" lon="-3.0621888"><ele>686.0</ele><time>2026-04-19T10:48:31.626Z</time></trkpt><trkpt lat="39.0788793" lon="-3.0622324"><ele>686.0</ele><time>2026-04-19T10:48:32.626Z</time></trkpt><trkpt lat="39.0790106" lon="-3.0622678"><ele>686.0</ele><time>2026-04-19T10:48:33.626Z</time></trkpt><trkpt lat="39.0791458" lon="-3.0623089"><ele>686.0</ele><time>2026-04-19T10:48:34.622Z</time></trkpt><trkpt lat="39.0792825" lon="-3.062354"><ele>686.0</ele><time>2026-04-19T10:48:35.62Z</time></trkpt><trkpt lat="39.0794249" lon="-3.0624002"><ele>686.0</ele><time>2026-04-19T10:48:36.62Z</time></trkpt><trkpt lat="39.0795629" lon="-3.0624436"><ele>686.0</ele><time>2026-04-19T10:48:37.624Z</time></trkpt><trkpt lat="39.079704" lon="-3.0624864"><ele>686.0</ele><time>2026-04-19T10:48:38.624Z</time></trkpt><trkpt lat="39.0798467" lon="-3.0625252"><ele>686.0</ele><time>2026-04-19T10:48:39.631Z</time></trkpt><trkpt lat="39.0799869" lon="-3.0625624"><ele>686.0</ele><time>2026-04-19T10:48:40.633Z</time></trkpt><trkpt lat="39.0801198" lon="-3.062602"><ele>686.0</ele><time>2026-04-19T10:48:41.626Z</time></trkpt><trkpt lat="39.0802391" lon="-3.0626399"><ele>685.8</ele><time>2026-04-19T10:48:42.629Z</time></trkpt><trkpt lat="39.0803443" lon="-3.0626711"><ele>685.5999999999999</ele><time>2026-04-19T10:48:43.626Z</time></trkpt><trkpt lat="39.0804442" lon="-3.0626975"><ele>685.4</ele><time>2026-04-19T10:48:44.627Z</time></trkpt><trkpt lat="39.0805343" lon="-3.0627274"><ele>685.2</ele><time>2026-04-19T10:48:45.62Z</time></trkpt><trkpt lat="39.0806294" lon="-3.062759"><ele>685.0</ele><time>2026-04-19T10:48:46.623Z</time></trkpt><trkpt lat="39.0807306" lon="-3.0628"><ele>685.0</ele><time>2026-04-19T10:48:47.626Z</time></trkpt><trkpt lat="39.0808377" lon="-3.0628478"><ele>685.0</ele><time>2026-04-19T10:48:48.629Z</time></trkpt><trkpt lat="39.0809546" lon="-3.0628915"><ele>685.0</ele><time>2026-04-19T10:48:49.622Z</time></trkpt><trkpt lat="39.0810822" lon="-3.0629395"><ele>685.0</ele><time>2026-04-19T10:48:50.625Z</time></trkpt><trkpt lat="39.0812171" lon="-3.0629961"><ele>685.0</ele><time>2026-04-19T10:48:51.622Z</time></trkpt><trkpt lat="39.0813543" lon="-3.0630544"><ele>685.0</ele><time>2026-04-19T10:48:52.618Z</time></trkpt><trkpt lat="39.0814907" lon="-3.0631083"><ele>685.0</ele><time>2026-04-19T10:48:53.628Z</time></trkpt><trkpt lat="39.0816224" lon="-3.0631555"><ele>685.0</ele><time>2026-04-19T10:48:54.62Z</time></trkpt><trkpt lat="39.0817467" lon="-3.0631973"><ele>684.75</ele><time>2026-04-19T10:48:55.624Z</time></trkpt><trkpt lat="39.0818641" lon="-3.06324"><ele>684.5</ele><time>2026-04-19T10:48:56.618Z</time></trkpt><trkpt lat="39.0819845" lon="-3.0632926"><ele>684.25</ele><time>2026-04-19T10:48:57.618Z</time></trkpt><trkpt lat="39.0821108" lon="-3.0633494"><ele>684.0</ele><time>2026-04-19T10:48:58.615Z</time></trkpt><trkpt lat="39.0822307" lon="-3.063409"><ele>684.0</ele><time>2026-04-19T10:48:59.622Z</time></trkpt><trkpt lat="39.0823429" lon="-3.0634668"><ele>684.0</ele><time>2026-04-19T10:49:00.618Z</time></trkpt><trkpt lat="39.0824479" lon="-3.0635191"><ele>684.0</ele><time>2026-04-19T10:49:01.63Z</time></trkpt><trkpt lat="39.0825473" lon="-3.0635686"><ele>684.0</ele><time>2026-04-19T10:49:02.613Z</time></trkpt><trkpt lat="39.0826498" lon="-3.0636196"><ele>683.75</ele><time>2026-04-19T10:49:03.628Z</time></trkpt><trkpt lat="39.0827678" lon="-3.063688"><ele>683.5</ele><time>2026-04-19T10:49:04.613Z</time></trkpt><trkpt lat="39.0828977" lon="-3.0637574"><ele>683.25</ele><time>2026-04-19T10:49:05.622Z</time></trkpt><trkpt lat="39.0830255" lon="-3.0638318"><ele>683.0</ele><time>2026-04-19T10:49:06.62Z</time></trkpt><trkpt lat="39.0831678" lon="-3.0639058"><ele>683.3333333333333</ele><time>2026-04-19T10:49:07.618Z</time></trkpt><trkpt lat="39.0833097" lon="-3.0639745"><ele>683.6666666666666</ele><time>2026-04-19T10:49:08.615Z</time></trkpt><trkpt lat="39.0834641" lon="-3.0640652"><ele>684.0</ele><time>2026-04-19T10:49:09.62Z</time></trkpt><trkpt lat="39.0836313" lon="-3.0641658"><ele>684.0</ele><time>2026-04-19T10:49:10.622Z</time></trkpt><trkpt lat="39.0837777" lon="-3.0642629"><ele>684.0</ele><time>2026-04-19T10:49:11.622Z</time></trkpt><trkpt lat="39.0839131" lon="-3.0643536"><ele>684.0</ele><time>2026-04-19T10:49:12.621Z</time></trkpt><trkpt lat="39.0840555" lon="-3.0644345"><ele>684.0</ele><time>2026-04-19T10:49:13.626Z</time></trkpt><trkpt lat="39.0842059" lon="-3.0645134"><ele>684.0</ele><time>2026-04-19T10:49:14.622Z</time></trkpt><trkpt lat="39.0843472" lon="-3.064592"><ele>684.0</ele><time>2026-04-19T10:49:15.626Z</time></trkpt><trkpt lat="39.0844796" lon="-3.064672"><ele>684.0</ele><time>2026-04-19T10:49:16.624Z</time></trkpt><trkpt lat="39.0846065" lon="-3.0647492"><ele>684.0</ele><time>2026-04-19T10:49:17.629Z</time></trkpt><trkpt lat="39.0847402" lon="-3.0648354"><ele>684.0</ele><time>2026-04-19T10:49:18.626Z</time></trkpt><trkpt lat="39.0848894" lon="-3.0649251"><ele>684.0</ele><time>2026-04-19T10:49:19.627Z</time></trkpt><trkpt lat="39.0850225" lon="-3.0650064"><ele>684.0</ele><time>2026-04-19T10:49:20.623Z</time></trkpt><trkpt lat="39.0851497" lon="-3.0650772"><ele>684.0</ele><time>2026-04-19T10:49:21.621Z</time></trkpt><trkpt lat="39.0852698" lon="-3.0651479"><ele>684.0</ele><time>2026-04-19T10:49:22.62Z</time></trkpt><trkpt lat="39.0853764" lon="-3.0652117"><ele>684.0</ele><time>2026-04-19T10:49:23.625Z</time></trkpt><trkpt lat="39.0854755" lon="-3.0652729"><ele>684.0</ele><time>2026-04-19T10:49:24.619Z</time></trkpt><trkpt lat="39.0855667" lon="-3.0653295"><ele>684.0</ele><time>2026-04-19T10:49:25.627Z</time></trkpt><trkpt lat="39.0856436" lon="-3.0653741"><ele>684.0</ele><time>2026-04-19T10:49:26.631Z</time></trkpt><trkpt lat="39.085704" lon="-3.0654112"><ele>684.0</ele><time>2026-04-19T10:49:27.625Z</time></trkpt><trkpt lat="39.0857964" lon="-3.0654771"><ele>684.0</ele><time>2026-04-19T10:49:29.622Z</time></trkpt><trkpt lat="39.0859092" lon="-3.0655534"><ele>684.0</ele><time>2026-04-19T10:49:31.621Z</time></trkpt><trkpt lat="39.085981" lon="-3.0655849"><ele>684.0</ele><time>2026-04-19T10:49:32.616Z</time></trkpt><trkpt lat="39.0860594" lon="-3.065613"><ele>684.0</ele><time>2026-04-19T10:49:33.618Z</time></trkpt><trkpt lat="39.0861435" lon="-3.0656466"><ele>684.0</ele><time>2026-04-19T10:49:34.623Z</time></trkpt><trkpt lat="39.0862315" lon="-3.0656896"><ele>684.0</ele><time>2026-04-19T10:49:35.628Z</time></trkpt><trkpt lat="39.0863215" lon="-3.065736"><ele>684.0</ele><time>2026-04-19T10:49:36.631Z</time></trkpt><trkpt lat="39.0864274" lon="-3.0657879"><ele>684.0</ele><time>2026-04-19T10:49:37.629Z</time></trkpt><trkpt lat="39.0865472" lon="-3.0658423"><ele>684.0</ele><time>2026-04-19T10:49:38.624Z</time></trkpt><trkpt lat="39.0866767" lon="-3.0658977"><ele>684.0</ele><time>2026-04-19T10:49:39.623Z</time></trkpt><trkpt lat="39.0868191" lon="-3.0659538"><ele>684.0</ele><time>2026-04-19T10:49:40.62Z</time></trkpt><trkpt lat="39.0869681" lon="-3.0660084"><ele>684.0</ele><time>2026-04-19T10:49:41.627Z</time></trkpt><trkpt lat="39.0871393" lon="-3.0660639"><ele>684.0</ele><time>2026-04-19T10:49:42.619Z</time></trkpt><trkpt lat="39.0873323" lon="-3.0661183"><ele>684.0</ele><time>2026-04-19T10:49:43.621Z</time></trkpt><trkpt lat="39.0875364" lon="-3.0661809"><ele>684.0</ele><time>2026-04-19T10:49:44.627Z</time></trkpt><trkpt lat="39.0877608" lon="-3.0662523"><ele>684.0</ele><time>2026-04-19T10:49:45.624Z</time></trkpt><trkpt lat="39.0879917" lon="-3.0663203"><ele>684.0</ele><time>2026-04-19T10:49:46.62Z</time></trkpt><trkpt lat="39.088208" lon="-3.0663832"><ele>684.0</ele><time>2026-04-19T10:49:47.618Z</time></trkpt><trkpt lat="39.0884129" lon="-3.0664454"><ele>684.0</ele><time>2026-04-19T10:49:48.632Z</time></trkpt><trkpt lat="39.0886114" lon="-3.0665069"><ele>684.0</ele><time>2026-04-19T10:49:49.627Z</time></trkpt><trkpt lat="39.0887878" lon="-3.0665629"><ele>683.6666666666666</ele><time>2026-04-19T10:49:50.642Z</time></trkpt><trkpt lat="39.0889623" lon="-3.0666117"><ele>683.3333333333333</ele><time>2026-04-19T10:49:51.632Z</time></trkpt><trkpt lat="39.0891316" lon="-3.0666618"><ele>683.0</ele><time>2026-04-19T10:49:52.624Z</time></trkpt><trkpt lat="39.089285" lon="-3.0667126"><ele>682.3333333333333</ele><time>2026-04-19T10:49:53.629Z</time></trkpt><trkpt lat="39.0894465" lon="-3.0667744"><ele>681.6666666666666</ele><time>2026-04-19T10:49:54.631Z</time></trkpt><trkpt lat="39.0896151" lon="-3.0668576"><ele>681.0</ele><time>2026-04-19T10:49:55.625Z</time></trkpt><trkpt lat="39.0897855" lon="-3.0669401"><ele>681.3333333333334</ele><time>2026-04-19T10:49:56.629Z</time></trkpt><trkpt lat="39.0899548" lon="-3.0670321"><ele>681.6666666666667</ele><time>2026-04-19T10:49:57.624Z</time></trkpt><trkpt lat="39.0901069" lon="-3.0671231"><ele>682.0</ele><time>2026-04-19T10:49:58.623Z</time></trkpt><trkpt lat="39.0902494" lon="-3.0672183"><ele>682.0</ele><time>2026-04-19T10:49:59.63Z</time></trkpt><trkpt lat="39.0903941" lon="-3.0673208"><ele>682.0</ele><time>2026-04-19T10:50:00.628Z</time></trkpt><trkpt lat="39.0905354" lon="-3.0674352"><ele>682.0</ele><time>2026-04-19T10:50:01.624Z</time></trkpt><trkpt lat="39.0906844" lon="-3.0675663"><ele>682.6666666666667</ele><time>2026-04-19T10:50:02.624Z</time></trkpt><trkpt lat="39.0908374" lon="-3.0677037"><ele>683.3333333333334</ele><time>2026-04-19T10:50:03.63Z</time></trkpt><trkpt lat="39.090992" lon="-3.0678435"><ele>684.0</ele><time>2026-04-19T10:50:04.617Z</time></trkpt><trkpt lat="39.0911494" lon="-3.0679904"><ele>684.0</ele><time>2026-04-19T10:50:05.621Z</time></trkpt><trkpt lat="39.0913043" lon="-3.0681371"><ele>684.0</ele><time>2026-04-19T10:50:06.622Z</time></trkpt><trkpt lat="39.0914457" lon="-3.0682727"><ele>684.0</ele><time>2026-04-19T10:50:07.622Z</time></trkpt><trkpt lat="39.0915887" lon="-3.0684062"><ele>683.6666666666666</ele><time>2026-04-19T10:50:08.621Z</time></trkpt><trkpt lat="39.0917299" lon="-3.0685329"><ele>683.3333333333333</ele><time>2026-04-19T10:50:09.623Z</time></trkpt><trkpt lat="39.0918704" lon="-3.0686604"><ele>683.0</ele><time>2026-04-19T10:50:10.652Z</time></trkpt><trkpt lat="39.0920198" lon="-3.0687847"><ele>683.0</ele><time>2026-04-19T10:50:11.63Z</time></trkpt><trkpt lat="39.0921805" lon="-3.0689059"><ele>683.0</ele><time>2026-04-19T10:50:12.625Z</time></trkpt><trkpt lat="39.09235" lon="-3.0690233"><ele>683.0</ele><time>2026-04-19T10:50:13.624Z</time></trkpt><trkpt lat="39.0925195" lon="-3.0691319"><ele>682.6666666666666</ele><time>2026-04-19T10:50:14.624Z</time></trkpt><trkpt lat="39.0926817" lon="-3.069229"><ele>682.3333333333334</ele><time>2026-04-19T10:50:15.625Z</time></trkpt><trkpt lat="39.0928341" lon="-3.0693193"><ele>682.0</ele><time>2026-04-19T10:50:16.623Z</time></trkpt><trkpt lat="39.0929757" lon="-3.0694043"><ele>682.0</ele><time>2026-04-19T10:50:17.624Z</time></trkpt><trkpt lat="39.0931201" lon="-3.0694855"><ele>682.0</ele><time>2026-04-19T10:50:18.625Z</time></trkpt><trkpt lat="39.0932743" lon="-3.0695654"><ele>682.0</ele><time>2026-04-19T10:50:19.624Z</time></trkpt><trkpt lat="39.0934252" lon="-3.0696296"><ele>682.0</ele><time>2026-04-19T10:50:20.625Z</time></trkpt><trkpt lat="39.0935847" lon="-3.0696905"><ele>682.0</ele><time>2026-04-19T10:50:21.624Z</time></trkpt><trkpt lat="39.0937363" lon="-3.0697479"><ele>682.0</ele><time>2026-04-19T10:50:22.619Z</time></trkpt><trkpt lat="39.0938824" lon="-3.0698063"><ele>682.0</ele><time>2026-04-19T10:50:23.621Z</time></trkpt><trkpt lat="39.0940194" lon="-3.0698619"><ele>682.0</ele><time>2026-04-19T10:50:24.622Z</time></trkpt><trkpt lat="39.0941527" lon="-3.0699168"><ele>682.0</ele><time>2026-04-19T10:50:25.623Z</time></trkpt><trkpt lat="39.0942921" lon="-3.0699694"><ele>682.0</ele><time>2026-04-19T10:50:26.621Z</time></trkpt><trkpt lat="39.0944276" lon="-3.0700241"><ele>682.0</ele><time>2026-04-19T10:50:27.616Z</time></trkpt><trkpt lat="39.0945703" lon="-3.0700822"><ele>682.0</ele><time>2026-04-19T10:50:28.621Z</time></trkpt><trkpt lat="39.0947133" lon="-3.0701352"><ele>682.0</ele><time>2026-04-19T10:50:29.618Z</time></trkpt><trkpt lat="39.0948653" lon="-3.0701899"><ele>681.6666666666667</ele><time>2026-04-19T10:50:30.615Z</time></trkpt><trkpt lat="39.0950259" lon="-3.0702516"><ele>681.3333333333334</ele><time>2026-04-19T10:50:31.625Z</time></trkpt><trkpt lat="39.0951812" lon="-3.0703113"><ele>681.0</ele><time>2026-04-19T10:50:32.625Z</time></trkpt><trkpt lat="39.0953261" lon="-3.0703627"><ele>681.0</ele><time>2026-04-19T10:50:33.627Z</time></trkpt><trkpt lat="39.0954747" lon="-3.0704175"><ele>681.0</ele><time>2026-04-19T10:50:34.626Z</time></trkpt><trkpt lat="39.0956211" lon="-3.0704726"><ele>681.0</ele><time>2026-04-19T10:50:35.622Z</time></trkpt><trkpt lat="39.0957636" lon="-3.070524"><ele>681.0</ele><time>2026-04-19T10:50:36.622Z</time></trkpt><trkpt lat="39.0959068" lon="-3.070577"><ele>681.0</ele><time>2026-04-19T10:50:37.627Z</time></trkpt><trkpt lat="39.0960509" lon="-3.0706329"><ele>681.0</ele><time>2026-04-19T10:50:38.621Z</time></trkpt><trkpt lat="39.0962011" lon="-3.0706871"><ele>681.0</ele><time>2026-04-19T10:50:39.619Z</time></trkpt><trkpt lat="39.0963597" lon="-3.0707452"><ele>681.0</ele><time>2026-04-19T10:50:40.624Z</time></trkpt><trkpt lat="39.0965166" lon="-3.0708"><ele>681.0</ele><time>2026-04-19T10:50:41.624Z</time></trkpt><trkpt lat="39.0966827" lon="-3.0708642"><ele>681.3333333333334</ele><time>2026-04-19T10:50:42.627Z</time></trkpt><trkpt lat="39.0968635" lon="-3.0709342"><ele>681.6666666666667</ele><time>2026-04-19T10:50:43.626Z</time></trkpt><trkpt lat="39.097049" lon="-3.0710097"><ele>682.0</ele><time>2026-04-19T10:50:44.623Z</time></trkpt><trkpt lat="39.097232" lon="-3.0710809"><ele>682.0</ele><time>2026-04-19T10:50:45.625Z</time></trkpt><trkpt lat="39.097405" lon="-3.0711481"><ele>682.0</ele><time>2026-04-19T10:50:46.626Z</time></trkpt><trkpt lat="39.097577" lon="-3.0712161"><ele>682.0</ele><time>2026-04-19T10:50:47.62Z</time></trkpt><trkpt lat="39.0977497" lon="-3.0712857"><ele>681.6666666666667</ele><time>2026-04-19T10:50:48.622Z</time></trkpt><trkpt lat="39.0979143" lon="-3.0713467"><ele>681.3333333333334</ele><time>2026-04-19T10:50:49.621Z</time></trkpt><trkpt lat="39.0980576" lon="-3.0714097"><ele>681.0</ele><time>2026-04-19T10:50:50.64Z</time></trkpt><trkpt lat="39.0981962" lon="-3.0714734"><ele>681.0</ele><time>2026-04-19T10:50:51.625Z</time></trkpt><trkpt lat="39.0983368" lon="-3.0715359"><ele>681.0</ele><time>2026-04-19T10:50:52.62Z</time></trkpt><trkpt lat="39.0984941" lon="-3.0715876"><ele>681.0</ele><time>2026-04-19T10:50:53.624Z</time></trkpt><trkpt lat="39.0986478" lon="-3.071633"><ele>681.0</ele><time>2026-04-19T10:50:54.629Z</time></trkpt><trkpt lat="39.0988085" lon="-3.0716836"><ele>681.0</ele><time>2026-04-19T10:50:55.623Z</time></trkpt><trkpt lat="39.0989883" lon="-3.0717496"><ele>681.0</ele><time>2026-04-19T10:50:56.624Z</time></trkpt><trkpt lat="39.0991696" lon="-3.0718169"><ele>680.6666666666666</ele><time>2026-04-19T10:50:57.622Z</time></trkpt><trkpt lat="39.0993353" lon="-3.0718809"><ele>680.3333333333333</ele><time>2026-04-19T10:50:58.622Z</time></trkpt><trkpt lat="39.0994907" lon="-3.0719452"><ele>680.0</ele><time>2026-04-19T10:50:59.621Z</time></trkpt><trkpt lat="39.0996403" lon="-3.0720028"><ele>680.0</ele><time>2026-04-19T10:51:00.622Z</time></trkpt><trkpt lat="39.0997891" lon="-3.0720626"><ele>680.0</ele><time>2026-04-19T10:51:01.626Z</time></trkpt><trkpt lat="39.0999349" lon="-3.0721268"><ele>680.0</ele><time>2026-04-19T10:51:02.623Z</time></trkpt><trkpt lat="39.1000861" lon="-3.0721848"><ele>679.6666666666666</ele><time>2026-04-19T10:51:03.625Z</time></trkpt><trkpt lat="39.1002515" lon="-3.0722489"><ele>679.3333333333334</ele><time>2026-04-19T10:51:04.622Z</time></trkpt><trkpt lat="39.1004208" lon="-3.0723051"><ele>679.0</ele><time>2026-04-19T10:51:05.624Z</time></trkpt><trkpt lat="39.100591" lon="-3.0723733"><ele>678.6666666666667</ele><time>2026-04-19T10:51:06.621Z</time></trkpt><trkpt lat="39.1007821" lon="-3.0724469"><ele>678.3333333333334</ele><time>2026-04-19T10:51:07.621Z</time></trkpt><trkpt lat="39.1009624" lon="-3.0725142"><ele>678.0</ele><time>2026-04-19T10:51:08.618Z</time></trkpt><trkpt lat="39.1011329" lon="-3.0725778"><ele>678.0</ele><time>2026-04-19T10:51:09.623Z</time></trkpt><trkpt lat="39.1012945" lon="-3.0726393"><ele>678.0</ele><time>2026-04-19T10:51:10.62Z</time></trkpt><trkpt lat="39.1014479" lon="-3.0727012"><ele>678.0</ele><time>2026-04-19T10:51:11.614Z</time></trkpt><trkpt lat="39.1016001" lon="-3.07277"><ele>678.3333333333334</ele><time>2026-04-19T10:51:12.615Z</time></trkpt><trkpt lat="39.1017502" lon="-3.07283"><ele>678.6666666666667</ele><time>2026-04-19T10:51:13.627Z</time></trkpt><trkpt lat="39.1019046" lon="-3.0728908"><ele>679.0</ele><time>2026-04-19T10:51:14.624Z</time></trkpt><trkpt lat="39.1020729" lon="-3.0729529"><ele>679.0</ele><time>2026-04-19T10:51:15.62Z</time></trkpt><trkpt lat="39.1022595" lon="-3.0730141"><ele>679.0</ele><time>2026-04-19T10:51:16.624Z</time></trkpt><trkpt lat="39.1024554" lon="-3.0730845"><ele>679.0</ele><time>2026-04-19T10:51:17.622Z</time></trkpt><trkpt lat="39.1026543" lon="-3.0731559"><ele>679.0</ele><time>2026-04-19T10:51:18.627Z</time></trkpt><trkpt lat="39.1028485" lon="-3.0732302"><ele>679.0</ele><time>2026-04-19T10:51:19.623Z</time></trkpt><trkpt lat="39.1030282" lon="-3.0732866"><ele>679.0</ele><time>2026-04-19T10:51:20.624Z</time></trkpt><trkpt lat="39.1032087" lon="-3.0733592"><ele>679.0</ele><time>2026-04-19T10:51:21.619Z</time></trkpt><trkpt lat="39.1033869" lon="-3.0734296"><ele>679.0</ele><time>2026-04-19T10:51:22.634Z</time></trkpt><trkpt lat="39.1035694" lon="-3.0735036"><ele>679.0</ele><time>2026-04-19T10:51:23.628Z</time></trkpt><trkpt lat="39.103758" lon="-3.0735788"><ele>679.0</ele><time>2026-04-19T10:51:24.618Z</time></trkpt><trkpt lat="39.1039462" lon="-3.0736542"><ele>679.0</ele><time>2026-04-19T10:51:25.624Z</time></trkpt><trkpt lat="39.1041236" lon="-3.0737248"><ele>679.0</ele><time>2026-04-19T10:51:26.622Z</time></trkpt><trkpt lat="39.1043107" lon="-3.0738067"><ele>679.0</ele><time>2026-04-19T10:51:27.62Z</time></trkpt><trkpt lat="39.1045126" lon="-3.0739083"><ele>679.0</ele><time>2026-04-19T10:51:28.625Z</time></trkpt><trkpt lat="39.1047267" lon="-3.0740134"><ele>679.0</ele><time>2026-04-19T10:51:29.626Z</time></trkpt><trkpt lat="39.1049263" lon="-3.0741139"><ele>679.0</ele><time>2026-04-19T10:51:30.621Z</time></trkpt><trkpt lat="39.105113" lon="-3.074212"><ele>679.0</ele><time>2026-04-19T10:51:31.623Z</time></trkpt><trkpt lat="39.105296" lon="-3.0743108"><ele>679.0</ele><time>2026-04-19T10:51:32.62Z</time></trkpt><trkpt lat="39.1054813" lon="-3.0744018"><ele>679.0</ele><time>2026-04-19T10:51:33.627Z</time></trkpt><trkpt lat="39.1056596" lon="-3.0744982"><ele>679.0</ele><time>2026-04-19T10:51:34.629Z</time></trkpt><trkpt lat="39.105821" lon="-3.0746016"><ele>679.0</ele><time>2026-04-19T10:51:35.629Z</time></trkpt><trkpt lat="39.1059627" lon="-3.0746903"><ele>678.75</ele><time>2026-04-19T10:51:36.628Z</time></trkpt><trkpt lat="39.1060864" lon="-3.0747781"><ele>678.5</ele><time>2026-04-19T10:51:37.628Z</time></trkpt><trkpt lat="39.1062032" lon="-3.074869"><ele>678.25</ele><time>2026-04-19T10:51:38.626Z</time></trkpt><trkpt lat="39.1063267" lon="-3.0749656"><ele>678.0</ele><time>2026-04-19T10:51:39.612Z</time></trkpt><trkpt lat="39.1064692" lon="-3.0750591"><ele>678.0</ele><time>2026-04-19T10:51:40.62Z</time></trkpt><trkpt lat="39.1066268" lon="-3.0751645"><ele>678.0</ele><time>2026-04-19T10:51:41.623Z</time></trkpt><trkpt lat="39.1067768" lon="-3.075273"><ele>678.0</ele><time>2026-04-19T10:51:42.617Z</time></trkpt><trkpt lat="39.1069133" lon="-3.0753756"><ele>678.0</ele><time>2026-04-19T10:51:43.623Z</time></trkpt><trkpt lat="39.1070409" lon="-3.0754774"><ele>678.0</ele><time>2026-04-19T10:51:44.621Z</time></trkpt><trkpt lat="39.107173" lon="-3.0755873"><ele>678.0</ele><time>2026-04-19T10:51:45.623Z</time></trkpt><trkpt lat="39.1073145" lon="-3.0757064"><ele>678.3333333333334</ele><time>2026-04-19T10:51:46.613Z</time></trkpt><trkpt lat="39.1074642" lon="-3.0758376"><ele>678.6666666666667</ele><time>2026-04-19T10:51:47.622Z</time></trkpt><trkpt lat="39.1076204" lon="-3.0759804"><ele>679.0</ele><time>2026-04-19T10:51:48.622Z</time></trkpt><trkpt lat="39.1077696" lon="-3.0761177"><ele>679.0</ele><time>2026-04-19T10:51:49.618Z</time></trkpt><trkpt lat="39.1079195" lon="-3.0762524"><ele>679.0</ele><time>2026-04-19T10:51:50.623Z</time></trkpt><trkpt lat="39.1080709" lon="-3.0763941"><ele>679.0</ele><time>2026-04-19T10:51:51.629Z</time></trkpt><trkpt lat="39.1082135" lon="-3.0765315"><ele>678.3333333333334</ele><time>2026-04-19T10:51:52.619Z</time></trkpt><trkpt lat="39.1083473" lon="-3.0766637"><ele>677.6666666666666</ele><time>2026-04-19T10:51:53.622Z</time></trkpt><trkpt lat="39.1084831" lon="-3.076793"><ele>677.0</ele><time>2026-04-19T10:51:54.624Z</time></trkpt><trkpt lat="39.1086195" lon="-3.0769173"><ele>677.0</ele><time>2026-04-19T10:51:55.62Z</time></trkpt><trkpt lat="39.1087518" lon="-3.0770423"><ele>677.0</ele><time>2026-04-19T10:51:56.62Z</time></trkpt><trkpt lat="39.1088833" lon="-3.0771659"><ele>677.0</ele><time>2026-04-19T10:51:57.62Z</time></trkpt><trkpt lat="39.1090128" lon="-3.077286"><ele>677.25</ele><time>2026-04-19T10:51:58.622Z</time></trkpt><trkpt lat="39.1091266" lon="-3.0773965"><ele>677.5</ele><time>2026-04-19T10:51:59.628Z</time></trkpt><trkpt lat="39.1092255" lon="-3.0774948"><ele>677.75</ele><time>2026-04-19T10:52:00.624Z</time></trkpt><trkpt lat="39.1093141" lon="-3.0775813"><ele>678.0</ele><time>2026-04-19T10:52:01.625Z</time></trkpt><trkpt lat="39.109396" lon="-3.0776602"><ele>678.0</ele><time>2026-04-19T10:52:02.617Z</time></trkpt><trkpt lat="39.1094747" lon="-3.077735"><ele>678.0</ele><time>2026-04-19T10:52:03.622Z</time></trkpt><trkpt lat="39.1095479" lon="-3.0778033"><ele>678.0</ele><time>2026-04-19T10:52:04.623Z</time></trkpt><trkpt lat="39.1096163" lon="-3.077868"><ele>678.0</ele><time>2026-04-19T10:52:05.617Z</time></trkpt><trkpt lat="39.1096761" lon="-3.0779301"><ele>678.0</ele><time>2026-04-19T10:52:06.628Z</time></trkpt><trkpt lat="39.1097233" lon="-3.0779905"><ele>678.0</ele><time>2026-04-19T10:52:07.627Z</time></trkpt><trkpt lat="39.1097979" lon="-3.0780949"><ele>678.0</ele><time>2026-04-19T10:52:09.632Z</time></trkpt><trkpt lat="39.1098405" lon="-3.0781595"><ele>678.0</ele><time>2026-04-19T10:52:11.624Z</time></trkpt><trkpt lat="39.1099065" lon="-3.0782267"><ele>678.0</ele><time>2026-04-19T10:52:39.639Z</time></trkpt><trkpt lat="39.1100205" lon="-3.0783049"><ele>678.0</ele><time>2026-04-19T10:52:41.625Z</time></trkpt><trkpt lat="39.1101051" lon="-3.0783519"><ele>678.0</ele><time>2026-04-19T10:52:42.627Z</time></trkpt><trkpt lat="39.1101907" lon="-3.0784105"><ele>677.5</ele><time>2026-04-19T10:52:43.624Z</time></trkpt><trkpt lat="39.1102768" lon="-3.0784789"><ele>677.0</ele><time>2026-04-19T10:52:44.623Z</time></trkpt><trkpt lat="39.1103723" lon="-3.0785603"><ele>676.5</ele><time>2026-04-19T10:52:45.623Z</time></trkpt><trkpt lat="39.110473" lon="-3.0786522"><ele>676.0</ele><time>2026-04-19T10:52:46.632Z</time></trkpt><trkpt lat="39.1105841" lon="-3.0787602"><ele>676.0</ele><time>2026-04-19T10:52:47.636Z</time></trkpt><trkpt lat="39.110705" lon="-3.0788802"><ele>676.0</ele><time>2026-04-19T10:52:48.628Z</time></trkpt><trkpt lat="39.110836" lon="-3.078988"><ele>676.0</ele><time>2026-04-19T10:52:49.63Z</time></trkpt><trkpt lat="39.1109696" lon="-3.0791279"><ele>676.0</ele><time>2026-04-19T10:52:50.636Z</time></trkpt><trkpt lat="39.1111126" lon="-3.0792717"><ele>676.0</ele><time>2026-04-19T10:52:51.629Z</time></trkpt><trkpt lat="39.1112732" lon="-3.0794348"><ele>676.0</ele><time>2026-04-19T10:52:52.625Z</time></trkpt><trkpt lat="39.1114339" lon="-3.0795875"><ele>676.3333333333334</ele><time>2026-04-19T10:52:53.626Z</time></trkpt><trkpt lat="39.111593" lon="-3.0797428"><ele>676.6666666666666</ele><time>2026-04-19T10:52:54.631Z</time></trkpt><trkpt lat="39.1117478" lon="-3.0798902"><ele>677.0</ele><time>2026-04-19T10:52:55.631Z</time></trkpt><trkpt lat="39.1119045" lon="-3.0800331"><ele>677.0</ele><time>2026-04-19T10:52:56.626Z</time></trkpt><trkpt lat="39.1120645" lon="-3.0801747"><ele>677.0</ele><time>2026-04-19T10:52:57.623Z</time></trkpt><trkpt lat="39.1122229" lon="-3.0803126"><ele>677.0</ele><time>2026-04-19T10:52:58.618Z</time></trkpt><trkpt lat="39.112383" lon="-3.0804521"><ele>676.3333333333333</ele><time>2026-04-19T10:52:59.626Z</time></trkpt><trkpt lat="39.1125406" lon="-3.080584"><ele>675.6666666666666</ele><time>2026-04-19T10:53:00.619Z</time></trkpt><trkpt lat="39.1127053" lon="-3.0807111"><ele>675.0</ele><time>2026-04-19T10:53:01.628Z</time></trkpt><trkpt lat="39.1128809" lon="-3.0808323"><ele>674.3333333333334</ele><time>2026-04-19T10:53:02.625Z</time></trkpt><trkpt lat="39.1130544" lon="-3.0809408"><ele>673.6666666666667</ele><time>2026-04-19T10:53:03.627Z</time></trkpt><trkpt lat="39.1132278" lon="-3.0810447"><ele>673.0</ele><time>2026-04-19T10:53:04.628Z</time></trkpt><trkpt lat="39.113397" lon="-3.0811501"><ele>673.0</ele><time>2026-04-19T10:53:05.622Z</time></trkpt><trkpt lat="39.1135689" lon="-3.0812483"><ele>673.0</ele><time>2026-04-19T10:53:06.633Z</time></trkpt><trkpt lat="39.113735" lon="-3.0813365"><ele>673.0</ele><time>2026-04-19T10:53:07.624Z</time></trkpt><trkpt lat="39.1138958" lon="-3.0814157"><ele>673.0</ele><time>2026-04-19T10:53:08.629Z</time></trkpt><trkpt lat="39.1140703" lon="-3.0815126"><ele>673.0</ele><time>2026-04-19T10:53:09.624Z</time></trkpt><trkpt lat="39.1142318" lon="-3.081589"><ele>673.0</ele><time>2026-04-19T10:53:10.63Z</time></trkpt><trkpt lat="39.1143906" lon="-3.0816584"><ele>673.3333333333334</ele><time>2026-04-19T10:53:11.623Z</time></trkpt><trkpt lat="39.1145525" lon="-3.0817389"><ele>673.6666666666666</ele><time>2026-04-19T10:53:12.639Z</time></trkpt><trkpt lat="39.1147137" lon="-3.0818266"><ele>674.0</ele><time>2026-04-19T10:53:13.632Z</time></trkpt><trkpt lat="39.114875" lon="-3.0819081"><ele>673.6666666666666</ele><time>2026-04-19T10:53:14.626Z</time></trkpt><trkpt lat="39.115036" lon="-3.0819857"><ele>673.3333333333334</ele><time>2026-04-19T10:53:15.633Z</time></trkpt><trkpt lat="39.1151987" lon="-3.082065"><ele>673.0</ele><time>2026-04-19T10:53:16.629Z</time></trkpt><trkpt lat="39.1153606" lon="-3.0821456"><ele>673.0</ele><time>2026-04-19T10:53:17.622Z</time></trkpt><trkpt lat="39.1155119" lon="-3.0822204"><ele>673.0</ele><time>2026-04-19T10:53:18.631Z</time></trkpt><trkpt lat="39.115657" lon="-3.0822907"><ele>673.0</ele><time>2026-04-19T10:53:19.627Z</time></trkpt><trkpt lat="39.1157961" lon="-3.0823641"><ele>673.25</ele><time>2026-04-19T10:53:20.639Z</time></trkpt><trkpt lat="39.1159353" lon="-3.0824339"><ele>673.5</ele><time>2026-04-19T10:53:21.633Z</time></trkpt><trkpt lat="39.1160741" lon="-3.082504"><ele>673.75</ele><time>2026-04-19T10:53:22.624Z</time></trkpt><trkpt lat="39.1162141" lon="-3.0825756"><ele>674.0</ele><time>2026-04-19T10:53:23.631Z</time></trkpt><trkpt lat="39.1163537" lon="-3.0826398"><ele>674.0</ele><time>2026-04-19T10:53:24.635Z</time></trkpt><trkpt lat="39.1164951" lon="-3.0826986"><ele>674.0</ele><time>2026-04-19T10:53:25.621Z</time></trkpt><trkpt lat="39.1166365" lon="-3.0827595"><ele>674.0</ele><time>2026-04-19T10:53:26.628Z</time></trkpt><trkpt lat="39.1167795" lon="-3.0828217"><ele>674.0</ele><time>2026-04-19T10:53:27.624Z</time></trkpt><trkpt lat="39.1169201" lon="-3.0828768"><ele>673.75</ele><time>2026-04-19T10:53:28.618Z</time></trkpt><trkpt lat="39.1170594" lon="-3.0829247"><ele>673.5</ele><time>2026-04-19T10:53:29.623Z</time></trkpt><trkpt lat="39.1171971" lon="-3.0829665"><ele>673.25</ele><time>2026-04-19T10:53:30.626Z</time></trkpt><trkpt lat="39.1173327" lon="-3.0830093"><ele>673.0</ele><time>2026-04-19T10:53:31.622Z</time></trkpt><trkpt lat="39.1174622" lon="-3.0830504"><ele>673.0</ele><time>2026-04-19T10:53:32.632Z</time></trkpt><trkpt lat="39.1175869" lon="-3.0830852"><ele>673.0</ele><time>2026-04-19T10:53:33.622Z</time></trkpt><trkpt lat="39.1177092" lon="-3.0831124"><ele>673.0</ele><time>2026-04-19T10:53:34.626Z</time></trkpt><trkpt lat="39.117824" lon="-3.0831465"><ele>673.0</ele><time>2026-04-19T10:53:35.626Z</time></trkpt><trkpt lat="39.1179189" lon="-3.0831745"><ele>673.0</ele><time>2026-04-19T10:53:36.626Z</time></trkpt><trkpt lat="39.1180008" lon="-3.0831948"><ele>673.0</ele><time>2026-04-19T10:53:37.633Z</time></trkpt><trkpt lat="39.1180669" lon="-3.0832178"><ele>673.0</ele><time>2026-04-19T10:53:38.632Z</time></trkpt><trkpt lat="39.1181714" lon="-3.0832454"><ele>673.0</ele><time>2026-04-19T10:53:40.624Z</time></trkpt><trkpt lat="39.1182993" lon="-3.0832296"><ele>673.0</ele><time>2026-04-19T10:53:45.636Z</time></trkpt><trkpt lat="39.1183676" lon="-3.0832102"><ele>673.0</ele><time>2026-04-19T10:53:47.631Z</time></trkpt><trkpt lat="39.118461" lon="-3.0832193"><ele>673.0</ele><time>2026-04-19T10:53:49.632Z</time></trkpt><trkpt lat="39.1185593" lon="-3.0832505"><ele>673.0</ele><time>2026-04-19T10:53:51.626Z</time></trkpt><trkpt lat="39.1186229" lon="-3.0832626"><ele>673.0</ele><time>2026-04-19T10:53:53.627Z</time></trkpt><trkpt lat="39.1186859" lon="-3.0832729"><ele>673.0</ele><time>2026-04-19T10:53:55.627Z</time></trkpt><trkpt lat="39.1187735" lon="-3.0832685"><ele>673.0</ele><time>2026-04-19T10:53:58.623Z</time></trkpt><trkpt lat="39.1188296" lon="-3.0832132"><ele>673.0</ele><time>2026-04-19T10:54:00.623Z</time></trkpt><trkpt lat="39.1189069" lon="-3.0831405"><ele>673.0</ele><time>2026-04-19T10:54:02.629Z</time></trkpt><trkpt lat="39.1189709" lon="-3.0831425"><ele>673.0</ele><time>2026-04-19T10:54:04.633Z</time></trkpt><trkpt lat="39.1190442" lon="-3.0831694"><ele>673.0</ele><time>2026-04-19T10:54:06.626Z</time></trkpt><trkpt lat="39.1191069" lon="-3.0831861"><ele>673.0</ele><time>2026-04-19T10:54:08.633Z</time></trkpt><trkpt lat="39.1192801" lon="-3.0832184"><ele>673.0</ele><time>2026-04-19T10:54:16.631Z</time></trkpt><trkpt lat="39.1193543" lon="-3.0832095"><ele>673.0</ele><time>2026-04-19T10:54:18.628Z</time></trkpt><trkpt lat="39.1194342" lon="-3.0832023"><ele>673.0</ele><time>2026-04-19T10:54:27.626Z</time></trkpt><trkpt lat="39.1194836" lon="-3.0831248"><ele>673.0</ele><time>2026-04-19T10:54:30.628Z</time></trkpt><trkpt lat="39.1195116" lon="-3.0830088"><ele>673.0</ele><time>2026-04-19T10:54:32.63Z</time></trkpt><trkpt lat="39.1195437" lon="-3.0828927"><ele>673.0</ele><time>2026-04-19T10:54:34.627Z</time></trkpt><trkpt lat="39.1195914" lon="-3.0828229"><ele>673.0</ele><time>2026-04-19T10:54:36.633Z</time></trkpt><trkpt lat="39.1196381" lon="-3.0829057"><ele>673.0</ele><time>2026-04-19T10:54:39.628Z</time></trkpt><trkpt lat="39.1196085" lon="-3.0830362"><ele>673.0</ele><time>2026-04-19T10:54:41.622Z</time></trkpt><trkpt lat="39.1196284" lon="-3.0831453"><ele>673.0</ele><time>2026-04-19T10:54:43.619Z</time></trkpt><trkpt lat="39.1197649" lon="-3.0831951"><ele>673.0</ele><time>2026-04-19T10:55:06.615Z</time></trkpt><trkpt lat="39.1198525" lon="-3.0832018"><ele>673.4</ele><time>2026-04-19T10:55:08.626Z</time></trkpt><trkpt lat="39.119941" lon="-3.0832331"><ele>673.8</ele><time>2026-04-19T10:55:10.616Z</time></trkpt><trkpt lat="39.1200284" lon="-3.083289"><ele>674.2</ele><time>2026-04-19T10:55:12.626Z</time></trkpt><trkpt lat="39.1201743" lon="-3.0831967"><ele>674.6</ele><time>2026-04-19T10:55:16.636Z</time></trkpt><trkpt lat="39.1201862" lon="-3.083106"><ele>675.0</ele><time>2026-04-19T10:55:17.628Z</time></trkpt><trkpt lat="39.1202126" lon="-3.0829912"><ele>675.4</ele><time>2026-04-19T10:55:18.628Z</time></trkpt><trkpt lat="39.1202289" lon="-3.0828795"><ele>675.8</ele><time>2026-04-19T10:55:19.624Z</time></trkpt><trkpt lat="39.1202471" lon="-3.0827779"><ele>676.2</ele><time>2026-04-19T10:55:20.625Z</time></trkpt><trkpt lat="39.1202644" lon="-3.0826994"><ele>676.6</ele><time>2026-04-19T10:55:21.627Z</time></trkpt><trkpt lat="39.1203071" lon="-3.0827881"><ele>677.0</ele><time>2026-04-19T10:55:27.636Z</time></trkpt><trkpt lat="39.1202689" lon="-3.0829683"><ele>677.0</ele><time>2026-04-19T10:55:29.633Z</time></trkpt><trkpt lat="39.1202446" lon="-3.0830799"><ele>677.0</ele><time>2026-04-19T10:55:30.62Z</time></trkpt><trkpt lat="39.1202259" lon="-3.0831836"><ele>677.0</ele><time>2026-04-19T10:55:31.623Z</time></trkpt><trkpt lat="39.1202134" lon="-3.0832783"><ele>677.0</ele><time>2026-04-19T10:55:32.636Z</time></trkpt><trkpt lat="39.1202187" lon="-3.0833604"><ele>677.0</ele><time>2026-04-19T10:55:33.628Z</time></trkpt><trkpt lat="39.1202834" lon="-3.0834628"><ele>677.0</ele><time>2026-04-19T10:55:35.624Z</time></trkpt><trkpt lat="39.1204172" lon="-3.0835006"><ele>676.5</ele><time>2026-04-19T10:55:37.629Z</time></trkpt><trkpt lat="39.1205104" lon="-3.0835211"><ele>676.0</ele><time>2026-04-19T10:55:38.62Z</time></trkpt><trkpt lat="39.1206269" lon="-3.083547"><ele>675.5</ele><time>2026-04-19T10:55:39.63Z</time></trkpt><trkpt lat="39.1207687" lon="-3.0835715"><ele>675.0</ele><time>2026-04-19T10:55:40.634Z</time></trkpt><trkpt lat="39.1209204" lon="-3.0835989"><ele>674.6666666666666</ele><time>2026-04-19T10:55:41.628Z</time></trkpt><trkpt lat="39.121096" lon="-3.0836326"><ele>674.3333333333333</ele><time>2026-04-19T10:55:42.624Z</time></trkpt><trkpt lat="39.1212768" lon="-3.083663"><ele>674.0</ele><time>2026-04-19T10:55:43.626Z</time></trkpt><trkpt lat="39.1214469" lon="-3.0836851"><ele>674.3333333333333</ele><time>2026-04-19T10:55:44.626Z</time></trkpt><trkpt lat="39.1216065" lon="-3.0837045"><ele>674.6666666666666</ele><time>2026-04-19T10:55:45.628Z</time></trkpt><trkpt lat="39.1217576" lon="-3.0837175"><ele>675.0</ele><time>2026-04-19T10:55:46.622Z</time></trkpt><trkpt lat="39.1219028" lon="-3.0837247"><ele>675.0</ele><time>2026-04-19T10:55:47.623Z</time></trkpt><trkpt lat="39.1220421" lon="-3.0837155"><ele>675.0</ele><time>2026-04-19T10:55:48.632Z</time></trkpt><trkpt lat="39.1221944" lon="-3.0837231"><ele>675.0</ele><time>2026-04-19T10:55:49.636Z</time></trkpt><trkpt lat="39.1223497" lon="-3.083727"><ele>675.0</ele><time>2026-04-19T10:55:50.624Z</time></trkpt><trkpt lat="39.1224871" lon="-3.0837273"><ele>674.5</ele><time>2026-04-19T10:55:51.626Z</time></trkpt><trkpt lat="39.1226193" lon="-3.083723"><ele>674.0</ele><time>2026-04-19T10:55:52.626Z</time></trkpt><trkpt lat="39.1227664" lon="-3.0837193"><ele>673.5</ele><time>2026-04-19T10:55:53.631Z</time></trkpt><trkpt lat="39.122917" lon="-3.08372"><ele>673.0</ele><time>2026-04-19T10:55:54.623Z</time></trkpt><trkpt lat="39.123075" lon="-3.0837098"><ele>673.0</ele><time>2026-04-19T10:55:55.631Z</time></trkpt><trkpt lat="39.1232335" lon="-3.0836989"><ele>673.0</ele><time>2026-04-19T10:55:56.628Z</time></trkpt><trkpt lat="39.1233984" lon="-3.0836939"><ele>673.0</ele><time>2026-04-19T10:55:57.629Z</time></trkpt><trkpt lat="39.1235601" lon="-3.0836879"><ele>673.0</ele><time>2026-04-19T10:55:58.624Z</time></trkpt><trkpt lat="39.1237221" lon="-3.0836826"><ele>673.0</ele><time>2026-04-19T10:55:59.624Z</time></trkpt><trkpt lat="39.1238826" lon="-3.0836765"><ele>673.0</ele><time>2026-04-19T10:56:00.63Z</time></trkpt><trkpt lat="39.1240398" lon="-3.0836647"><ele>673.0</ele><time>2026-04-19T10:56:01.62Z</time></trkpt><trkpt lat="39.1241946" lon="-3.0836558"><ele>673.0</ele><time>2026-04-19T10:56:02.623Z</time></trkpt><trkpt lat="39.1243402" lon="-3.083647"><ele>673.0</ele><time>2026-04-19T10:56:03.63Z</time></trkpt><trkpt lat="39.1244766" lon="-3.0836402"><ele>673.0</ele><time>2026-04-19T10:56:04.628Z</time></trkpt><trkpt lat="39.1246169" lon="-3.0836351"><ele>673.0</ele><time>2026-04-19T10:56:05.627Z</time></trkpt><trkpt lat="39.1247563" lon="-3.0836263"><ele>673.0</ele><time>2026-04-19T10:56:06.621Z</time></trkpt><trkpt lat="39.1249065" lon="-3.0836262"><ele>673.0</ele><time>2026-04-19T10:56:07.634Z</time></trkpt><trkpt lat="39.1250401" lon="-3.0836225"><ele>673.0</ele><time>2026-04-19T10:56:08.626Z</time></trkpt><trkpt lat="39.1251647" lon="-3.0836126"><ele>673.0</ele><time>2026-04-19T10:56:09.624Z</time></trkpt><trkpt lat="39.1252716" lon="-3.0836047"><ele>673.0</ele><time>2026-04-19T10:56:10.63Z</time></trkpt><trkpt lat="39.1253599" lon="-3.0835975"><ele>673.0</ele><time>2026-04-19T10:56:11.627Z</time></trkpt><trkpt lat="39.1254345" lon="-3.0835915"><ele>673.0</ele><time>2026-04-19T10:56:12.623Z</time></trkpt><trkpt lat="39.1255458" lon="-3.083579"><ele>673.0</ele><time>2026-04-19T10:56:14.621Z</time></trkpt><trkpt lat="39.1256231" lon="-3.0835653"><ele>673.0</ele><time>2026-04-19T10:56:16.627Z</time></trkpt><trkpt lat="39.1257032" lon="-3.0835681"><ele>673.0</ele><time>2026-04-19T10:56:18.636Z</time></trkpt><trkpt lat="39.1258012" lon="-3.0835746"><ele>673.0</ele><time>2026-04-19T10:56:20.633Z</time></trkpt><trkpt lat="39.1259105" lon="-3.0835711"><ele>673.0</ele><time>2026-04-19T10:56:22.627Z</time></trkpt><trkpt lat="39.1260158" lon="-3.0835675"><ele>673.0</ele><time>2026-04-19T10:56:24.625Z</time></trkpt><trkpt lat="39.1261199" lon="-3.0835637"><ele>672.8</ele><time>2026-04-19T10:56:26.63Z</time></trkpt><trkpt lat="39.1262231" lon="-3.0835655"><ele>672.5999999999999</ele><time>2026-04-19T10:56:28.629Z</time></trkpt><trkpt lat="39.1263306" lon="-3.0835583"><ele>672.4000000000001</ele><time>2026-04-19T10:56:30.627Z</time></trkpt><trkpt lat="39.1264435" lon="-3.0835503"><ele>672.2</ele><time>2026-04-19T10:56:32.625Z</time></trkpt><trkpt lat="39.1265525" lon="-3.0835437"><ele>672.0</ele><time>2026-04-19T10:56:34.631Z</time></trkpt><trkpt lat="39.1266589" lon="-3.0835382"><ele>672.0</ele><time>2026-04-19T10:56:36.626Z</time></trkpt><trkpt lat="39.1267646" lon="-3.0835292"><ele>672.0</ele><time>2026-04-19T10:56:38.628Z</time></trkpt><trkpt lat="39.126878" lon="-3.0835263"><ele>672.0</ele><time>2026-04-19T10:56:40.628Z</time></trkpt><trkpt lat="39.1270016" lon="-3.0835244"><ele>672.0</ele><time>2026-04-19T10:56:42.628Z</time></trkpt><trkpt lat="39.1270758" lon="-3.0835237"><ele>672.0</ele><time>2026-04-19T10:56:43.635Z</time></trkpt><trkpt lat="39.1271542" lon="-3.0835209"><ele>672.0</ele><time>2026-04-19T10:56:44.629Z</time></trkpt><trkpt lat="39.1272366" lon="-3.0835155"><ele>672.0</ele><time>2026-04-19T10:56:45.635Z</time></trkpt><trkpt lat="39.1273184" lon="-3.0835109"><ele>672.0</ele><time>2026-04-19T10:56:46.63Z</time></trkpt><trkpt lat="39.1274054" lon="-3.0835098"><ele>672.0</ele><time>2026-04-19T10:56:47.621Z</time></trkpt><trkpt lat="39.1275033" lon="-3.0835054"><ele>672.0</ele><time>2026-04-19T10:56:48.628Z</time></trkpt><trkpt lat="39.1276072" lon="-3.0834995"><ele>671.8</ele><time>2026-04-19T10:56:49.62Z</time></trkpt><trkpt lat="39.1277074" lon="-3.0834932"><ele>671.6</ele><time>2026-04-19T10:56:50.622Z</time></trkpt><trkpt lat="39.1278078" lon="-3.0834862"><ele>671.4</ele><time>2026-04-19T10:56:51.625Z</time></trkpt><trkpt lat="39.1279069" lon="-3.0834806"><ele>671.1999999999999</ele><time>2026-04-19T10:56:52.632Z</time></trkpt><trkpt lat="39.1280012" lon="-3.0834749"><ele>671.0</ele><time>2026-04-19T10:56:53.628Z</time></trkpt><trkpt lat="39.1280884" lon="-3.0834704"><ele>671.0</ele><time>2026-04-19T10:56:54.622Z</time></trkpt><trkpt lat="39.1281695" lon="-3.0834685"><ele>671.0</ele><time>2026-04-19T10:56:55.63Z</time></trkpt><trkpt lat="39.1282439" lon="-3.0834647"><ele>671.0</ele><time>2026-04-19T10:56:56.622Z</time></trkpt><trkpt lat="39.1283119" lon="-3.0834573"><ele>671.0</ele><time>2026-04-19T10:56:57.629Z</time></trkpt><trkpt lat="39.1284227" lon="-3.0834476"><ele>671.0</ele><time>2026-04-19T10:56:59.628Z</time></trkpt><trkpt lat="39.1284945" lon="-3.0834342"><ele>671.0</ele><time>2026-04-19T10:57:01.626Z</time></trkpt><trkpt lat="39.1285744" lon="-3.0833932"><ele>671.0</ele><time>2026-04-19T10:57:16.63Z</time></trkpt><trkpt lat="39.1285833" lon="-3.0832857"><ele>671.0</ele><time>2026-04-19T10:57:18.628Z</time></trkpt><trkpt lat="39.1285836" lon="-3.0832035"><ele>671.0</ele><time>2026-04-19T10:57:19.626Z</time></trkpt><trkpt lat="39.1285781" lon="-3.0830481"><ele>671.0</ele><time>2026-04-19T10:57:21.626Z</time></trkpt><trkpt lat="39.1285806" lon="-3.0829572"><ele>671.0</ele><time>2026-04-19T10:57:22.629Z</time></trkpt><trkpt lat="39.128584" lon="-3.082873"><ele>671.0</ele><time>2026-04-19T10:57:23.626Z</time></trkpt><trkpt lat="39.1285823" lon="-3.0827253"><ele>671.1666666666666</ele><time>2026-04-19T10:57:25.628Z</time></trkpt><trkpt lat="39.1285861" lon="-3.0826213"><ele>671.3333333333333</ele><time>2026-04-19T10:57:27.632Z</time></trkpt><trkpt lat="39.1286316" lon="-3.0825616"><ele>671.5</ele><time>2026-04-19T10:57:29.63Z</time></trkpt><trkpt lat="39.1287116" lon="-3.0825528"><ele>671.6666666666666</ele><time>2026-04-19T10:57:34.63Z</time></trkpt><trkpt lat="39.1287872" lon="-3.0825421"><ele>671.8333333333334</ele><time>2026-04-19T10:57:36.631Z</time></trkpt><trkpt lat="39.1288645" lon="-3.0825448"><ele>672.0</ele><time>2026-04-19T10:57:38.63Z</time></trkpt><trkpt lat="39.1287817" lon="-3.0825726"><ele>672.0</ele><time>2026-04-19T10:57:44.636Z</time></trkpt><trkpt lat="39.1286887" lon="-3.0825878"><ele>672.0</ele><time>2026-04-19T10:57:46.624Z</time></trkpt><trkpt lat="39.1286082" lon="-3.0825605"><ele>672.0</ele><time>2026-04-19T10:57:50.628Z</time></trkpt><trkpt lat="39.1286032" lon="-3.0824541"><ele>672.0</ele><time>2026-04-19T10:57:52.626Z</time></trkpt><trkpt lat="39.1285995" lon="-3.0823363"><ele>672.0</ele><time>2026-04-19T10:57:54.631Z</time></trkpt><trkpt lat="39.1286003" lon="-3.0821855"><ele>672.1666666666666</ele><time>2026-04-19T10:57:56.629Z</time></trkpt><trkpt lat="39.1286022" lon="-3.082028"><ele>672.3333333333334</ele><time>2026-04-19T10:57:58.626Z</time></trkpt><trkpt lat="39.1286008" lon="-3.081941"><ele>672.5</ele><time>2026-04-19T10:57:59.623Z</time></trkpt><trkpt lat="39.1286014" lon="-3.0818484"><ele>672.6666666666667</ele><time>2026-04-19T10:58:00.629Z</time></trkpt><trkpt lat="39.1286039" lon="-3.0817578"><ele>672.8333333333334</ele><time>2026-04-19T10:58:01.628Z</time></trkpt><trkpt lat="39.1286053" lon="-3.0816636"><ele>673.0</ele><time>2026-04-19T10:58:02.633Z</time></trkpt><trkpt lat="39.1286062" lon="-3.0815706"><ele>673.2</ele><time>2026-04-19T10:58:03.64Z</time></trkpt><trkpt lat="39.1286142" lon="-3.0814258"><ele>673.4</ele><time>2026-04-19T10:58:05.639Z</time></trkpt><trkpt lat="39.1286699" lon="-3.0813304"><ele>673.6</ele><time>2026-04-19T10:58:08.63Z</time></trkpt><trkpt lat="39.1287894" lon="-3.0813326"><ele>673.8000000000001</ele><time>2026-04-19T10:58:10.627Z</time></trkpt><trkpt lat="39.1288776" lon="-3.0813713"><ele>674.0</ele><time>2026-04-19T10:58:11.62Z</time></trkpt><trkpt lat="39.1289783" lon="-3.0814205"><ele>673.75</ele><time>2026-04-19T10:58:12.619Z</time></trkpt><trkpt lat="39.1290971" lon="-3.0814754"><ele>673.5</ele><time>2026-04-19T10:58:13.627Z</time></trkpt><trkpt lat="39.1292326" lon="-3.0815271"><ele>673.25</ele><time>2026-04-19T10:58:14.617Z</time></trkpt><trkpt lat="39.1293669" lon="-3.0815772"><ele>673.0</ele><time>2026-04-19T10:58:15.619Z</time></trkpt><trkpt lat="39.129492" lon="-3.0816277"><ele>673.0</ele><time>2026-04-19T10:58:16.622Z</time></trkpt><trkpt lat="39.1296087" lon="-3.0816798"><ele>673.0</ele><time>2026-04-19T10:58:17.626Z</time></trkpt><trkpt lat="39.129717" lon="-3.0817329"><ele>673.0</ele><time>2026-04-19T10:58:18.618Z</time></trkpt><trkpt lat="39.1298163" lon="-3.0817849"><ele>673.0</ele><time>2026-04-19T10:58:19.616Z</time></trkpt><trkpt lat="39.1299069" lon="-3.0818326"><ele>673.0</ele><time>2026-04-19T10:58:20.627Z</time></trkpt><trkpt lat="39.1299905" lon="-3.0818701"><ele>673.0</ele><time>2026-04-19T10:58:21.626Z</time></trkpt><trkpt lat="39.1300688" lon="-3.0818975"><ele>673.0</ele><time>2026-04-19T10:58:22.626Z</time></trkpt><trkpt lat="39.1301428" lon="-3.0819258"><ele>673.0</ele><time>2026-04-19T10:58:23.616Z</time></trkpt><trkpt lat="39.1302039" lon="-3.0819723"><ele>673.0</ele><time>2026-04-19T10:58:24.626Z</time></trkpt><trkpt lat="39.1302518" lon="-3.0820404"><ele>673.0</ele><time>2026-04-19T10:58:25.626Z</time></trkpt><trkpt lat="39.130305" lon="-3.0821294"><ele>673.0</ele><time>2026-04-19T10:58:26.627Z</time></trkpt><trkpt lat="39.1303766" lon="-3.0822148"><ele>673.0</ele><time>2026-04-19T10:58:27.62Z</time></trkpt><trkpt lat="39.1304708" lon="-3.0822909"><ele>673.0</ele><time>2026-04-19T10:58:28.622Z</time></trkpt><trkpt lat="39.1305816" lon="-3.0823536"><ele>673.0</ele><time>2026-04-19T10:58:29.626Z</time></trkpt><trkpt lat="39.1306988" lon="-3.0824056"><ele>673.0</ele><time>2026-04-19T10:58:30.629Z</time></trkpt><trkpt lat="39.1308108" lon="-3.0824482"><ele>673.0</ele><time>2026-04-19T10:58:31.623Z</time></trkpt><trkpt lat="39.1309174" lon="-3.0824875"><ele>673.0</ele><time>2026-04-19T10:58:32.624Z</time></trkpt><trkpt lat="39.1310223" lon="-3.0825305"><ele>673.0</ele><time>2026-04-19T10:58:33.628Z</time></trkpt><trkpt lat="39.1311227" lon="-3.0825722"><ele>673.0</ele><time>2026-04-19T10:58:34.619Z</time></trkpt><trkpt lat="39.1312168" lon="-3.0826073"><ele>673.0</ele><time>2026-04-19T10:58:35.623Z</time></trkpt><trkpt lat="39.1313145" lon="-3.0826437"><ele>673.0</ele><time>2026-04-19T10:58:36.621Z</time></trkpt><trkpt lat="39.1314258" lon="-3.0826859"><ele>673.0</ele><time>2026-04-19T10:58:37.619Z</time></trkpt><trkpt lat="39.1315472" lon="-3.0827299"><ele>673.0</ele><time>2026-04-19T10:58:38.617Z</time></trkpt><trkpt lat="39.1316678" lon="-3.0827671"><ele>673.0</ele><time>2026-04-19T10:58:39.623Z</time></trkpt><trkpt lat="39.1317849" lon="-3.0827914"><ele>672.5</ele><time>2026-04-19T10:58:40.617Z</time></trkpt><trkpt lat="39.1319049" lon="-3.082801"><ele>672.0</ele><time>2026-04-19T10:58:41.619Z</time></trkpt><trkpt lat="39.1320294" lon="-3.0828032"><ele>671.5</ele><time>2026-04-19T10:58:42.63Z</time></trkpt><trkpt lat="39.1321562" lon="-3.0827963"><ele>671.0</ele><time>2026-04-19T10:58:43.619Z</time></trkpt><trkpt lat="39.1322828" lon="-3.0827833"><ele>671.25</ele><time>2026-04-19T10:58:44.628Z</time></trkpt><trkpt lat="39.1324064" lon="-3.0827709"><ele>671.5</ele><time>2026-04-19T10:58:45.616Z</time></trkpt><trkpt lat="39.1325235" lon="-3.0827628"><ele>671.75</ele><time>2026-04-19T10:58:46.626Z</time></trkpt><trkpt lat="39.132643" lon="-3.0827558"><ele>672.0</ele><time>2026-04-19T10:58:47.625Z</time></trkpt><trkpt lat="39.1327641" lon="-3.08275"><ele>672.0</ele><time>2026-04-19T10:58:48.63Z</time></trkpt><trkpt lat="39.1328852" lon="-3.0827545"><ele>672.0</ele><time>2026-04-19T10:58:49.624Z</time></trkpt><trkpt lat="39.1330042" lon="-3.0827635"><ele>672.0</ele><time>2026-04-19T10:58:50.625Z</time></trkpt><trkpt lat="39.1331208" lon="-3.0827805"><ele>672.0</ele><time>2026-04-19T10:58:51.633Z</time></trkpt><trkpt lat="39.1332391" lon="-3.0828052"><ele>672.0</ele><time>2026-04-19T10:58:52.632Z</time></trkpt><trkpt lat="39.1333567" lon="-3.0828402"><ele>672.0</ele><time>2026-04-19T10:58:53.624Z</time></trkpt><trkpt lat="39.1334802" lon="-3.0828833"><ele>672.0</ele><time>2026-04-19T10:58:54.628Z</time></trkpt><trkpt lat="39.1336094" lon="-3.0829343"><ele>672.0</ele><time>2026-04-19T10:58:55.623Z</time></trkpt><trkpt lat="39.1337444" lon="-3.0829936"><ele>672.0</ele><time>2026-04-19T10:58:56.631Z</time></trkpt><trkpt lat="39.1338835" lon="-3.0830663"><ele>672.0</ele><time>2026-04-19T10:58:57.626Z</time></trkpt><trkpt lat="39.1340344" lon="-3.0831486"><ele>672.0</ele><time>2026-04-19T10:58:58.621Z</time></trkpt><trkpt lat="39.1341985" lon="-3.0832352"><ele>671.0</ele><time>2026-04-19T10:58:59.634Z</time></trkpt><trkpt lat="39.1343563" lon="-3.0833189"><ele>670.0</ele><time>2026-04-19T10:59:00.633Z</time></trkpt><trkpt lat="39.134505" lon="-3.0834011"><ele>669.0</ele><time>2026-04-19T10:59:01.63Z</time></trkpt><trkpt lat="39.1346456" lon="-3.0834794"><ele>669.0</ele><time>2026-04-19T10:59:02.628Z</time></trkpt><trkpt lat="39.1347792" lon="-3.0835527"><ele>669.0</ele><time>2026-04-19T10:59:03.616Z</time></trkpt><trkpt lat="39.1349029" lon="-3.0836234"><ele>669.0</ele><time>2026-04-19T10:59:04.631Z</time></trkpt><trkpt lat="39.1350222" lon="-3.0836917"><ele>669.0</ele><time>2026-04-19T10:59:05.632Z</time></trkpt><trkpt lat="39.1351475" lon="-3.0837637"><ele>670.0</ele><time>2026-04-19T10:59:06.637Z</time></trkpt><trkpt lat="39.1352801" lon="-3.0838399"><ele>671.0</ele><time>2026-04-19T10:59:07.628Z</time></trkpt><trkpt lat="39.1354232" lon="-3.0839034"><ele>672.0</ele><time>2026-04-19T10:59:08.629Z</time></trkpt><trkpt lat="39.1355746" lon="-3.0839477"><ele>671.3333333333334</ele><time>2026-04-19T10:59:09.632Z</time></trkpt><trkpt lat="39.1357304" lon="-3.0839777"><ele>670.6666666666667</ele><time>2026-04-19T10:59:10.634Z</time></trkpt><trkpt lat="39.13588" lon="-3.0839995"><ele>670.0</ele><time>2026-04-19T10:59:11.633Z</time></trkpt><trkpt lat="39.1360209" lon="-3.0840189"><ele>670.0</ele><time>2026-04-19T10:59:12.628Z</time></trkpt><trkpt lat="39.1361533" lon="-3.0840363"><ele>670.0</ele><time>2026-04-19T10:59:13.622Z</time></trkpt><trkpt lat="39.1362778" lon="-3.0840536"><ele>670.0</ele><time>2026-04-19T10:59:14.643Z</time></trkpt><trkpt lat="39.1363944" lon="-3.0840707"><ele>670.0</ele><time>2026-04-19T10:59:15.621Z</time></trkpt><trkpt lat="39.1365041" lon="-3.0840856"><ele>669.6</ele><time>2026-04-19T10:59:16.627Z</time></trkpt><trkpt lat="39.1366075" lon="-3.0840993"><ele>669.2</ele><time>2026-04-19T10:59:17.625Z</time></trkpt><trkpt lat="39.1367052" lon="-3.0841084"><ele>668.8</ele><time>2026-04-19T10:59:18.625Z</time></trkpt><trkpt lat="39.136797" lon="-3.0841191"><ele>668.4</ele><time>2026-04-19T10:59:19.62Z</time></trkpt><trkpt lat="39.1368835" lon="-3.0841327"><ele>668.0</ele><time>2026-04-19T10:59:20.625Z</time></trkpt><trkpt lat="39.1369645" lon="-3.0841452"><ele>668.0</ele><time>2026-04-19T10:59:21.63Z</time></trkpt><trkpt lat="39.1370427" lon="-3.0841579"><ele>668.0</ele><time>2026-04-19T10:59:22.621Z</time></trkpt><trkpt lat="39.1371327" lon="-3.0841833"><ele>668.0</ele><time>2026-04-19T10:59:23.618Z</time></trkpt><trkpt lat="39.1372434" lon="-3.0842185"><ele>668.0</ele><time>2026-04-19T10:59:24.638Z</time></trkpt><trkpt lat="39.1373725" lon="-3.0842611"><ele>668.0</ele><time>2026-04-19T10:59:25.63Z</time></trkpt><trkpt lat="39.137525" lon="-3.0843151"><ele>668.0</ele><time>2026-04-19T10:59:26.622Z</time></trkpt><trkpt lat="39.1376979" lon="-3.0843709"><ele>668.0</ele><time>2026-04-19T10:59:27.631Z</time></trkpt><trkpt lat="39.1378995" lon="-3.0844212"><ele>668.0</ele><time>2026-04-19T10:59:28.621Z</time></trkpt><trkpt lat="39.1381319" lon="-3.0844623"><ele>669.0</ele><time>2026-04-19T10:59:29.627Z</time></trkpt><trkpt lat="39.1383788" lon="-3.0844996"><ele>670.0</ele><time>2026-04-19T10:59:30.622Z</time></trkpt><trkpt lat="39.1386074" lon="-3.0845398"><ele>670.0</ele><time>2026-04-19T10:59:31.626Z</time></trkpt><trkpt lat="39.1388171" lon="-3.0845807"><ele>670.0</ele><time>2026-04-19T10:59:32.632Z</time></trkpt><trkpt lat="39.1390237" lon="-3.0846199"><ele>670.0</ele><time>2026-04-19T10:59:33.619Z</time></trkpt><trkpt lat="39.139222" lon="-3.0846615"><ele>670.0</ele><time>2026-04-19T10:59:34.631Z</time></trkpt><trkpt lat="39.1394129" lon="-3.0847056"><ele>670.0</ele><time>2026-04-19T10:59:35.631Z</time></trkpt><trkpt lat="39.1395918" lon="-3.0847468"><ele>670.0</ele><time>2026-04-19T10:59:36.624Z</time></trkpt><trkpt lat="39.1397594" lon="-3.0847849"><ele>670.0</ele><time>2026-04-19T10:59:37.626Z</time></trkpt><trkpt lat="39.1399175" lon="-3.0848208"><ele>670.0</ele><time>2026-04-19T10:59:38.626Z</time></trkpt><trkpt lat="39.1400651" lon="-3.0848572"><ele>670.0</ele><time>2026-04-19T10:59:39.629Z</time></trkpt><trkpt lat="39.1402025" lon="-3.0848922"><ele>670.0</ele><time>2026-04-19T10:59:40.625Z</time></trkpt><trkpt lat="39.140335" lon="-3.0849287"><ele>670.0</ele><time>2026-04-19T10:59:41.624Z</time></trkpt><trkpt lat="39.1404724" lon="-3.0849693"><ele>670.0</ele><time>2026-04-19T10:59:42.626Z</time></trkpt><trkpt lat="39.1406155" lon="-3.0850134"><ele>670.0</ele><time>2026-04-19T10:59:43.622Z</time></trkpt><trkpt lat="39.1407601" lon="-3.0850566"><ele>669.5</ele><time>2026-04-19T10:59:44.637Z</time></trkpt><trkpt lat="39.1408967" lon="-3.0850964"><ele>669.0</ele><time>2026-04-19T10:59:45.629Z</time></trkpt><trkpt lat="39.1410246" lon="-3.0851352"><ele>668.5</ele><time>2026-04-19T10:59:46.616Z</time></trkpt><trkpt lat="39.1411428" lon="-3.0851742"><ele>668.0</ele><time>2026-04-19T10:59:47.629Z</time></trkpt><trkpt lat="39.1412534" lon="-3.0852086"><ele>668.0</ele><time>2026-04-19T10:59:48.627Z</time></trkpt><trkpt lat="39.1413586" lon="-3.0852367"><ele>668.0</ele><time>2026-04-19T10:59:49.628Z</time></trkpt><trkpt lat="39.141457" lon="-3.0852642"><ele>668.0</ele><time>2026-04-19T10:59:50.63Z</time></trkpt><trkpt lat="39.1415557" lon="-3.0852916"><ele>668.0</ele><time>2026-04-19T10:59:51.633Z</time></trkpt><trkpt lat="39.1416596" lon="-3.0853199"><ele>668.0</ele><time>2026-04-19T10:59:52.63Z</time></trkpt><trkpt lat="39.1417585" lon="-3.0853484"><ele>668.0</ele><time>2026-04-19T10:59:53.626Z</time></trkpt><trkpt lat="39.1418523" lon="-3.0853797"><ele>668.0</ele><time>2026-04-19T10:59:54.621Z</time></trkpt><trkpt lat="39.1419449" lon="-3.0854075"><ele>668.0</ele><time>2026-04-19T10:59:55.624Z</time></trkpt><trkpt lat="39.1420562" lon="-3.0854359"><ele>668.0</ele><time>2026-04-19T10:59:56.63Z</time></trkpt><trkpt lat="39.1421868" lon="-3.0854689"><ele>668.0</ele><time>2026-04-19T10:59:57.626Z</time></trkpt><trkpt lat="39.1423351" lon="-3.0855133"><ele>667.3333333333333</ele><time>2026-04-19T10:59:58.628Z</time></trkpt><trkpt lat="39.1425008" lon="-3.0855669"><ele>666.6666666666666</ele><time>2026-04-19T10:59:59.623Z</time></trkpt><trkpt lat="39.1426789" lon="-3.0856146"><ele>666.0</ele><time>2026-04-19T11:00:00.631Z</time></trkpt><trkpt lat="39.1428695" lon="-3.0856579"><ele>666.0</ele><time>2026-04-19T11:00:01.636Z</time></trkpt><trkpt lat="39.1430828" lon="-3.0857028"><ele>666.0</ele><time>2026-04-19T11:00:02.636Z</time></trkpt><trkpt lat="39.1433216" lon="-3.0857476"><ele>667.0</ele><time>2026-04-19T11:00:03.627Z</time></trkpt><trkpt lat="39.1435723" lon="-3.0857938"><ele>668.0</ele><time>2026-04-19T11:00:04.639Z</time></trkpt><trkpt lat="39.1438325" lon="-3.0858407"><ele>668.5</ele><time>2026-04-19T11:00:05.642Z</time></trkpt><trkpt lat="39.1440964" lon="-3.0858882"><ele>669.0</ele><time>2026-04-19T11:00:06.637Z</time></trkpt><trkpt lat="39.1443507" lon="-3.0859338"><ele>669.0</ele><time>2026-04-19T11:00:07.636Z</time></trkpt><trkpt lat="39.1446059" lon="-3.085979"><ele>669.0</ele><time>2026-04-19T11:00:08.645Z</time></trkpt><trkpt lat="39.1448648" lon="-3.0860246"><ele>668.5</ele><time>2026-04-19T11:00:09.628Z</time></trkpt><trkpt lat="39.1451208" lon="-3.0860705"><ele>668.0</ele><time>2026-04-19T11:00:10.637Z</time></trkpt><trkpt lat="39.1453624" lon="-3.0861135"><ele>668.0</ele><time>2026-04-19T11:00:11.63Z</time></trkpt><trkpt lat="39.1456024" lon="-3.0861559"><ele>668.0</ele><time>2026-04-19T11:00:12.634Z</time></trkpt><trkpt lat="39.1458523" lon="-3.0861971"><ele>667.5</ele><time>2026-04-19T11:00:13.628Z</time></trkpt><trkpt lat="39.1461062" lon="-3.0862314"><ele>667.0</ele><time>2026-04-19T11:00:14.616Z</time></trkpt><trkpt lat="39.1463555" lon="-3.0862556"><ele>667.0</ele><time>2026-04-19T11:00:15.631Z</time></trkpt><trkpt lat="39.1466053" lon="-3.0862709"><ele>667.0</ele><time>2026-04-19T11:00:16.631Z</time></trkpt><trkpt lat="39.1468648" lon="-3.0862866"><ele>667.0</ele><time>2026-04-19T11:00:17.631Z</time></trkpt><trkpt lat="39.1471237" lon="-3.0863065"><ele>667.0</ele><time>2026-04-19T11:00:18.643Z</time></trkpt><trkpt lat="39.1473744" lon="-3.0863245"><ele>666.5</ele><time>2026-04-19T11:00:19.631Z</time></trkpt><trkpt lat="39.1476296" lon="-3.0863383"><ele>666.0</ele><time>2026-04-19T11:00:20.623Z</time></trkpt><trkpt lat="39.1478707" lon="-3.0863481"><ele>666.0</ele><time>2026-04-19T11:00:21.639Z</time></trkpt><trkpt lat="39.1480892" lon="-3.0863508"><ele>666.0</ele><time>2026-04-19T11:00:22.633Z</time></trkpt><trkpt lat="39.1482932" lon="-3.086346"><ele>666.0</ele><time>2026-04-19T11:00:23.624Z</time></trkpt><trkpt lat="39.1484841" lon="-3.0863298"><ele>666.0</ele><time>2026-04-19T11:00:24.614Z</time></trkpt><trkpt lat="39.1486802" lon="-3.0862959"><ele>666.0</ele><time>2026-04-19T11:00:25.619Z</time></trkpt><trkpt lat="39.1488909" lon="-3.0862417"><ele>666.0</ele><time>2026-04-19T11:00:26.62Z</time></trkpt><trkpt lat="39.1491157" lon="-3.08617"><ele>666.0</ele><time>2026-04-19T11:00:27.638Z</time></trkpt><trkpt lat="39.1493477" lon="-3.086096"><ele>666.0</ele><time>2026-04-19T11:00:28.634Z</time></trkpt><trkpt lat="39.1495865" lon="-3.0860344"><ele>666.0</ele><time>2026-04-19T11:00:29.624Z</time></trkpt><trkpt lat="39.1498375" lon="-3.0859871"><ele>666.0</ele><time>2026-04-19T11:00:30.627Z</time></trkpt><trkpt lat="39.1501053" lon="-3.0859517"><ele>666.0</ele><time>2026-04-19T11:00:31.623Z</time></trkpt><trkpt lat="39.1503696" lon="-3.0859234"><ele>666.0</ele><time>2026-04-19T11:00:32.628Z</time></trkpt><trkpt lat="39.1506096" lon="-3.0858958"><ele>665.3333333333334</ele><time>2026-04-19T11:00:33.637Z</time></trkpt><trkpt lat="39.1508201" lon="-3.085873"><ele>664.6666666666667</ele><time>2026-04-19T11:00:34.623Z</time></trkpt><trkpt lat="39.1510043" lon="-3.0858576"><ele>664.0</ele><time>2026-04-19T11:00:35.625Z</time></trkpt><trkpt lat="39.1511716" lon="-3.0858523"><ele>664.0</ele><time>2026-04-19T11:00:36.631Z</time></trkpt><trkpt lat="39.1513291" lon="-3.0858657"><ele>664.0</ele><time>2026-04-19T11:00:37.621Z</time></trkpt><trkpt lat="39.1514906" lon="-3.0859076"><ele>664.0</ele><time>2026-04-19T11:00:38.617Z</time></trkpt><trkpt lat="39.1516632" lon="-3.0859796"><ele>664.3333333333334</ele><time>2026-04-19T11:00:39.621Z</time></trkpt><trkpt lat="39.1518528" lon="-3.0860735"><ele>664.6666666666666</ele><time>2026-04-19T11:00:40.631Z</time></trkpt><trkpt lat="39.1520597" lon="-3.0861798"><ele>665.0</ele><time>2026-04-19T11:00:41.635Z</time></trkpt><trkpt lat="39.1522663" lon="-3.0862804"><ele>664.6666666666666</ele><time>2026-04-19T11:00:42.634Z</time></trkpt><trkpt lat="39.1524599" lon="-3.0863725"><ele>664.3333333333334</ele><time>2026-04-19T11:00:43.622Z</time></trkpt><trkpt lat="39.1526403" lon="-3.0864625"><ele>664.0</ele><time>2026-04-19T11:00:44.625Z</time></trkpt><trkpt lat="39.1528096" lon="-3.0865469"><ele>663.6666666666667</ele><time>2026-04-19T11:00:45.618Z</time></trkpt><trkpt lat="39.1529755" lon="-3.0866187"><ele>663.3333333333334</ele><time>2026-04-19T11:00:46.623Z</time></trkpt><trkpt lat="39.1531538" lon="-3.0866755"><ele>663.0</ele><time>2026-04-19T11:00:47.628Z</time></trkpt><trkpt lat="39.153356" lon="-3.0867159"><ele>664.5</ele><time>2026-04-19T11:00:48.633Z</time></trkpt><trkpt lat="39.1535739" lon="-3.0867432"><ele>666.0</ele><time>2026-04-19T11:00:49.628Z</time></trkpt><trkpt lat="39.1538095" lon="-3.0867714"><ele>666.0</ele><time>2026-04-19T11:00:50.627Z</time></trkpt><trkpt lat="39.1540651" lon="-3.0868063"><ele>666.0</ele><time>2026-04-19T11:00:51.622Z</time></trkpt><trkpt lat="39.1543197" lon="-3.0868409"><ele>666.0</ele><time>2026-04-19T11:00:52.631Z</time></trkpt><trkpt lat="39.1545561" lon="-3.0868683"><ele>666.0</ele><time>2026-04-19T11:00:53.627Z</time></trkpt><trkpt lat="39.1547764" lon="-3.0868931"><ele>665.3333333333334</ele><time>2026-04-19T11:00:54.626Z</time></trkpt><trkpt lat="39.1549803" lon="-3.0869127"><ele>664.6666666666667</ele><time>2026-04-19T11:00:55.618Z</time></trkpt><trkpt lat="39.1551701" lon="-3.086927"><ele>664.0</ele><time>2026-04-19T11:00:56.619Z</time></trkpt><trkpt lat="39.1553454" lon="-3.0869383"><ele>664.0</ele><time>2026-04-19T11:00:57.619Z</time></trkpt><trkpt lat="39.1555125" lon="-3.0869428"><ele>664.0</ele><time>2026-04-19T11:00:58.627Z</time></trkpt><trkpt lat="39.1556751" lon="-3.0869309"><ele>664.0</ele><time>2026-04-19T11:00:59.63Z</time></trkpt><trkpt lat="39.1558373" lon="-3.0869016"><ele>663.6666666666667</ele><time>2026-04-19T11:01:00.629Z</time></trkpt><trkpt lat="39.1559967" lon="-3.0868638"><ele>663.3333333333334</ele><time>2026-04-19T11:01:01.62Z</time></trkpt><trkpt lat="39.1561482" lon="-3.0868315"><ele>663.0</ele><time>2026-04-19T11:01:02.622Z</time></trkpt><trkpt lat="39.1562916" lon="-3.0868111"><ele>663.0</ele><time>2026-04-19T11:01:03.621Z</time></trkpt><trkpt lat="39.156427" lon="-3.0868081"><ele>663.0</ele><time>2026-04-19T11:01:04.62Z</time></trkpt><trkpt lat="39.1565535" lon="-3.0868214"><ele>663.0</ele><time>2026-04-19T11:01:05.619Z</time></trkpt><trkpt lat="39.1566711" lon="-3.0868382"><ele>663.0</ele><time>2026-04-19T11:01:06.651Z</time></trkpt><trkpt lat="39.1567763" lon="-3.0868547"><ele>663.2</ele><time>2026-04-19T11:01:07.629Z</time></trkpt><trkpt lat="39.1568666" lon="-3.0868746"><ele>663.4</ele><time>2026-04-19T11:01:08.625Z</time></trkpt><trkpt lat="39.1569596" lon="-3.0869023"><ele>663.6</ele><time>2026-04-19T11:01:09.625Z</time></trkpt><trkpt lat="39.1570696" lon="-3.0869413"><ele>663.8000000000001</ele><time>2026-04-19T11:01:10.624Z</time></trkpt><trkpt lat="39.1571982" lon="-3.0869924"><ele>664.0</ele><time>2026-04-19T11:01:11.619Z</time></trkpt><trkpt lat="39.1573466" lon="-3.0870597"><ele>664.0</ele><time>2026-04-19T11:01:12.621Z</time></trkpt><trkpt lat="39.1575132" lon="-3.0871381"><ele>664.0</ele><time>2026-04-19T11:01:13.621Z</time></trkpt><trkpt lat="39.1576855" lon="-3.0872063"><ele>664.0</ele><time>2026-04-19T11:01:14.625Z</time></trkpt><trkpt lat="39.1578644" lon="-3.0872529"><ele>664.0</ele><time>2026-04-19T11:01:15.623Z</time></trkpt><trkpt lat="39.1580609" lon="-3.0872752"><ele>664.0</ele><time>2026-04-19T11:01:16.626Z</time></trkpt><trkpt lat="39.1582766" lon="-3.0872797"><ele>664.0</ele><time>2026-04-19T11:01:17.634Z</time></trkpt><trkpt lat="39.1585059" lon="-3.0872783"><ele>665.0</ele><time>2026-04-19T11:01:18.617Z</time></trkpt><trkpt lat="39.1587537" lon="-3.0872794"><ele>666.0</ele><time>2026-04-19T11:01:19.614Z</time></trkpt><trkpt lat="39.1589907" lon="-3.0872741"><ele>665.5</ele><time>2026-04-19T11:01:20.617Z</time></trkpt><trkpt lat="39.15923" lon="-3.0872546"><ele>665.0</ele><time>2026-04-19T11:01:21.616Z</time></trkpt><trkpt lat="39.1594667" lon="-3.087217"><ele>665.0</ele><time>2026-04-19T11:01:22.619Z</time></trkpt><trkpt lat="39.159684" lon="-3.0871702"><ele>665.0</ele><time>2026-04-19T11:01:23.631Z</time></trkpt><trkpt lat="39.1598766" lon="-3.0871285"><ele>665.0</ele><time>2026-04-19T11:01:24.637Z</time></trkpt><trkpt lat="39.1600431" lon="-3.0871009"><ele>664.6666666666666</ele><time>2026-04-19T11:01:25.624Z</time></trkpt><trkpt lat="39.1601994" lon="-3.0870934"><ele>664.3333333333334</ele><time>2026-04-19T11:01:26.62Z</time></trkpt><trkpt lat="39.1603496" lon="-3.0871146"><ele>664.0</ele><time>2026-04-19T11:01:27.622Z</time></trkpt><trkpt lat="39.1605143" lon="-3.0871642"><ele>664.3333333333334</ele><time>2026-04-19T11:01:28.631Z</time></trkpt><trkpt lat="39.1607026" lon="-3.0872399"><ele>664.6666666666666</ele><time>2026-04-19T11:01:29.626Z</time></trkpt><trkpt lat="39.1609121" lon="-3.0873378"><ele>665.0</ele><time>2026-04-19T11:01:30.634Z</time></trkpt><trkpt lat="39.1611435" lon="-3.0874508"><ele>664.0</ele><time>2026-04-19T11:01:31.626Z</time></trkpt><trkpt lat="39.1613937" lon="-3.0875596"><ele>663.0</ele><time>2026-04-19T11:01:32.62Z</time></trkpt><trkpt lat="39.1616401" lon="-3.0876524"><ele>662.6666666666666</ele><time>2026-04-19T11:01:33.632Z</time></trkpt><trkpt lat="39.161866" lon="-3.0877295"><ele>662.3333333333333</ele><time>2026-04-19T11:01:34.634Z</time></trkpt><trkpt lat="39.1620731" lon="-3.0877978"><ele>662.0</ele><time>2026-04-19T11:01:35.631Z</time></trkpt><trkpt lat="39.1622692" lon="-3.0878652"><ele>662.0</ele><time>2026-04-19T11:01:36.621Z</time></trkpt><trkpt lat="39.1624515" lon="-3.0879452"><ele>662.0</ele><time>2026-04-19T11:01:37.614Z</time></trkpt><trkpt lat="39.1626276" lon="-3.0880505"><ele>662.0</ele><time>2026-04-19T11:01:38.613Z</time></trkpt><trkpt lat="39.1628064" lon="-3.0881865"><ele>662.0</ele><time>2026-04-19T11:01:39.623Z</time></trkpt><trkpt lat="39.1629972" lon="-3.0883499"><ele>662.0</ele><time>2026-04-19T11:01:40.625Z</time></trkpt><trkpt lat="39.1632068" lon="-3.0885245"><ele>662.5</ele><time>2026-04-19T11:01:41.631Z</time></trkpt><trkpt lat="39.1634317" lon="-3.0887012"><ele>663.0</ele><time>2026-04-19T11:01:42.635Z</time></trkpt><trkpt lat="39.1636714" lon="-3.0888877"><ele>663.0</ele><time>2026-04-19T11:01:43.644Z</time></trkpt><trkpt lat="39.1639063" lon="-3.0890677"><ele>663.0</ele><time>2026-04-19T11:01:44.633Z</time></trkpt><trkpt lat="39.1641217" lon="-3.0892228"><ele>662.3333333333334</ele><time>2026-04-19T11:01:45.618Z</time></trkpt><trkpt lat="39.1643178" lon="-3.0893615"><ele>661.6666666666667</ele><time>2026-04-19T11:01:46.617Z</time></trkpt><trkpt lat="39.164494" lon="-3.0894984"><ele>661.0</ele><time>2026-04-19T11:01:47.633Z</time></trkpt><trkpt lat="39.1646542" lon="-3.0896377"><ele>661.0</ele><time>2026-04-19T11:01:48.632Z</time></trkpt><trkpt lat="39.1648027" lon="-3.0897624"><ele>661.0</ele><time>2026-04-19T11:01:49.62Z</time></trkpt><trkpt lat="39.1649475" lon="-3.0898677"><ele>661.0</ele><time>2026-04-19T11:01:50.63Z</time></trkpt><trkpt lat="39.165095" lon="-3.0899515"><ele>661.25</ele><time>2026-04-19T11:01:51.643Z</time></trkpt><trkpt lat="39.1652317" lon="-3.0900044"><ele>661.5</ele><time>2026-04-19T11:01:52.638Z</time></trkpt><trkpt lat="39.1653547" lon="-3.0900324"><ele>661.75</ele><time>2026-04-19T11:01:53.621Z</time></trkpt><trkpt lat="39.1654594" lon="-3.0900374"><ele>662.0</ele><time>2026-04-19T11:01:54.62Z</time></trkpt><trkpt lat="39.1655446" lon="-3.0900163"><ele>662.0</ele><time>2026-04-19T11:01:55.622Z</time></trkpt><trkpt lat="39.1656173" lon="-3.0899668"><ele>662.0</ele><time>2026-04-19T11:01:56.63Z</time></trkpt><trkpt lat="39.1656746" lon="-3.0898918"><ele>662.0</ele><time>2026-04-19T11:01:57.641Z</time></trkpt><trkpt lat="39.1657241" lon="-3.0897822"><ele>662.0</ele><time>2026-04-19T11:01:58.624Z</time></trkpt><trkpt lat="39.1657635" lon="-3.0896677"><ele>662.0</ele><time>2026-04-19T11:01:59.631Z</time></trkpt><trkpt lat="39.1657975" lon="-3.0895708"><ele>662.0</ele><time>2026-04-19T11:02:00.637Z</time></trkpt><trkpt lat="39.1658374" lon="-3.0894911"><ele>662.1666666666666</ele><time>2026-04-19T11:02:01.626Z</time></trkpt><trkpt lat="39.1658894" lon="-3.089437"><ele>662.3333333333333</ele><time>2026-04-19T11:02:02.619Z</time></trkpt><trkpt lat="39.1659522" lon="-3.0894088"><ele>662.5</ele><time>2026-04-19T11:02:03.635Z</time></trkpt><trkpt lat="39.1660305" lon="-3.0894066"><ele>662.6666666666666</ele><time>2026-04-19T11:02:04.639Z</time></trkpt><trkpt lat="39.1661344" lon="-3.0894165"><ele>662.8333333333334</ele><time>2026-04-19T11:02:05.634Z</time></trkpt><trkpt lat="39.1662592" lon="-3.0894748"><ele>663.0</ele><time>2026-04-19T11:02:06.636Z</time></trkpt><trkpt lat="39.1663866" lon="-3.0895289"><ele>663.0</ele><time>2026-04-19T11:02:07.632Z</time></trkpt><trkpt lat="39.1665049" lon="-3.0895715"><ele>663.0</ele><time>2026-04-19T11:02:08.624Z</time></trkpt><trkpt lat="39.1666169" lon="-3.0896123"><ele>663.0</ele><time>2026-04-19T11:02:09.625Z</time></trkpt><trkpt lat="39.166719" lon="-3.0896493"><ele>663.0</ele><time>2026-04-19T11:02:10.632Z</time></trkpt><trkpt lat="39.1668234" lon="-3.0896823"><ele>663.0</ele><time>2026-04-19T11:02:11.626Z</time></trkpt><trkpt lat="39.1669477" lon="-3.0897101"><ele>663.0</ele><time>2026-04-19T11:02:12.624Z</time></trkpt><trkpt lat="39.1670876" lon="-3.0897329"><ele>663.0</ele><time>2026-04-19T11:02:13.626Z</time></trkpt><trkpt lat="39.1672392" lon="-3.0897588"><ele>663.0</ele><time>2026-04-19T11:02:14.632Z</time></trkpt><trkpt lat="39.1673993" lon="-3.0897849"><ele>662.6666666666666</ele><time>2026-04-19T11:02:15.627Z</time></trkpt><trkpt lat="39.1675624" lon="-3.0898087"><ele>662.3333333333333</ele><time>2026-04-19T11:02:16.628Z</time></trkpt><trkpt lat="39.1677315" lon="-3.0898301"><ele>662.0</ele><time>2026-04-19T11:02:17.63Z</time></trkpt><trkpt lat="39.1679016" lon="-3.0898497"><ele>662.0</ele><time>2026-04-19T11:02:18.651Z</time></trkpt><trkpt lat="39.1680715" lon="-3.0898681"><ele>662.0</ele><time>2026-04-19T11:02:19.625Z</time></trkpt><trkpt lat="39.1682418" lon="-3.0898891"><ele>662.0</ele><time>2026-04-19T11:02:20.623Z</time></trkpt><trkpt lat="39.168413" lon="-3.0899124"><ele>662.3333333333333</ele><time>2026-04-19T11:02:21.625Z</time></trkpt><trkpt lat="39.1685864" lon="-3.0899326"><ele>662.6666666666666</ele><time>2026-04-19T11:02:22.625Z</time></trkpt><trkpt lat="39.1687599" lon="-3.0899486"><ele>663.0</ele><time>2026-04-19T11:02:23.627Z</time></trkpt><trkpt lat="39.1689363" lon="-3.089964"><ele>662.6666666666666</ele><time>2026-04-19T11:02:24.632Z</time></trkpt><trkpt lat="39.1691139" lon="-3.0899797"><ele>662.3333333333333</ele><time>2026-04-19T11:02:25.622Z</time></trkpt><trkpt lat="39.1692901" lon="-3.0900011"><ele>662.0</ele><time>2026-04-19T11:02:26.625Z</time></trkpt><trkpt lat="39.1694599" lon="-3.0900259"><ele>662.0</ele><time>2026-04-19T11:02:27.621Z</time></trkpt><trkpt lat="39.1696207" lon="-3.0900519"><ele>662.0</ele><time>2026-04-19T11:02:28.62Z</time></trkpt><trkpt lat="39.1697747" lon="-3.0900779"><ele>662.0</ele><time>2026-04-19T11:02:29.628Z</time></trkpt><trkpt lat="39.1699194" lon="-3.0901005"><ele>661.75</ele><time>2026-04-19T11:02:30.625Z</time></trkpt><trkpt lat="39.1700607" lon="-3.0901196"><ele>661.5</ele><time>2026-04-19T11:02:31.643Z</time></trkpt><trkpt lat="39.170203" lon="-3.0901379"><ele>661.25</ele><time>2026-04-19T11:02:32.624Z</time></trkpt><trkpt lat="39.1703522" lon="-3.0901556"><ele>661.0</ele><time>2026-04-19T11:02:33.628Z</time></trkpt><trkpt lat="39.1705153" lon="-3.0901796"><ele>661.0</ele><time>2026-04-19T11:02:34.627Z</time></trkpt><trkpt lat="39.1706925" lon="-3.0902131"><ele>661.0</ele><time>2026-04-19T11:02:35.623Z</time></trkpt><trkpt lat="39.1708677" lon="-3.0902433"><ele>661.0</ele><time>2026-04-19T11:02:36.631Z</time></trkpt><trkpt lat="39.1710264" lon="-3.0902624"><ele>661.0</ele><time>2026-04-19T11:02:37.629Z</time></trkpt><trkpt lat="39.1711647" lon="-3.0902751"><ele>661.0</ele><time>2026-04-19T11:02:38.628Z</time></trkpt><trkpt lat="39.1712833" lon="-3.0902848"><ele>661.0</ele><time>2026-04-19T11:02:39.629Z</time></trkpt><trkpt lat="39.1713849" lon="-3.0902933"><ele>661.0</ele><time>2026-04-19T11:02:40.628Z</time></trkpt><trkpt lat="39.1714673" lon="-3.0902964"><ele>661.0</ele><time>2026-04-19T11:02:41.626Z</time></trkpt><trkpt lat="39.1715744" lon="-3.0902925"><ele>661.0</ele><time>2026-04-19T11:02:43.626Z</time></trkpt><trkpt lat="39.1716855" lon="-3.0903004"><ele>661.0</ele><time>2026-04-19T11:02:45.632Z</time></trkpt><trkpt lat="39.1717697" lon="-3.0903129"><ele>661.0</ele><time>2026-04-19T11:02:46.624Z</time></trkpt><trkpt lat="39.1718692" lon="-3.0903334"><ele>661.0</ele><time>2026-04-19T11:02:47.634Z</time></trkpt><trkpt lat="39.1719792" lon="-3.0903559"><ele>661.0</ele><time>2026-04-19T11:02:48.627Z</time></trkpt><trkpt lat="39.1721124" lon="-3.0903721"><ele>661.0</ele><time>2026-04-19T11:02:49.626Z</time></trkpt><trkpt lat="39.1722715" lon="-3.0903835"><ele>661.0</ele><time>2026-04-19T11:02:50.626Z</time></trkpt><trkpt lat="39.1724532" lon="-3.0903978"><ele>661.0</ele><time>2026-04-19T11:02:51.658Z</time></trkpt><trkpt lat="39.1726419" lon="-3.0904241"><ele>661.3333333333334</ele><time>2026-04-19T11:02:52.619Z</time></trkpt><trkpt lat="39.1728178" lon="-3.0904656"><ele>661.6666666666666</ele><time>2026-04-19T11:02:53.62Z</time></trkpt><trkpt lat="39.1729895" lon="-3.0905108"><ele>662.0</ele><time>2026-04-19T11:02:54.619Z</time></trkpt><trkpt lat="39.1731666" lon="-3.0905644"><ele>661.6666666666666</ele><time>2026-04-19T11:02:55.62Z</time></trkpt><trkpt lat="39.1733556" lon="-3.0906098"><ele>661.3333333333334</ele><time>2026-04-19T11:02:56.618Z</time></trkpt><trkpt lat="39.1735391" lon="-3.0906517"><ele>661.0</ele><time>2026-04-19T11:02:57.624Z</time></trkpt><trkpt lat="39.1737329" lon="-3.0906852"><ele>661.0</ele><time>2026-04-19T11:02:58.636Z</time></trkpt><trkpt lat="39.1739039" lon="-3.0907208"><ele>661.0</ele><time>2026-04-19T11:02:59.623Z</time></trkpt><trkpt lat="39.1740421" lon="-3.0907514"><ele>661.0</ele><time>2026-04-19T11:03:00.622Z</time></trkpt><trkpt lat="39.1741653" lon="-3.0907655"><ele>661.0</ele><time>2026-04-19T11:03:01.622Z</time></trkpt><trkpt lat="39.174309" lon="-3.0907681"><ele>660.3333333333334</ele><time>2026-04-19T11:03:02.623Z</time></trkpt><trkpt lat="39.1744788" lon="-3.0907873"><ele>659.6666666666666</ele><time>2026-04-19T11:03:03.616Z</time></trkpt><trkpt lat="39.1746692" lon="-3.0908144"><ele>659.0</ele><time>2026-04-19T11:03:04.624Z</time></trkpt><trkpt lat="39.1748621" lon="-3.0908562"><ele>659.0</ele><time>2026-04-19T11:03:05.624Z</time></trkpt><trkpt lat="39.1750395" lon="-3.0908952"><ele>659.0</ele><time>2026-04-19T11:03:06.622Z</time></trkpt><trkpt lat="39.1752137" lon="-3.0909335"><ele>659.0</ele><time>2026-04-19T11:03:07.616Z</time></trkpt><trkpt lat="39.1753875" lon="-3.090965"><ele>659.0</ele><time>2026-04-19T11:03:08.623Z</time></trkpt><trkpt lat="39.1755762" lon="-3.0909857"><ele>659.0</ele><time>2026-04-19T11:03:09.63Z</time></trkpt><trkpt lat="39.1757793" lon="-3.0910062"><ele>659.0</ele><time>2026-04-19T11:03:10.631Z</time></trkpt><trkpt lat="39.1759794" lon="-3.0910199"><ele>659.0</ele><time>2026-04-19T11:03:11.623Z</time></trkpt><trkpt lat="39.1761827" lon="-3.0910258"><ele>659.0</ele><time>2026-04-19T11:03:12.624Z</time></trkpt><trkpt lat="39.1764023" lon="-3.091027"><ele>659.0</ele><time>2026-04-19T11:03:13.623Z</time></trkpt><trkpt lat="39.1766356" lon="-3.0910377"><ele>659.0</ele><time>2026-04-19T11:03:14.621Z</time></trkpt><trkpt lat="39.176885" lon="-3.0910631"><ele>659.0</ele><time>2026-04-19T11:03:15.624Z</time></trkpt><trkpt lat="39.1771401" lon="-3.0910823"><ele>659.5</ele><time>2026-04-19T11:03:16.626Z</time></trkpt><trkpt lat="39.1773873" lon="-3.0910842"><ele>660.0</ele><time>2026-04-19T11:03:17.628Z</time></trkpt><trkpt lat="39.1776259" lon="-3.0910778"><ele>660.0</ele><time>2026-04-19T11:03:18.628Z</time></trkpt><trkpt lat="39.1778455" lon="-3.0910719"><ele>660.0</ele><time>2026-04-19T11:03:19.633Z</time></trkpt><trkpt lat="39.178047" lon="-3.091059"><ele>660.0</ele><time>2026-04-19T11:03:20.627Z</time></trkpt><trkpt lat="39.1782309" lon="-3.0910396"><ele>659.6666666666666</ele><time>2026-04-19T11:03:21.637Z</time></trkpt><trkpt lat="39.1784169" lon="-3.0910263"><ele>659.3333333333333</ele><time>2026-04-19T11:03:22.623Z</time></trkpt><trkpt lat="39.178622" lon="-3.0910202"><ele>659.0</ele><time>2026-04-19T11:03:23.626Z</time></trkpt><trkpt lat="39.1788474" lon="-3.0910382"><ele>659.3333333333333</ele><time>2026-04-19T11:03:24.625Z</time></trkpt><trkpt lat="39.1790655" lon="-3.0910527"><ele>659.6666666666666</ele><time>2026-04-19T11:03:25.631Z</time></trkpt><trkpt lat="39.1792691" lon="-3.0910734"><ele>660.0</ele><time>2026-04-19T11:03:26.641Z</time></trkpt><trkpt lat="39.1794555" lon="-3.0910962"><ele>660.0</ele><time>2026-04-19T11:03:27.628Z</time></trkpt><trkpt lat="39.1796439" lon="-3.091105"><ele>660.0</ele><time>2026-04-19T11:03:28.622Z</time></trkpt><trkpt lat="39.1798487" lon="-3.0911043"><ele>660.0</ele><time>2026-04-19T11:03:29.62Z</time></trkpt><trkpt lat="39.1800563" lon="-3.0910898"><ele>660.0</ele><time>2026-04-19T11:03:30.625Z</time></trkpt><trkpt lat="39.1802571" lon="-3.0910497"><ele>660.0</ele><time>2026-04-19T11:03:31.628Z</time></trkpt><trkpt lat="39.1804656" lon="-3.0909888"><ele>660.0</ele><time>2026-04-19T11:03:32.63Z</time></trkpt><trkpt lat="39.1806825" lon="-3.0909201"><ele>659.6666666666666</ele><time>2026-04-19T11:03:33.628Z</time></trkpt><trkpt lat="39.1808763" lon="-3.0908585"><ele>659.3333333333333</ele><time>2026-04-19T11:03:34.629Z</time></trkpt><trkpt lat="39.1810565" lon="-3.0908028"><ele>659.0</ele><time>2026-04-19T11:03:35.624Z</time></trkpt><trkpt lat="39.1812422" lon="-3.0907638"><ele>658.6666666666666</ele><time>2026-04-19T11:03:36.629Z</time></trkpt><trkpt lat="39.181411" lon="-3.0907192"><ele>658.3333333333334</ele><time>2026-04-19T11:03:37.621Z</time></trkpt><trkpt lat="39.1815714" lon="-3.0906812"><ele>658.0</ele><time>2026-04-19T11:03:38.618Z</time></trkpt><trkpt lat="39.1817183" lon="-3.0906512"><ele>658.6666666666667</ele><time>2026-04-19T11:03:39.625Z</time></trkpt><trkpt lat="39.1818602" lon="-3.0906216"><ele>659.3333333333334</ele><time>2026-04-19T11:03:40.629Z</time></trkpt><trkpt lat="39.1820225" lon="-3.0906108"><ele>660.0</ele><time>2026-04-19T11:03:41.628Z</time></trkpt><trkpt lat="39.1822152" lon="-3.0906088"><ele>659.6666666666666</ele><time>2026-04-19T11:03:42.625Z</time></trkpt><trkpt lat="39.1824189" lon="-3.0906245"><ele>659.3333333333333</ele><time>2026-04-19T11:03:43.626Z</time></trkpt><trkpt lat="39.1826295" lon="-3.0906181"><ele>659.0</ele><time>2026-04-19T11:03:44.621Z</time></trkpt><trkpt lat="39.1828667" lon="-3.0906122"><ele>659.0</ele><time>2026-04-19T11:03:45.625Z</time></trkpt><trkpt lat="39.1830967" lon="-3.0906023"><ele>659.0</ele><time>2026-04-19T11:03:46.635Z</time></trkpt><trkpt lat="39.1833077" lon="-3.0906"><ele>659.0</ele><time>2026-04-19T11:03:47.63Z</time></trkpt><trkpt lat="39.1835074" lon="-3.0905896"><ele>659.0</ele><time>2026-04-19T11:03:48.633Z</time></trkpt><trkpt lat="39.183725" lon="-3.0905772"><ele>659.0</ele><time>2026-04-19T11:03:49.627Z</time></trkpt><trkpt lat="39.1839502" lon="-3.0905711"><ele>659.0</ele><time>2026-04-19T11:03:50.628Z</time></trkpt><trkpt lat="39.1841658" lon="-3.0905577"><ele>659.0</ele><time>2026-04-19T11:03:51.623Z</time></trkpt><trkpt lat="39.1843833" lon="-3.0905302"><ele>659.0</ele><time>2026-04-19T11:03:52.624Z</time></trkpt><trkpt lat="39.1845762" lon="-3.0905084"><ele>659.0</ele><time>2026-04-19T11:03:53.644Z</time></trkpt><trkpt lat="39.1847563" lon="-3.0904937"><ele>658.6666666666666</ele><time>2026-04-19T11:03:54.63Z</time></trkpt><trkpt lat="39.1849146" lon="-3.0904874"><ele>658.3333333333334</ele><time>2026-04-19T11:03:55.618Z</time></trkpt><trkpt lat="39.1850761" lon="-3.0904707"><ele>658.0</ele><time>2026-04-19T11:03:56.624Z</time></trkpt><trkpt lat="39.1852073" lon="-3.0904616"><ele>658.0</ele><time>2026-04-19T11:03:57.628Z</time></trkpt><trkpt lat="39.1853228" lon="-3.09045"><ele>658.0</ele><time>2026-04-19T11:03:58.633Z</time></trkpt><trkpt lat="39.1854177" lon="-3.0904392"><ele>658.0</ele><time>2026-04-19T11:03:59.625Z</time></trkpt><trkpt lat="39.1854963" lon="-3.0904347"><ele>658.0</ele><time>2026-04-19T11:04:00.633Z</time></trkpt><trkpt lat="39.1855635" lon="-3.0904312"><ele>658.0</ele><time>2026-04-19T11:04:01.624Z</time></trkpt><trkpt lat="39.1856455" lon="-3.0904211"><ele>658.0</ele><time>2026-04-19T11:04:03.631Z</time></trkpt><trkpt lat="39.1857179" lon="-3.0904145"><ele>658.0</ele><time>2026-04-19T11:04:12.62Z</time></trkpt><trkpt lat="39.1858383" lon="-3.0904311"><ele>658.0</ele><time>2026-04-19T11:04:14.627Z</time></trkpt><trkpt lat="39.1859439" lon="-3.0904495"><ele>658.0</ele><time>2026-04-19T11:04:15.637Z</time></trkpt><trkpt lat="39.1860702" lon="-3.0904693"><ele>658.0</ele><time>2026-04-19T11:04:16.62Z</time></trkpt><trkpt lat="39.1862237" lon="-3.0905024"><ele>658.0</ele><time>2026-04-19T11:04:17.623Z</time></trkpt><trkpt lat="39.1863873" lon="-3.0905427"><ele>658.0</ele><time>2026-04-19T11:04:18.626Z</time></trkpt><trkpt lat="39.1865623" lon="-3.0905975"><ele>658.0</ele><time>2026-04-19T11:04:19.623Z</time></trkpt><trkpt lat="39.1867628" lon="-3.0906722"><ele>658.0</ele><time>2026-04-19T11:04:20.619Z</time></trkpt><trkpt lat="39.1869731" lon="-3.0907619"><ele>658.0</ele><time>2026-04-19T11:04:21.621Z</time></trkpt><trkpt lat="39.1871684" lon="-3.0908524"><ele>658.0</ele><time>2026-04-19T11:04:22.623Z</time></trkpt><trkpt lat="39.1873488" lon="-3.0909424"><ele>657.6666666666667</ele><time>2026-04-19T11:04:23.624Z</time></trkpt><trkpt lat="39.187517" lon="-3.0910395"><ele>657.3333333333334</ele><time>2026-04-19T11:04:24.618Z</time></trkpt><trkpt lat="39.1876767" lon="-3.0911457"><ele>657.0</ele><time>2026-04-19T11:04:25.617Z</time></trkpt><trkpt lat="39.1878325" lon="-3.0912516"><ele>657.0</ele><time>2026-04-19T11:04:26.622Z</time></trkpt><trkpt lat="39.1879903" lon="-3.0913614"><ele>657.0</ele><time>2026-04-19T11:04:27.624Z</time></trkpt><trkpt lat="39.188166" lon="-3.0914472"><ele>657.0</ele><time>2026-04-19T11:04:28.619Z</time></trkpt><trkpt lat="39.1883375" lon="-3.0915435"><ele>657.0</ele><time>2026-04-19T11:04:29.626Z</time></trkpt><trkpt lat="39.188513" lon="-3.0916336"><ele>657.0</ele><time>2026-04-19T11:04:30.623Z</time></trkpt><trkpt lat="39.1886922" lon="-3.0917174"><ele>657.0</ele><time>2026-04-19T11:04:31.629Z</time></trkpt><trkpt lat="39.1888786" lon="-3.0917965"><ele>657.0</ele><time>2026-04-19T11:04:32.631Z</time></trkpt><trkpt lat="39.1890547" lon="-3.0918743"><ele>657.0</ele><time>2026-04-19T11:04:33.633Z</time></trkpt><trkpt lat="39.1892166" lon="-3.0919371"><ele>657.0</ele><time>2026-04-19T11:04:34.628Z</time></trkpt><trkpt lat="39.1893696" lon="-3.0919848"><ele>657.0</ele><time>2026-04-19T11:04:35.621Z</time></trkpt><trkpt lat="39.1895346" lon="-3.0920117"><ele>657.0</ele><time>2026-04-19T11:04:36.621Z</time></trkpt><trkpt lat="39.1897022" lon="-3.0920167"><ele>657.0</ele><time>2026-04-19T11:04:37.622Z</time></trkpt><trkpt lat="39.1898506" lon="-3.0920164"><ele>657.2</ele><time>2026-04-19T11:04:38.618Z</time></trkpt><trkpt lat="39.1899766" lon="-3.0920141"><ele>657.4000000000001</ele><time>2026-04-19T11:04:39.631Z</time></trkpt><trkpt lat="39.19008" lon="-3.092011"><ele>657.5999999999999</ele><time>2026-04-19T11:04:40.632Z</time></trkpt><trkpt lat="39.1901699" lon="-3.092024"><ele>657.8</ele><time>2026-04-19T11:04:41.623Z</time></trkpt><trkpt lat="39.1902503" lon="-3.0920571"><ele>658.0</ele><time>2026-04-19T11:04:42.626Z</time></trkpt><trkpt lat="39.1903354" lon="-3.0921154"><ele>658.0</ele><time>2026-04-19T11:04:43.636Z</time></trkpt><trkpt lat="39.1904382" lon="-3.0922099"><ele>658.0</ele><time>2026-04-19T11:04:44.622Z</time></trkpt><trkpt lat="39.1905562" lon="-3.0923303"><ele>658.0</ele><time>2026-04-19T11:04:45.628Z</time></trkpt><trkpt lat="39.1906836" lon="-3.0924591"><ele>658.0</ele><time>2026-04-19T11:04:46.652Z</time></trkpt><trkpt lat="39.1908326" lon="-3.0926081"><ele>657.5</ele><time>2026-04-19T11:04:47.626Z</time></trkpt><trkpt lat="39.1910013" lon="-3.0927762"><ele>657.0</ele><time>2026-04-19T11:04:48.621Z</time></trkpt><trkpt lat="39.1911891" lon="-3.0929617"><ele>657.0</ele><time>2026-04-19T11:04:49.62Z</time></trkpt><trkpt lat="39.1913949" lon="-3.0931644"><ele>657.0</ele><time>2026-04-19T11:04:50.639Z</time></trkpt><trkpt lat="39.1916101" lon="-3.0933726"><ele>656.5</ele><time>2026-04-19T11:04:51.625Z</time></trkpt><trkpt lat="39.1918256" lon="-3.0935709"><ele>656.0</ele><time>2026-04-19T11:04:52.632Z</time></trkpt><trkpt lat="39.1920507" lon="-3.0937954"><ele>656.0</ele><time>2026-04-19T11:04:53.63Z</time></trkpt><trkpt lat="39.1922705" lon="-3.094012"><ele>656.0</ele><time>2026-04-19T11:04:54.631Z</time></trkpt><trkpt lat="39.1924695" lon="-3.094215"><ele>656.0</ele><time>2026-04-19T11:04:55.626Z</time></trkpt><trkpt lat="39.1926562" lon="-3.0943989"><ele>656.0</ele><time>2026-04-19T11:04:56.617Z</time></trkpt><trkpt lat="39.1928351" lon="-3.0945752"><ele>656.0</ele><time>2026-04-19T11:04:57.621Z</time></trkpt><trkpt lat="39.1930135" lon="-3.0947555"><ele>656.0</ele><time>2026-04-19T11:04:58.628Z</time></trkpt><trkpt lat="39.1931829" lon="-3.0949238"><ele>656.0</ele><time>2026-04-19T11:04:59.628Z</time></trkpt><trkpt lat="39.1933446" lon="-3.0950824"><ele>656.0</ele><time>2026-04-19T11:05:00.625Z</time></trkpt><trkpt lat="39.1934949" lon="-3.0952311"><ele>656.0</ele><time>2026-04-19T11:05:01.626Z</time></trkpt><trkpt lat="39.1936313" lon="-3.0953673"><ele>656.0</ele><time>2026-04-19T11:05:02.627Z</time></trkpt><trkpt lat="39.1937562" lon="-3.0954901"><ele>656.0</ele><time>2026-04-19T11:05:03.626Z</time></trkpt><trkpt lat="39.1938717" lon="-3.0956099"><ele>656.0</ele><time>2026-04-19T11:05:04.622Z</time></trkpt><trkpt lat="39.1939648" lon="-3.0957375"><ele>656.0</ele><time>2026-04-19T11:05:05.637Z</time></trkpt><trkpt lat="39.1940443" lon="-3.0958959"><ele>656.0</ele><time>2026-04-19T11:05:06.65Z</time></trkpt><trkpt lat="39.1941222" lon="-3.0960784"><ele>655.6666666666666</ele><time>2026-04-19T11:05:07.638Z</time></trkpt><trkpt lat="39.1942139" lon="-3.0962702"><ele>655.3333333333334</ele><time>2026-04-19T11:05:08.626Z</time></trkpt><trkpt lat="39.1943219" lon="-3.0964594"><ele>655.0</ele><time>2026-04-19T11:05:09.618Z</time></trkpt><trkpt lat="39.1944563" lon="-3.0966524"><ele>655.0</ele><time>2026-04-19T11:05:10.629Z</time></trkpt><trkpt lat="39.1945999" lon="-3.0968421"><ele>655.0</ele><time>2026-04-19T11:05:11.635Z</time></trkpt><trkpt lat="39.1947387" lon="-3.0970105"><ele>655.0</ele><time>2026-04-19T11:05:12.621Z</time></trkpt><trkpt lat="39.1948738" lon="-3.0971662"><ele>655.0</ele><time>2026-04-19T11:05:13.619Z</time></trkpt><trkpt lat="39.1950086" lon="-3.0973023"><ele>655.0</ele><time>2026-04-19T11:05:14.621Z</time></trkpt><trkpt lat="39.1951297" lon="-3.0974152"><ele>655.0</ele><time>2026-04-19T11:05:15.629Z</time></trkpt><trkpt lat="39.1952359" lon="-3.0975075"><ele>655.0</ele><time>2026-04-19T11:05:16.619Z</time></trkpt><trkpt lat="39.1953411" lon="-3.0976059"><ele>655.0</ele><time>2026-04-19T11:05:17.611Z</time></trkpt><trkpt lat="39.1954309" lon="-3.0977309"><ele>655.0</ele><time>2026-04-19T11:05:18.621Z</time></trkpt><trkpt lat="39.1955156" lon="-3.097899"><ele>655.0</ele><time>2026-04-19T11:05:19.623Z</time></trkpt><trkpt lat="39.1956113" lon="-3.0980977"><ele>655.6666666666667</ele><time>2026-04-19T11:05:20.623Z</time></trkpt><trkpt lat="39.1957109" lon="-3.0982989"><ele>656.3333333333334</ele><time>2026-04-19T11:05:21.621Z</time></trkpt><trkpt lat="39.1958078" lon="-3.0984691"><ele>657.0</ele><time>2026-04-19T11:05:22.623Z</time></trkpt><trkpt lat="39.1959074" lon="-3.0986101"><ele>657.0</ele><time>2026-04-19T11:05:23.616Z</time></trkpt><trkpt lat="39.1960124" lon="-3.0987371"><ele>657.0</ele><time>2026-04-19T11:05:24.623Z</time></trkpt><trkpt lat="39.1961134" lon="-3.0988495"><ele>657.0</ele><time>2026-04-19T11:05:25.634Z</time></trkpt><trkpt lat="39.1962134" lon="-3.0989434"><ele>657.0</ele><time>2026-04-19T11:05:26.632Z</time></trkpt><trkpt lat="39.196313" lon="-3.0990117"><ele>657.0</ele><time>2026-04-19T11:05:27.613Z</time></trkpt><trkpt lat="39.1964377" lon="-3.0990694"><ele>657.0</ele><time>2026-04-19T11:05:28.618Z</time></trkpt><trkpt lat="39.1965848" lon="-3.0991249"><ele>657.0</ele><time>2026-04-19T11:05:29.618Z</time></trkpt><trkpt lat="39.196745" lon="-3.0991911"><ele>656.75</ele><time>2026-04-19T11:05:30.629Z</time></trkpt><trkpt lat="39.1968876" lon="-3.0992522"><ele>656.5</ele><time>2026-04-19T11:05:31.624Z</time></trkpt><trkpt lat="39.1970164" lon="-3.0993107"><ele>656.25</ele><time>2026-04-19T11:05:32.633Z</time></trkpt><trkpt lat="39.1971266" lon="-3.0993674"><ele>656.0</ele><time>2026-04-19T11:05:33.625Z</time></trkpt><trkpt lat="39.1972247" lon="-3.0994368"><ele>656.0</ele><time>2026-04-19T11:05:34.628Z</time></trkpt><trkpt lat="39.1973122" lon="-3.0995132"><ele>656.0</ele><time>2026-04-19T11:05:35.617Z</time></trkpt><trkpt lat="39.1973814" lon="-3.0995848"><ele>656.0</ele><time>2026-04-19T11:05:36.614Z</time></trkpt><trkpt lat="39.1974491" lon="-3.0996329"><ele>656.0</ele><time>2026-04-19T11:05:37.616Z</time></trkpt><trkpt lat="39.1975198" lon="-3.0996587"><ele>656.0</ele><time>2026-04-19T11:05:38.617Z</time></trkpt><trkpt lat="39.1975999" lon="-3.0996956"><ele>656.0</ele><time>2026-04-19T11:05:39.626Z</time></trkpt><trkpt lat="39.1976584" lon="-3.0997425"><ele>656.0</ele><time>2026-04-19T11:05:40.614Z</time></trkpt><trkpt lat="39.1977208" lon="-3.0998878"><ele>656.0</ele><time>2026-04-19T11:05:42.614Z</time></trkpt><trkpt lat="39.1977379" lon="-3.0999785"><ele>656.0</ele><time>2026-04-19T11:05:43.626Z</time></trkpt><trkpt lat="39.197781" lon="-3.1000554"><ele>656.0</ele><time>2026-04-19T11:05:45.616Z</time></trkpt><trkpt lat="39.1979027" lon="-3.1000378"><ele>656.0</ele><time>2026-04-19T11:05:47.622Z</time></trkpt><trkpt lat="39.198009" lon="-3.0999964"><ele>656.25</ele><time>2026-04-19T11:05:48.621Z</time></trkpt><trkpt lat="39.1981452" lon="-3.0999503"><ele>656.5</ele><time>2026-04-19T11:05:49.626Z</time></trkpt><trkpt lat="39.1982986" lon="-3.09991"><ele>656.75</ele><time>2026-04-19T11:05:50.624Z</time></trkpt><trkpt lat="39.1984442" lon="-3.099875"><ele>657.0</ele><time>2026-04-19T11:05:51.62Z</time></trkpt><trkpt lat="39.1985806" lon="-3.0998394"><ele>657.0</ele><time>2026-04-19T11:05:52.628Z</time></trkpt><trkpt lat="39.1987062" lon="-3.0998015"><ele>657.0</ele><time>2026-04-19T11:05:53.636Z</time></trkpt><trkpt lat="39.1989362" lon="-3.0997242"><ele>657.0</ele><time>2026-04-19T11:05:55.62Z</time></trkpt><trkpt lat="39.1990627" lon="-3.0996787"><ele>656.75</ele><time>2026-04-19T11:05:56.612Z</time></trkpt><trkpt lat="39.1991911" lon="-3.0996332"><ele>656.5</ele><time>2026-04-19T11:05:57.628Z</time></trkpt><trkpt lat="39.1993098" lon="-3.0995864"><ele>656.25</ele><time>2026-04-19T11:05:58.628Z</time></trkpt><trkpt lat="39.1994154" lon="-3.0995446"><ele>656.0</ele><time>2026-04-19T11:05:59.622Z</time></trkpt><trkpt lat="39.1995018" lon="-3.0995175"><ele>656.0</ele><time>2026-04-19T11:06:00.625Z</time></trkpt><trkpt lat="39.1995797" lon="-3.0994997"><ele>656.0</ele><time>2026-04-19T11:06:01.612Z</time></trkpt><trkpt lat="39.1996574" lon="-3.099468"><ele>656.0</ele><time>2026-04-19T11:06:02.616Z</time></trkpt><trkpt lat="39.1997495" lon="-3.0994122"><ele>656.0</ele><time>2026-04-19T11:06:03.628Z</time></trkpt><trkpt lat="39.199859" lon="-3.0993441"><ele>656.0</ele><time>2026-04-19T11:06:04.618Z</time></trkpt><trkpt lat="39.1999835" lon="-3.0992758"><ele>655.75</ele><time>2026-04-19T11:06:05.614Z</time></trkpt><trkpt lat="39.2001272" lon="-3.0991888"><ele>655.5</ele><time>2026-04-19T11:06:06.621Z</time></trkpt><trkpt lat="39.2002676" lon="-3.0991025"><ele>655.25</ele><time>2026-04-19T11:06:07.619Z</time></trkpt><trkpt lat="39.2003869" lon="-3.0990209"><ele>655.0</ele><time>2026-04-19T11:06:08.621Z</time></trkpt><trkpt lat="39.200489" lon="-3.0989453"><ele>655.25</ele><time>2026-04-19T11:06:09.62Z</time></trkpt><trkpt lat="39.2005978" lon="-3.098867"><ele>655.5</ele><time>2026-04-19T11:06:10.623Z</time></trkpt><trkpt lat="39.2007192" lon="-3.0987691"><ele>655.75</ele><time>2026-04-19T11:06:11.618Z</time></trkpt><trkpt lat="39.2008517" lon="-3.0986603"><ele>656.0</ele><time>2026-04-19T11:06:12.615Z</time></trkpt><trkpt lat="39.2009936" lon="-3.0985481"><ele>656.0</ele><time>2026-04-19T11:06:13.618Z</time></trkpt><trkpt lat="39.2011328" lon="-3.0984465"><ele>656.0</ele><time>2026-04-19T11:06:14.623Z</time></trkpt><trkpt lat="39.2012678" lon="-3.0983527"><ele>656.0</ele><time>2026-04-19T11:06:15.618Z</time></trkpt><trkpt lat="39.2013915" lon="-3.0982767"><ele>656.0</ele><time>2026-04-19T11:06:16.615Z</time></trkpt><trkpt lat="39.2015068" lon="-3.0982078"><ele>656.0</ele><time>2026-04-19T11:06:17.625Z</time></trkpt><trkpt lat="39.2016267" lon="-3.0981464"><ele>656.0</ele><time>2026-04-19T11:06:18.614Z</time></trkpt><trkpt lat="39.2017654" lon="-3.0980914"><ele>656.0</ele><time>2026-04-19T11:06:19.622Z</time></trkpt><trkpt lat="39.2019248" lon="-3.0980324"><ele>656.0</ele><time>2026-04-19T11:06:20.614Z</time></trkpt><trkpt lat="39.2020761" lon="-3.0979815"><ele>656.0</ele><time>2026-04-19T11:06:21.615Z</time></trkpt><trkpt lat="39.202226" lon="-3.0979354"><ele>656.0</ele><time>2026-04-19T11:06:22.613Z</time></trkpt><trkpt lat="39.2023789" lon="-3.0978975"><ele>655.5</ele><time>2026-04-19T11:06:23.634Z</time></trkpt><trkpt lat="39.2025324" lon="-3.0978689"><ele>655.0</ele><time>2026-04-19T11:06:24.611Z</time></trkpt><trkpt lat="39.202672" lon="-3.0978471"><ele>654.5</ele><time>2026-04-19T11:06:25.618Z</time></trkpt><trkpt lat="39.2027901" lon="-3.0978363"><ele>654.0</ele><time>2026-04-19T11:06:26.629Z</time></trkpt><trkpt lat="39.2029014" lon="-3.0978245"><ele>654.0</ele><time>2026-04-19T11:06:27.623Z</time></trkpt><trkpt lat="39.203015" lon="-3.0978247"><ele>654.0</ele><time>2026-04-19T11:06:28.619Z</time></trkpt><trkpt lat="39.2031509" lon="-3.0978123"><ele>654.0</ele><time>2026-04-19T11:06:29.619Z</time></trkpt><trkpt lat="39.2033039" lon="-3.0978021"><ele>654.0</ele><time>2026-04-19T11:06:30.621Z</time></trkpt><trkpt lat="39.2034753" lon="-3.0978014"><ele>654.0</ele><time>2026-04-19T11:06:31.617Z</time></trkpt><trkpt lat="39.2036709" lon="-3.0978065"><ele>654.0</ele><time>2026-04-19T11:06:32.626Z</time></trkpt><trkpt lat="39.2038649" lon="-3.0978107"><ele>654.0</ele><time>2026-04-19T11:06:33.617Z</time></trkpt><trkpt lat="39.2040474" lon="-3.0978109"><ele>654.0</ele><time>2026-04-19T11:06:34.612Z</time></trkpt><trkpt lat="39.2042196" lon="-3.0978172"><ele>654.0</ele><time>2026-04-19T11:06:35.616Z</time></trkpt><trkpt lat="39.2043947" lon="-3.0978217"><ele>654.0</ele><time>2026-04-19T11:06:36.616Z</time></trkpt><trkpt lat="39.2045605" lon="-3.0978256"><ele>654.0</ele><time>2026-04-19T11:06:37.618Z</time></trkpt><trkpt lat="39.2047346" lon="-3.0978334"><ele>654.0</ele><time>2026-04-19T11:06:38.617Z</time></trkpt><trkpt lat="39.2049098" lon="-3.097841"><ele>654.0</ele><time>2026-04-19T11:06:39.615Z</time></trkpt><trkpt lat="39.2050866" lon="-3.0978424"><ele>654.3333333333334</ele><time>2026-04-19T11:06:40.614Z</time></trkpt><trkpt lat="39.2052735" lon="-3.0978567"><ele>654.6666666666667</ele><time>2026-04-19T11:06:41.616Z</time></trkpt><trkpt lat="39.2054844" lon="-3.097865"><ele>655.0</ele><time>2026-04-19T11:06:42.611Z</time></trkpt><trkpt lat="39.2057006" lon="-3.097872"><ele>655.0</ele><time>2026-04-19T11:06:43.615Z</time></trkpt><trkpt lat="39.2058954" lon="-3.0978758"><ele>655.0</ele><time>2026-04-19T11:06:44.622Z</time></trkpt><trkpt lat="39.2060683" lon="-3.0978776"><ele>655.0</ele><time>2026-04-19T11:06:45.624Z</time></trkpt><trkpt lat="39.2062399" lon="-3.0978828"><ele>655.0</ele><time>2026-04-19T11:06:46.623Z</time></trkpt><trkpt lat="39.2064285" lon="-3.0978898"><ele>655.0</ele><time>2026-04-19T11:06:47.619Z</time></trkpt><trkpt lat="39.2066382" lon="-3.0978967"><ele>655.0</ele><time>2026-04-19T11:06:48.622Z</time></trkpt><trkpt lat="39.2068632" lon="-3.097907"><ele>654.0</ele><time>2026-04-19T11:06:49.62Z</time></trkpt><trkpt lat="39.2071098" lon="-3.097916"><ele>653.0</ele><time>2026-04-19T11:06:50.61Z</time></trkpt><trkpt lat="39.2073462" lon="-3.097929"><ele>653.0</ele><time>2026-04-19T11:06:51.617Z</time></trkpt><trkpt lat="39.2075716" lon="-3.097938"><ele>653.0</ele><time>2026-04-19T11:06:52.626Z</time></trkpt><trkpt lat="39.2077912" lon="-3.0979458"><ele>653.0</ele><time>2026-04-19T11:06:53.619Z</time></trkpt><trkpt lat="39.2079948" lon="-3.0979516"><ele>653.0</ele><time>2026-04-19T11:06:54.617Z</time></trkpt><trkpt lat="39.2081884" lon="-3.0979584"><ele>653.0</ele><time>2026-04-19T11:06:55.622Z</time></trkpt><trkpt lat="39.2083856" lon="-3.0979649"><ele>653.0</ele><time>2026-04-19T11:06:56.623Z</time></trkpt><trkpt lat="39.208584" lon="-3.0979689"><ele>653.0</ele><time>2026-04-19T11:06:57.62Z</time></trkpt><trkpt lat="39.2087685" lon="-3.0979791"><ele>653.0</ele><time>2026-04-19T11:06:58.628Z</time></trkpt><trkpt lat="39.2089527" lon="-3.0979853"><ele>653.0</ele><time>2026-04-19T11:06:59.625Z</time></trkpt><trkpt lat="39.2091096" lon="-3.0979913"><ele>653.0</ele><time>2026-04-19T11:07:00.617Z</time></trkpt><trkpt lat="39.2092496" lon="-3.0979928"><ele>653.0</ele><time>2026-04-19T11:07:01.623Z</time></trkpt><trkpt lat="39.2094063" lon="-3.0979936"><ele>653.0</ele><time>2026-04-19T11:07:02.624Z</time></trkpt><trkpt lat="39.2095841" lon="-3.0979995"><ele>653.0</ele><time>2026-04-19T11:07:03.615Z</time></trkpt><trkpt lat="39.2097879" lon="-3.0980043"><ele>653.0</ele><time>2026-04-19T11:07:04.623Z</time></trkpt><trkpt lat="39.2099855" lon="-3.0980068"><ele>653.0</ele><time>2026-04-19T11:07:05.618Z</time></trkpt><trkpt lat="39.2101879" lon="-3.0980109"><ele>652.6666666666666</ele><time>2026-04-19T11:07:06.625Z</time></trkpt><trkpt lat="39.2103766" lon="-3.0980164"><ele>652.3333333333334</ele><time>2026-04-19T11:07:07.621Z</time></trkpt><trkpt lat="39.2105446" lon="-3.0980224"><ele>652.0</ele><time>2026-04-19T11:07:08.625Z</time></trkpt><trkpt lat="39.2107018" lon="-3.098035"><ele>652.0</ele><time>2026-04-19T11:07:09.621Z</time></trkpt><trkpt lat="39.2108538" lon="-3.0980404"><ele>652.0</ele><time>2026-04-19T11:07:10.622Z</time></trkpt><trkpt lat="39.211005" lon="-3.0980417"><ele>652.0</ele><time>2026-04-19T11:07:11.623Z</time></trkpt><trkpt lat="39.2111415" lon="-3.0980462"><ele>652.0</ele><time>2026-04-19T11:07:12.616Z</time></trkpt><trkpt lat="39.2112579" lon="-3.0980495"><ele>652.0</ele><time>2026-04-19T11:07:13.618Z</time></trkpt><trkpt lat="39.2113635" lon="-3.0980552"><ele>652.0</ele><time>2026-04-19T11:07:14.618Z</time></trkpt><trkpt lat="39.2114824" lon="-3.0980496"><ele>652.0</ele><time>2026-04-19T11:07:15.619Z</time></trkpt><trkpt lat="39.2116174" lon="-3.0980489"><ele>652.0</ele><time>2026-04-19T11:07:16.608Z</time></trkpt><trkpt lat="39.2117579" lon="-3.0980528"><ele>652.0</ele><time>2026-04-19T11:07:17.611Z</time></trkpt><trkpt lat="39.2118831" lon="-3.098055"><ele>652.0</ele><time>2026-04-19T11:07:18.617Z</time></trkpt><trkpt lat="39.2119948" lon="-3.0980642"><ele>652.0</ele><time>2026-04-19T11:07:19.622Z</time></trkpt><trkpt lat="39.2120994" lon="-3.0980614"><ele>652.0</ele><time>2026-04-19T11:07:20.612Z</time></trkpt><trkpt lat="39.2122048" lon="-3.0980603"><ele>652.0</ele><time>2026-04-19T11:07:21.623Z</time></trkpt><trkpt lat="39.2123313" lon="-3.0980637"><ele>652.0</ele><time>2026-04-19T11:07:22.616Z</time></trkpt><trkpt lat="39.2124729" lon="-3.0980567"><ele>652.0</ele><time>2026-04-19T11:07:23.62Z</time></trkpt><trkpt lat="39.2126221" lon="-3.0980497"><ele>652.0</ele><time>2026-04-19T11:07:24.622Z</time></trkpt><trkpt lat="39.2127854" lon="-3.0980472"><ele>652.0</ele><time>2026-04-19T11:07:25.624Z</time></trkpt><trkpt lat="39.2129371" lon="-3.0980498"><ele>652.0</ele><time>2026-04-19T11:07:26.618Z</time></trkpt><trkpt lat="39.2130765" lon="-3.0980539"><ele>652.0</ele><time>2026-04-19T11:07:27.613Z</time></trkpt><trkpt lat="39.2132067" lon="-3.0980497"><ele>652.0</ele><time>2026-04-19T11:07:28.616Z</time></trkpt><trkpt lat="39.2133411" lon="-3.0980382"><ele>652.2</ele><time>2026-04-19T11:07:29.623Z</time></trkpt><trkpt lat="39.2134648" lon="-3.0980255"><ele>652.4000000000001</ele><time>2026-04-19T11:07:30.618Z</time></trkpt><trkpt lat="39.2135694" lon="-3.0980175"><ele>652.5999999999999</ele><time>2026-04-19T11:07:31.62Z</time></trkpt><trkpt lat="39.213658" lon="-3.0980186"><ele>652.8</ele><time>2026-04-19T11:07:32.62Z</time></trkpt><trkpt lat="39.2137362" lon="-3.0980337"><ele>653.0</ele><time>2026-04-19T11:07:33.621Z</time></trkpt><trkpt lat="39.2138015" lon="-3.0980707"><ele>653.0</ele><time>2026-04-19T11:07:34.622Z</time></trkpt><trkpt lat="39.2138628" lon="-3.0981361"><ele>653.0</ele><time>2026-04-19T11:07:35.622Z</time></trkpt><trkpt lat="39.2139218" lon="-3.0982344"><ele>653.0</ele><time>2026-04-19T11:07:36.624Z</time></trkpt><trkpt lat="39.2139807" lon="-3.0983515"><ele>653.0</ele><time>2026-04-19T11:07:37.618Z</time></trkpt><trkpt lat="39.2140275" lon="-3.0985087"><ele>653.0</ele><time>2026-04-19T11:07:38.623Z</time></trkpt><trkpt lat="39.2140696" lon="-3.0987031"><ele>653.3333333333333</ele><time>2026-04-19T11:07:39.617Z</time></trkpt><trkpt lat="39.2141184" lon="-3.0989303"><ele>653.6666666666666</ele><time>2026-04-19T11:07:40.626Z</time></trkpt><trkpt lat="39.21416" lon="-3.0991396"><ele>654.0</ele><time>2026-04-19T11:07:41.616Z</time></trkpt><trkpt lat="39.2141979" lon="-3.0993404"><ele>654.0</ele><time>2026-04-19T11:07:42.616Z</time></trkpt><trkpt lat="39.2142239" lon="-3.0995437"><ele>654.0</ele><time>2026-04-19T11:07:43.619Z</time></trkpt><trkpt lat="39.214237" lon="-3.0997791"><ele>654.0</ele><time>2026-04-19T11:07:44.621Z</time></trkpt><trkpt lat="39.2142367" lon="-3.1000489"><ele>654.5</ele><time>2026-04-19T11:07:45.626Z</time></trkpt><trkpt lat="39.2142304" lon="-3.1003535"><ele>655.0</ele><time>2026-04-19T11:07:46.625Z</time></trkpt><trkpt lat="39.2142278" lon="-3.1006751"><ele>655.0</ele><time>2026-04-19T11:07:47.623Z</time></trkpt><trkpt lat="39.2142335" lon="-3.1009784"><ele>655.0</ele><time>2026-04-19T11:07:48.622Z</time></trkpt><trkpt lat="39.2142431" lon="-3.1012426"><ele>655.0</ele><time>2026-04-19T11:07:49.616Z</time></trkpt><trkpt lat="39.2142574" lon="-3.1014726"><ele>655.3333333333334</ele><time>2026-04-19T11:07:50.616Z</time></trkpt><trkpt lat="39.2142779" lon="-3.1016625"><ele>655.6666666666666</ele><time>2026-04-19T11:07:51.621Z</time></trkpt><trkpt lat="39.2143118" lon="-3.1018495"><ele>656.0</ele><time>2026-04-19T11:07:52.629Z</time></trkpt><trkpt lat="39.2143744" lon="-3.1020586"><ele>656.0</ele><time>2026-04-19T11:07:53.62Z</time></trkpt><trkpt lat="39.2144688" lon="-3.1022905"><ele>656.0</ele><time>2026-04-19T11:07:54.62Z</time></trkpt><trkpt lat="39.2145862" lon="-3.1025432"><ele>656.0</ele><time>2026-04-19T11:07:55.621Z</time></trkpt><trkpt lat="39.2146999" lon="-3.102783"><ele>656.0</ele><time>2026-04-19T11:07:56.623Z</time></trkpt><trkpt lat="39.2147992" lon="-3.1029911"><ele>656.0</ele><time>2026-04-19T11:07:57.618Z</time></trkpt><trkpt lat="39.2148879" lon="-3.1031726"><ele>656.0</ele><time>2026-04-19T11:07:58.617Z</time></trkpt><trkpt lat="39.2149587" lon="-3.1033269"><ele>655.75</ele><time>2026-04-19T11:07:59.624Z</time></trkpt><trkpt lat="39.2150105" lon="-3.1034818"><ele>655.5</ele><time>2026-04-19T11:08:00.62Z</time></trkpt><trkpt lat="39.2150621" lon="-3.103657"><ele>655.25</ele><time>2026-04-19T11:08:01.616Z</time></trkpt><trkpt lat="39.2150836" lon="-3.1038443"><ele>655.0</ele><time>2026-04-19T11:08:02.616Z</time></trkpt><trkpt lat="39.2150961" lon="-3.103999"><ele>655.0</ele><time>2026-04-19T11:08:03.62Z</time></trkpt><trkpt lat="39.2151061" lon="-3.1041308"><ele>655.0</ele><time>2026-04-19T11:08:04.613Z</time></trkpt><trkpt lat="39.2151197" lon="-3.104248"><ele>655.0</ele><time>2026-04-19T11:08:05.619Z</time></trkpt><trkpt lat="39.2151452" lon="-3.1043439"><ele>655.0</ele><time>2026-04-19T11:08:06.616Z</time></trkpt><trkpt lat="39.2151933" lon="-3.1044466"><ele>655.0</ele><time>2026-04-19T11:08:07.623Z</time></trkpt><trkpt lat="39.215291" lon="-3.1045569"><ele>655.0</ele><time>2026-04-19T11:08:08.616Z</time></trkpt><trkpt lat="39.2154186" lon="-3.1046913"><ele>655.0</ele><time>2026-04-19T11:08:09.618Z</time></trkpt><trkpt lat="39.2155663" lon="-3.1048362"><ele>655.0</ele><time>2026-04-19T11:08:10.621Z</time></trkpt><trkpt lat="39.2157379" lon="-3.1049895"><ele>655.5</ele><time>2026-04-19T11:08:11.614Z</time></trkpt><trkpt lat="39.2159262" lon="-3.1051452"><ele>656.0</ele><time>2026-04-19T11:08:12.616Z</time></trkpt><trkpt lat="39.2161249" lon="-3.1053086"><ele>656.0</ele><time>2026-04-19T11:08:13.625Z</time></trkpt><trkpt lat="39.2163627" lon="-3.105455"><ele>656.0</ele><time>2026-04-19T11:08:14.615Z</time></trkpt><trkpt lat="39.2166237" lon="-3.1055953"><ele>656.5</ele><time>2026-04-19T11:08:15.617Z</time></trkpt><trkpt lat="39.2168713" lon="-3.1057445"><ele>657.0</ele><time>2026-04-19T11:08:16.621Z</time></trkpt><trkpt lat="39.2170782" lon="-3.1058934"><ele>656.6666666666666</ele><time>2026-04-19T11:08:17.611Z</time></trkpt><trkpt lat="39.217256" lon="-3.106023"><ele>656.3333333333333</ele><time>2026-04-19T11:08:18.614Z</time></trkpt><trkpt lat="39.2174263" lon="-3.1061318"><ele>656.0</ele><time>2026-04-19T11:08:19.615Z</time></trkpt><trkpt lat="39.2175762" lon="-3.1062343"><ele>656.0</ele><time>2026-04-19T11:08:20.621Z</time></trkpt><trkpt lat="39.2177643" lon="-3.1063205"><ele>656.0</ele><time>2026-04-19T11:08:21.616Z</time></trkpt><trkpt lat="39.2179822" lon="-3.1064115"><ele>656.0</ele><time>2026-04-19T11:08:22.61Z</time></trkpt><trkpt lat="39.2182277" lon="-3.1065277"><ele>655.5</ele><time>2026-04-19T11:08:23.619Z</time></trkpt><trkpt lat="39.2184838" lon="-3.1066768"><ele>655.0</ele><time>2026-04-19T11:08:24.616Z</time></trkpt><trkpt lat="39.2187522" lon="-3.1068428"><ele>654.5</ele><time>2026-04-19T11:08:25.625Z</time></trkpt><trkpt lat="39.2190152" lon="-3.10702"><ele>654.0</ele><time>2026-04-19T11:08:26.62Z</time></trkpt><trkpt lat="39.2192623" lon="-3.1071922"><ele>654.0</ele><time>2026-04-19T11:08:27.616Z</time></trkpt><trkpt lat="39.2194822" lon="-3.1073449"><ele>654.0</ele><time>2026-04-19T11:08:28.611Z</time></trkpt><trkpt lat="39.2196728" lon="-3.1074847"><ele>653.6666666666666</ele><time>2026-04-19T11:08:29.615Z</time></trkpt><trkpt lat="39.2198482" lon="-3.1076175"><ele>653.3333333333333</ele><time>2026-04-19T11:08:30.616Z</time></trkpt><trkpt lat="39.2200356" lon="-3.1077562"><ele>653.0</ele><time>2026-04-19T11:08:31.618Z</time></trkpt><trkpt lat="39.2202467" lon="-3.1078994"><ele>653.0</ele><time>2026-04-19T11:08:32.614Z</time></trkpt><trkpt lat="39.2204773" lon="-3.1080517"><ele>653.0</ele><time>2026-04-19T11:08:33.622Z</time></trkpt><trkpt lat="39.2206985" lon="-3.1081906"><ele>653.0</ele><time>2026-04-19T11:08:34.622Z</time></trkpt><trkpt lat="39.220891" lon="-3.1083131"><ele>653.0</ele><time>2026-04-19T11:08:35.621Z</time></trkpt><trkpt lat="39.2210622" lon="-3.1084227"><ele>653.0</ele><time>2026-04-19T11:08:36.618Z</time></trkpt><trkpt lat="39.221197" lon="-3.108527"><ele>653.0</ele><time>2026-04-19T11:08:37.62Z</time></trkpt><trkpt lat="39.2213191" lon="-3.1086523"><ele>653.0</ele><time>2026-04-19T11:08:38.62Z</time></trkpt><trkpt lat="39.2214156" lon="-3.1087702"><ele>653.0</ele><time>2026-04-19T11:08:39.624Z</time></trkpt><trkpt lat="39.2214941" lon="-3.1088703"><ele>653.0</ele><time>2026-04-19T11:08:40.613Z</time></trkpt><trkpt lat="39.2215553" lon="-3.1089466"><ele>653.0</ele><time>2026-04-19T11:08:41.617Z</time></trkpt><trkpt lat="39.2216379" lon="-3.1090139"><ele>653.0</ele><time>2026-04-19T11:08:43.615Z</time></trkpt><trkpt lat="39.2215646" lon="-3.108952"><ele>653.0</ele><time>2026-04-19T11:09:05.619Z</time></trkpt><trkpt lat="39.2215056" lon="-3.1088854"><ele>653.0</ele><time>2026-04-19T11:09:06.623Z</time></trkpt><trkpt lat="39.2214351" lon="-3.1088026"><ele>653.0</ele><time>2026-04-19T11:09:07.623Z</time></trkpt><trkpt lat="39.221359" lon="-3.1086967"><ele>653.0</ele><time>2026-04-19T11:09:08.625Z</time></trkpt><trkpt lat="39.2212612" lon="-3.1085834"><ele>653.0</ele><time>2026-04-19T11:09:09.618Z</time></trkpt><trkpt lat="39.2211391" lon="-3.1084758"><ele>653.0</ele><time>2026-04-19T11:09:10.625Z</time></trkpt><trkpt lat="39.2209867" lon="-3.1083713"><ele>653.0</ele><time>2026-04-19T11:09:11.618Z</time></trkpt><trkpt lat="39.220806" lon="-3.1082551"><ele>653.0</ele><time>2026-04-19T11:09:12.62Z</time></trkpt><trkpt lat="39.2206174" lon="-3.1081368"><ele>653.0</ele><time>2026-04-19T11:09:13.619Z</time></trkpt><trkpt lat="39.2204538" lon="-3.1080327"><ele>653.0</ele><time>2026-04-19T11:09:14.617Z</time></trkpt><trkpt lat="39.2203109" lon="-3.1079387"><ele>653.0</ele><time>2026-04-19T11:09:15.617Z</time></trkpt><trkpt lat="39.2201896" lon="-3.10786"><ele>653.0</ele><time>2026-04-19T11:09:16.62Z</time></trkpt><trkpt lat="39.2200881" lon="-3.10779"><ele>653.0</ele><time>2026-04-19T11:09:17.621Z</time></trkpt><trkpt lat="39.2200005" lon="-3.1077279"><ele>653.0</ele><time>2026-04-19T11:09:18.62Z</time></trkpt><trkpt lat="39.2199237" lon="-3.1076707"><ele>653.0</ele><time>2026-04-19T11:09:19.623Z</time></trkpt><trkpt lat="39.2198415" lon="-3.1076036"><ele>653.0</ele><time>2026-04-19T11:09:20.622Z</time></trkpt><trkpt lat="39.2197412" lon="-3.1075233"><ele>653.0</ele><time>2026-04-19T11:09:21.622Z</time></trkpt><trkpt lat="39.2196186" lon="-3.1074325"><ele>653.0</ele><time>2026-04-19T11:09:22.615Z</time></trkpt><trkpt lat="39.2194865" lon="-3.1073412"><ele>653.3333333333333</ele><time>2026-04-19T11:09:23.619Z</time></trkpt><trkpt lat="39.2193523" lon="-3.1072512"><ele>653.6666666666666</ele><time>2026-04-19T11:09:24.628Z</time></trkpt><trkpt lat="39.219208" lon="-3.107152"><ele>654.0</ele><time>2026-04-19T11:09:25.616Z</time></trkpt><trkpt lat="39.2190489" lon="-3.1070458"><ele>654.3333333333334</ele><time>2026-04-19T11:09:26.619Z</time></trkpt><trkpt lat="39.2188793" lon="-3.1069315"><ele>654.6666666666667</ele><time>2026-04-19T11:09:27.618Z</time></trkpt><trkpt lat="39.218714" lon="-3.1068224"><ele>655.0</ele><time>2026-04-19T11:09:28.622Z</time></trkpt><trkpt lat="39.218559" lon="-3.1067214"><ele>655.0</ele><time>2026-04-19T11:09:29.621Z</time></trkpt><trkpt lat="39.2184062" lon="-3.106626"><ele>655.0</ele><time>2026-04-19T11:09:30.617Z</time></trkpt><trkpt lat="39.2182605" lon="-3.1065412"><ele>655.0</ele><time>2026-04-19T11:09:31.621Z</time></trkpt><trkpt lat="39.2181221" lon="-3.1064751"><ele>655.2</ele><time>2026-04-19T11:09:32.612Z</time></trkpt><trkpt lat="39.2179943" lon="-3.1064261"><ele>655.4</ele><time>2026-04-19T11:09:33.618Z</time></trkpt><trkpt lat="39.2178843" lon="-3.1063856"><ele>655.5999999999999</ele><time>2026-04-19T11:09:34.619Z</time></trkpt><trkpt lat="39.2177839" lon="-3.1063463"><ele>655.8</ele><time>2026-04-19T11:09:35.628Z</time></trkpt><trkpt lat="39.2176949" lon="-3.1063137"><ele>656.0</ele><time>2026-04-19T11:09:36.621Z</time></trkpt><trkpt lat="39.2176203" lon="-3.1062844"><ele>656.0</ele><time>2026-04-19T11:09:37.619Z</time></trkpt><trkpt lat="39.2175575" lon="-3.1062527"><ele>656.0</ele><time>2026-04-19T11:09:38.623Z</time></trkpt><trkpt lat="39.2174495" lon="-3.106178"><ele>656.0</ele><time>2026-04-19T11:09:40.626Z</time></trkpt><trkpt lat="39.2173466" lon="-3.1061012"><ele>656.0</ele><time>2026-04-19T11:09:42.625Z</time></trkpt><trkpt lat="39.217249" lon="-3.1060179"><ele>656.0</ele><time>2026-04-19T11:09:44.623Z</time></trkpt><trkpt lat="39.2171521" lon="-3.1059402"><ele>656.0</ele><time>2026-04-19T11:09:46.616Z</time></trkpt><trkpt lat="39.2170798" lon="-3.1058911"><ele>656.0</ele><time>2026-04-19T11:09:48.622Z</time></trkpt><trkpt lat="39.2171639" lon="-3.1059453"><ele>656.0</ele><time>2026-04-19T11:09:58.631Z</time></trkpt><trkpt lat="39.217267" lon="-3.1060291"><ele>656.0</ele><time>2026-04-19T11:10:00.612Z</time></trkpt><trkpt lat="39.2173299" lon="-3.1060796"><ele>656.0</ele><time>2026-04-19T11:10:01.616Z</time></trkpt><trkpt lat="39.2173999" lon="-3.1061331"><ele>656.0</ele><time>2026-04-19T11:10:02.621Z</time></trkpt><trkpt lat="39.2174709" lon="-3.1061856"><ele>656.0</ele><time>2026-04-19T11:10:03.619Z</time></trkpt><trkpt lat="39.2175471" lon="-3.1062362"><ele>656.0</ele><time>2026-04-19T11:10:04.612Z</time></trkpt><trkpt lat="39.2176275" lon="-3.1062777"><ele>656.0</ele><time>2026-04-19T11:10:05.612Z</time></trkpt><trkpt lat="39.2177329" lon="-3.1063207"><ele>656.0</ele><time>2026-04-19T11:10:06.617Z</time></trkpt><trkpt lat="39.2178696" lon="-3.1063711"><ele>656.0</ele><time>2026-04-19T11:10:07.614Z</time></trkpt><trkpt lat="39.2180367" lon="-3.1064435"><ele>656.0</ele><time>2026-04-19T11:10:08.62Z</time></trkpt><trkpt lat="39.218238" lon="-3.1065431"><ele>656.0</ele><time>2026-04-19T11:10:09.612Z</time></trkpt><trkpt lat="39.2184712" lon="-3.1066664"><ele>655.5</ele><time>2026-04-19T11:10:10.628Z</time></trkpt><trkpt lat="39.2187188" lon="-3.1068262"><ele>655.0</ele><time>2026-04-19T11:10:11.623Z</time></trkpt><trkpt lat="39.2189667" lon="-3.1069933"><ele>654.5</ele><time>2026-04-19T11:10:12.619Z</time></trkpt><trkpt lat="39.2192132" lon="-3.1071663"><ele>654.0</ele><time>2026-04-19T11:10:13.625Z</time></trkpt><trkpt lat="39.2194161" lon="-3.1073059"><ele>654.0</ele><time>2026-04-19T11:10:14.62Z</time></trkpt><trkpt lat="39.2195903" lon="-3.1074257"><ele>654.0</ele><time>2026-04-19T11:10:15.617Z</time></trkpt><trkpt lat="39.2197695" lon="-3.1075582"><ele>654.0</ele><time>2026-04-19T11:10:16.62Z</time></trkpt><trkpt lat="39.2199674" lon="-3.1076991"><ele>653.5</ele><time>2026-04-19T11:10:17.619Z</time></trkpt><trkpt lat="39.2201819" lon="-3.1078415"><ele>653.0</ele><time>2026-04-19T11:10:18.622Z</time></trkpt><trkpt lat="39.2203947" lon="-3.1079748"><ele>653.0</ele><time>2026-04-19T11:10:19.627Z</time></trkpt><trkpt lat="39.220583" lon="-3.1081015"><ele>653.0</ele><time>2026-04-19T11:10:20.616Z</time></trkpt><trkpt lat="39.220763" lon="-3.108217"><ele>653.0</ele><time>2026-04-19T11:10:21.623Z</time></trkpt><trkpt lat="39.2209238" lon="-3.1083255"><ele>653.0</ele><time>2026-04-19T11:10:22.623Z</time></trkpt><trkpt lat="39.2210678" lon="-3.1084268"><ele>653.0</ele><time>2026-04-19T11:10:23.612Z</time></trkpt><trkpt lat="39.2211945" lon="-3.108521"><ele>653.0</ele><time>2026-04-19T11:10:24.624Z</time></trkpt><trkpt lat="39.2213016" lon="-3.1086269"><ele>653.0</ele><time>2026-04-19T11:10:25.621Z</time></trkpt><trkpt lat="39.2214069" lon="-3.1087556"><ele>653.25</ele><time>2026-04-19T11:10:26.623Z</time></trkpt><trkpt lat="39.221498" lon="-3.1088776"><ele>653.5</ele><time>2026-04-19T11:10:27.619Z</time></trkpt><trkpt lat="39.2215863" lon="-3.1089689"><ele>653.75</ele><time>2026-04-19T11:10:28.633Z</time></trkpt><trkpt lat="39.2216889" lon="-3.1090305"><ele>654.0</ele><time>2026-04-19T11:10:29.617Z</time></trkpt><trkpt lat="39.2218224" lon="-3.1090806"><ele>654.6666666666666</ele><time>2026-04-19T11:10:30.629Z</time></trkpt><trkpt lat="39.2219866" lon="-3.1091299"><ele>655.3333333333333</ele><time>2026-04-19T11:10:31.614Z</time></trkpt><trkpt lat="39.2221576" lon="-3.1091862"><ele>656.0</ele><time>2026-04-19T11:10:32.618Z</time></trkpt><trkpt lat="39.222337" lon="-3.1092779"><ele>656.0</ele><time>2026-04-19T11:10:33.613Z</time></trkpt><trkpt lat="39.2225329" lon="-3.1094022"><ele>656.0</ele><time>2026-04-19T11:10:34.612Z</time></trkpt><trkpt lat="39.2227227" lon="-3.1095234"><ele>656.0</ele><time>2026-04-19T11:10:35.621Z</time></trkpt><trkpt lat="39.2228997" lon="-3.1096196"><ele>656.0</ele><time>2026-04-19T11:10:36.617Z</time></trkpt><trkpt lat="39.2230586" lon="-3.1097046"><ele>656.0</ele><time>2026-04-19T11:10:37.626Z</time></trkpt><trkpt lat="39.2232073" lon="-3.1098043"><ele>656.0</ele><time>2026-04-19T11:10:38.622Z</time></trkpt><trkpt lat="39.2233443" lon="-3.1099235"><ele>656.0</ele><time>2026-04-19T11:10:39.618Z</time></trkpt><trkpt lat="39.2234717" lon="-3.1100575"><ele>656.0</ele><time>2026-04-19T11:10:40.624Z</time></trkpt><trkpt lat="39.2235902" lon="-3.1101958"><ele>656.0</ele><time>2026-04-19T11:10:41.62Z</time></trkpt><trkpt lat="39.2236991" lon="-3.1103324"><ele>656.0</ele><time>2026-04-19T11:10:42.618Z</time></trkpt><trkpt lat="39.2238088" lon="-3.1104681"><ele>656.0</ele><time>2026-04-19T11:10:43.617Z</time></trkpt><trkpt lat="39.2239193" lon="-3.1105918"><ele>656.0</ele><time>2026-04-19T11:10:44.619Z</time></trkpt><trkpt lat="39.2240325" lon="-3.1107026"><ele>656.0</ele><time>2026-04-19T11:10:45.625Z</time></trkpt><trkpt lat="39.2241491" lon="-3.1108084"><ele>656.25</ele><time>2026-04-19T11:10:46.623Z</time></trkpt><trkpt lat="39.2242642" lon="-3.1109143"><ele>656.5</ele><time>2026-04-19T11:10:47.631Z</time></trkpt><trkpt lat="39.2243845" lon="-3.1110225"><ele>656.75</ele><time>2026-04-19T11:10:48.624Z</time></trkpt><trkpt lat="39.2245099" lon="-3.1111249"><ele>657.0</ele><time>2026-04-19T11:10:49.623Z</time></trkpt><trkpt lat="39.2246419" lon="-3.1112193"><ele>657.0</ele><time>2026-04-19T11:10:50.621Z</time></trkpt><trkpt lat="39.2247806" lon="-3.1113083"><ele>657.0</ele><time>2026-04-19T11:10:51.623Z</time></trkpt><trkpt lat="39.2249205" lon="-3.1113971"><ele>657.0</ele><time>2026-04-19T11:10:52.617Z</time></trkpt><trkpt lat="39.225054" lon="-3.1114914"><ele>656.3333333333334</ele><time>2026-04-19T11:10:53.62Z</time></trkpt><trkpt lat="39.2251783" lon="-3.1115962"><ele>655.6666666666667</ele><time>2026-04-19T11:10:54.621Z</time></trkpt><trkpt lat="39.2253001" lon="-3.1117103"><ele>655.0</ele><time>2026-04-19T11:10:55.622Z</time></trkpt><trkpt lat="39.2254287" lon="-3.111825"><ele>655.0</ele><time>2026-04-19T11:10:56.621Z</time></trkpt><trkpt lat="39.2255626" lon="-3.1119322"><ele>655.0</ele><time>2026-04-19T11:10:57.616Z</time></trkpt><trkpt lat="39.2256975" lon="-3.1120279"><ele>655.0</ele><time>2026-04-19T11:10:58.623Z</time></trkpt><trkpt lat="39.225826" lon="-3.1121198"><ele>655.0</ele><time>2026-04-19T11:10:59.623Z</time></trkpt><trkpt lat="39.2259498" lon="-3.112205"><ele>655.0</ele><time>2026-04-19T11:11:00.62Z</time></trkpt><trkpt lat="39.2260671" lon="-3.1122882"><ele>655.0</ele><time>2026-04-19T11:11:01.63Z</time></trkpt><trkpt lat="39.2261857" lon="-3.1123711"><ele>655.0</ele><time>2026-04-19T11:11:02.623Z</time></trkpt><trkpt lat="39.2263072" lon="-3.112446"><ele>655.0</ele><time>2026-04-19T11:11:03.626Z</time></trkpt><trkpt lat="39.2264297" lon="-3.1125126"><ele>655.0</ele><time>2026-04-19T11:11:04.624Z</time></trkpt><trkpt lat="39.2265535" lon="-3.1125863"><ele>655.0</ele><time>2026-04-19T11:11:05.625Z</time></trkpt><trkpt lat="39.2266799" lon="-3.1126679"><ele>655.0</ele><time>2026-04-19T11:11:06.628Z</time></trkpt><trkpt lat="39.2268062" lon="-3.1127567"><ele>654.6666666666667</ele><time>2026-04-19T11:11:07.622Z</time></trkpt><trkpt lat="39.2269354" lon="-3.1128503"><ele>654.3333333333334</ele><time>2026-04-19T11:11:08.62Z</time></trkpt><trkpt lat="39.2270642" lon="-3.1129531"><ele>654.0</ele><time>2026-04-19T11:11:09.62Z</time></trkpt><trkpt lat="39.227191" lon="-3.1130699"><ele>654.3333333333334</ele><time>2026-04-19T11:11:10.628Z</time></trkpt><trkpt lat="39.2273165" lon="-3.1131986"><ele>654.6666666666667</ele><time>2026-04-19T11:11:11.622Z</time></trkpt><trkpt lat="39.2274456" lon="-3.1133238"><ele>655.0</ele><time>2026-04-19T11:11:12.622Z</time></trkpt><trkpt lat="39.2275684" lon="-3.1134328"><ele>655.0</ele><time>2026-04-19T11:11:13.624Z</time></trkpt><trkpt lat="39.2276977" lon="-3.1135254"><ele>655.0</ele><time>2026-04-19T11:11:14.618Z</time></trkpt><trkpt lat="39.2278394" lon="-3.1136074"><ele>655.0</ele><time>2026-04-19T11:11:15.623Z</time></trkpt><trkpt lat="39.2279889" lon="-3.1136911"><ele>655.0</ele><time>2026-04-19T11:11:16.624Z</time></trkpt><trkpt lat="39.2281405" lon="-3.1137789"><ele>655.0</ele><time>2026-04-19T11:11:17.627Z</time></trkpt><trkpt lat="39.2282917" lon="-3.1138714"><ele>655.0</ele><time>2026-04-19T11:11:18.628Z</time></trkpt><trkpt lat="39.2284431" lon="-3.1139645"><ele>655.3333333333334</ele><time>2026-04-19T11:11:19.629Z</time></trkpt><trkpt lat="39.2285983" lon="-3.1140561"><ele>655.6666666666666</ele><time>2026-04-19T11:11:20.627Z</time></trkpt><trkpt lat="39.228754" lon="-3.1141515"><ele>656.0</ele><time>2026-04-19T11:11:21.621Z</time></trkpt><trkpt lat="39.2289073" lon="-3.114253"><ele>656.0</ele><time>2026-04-19T11:11:22.627Z</time></trkpt><trkpt lat="39.2290604" lon="-3.1143555"><ele>656.0</ele><time>2026-04-19T11:11:23.619Z</time></trkpt><trkpt lat="39.2292167" lon="-3.1144498"><ele>656.0</ele><time>2026-04-19T11:11:24.621Z</time></trkpt><trkpt lat="39.2293771" lon="-3.1145311"><ele>656.0</ele><time>2026-04-19T11:11:25.628Z</time></trkpt><trkpt lat="39.2295423" lon="-3.1146078"><ele>656.0</ele><time>2026-04-19T11:11:26.625Z</time></trkpt><trkpt lat="39.2297072" lon="-3.114689"><ele>656.0</ele><time>2026-04-19T11:11:27.617Z</time></trkpt><trkpt lat="39.2298706" lon="-3.1147788"><ele>656.0</ele><time>2026-04-19T11:11:28.626Z</time></trkpt><trkpt lat="39.2300364" lon="-3.1148777"><ele>656.0</ele><time>2026-04-19T11:11:29.622Z</time></trkpt><trkpt lat="39.2302082" lon="-3.1149815"><ele>656.0</ele><time>2026-04-19T11:11:30.619Z</time></trkpt><trkpt lat="39.230391" lon="-3.1150793"><ele>655.6666666666666</ele><time>2026-04-19T11:11:31.621Z</time></trkpt><trkpt lat="39.2305862" lon="-3.1151656"><ele>655.3333333333334</ele><time>2026-04-19T11:11:32.62Z</time></trkpt><trkpt lat="39.2307873" lon="-3.1152429"><ele>655.0</ele><time>2026-04-19T11:11:33.619Z</time></trkpt><trkpt lat="39.230988" lon="-3.1153203"><ele>655.0</ele><time>2026-04-19T11:11:34.62Z</time></trkpt><trkpt lat="39.2311869" lon="-3.1153943"><ele>655.0</ele><time>2026-04-19T11:11:35.618Z</time></trkpt><trkpt lat="39.2313759" lon="-3.1154604"><ele>655.0</ele><time>2026-04-19T11:11:36.625Z</time></trkpt><trkpt lat="39.231555" lon="-3.115521"><ele>655.0</ele><time>2026-04-19T11:11:37.633Z</time></trkpt><trkpt lat="39.2317245" lon="-3.1155789"><ele>655.0</ele><time>2026-04-19T11:11:38.622Z</time></trkpt><trkpt lat="39.2318839" lon="-3.1156386"><ele>655.0</ele><time>2026-04-19T11:11:39.622Z</time></trkpt><trkpt lat="39.2320322" lon="-3.115699"><ele>655.25</ele><time>2026-04-19T11:11:40.625Z</time></trkpt><trkpt lat="39.2321691" lon="-3.1157657"><ele>655.5</ele><time>2026-04-19T11:11:41.619Z</time></trkpt><trkpt lat="39.2323065" lon="-3.1158253"><ele>655.75</ele><time>2026-04-19T11:11:42.621Z</time></trkpt><trkpt lat="39.232446" lon="-3.1158699"><ele>656.0</ele><time>2026-04-19T11:11:43.622Z</time></trkpt><trkpt lat="39.2325859" lon="-3.1159036"><ele>656.0</ele><time>2026-04-19T11:11:44.626Z</time></trkpt><trkpt lat="39.2327198" lon="-3.1159361"><ele>656.0</ele><time>2026-04-19T11:11:45.625Z</time></trkpt><trkpt lat="39.2328471" lon="-3.1159657"><ele>656.0</ele><time>2026-04-19T11:11:46.633Z</time></trkpt><trkpt lat="39.2329685" lon="-3.1159943"><ele>656.0</ele><time>2026-04-19T11:11:47.627Z</time></trkpt><trkpt lat="39.2330891" lon="-3.1160196"><ele>655.5</ele><time>2026-04-19T11:11:48.626Z</time></trkpt><trkpt lat="39.2332143" lon="-3.1160423"><ele>655.0</ele><time>2026-04-19T11:11:49.617Z</time></trkpt><trkpt lat="39.2333461" lon="-3.1160682"><ele>654.5</ele><time>2026-04-19T11:11:50.616Z</time></trkpt><trkpt lat="39.2334871" lon="-3.1161017"><ele>654.0</ele><time>2026-04-19T11:11:51.622Z</time></trkpt><trkpt lat="39.2336385" lon="-3.1161376"><ele>654.0</ele><time>2026-04-19T11:11:52.623Z</time></trkpt><trkpt lat="39.2337883" lon="-3.1161686"><ele>654.0</ele><time>2026-04-19T11:11:53.622Z</time></trkpt><trkpt lat="39.2339296" lon="-3.1161945"><ele>654.0</ele><time>2026-04-19T11:11:54.623Z</time></trkpt><trkpt lat="39.234063" lon="-3.11622"><ele>654.0</ele><time>2026-04-19T11:11:55.624Z</time></trkpt><trkpt lat="39.2341903" lon="-3.1162465"><ele>654.0</ele><time>2026-04-19T11:11:56.627Z</time></trkpt><trkpt lat="39.234315" lon="-3.1162735"><ele>654.0</ele><time>2026-04-19T11:11:57.63Z</time></trkpt><trkpt lat="39.2344406" lon="-3.1163027"><ele>654.0</ele><time>2026-04-19T11:11:58.624Z</time></trkpt><trkpt lat="39.2345659" lon="-3.1163246"><ele>654.0</ele><time>2026-04-19T11:11:59.625Z</time></trkpt><trkpt lat="39.2346873" lon="-3.1163483"><ele>654.0</ele><time>2026-04-19T11:12:00.63Z</time></trkpt><trkpt lat="39.2347989" lon="-3.1163768"><ele>654.0</ele><time>2026-04-19T11:12:01.629Z</time></trkpt><trkpt lat="39.2349032" lon="-3.11641"><ele>654.0</ele><time>2026-04-19T11:12:02.617Z</time></trkpt><trkpt lat="39.2350046" lon="-3.1164488"><ele>654.0</ele><time>2026-04-19T11:12:03.622Z</time></trkpt><trkpt lat="39.2351128" lon="-3.1164782"><ele>654.0</ele><time>2026-04-19T11:12:04.617Z</time></trkpt><trkpt lat="39.2352237" lon="-3.116513"><ele>653.75</ele><time>2026-04-19T11:12:05.621Z</time></trkpt><trkpt lat="39.2353381" lon="-3.1165561"><ele>653.5</ele><time>2026-04-19T11:12:06.623Z</time></trkpt><trkpt lat="39.2354526" lon="-3.1166049"><ele>653.25</ele><time>2026-04-19T11:12:07.621Z</time></trkpt><trkpt lat="39.2355666" lon="-3.1166555"><ele>653.0</ele><time>2026-04-19T11:12:08.623Z</time></trkpt><trkpt lat="39.2356837" lon="-3.1167032"><ele>653.0</ele><time>2026-04-19T11:12:09.619Z</time></trkpt><trkpt lat="39.2358027" lon="-3.116755"><ele>653.0</ele><time>2026-04-19T11:12:10.625Z</time></trkpt><trkpt lat="39.2359217" lon="-3.1168098"><ele>653.0</ele><time>2026-04-19T11:12:11.621Z</time></trkpt><trkpt lat="39.2360467" lon="-3.1168653"><ele>653.0</ele><time>2026-04-19T11:12:12.618Z</time></trkpt><trkpt lat="39.2361684" lon="-3.1169192"><ele>653.0</ele><time>2026-04-19T11:12:13.625Z</time></trkpt><trkpt lat="39.2362812" lon="-3.1169735"><ele>653.0</ele><time>2026-04-19T11:12:14.625Z</time></trkpt><trkpt lat="39.2363866" lon="-3.1170296"><ele>653.0</ele><time>2026-04-19T11:12:15.619Z</time></trkpt><trkpt lat="39.2364826" lon="-3.1170863"><ele>653.0</ele><time>2026-04-19T11:12:16.622Z</time></trkpt><trkpt lat="39.236574" lon="-3.1171418"><ele>653.0</ele><time>2026-04-19T11:12:17.623Z</time></trkpt><trkpt lat="39.2366593" lon="-3.1171968"><ele>653.2</ele><time>2026-04-19T11:12:18.627Z</time></trkpt><trkpt lat="39.2367385" lon="-3.1172538"><ele>653.4</ele><time>2026-04-19T11:12:19.619Z</time></trkpt><trkpt lat="39.2368158" lon="-3.1173156"><ele>653.6</ele><time>2026-04-19T11:12:20.619Z</time></trkpt><trkpt lat="39.2368932" lon="-3.1173806"><ele>653.8000000000001</ele><time>2026-04-19T11:12:21.625Z</time></trkpt><trkpt lat="39.2369705" lon="-3.1174498"><ele>654.0</ele><time>2026-04-19T11:12:22.624Z</time></trkpt><trkpt lat="39.2370495" lon="-3.1175259"><ele>654.0</ele><time>2026-04-19T11:12:23.624Z</time></trkpt><trkpt lat="39.2371286" lon="-3.1176037"><ele>654.0</ele><time>2026-04-19T11:12:24.62Z</time></trkpt><trkpt lat="39.2372109" lon="-3.1176835"><ele>654.0</ele><time>2026-04-19T11:12:25.627Z</time></trkpt><trkpt lat="39.2372973" lon="-3.1177655"><ele>654.0</ele><time>2026-04-19T11:12:26.622Z</time></trkpt><trkpt lat="39.2373878" lon="-3.1178514"><ele>654.0</ele><time>2026-04-19T11:12:27.626Z</time></trkpt><trkpt lat="39.2374794" lon="-3.117935"><ele>654.2</ele><time>2026-04-19T11:12:28.622Z</time></trkpt><trkpt lat="39.237573" lon="-3.1180192"><ele>654.4000000000001</ele><time>2026-04-19T11:12:29.618Z</time></trkpt><trkpt lat="39.2376673" lon="-3.1181042"><ele>654.6</ele><time>2026-04-19T11:12:30.628Z</time></trkpt><trkpt lat="39.2377563" lon="-3.1181844"><ele>654.8</ele><time>2026-04-19T11:12:31.619Z</time></trkpt><trkpt lat="39.2378381" lon="-3.1182625"><ele>655.0</ele><time>2026-04-19T11:12:32.629Z</time></trkpt><trkpt lat="39.2379145" lon="-3.1183412"><ele>655.2</ele><time>2026-04-19T11:12:33.625Z</time></trkpt><trkpt lat="39.2379906" lon="-3.1184217"><ele>655.4</ele><time>2026-04-19T11:12:34.628Z</time></trkpt><trkpt lat="39.2380732" lon="-3.118507"><ele>655.5999999999999</ele><time>2026-04-19T11:12:35.627Z</time></trkpt><trkpt lat="39.2381626" lon="-3.1185961"><ele>655.8</ele><time>2026-04-19T11:12:36.616Z</time></trkpt><trkpt lat="39.2382603" lon="-3.1186875"><ele>656.0</ele><time>2026-04-19T11:12:37.614Z</time></trkpt><trkpt lat="39.238363" lon="-3.118769"><ele>656.0</ele><time>2026-04-19T11:12:38.623Z</time></trkpt><trkpt lat="39.2384626" lon="-3.1188384"><ele>656.0</ele><time>2026-04-19T11:12:39.624Z</time></trkpt><trkpt lat="39.2385616" lon="-3.1189053"><ele>656.0</ele><time>2026-04-19T11:12:40.622Z</time></trkpt><trkpt lat="39.2386556" lon="-3.1189708"><ele>656.0</ele><time>2026-04-19T11:12:41.626Z</time></trkpt><trkpt lat="39.238747" lon="-3.1190432"><ele>656.0</ele><time>2026-04-19T11:12:42.617Z</time></trkpt><trkpt lat="39.2388418" lon="-3.1191235"><ele>656.0</ele><time>2026-04-19T11:12:43.616Z</time></trkpt><trkpt lat="39.2389379" lon="-3.1192076"><ele>656.0</ele><time>2026-04-19T11:12:44.615Z</time></trkpt><trkpt lat="39.2390356" lon="-3.1192987"><ele>656.0</ele><time>2026-04-19T11:12:45.616Z</time></trkpt><trkpt lat="39.2391319" lon="-3.1193989"><ele>656.0</ele><time>2026-04-19T11:12:46.629Z</time></trkpt><trkpt lat="39.239225" lon="-3.1194987"><ele>656.0</ele><time>2026-04-19T11:12:47.616Z</time></trkpt><trkpt lat="39.2393144" lon="-3.119592"><ele>656.0</ele><time>2026-04-19T11:12:48.624Z</time></trkpt><trkpt lat="39.2393993" lon="-3.1196854"><ele>656.0</ele><time>2026-04-19T11:12:49.621Z</time></trkpt><trkpt lat="39.2394811" lon="-3.1197855"><ele>656.0</ele><time>2026-04-19T11:12:50.624Z</time></trkpt><trkpt lat="39.2395643" lon="-3.1198885"><ele>656.0</ele><time>2026-04-19T11:12:51.618Z</time></trkpt><trkpt lat="39.2396499" lon="-3.1199912"><ele>656.0</ele><time>2026-04-19T11:12:52.618Z</time></trkpt><trkpt lat="39.2397324" lon="-3.1200903"><ele>656.0</ele><time>2026-04-19T11:12:53.625Z</time></trkpt><trkpt lat="39.2398136" lon="-3.1201806"><ele>656.0</ele><time>2026-04-19T11:12:54.628Z</time></trkpt><trkpt lat="39.2399047" lon="-3.1202626"><ele>656.0</ele><time>2026-04-19T11:12:55.623Z</time></trkpt><trkpt lat="39.2400082" lon="-3.1203368"><ele>656.0</ele><time>2026-04-19T11:12:56.624Z</time></trkpt><trkpt lat="39.2401185" lon="-3.1204034"><ele>656.0</ele><time>2026-04-19T11:12:57.615Z</time></trkpt><trkpt lat="39.2402323" lon="-3.1204786"><ele>656.0</ele><time>2026-04-19T11:12:58.614Z</time></trkpt><trkpt lat="39.2403439" lon="-3.1205684"><ele>656.0</ele><time>2026-04-19T11:12:59.622Z</time></trkpt><trkpt lat="39.2404547" lon="-3.1206724"><ele>655.75</ele><time>2026-04-19T11:13:00.618Z</time></trkpt><trkpt lat="39.2405662" lon="-3.120786"><ele>655.5</ele><time>2026-04-19T11:13:01.621Z</time></trkpt><trkpt lat="39.2406759" lon="-3.1209031"><ele>655.25</ele><time>2026-04-19T11:13:02.615Z</time></trkpt><trkpt lat="39.2407841" lon="-3.1210152"><ele>655.0</ele><time>2026-04-19T11:13:03.621Z</time></trkpt><trkpt lat="39.2408937" lon="-3.1211235"><ele>654.5</ele><time>2026-04-19T11:13:04.619Z</time></trkpt><trkpt lat="39.2410046" lon="-3.1212289"><ele>654.0</ele><time>2026-04-19T11:13:05.612Z</time></trkpt><trkpt lat="39.2411137" lon="-3.1213354"><ele>653.5</ele><time>2026-04-19T11:13:06.624Z</time></trkpt><trkpt lat="39.2412204" lon="-3.1214443"><ele>653.0</ele><time>2026-04-19T11:13:07.626Z</time></trkpt><trkpt lat="39.2413243" lon="-3.1215606"><ele>653.0</ele><time>2026-04-19T11:13:08.617Z</time></trkpt><trkpt lat="39.2414233" lon="-3.1216827"><ele>653.0</ele><time>2026-04-19T11:13:09.622Z</time></trkpt><trkpt lat="39.2415169" lon="-3.1218"><ele>653.0</ele><time>2026-04-19T11:13:10.627Z</time></trkpt><trkpt lat="39.2416144" lon="-3.1219105"><ele>653.0</ele><time>2026-04-19T11:13:11.616Z</time></trkpt><trkpt lat="39.2417244" lon="-3.1220047"><ele>653.0</ele><time>2026-04-19T11:13:12.62Z</time></trkpt><trkpt lat="39.2418536" lon="-3.1220833"><ele>653.0</ele><time>2026-04-19T11:13:13.621Z</time></trkpt><trkpt lat="39.2419867" lon="-3.1221543"><ele>653.0</ele><time>2026-04-19T11:13:14.614Z</time></trkpt><trkpt lat="39.2421203" lon="-3.1222336"><ele>653.0</ele><time>2026-04-19T11:13:15.616Z</time></trkpt><trkpt lat="39.2422556" lon="-3.1223319"><ele>653.0</ele><time>2026-04-19T11:13:16.613Z</time></trkpt><trkpt lat="39.2423919" lon="-3.1224463"><ele>653.0</ele><time>2026-04-19T11:13:17.616Z</time></trkpt><trkpt lat="39.2425265" lon="-3.1225722"><ele>653.0</ele><time>2026-04-19T11:13:18.615Z</time></trkpt><trkpt lat="39.242662" lon="-3.1227012"><ele>653.0</ele><time>2026-04-19T11:13:19.614Z</time></trkpt><trkpt lat="39.242801" lon="-3.1228306"><ele>653.0</ele><time>2026-04-19T11:13:20.625Z</time></trkpt><trkpt lat="39.2429381" lon="-3.1229511"><ele>653.0</ele><time>2026-04-19T11:13:21.621Z</time></trkpt><trkpt lat="39.2430737" lon="-3.1230654"><ele>652.6666666666666</ele><time>2026-04-19T11:13:22.611Z</time></trkpt><trkpt lat="39.243209" lon="-3.1231794"><ele>652.3333333333334</ele><time>2026-04-19T11:13:23.617Z</time></trkpt><trkpt lat="39.2433453" lon="-3.1232954"><ele>652.0</ele><time>2026-04-19T11:13:24.62Z</time></trkpt><trkpt lat="39.2434827" lon="-3.1234162"><ele>652.0</ele><time>2026-04-19T11:13:25.621Z</time></trkpt><trkpt lat="39.2436212" lon="-3.1235436"><ele>652.0</ele><time>2026-04-19T11:13:26.622Z</time></trkpt><trkpt lat="39.2437617" lon="-3.1236761"><ele>652.0</ele><time>2026-04-19T11:13:27.628Z</time></trkpt><trkpt lat="39.2439046" lon="-3.1238121"><ele>652.0</ele><time>2026-04-19T11:13:28.622Z</time></trkpt><trkpt lat="39.2440465" lon="-3.1239514"><ele>652.0</ele><time>2026-04-19T11:13:29.616Z</time></trkpt><trkpt lat="39.2441868" lon="-3.1240962"><ele>652.0</ele><time>2026-04-19T11:13:30.622Z</time></trkpt><trkpt lat="39.2443288" lon="-3.124235"><ele>652.0</ele><time>2026-04-19T11:13:31.626Z</time></trkpt><trkpt lat="39.2444758" lon="-3.1243858"><ele>652.0</ele><time>2026-04-19T11:13:32.621Z</time></trkpt><trkpt lat="39.2446177" lon="-3.1245287"><ele>652.0</ele><time>2026-04-19T11:13:33.621Z</time></trkpt><trkpt lat="39.2447628" lon="-3.1246652"><ele>652.3333333333334</ele><time>2026-04-19T11:13:34.623Z</time></trkpt><trkpt lat="39.2448981" lon="-3.1247816"><ele>652.6666666666666</ele><time>2026-04-19T11:13:35.621Z</time></trkpt><trkpt lat="39.2450326" lon="-3.1248927"><ele>653.0</ele><time>2026-04-19T11:13:36.621Z</time></trkpt><trkpt lat="39.2451571" lon="-3.1249983"><ele>653.0</ele><time>2026-04-19T11:13:37.625Z</time></trkpt><trkpt lat="39.2452708" lon="-3.1251056"><ele>653.0</ele><time>2026-04-19T11:13:38.624Z</time></trkpt><trkpt lat="39.2453739" lon="-3.1252172"><ele>653.0</ele><time>2026-04-19T11:13:39.618Z</time></trkpt><trkpt lat="39.2454738" lon="-3.1253379"><ele>653.0</ele><time>2026-04-19T11:13:40.628Z</time></trkpt><trkpt lat="39.2455734" lon="-3.1254656"><ele>652.75</ele><time>2026-04-19T11:13:41.62Z</time></trkpt><trkpt lat="39.2456749" lon="-3.1255948"><ele>652.5</ele><time>2026-04-19T11:13:42.622Z</time></trkpt><trkpt lat="39.2457802" lon="-3.1257164"><ele>652.25</ele><time>2026-04-19T11:13:43.618Z</time></trkpt><trkpt lat="39.2458999" lon="-3.125826"><ele>652.0</ele><time>2026-04-19T11:13:44.613Z</time></trkpt><trkpt lat="39.2460222" lon="-3.1259369"><ele>652.0</ele><time>2026-04-19T11:13:45.619Z</time></trkpt><trkpt lat="39.2461529" lon="-3.1260361"><ele>652.0</ele><time>2026-04-19T11:13:46.626Z</time></trkpt><trkpt lat="39.2462867" lon="-3.1261393"><ele>652.0</ele><time>2026-04-19T11:13:47.617Z</time></trkpt><trkpt lat="39.2464154" lon="-3.1262383"><ele>652.25</ele><time>2026-04-19T11:13:48.615Z</time></trkpt><trkpt lat="39.246543" lon="-3.1263364"><ele>652.5</ele><time>2026-04-19T11:13:49.619Z</time></trkpt><trkpt lat="39.2466706" lon="-3.1264378"><ele>652.75</ele><time>2026-04-19T11:13:50.622Z</time></trkpt><trkpt lat="39.2467967" lon="-3.1265422"><ele>653.0</ele><time>2026-04-19T11:13:51.621Z</time></trkpt><trkpt lat="39.2469276" lon="-3.126648"><ele>653.0</ele><time>2026-04-19T11:13:52.618Z</time></trkpt><trkpt lat="39.2470603" lon="-3.1267503"><ele>653.0</ele><time>2026-04-19T11:13:53.617Z</time></trkpt><trkpt lat="39.2471972" lon="-3.1268476"><ele>653.0</ele><time>2026-04-19T11:13:54.618Z</time></trkpt><trkpt lat="39.2473405" lon="-3.1269423"><ele>652.6666666666666</ele><time>2026-04-19T11:13:55.626Z</time></trkpt><trkpt lat="39.2474815" lon="-3.1270368"><ele>652.3333333333334</ele><time>2026-04-19T11:13:56.624Z</time></trkpt><trkpt lat="39.2476237" lon="-3.1271336"><ele>652.0</ele><time>2026-04-19T11:13:57.621Z</time></trkpt><trkpt lat="39.2477696" lon="-3.1272278"><ele>652.0</ele><time>2026-04-19T11:13:58.616Z</time></trkpt><trkpt lat="39.2479183" lon="-3.1273203"><ele>652.0</ele><time>2026-04-19T11:13:59.615Z</time></trkpt><trkpt lat="39.248068" lon="-3.1274153"><ele>652.0</ele><time>2026-04-19T11:14:00.614Z</time></trkpt><trkpt lat="39.2482172" lon="-3.1275126"><ele>652.0</ele><time>2026-04-19T11:14:01.618Z</time></trkpt><trkpt lat="39.2483697" lon="-3.127609"><ele>652.0</ele><time>2026-04-19T11:14:02.621Z</time></trkpt><trkpt lat="39.2485245" lon="-3.1276982"><ele>652.0</ele><time>2026-04-19T11:14:03.621Z</time></trkpt><trkpt lat="39.2486838" lon="-3.1277795"><ele>652.0</ele><time>2026-04-19T11:14:04.622Z</time></trkpt><trkpt lat="39.2488446" lon="-3.1278574"><ele>652.0</ele><time>2026-04-19T11:14:05.612Z</time></trkpt><trkpt lat="39.2490049" lon="-3.1279349"><ele>652.0</ele><time>2026-04-19T11:14:06.616Z</time></trkpt><trkpt lat="39.2491574" lon="-3.1280114"><ele>652.0</ele><time>2026-04-19T11:14:07.625Z</time></trkpt><trkpt lat="39.2493012" lon="-3.1280848"><ele>652.0</ele><time>2026-04-19T11:14:08.622Z</time></trkpt><trkpt lat="39.2494365" lon="-3.128152"><ele>652.0</ele><time>2026-04-19T11:14:09.622Z</time></trkpt><trkpt lat="39.249574" lon="-3.1282193"><ele>652.0</ele><time>2026-04-19T11:14:10.622Z</time></trkpt><trkpt lat="39.2497203" lon="-3.1282937"><ele>652.0</ele><time>2026-04-19T11:14:11.618Z</time></trkpt><trkpt lat="39.2498769" lon="-3.1283734"><ele>652.0</ele><time>2026-04-19T11:14:12.62Z</time></trkpt><trkpt lat="39.25005" lon="-3.1284455"><ele>652.0</ele><time>2026-04-19T11:14:13.624Z</time></trkpt><trkpt lat="39.2502377" lon="-3.1285079"><ele>652.0</ele><time>2026-04-19T11:14:14.628Z</time></trkpt><trkpt lat="39.2504296" lon="-3.1285654"><ele>652.0</ele><time>2026-04-19T11:14:15.626Z</time></trkpt><trkpt lat="39.250624" lon="-3.1286253"><ele>652.0</ele><time>2026-04-19T11:14:16.629Z</time></trkpt><trkpt lat="39.2508254" lon="-3.1286893"><ele>652.0</ele><time>2026-04-19T11:14:17.616Z</time></trkpt><trkpt lat="39.2510188" lon="-3.1287713"><ele>652.0</ele><time>2026-04-19T11:14:18.623Z</time></trkpt><trkpt lat="39.2511963" lon="-3.1288631"><ele>652.0</ele><time>2026-04-19T11:14:19.619Z</time></trkpt><trkpt lat="39.2513643" lon="-3.1289469"><ele>652.0</ele><time>2026-04-19T11:14:20.624Z</time></trkpt><trkpt lat="39.2515313" lon="-3.1290233"><ele>652.0</ele><time>2026-04-19T11:14:21.619Z</time></trkpt><trkpt lat="39.2517048" lon="-3.1290973"><ele>652.0</ele><time>2026-04-19T11:14:22.625Z</time></trkpt><trkpt lat="39.2518857" lon="-3.1291734"><ele>652.0</ele><time>2026-04-19T11:14:23.622Z</time></trkpt><trkpt lat="39.2520801" lon="-3.1292501"><ele>652.0</ele><time>2026-04-19T11:14:24.625Z</time></trkpt><trkpt lat="39.2522854" lon="-3.1293233"><ele>652.0</ele><time>2026-04-19T11:14:25.621Z</time></trkpt><trkpt lat="39.2524961" lon="-3.1293843"><ele>652.0</ele><time>2026-04-19T11:14:26.619Z</time></trkpt><trkpt lat="39.252704" lon="-3.1294473"><ele>652.0</ele><time>2026-04-19T11:14:27.621Z</time></trkpt><trkpt lat="39.2529112" lon="-3.1295329"><ele>652.0</ele><time>2026-04-19T11:14:28.62Z</time></trkpt><trkpt lat="39.2531247" lon="-3.1296373"><ele>652.0</ele><time>2026-04-19T11:14:29.612Z</time></trkpt><trkpt lat="39.2533441" lon="-3.1297374"><ele>652.0</ele><time>2026-04-19T11:14:30.614Z</time></trkpt><trkpt lat="39.2535651" lon="-3.1298256"><ele>652.0</ele><time>2026-04-19T11:14:31.619Z</time></trkpt><trkpt lat="39.2537774" lon="-3.1299155"><ele>652.0</ele><time>2026-04-19T11:14:32.617Z</time></trkpt><trkpt lat="39.2539803" lon="-3.1300065"><ele>652.0</ele><time>2026-04-19T11:14:33.623Z</time></trkpt><trkpt lat="39.2541905" lon="-3.1300786"><ele>652.0</ele><time>2026-04-19T11:14:34.621Z</time></trkpt><trkpt lat="39.254407" lon="-3.1301377"><ele>652.0</ele><time>2026-04-19T11:14:35.621Z</time></trkpt><trkpt lat="39.2546258" lon="-3.1302049"><ele>652.0</ele><time>2026-04-19T11:14:36.62Z</time></trkpt><trkpt lat="39.2548467" lon="-3.1302719"><ele>652.0</ele><time>2026-04-19T11:14:37.617Z</time></trkpt><trkpt lat="39.2550652" lon="-3.1303556"><ele>652.0</ele><time>2026-04-19T11:14:38.622Z</time></trkpt><trkpt lat="39.2552784" lon="-3.130427"><ele>652.0</ele><time>2026-04-19T11:14:39.624Z</time></trkpt><trkpt lat="39.2554899" lon="-3.1304998"><ele>652.0</ele><time>2026-04-19T11:14:40.617Z</time></trkpt><trkpt lat="39.2556969" lon="-3.1305871"><ele>652.0</ele><time>2026-04-19T11:14:41.619Z</time></trkpt><trkpt lat="39.2558966" lon="-3.1306781"><ele>652.0</ele><time>2026-04-19T11:14:42.638Z</time></trkpt><trkpt lat="39.2560927" lon="-3.1307655"><ele>652.0</ele><time>2026-04-19T11:14:43.624Z</time></trkpt><trkpt lat="39.2562884" lon="-3.1308521"><ele>652.0</ele><time>2026-04-19T11:14:44.621Z</time></trkpt><trkpt lat="39.2564864" lon="-3.13094"><ele>652.0</ele><time>2026-04-19T11:14:45.618Z</time></trkpt><trkpt lat="39.2566841" lon="-3.1310364"><ele>652.0</ele><time>2026-04-19T11:14:46.624Z</time></trkpt><trkpt lat="39.2568766" lon="-3.1311357"><ele>652.0</ele><time>2026-04-19T11:14:47.621Z</time></trkpt><trkpt lat="39.2570667" lon="-3.1312316"><ele>652.0</ele><time>2026-04-19T11:14:48.622Z</time></trkpt><trkpt lat="39.2572585" lon="-3.1313202"><ele>652.3333333333334</ele><time>2026-04-19T11:14:49.616Z</time></trkpt><trkpt lat="39.2574521" lon="-3.1314079"><ele>652.6666666666666</ele><time>2026-04-19T11:14:50.619Z</time></trkpt><trkpt lat="39.2576482" lon="-3.131496"><ele>653.0</ele><time>2026-04-19T11:14:51.618Z</time></trkpt><trkpt lat="39.2578489" lon="-3.1315883"><ele>652.3333333333333</ele><time>2026-04-19T11:14:52.62Z</time></trkpt><trkpt lat="39.2580563" lon="-3.1316798"><ele>651.6666666666666</ele><time>2026-04-19T11:14:53.619Z</time></trkpt><trkpt lat="39.2582692" lon="-3.1317584"><ele>651.0</ele><time>2026-04-19T11:14:54.624Z</time></trkpt><trkpt lat="39.2584803" lon="-3.1318213"><ele>651.0</ele><time>2026-04-19T11:14:55.628Z</time></trkpt><trkpt lat="39.2586817" lon="-3.1318693"><ele>651.0</ele><time>2026-04-19T11:14:56.619Z</time></trkpt><trkpt lat="39.2588696" lon="-3.1319189"><ele>651.0</ele><time>2026-04-19T11:14:57.616Z</time></trkpt><trkpt lat="39.2590527" lon="-3.1319918"><ele>650.6666666666666</ele><time>2026-04-19T11:14:58.619Z</time></trkpt><trkpt lat="39.259239" lon="-3.1320941"><ele>650.3333333333333</ele><time>2026-04-19T11:14:59.611Z</time></trkpt><trkpt lat="39.2594236" lon="-3.1322097"><ele>650.0</ele><time>2026-04-19T11:15:00.621Z</time></trkpt><trkpt lat="39.2595963" lon="-3.1323207"><ele>650.0</ele><time>2026-04-19T11:15:01.62Z</time></trkpt><trkpt lat="39.2597545" lon="-3.1324222"><ele>650.0</ele><time>2026-04-19T11:15:02.621Z</time></trkpt><trkpt lat="39.259895" lon="-3.1325114"><ele>650.0</ele><time>2026-04-19T11:15:03.62Z</time></trkpt><trkpt lat="39.2600149" lon="-3.1325884"><ele>650.0</ele><time>2026-04-19T11:15:04.628Z</time></trkpt><trkpt lat="39.2601151" lon="-3.1326521"><ele>650.0</ele><time>2026-04-19T11:15:05.622Z</time></trkpt><trkpt lat="39.2602075" lon="-3.1327067"><ele>650.0</ele><time>2026-04-19T11:15:06.623Z</time></trkpt><trkpt lat="39.2602909" lon="-3.1327586"><ele>650.0</ele><time>2026-04-19T11:15:07.628Z</time></trkpt><trkpt lat="39.2603755" lon="-3.132818"><ele>650.0</ele><time>2026-04-19T11:15:08.623Z</time></trkpt><trkpt lat="39.260473" lon="-3.1328882"><ele>650.0</ele><time>2026-04-19T11:15:09.623Z</time></trkpt><trkpt lat="39.2605757" lon="-3.132963"><ele>650.0</ele><time>2026-04-19T11:15:10.627Z</time></trkpt><trkpt lat="39.2606828" lon="-3.1330453"><ele>650.0</ele><time>2026-04-19T11:15:11.619Z</time></trkpt><trkpt lat="39.2607957" lon="-3.1331337"><ele>650.0</ele><time>2026-04-19T11:15:12.622Z</time></trkpt><trkpt lat="39.2609237" lon="-3.1332294"><ele>649.6666666666666</ele><time>2026-04-19T11:15:13.623Z</time></trkpt><trkpt lat="39.2610659" lon="-3.1333285"><ele>649.3333333333334</ele><time>2026-04-19T11:15:14.623Z</time></trkpt><trkpt lat="39.2612136" lon="-3.1334201"><ele>649.0</ele><time>2026-04-19T11:15:15.617Z</time></trkpt><trkpt lat="39.2613752" lon="-3.133514"><ele>649.3333333333334</ele><time>2026-04-19T11:15:16.62Z</time></trkpt><trkpt lat="39.2615422" lon="-3.1336062"><ele>649.6666666666666</ele><time>2026-04-19T11:15:17.615Z</time></trkpt><trkpt lat="39.2617155" lon="-3.1337036"><ele>650.0</ele><time>2026-04-19T11:15:18.628Z</time></trkpt><trkpt lat="39.2618943" lon="-3.1338"><ele>650.0</ele><time>2026-04-19T11:15:19.623Z</time></trkpt><trkpt lat="39.2620626" lon="-3.1338945"><ele>650.0</ele><time>2026-04-19T11:15:20.622Z</time></trkpt><trkpt lat="39.2622195" lon="-3.1339812"><ele>650.0</ele><time>2026-04-19T11:15:21.623Z</time></trkpt><trkpt lat="39.2623804" lon="-3.1340698"><ele>650.6666666666666</ele><time>2026-04-19T11:15:22.626Z</time></trkpt><trkpt lat="39.2625451" lon="-3.1341494"><ele>651.3333333333334</ele><time>2026-04-19T11:15:23.62Z</time></trkpt><trkpt lat="39.262715" lon="-3.1342096"><ele>652.0</ele><time>2026-04-19T11:15:24.622Z</time></trkpt><trkpt lat="39.262884" lon="-3.1342522"><ele>652.0</ele><time>2026-04-19T11:15:25.623Z</time></trkpt><trkpt lat="39.2630458" lon="-3.1342856"><ele>652.0</ele><time>2026-04-19T11:15:26.623Z</time></trkpt><trkpt lat="39.263195" lon="-3.1343231"><ele>652.0</ele><time>2026-04-19T11:15:27.625Z</time></trkpt><trkpt lat="39.2633396" lon="-3.1343792"><ele>651.6666666666667</ele><time>2026-04-19T11:15:28.623Z</time></trkpt><trkpt lat="39.2634852" lon="-3.1344541"><ele>651.3333333333334</ele><time>2026-04-19T11:15:29.627Z</time></trkpt><trkpt lat="39.2636345" lon="-3.1345324"><ele>651.0</ele><time>2026-04-19T11:15:30.62Z</time></trkpt><trkpt lat="39.2637817" lon="-3.1346093"><ele>651.0</ele><time>2026-04-19T11:15:31.62Z</time></trkpt><trkpt lat="39.2639259" lon="-3.1346992"><ele>651.0</ele><time>2026-04-19T11:15:32.619Z</time></trkpt><trkpt lat="39.2640713" lon="-3.1348139"><ele>651.0</ele><time>2026-04-19T11:15:33.619Z</time></trkpt><trkpt lat="39.2642267" lon="-3.1349546"><ele>651.0</ele><time>2026-04-19T11:15:34.621Z</time></trkpt><trkpt lat="39.2643865" lon="-3.1351105"><ele>651.0</ele><time>2026-04-19T11:15:35.618Z</time></trkpt><trkpt lat="39.2645368" lon="-3.1352589"><ele>651.0</ele><time>2026-04-19T11:15:36.616Z</time></trkpt><trkpt lat="39.2646798" lon="-3.1353972"><ele>651.0</ele><time>2026-04-19T11:15:37.618Z</time></trkpt><trkpt lat="39.2648325" lon="-3.1355254"><ele>651.0</ele><time>2026-04-19T11:15:38.618Z</time></trkpt><trkpt lat="39.2650052" lon="-3.1356393"><ele>651.0</ele><time>2026-04-19T11:15:39.63Z</time></trkpt><trkpt lat="39.2651911" lon="-3.1357461"><ele>651.0</ele><time>2026-04-19T11:15:40.629Z</time></trkpt><trkpt lat="39.2653727" lon="-3.1358488"><ele>651.0</ele><time>2026-04-19T11:15:41.622Z</time></trkpt><trkpt lat="39.2655593" lon="-3.1359453"><ele>651.0</ele><time>2026-04-19T11:15:42.614Z</time></trkpt><trkpt lat="39.2657541" lon="-3.1360241"><ele>650.0</ele><time>2026-04-19T11:15:43.62Z</time></trkpt><trkpt lat="39.2659536" lon="-3.1360909"><ele>649.0</ele><time>2026-04-19T11:15:44.622Z</time></trkpt><trkpt lat="39.2661452" lon="-3.136156"><ele>648.0</ele><time>2026-04-19T11:15:45.624Z</time></trkpt><trkpt lat="39.2663235" lon="-3.1362085"><ele>647.3333333333334</ele><time>2026-04-19T11:15:46.619Z</time></trkpt><trkpt lat="39.2664938" lon="-3.136245"><ele>646.6666666666667</ele><time>2026-04-19T11:15:47.619Z</time></trkpt><trkpt lat="39.2666542" lon="-3.136276"><ele>646.0</ele><time>2026-04-19T11:15:48.625Z</time></trkpt><trkpt lat="39.2668085" lon="-3.1363026"><ele>646.0</ele><time>2026-04-19T11:15:49.624Z</time></trkpt><trkpt lat="39.2669611" lon="-3.1363176"><ele>646.0</ele><time>2026-04-19T11:15:50.618Z</time></trkpt><trkpt lat="39.2671063" lon="-3.1363262"><ele>646.0</ele><time>2026-04-19T11:15:51.623Z</time></trkpt><trkpt lat="39.2672513" lon="-3.1363347"><ele>646.0</ele><time>2026-04-19T11:15:52.622Z</time></trkpt><trkpt lat="39.267374" lon="-3.136357"><ele>645.6666666666667</ele><time>2026-04-19T11:15:53.628Z</time></trkpt><trkpt lat="39.2674737" lon="-3.1363835"><ele>645.3333333333334</ele><time>2026-04-19T11:15:54.624Z</time></trkpt><trkpt lat="39.2675459" lon="-3.136402"><ele>645.0</ele><time>2026-04-19T11:15:55.614Z</time></trkpt><trkpt lat="39.2676248" lon="-3.1364148"><ele>644.6666666666666</ele><time>2026-04-19T11:15:57.619Z</time></trkpt><trkpt lat="39.2676946" lon="-3.1364244"><ele>644.3333333333333</ele><time>2026-04-19T11:16:11.62Z</time></trkpt><trkpt lat="39.2678103" lon="-3.1364632"><ele>644.0</ele><time>2026-04-19T11:16:13.621Z</time></trkpt><trkpt lat="39.2678823" lon="-3.1365098"><ele>644.25</ele><time>2026-04-19T11:16:14.624Z</time></trkpt><trkpt lat="39.2679639" lon="-3.1365807"><ele>644.5</ele><time>2026-04-19T11:16:15.615Z</time></trkpt><trkpt lat="39.2680574" lon="-3.1366752"><ele>644.75</ele><time>2026-04-19T11:16:16.611Z</time></trkpt><trkpt lat="39.26816" lon="-3.1367805"><ele>645.0</ele><time>2026-04-19T11:16:17.631Z</time></trkpt><trkpt lat="39.2682809" lon="-3.1368817"><ele>644.2</ele><time>2026-04-19T11:16:18.624Z</time></trkpt><trkpt lat="39.2683926" lon="-3.1369628"><ele>643.4</ele><time>2026-04-19T11:16:19.619Z</time></trkpt><trkpt lat="39.2684998" lon="-3.1370112"><ele>642.5999999999999</ele><time>2026-04-19T11:16:20.623Z</time></trkpt><trkpt lat="39.2685844" lon="-3.1370296"><ele>641.8</ele><time>2026-04-19T11:16:21.621Z</time></trkpt><trkpt lat="39.2686764" lon="-3.1370216"><ele>641.0</ele><time>2026-04-19T11:16:22.626Z</time></trkpt><trkpt lat="39.2687736" lon="-3.1370086"><ele>641.0</ele><time>2026-04-19T11:16:23.623Z</time></trkpt><trkpt lat="39.2688943" lon="-3.1370009"><ele>641.0</ele><time>2026-04-19T11:16:24.618Z</time></trkpt><trkpt lat="39.2690334" lon="-3.1369991"><ele>641.0</ele><time>2026-04-19T11:16:25.618Z</time></trkpt><trkpt lat="39.2691718" lon="-3.1369904"><ele>641.0</ele><time>2026-04-19T11:16:26.626Z</time></trkpt><trkpt lat="39.2693164" lon="-3.1369676"><ele>641.0</ele><time>2026-04-19T11:16:27.623Z</time></trkpt><trkpt lat="39.269455" lon="-3.1369395"><ele>641.0</ele><time>2026-04-19T11:16:28.621Z</time></trkpt><trkpt lat="39.269581" lon="-3.1369019"><ele>641.0</ele><time>2026-04-19T11:16:29.619Z</time></trkpt><trkpt lat="39.2696974" lon="-3.1368641"><ele>641.0</ele><time>2026-04-19T11:16:30.623Z</time></trkpt><trkpt lat="39.2698052" lon="-3.1368297"><ele>640.4</ele><time>2026-04-19T11:16:31.621Z</time></trkpt><trkpt lat="39.2699053" lon="-3.1368008"><ele>639.8</ele><time>2026-04-19T11:16:32.62Z</time></trkpt><trkpt lat="39.2699914" lon="-3.1367778"><ele>639.1999999999999</ele><time>2026-04-19T11:16:33.623Z</time></trkpt><trkpt lat="39.2700689" lon="-3.1367441"><ele>638.5999999999999</ele><time>2026-04-19T11:16:34.616Z</time></trkpt><trkpt lat="39.2701581" lon="-3.1366892"><ele>638.0</ele><time>2026-04-19T11:16:35.617Z</time></trkpt><trkpt lat="39.2702556" lon="-3.1366188"><ele>638.0</ele><time>2026-04-19T11:16:36.64Z</time></trkpt><trkpt lat="39.2703469" lon="-3.1365566"><ele>638.0</ele><time>2026-04-19T11:16:37.631Z</time></trkpt><trkpt lat="39.2704329" lon="-3.1365032"><ele>638.0</ele><time>2026-04-19T11:16:38.642Z</time></trkpt><trkpt lat="39.2705954" lon="-3.1364443"><ele>638.0</ele><time>2026-04-19T11:16:40.64Z</time></trkpt><trkpt lat="39.2706701" lon="-3.136448"><ele>638.0</ele><time>2026-04-19T11:16:41.633Z</time></trkpt><trkpt lat="39.2707998" lon="-3.1364903"><ele>637.8</ele><time>2026-04-19T11:16:43.621Z</time></trkpt><trkpt lat="39.2709051" lon="-3.1365531"><ele>637.5999999999999</ele><time>2026-04-19T11:16:45.623Z</time></trkpt><trkpt lat="39.2710037" lon="-3.136605"><ele>637.4000000000001</ele><time>2026-04-19T11:16:47.625Z</time></trkpt><trkpt lat="39.2711208" lon="-3.1366806"><ele>637.2</ele><time>2026-04-19T11:16:49.62Z</time></trkpt><trkpt lat="39.2712058" lon="-3.1367385"><ele>637.0</ele><time>2026-04-19T11:16:50.622Z</time></trkpt><trkpt lat="39.2712907" lon="-3.136794"><ele>637.0</ele><time>2026-04-19T11:16:51.617Z</time></trkpt><trkpt lat="39.2713674" lon="-3.1368387"><ele>637.0</ele><time>2026-04-19T11:16:52.631Z</time></trkpt><trkpt lat="39.2714423" lon="-3.1368675"><ele>637.0</ele><time>2026-04-19T11:16:53.627Z</time></trkpt><trkpt lat="39.2715253" lon="-3.1368723"><ele>637.0</ele><time>2026-04-19T11:16:54.62Z</time></trkpt><trkpt lat="39.2716259" lon="-3.1368516"><ele>637.0</ele><time>2026-04-19T11:16:55.624Z</time></trkpt><trkpt lat="39.2717403" lon="-3.1368111"><ele>637.0</ele><time>2026-04-19T11:16:56.621Z</time></trkpt><trkpt lat="39.2718714" lon="-3.136762"><ele>637.0</ele><time>2026-04-19T11:16:57.626Z</time></trkpt><trkpt lat="39.272014" lon="-3.1367199"><ele>637.0</ele><time>2026-04-19T11:16:58.617Z</time></trkpt><trkpt lat="39.2721499" lon="-3.136679"><ele>637.0</ele><time>2026-04-19T11:16:59.621Z</time></trkpt><trkpt lat="39.2722732" lon="-3.1366166"><ele>637.0</ele><time>2026-04-19T11:17:00.618Z</time></trkpt><trkpt lat="39.2723834" lon="-3.1365353"><ele>637.0</ele><time>2026-04-19T11:17:01.625Z</time></trkpt><trkpt lat="39.2724815" lon="-3.1364501"><ele>637.0</ele><time>2026-04-19T11:17:02.62Z</time></trkpt><trkpt lat="39.2725752" lon="-3.1363749"><ele>637.0</ele><time>2026-04-19T11:17:03.622Z</time></trkpt><trkpt lat="39.272668" lon="-3.1363212"><ele>637.0</ele><time>2026-04-19T11:17:04.621Z</time></trkpt><trkpt lat="39.272762" lon="-3.136292"><ele>637.0</ele><time>2026-04-19T11:17:05.622Z</time></trkpt><trkpt lat="39.2728556" lon="-3.1362854"><ele>637.0</ele><time>2026-04-19T11:17:06.625Z</time></trkpt><trkpt lat="39.2729609" lon="-3.1363012"><ele>637.0</ele><time>2026-04-19T11:17:07.621Z</time></trkpt><trkpt lat="39.2730809" lon="-3.1363378"><ele>637.0</ele><time>2026-04-19T11:17:08.62Z</time></trkpt><trkpt lat="39.2732141" lon="-3.1363832"><ele>637.0</ele><time>2026-04-19T11:17:09.621Z</time></trkpt><trkpt lat="39.273353" lon="-3.1364287"><ele>637.0</ele><time>2026-04-19T11:17:10.62Z</time></trkpt><trkpt lat="39.273491" lon="-3.1364781"><ele>637.0</ele><time>2026-04-19T11:17:11.622Z</time></trkpt><trkpt lat="39.2736382" lon="-3.1365347"><ele>637.0</ele><time>2026-04-19T11:17:12.614Z</time></trkpt><trkpt lat="39.2737936" lon="-3.136584"><ele>637.0</ele><time>2026-04-19T11:17:13.619Z</time></trkpt><trkpt lat="39.273963" lon="-3.1366209"><ele>637.0</ele><time>2026-04-19T11:17:14.619Z</time></trkpt><trkpt lat="39.2741484" lon="-3.1366494"><ele>637.0</ele><time>2026-04-19T11:17:15.629Z</time></trkpt><trkpt lat="39.2743415" lon="-3.1366688"><ele>637.0</ele><time>2026-04-19T11:17:16.618Z</time></trkpt><trkpt lat="39.2745254" lon="-3.136681"><ele>637.0</ele><time>2026-04-19T11:17:17.626Z</time></trkpt><trkpt lat="39.2747049" lon="-3.1366883"><ele>637.0</ele><time>2026-04-19T11:17:18.625Z</time></trkpt><trkpt lat="39.2748843" lon="-3.1366908"><ele>636.75</ele><time>2026-04-19T11:17:19.625Z</time></trkpt><trkpt lat="39.2750471" lon="-3.1366877"><ele>636.5</ele><time>2026-04-19T11:17:20.628Z</time></trkpt><trkpt lat="39.2751902" lon="-3.1366826"><ele>636.25</ele><time>2026-04-19T11:17:21.616Z</time></trkpt><trkpt lat="39.275314" lon="-3.1366744"><ele>636.0</ele><time>2026-04-19T11:17:22.625Z</time></trkpt><trkpt lat="39.2754187" lon="-3.1366681"><ele>636.0</ele><time>2026-04-19T11:17:23.62Z</time></trkpt><trkpt lat="39.2755004" lon="-3.1366736"><ele>636.0</ele><time>2026-04-19T11:17:24.614Z</time></trkpt><trkpt lat="39.2756001" lon="-3.1367499"><ele>636.0</ele><time>2026-04-19T11:17:26.618Z</time></trkpt><trkpt lat="39.2756334" lon="-3.1368239"><ele>636.0</ele><time>2026-04-19T11:17:27.621Z</time></trkpt><trkpt lat="39.2756677" lon="-3.1369321"><ele>636.0</ele><time>2026-04-19T11:17:28.616Z</time></trkpt><trkpt lat="39.2757093" lon="-3.137073"><ele>636.0</ele><time>2026-04-19T11:17:29.612Z</time></trkpt><trkpt lat="39.2757557" lon="-3.1372388"><ele>636.0</ele><time>2026-04-19T11:17:30.619Z</time></trkpt><trkpt lat="39.2758032" lon="-3.1374095"><ele>636.0</ele><time>2026-04-19T11:17:31.617Z</time></trkpt><trkpt lat="39.2758464" lon="-3.1375726"><ele>636.0</ele><time>2026-04-19T11:17:32.625Z</time></trkpt><trkpt lat="39.275873" lon="-3.1377296"><ele>636.25</ele><time>2026-04-19T11:17:33.623Z</time></trkpt><trkpt lat="39.2758808" lon="-3.1378886"><ele>636.5</ele><time>2026-04-19T11:17:34.614Z</time></trkpt><trkpt lat="39.2758772" lon="-3.138051"><ele>636.75</ele><time>2026-04-19T11:17:35.623Z</time></trkpt><trkpt lat="39.2758744" lon="-3.1382081"><ele>637.0</ele><time>2026-04-19T11:17:36.624Z</time></trkpt><trkpt lat="39.2758795" lon="-3.1383735"><ele>637.0</ele><time>2026-04-19T11:17:37.622Z</time></trkpt><trkpt lat="39.2759138" lon="-3.1385665"><ele>637.0</ele><time>2026-04-19T11:17:38.628Z</time></trkpt><trkpt lat="39.2759649" lon="-3.1387784"><ele>637.0</ele><time>2026-04-19T11:17:39.616Z</time></trkpt><trkpt lat="39.2760281" lon="-3.1390052"><ele>637.6666666666667</ele><time>2026-04-19T11:17:40.613Z</time></trkpt><trkpt lat="39.2760896" lon="-3.1392265"><ele>638.3333333333334</ele><time>2026-04-19T11:17:41.62Z</time></trkpt><trkpt lat="39.276157" lon="-3.1394569"><ele>639.0</ele><time>2026-04-19T11:17:42.622Z</time></trkpt><trkpt lat="39.2762421" lon="-3.1396943"><ele>639.0</ele><time>2026-04-19T11:17:43.62Z</time></trkpt><trkpt lat="39.2763386" lon="-3.139938"><ele>639.0</ele><time>2026-04-19T11:17:44.616Z</time></trkpt><trkpt lat="39.2764329" lon="-3.1401759"><ele>639.0</ele><time>2026-04-19T11:17:45.622Z</time></trkpt><trkpt lat="39.2765159" lon="-3.1404048"><ele>639.0</ele><time>2026-04-19T11:17:46.627Z</time></trkpt><trkpt lat="39.2765783" lon="-3.1406283"><ele>639.0</ele><time>2026-04-19T11:17:47.626Z</time></trkpt><trkpt lat="39.2766222" lon="-3.1408667"><ele>639.0</ele><time>2026-04-19T11:17:48.625Z</time></trkpt><trkpt lat="39.2766621" lon="-3.1411203"><ele>639.3333333333334</ele><time>2026-04-19T11:17:49.617Z</time></trkpt><trkpt lat="39.2766856" lon="-3.1413967"><ele>639.6666666666667</ele><time>2026-04-19T11:17:50.623Z</time></trkpt><trkpt lat="39.2767182" lon="-3.1416736"><ele>640.0</ele><time>2026-04-19T11:17:51.625Z</time></trkpt><trkpt lat="39.2767673" lon="-3.1419158"><ele>639.3333333333334</ele><time>2026-04-19T11:17:52.628Z</time></trkpt><trkpt lat="39.2768376" lon="-3.1421479"><ele>638.6666666666666</ele><time>2026-04-19T11:17:53.621Z</time></trkpt><trkpt lat="39.2769362" lon="-3.1423712"><ele>638.0</ele><time>2026-04-19T11:17:54.617Z</time></trkpt><trkpt lat="39.2770557" lon="-3.1426058"><ele>637.5</ele><time>2026-04-19T11:17:55.622Z</time></trkpt><trkpt lat="39.277191" lon="-3.1428597"><ele>637.0</ele><time>2026-04-19T11:17:56.627Z</time></trkpt><trkpt lat="39.2773325" lon="-3.1431223"><ele>637.5</ele><time>2026-04-19T11:17:57.621Z</time></trkpt><trkpt lat="39.2774616" lon="-3.1433764"><ele>638.0</ele><time>2026-04-19T11:17:58.63Z</time></trkpt><trkpt lat="39.2775685" lon="-3.1436266"><ele>638.0</ele><time>2026-04-19T11:17:59.619Z</time></trkpt><trkpt lat="39.2776661" lon="-3.1438889"><ele>638.0</ele><time>2026-04-19T11:18:00.622Z</time></trkpt><trkpt lat="39.2777678" lon="-3.1441512"><ele>638.0</ele><time>2026-04-19T11:18:01.619Z</time></trkpt><trkpt lat="39.2778738" lon="-3.1443999"><ele>638.0</ele><time>2026-04-19T11:18:02.612Z</time></trkpt><trkpt lat="39.2779783" lon="-3.1446378"><ele>638.0</ele><time>2026-04-19T11:18:03.613Z</time></trkpt><trkpt lat="39.2780779" lon="-3.1448664"><ele>637.3333333333333</ele><time>2026-04-19T11:18:04.617Z</time></trkpt><trkpt lat="39.2781782" lon="-3.1450903"><ele>636.6666666666666</ele><time>2026-04-19T11:18:05.623Z</time></trkpt><trkpt lat="39.2782809" lon="-3.145322"><ele>636.0</ele><time>2026-04-19T11:18:06.622Z</time></trkpt><trkpt lat="39.2783927" lon="-3.1455497"><ele>636.0</ele><time>2026-04-19T11:18:07.626Z</time></trkpt><trkpt lat="39.2785072" lon="-3.1457752"><ele>636.0</ele><time>2026-04-19T11:18:08.619Z</time></trkpt><trkpt lat="39.2786196" lon="-3.1460055"><ele>636.0</ele><time>2026-04-19T11:18:09.625Z</time></trkpt><trkpt lat="39.2787316" lon="-3.1462303"><ele>636.0</ele><time>2026-04-19T11:18:10.622Z</time></trkpt><trkpt lat="39.2788474" lon="-3.1464339"><ele>636.0</ele><time>2026-04-19T11:18:11.623Z</time></trkpt><trkpt lat="39.2789474" lon="-3.1466211"><ele>636.0</ele><time>2026-04-19T11:18:12.618Z</time></trkpt><trkpt lat="39.2790387" lon="-3.1468053"><ele>636.0</ele><time>2026-04-19T11:18:13.618Z</time></trkpt><trkpt lat="39.2791073" lon="-3.146989"><ele>636.0</ele><time>2026-04-19T11:18:14.614Z</time></trkpt><trkpt lat="39.2791523" lon="-3.1471966"><ele>636.0</ele><time>2026-04-19T11:18:15.616Z</time></trkpt><trkpt lat="39.2791924" lon="-3.1474393"><ele>636.0</ele><time>2026-04-19T11:18:16.615Z</time></trkpt><trkpt lat="39.2792257" lon="-3.1477049"><ele>636.0</ele><time>2026-04-19T11:18:17.622Z</time></trkpt><trkpt lat="39.2792617" lon="-3.1479657"><ele>636.0</ele><time>2026-04-19T11:18:18.616Z</time></trkpt><trkpt lat="39.2792937" lon="-3.1482151"><ele>636.3333333333334</ele><time>2026-04-19T11:18:19.613Z</time></trkpt><trkpt lat="39.2793082" lon="-3.1484575"><ele>636.6666666666667</ele><time>2026-04-19T11:18:20.617Z</time></trkpt><trkpt lat="39.2793095" lon="-3.148685"><ele>637.0</ele><time>2026-04-19T11:18:21.625Z</time></trkpt><trkpt lat="39.2793109" lon="-3.1488984"><ele>636.75</ele><time>2026-04-19T11:18:22.621Z</time></trkpt><trkpt lat="39.2793224" lon="-3.1490983"><ele>636.5</ele><time>2026-04-19T11:18:23.624Z</time></trkpt><trkpt lat="39.2793481" lon="-3.1492837"><ele>636.25</ele><time>2026-04-19T11:18:24.615Z</time></trkpt><trkpt lat="39.2793851" lon="-3.1494637"><ele>636.0</ele><time>2026-04-19T11:18:25.62Z</time></trkpt><trkpt lat="39.2794266" lon="-3.149625"><ele>636.0</ele><time>2026-04-19T11:18:26.618Z</time></trkpt><trkpt lat="39.279474" lon="-3.149769"><ele>636.0</ele><time>2026-04-19T11:18:27.615Z</time></trkpt><trkpt lat="39.2795315" lon="-3.1498955"><ele>636.0</ele><time>2026-04-19T11:18:28.623Z</time></trkpt><trkpt lat="39.2796062" lon="-3.1500099"><ele>636.0</ele><time>2026-04-19T11:18:29.624Z</time></trkpt><trkpt lat="39.2797026" lon="-3.1501322"><ele>636.0</ele><time>2026-04-19T11:18:30.62Z</time></trkpt><trkpt lat="39.2798163" lon="-3.150261"><ele>636.0</ele><time>2026-04-19T11:18:31.623Z</time></trkpt><trkpt lat="39.2799429" lon="-3.1504028"><ele>636.0</ele><time>2026-04-19T11:18:32.625Z</time></trkpt><trkpt lat="39.2800786" lon="-3.1505605"><ele>636.0</ele><time>2026-04-19T11:18:33.622Z</time></trkpt><trkpt lat="39.2802146" lon="-3.1507272"><ele>636.0</ele><time>2026-04-19T11:18:34.617Z</time></trkpt><trkpt lat="39.2803406" lon="-3.1508941"><ele>636.0</ele><time>2026-04-19T11:18:35.619Z</time></trkpt><trkpt lat="39.2804491" lon="-3.151062"><ele>636.0</ele><time>2026-04-19T11:18:36.629Z</time></trkpt><trkpt lat="39.2805369" lon="-3.1512349"><ele>636.0</ele><time>2026-04-19T11:18:37.624Z</time></trkpt><trkpt lat="39.2806137" lon="-3.1514325"><ele>636.0</ele><time>2026-04-19T11:18:38.624Z</time></trkpt><trkpt lat="39.280691" lon="-3.1516551"><ele>636.0</ele><time>2026-04-19T11:18:39.617Z</time></trkpt><trkpt lat="39.2807698" lon="-3.1518893"><ele>636.0</ele><time>2026-04-19T11:18:40.617Z</time></trkpt><trkpt lat="39.2808491" lon="-3.1521252"><ele>636.0</ele><time>2026-04-19T11:18:41.623Z</time></trkpt><trkpt lat="39.2809187" lon="-3.1523565"><ele>636.3333333333334</ele><time>2026-04-19T11:18:42.624Z</time></trkpt><trkpt lat="39.2809708" lon="-3.1525887"><ele>636.6666666666667</ele><time>2026-04-19T11:18:43.622Z</time></trkpt><trkpt lat="39.2810108" lon="-3.152839"><ele>637.0</ele><time>2026-04-19T11:18:44.613Z</time></trkpt><trkpt lat="39.2810387" lon="-3.1531176"><ele>636.5</ele><time>2026-04-19T11:18:45.617Z</time></trkpt><trkpt lat="39.2810608" lon="-3.153423"><ele>636.0</ele><time>2026-04-19T11:18:46.618Z</time></trkpt><trkpt lat="39.2810779" lon="-3.1537212"><ele>636.0</ele><time>2026-04-19T11:18:47.631Z</time></trkpt><trkpt lat="39.2810996" lon="-3.1540135"><ele>636.0</ele><time>2026-04-19T11:18:48.619Z</time></trkpt><trkpt lat="39.281144" lon="-3.1542887"><ele>636.0</ele><time>2026-04-19T11:18:49.618Z</time></trkpt><trkpt lat="39.2812107" lon="-3.1545752"><ele>635.5</ele><time>2026-04-19T11:18:50.624Z</time></trkpt><trkpt lat="39.281287" lon="-3.154884"><ele>635.0</ele><time>2026-04-19T11:18:51.622Z</time></trkpt><trkpt lat="39.2813559" lon="-3.1552106"><ele>635.0</ele><time>2026-04-19T11:18:52.614Z</time></trkpt><trkpt lat="39.2814063" lon="-3.1555382"><ele>635.0</ele><time>2026-04-19T11:18:53.618Z</time></trkpt><trkpt lat="39.2814456" lon="-3.1558519"><ele>635.0</ele><time>2026-04-19T11:18:54.628Z</time></trkpt><trkpt lat="39.2814809" lon="-3.1561332"><ele>635.0</ele><time>2026-04-19T11:18:55.624Z</time></trkpt><trkpt lat="39.281526" lon="-3.1563886"><ele>635.0</ele><time>2026-04-19T11:18:56.614Z</time></trkpt><trkpt lat="39.2815833" lon="-3.1566222"><ele>635.0</ele><time>2026-04-19T11:18:57.618Z</time></trkpt><trkpt lat="39.2816567" lon="-3.1568375"><ele>635.0</ele><time>2026-04-19T11:18:58.616Z</time></trkpt><trkpt lat="39.2817489" lon="-3.1570379"><ele>635.0</ele><time>2026-04-19T11:18:59.616Z</time></trkpt><trkpt lat="39.2818678" lon="-3.1572351"><ele>635.0</ele><time>2026-04-19T11:19:00.62Z</time></trkpt><trkpt lat="39.2820122" lon="-3.1574434"><ele>635.0</ele><time>2026-04-19T11:19:01.62Z</time></trkpt><trkpt lat="39.2821711" lon="-3.1576518"><ele>635.0</ele><time>2026-04-19T11:19:02.615Z</time></trkpt><trkpt lat="39.2823328" lon="-3.1578589"><ele>634.6666666666666</ele><time>2026-04-19T11:19:03.615Z</time></trkpt><trkpt lat="39.2824896" lon="-3.1580555"><ele>634.3333333333334</ele><time>2026-04-19T11:19:04.614Z</time></trkpt><trkpt lat="39.2826561" lon="-3.1582529"><ele>634.0</ele><time>2026-04-19T11:19:05.619Z</time></trkpt><trkpt lat="39.2828283" lon="-3.158454"><ele>634.0</ele><time>2026-04-19T11:19:06.625Z</time></trkpt><trkpt lat="39.2830025" lon="-3.1586654"><ele>634.0</ele><time>2026-04-19T11:19:07.622Z</time></trkpt><trkpt lat="39.2831731" lon="-3.1588686"><ele>634.3333333333334</ele><time>2026-04-19T11:19:08.621Z</time></trkpt><trkpt lat="39.2833341" lon="-3.1590513"><ele>634.6666666666666</ele><time>2026-04-19T11:19:09.627Z</time></trkpt><trkpt lat="39.2834792" lon="-3.1592084"><ele>635.0</ele><time>2026-04-19T11:19:10.621Z</time></trkpt><trkpt lat="39.2836016" lon="-3.1593569"><ele>635.0</ele><time>2026-04-19T11:19:11.628Z</time></trkpt><trkpt lat="39.2837149" lon="-3.1595214"><ele>635.0</ele><time>2026-04-19T11:19:12.623Z</time></trkpt><trkpt lat="39.2838198" lon="-3.1597133"><ele>635.0</ele><time>2026-04-19T11:19:13.614Z</time></trkpt><trkpt lat="39.2839213" lon="-3.1599364"><ele>634.3333333333333</ele><time>2026-04-19T11:19:14.622Z</time></trkpt><trkpt lat="39.2840148" lon="-3.1601693"><ele>633.6666666666666</ele><time>2026-04-19T11:19:15.623Z</time></trkpt><trkpt lat="39.2841102" lon="-3.1604242"><ele>633.0</ele><time>2026-04-19T11:19:16.619Z</time></trkpt><trkpt lat="39.2842059" lon="-3.1606947"><ele>632.5</ele><time>2026-04-19T11:19:17.624Z</time></trkpt><trkpt lat="39.2843005" lon="-3.1609837"><ele>632.0</ele><time>2026-04-19T11:19:18.617Z</time></trkpt><trkpt lat="39.284401" lon="-3.1612729"><ele>632.5</ele><time>2026-04-19T11:19:19.622Z</time></trkpt><trkpt lat="39.2845113" lon="-3.1615699"><ele>633.0</ele><time>2026-04-19T11:19:20.62Z</time></trkpt><trkpt lat="39.2846244" lon="-3.1618868"><ele>633.0</ele><time>2026-04-19T11:19:21.611Z</time></trkpt><trkpt lat="39.2847339" lon="-3.1622194"><ele>633.0</ele><time>2026-04-19T11:19:22.621Z</time></trkpt><trkpt lat="39.2848418" lon="-3.1625703"><ele>633.5</ele><time>2026-04-19T11:19:23.619Z</time></trkpt><trkpt lat="39.2849445" lon="-3.16293"><ele>634.0</ele><time>2026-04-19T11:19:24.623Z</time></trkpt><trkpt lat="39.2850488" lon="-3.1632883"><ele>634.5</ele><time>2026-04-19T11:19:25.626Z</time></trkpt><trkpt lat="39.2851418" lon="-3.1636285"><ele>635.0</ele><time>2026-04-19T11:19:26.62Z</time></trkpt><trkpt lat="39.2852274" lon="-3.1639516"><ele>634.5</ele><time>2026-04-19T11:19:27.617Z</time></trkpt><trkpt lat="39.2853131" lon="-3.1642751"><ele>634.0</ele><time>2026-04-19T11:19:28.624Z</time></trkpt><trkpt lat="39.2853921" lon="-3.1645947"><ele>633.5</ele><time>2026-04-19T11:19:29.615Z</time></trkpt><trkpt lat="39.2854717" lon="-3.1649044"><ele>633.0</ele><time>2026-04-19T11:19:30.622Z</time></trkpt><trkpt lat="39.2855487" lon="-3.1651931"><ele>633.0</ele><time>2026-04-19T11:19:31.626Z</time></trkpt><trkpt lat="39.2856233" lon="-3.1654594"><ele>633.0</ele><time>2026-04-19T11:19:32.621Z</time></trkpt><trkpt lat="39.2856924" lon="-3.1657013"><ele>633.0</ele><time>2026-04-19T11:19:33.615Z</time></trkpt><trkpt lat="39.2857553" lon="-3.1659173"><ele>633.0</ele><time>2026-04-19T11:19:34.616Z</time></trkpt><trkpt lat="39.2858108" lon="-3.1661123"><ele>633.0</ele><time>2026-04-19T11:19:35.622Z</time></trkpt><trkpt lat="39.2858577" lon="-3.1662906"><ele>633.0</ele><time>2026-04-19T11:19:36.62Z</time></trkpt><trkpt lat="39.2858991" lon="-3.1664556"><ele>633.0</ele><time>2026-04-19T11:19:37.621Z</time></trkpt><trkpt lat="39.2859355" lon="-3.1666037"><ele>632.8</ele><time>2026-04-19T11:19:38.608Z</time></trkpt><trkpt lat="39.2859705" lon="-3.166733"><ele>632.5999999999999</ele><time>2026-04-19T11:19:39.624Z</time></trkpt><trkpt lat="39.2860012" lon="-3.1668412"><ele>632.4000000000001</ele><time>2026-04-19T11:19:40.62Z</time></trkpt><trkpt lat="39.2860292" lon="-3.166927"><ele>632.2</ele><time>2026-04-19T11:19:41.617Z</time></trkpt><trkpt lat="39.2860862" lon="-3.1670159"><ele>632.0</ele><time>2026-04-19T11:19:43.62Z</time></trkpt><trkpt lat="39.2861874" lon="-3.1669761"><ele>632.0</ele><time>2026-04-19T11:19:46.615Z</time></trkpt><trkpt lat="39.2862533" lon="-3.1669292"><ele>632.0</ele><time>2026-04-19T11:19:47.621Z</time></trkpt><trkpt lat="39.2863351" lon="-3.1668689"><ele>632.0</ele><time>2026-04-19T11:19:48.613Z</time></trkpt><trkpt lat="39.2864288" lon="-3.166794"><ele>632.0</ele><time>2026-04-19T11:19:49.613Z</time></trkpt><trkpt lat="39.2865344" lon="-3.1667068"><ele>632.0</ele><time>2026-04-19T11:19:50.615Z</time></trkpt><trkpt lat="39.2866599" lon="-3.1666084"><ele>632.0</ele><time>2026-04-19T11:19:51.612Z</time></trkpt><trkpt lat="39.286803" lon="-3.1664944"><ele>632.0</ele><time>2026-04-19T11:19:52.618Z</time></trkpt><trkpt lat="39.2869664" lon="-3.1663587"><ele>632.0</ele><time>2026-04-19T11:19:53.612Z</time></trkpt><trkpt lat="39.2871451" lon="-3.166206"><ele>632.3333333333333</ele><time>2026-04-19T11:19:54.615Z</time></trkpt><trkpt lat="39.2873294" lon="-3.1660449"><ele>632.6666666666666</ele><time>2026-04-19T11:19:55.621Z</time></trkpt><trkpt lat="39.2875041" lon="-3.1658904"><ele>633.0</ele><time>2026-04-19T11:19:56.621Z</time></trkpt><trkpt lat="39.287671" lon="-3.165748"><ele>632.6666666666666</ele><time>2026-04-19T11:19:57.615Z</time></trkpt><trkpt lat="39.2878468" lon="-3.165616"><ele>632.3333333333333</ele><time>2026-04-19T11:19:58.611Z</time></trkpt><trkpt lat="39.2880455" lon="-3.1654898"><ele>632.0</ele><time>2026-04-19T11:19:59.617Z</time></trkpt><trkpt lat="39.2882685" lon="-3.1653681"><ele>632.0</ele><time>2026-04-19T11:20:00.62Z</time></trkpt><trkpt lat="39.2885092" lon="-3.1652476"><ele>632.0</ele><time>2026-04-19T11:20:01.617Z</time></trkpt><trkpt lat="39.2887536" lon="-3.1651341"><ele>633.0</ele><time>2026-04-19T11:20:02.61Z</time></trkpt><trkpt lat="39.2890147" lon="-3.1650245"><ele>634.0</ele><time>2026-04-19T11:20:03.62Z</time></trkpt><trkpt lat="39.2892919" lon="-3.1649192"><ele>633.5</ele><time>2026-04-19T11:20:04.626Z</time></trkpt><trkpt lat="39.2895794" lon="-3.1648175"><ele>633.0</ele><time>2026-04-19T11:20:05.615Z</time></trkpt><trkpt lat="39.289876" lon="-3.1647205"><ele>633.0</ele><time>2026-04-19T11:20:06.613Z</time></trkpt><trkpt lat="39.2901874" lon="-3.1646247"><ele>633.0</ele><time>2026-04-19T11:20:07.616Z</time></trkpt><trkpt lat="39.2905113" lon="-3.16453"><ele>634.5</ele><time>2026-04-19T11:20:08.629Z</time></trkpt><trkpt lat="39.2908232" lon="-3.1644405"><ele>636.0</ele><time>2026-04-19T11:20:09.616Z</time></trkpt><trkpt lat="39.2911375" lon="-3.1643486"><ele>635.0</ele><time>2026-04-19T11:20:10.621Z</time></trkpt><trkpt lat="39.2914529" lon="-3.164262"><ele>634.0</ele><time>2026-04-19T11:20:11.62Z</time></trkpt><trkpt lat="39.2917481" lon="-3.1641756"><ele>634.0</ele><time>2026-04-19T11:20:12.616Z</time></trkpt><trkpt lat="39.2920245" lon="-3.1641041"><ele>634.0</ele><time>2026-04-19T11:20:13.619Z</time></trkpt><trkpt lat="39.2922864" lon="-3.1640394"><ele>634.5</ele><time>2026-04-19T11:20:14.616Z</time></trkpt><trkpt lat="39.2925505" lon="-3.1639913"><ele>635.0</ele><time>2026-04-19T11:20:15.613Z</time></trkpt><trkpt lat="39.2928225" lon="-3.1639528"><ele>634.5</ele><time>2026-04-19T11:20:16.62Z</time></trkpt><trkpt lat="39.2930991" lon="-3.1639182"><ele>634.0</ele><time>2026-04-19T11:20:17.617Z</time></trkpt><trkpt lat="39.2933867" lon="-3.1638854"><ele>634.0</ele><time>2026-04-19T11:20:18.618Z</time></trkpt><trkpt lat="39.2936864" lon="-3.163856"><ele>634.0</ele><time>2026-04-19T11:20:19.627Z</time></trkpt><trkpt lat="39.2939914" lon="-3.1638269"><ele>634.5</ele><time>2026-04-19T11:20:20.62Z</time></trkpt><trkpt lat="39.2942755" lon="-3.1638001"><ele>635.0</ele><time>2026-04-19T11:20:21.623Z</time></trkpt><trkpt lat="39.2945397" lon="-3.1637749"><ele>635.0</ele><time>2026-04-19T11:20:22.619Z</time></trkpt><trkpt lat="39.2947925" lon="-3.1637515"><ele>635.0</ele><time>2026-04-19T11:20:23.621Z</time></trkpt><trkpt lat="39.2950514" lon="-3.1637277"><ele>635.0</ele><time>2026-04-19T11:20:24.614Z</time></trkpt><trkpt lat="39.2953232" lon="-3.1637171"><ele>635.0</ele><time>2026-04-19T11:20:25.612Z</time></trkpt><trkpt lat="39.2956037" lon="-3.1637234"><ele>634.0</ele><time>2026-04-19T11:20:26.621Z</time></trkpt><trkpt lat="39.2958933" lon="-3.1637373"><ele>633.0</ele><time>2026-04-19T11:20:27.613Z</time></trkpt><trkpt lat="39.2961954" lon="-3.1637514"><ele>633.0</ele><time>2026-04-19T11:20:28.614Z</time></trkpt><trkpt lat="39.2965121" lon="-3.1637636"><ele>633.0</ele><time>2026-04-19T11:20:29.623Z</time></trkpt><trkpt lat="39.296844" lon="-3.1637738"><ele>633.0</ele><time>2026-04-19T11:20:30.625Z</time></trkpt><trkpt lat="39.297189" lon="-3.1637859"><ele>633.0</ele><time>2026-04-19T11:20:31.62Z</time></trkpt><trkpt lat="39.2975476" lon="-3.1638006"><ele>633.5</ele><time>2026-04-19T11:20:32.619Z</time></trkpt><trkpt lat="39.2979117" lon="-3.1638154"><ele>634.0</ele><time>2026-04-19T11:20:33.616Z</time></trkpt><trkpt lat="39.2982521" lon="-3.1638282"><ele>634.5</ele><time>2026-04-19T11:20:34.615Z</time></trkpt><trkpt lat="39.2985669" lon="-3.163838"><ele>635.0</ele><time>2026-04-19T11:20:35.618Z</time></trkpt><trkpt lat="39.2988749" lon="-3.1638477"><ele>634.5</ele><time>2026-04-19T11:20:36.621Z</time></trkpt><trkpt lat="39.2991762" lon="-3.1638601"><ele>634.0</ele><time>2026-04-19T11:20:37.617Z</time></trkpt><trkpt lat="39.2994811" lon="-3.1638726"><ele>634.5</ele><time>2026-04-19T11:20:38.612Z</time></trkpt><trkpt lat="39.2997974" lon="-3.1638835"><ele>635.0</ele><time>2026-04-19T11:20:39.613Z</time></trkpt><trkpt lat="39.3001172" lon="-3.1638944"><ele>635.0</ele><time>2026-04-19T11:20:40.622Z</time></trkpt><trkpt lat="39.3004218" lon="-3.163907"><ele>635.0</ele><time>2026-04-19T11:20:41.613Z</time></trkpt><trkpt lat="39.3007099" lon="-3.1639186"><ele>634.5</ele><time>2026-04-19T11:20:42.619Z</time></trkpt><trkpt lat="39.3009813" lon="-3.1639317"><ele>634.0</ele><time>2026-04-19T11:20:43.619Z</time></trkpt><trkpt lat="39.3012305" lon="-3.1639442"><ele>634.5</ele><time>2026-04-19T11:20:44.614Z</time></trkpt><trkpt lat="39.3014672" lon="-3.1639529"><ele>635.0</ele><time>2026-04-19T11:20:45.615Z</time></trkpt><trkpt lat="39.3017188" lon="-3.1639632"><ele>635.0</ele><time>2026-04-19T11:20:46.617Z</time></trkpt><trkpt lat="39.301962" lon="-3.163975"><ele>635.0</ele><time>2026-04-19T11:20:47.62Z</time></trkpt><trkpt lat="39.3021868" lon="-3.1639838"><ele>634.3333333333333</ele><time>2026-04-19T11:20:48.621Z</time></trkpt><trkpt lat="39.3023987" lon="-3.16399"><ele>633.6666666666666</ele><time>2026-04-19T11:20:49.616Z</time></trkpt><trkpt lat="39.3025982" lon="-3.1639957"><ele>633.0</ele><time>2026-04-19T11:20:50.616Z</time></trkpt><trkpt lat="39.302787" lon="-3.1640011"><ele>633.0</ele><time>2026-04-19T11:20:51.615Z</time></trkpt><trkpt lat="39.3029653" lon="-3.1640075"><ele>633.0</ele><time>2026-04-19T11:20:52.614Z</time></trkpt><trkpt lat="39.3031341" lon="-3.1640145"><ele>633.0</ele><time>2026-04-19T11:20:53.62Z</time></trkpt><trkpt lat="39.3032935" lon="-3.164022"><ele>633.0</ele><time>2026-04-19T11:20:54.618Z</time></trkpt><trkpt lat="39.303444" lon="-3.1640288"><ele>633.0</ele><time>2026-04-19T11:20:55.616Z</time></trkpt><trkpt lat="39.3035869" lon="-3.1640343"><ele>633.0</ele><time>2026-04-19T11:20:56.613Z</time></trkpt><trkpt lat="39.3037228" lon="-3.1640421"><ele>633.0</ele><time>2026-04-19T11:20:57.619Z</time></trkpt><trkpt lat="39.3038535" lon="-3.1640494"><ele>632.75</ele><time>2026-04-19T11:20:58.616Z</time></trkpt><trkpt lat="39.3039799" lon="-3.164054"><ele>632.5</ele><time>2026-04-19T11:20:59.618Z</time></trkpt><trkpt lat="39.3041006" lon="-3.1640586"><ele>632.25</ele><time>2026-04-19T11:21:00.62Z</time></trkpt><trkpt lat="39.3042114" lon="-3.1640652"><ele>632.0</ele><time>2026-04-19T11:21:01.613Z</time></trkpt><trkpt lat="39.3043141" lon="-3.1640712"><ele>632.0</ele><time>2026-04-19T11:21:02.613Z</time></trkpt><trkpt lat="39.3044093" lon="-3.1640732"><ele>632.0</ele><time>2026-04-19T11:21:03.614Z</time></trkpt><trkpt lat="39.3044973" lon="-3.1640726"><ele>632.0</ele><time>2026-04-19T11:21:04.615Z</time></trkpt><trkpt lat="39.3045761" lon="-3.164076"><ele>632.0</ele><time>2026-04-19T11:21:05.617Z</time></trkpt><trkpt lat="39.3046453" lon="-3.1640812"><ele>632.0</ele><time>2026-04-19T11:21:06.613Z</time></trkpt><trkpt lat="39.3047605" lon="-3.1640841"><ele>632.0</ele><time>2026-04-19T11:21:08.621Z</time></trkpt><trkpt lat="39.3048587" lon="-3.1640825"><ele>632.0</ele><time>2026-04-19T11:21:10.619Z</time></trkpt><trkpt lat="39.3049421" lon="-3.1640818"><ele>632.0</ele><time>2026-04-19T11:21:12.619Z</time></trkpt><trkpt lat="39.3050683" lon="-3.1640901"><ele>632.0</ele><time>2026-04-19T11:21:53.621Z</time></trkpt><trkpt lat="39.3052096" lon="-3.1641039"><ele>632.0</ele><time>2026-04-19T11:21:55.626Z</time></trkpt><trkpt lat="39.3053166" lon="-3.1641048"><ele>632.0</ele><time>2026-04-19T11:21:56.62Z</time></trkpt><trkpt lat="39.3054446" lon="-3.1641079"><ele>632.0</ele><time>2026-04-19T11:21:57.619Z</time></trkpt><trkpt lat="39.3055915" lon="-3.1641189"><ele>632.0</ele><time>2026-04-19T11:21:58.616Z</time></trkpt><trkpt lat="39.3057359" lon="-3.164139"><ele>632.0</ele><time>2026-04-19T11:21:59.617Z</time></trkpt><trkpt lat="39.3058741" lon="-3.1641627"><ele>632.0</ele><time>2026-04-19T11:22:00.631Z</time></trkpt><trkpt lat="39.3060113" lon="-3.1641784"><ele>632.0</ele><time>2026-04-19T11:22:01.623Z</time></trkpt><trkpt lat="39.3061433" lon="-3.1641782"><ele>632.0</ele><time>2026-04-19T11:22:02.613Z</time></trkpt><trkpt lat="39.3062683" lon="-3.1641702"><ele>632.0</ele><time>2026-04-19T11:22:03.618Z</time></trkpt><trkpt lat="39.3063933" lon="-3.1641632"><ele>632.0</ele><time>2026-04-19T11:22:04.627Z</time></trkpt><trkpt lat="39.3065145" lon="-3.1641696"><ele>632.0</ele><time>2026-04-19T11:22:05.619Z</time></trkpt><trkpt lat="39.3066238" lon="-3.1641922"><ele>632.0</ele><time>2026-04-19T11:22:06.617Z</time></trkpt><trkpt lat="39.3067366" lon="-3.1642311"><ele>632.0</ele><time>2026-04-19T11:22:07.62Z</time></trkpt><trkpt lat="39.3068586" lon="-3.1642866"><ele>632.0</ele><time>2026-04-19T11:22:08.618Z</time></trkpt><trkpt lat="39.3069929" lon="-3.1643533"><ele>632.0</ele><time>2026-04-19T11:22:09.619Z</time></trkpt><trkpt lat="39.3071439" lon="-3.1644239"><ele>632.0</ele><time>2026-04-19T11:22:10.624Z</time></trkpt><trkpt lat="39.3073017" lon="-3.164494"><ele>632.6666666666666</ele><time>2026-04-19T11:22:11.627Z</time></trkpt><trkpt lat="39.3074661" lon="-3.1645689"><ele>633.3333333333334</ele><time>2026-04-19T11:22:12.621Z</time></trkpt><trkpt lat="39.3076456" lon="-3.1646501"><ele>634.0</ele><time>2026-04-19T11:22:13.617Z</time></trkpt><trkpt lat="39.3078456" lon="-3.1647377"><ele>634.0</ele><time>2026-04-19T11:22:14.612Z</time></trkpt><trkpt lat="39.308066" lon="-3.1648313"><ele>634.0</ele><time>2026-04-19T11:22:15.618Z</time></trkpt><trkpt lat="39.308295" lon="-3.1649285"><ele>634.0</ele><time>2026-04-19T11:22:16.621Z</time></trkpt><trkpt lat="39.3085401" lon="-3.1650324"><ele>634.0</ele><time>2026-04-19T11:22:17.633Z</time></trkpt><trkpt lat="39.3087984" lon="-3.1651425"><ele>634.0</ele><time>2026-04-19T11:22:18.626Z</time></trkpt><trkpt lat="39.3090678" lon="-3.1652593"><ele>634.0</ele><time>2026-04-19T11:22:19.615Z</time></trkpt><trkpt lat="39.3093346" lon="-3.1653747"><ele>634.0</ele><time>2026-04-19T11:22:20.618Z</time></trkpt><trkpt lat="39.3095806" lon="-3.1654797"><ele>634.0</ele><time>2026-04-19T11:22:21.624Z</time></trkpt><trkpt lat="39.3097927" lon="-3.1655682"><ele>634.0</ele><time>2026-04-19T11:22:22.622Z</time></trkpt><trkpt lat="39.3099713" lon="-3.1656423"><ele>634.0</ele><time>2026-04-19T11:22:23.614Z</time></trkpt><trkpt lat="39.3101229" lon="-3.1657042"><ele>634.0</ele><time>2026-04-19T11:22:24.617Z</time></trkpt><trkpt lat="39.3102727" lon="-3.1657645"><ele>634.0</ele><time>2026-04-19T11:22:25.614Z</time></trkpt><trkpt lat="39.3104477" lon="-3.1658301"><ele>634.0</ele><time>2026-04-19T11:22:26.623Z</time></trkpt><trkpt lat="39.3106458" lon="-3.1659006"><ele>634.0</ele><time>2026-04-19T11:22:27.616Z</time></trkpt><trkpt lat="39.3108641" lon="-3.1659811"><ele>633.5</ele><time>2026-04-19T11:22:28.624Z</time></trkpt><trkpt lat="39.3111027" lon="-3.166071"><ele>633.0</ele><time>2026-04-19T11:22:29.622Z</time></trkpt><trkpt lat="39.3113549" lon="-3.166166"><ele>633.5</ele><time>2026-04-19T11:22:30.625Z</time></trkpt><trkpt lat="39.3115963" lon="-3.166258"><ele>634.0</ele><time>2026-04-19T11:22:31.621Z</time></trkpt><trkpt lat="39.3118227" lon="-3.1663457"><ele>634.0</ele><time>2026-04-19T11:22:32.62Z</time></trkpt><trkpt lat="39.3120395" lon="-3.1664254"><ele>634.0</ele><time>2026-04-19T11:22:33.626Z</time></trkpt><trkpt lat="39.312258" lon="-3.1665019"><ele>634.3333333333334</ele><time>2026-04-19T11:22:34.619Z</time></trkpt><trkpt lat="39.3124698" lon="-3.1665776"><ele>634.6666666666666</ele><time>2026-04-19T11:22:35.616Z</time></trkpt><trkpt lat="39.3126673" lon="-3.1666652"><ele>635.0</ele><time>2026-04-19T11:22:36.618Z</time></trkpt><trkpt lat="39.3128546" lon="-3.1667438"><ele>635.0</ele><time>2026-04-19T11:22:37.617Z</time></trkpt><trkpt lat="39.3130261" lon="-3.1668239"><ele>635.0</ele><time>2026-04-19T11:22:38.617Z</time></trkpt><trkpt lat="39.3131936" lon="-3.1669144"><ele>635.0</ele><time>2026-04-19T11:22:39.622Z</time></trkpt><trkpt lat="39.3133576" lon="-3.1670159"><ele>634.6666666666666</ele><time>2026-04-19T11:22:40.616Z</time></trkpt><trkpt lat="39.3135084" lon="-3.1671241"><ele>634.3333333333334</ele><time>2026-04-19T11:22:41.612Z</time></trkpt><trkpt lat="39.3136592" lon="-3.1672495"><ele>634.0</ele><time>2026-04-19T11:22:42.622Z</time></trkpt><trkpt lat="39.3138217" lon="-3.1673831"><ele>633.6666666666667</ele><time>2026-04-19T11:22:43.619Z</time></trkpt><trkpt lat="39.3140022" lon="-3.1675195"><ele>633.3333333333334</ele><time>2026-04-19T11:22:44.617Z</time></trkpt><trkpt lat="39.3141953" lon="-3.1676584"><ele>633.0</ele><time>2026-04-19T11:22:45.614Z</time></trkpt><trkpt lat="39.3143945" lon="-3.1677973"><ele>633.0</ele><time>2026-04-19T11:22:46.623Z</time></trkpt><trkpt lat="39.3145914" lon="-3.1679347"><ele>633.0</ele><time>2026-04-19T11:22:47.62Z</time></trkpt><trkpt lat="39.3147861" lon="-3.1680703"><ele>633.0</ele><time>2026-04-19T11:22:48.617Z</time></trkpt><trkpt lat="39.3149839" lon="-3.1682083"><ele>633.0</ele><time>2026-04-19T11:22:49.613Z</time></trkpt><trkpt lat="39.3151873" lon="-3.1683511"><ele>633.0</ele><time>2026-04-19T11:22:50.616Z</time></trkpt><trkpt lat="39.315402" lon="-3.1685019"><ele>633.5</ele><time>2026-04-19T11:22:51.626Z</time></trkpt><trkpt lat="39.315614" lon="-3.1686484"><ele>634.0</ele><time>2026-04-19T11:22:52.622Z</time></trkpt><trkpt lat="39.3158139" lon="-3.1687876"><ele>634.0</ele><time>2026-04-19T11:22:53.627Z</time></trkpt><trkpt lat="39.3160189" lon="-3.168929"><ele>634.0</ele><time>2026-04-19T11:22:54.622Z</time></trkpt><trkpt lat="39.3162259" lon="-3.1690705"><ele>634.3333333333334</ele><time>2026-04-19T11:22:55.62Z</time></trkpt><trkpt lat="39.3164263" lon="-3.1692084"><ele>634.6666666666666</ele><time>2026-04-19T11:22:56.627Z</time></trkpt><trkpt lat="39.3166201" lon="-3.1693431"><ele>635.0</ele><time>2026-04-19T11:22:57.62Z</time></trkpt><trkpt lat="39.3168068" lon="-3.16947"><ele>635.0</ele><time>2026-04-19T11:22:58.623Z</time></trkpt><trkpt lat="39.3169915" lon="-3.169593"><ele>635.0</ele><time>2026-04-19T11:22:59.628Z</time></trkpt><trkpt lat="39.3171768" lon="-3.1697179"><ele>635.0</ele><time>2026-04-19T11:23:00.624Z</time></trkpt><trkpt lat="39.3173723" lon="-3.1698508"><ele>634.0</ele><time>2026-04-19T11:23:01.621Z</time></trkpt><trkpt lat="39.3175729" lon="-3.1699871"><ele>633.0</ele><time>2026-04-19T11:23:02.625Z</time></trkpt><trkpt lat="39.3177619" lon="-3.1701166"><ele>632.0</ele><time>2026-04-19T11:23:03.619Z</time></trkpt><trkpt lat="39.3179393" lon="-3.1702367"><ele>632.3333333333333</ele><time>2026-04-19T11:23:04.625Z</time></trkpt><trkpt lat="39.3181085" lon="-3.1703517"><ele>632.6666666666666</ele><time>2026-04-19T11:23:05.628Z</time></trkpt><trkpt lat="39.3182749" lon="-3.1704664"><ele>633.0</ele><time>2026-04-19T11:23:06.625Z</time></trkpt><trkpt lat="39.3184327" lon="-3.1705766"><ele>633.0</ele><time>2026-04-19T11:23:07.617Z</time></trkpt><trkpt lat="39.3185818" lon="-3.1706828"><ele>633.0</ele><time>2026-04-19T11:23:08.623Z</time></trkpt><trkpt lat="39.3187222" lon="-3.1707831"><ele>633.0</ele><time>2026-04-19T11:23:09.633Z</time></trkpt><trkpt lat="39.3188551" lon="-3.1708759"><ele>633.0</ele><time>2026-04-19T11:23:10.625Z</time></trkpt><trkpt lat="39.3189745" lon="-3.1709593"><ele>633.0</ele><time>2026-04-19T11:23:11.626Z</time></trkpt><trkpt lat="39.3190776" lon="-3.1710312"><ele>633.0</ele><time>2026-04-19T11:23:12.626Z</time></trkpt><trkpt lat="39.3191641" lon="-3.1710904"><ele>633.0</ele><time>2026-04-19T11:23:13.625Z</time></trkpt><trkpt lat="39.3192335" lon="-3.171137"><ele>633.0</ele><time>2026-04-19T11:23:14.621Z</time></trkpt><trkpt lat="39.3193078" lon="-3.171216"><ele>633.0</ele><time>2026-04-19T11:23:16.622Z</time></trkpt><trkpt lat="39.319324" lon="-3.1713212"><ele>633.0</ele><time>2026-04-19T11:23:18.619Z</time></trkpt><trkpt lat="39.3193148" lon="-3.1714562"><ele>633.0</ele><time>2026-04-19T11:23:20.627Z</time></trkpt><trkpt lat="39.3193036" lon="-3.1715502"><ele>633.0</ele><time>2026-04-19T11:23:21.622Z</time></trkpt><trkpt lat="39.3192898" lon="-3.171656"><ele>633.0</ele><time>2026-04-19T11:23:22.617Z</time></trkpt><trkpt lat="39.3192729" lon="-3.1717867"><ele>633.0</ele><time>2026-04-19T11:23:23.622Z</time></trkpt><trkpt lat="39.3192534" lon="-3.1719513"><ele>632.6666666666666</ele><time>2026-04-19T11:23:24.616Z</time></trkpt><trkpt lat="39.3192344" lon="-3.1721407"><ele>632.3333333333333</ele><time>2026-04-19T11:23:25.623Z</time></trkpt><trkpt lat="39.3192146" lon="-3.1723602"><ele>632.0</ele><time>2026-04-19T11:23:26.621Z</time></trkpt><trkpt lat="39.3191865" lon="-3.1726097"><ele>632.0</ele><time>2026-04-19T11:23:27.627Z</time></trkpt><trkpt lat="39.3191593" lon="-3.1728769"><ele>632.0</ele><time>2026-04-19T11:23:28.618Z</time></trkpt><trkpt lat="39.3191294" lon="-3.1731412"><ele>632.0</ele><time>2026-04-19T11:23:29.621Z</time></trkpt><trkpt lat="39.319111" lon="-3.1734292"><ele>632.0</ele><time>2026-04-19T11:23:30.616Z</time></trkpt><trkpt lat="39.3190739" lon="-3.1737304"><ele>632.0</ele><time>2026-04-19T11:23:31.621Z</time></trkpt><trkpt lat="39.3190331" lon="-3.1740473"><ele>631.5</ele><time>2026-04-19T11:23:32.624Z</time></trkpt><trkpt lat="39.3189949" lon="-3.1743641"><ele>631.0</ele><time>2026-04-19T11:23:33.62Z</time></trkpt><trkpt lat="39.3189609" lon="-3.1746439"><ele>631.6666666666667</ele><time>2026-04-19T11:23:34.622Z</time></trkpt><trkpt lat="39.3189308" lon="-3.1748986"><ele>632.3333333333334</ele><time>2026-04-19T11:23:35.623Z</time></trkpt><trkpt lat="39.3189059" lon="-3.1751321"><ele>633.0</ele><time>2026-04-19T11:23:36.618Z</time></trkpt><trkpt lat="39.3188804" lon="-3.1753465"><ele>633.0</ele><time>2026-04-19T11:23:37.62Z</time></trkpt><trkpt lat="39.3188575" lon="-3.1755365"><ele>633.0</ele><time>2026-04-19T11:23:38.619Z</time></trkpt><trkpt lat="39.318842" lon="-3.1756918"><ele>633.0</ele><time>2026-04-19T11:23:39.626Z</time></trkpt><trkpt lat="39.3188332" lon="-3.1758125"><ele>633.0</ele><time>2026-04-19T11:23:40.632Z</time></trkpt><trkpt lat="39.3188343" lon="-3.1759047"><ele>633.0</ele><time>2026-04-19T11:23:41.628Z</time></trkpt><trkpt lat="39.3188978" lon="-3.1760157"><ele>633.1999999999999</ele><time>2026-04-19T11:23:43.626Z</time></trkpt><trkpt lat="39.318955" lon="-3.176057"><ele>633.4</ele><time>2026-04-19T11:23:44.623Z</time></trkpt><trkpt lat="39.3190373" lon="-3.1760921"><ele>633.5999999999999</ele><time>2026-04-19T11:23:45.62Z</time></trkpt><trkpt lat="39.3191348" lon="-3.1761263"><ele>633.8</ele><time>2026-04-19T11:23:46.633Z</time></trkpt><trkpt lat="39.319229" lon="-3.1761735"><ele>634.0</ele><time>2026-04-19T11:23:47.625Z</time></trkpt><trkpt lat="39.3193177" lon="-3.1762447"><ele>634.0</ele><time>2026-04-19T11:23:48.626Z</time></trkpt><trkpt lat="39.3193933" lon="-3.1763419"><ele>634.0</ele><time>2026-04-19T11:23:49.623Z</time></trkpt><trkpt lat="39.3194524" lon="-3.1764698"><ele>634.0</ele><time>2026-04-19T11:23:50.62Z</time></trkpt><trkpt lat="39.3195111" lon="-3.1766391"><ele>634.0</ele><time>2026-04-19T11:23:51.622Z</time></trkpt><trkpt lat="39.3195719" lon="-3.1768402"><ele>634.3333333333334</ele><time>2026-04-19T11:23:52.621Z</time></trkpt><trkpt lat="39.3196283" lon="-3.1770729"><ele>634.6666666666666</ele><time>2026-04-19T11:23:53.62Z</time></trkpt><trkpt lat="39.3196854" lon="-3.1773231"><ele>635.0</ele><time>2026-04-19T11:23:54.622Z</time></trkpt><trkpt lat="39.3197358" lon="-3.1775735"><ele>634.0</ele><time>2026-04-19T11:23:55.613Z</time></trkpt><trkpt lat="39.3197954" lon="-3.1777989"><ele>633.0</ele><time>2026-04-19T11:23:56.619Z</time></trkpt><trkpt lat="39.3198416" lon="-3.178026"><ele>632.0</ele><time>2026-04-19T11:23:57.625Z</time></trkpt><trkpt lat="39.3198911" lon="-3.1782777"><ele>632.0</ele><time>2026-04-19T11:23:58.62Z</time></trkpt><trkpt lat="39.3199439" lon="-3.1785468"><ele>632.0</ele><time>2026-04-19T11:23:59.621Z</time></trkpt><trkpt lat="39.3200036" lon="-3.1788322"><ele>632.0</ele><time>2026-04-19T11:24:00.626Z</time></trkpt><trkpt lat="39.3200668" lon="-3.1791063"><ele>631.5</ele><time>2026-04-19T11:24:01.626Z</time></trkpt><trkpt lat="39.3201299" lon="-3.1793816"><ele>631.0</ele><time>2026-04-19T11:24:02.624Z</time></trkpt><trkpt lat="39.3202067" lon="-3.1796779"><ele>631.5</ele><time>2026-04-19T11:24:03.621Z</time></trkpt><trkpt lat="39.3202878" lon="-3.1799881"><ele>632.0</ele><time>2026-04-19T11:24:04.617Z</time></trkpt><trkpt lat="39.3203739" lon="-3.1803197"><ele>632.0</ele><time>2026-04-19T11:24:05.618Z</time></trkpt><trkpt lat="39.3204581" lon="-3.1806538"><ele>632.0</ele><time>2026-04-19T11:24:06.628Z</time></trkpt><trkpt lat="39.3205416" lon="-3.1809666"><ele>631.5</ele><time>2026-04-19T11:24:07.619Z</time></trkpt><trkpt lat="39.320616" lon="-3.1812562"><ele>631.0</ele><time>2026-04-19T11:24:08.617Z</time></trkpt><trkpt lat="39.3206859" lon="-3.1815286"><ele>632.0</ele><time>2026-04-19T11:24:09.623Z</time></trkpt><trkpt lat="39.3207577" lon="-3.1818052"><ele>633.0</ele><time>2026-04-19T11:24:10.624Z</time></trkpt><trkpt lat="39.3208275" lon="-3.1820881"><ele>633.3333333333334</ele><time>2026-04-19T11:24:11.63Z</time></trkpt><trkpt lat="39.3208921" lon="-3.1823586"><ele>633.6666666666667</ele><time>2026-04-19T11:24:12.632Z</time></trkpt><trkpt lat="39.3209571" lon="-3.1826106"><ele>634.0</ele><time>2026-04-19T11:24:13.624Z</time></trkpt><trkpt lat="39.3210183" lon="-3.1828598"><ele>634.0</ele><time>2026-04-19T11:24:14.618Z</time></trkpt><trkpt lat="39.3210793" lon="-3.1831045"><ele>634.0</ele><time>2026-04-19T11:24:15.62Z</time></trkpt><trkpt lat="39.3211491" lon="-3.1833537"><ele>634.0</ele><time>2026-04-19T11:24:16.625Z</time></trkpt><trkpt lat="39.3212209" lon="-3.1836305"><ele>633.0</ele><time>2026-04-19T11:24:17.619Z</time></trkpt><trkpt lat="39.3212899" lon="-3.1839237"><ele>632.0</ele><time>2026-04-19T11:24:18.621Z</time></trkpt><trkpt lat="39.3213617" lon="-3.184221"><ele>632.0</ele><time>2026-04-19T11:24:19.617Z</time></trkpt><trkpt lat="39.3214399" lon="-3.1845382"><ele>632.0</ele><time>2026-04-19T11:24:20.611Z</time></trkpt><trkpt lat="39.3215209" lon="-3.1848532"><ele>632.5</ele><time>2026-04-19T11:24:21.636Z</time></trkpt><trkpt lat="39.3215928" lon="-3.1851529"><ele>633.0</ele><time>2026-04-19T11:24:22.624Z</time></trkpt><trkpt lat="39.3216656" lon="-3.1854548"><ele>633.5</ele><time>2026-04-19T11:24:23.629Z</time></trkpt><trkpt lat="39.321737" lon="-3.1857433"><ele>634.0</ele><time>2026-04-19T11:24:24.625Z</time></trkpt><trkpt lat="39.3218094" lon="-3.1860365"><ele>634.0</ele><time>2026-04-19T11:24:25.633Z</time></trkpt><trkpt lat="39.321885" lon="-3.186337"><ele>634.0</ele><time>2026-04-19T11:24:26.625Z</time></trkpt><trkpt lat="39.3219618" lon="-3.1866428"><ele>633.5</ele><time>2026-04-19T11:24:27.63Z</time></trkpt><trkpt lat="39.3220379" lon="-3.1869502"><ele>633.0</ele><time>2026-04-19T11:24:28.624Z</time></trkpt><trkpt lat="39.3221085" lon="-3.1872394"><ele>632.6666666666666</ele><time>2026-04-19T11:24:29.619Z</time></trkpt><trkpt lat="39.3221779" lon="-3.1875146"><ele>632.3333333333333</ele><time>2026-04-19T11:24:30.623Z</time></trkpt><trkpt lat="39.3222503" lon="-3.1877845"><ele>632.0</ele><time>2026-04-19T11:24:31.622Z</time></trkpt><trkpt lat="39.3223214" lon="-3.1880638"><ele>631.5</ele><time>2026-04-19T11:24:32.625Z</time></trkpt><trkpt lat="39.3223929" lon="-3.1883668"><ele>631.0</ele><time>2026-04-19T11:24:33.619Z</time></trkpt><trkpt lat="39.3224709" lon="-3.1886846"><ele>631.0</ele><time>2026-04-19T11:24:34.623Z</time></trkpt><trkpt lat="39.3225507" lon="-3.1890034"><ele>631.0</ele><time>2026-04-19T11:24:35.624Z</time></trkpt><trkpt lat="39.3226247" lon="-3.1893058"><ele>631.5</ele><time>2026-04-19T11:24:36.623Z</time></trkpt><trkpt lat="39.3226981" lon="-3.1895952"><ele>632.0</ele><time>2026-04-19T11:24:37.62Z</time></trkpt><trkpt lat="39.3227739" lon="-3.1898882"><ele>631.3333333333333</ele><time>2026-04-19T11:24:38.626Z</time></trkpt><trkpt lat="39.3228438" lon="-3.1901666"><ele>630.6666666666666</ele><time>2026-04-19T11:24:39.628Z</time></trkpt><trkpt lat="39.3229088" lon="-3.1904268"><ele>630.0</ele><time>2026-04-19T11:24:40.624Z</time></trkpt><trkpt lat="39.3229717" lon="-3.1906699"><ele>630.3333333333334</ele><time>2026-04-19T11:24:41.616Z</time></trkpt><trkpt lat="39.3230319" lon="-3.1909043"><ele>630.6666666666667</ele><time>2026-04-19T11:24:42.614Z</time></trkpt><trkpt lat="39.3230922" lon="-3.1911441"><ele>631.0</ele><time>2026-04-19T11:24:43.621Z</time></trkpt><trkpt lat="39.3231544" lon="-3.1913947"><ele>631.3333333333334</ele><time>2026-04-19T11:24:44.614Z</time></trkpt><trkpt lat="39.3232191" lon="-3.1916535"><ele>631.6666666666666</ele><time>2026-04-19T11:24:45.621Z</time></trkpt><trkpt lat="39.3232855" lon="-3.191918"><ele>632.0</ele><time>2026-04-19T11:24:46.617Z</time></trkpt><trkpt lat="39.3233508" lon="-3.1921946"><ele>631.0</ele><time>2026-04-19T11:24:47.622Z</time></trkpt><trkpt lat="39.3234211" lon="-3.1924821"><ele>630.0</ele><time>2026-04-19T11:24:48.624Z</time></trkpt><trkpt lat="39.3234906" lon="-3.1927533"><ele>630.0</ele><time>2026-04-19T11:24:49.624Z</time></trkpt><trkpt lat="39.3235578" lon="-3.1930074"><ele>630.0</ele><time>2026-04-19T11:24:50.619Z</time></trkpt><trkpt lat="39.323624" lon="-3.1932717"><ele>630.0</ele><time>2026-04-19T11:24:51.621Z</time></trkpt><trkpt lat="39.3236974" lon="-3.1935489"><ele>631.0</ele><time>2026-04-19T11:24:52.625Z</time></trkpt><trkpt lat="39.3237713" lon="-3.1938369"><ele>632.0</ele><time>2026-04-19T11:24:53.625Z</time></trkpt><trkpt lat="39.3238437" lon="-3.1941224"><ele>632.0</ele><time>2026-04-19T11:24:54.619Z</time></trkpt><trkpt lat="39.3239138" lon="-3.1943897"><ele>632.0</ele><time>2026-04-19T11:24:55.622Z</time></trkpt><trkpt lat="39.323979" lon="-3.1946449"><ele>632.0</ele><time>2026-04-19T11:24:56.624Z</time></trkpt><trkpt lat="39.3240435" lon="-3.194895"><ele>632.0</ele><time>2026-04-19T11:24:57.615Z</time></trkpt><trkpt lat="39.3241051" lon="-3.1951463"><ele>632.0</ele><time>2026-04-19T11:24:58.619Z</time></trkpt><trkpt lat="39.3241672" lon="-3.1953992"><ele>632.0</ele><time>2026-04-19T11:24:59.62Z</time></trkpt><trkpt lat="39.3242305" lon="-3.1956561"><ele>632.0</ele><time>2026-04-19T11:25:00.629Z</time></trkpt><trkpt lat="39.3242966" lon="-3.1959201"><ele>632.0</ele><time>2026-04-19T11:25:01.621Z</time></trkpt><trkpt lat="39.3243654" lon="-3.1961967"><ele>632.0</ele><time>2026-04-19T11:25:02.635Z</time></trkpt><trkpt lat="39.3244314" lon="-3.1964771"><ele>631.6666666666666</ele><time>2026-04-19T11:25:03.629Z</time></trkpt><trkpt lat="39.3244955" lon="-3.1967423"><ele>631.3333333333334</ele><time>2026-04-19T11:25:04.623Z</time></trkpt><trkpt lat="39.3245594" lon="-3.1969871"><ele>631.0</ele><time>2026-04-19T11:25:05.622Z</time></trkpt><trkpt lat="39.3246222" lon="-3.1972094"><ele>631.0</ele><time>2026-04-19T11:25:06.626Z</time></trkpt><trkpt lat="39.3246839" lon="-3.1974168"><ele>631.0</ele><time>2026-04-19T11:25:07.624Z</time></trkpt><trkpt lat="39.3247469" lon="-3.1976249"><ele>631.0</ele><time>2026-04-19T11:25:08.625Z</time></trkpt><trkpt lat="39.3248111" lon="-3.1978336"><ele>631.3333333333334</ele><time>2026-04-19T11:25:09.62Z</time></trkpt><trkpt lat="39.3248841" lon="-3.1980365"><ele>631.6666666666666</ele><time>2026-04-19T11:25:10.622Z</time></trkpt><trkpt lat="39.3249753" lon="-3.1982327"><ele>632.0</ele><time>2026-04-19T11:25:11.623Z</time></trkpt><trkpt lat="39.3250742" lon="-3.1984295"><ele>632.3333333333333</ele><time>2026-04-19T11:25:12.63Z</time></trkpt><trkpt lat="39.3251777" lon="-3.1986239"><ele>632.6666666666666</ele><time>2026-04-19T11:25:13.632Z</time></trkpt><trkpt lat="39.3252816" lon="-3.1988122"><ele>633.0</ele><time>2026-04-19T11:25:14.623Z</time></trkpt><trkpt lat="39.3253803" lon="-3.1989925"><ele>632.6666666666666</ele><time>2026-04-19T11:25:15.625Z</time></trkpt><trkpt lat="39.325474" lon="-3.1991624"><ele>632.3333333333333</ele><time>2026-04-19T11:25:16.623Z</time></trkpt><trkpt lat="39.325567" lon="-3.1993325"><ele>632.0</ele><time>2026-04-19T11:25:17.624Z</time></trkpt><trkpt lat="39.3256562" lon="-3.1995049"><ele>632.0</ele><time>2026-04-19T11:25:18.632Z</time></trkpt><trkpt lat="39.3257312" lon="-3.1996782"><ele>632.0</ele><time>2026-04-19T11:25:19.629Z</time></trkpt><trkpt lat="39.3257943" lon="-3.1998679"><ele>632.0</ele><time>2026-04-19T11:25:20.624Z</time></trkpt><trkpt lat="39.3258453" lon="-3.2000622"><ele>632.5</ele><time>2026-04-19T11:25:21.627Z</time></trkpt><trkpt lat="39.3258874" lon="-3.2002477"><ele>633.0</ele><time>2026-04-19T11:25:22.634Z</time></trkpt><trkpt lat="39.3259257" lon="-3.2004219"><ele>633.5</ele><time>2026-04-19T11:25:23.622Z</time></trkpt><trkpt lat="39.3259587" lon="-3.2005855"><ele>634.0</ele><time>2026-04-19T11:25:24.621Z</time></trkpt><trkpt lat="39.3259837" lon="-3.2007396"><ele>634.0</ele><time>2026-04-19T11:25:25.626Z</time></trkpt><trkpt lat="39.3259998" lon="-3.2008918"><ele>634.0</ele><time>2026-04-19T11:25:26.631Z</time></trkpt><trkpt lat="39.3260063" lon="-3.2010513"><ele>634.0</ele><time>2026-04-19T11:25:27.623Z</time></trkpt><trkpt lat="39.3260024" lon="-3.2012175"><ele>634.0</ele><time>2026-04-19T11:25:28.635Z</time></trkpt><trkpt lat="39.3259935" lon="-3.2013917"><ele>633.75</ele><time>2026-04-19T11:25:29.617Z</time></trkpt><trkpt lat="39.3259811" lon="-3.201572"><ele>633.5</ele><time>2026-04-19T11:25:30.62Z</time></trkpt><trkpt lat="39.3259654" lon="-3.2017508"><ele>633.25</ele><time>2026-04-19T11:25:31.617Z</time></trkpt><trkpt lat="39.3259509" lon="-3.2019147"><ele>633.0</ele><time>2026-04-19T11:25:32.619Z</time></trkpt><trkpt lat="39.3259497" lon="-3.2020633"><ele>633.0</ele><time>2026-04-19T11:25:33.626Z</time></trkpt><trkpt lat="39.3259661" lon="-3.2022056"><ele>633.0</ele><time>2026-04-19T11:25:34.624Z</time></trkpt><trkpt lat="39.3260024" lon="-3.2023488"><ele>633.0</ele><time>2026-04-19T11:25:35.619Z</time></trkpt><trkpt lat="39.3260616" lon="-3.2024902"><ele>633.0</ele><time>2026-04-19T11:25:36.63Z</time></trkpt><trkpt lat="39.3261353" lon="-3.2026314"><ele>632.6666666666666</ele><time>2026-04-19T11:25:37.626Z</time></trkpt><trkpt lat="39.3262127" lon="-3.2027833"><ele>632.3333333333333</ele><time>2026-04-19T11:25:38.624Z</time></trkpt><trkpt lat="39.3262914" lon="-3.2029473"><ele>632.0</ele><time>2026-04-19T11:25:39.626Z</time></trkpt><trkpt lat="39.326375" lon="-3.203126"><ele>632.0</ele><time>2026-04-19T11:25:40.625Z</time></trkpt><trkpt lat="39.3264594" lon="-3.2032983"><ele>632.0</ele><time>2026-04-19T11:25:41.63Z</time></trkpt><trkpt lat="39.3265485" lon="-3.2034773"><ele>632.0</ele><time>2026-04-19T11:25:42.624Z</time></trkpt><trkpt lat="39.3266372" lon="-3.2036583"><ele>632.0</ele><time>2026-04-19T11:25:43.624Z</time></trkpt><trkpt lat="39.3267294" lon="-3.2038552"><ele>632.0</ele><time>2026-04-19T11:25:44.627Z</time></trkpt><trkpt lat="39.3268252" lon="-3.204057"><ele>632.0</ele><time>2026-04-19T11:25:45.626Z</time></trkpt><trkpt lat="39.3269236" lon="-3.2042694"><ele>632.0</ele><time>2026-04-19T11:25:46.627Z</time></trkpt><trkpt lat="39.3270298" lon="-3.204502"><ele>632.0</ele><time>2026-04-19T11:25:47.614Z</time></trkpt><trkpt lat="39.3271419" lon="-3.2047555"><ele>632.0</ele><time>2026-04-19T11:25:48.622Z</time></trkpt><trkpt lat="39.3272599" lon="-3.2050296"><ele>632.0</ele><time>2026-04-19T11:25:49.623Z</time></trkpt><trkpt lat="39.3273716" lon="-3.2052937"><ele>632.0</ele><time>2026-04-19T11:25:50.625Z</time></trkpt><trkpt lat="39.3274753" lon="-3.2055449"><ele>631.5</ele><time>2026-04-19T11:25:51.622Z</time></trkpt><trkpt lat="39.3275802" lon="-3.205789"><ele>631.0</ele><time>2026-04-19T11:25:52.614Z</time></trkpt><trkpt lat="39.3277054" lon="-3.2060499"><ele>631.0</ele><time>2026-04-19T11:25:53.613Z</time></trkpt><trkpt lat="39.3278405" lon="-3.2063181"><ele>631.0</ele><time>2026-04-19T11:25:54.617Z</time></trkpt><trkpt lat="39.3279928" lon="-3.206607"><ele>631.0</ele><time>2026-04-19T11:25:55.62Z</time></trkpt><trkpt lat="39.3281474" lon="-3.2068976"><ele>631.0</ele><time>2026-04-19T11:25:56.62Z</time></trkpt><trkpt lat="39.3282905" lon="-3.2071658"><ele>631.0</ele><time>2026-04-19T11:25:57.619Z</time></trkpt><trkpt lat="39.3284199" lon="-3.2074091"><ele>631.0</ele><time>2026-04-19T11:25:58.625Z</time></trkpt><trkpt lat="39.3285342" lon="-3.2076263"><ele>631.0</ele><time>2026-04-19T11:25:59.623Z</time></trkpt><trkpt lat="39.3286424" lon="-3.2078183"><ele>631.0</ele><time>2026-04-19T11:26:00.618Z</time></trkpt><trkpt lat="39.3287623" lon="-3.2079955"><ele>631.0</ele><time>2026-04-19T11:26:01.618Z</time></trkpt><trkpt lat="39.3289176" lon="-3.2081809"><ele>631.0</ele><time>2026-04-19T11:26:02.619Z</time></trkpt><trkpt lat="39.3290936" lon="-3.2083632"><ele>630.6666666666667</ele><time>2026-04-19T11:26:03.62Z</time></trkpt><trkpt lat="39.3292729" lon="-3.2085461"><ele>630.3333333333334</ele><time>2026-04-19T11:26:04.631Z</time></trkpt><trkpt lat="39.329441" lon="-3.2087151"><ele>630.0</ele><time>2026-04-19T11:26:05.62Z</time></trkpt><trkpt lat="39.3296117" lon="-3.208892"><ele>630.0</ele><time>2026-04-19T11:26:06.622Z</time></trkpt><trkpt lat="39.3297878" lon="-3.2090927"><ele>630.0</ele><time>2026-04-19T11:26:07.629Z</time></trkpt><trkpt lat="39.3299684" lon="-3.2093116"><ele>630.0</ele><time>2026-04-19T11:26:08.628Z</time></trkpt><trkpt lat="39.3301371" lon="-3.2095202"><ele>630.0</ele><time>2026-04-19T11:26:09.618Z</time></trkpt><trkpt lat="39.3302955" lon="-3.2097319"><ele>629.5</ele><time>2026-04-19T11:26:10.618Z</time></trkpt><trkpt lat="39.3304527" lon="-3.2099592"><ele>629.0</ele><time>2026-04-19T11:26:11.623Z</time></trkpt><trkpt lat="39.3305907" lon="-3.210186"><ele>629.6666666666666</ele><time>2026-04-19T11:26:12.619Z</time></trkpt><trkpt lat="39.3307115" lon="-3.2104074"><ele>630.3333333333334</ele><time>2026-04-19T11:26:13.624Z</time></trkpt><trkpt lat="39.3308305" lon="-3.2106392"><ele>631.0</ele><time>2026-04-19T11:26:14.616Z</time></trkpt><trkpt lat="39.3309551" lon="-3.2108719"><ele>631.0</ele><time>2026-04-19T11:26:15.616Z</time></trkpt><trkpt lat="39.3310717" lon="-3.2111061"><ele>631.0</ele><time>2026-04-19T11:26:16.618Z</time></trkpt><trkpt lat="39.3311856" lon="-3.2113631"><ele>631.0</ele><time>2026-04-19T11:26:17.619Z</time></trkpt><trkpt lat="39.3312896" lon="-3.2116135"><ele>631.0</ele><time>2026-04-19T11:26:18.625Z</time></trkpt><trkpt lat="39.3313843" lon="-3.2118436"><ele>631.0</ele><time>2026-04-19T11:26:19.621Z</time></trkpt><trkpt lat="39.3314762" lon="-3.212059"><ele>631.0</ele><time>2026-04-19T11:26:20.628Z</time></trkpt><trkpt lat="39.3315643" lon="-3.2122612"><ele>631.5</ele><time>2026-04-19T11:26:21.622Z</time></trkpt><trkpt lat="39.3316422" lon="-3.2124334"><ele>632.0</ele><time>2026-04-19T11:26:22.639Z</time></trkpt><trkpt lat="39.3318062" lon="-3.2127804"><ele>632.0</ele><time>2026-04-19T11:26:24.625Z</time></trkpt><trkpt lat="39.3318871" lon="-3.2129342"><ele>632.0</ele><time>2026-04-19T11:26:25.631Z</time></trkpt><trkpt lat="39.3319619" lon="-3.2130823"><ele>632.0</ele><time>2026-04-19T11:26:26.687Z</time></trkpt><trkpt lat="39.332032" lon="-3.2132173"><ele>632.0</ele><time>2026-04-19T11:26:27.623Z</time></trkpt><trkpt lat="39.3321" lon="-3.2133457"><ele>632.0</ele><time>2026-04-19T11:26:28.645Z</time></trkpt><trkpt lat="39.3321689" lon="-3.2134635"><ele>632.0</ele><time>2026-04-19T11:26:29.634Z</time></trkpt><trkpt lat="39.3322366" lon="-3.2135719"><ele>632.0</ele><time>2026-04-19T11:26:30.637Z</time></trkpt><trkpt lat="39.3323003" lon="-3.2136754"><ele>632.0</ele><time>2026-04-19T11:26:31.647Z</time></trkpt><trkpt lat="39.3323615" lon="-3.2137827"><ele>632.0</ele><time>2026-04-19T11:26:32.625Z</time></trkpt><trkpt lat="39.3324232" lon="-3.2138977"><ele>631.75</ele><time>2026-04-19T11:26:33.636Z</time></trkpt><trkpt lat="39.3324892" lon="-3.2140241"><ele>631.5</ele><time>2026-04-19T11:26:34.623Z</time></trkpt><trkpt lat="39.3325596" lon="-3.2141622"><ele>631.25</ele><time>2026-04-19T11:26:35.618Z</time></trkpt><trkpt lat="39.3326256" lon="-3.2143056"><ele>631.0</ele><time>2026-04-19T11:26:36.626Z</time></trkpt><trkpt lat="39.3326887" lon="-3.214449"><ele>631.0</ele><time>2026-04-19T11:26:37.624Z</time></trkpt><trkpt lat="39.3327521" lon="-3.214596"><ele>631.0</ele><time>2026-04-19T11:26:38.618Z</time></trkpt><trkpt lat="39.3328158" lon="-3.2147431"><ele>631.0</ele><time>2026-04-19T11:26:39.618Z</time></trkpt><trkpt lat="39.3328777" lon="-3.2148918"><ele>631.0</ele><time>2026-04-19T11:26:40.621Z</time></trkpt><trkpt lat="39.3329387" lon="-3.2150448"><ele>631.0</ele><time>2026-04-19T11:26:41.621Z</time></trkpt><trkpt lat="39.3330073" lon="-3.215201"><ele>631.0</ele><time>2026-04-19T11:26:42.625Z</time></trkpt><trkpt lat="39.3330825" lon="-3.2153513"><ele>631.0</ele><time>2026-04-19T11:26:43.645Z</time></trkpt><trkpt lat="39.333158" lon="-3.2154894"><ele>631.0</ele><time>2026-04-19T11:26:44.641Z</time></trkpt><trkpt lat="39.3333269" lon="-3.2157569"><ele>631.3333333333334</ele><time>2026-04-19T11:26:46.621Z</time></trkpt><trkpt lat="39.3334289" lon="-3.2159046"><ele>631.6666666666666</ele><time>2026-04-19T11:26:47.621Z</time></trkpt><trkpt lat="39.3335481" lon="-3.2160632"><ele>632.0</ele><time>2026-04-19T11:26:48.628Z</time></trkpt><trkpt lat="39.3336835" lon="-3.2162372"><ele>632.0</ele><time>2026-04-19T11:26:49.626Z</time></trkpt><trkpt lat="39.3338347" lon="-3.2164167"><ele>632.0</ele><time>2026-04-19T11:26:50.626Z</time></trkpt><trkpt lat="39.3339941" lon="-3.2165832"><ele>632.0</ele><time>2026-04-19T11:26:51.628Z</time></trkpt><trkpt lat="39.3341722" lon="-3.2167449"><ele>631.0</ele><time>2026-04-19T11:26:52.627Z</time></trkpt><trkpt lat="39.3343748" lon="-3.216915"><ele>630.0</ele><time>2026-04-19T11:26:53.616Z</time></trkpt><trkpt lat="39.3345883" lon="-3.2170938"><ele>631.0</ele><time>2026-04-19T11:26:54.622Z</time></trkpt><trkpt lat="39.3347929" lon="-3.2172663"><ele>632.0</ele><time>2026-04-19T11:26:55.623Z</time></trkpt><trkpt lat="39.3349906" lon="-3.2174375"><ele>632.0</ele><time>2026-04-19T11:26:56.624Z</time></trkpt><trkpt lat="39.3351697" lon="-3.2175969"><ele>632.0</ele><time>2026-04-19T11:26:57.625Z</time></trkpt><trkpt lat="39.3353315" lon="-3.2177453"><ele>632.0</ele><time>2026-04-19T11:26:58.626Z</time></trkpt><trkpt lat="39.33548" lon="-3.2178847"><ele>632.25</ele><time>2026-04-19T11:26:59.623Z</time></trkpt><trkpt lat="39.3356116" lon="-3.2180133"><ele>632.5</ele><time>2026-04-19T11:27:00.625Z</time></trkpt><trkpt lat="39.3357288" lon="-3.2181285"><ele>632.75</ele><time>2026-04-19T11:27:01.621Z</time></trkpt><trkpt lat="39.3358317" lon="-3.2182316"><ele>633.0</ele><time>2026-04-19T11:27:02.623Z</time></trkpt><trkpt lat="39.3359257" lon="-3.218329"><ele>633.25</ele><time>2026-04-19T11:27:03.612Z</time></trkpt><trkpt lat="39.3360141" lon="-3.2184193"><ele>633.5</ele><time>2026-04-19T11:27:04.618Z</time></trkpt><trkpt lat="39.3361086" lon="-3.2185143"><ele>633.75</ele><time>2026-04-19T11:27:05.628Z</time></trkpt><trkpt lat="39.3362173" lon="-3.2186231"><ele>634.0</ele><time>2026-04-19T11:27:06.628Z</time></trkpt><trkpt lat="39.3363405" lon="-3.2187408"><ele>634.0</ele><time>2026-04-19T11:27:07.619Z</time></trkpt><trkpt lat="39.3364724" lon="-3.2188684"><ele>634.0</ele><time>2026-04-19T11:27:08.625Z</time></trkpt><trkpt lat="39.3366011" lon="-3.2190038"><ele>634.0</ele><time>2026-04-19T11:27:09.633Z</time></trkpt><trkpt lat="39.3367287" lon="-3.219154"><ele>633.6666666666667</ele><time>2026-04-19T11:27:10.615Z</time></trkpt><trkpt lat="39.3368555" lon="-3.2193105"><ele>633.3333333333334</ele><time>2026-04-19T11:27:11.627Z</time></trkpt><trkpt lat="39.3369835" lon="-3.2194652"><ele>633.0</ele><time>2026-04-19T11:27:12.619Z</time></trkpt><trkpt lat="39.3371151" lon="-3.2196176"><ele>633.0</ele><time>2026-04-19T11:27:13.625Z</time></trkpt><trkpt lat="39.3372514" lon="-3.2197711"><ele>633.0</ele><time>2026-04-19T11:27:14.617Z</time></trkpt><trkpt lat="39.3373915" lon="-3.2199262"><ele>633.0</ele><time>2026-04-19T11:27:15.625Z</time></trkpt><trkpt lat="39.3375373" lon="-3.2200834"><ele>633.3333333333334</ele><time>2026-04-19T11:27:16.624Z</time></trkpt><trkpt lat="39.3376867" lon="-3.22024"><ele>633.6666666666667</ele><time>2026-04-19T11:27:17.628Z</time></trkpt><trkpt lat="39.3378306" lon="-3.2203944"><ele>634.0</ele><time>2026-04-19T11:27:18.618Z</time></trkpt><trkpt lat="39.3379729" lon="-3.2205598"><ele>633.6666666666667</ele><time>2026-04-19T11:27:19.623Z</time></trkpt><trkpt lat="39.3381179" lon="-3.2207431"><ele>633.3333333333334</ele><time>2026-04-19T11:27:20.622Z</time></trkpt><trkpt lat="39.3382678" lon="-3.2209488"><ele>633.0</ele><time>2026-04-19T11:27:21.623Z</time></trkpt><trkpt lat="39.3384334" lon="-3.2211654"><ele>633.0</ele><time>2026-04-19T11:27:22.624Z</time></trkpt><trkpt lat="39.3386199" lon="-3.2213837"><ele>633.0</ele><time>2026-04-19T11:27:23.618Z</time></trkpt><trkpt lat="39.3388273" lon="-3.2216018"><ele>632.5</ele><time>2026-04-19T11:27:24.62Z</time></trkpt><trkpt lat="39.3390324" lon="-3.2218081"><ele>632.0</ele><time>2026-04-19T11:27:25.627Z</time></trkpt><trkpt lat="39.3392234" lon="-3.2220027"><ele>632.0</ele><time>2026-04-19T11:27:26.626Z</time></trkpt><trkpt lat="39.3394019" lon="-3.2221866"><ele>632.0</ele><time>2026-04-19T11:27:27.631Z</time></trkpt><trkpt lat="39.3395711" lon="-3.2223594"><ele>632.0</ele><time>2026-04-19T11:27:28.626Z</time></trkpt><trkpt lat="39.3397353" lon="-3.2225261"><ele>632.6666666666666</ele><time>2026-04-19T11:27:29.621Z</time></trkpt><trkpt lat="39.3398965" lon="-3.2226769"><ele>633.3333333333334</ele><time>2026-04-19T11:27:30.614Z</time></trkpt><trkpt lat="39.3400511" lon="-3.2228113"><ele>634.0</ele><time>2026-04-19T11:27:31.62Z</time></trkpt><trkpt lat="39.3402025" lon="-3.2229258"><ele>634.0</ele><time>2026-04-19T11:27:32.622Z</time></trkpt><trkpt lat="39.3403335" lon="-3.2230472"><ele>634.0</ele><time>2026-04-19T11:27:33.62Z</time></trkpt><trkpt lat="39.3404577" lon="-3.2231694"><ele>634.0</ele><time>2026-04-19T11:27:34.622Z</time></trkpt><trkpt lat="39.3405663" lon="-3.2232927"><ele>633.75</ele><time>2026-04-19T11:27:35.629Z</time></trkpt><trkpt lat="39.3406587" lon="-3.223424"><ele>633.5</ele><time>2026-04-19T11:27:36.623Z</time></trkpt><trkpt lat="39.3407386" lon="-3.2235684"><ele>633.25</ele><time>2026-04-19T11:27:37.62Z</time></trkpt><trkpt lat="39.3408073" lon="-3.2237216"><ele>633.0</ele><time>2026-04-19T11:27:38.624Z</time></trkpt><trkpt lat="39.3408573" lon="-3.2238808"><ele>633.0</ele><time>2026-04-19T11:27:39.618Z</time></trkpt><trkpt lat="39.3408947" lon="-3.224055"><ele>633.0</ele><time>2026-04-19T11:27:40.623Z</time></trkpt><trkpt lat="39.340931" lon="-3.22424"><ele>633.0</ele><time>2026-04-19T11:27:41.623Z</time></trkpt><trkpt lat="39.3409617" lon="-3.2244295"><ele>633.0</ele><time>2026-04-19T11:27:42.611Z</time></trkpt><trkpt lat="39.3409974" lon="-3.2246337"><ele>632.3333333333334</ele><time>2026-04-19T11:27:43.621Z</time></trkpt><trkpt lat="39.3410281" lon="-3.2248429"><ele>631.6666666666667</ele><time>2026-04-19T11:27:44.628Z</time></trkpt><trkpt lat="39.3410577" lon="-3.2250708"><ele>631.0</ele><time>2026-04-19T11:27:45.619Z</time></trkpt><trkpt lat="39.3410949" lon="-3.22533"><ele>631.0</ele><time>2026-04-19T11:27:46.62Z</time></trkpt><trkpt lat="39.3411379" lon="-3.2255988"><ele>631.0</ele><time>2026-04-19T11:27:47.623Z</time></trkpt><trkpt lat="39.3411812" lon="-3.2258507"><ele>631.0</ele><time>2026-04-19T11:27:48.629Z</time></trkpt><trkpt lat="39.3412288" lon="-3.2260824"><ele>631.0</ele><time>2026-04-19T11:27:49.619Z</time></trkpt><trkpt lat="39.3412784" lon="-3.2262834"><ele>631.0</ele><time>2026-04-19T11:27:50.614Z</time></trkpt><trkpt lat="39.3413283" lon="-3.2264542"><ele>631.0</ele><time>2026-04-19T11:27:51.618Z</time></trkpt><trkpt lat="39.3413788" lon="-3.2266029"><ele>631.0</ele><time>2026-04-19T11:27:52.63Z</time></trkpt><trkpt lat="39.3414247" lon="-3.2267312"><ele>630.8</ele><time>2026-04-19T11:27:53.619Z</time></trkpt><trkpt lat="39.3414603" lon="-3.2268439"><ele>630.6</ele><time>2026-04-19T11:27:54.63Z</time></trkpt><trkpt lat="39.341488" lon="-3.22694"><ele>630.4</ele><time>2026-04-19T11:27:55.624Z</time></trkpt><trkpt lat="39.3415216" lon="-3.227054"><ele>630.2</ele><time>2026-04-19T11:27:57.623Z</time></trkpt><trkpt lat="39.3415604" lon="-3.2271893"><ele>630.0</ele><time>2026-04-19T11:28:00.621Z</time></trkpt><trkpt lat="39.3415893" lon="-3.2272721"><ele>630.25</ele><time>2026-04-19T11:28:01.619Z</time></trkpt><trkpt lat="39.3416357" lon="-3.2273765"><ele>630.5</ele><time>2026-04-19T11:28:02.618Z</time></trkpt><trkpt lat="39.341699" lon="-3.2275001"><ele>630.75</ele><time>2026-04-19T11:28:03.614Z</time></trkpt><trkpt lat="39.3417803" lon="-3.2276547"><ele>631.0</ele><time>2026-04-19T11:28:04.62Z</time></trkpt><trkpt lat="39.3418761" lon="-3.2278359"><ele>631.0</ele><time>2026-04-19T11:28:05.625Z</time></trkpt><trkpt lat="39.3419696" lon="-3.2280108"><ele>631.0</ele><time>2026-04-19T11:28:06.623Z</time></trkpt><trkpt lat="39.3420635" lon="-3.2281854"><ele>631.0</ele><time>2026-04-19T11:28:07.626Z</time></trkpt><trkpt lat="39.3421615" lon="-3.2283676"><ele>630.6666666666667</ele><time>2026-04-19T11:28:08.615Z</time></trkpt><trkpt lat="39.3422551" lon="-3.2285469"><ele>630.3333333333334</ele><time>2026-04-19T11:28:09.618Z</time></trkpt><trkpt lat="39.3423392" lon="-3.228722"><ele>630.0</ele><time>2026-04-19T11:28:10.621Z</time></trkpt><trkpt lat="39.3424185" lon="-3.2289094"><ele>629.75</ele><time>2026-04-19T11:28:11.629Z</time></trkpt><trkpt lat="39.3424896" lon="-3.2290899"><ele>629.5</ele><time>2026-04-19T11:28:12.625Z</time></trkpt><trkpt lat="39.3425604" lon="-3.2292517"><ele>629.25</ele><time>2026-04-19T11:28:13.618Z</time></trkpt><trkpt lat="39.3426431" lon="-3.2294044"><ele>629.0</ele><time>2026-04-19T11:28:14.621Z</time></trkpt><trkpt lat="39.3427535" lon="-3.2295606"><ele>629.0</ele><time>2026-04-19T11:28:15.619Z</time></trkpt><trkpt lat="39.3428726" lon="-3.2297054"><ele>629.0</ele><time>2026-04-19T11:28:16.614Z</time></trkpt><trkpt lat="39.3429688" lon="-3.2298211"><ele>629.0</ele><time>2026-04-19T11:28:17.612Z</time></trkpt><trkpt lat="39.3430463" lon="-3.229929"><ele>629.0</ele><time>2026-04-19T11:28:18.611Z</time></trkpt><trkpt lat="39.3431264" lon="-3.2300598"><ele>629.0</ele><time>2026-04-19T11:28:19.619Z</time></trkpt><trkpt lat="39.3432167" lon="-3.2302175"><ele>629.0</ele><time>2026-04-19T11:28:20.619Z</time></trkpt><trkpt lat="39.3433018" lon="-3.230388"><ele>629.0</ele><time>2026-04-19T11:28:21.621Z</time></trkpt><trkpt lat="39.3433723" lon="-3.2305628"><ele>629.0</ele><time>2026-04-19T11:28:22.619Z</time></trkpt><trkpt lat="39.3434333" lon="-3.2307469"><ele>629.0</ele><time>2026-04-19T11:28:23.623Z</time></trkpt><trkpt lat="39.3434963" lon="-3.2309543"><ele>629.0</ele><time>2026-04-19T11:28:24.622Z</time></trkpt><trkpt lat="39.3435611" lon="-3.2311836"><ele>629.0</ele><time>2026-04-19T11:28:25.616Z</time></trkpt><trkpt lat="39.3436287" lon="-3.2314308"><ele>629.0</ele><time>2026-04-19T11:28:26.613Z</time></trkpt><trkpt lat="39.3437044" lon="-3.2316976"><ele>629.0</ele><time>2026-04-19T11:28:27.612Z</time></trkpt><trkpt lat="39.34378" lon="-3.2319635"><ele>629.3333333333333</ele><time>2026-04-19T11:28:28.621Z</time></trkpt><trkpt lat="39.3438563" lon="-3.2322327"><ele>629.6666666666666</ele><time>2026-04-19T11:28:29.624Z</time></trkpt><trkpt lat="39.3439356" lon="-3.2325033"><ele>630.0</ele><time>2026-04-19T11:28:30.611Z</time></trkpt><trkpt lat="39.3440165" lon="-3.2327754"><ele>631.0</ele><time>2026-04-19T11:28:31.615Z</time></trkpt><trkpt lat="39.3440989" lon="-3.233054"><ele>632.0</ele><time>2026-04-19T11:28:32.617Z</time></trkpt><trkpt lat="39.3441828" lon="-3.233342"><ele>632.0</ele><time>2026-04-19T11:28:33.624Z</time></trkpt><trkpt lat="39.3442652" lon="-3.2336221"><ele>632.0</ele><time>2026-04-19T11:28:34.615Z</time></trkpt><trkpt lat="39.3443449" lon="-3.2338923"><ele>631.0</ele><time>2026-04-19T11:28:35.607Z</time></trkpt><trkpt lat="39.3444243" lon="-3.2341661"><ele>630.0</ele><time>2026-04-19T11:28:36.618Z</time></trkpt><trkpt lat="39.344508" lon="-3.2344529"><ele>630.0</ele><time>2026-04-19T11:28:37.617Z</time></trkpt><trkpt lat="39.3445968" lon="-3.2347577"><ele>630.0</ele><time>2026-04-19T11:28:38.617Z</time></trkpt><trkpt lat="39.3446886" lon="-3.2350709"><ele>630.0</ele><time>2026-04-19T11:28:39.612Z</time></trkpt><trkpt lat="39.3447776" lon="-3.2353694"><ele>630.0</ele><time>2026-04-19T11:28:40.618Z</time></trkpt><trkpt lat="39.3448653" lon="-3.2356713"><ele>629.0</ele><time>2026-04-19T11:28:41.622Z</time></trkpt><trkpt lat="39.3449528" lon="-3.2359729"><ele>628.0</ele><time>2026-04-19T11:28:42.621Z</time></trkpt><trkpt lat="39.3450347" lon="-3.2362522"><ele>628.0</ele><time>2026-04-19T11:28:43.617Z</time></trkpt><trkpt lat="39.3451211" lon="-3.2365472"><ele>628.0</ele><time>2026-04-19T11:28:44.616Z</time></trkpt><trkpt lat="39.345204" lon="-3.236833"><ele>628.0</ele><time>2026-04-19T11:28:45.62Z</time></trkpt><trkpt lat="39.3452791" lon="-3.2370903"><ele>628.0</ele><time>2026-04-19T11:28:46.614Z</time></trkpt><trkpt lat="39.3453464" lon="-3.2373238"><ele>628.0</ele><time>2026-04-19T11:28:47.612Z</time></trkpt><trkpt lat="39.3454058" lon="-3.2375304"><ele>628.25</ele><time>2026-04-19T11:28:48.616Z</time></trkpt><trkpt lat="39.3454587" lon="-3.2377143"><ele>628.5</ele><time>2026-04-19T11:28:49.612Z</time></trkpt><trkpt lat="39.3455057" lon="-3.2378763"><ele>628.75</ele><time>2026-04-19T11:28:50.62Z</time></trkpt><trkpt lat="39.345548" lon="-3.2380164"><ele>629.0</ele><time>2026-04-19T11:28:51.617Z</time></trkpt><trkpt lat="39.3455853" lon="-3.2381386"><ele>629.2</ele><time>2026-04-19T11:28:52.616Z</time></trkpt><trkpt lat="39.3456163" lon="-3.238243"><ele>629.4</ele><time>2026-04-19T11:28:53.619Z</time></trkpt><trkpt lat="39.3456775" lon="-3.2383569"><ele>629.6</ele><time>2026-04-19T11:28:55.616Z</time></trkpt><trkpt lat="39.3457671" lon="-3.2383659"><ele>629.8</ele><time>2026-04-19T11:28:57.614Z</time></trkpt><trkpt lat="39.3458341" lon="-3.2383255"><ele>630.0</ele><time>2026-04-19T11:28:58.625Z</time></trkpt><trkpt lat="39.3459148" lon="-3.2382599"><ele>630.0</ele><time>2026-04-19T11:28:59.617Z</time></trkpt><trkpt lat="39.3460202" lon="-3.2381759"><ele>630.0</ele><time>2026-04-19T11:29:00.622Z</time></trkpt><trkpt lat="39.3461542" lon="-3.2380717"><ele>630.0</ele><time>2026-04-19T11:29:01.619Z</time></trkpt><trkpt lat="39.3462992" lon="-3.2379575"><ele>630.0</ele><time>2026-04-19T11:29:02.62Z</time></trkpt><trkpt lat="39.3464584" lon="-3.2378352"><ele>630.0</ele><time>2026-04-19T11:29:03.619Z</time></trkpt><trkpt lat="39.3466477" lon="-3.2376943"><ele>630.0</ele><time>2026-04-19T11:29:04.615Z</time></trkpt><trkpt lat="39.3468428" lon="-3.2375526"><ele>630.0</ele><time>2026-04-19T11:29:05.615Z</time></trkpt><trkpt lat="39.3470531" lon="-3.2373949"><ele>630.0</ele><time>2026-04-19T11:29:06.614Z</time></trkpt><trkpt lat="39.3472588" lon="-3.2372384"><ele>629.6666666666666</ele><time>2026-04-19T11:29:07.622Z</time></trkpt><trkpt lat="39.347455" lon="-3.2370915"><ele>629.3333333333333</ele><time>2026-04-19T11:29:08.619Z</time></trkpt><trkpt lat="39.3476412" lon="-3.2369512"><ele>629.0</ele><time>2026-04-19T11:29:09.621Z</time></trkpt><trkpt lat="39.3478202" lon="-3.2368158"><ele>629.0</ele><time>2026-04-19T11:29:10.62Z</time></trkpt><trkpt lat="39.3479915" lon="-3.2366866"><ele>629.0</ele><time>2026-04-19T11:29:11.616Z</time></trkpt><trkpt lat="39.3481545" lon="-3.2365632"><ele>629.0</ele><time>2026-04-19T11:29:12.613Z</time></trkpt><trkpt lat="39.3483095" lon="-3.2364445"><ele>629.3333333333333</ele><time>2026-04-19T11:29:13.612Z</time></trkpt><trkpt lat="39.3484661" lon="-3.2363275"><ele>629.6666666666666</ele><time>2026-04-19T11:29:14.625Z</time></trkpt><trkpt lat="39.3486262" lon="-3.2362092"><ele>630.0</ele><time>2026-04-19T11:29:15.617Z</time></trkpt><trkpt lat="39.3487824" lon="-3.2360942"><ele>629.3333333333334</ele><time>2026-04-19T11:29:16.62Z</time></trkpt><trkpt lat="39.3489377" lon="-3.235978"><ele>628.6666666666667</ele><time>2026-04-19T11:29:17.616Z</time></trkpt><trkpt lat="39.3490904" lon="-3.2358628"><ele>628.0</ele><time>2026-04-19T11:29:18.624Z</time></trkpt><trkpt lat="39.3492441" lon="-3.2357484"><ele>628.3333333333334</ele><time>2026-04-19T11:29:19.625Z</time></trkpt><trkpt lat="39.3493952" lon="-3.2356336"><ele>628.6666666666666</ele><time>2026-04-19T11:29:20.616Z</time></trkpt><trkpt lat="39.3495436" lon="-3.2355205"><ele>629.0</ele><time>2026-04-19T11:29:21.612Z</time></trkpt><trkpt lat="39.34969" lon="-3.2354101"><ele>629.0</ele><time>2026-04-19T11:29:22.612Z</time></trkpt><trkpt lat="39.3498324" lon="-3.2353016"><ele>629.0</ele><time>2026-04-19T11:29:23.618Z</time></trkpt><trkpt lat="39.3499712" lon="-3.2351958"><ele>629.0</ele><time>2026-04-19T11:29:24.624Z</time></trkpt><trkpt lat="39.3501083" lon="-3.2350907"><ele>629.0</ele><time>2026-04-19T11:29:25.626Z</time></trkpt><trkpt lat="39.3502446" lon="-3.2349867"><ele>629.0</ele><time>2026-04-19T11:29:26.625Z</time></trkpt><trkpt lat="39.3503768" lon="-3.2348877"><ele>629.0</ele><time>2026-04-19T11:29:27.619Z</time></trkpt><trkpt lat="39.350501" lon="-3.234795"><ele>629.75</ele><time>2026-04-19T11:29:28.617Z</time></trkpt><trkpt lat="39.350621" lon="-3.2347018"><ele>630.5</ele><time>2026-04-19T11:29:29.627Z</time></trkpt><trkpt lat="39.3507427" lon="-3.2346085"><ele>631.25</ele><time>2026-04-19T11:29:30.622Z</time></trkpt><trkpt lat="39.3508694" lon="-3.2345128"><ele>632.0</ele><time>2026-04-19T11:29:31.618Z</time></trkpt><trkpt lat="39.3510019" lon="-3.2344207"><ele>632.0</ele><time>2026-04-19T11:29:32.622Z</time></trkpt><trkpt lat="39.3511252" lon="-3.2343271"><ele>632.0</ele><time>2026-04-19T11:29:33.613Z</time></trkpt><trkpt lat="39.3512529" lon="-3.2342258"><ele>632.0</ele><time>2026-04-19T11:29:34.621Z</time></trkpt><trkpt lat="39.3513879" lon="-3.2341233"><ele>632.0</ele><time>2026-04-19T11:29:35.612Z</time></trkpt><trkpt lat="39.3515223" lon="-3.2340196"><ele>631.6666666666666</ele><time>2026-04-19T11:29:36.627Z</time></trkpt><trkpt lat="39.3516569" lon="-3.2339148"><ele>631.3333333333334</ele><time>2026-04-19T11:29:37.615Z</time></trkpt><trkpt lat="39.3517939" lon="-3.2338134"><ele>631.0</ele><time>2026-04-19T11:29:38.613Z</time></trkpt><trkpt lat="39.3519281" lon="-3.2337138"><ele>631.0</ele><time>2026-04-19T11:29:39.619Z</time></trkpt><trkpt lat="39.3520556" lon="-3.2336206"><ele>631.0</ele><time>2026-04-19T11:29:40.616Z</time></trkpt><trkpt lat="39.3521749" lon="-3.2335301"><ele>631.0</ele><time>2026-04-19T11:29:41.615Z</time></trkpt><trkpt lat="39.3522801" lon="-3.2334462"><ele>631.0</ele><time>2026-04-19T11:29:42.616Z</time></trkpt><trkpt lat="39.352372" lon="-3.2333751"><ele>630.8</ele><time>2026-04-19T11:29:43.613Z</time></trkpt><trkpt lat="39.3524452" lon="-3.2333179"><ele>630.6</ele><time>2026-04-19T11:29:44.618Z</time></trkpt><trkpt lat="39.3525232" lon="-3.2332752"><ele>630.4</ele><time>2026-04-19T11:29:46.617Z</time></trkpt><trkpt lat="39.3525827" lon="-3.2333602"><ele>630.2</ele><time>2026-04-19T11:29:49.622Z</time></trkpt><trkpt lat="39.3526068" lon="-3.2335191"><ele>630.0</ele><time>2026-04-19T11:29:51.618Z</time></trkpt><trkpt lat="39.352625" lon="-3.2336239"><ele>630.0</ele><time>2026-04-19T11:29:52.619Z</time></trkpt><trkpt lat="39.352648" lon="-3.2337374"><ele>630.0</ele><time>2026-04-19T11:29:53.617Z</time></trkpt><trkpt lat="39.3526819" lon="-3.2338557"><ele>630.0</ele><time>2026-04-19T11:29:54.617Z</time></trkpt><trkpt lat="39.3527293" lon="-3.2339773"><ele>630.0</ele><time>2026-04-19T11:29:55.628Z</time></trkpt><trkpt lat="39.352792" lon="-3.2341084"><ele>630.0</ele><time>2026-04-19T11:29:56.621Z</time></trkpt><trkpt lat="39.3528626" lon="-3.2342456"><ele>630.25</ele><time>2026-04-19T11:29:57.619Z</time></trkpt><trkpt lat="39.3529378" lon="-3.2343924"><ele>630.5</ele><time>2026-04-19T11:29:58.622Z</time></trkpt><trkpt lat="39.3530153" lon="-3.2345451"><ele>630.75</ele><time>2026-04-19T11:29:59.62Z</time></trkpt><trkpt lat="39.3531009" lon="-3.2346976"><ele>631.0</ele><time>2026-04-19T11:30:00.614Z</time></trkpt><trkpt lat="39.3531872" lon="-3.2348529"><ele>631.0</ele><time>2026-04-19T11:30:01.624Z</time></trkpt><trkpt lat="39.3532744" lon="-3.2350163"><ele>631.0</ele><time>2026-04-19T11:30:02.621Z</time></trkpt><trkpt lat="39.3533585" lon="-3.2351809"><ele>631.0</ele><time>2026-04-19T11:30:03.62Z</time></trkpt><trkpt lat="39.3534573" lon="-3.2353593"><ele>631.0</ele><time>2026-04-19T11:30:04.622Z</time></trkpt><trkpt lat="39.3535648" lon="-3.2355549"><ele>631.0</ele><time>2026-04-19T11:30:05.623Z</time></trkpt><trkpt lat="39.3536809" lon="-3.2357649"><ele>631.0</ele><time>2026-04-19T11:30:06.621Z</time></trkpt><trkpt lat="39.3538067" lon="-3.2359991"><ele>631.0</ele><time>2026-04-19T11:30:07.619Z</time></trkpt><trkpt lat="39.3539242" lon="-3.2362235"><ele>631.0</ele><time>2026-04-19T11:30:08.617Z</time></trkpt><trkpt lat="39.3540297" lon="-3.2364281"><ele>631.0</ele><time>2026-04-19T11:30:09.617Z</time></trkpt><trkpt lat="39.3541199" lon="-3.236612"><ele>631.0</ele><time>2026-04-19T11:30:10.622Z</time></trkpt><trkpt lat="39.3541963" lon="-3.2367727"><ele>631.0</ele><time>2026-04-19T11:30:11.619Z</time></trkpt><trkpt lat="39.3542609" lon="-3.2369126"><ele>631.0</ele><time>2026-04-19T11:30:12.621Z</time></trkpt><trkpt lat="39.3543075" lon="-3.2370428"><ele>631.0</ele><time>2026-04-19T11:30:13.62Z</time></trkpt><trkpt lat="39.3543313" lon="-3.2371734"><ele>631.0</ele><time>2026-04-19T11:30:14.616Z</time></trkpt><trkpt lat="39.3543391" lon="-3.2373001"><ele>631.0</ele><time>2026-04-19T11:30:15.619Z</time></trkpt><trkpt lat="39.3543397" lon="-3.2374128"><ele>631.0</ele><time>2026-04-19T11:30:16.619Z</time></trkpt><trkpt lat="39.3543497" lon="-3.2375099"><ele>631.0</ele><time>2026-04-19T11:30:17.624Z</time></trkpt><trkpt lat="39.3543716" lon="-3.2375915"><ele>631.0</ele><time>2026-04-19T11:30:18.62Z</time></trkpt><trkpt lat="39.3544207" lon="-3.23771"><ele>631.0</ele><time>2026-04-19T11:30:20.62Z</time></trkpt><trkpt lat="39.3544564" lon="-3.2377883"><ele>630.8</ele><time>2026-04-19T11:30:22.626Z</time></trkpt><trkpt lat="39.3544938" lon="-3.2378861"><ele>630.6</ele><time>2026-04-19T11:30:25.622Z</time></trkpt><trkpt lat="39.3545444" lon="-3.2379806"><ele>630.4</ele><time>2026-04-19T11:30:31.618Z</time></trkpt><trkpt lat="39.3546439" lon="-3.2380448"><ele>630.2</ele><time>2026-04-19T11:31:07.624Z</time></trkpt><trkpt lat="39.3547828" lon="-3.2380911"><ele>630.0</ele><time>2026-04-19T11:31:09.623Z</time></trkpt><trkpt lat="39.354896" lon="-3.2381227"><ele>630.0</ele><time>2026-04-19T11:31:10.618Z</time></trkpt><trkpt lat="39.3550338" lon="-3.2381609"><ele>630.0</ele><time>2026-04-19T11:31:11.618Z</time></trkpt><trkpt lat="39.3551397" lon="-3.23819"><ele>630.0</ele><time>2026-04-19T11:31:12.619Z</time></trkpt><trkpt lat="39.3552124" lon="-3.2382234"><ele>630.0</ele><time>2026-04-19T11:31:13.62Z</time></trkpt><trkpt lat="39.3552792" lon="-3.2383706"><ele>630.0</ele><time>2026-04-19T11:31:15.624Z</time></trkpt><trkpt lat="39.3553041" lon="-3.2385192"><ele>630.0</ele><time>2026-04-19T11:31:16.621Z</time></trkpt><trkpt lat="39.3553334" lon="-3.2387025"><ele>630.0</ele><time>2026-04-19T11:31:17.625Z</time></trkpt><trkpt lat="39.3553732" lon="-3.2389231"><ele>630.0</ele><time>2026-04-19T11:31:18.62Z</time></trkpt><trkpt lat="39.3554135" lon="-3.2391351"><ele>629.75</ele><time>2026-04-19T11:31:19.621Z</time></trkpt><trkpt lat="39.3554484" lon="-3.2393317"><ele>629.5</ele><time>2026-04-19T11:31:20.619Z</time></trkpt><trkpt lat="39.3554804" lon="-3.2395076"><ele>629.25</ele><time>2026-04-19T11:31:21.624Z</time></trkpt><trkpt lat="39.355511" lon="-3.2396529"><ele>629.0</ele><time>2026-04-19T11:31:22.622Z</time></trkpt><trkpt lat="39.3555319" lon="-3.2397654"><ele>629.4</ele><time>2026-04-19T11:31:23.619Z</time></trkpt><trkpt lat="39.3556023" lon="-3.2398767"><ele>629.8</ele><time>2026-04-19T11:31:25.625Z</time></trkpt><trkpt lat="39.3556692" lon="-3.2398857"><ele>630.2</ele><time>2026-04-19T11:31:26.619Z</time></trkpt><trkpt lat="39.3557754" lon="-3.2398617"><ele>630.6</ele><time>2026-04-19T11:31:27.616Z</time></trkpt><trkpt lat="39.3558914" lon="-3.2398296"><ele>631.0</ele><time>2026-04-19T11:31:28.618Z</time></trkpt><trkpt lat="39.3559899" lon="-3.2398146"><ele>631.0</ele><time>2026-04-19T11:31:29.617Z</time></trkpt><trkpt lat="39.3560788" lon="-3.2398346"><ele>631.0</ele><time>2026-04-19T11:31:30.623Z</time></trkpt><trkpt lat="39.3561827" lon="-3.2398703"><ele>631.0</ele><time>2026-04-19T11:31:31.62Z</time></trkpt><trkpt lat="39.3563035" lon="-3.2399917"><ele>631.0</ele><time>2026-04-19T11:31:32.618Z</time></trkpt><trkpt lat="39.3564462" lon="-3.2401459"><ele>630.0</ele><time>2026-04-19T11:31:33.626Z</time></trkpt><trkpt lat="39.3566052" lon="-3.2403221"><ele>629.0</ele><time>2026-04-19T11:31:34.617Z</time></trkpt><trkpt lat="39.3567675" lon="-3.240494"><ele>628.0</ele><time>2026-04-19T11:31:35.623Z</time></trkpt><trkpt lat="39.3569188" lon="-3.2406523"><ele>628.0</ele><time>2026-04-19T11:31:36.659Z</time></trkpt><trkpt lat="39.3570743" lon="-3.2408263"><ele>628.0</ele><time>2026-04-19T11:31:37.623Z</time></trkpt><trkpt lat="39.3572135" lon="-3.2409833"><ele>628.0</ele><time>2026-04-19T11:31:38.619Z</time></trkpt><trkpt lat="39.3573388" lon="-3.2411262"><ele>628.0</ele><time>2026-04-19T11:31:39.621Z</time></trkpt><trkpt lat="39.3574382" lon="-3.2412429"><ele>628.0</ele><time>2026-04-19T11:31:40.614Z</time></trkpt><trkpt lat="39.3575101" lon="-3.241322"><ele>628.0</ele><time>2026-04-19T11:31:41.62Z</time></trkpt><trkpt lat="39.3575958" lon="-3.241402"><ele>628.0</ele><time>2026-04-19T11:31:43.621Z</time></trkpt><trkpt lat="39.357674" lon="-3.2415148"><ele>628.0</ele><time>2026-04-19T11:31:45.625Z</time></trkpt><trkpt lat="39.3577368" lon="-3.2415989"><ele>628.0</ele><time>2026-04-19T11:31:46.623Z</time></trkpt><trkpt lat="39.3578001" lon="-3.2416853"><ele>628.0</ele><time>2026-04-19T11:31:47.622Z</time></trkpt><trkpt lat="39.3578557" lon="-3.241768"><ele>628.0</ele><time>2026-04-19T11:31:48.63Z</time></trkpt><trkpt lat="39.3578879" lon="-3.2418698"><ele>628.0</ele><time>2026-04-19T11:31:49.612Z</time></trkpt><trkpt lat="39.3579055" lon="-3.2419932"><ele>628.0</ele><time>2026-04-19T11:31:50.62Z</time></trkpt><trkpt lat="39.3579102" lon="-3.242157"><ele>627.75</ele><time>2026-04-19T11:31:51.616Z</time></trkpt><trkpt lat="39.3578978" lon="-3.2423503"><ele>627.5</ele><time>2026-04-19T11:31:52.617Z</time></trkpt><trkpt lat="39.3578869" lon="-3.2425422"><ele>627.25</ele><time>2026-04-19T11:31:53.623Z</time></trkpt><trkpt lat="39.3578794" lon="-3.2427301"><ele>627.0</ele><time>2026-04-19T11:31:54.615Z</time></trkpt><trkpt lat="39.3578666" lon="-3.2429143"><ele>627.0</ele><time>2026-04-19T11:31:55.613Z</time></trkpt><trkpt lat="39.3578573" lon="-3.2430835"><ele>627.0</ele><time>2026-04-19T11:31:56.614Z</time></trkpt><trkpt lat="39.3578482" lon="-3.2432413"><ele>627.0</ele><time>2026-04-19T11:31:57.618Z</time></trkpt><trkpt lat="39.3578399" lon="-3.2433865"><ele>627.0</ele><time>2026-04-19T11:31:58.62Z</time></trkpt><trkpt lat="39.3578328" lon="-3.2435209"><ele>627.0</ele><time>2026-04-19T11:31:59.619Z</time></trkpt><trkpt lat="39.3578243" lon="-3.2436603"><ele>627.0</ele><time>2026-04-19T11:32:00.621Z</time></trkpt><trkpt lat="39.3578171" lon="-3.243808"><ele>627.0</ele><time>2026-04-19T11:32:01.623Z</time></trkpt><trkpt lat="39.3578119" lon="-3.2439723"><ele>627.0</ele><time>2026-04-19T11:32:02.623Z</time></trkpt><trkpt lat="39.3578069" lon="-3.2441413"><ele>627.0</ele><time>2026-04-19T11:32:03.62Z</time></trkpt><trkpt lat="39.3578003" lon="-3.2443017"><ele>627.0</ele><time>2026-04-19T11:32:04.622Z</time></trkpt><trkpt lat="39.3577935" lon="-3.2444502"><ele>627.0</ele><time>2026-04-19T11:32:05.614Z</time></trkpt><trkpt lat="39.3577857" lon="-3.2445902"><ele>627.0</ele><time>2026-04-19T11:32:06.614Z</time></trkpt><trkpt lat="39.3577759" lon="-3.2447197"><ele>627.0</ele><time>2026-04-19T11:32:07.615Z</time></trkpt><trkpt lat="39.3577673" lon="-3.2448384"><ele>627.3333333333334</ele><time>2026-04-19T11:32:08.616Z</time></trkpt><trkpt lat="39.3577585" lon="-3.2449371"><ele>627.6666666666666</ele><time>2026-04-19T11:32:09.622Z</time></trkpt><trkpt lat="39.3577647" lon="-3.2450738"><ele>628.0</ele><time>2026-04-19T11:32:11.62Z</time></trkpt><trkpt lat="39.3578343" lon="-3.2451613"><ele>628.3333333333333</ele><time>2026-04-19T11:32:13.628Z</time></trkpt><trkpt lat="39.357904" lon="-3.245193"><ele>628.6666666666666</ele><time>2026-04-19T11:32:14.619Z</time></trkpt><trkpt lat="39.3579951" lon="-3.245226"><ele>629.0</ele><time>2026-04-19T11:32:15.616Z</time></trkpt><trkpt lat="39.3581265" lon="-3.2452384"><ele>629.3333333333333</ele><time>2026-04-19T11:32:16.625Z</time></trkpt><trkpt lat="39.3582844" lon="-3.2452414"><ele>629.6666666666666</ele><time>2026-04-19T11:32:17.615Z</time></trkpt><trkpt lat="39.3584558" lon="-3.2452452"><ele>630.0</ele><time>2026-04-19T11:32:18.618Z</time></trkpt><trkpt lat="39.3586219" lon="-3.2452458"><ele>630.0</ele><time>2026-04-19T11:32:19.622Z</time></trkpt><trkpt lat="39.3587758" lon="-3.2452362"><ele>630.0</ele><time>2026-04-19T11:32:20.622Z</time></trkpt><trkpt lat="39.3589236" lon="-3.2452093"><ele>630.0</ele><time>2026-04-19T11:32:21.626Z</time></trkpt><trkpt lat="39.3590893" lon="-3.2451674"><ele>629.6666666666666</ele><time>2026-04-19T11:32:22.627Z</time></trkpt><trkpt lat="39.3592774" lon="-3.2451272"><ele>629.3333333333333</ele><time>2026-04-19T11:32:23.628Z</time></trkpt><trkpt lat="39.3594704" lon="-3.2450909"><ele>629.0</ele><time>2026-04-19T11:32:24.621Z</time></trkpt><trkpt lat="39.359663" lon="-3.2450695"><ele>628.3333333333333</ele><time>2026-04-19T11:32:25.625Z</time></trkpt><trkpt lat="39.3598674" lon="-3.245067"><ele>627.6666666666666</ele><time>2026-04-19T11:32:26.621Z</time></trkpt><trkpt lat="39.3600576" lon="-3.2450649"><ele>627.0</ele><time>2026-04-19T11:32:27.627Z</time></trkpt><trkpt lat="39.3602325" lon="-3.2450567"><ele>627.0</ele><time>2026-04-19T11:32:28.631Z</time></trkpt><trkpt lat="39.3604098" lon="-3.2450566"><ele>627.0</ele><time>2026-04-19T11:32:29.624Z</time></trkpt><trkpt lat="39.3605849" lon="-3.2450829"><ele>627.0</ele><time>2026-04-19T11:32:30.624Z</time></trkpt><trkpt lat="39.3607676" lon="-3.2451375"><ele>628.0</ele><time>2026-04-19T11:32:31.627Z</time></trkpt><trkpt lat="39.360952" lon="-3.2452049"><ele>629.0</ele><time>2026-04-19T11:32:32.636Z</time></trkpt><trkpt lat="39.3611465" lon="-3.2452892"><ele>630.0</ele><time>2026-04-19T11:32:33.631Z</time></trkpt><trkpt lat="39.3613362" lon="-3.2453996"><ele>629.5</ele><time>2026-04-19T11:32:34.623Z</time></trkpt><trkpt lat="39.361552" lon="-3.2455252"><ele>629.0</ele><time>2026-04-19T11:32:35.624Z</time></trkpt><trkpt lat="39.3617859" lon="-3.245662"><ele>628.5</ele><time>2026-04-19T11:32:36.63Z</time></trkpt><trkpt lat="39.362011" lon="-3.2457952"><ele>628.0</ele><time>2026-04-19T11:32:37.631Z</time></trkpt><trkpt lat="39.3622247" lon="-3.2459197"><ele>628.0</ele><time>2026-04-19T11:32:38.625Z</time></trkpt><trkpt lat="39.3624433" lon="-3.2460426"><ele>628.0</ele><time>2026-04-19T11:32:39.63Z</time></trkpt><trkpt lat="39.3626492" lon="-3.246155"><ele>628.0</ele><time>2026-04-19T11:32:40.623Z</time></trkpt><trkpt lat="39.3628425" lon="-3.2462654"><ele>628.0</ele><time>2026-04-19T11:32:41.63Z</time></trkpt><trkpt lat="39.3630227" lon="-3.246366"><ele>628.0</ele><time>2026-04-19T11:32:42.629Z</time></trkpt><trkpt lat="39.3632025" lon="-3.2464636"><ele>628.6666666666667</ele><time>2026-04-19T11:32:43.629Z</time></trkpt><trkpt lat="39.3633734" lon="-3.2465477"><ele>629.3333333333334</ele><time>2026-04-19T11:32:44.623Z</time></trkpt><trkpt lat="39.3635512" lon="-3.2466303"><ele>630.0</ele><time>2026-04-19T11:32:45.631Z</time></trkpt><trkpt lat="39.36373" lon="-3.2467284"><ele>629.0</ele><time>2026-04-19T11:32:46.616Z</time></trkpt><trkpt lat="39.3639048" lon="-3.2468265"><ele>628.0</ele><time>2026-04-19T11:32:47.63Z</time></trkpt><trkpt lat="39.3640667" lon="-3.2469141"><ele>627.0</ele><time>2026-04-19T11:32:48.621Z</time></trkpt><trkpt lat="39.3642037" lon="-3.2469804"><ele>627.0</ele><time>2026-04-19T11:32:49.622Z</time></trkpt><trkpt lat="39.3643245" lon="-3.2470289"><ele>627.0</ele><time>2026-04-19T11:32:50.627Z</time></trkpt><trkpt lat="39.3644594" lon="-3.247056"><ele>627.0</ele><time>2026-04-19T11:32:51.622Z</time></trkpt><trkpt lat="39.3646163" lon="-3.2470757"><ele>627.0</ele><time>2026-04-19T11:32:52.623Z</time></trkpt><trkpt lat="39.3647948" lon="-3.2470727"><ele>627.6666666666666</ele><time>2026-04-19T11:32:53.625Z</time></trkpt><trkpt lat="39.3649482" lon="-3.247104"><ele>628.3333333333333</ele><time>2026-04-19T11:32:54.621Z</time></trkpt><trkpt lat="39.3650995" lon="-3.2471615"><ele>629.0</ele><time>2026-04-19T11:32:55.63Z</time></trkpt><trkpt lat="39.365261" lon="-3.247253"><ele>629.3333333333333</ele><time>2026-04-19T11:32:56.628Z</time></trkpt><trkpt lat="39.3654303" lon="-3.2473528"><ele>629.6666666666666</ele><time>2026-04-19T11:32:57.631Z</time></trkpt><trkpt lat="39.3656151" lon="-3.2474408"><ele>630.0</ele><time>2026-04-19T11:32:58.629Z</time></trkpt><trkpt lat="39.365804" lon="-3.2474996"><ele>629.5</ele><time>2026-04-19T11:32:59.619Z</time></trkpt><trkpt lat="39.3659741" lon="-3.2475494"><ele>629.0</ele><time>2026-04-19T11:33:00.618Z</time></trkpt><trkpt lat="39.3661138" lon="-3.2476053"><ele>628.5</ele><time>2026-04-19T11:33:01.626Z</time></trkpt><trkpt lat="39.3662286" lon="-3.2476626"><ele>628.0</ele><time>2026-04-19T11:33:02.621Z</time></trkpt><trkpt lat="39.3663346" lon="-3.2477516"><ele>628.25</ele><time>2026-04-19T11:33:03.628Z</time></trkpt><trkpt lat="39.3664604" lon="-3.2478643"><ele>628.5</ele><time>2026-04-19T11:33:04.63Z</time></trkpt><trkpt lat="39.3665837" lon="-3.2479852"><ele>628.75</ele><time>2026-04-19T11:33:05.623Z</time></trkpt><trkpt lat="39.3666893" lon="-3.2480902"><ele>629.0</ele><time>2026-04-19T11:33:06.619Z</time></trkpt><trkpt lat="39.3667875" lon="-3.2481511"><ele>629.0</ele><time>2026-04-19T11:33:07.62Z</time></trkpt><trkpt lat="39.3668924" lon="-3.2481838"><ele>629.0</ele><time>2026-04-19T11:33:08.618Z</time></trkpt><trkpt lat="39.3670264" lon="-3.2482017"><ele>629.0</ele><time>2026-04-19T11:33:09.626Z</time></trkpt><trkpt lat="39.3671852" lon="-3.248193"><ele>629.0</ele><time>2026-04-19T11:33:10.626Z</time></trkpt><trkpt lat="39.3673676" lon="-3.2481768"><ele>629.0</ele><time>2026-04-19T11:33:11.621Z</time></trkpt><trkpt lat="39.3675781" lon="-3.2481466"><ele>629.0</ele><time>2026-04-19T11:33:12.626Z</time></trkpt><trkpt lat="39.367805" lon="-3.2481133"><ele>629.0</ele><time>2026-04-19T11:33:13.632Z</time></trkpt><trkpt lat="39.3680202" lon="-3.2480793"><ele>630.3333333333333</ele><time>2026-04-19T11:33:14.63Z</time></trkpt><trkpt lat="39.3682211" lon="-3.248043"><ele>631.6666666666666</ele><time>2026-04-19T11:33:15.623Z</time></trkpt><trkpt lat="39.3684185" lon="-3.248011"><ele>633.0</ele><time>2026-04-19T11:33:16.626Z</time></trkpt><trkpt lat="39.36863" lon="-3.2479994"><ele>633.0</ele><time>2026-04-19T11:33:17.633Z</time></trkpt><trkpt lat="39.3688563" lon="-3.2479997"><ele>633.0</ele><time>2026-04-19T11:33:18.619Z</time></trkpt><trkpt lat="39.369085" lon="-3.2480347"><ele>633.0</ele><time>2026-04-19T11:33:19.624Z</time></trkpt><trkpt lat="39.3693053" lon="-3.2480854"><ele>633.0</ele><time>2026-04-19T11:33:20.623Z</time></trkpt><trkpt lat="39.3695057" lon="-3.2481444"><ele>633.0</ele><time>2026-04-19T11:33:21.624Z</time></trkpt><trkpt lat="39.3696929" lon="-3.2481943"><ele>632.0</ele><time>2026-04-19T11:33:22.622Z</time></trkpt><trkpt lat="39.3698716" lon="-3.2482406"><ele>631.0</ele><time>2026-04-19T11:33:23.63Z</time></trkpt><trkpt lat="39.3700486" lon="-3.2482868"><ele>630.0</ele><time>2026-04-19T11:33:24.626Z</time></trkpt><trkpt lat="39.3702402" lon="-3.248353"><ele>630.0</ele><time>2026-04-19T11:33:25.622Z</time></trkpt><trkpt lat="39.3704286" lon="-3.2484502"><ele>630.0</ele><time>2026-04-19T11:33:26.625Z</time></trkpt><trkpt lat="39.3705774" lon="-3.2485553"><ele>630.0</ele><time>2026-04-19T11:33:27.632Z</time></trkpt><trkpt lat="39.3707129" lon="-3.2486664"><ele>630.0</ele><time>2026-04-19T11:33:28.622Z</time></trkpt><trkpt lat="39.3708332" lon="-3.2488004"><ele>630.0</ele><time>2026-04-19T11:33:29.62Z</time></trkpt><trkpt lat="39.3709414" lon="-3.2489415"><ele>630.0</ele><time>2026-04-19T11:33:30.63Z</time></trkpt><trkpt lat="39.3710327" lon="-3.2490797"><ele>630.0</ele><time>2026-04-19T11:33:31.625Z</time></trkpt><trkpt lat="39.3711008" lon="-3.2491964"><ele>630.0</ele><time>2026-04-19T11:33:32.62Z</time></trkpt><trkpt lat="39.3711591" lon="-3.2492963"><ele>630.0</ele><time>2026-04-19T11:33:33.619Z</time></trkpt><trkpt lat="39.3712104" lon="-3.2493841"><ele>630.0</ele><time>2026-04-19T11:33:34.631Z</time></trkpt><trkpt lat="39.3712568" lon="-3.2494589"><ele>630.0</ele><time>2026-04-19T11:33:35.629Z</time></trkpt><trkpt lat="39.3713112" lon="-3.2495254"><ele>630.0</ele><time>2026-04-19T11:33:36.624Z</time></trkpt><trkpt lat="39.3713838" lon="-3.2495907"><ele>630.25</ele><time>2026-04-19T11:33:37.625Z</time></trkpt><trkpt lat="39.3714766" lon="-3.249645"><ele>630.5</ele><time>2026-04-19T11:33:38.626Z</time></trkpt><trkpt lat="39.3716001" lon="-3.2496893"><ele>630.75</ele><time>2026-04-19T11:33:39.623Z</time></trkpt><trkpt lat="39.3717403" lon="-3.2497168"><ele>631.0</ele><time>2026-04-19T11:33:40.628Z</time></trkpt><trkpt lat="39.371906" lon="-3.2497353"><ele>631.0</ele><time>2026-04-19T11:33:41.632Z</time></trkpt><trkpt lat="39.3721005" lon="-3.2497494"><ele>631.0</ele><time>2026-04-19T11:33:42.631Z</time></trkpt><trkpt lat="39.3723114" lon="-3.2497596"><ele>631.0</ele><time>2026-04-19T11:33:43.626Z</time></trkpt><trkpt lat="39.3725448" lon="-3.2497691"><ele>630.5</ele><time>2026-04-19T11:33:44.632Z</time></trkpt><trkpt lat="39.3727989" lon="-3.2497819"><ele>630.0</ele><time>2026-04-19T11:33:45.626Z</time></trkpt><trkpt lat="39.3730638" lon="-3.249797"><ele>630.0</ele><time>2026-04-19T11:33:46.619Z</time></trkpt><trkpt lat="39.3733478" lon="-3.2498098"><ele>630.0</ele><time>2026-04-19T11:33:47.63Z</time></trkpt><trkpt lat="39.3736237" lon="-3.249822"><ele>630.5</ele><time>2026-04-19T11:33:48.624Z</time></trkpt><trkpt lat="39.3738806" lon="-3.2498357"><ele>631.0</ele><time>2026-04-19T11:33:49.627Z</time></trkpt><trkpt lat="39.37412" lon="-3.2498477"><ele>631.0</ele><time>2026-04-19T11:33:50.624Z</time></trkpt><trkpt lat="39.3743448" lon="-3.2498589"><ele>631.0</ele><time>2026-04-19T11:33:51.698Z</time></trkpt><trkpt lat="39.3745568" lon="-3.2498666"><ele>631.0</ele><time>2026-04-19T11:33:52.626Z</time></trkpt><trkpt lat="39.374756" lon="-3.2498734"><ele>630.6666666666667</ele><time>2026-04-19T11:33:53.622Z</time></trkpt><trkpt lat="39.3749444" lon="-3.2498803"><ele>630.3333333333334</ele><time>2026-04-19T11:33:54.62Z</time></trkpt><trkpt lat="39.37513" lon="-3.2498866"><ele>630.0</ele><time>2026-04-19T11:33:55.62Z</time></trkpt><trkpt lat="39.3753103" lon="-3.2498927"><ele>630.0</ele><time>2026-04-19T11:33:56.631Z</time></trkpt><trkpt lat="39.3755074" lon="-3.2499034"><ele>630.0</ele><time>2026-04-19T11:33:57.619Z</time></trkpt><trkpt lat="39.3757188" lon="-3.2499237"><ele>630.0</ele><time>2026-04-19T11:33:58.622Z</time></trkpt><trkpt lat="39.3759563" lon="-3.249933"><ele>630.5</ele><time>2026-04-19T11:33:59.633Z</time></trkpt><trkpt lat="39.3761902" lon="-3.2499465"><ele>631.0</ele><time>2026-04-19T11:34:00.618Z</time></trkpt><trkpt lat="39.3764176" lon="-3.2499591"><ele>631.0</ele><time>2026-04-19T11:34:01.633Z</time></trkpt><trkpt lat="39.3766452" lon="-3.249973"><ele>631.0</ele><time>2026-04-19T11:34:02.625Z</time></trkpt><trkpt lat="39.3768829" lon="-3.2499863"><ele>631.0</ele><time>2026-04-19T11:34:03.618Z</time></trkpt><trkpt lat="39.3771369" lon="-3.2499974"><ele>631.0</ele><time>2026-04-19T11:34:04.625Z</time></trkpt><trkpt lat="39.3773975" lon="-3.2500108"><ele>631.0</ele><time>2026-04-19T11:34:05.628Z</time></trkpt><trkpt lat="39.3776637" lon="-3.2500254"><ele>631.0</ele><time>2026-04-19T11:34:06.63Z</time></trkpt><trkpt lat="39.377915" lon="-3.2500426"><ele>632.5</ele><time>2026-04-19T11:34:07.622Z</time></trkpt><trkpt lat="39.3781496" lon="-3.25006"><ele>634.0</ele><time>2026-04-19T11:34:08.621Z</time></trkpt><trkpt lat="39.3783698" lon="-3.2500713"><ele>634.0</ele><time>2026-04-19T11:34:09.621Z</time></trkpt><trkpt lat="39.3785774" lon="-3.2500803"><ele>634.0</ele><time>2026-04-19T11:34:10.623Z</time></trkpt><trkpt lat="39.378773" lon="-3.2500894"><ele>634.0</ele><time>2026-04-19T11:34:11.62Z</time></trkpt><trkpt lat="39.378957" lon="-3.2500948"><ele>633.0</ele><time>2026-04-19T11:34:12.632Z</time></trkpt><trkpt lat="39.3791275" lon="-3.2500979"><ele>632.0</ele><time>2026-04-19T11:34:13.619Z</time></trkpt><trkpt lat="39.3792837" lon="-3.2501024"><ele>631.0</ele><time>2026-04-19T11:34:14.623Z</time></trkpt><trkpt lat="39.3794274" lon="-3.2501085"><ele>631.0</ele><time>2026-04-19T11:34:15.63Z</time></trkpt><trkpt lat="39.3795633" lon="-3.2501181"><ele>631.0</ele><time>2026-04-19T11:34:16.622Z</time></trkpt><trkpt lat="39.3796854" lon="-3.2501271"><ele>631.0</ele><time>2026-04-19T11:34:17.625Z</time></trkpt><trkpt lat="39.3797979" lon="-3.2501315"><ele>631.0</ele><time>2026-04-19T11:34:18.623Z</time></trkpt><trkpt lat="39.3798961" lon="-3.2501343"><ele>631.4</ele><time>2026-04-19T11:34:19.626Z</time></trkpt><trkpt lat="39.379982" lon="-3.2501384"><ele>631.8</ele><time>2026-04-19T11:34:20.62Z</time></trkpt><trkpt lat="39.380052" lon="-3.2501491"><ele>632.1999999999999</ele><time>2026-04-19T11:34:21.624Z</time></trkpt><trkpt lat="39.3801655" lon="-3.2502073"><ele>632.6</ele><time>2026-04-19T11:34:23.622Z</time></trkpt><trkpt lat="39.3802466" lon="-3.2503437"><ele>633.0</ele><time>2026-04-19T11:34:25.626Z</time></trkpt><trkpt lat="39.3803135" lon="-3.2504206"><ele>633.0</ele><time>2026-04-19T11:34:26.623Z</time></trkpt><trkpt lat="39.3803787" lon="-3.2504822"><ele>633.0</ele><time>2026-04-19T11:34:27.625Z</time></trkpt><trkpt lat="39.3804397" lon="-3.2505311"><ele>633.0</ele><time>2026-04-19T11:34:28.623Z</time></trkpt><trkpt lat="39.3805096" lon="-3.2505866"><ele>633.0</ele><time>2026-04-19T11:34:30.629Z</time></trkpt><trkpt lat="39.3805511" lon="-3.2506497"><ele>633.0</ele><time>2026-04-19T11:34:32.625Z</time></trkpt><trkpt lat="39.3805803" lon="-3.250728"><ele>633.0</ele><time>2026-04-19T11:34:34.634Z</time></trkpt><trkpt lat="39.38063" lon="-3.2507981"><ele>633.0</ele><time>2026-04-19T11:34:36.624Z</time></trkpt><trkpt lat="39.3806875" lon="-3.2508742"><ele>632.6</ele><time>2026-04-19T11:34:38.632Z</time></trkpt><trkpt lat="39.3807638" lon="-3.2509554"><ele>632.1999999999999</ele><time>2026-04-19T11:34:40.624Z</time></trkpt><trkpt lat="39.3808569" lon="-3.2510674"><ele>631.8</ele><time>2026-04-19T11:34:42.626Z</time></trkpt><trkpt lat="39.3809146" lon="-3.2511285"><ele>631.4</ele><time>2026-04-19T11:34:43.621Z</time></trkpt><trkpt lat="39.3809751" lon="-3.2511915"><ele>631.0</ele><time>2026-04-19T11:34:44.627Z</time></trkpt><trkpt lat="39.3810338" lon="-3.251259"><ele>631.0</ele><time>2026-04-19T11:34:45.624Z</time></trkpt><trkpt lat="39.3811018" lon="-3.2513465"><ele>631.0</ele><time>2026-04-19T11:34:46.63Z</time></trkpt><trkpt lat="39.3811916" lon="-3.2514535"><ele>631.0</ele><time>2026-04-19T11:34:47.633Z</time></trkpt><trkpt lat="39.3813051" lon="-3.2515798"><ele>631.0</ele><time>2026-04-19T11:34:48.624Z</time></trkpt><trkpt lat="39.3814392" lon="-3.2517257"><ele>631.0</ele><time>2026-04-19T11:34:49.619Z</time></trkpt><trkpt lat="39.381593" lon="-3.2518839"><ele>631.0</ele><time>2026-04-19T11:34:50.627Z</time></trkpt><trkpt lat="39.3817458" lon="-3.2520438"><ele>631.0</ele><time>2026-04-19T11:34:51.625Z</time></trkpt><trkpt lat="39.3818969" lon="-3.2522101"><ele>632.0</ele><time>2026-04-19T11:34:52.627Z</time></trkpt><trkpt lat="39.3820604" lon="-3.2523915"><ele>633.0</ele><time>2026-04-19T11:34:53.625Z</time></trkpt><trkpt lat="39.3822328" lon="-3.252589"><ele>634.0</ele><time>2026-04-19T11:34:54.628Z</time></trkpt><trkpt lat="39.3824171" lon="-3.2528"><ele>634.0</ele><time>2026-04-19T11:34:55.626Z</time></trkpt><trkpt lat="39.3826073" lon="-3.2530252"><ele>634.0</ele><time>2026-04-19T11:34:56.631Z</time></trkpt><trkpt lat="39.3827843" lon="-3.2532414"><ele>634.0</ele><time>2026-04-19T11:34:57.62Z</time></trkpt><trkpt lat="39.3829429" lon="-3.2534472"><ele>634.0</ele><time>2026-04-19T11:34:58.626Z</time></trkpt><trkpt lat="39.3830802" lon="-3.2536296"><ele>634.0</ele><time>2026-04-19T11:34:59.629Z</time></trkpt><trkpt lat="39.383207" lon="-3.2537966"><ele>634.0</ele><time>2026-04-19T11:35:00.628Z</time></trkpt><trkpt lat="39.3833206" lon="-3.2539514"><ele>634.0</ele><time>2026-04-19T11:35:01.614Z</time></trkpt><trkpt lat="39.3834181" lon="-3.2540865"><ele>634.0</ele><time>2026-04-19T11:35:02.618Z</time></trkpt><trkpt lat="39.3834987" lon="-3.2542021"><ele>634.0</ele><time>2026-04-19T11:35:03.622Z</time></trkpt><trkpt lat="39.3835787" lon="-3.2542966"><ele>634.25</ele><time>2026-04-19T11:35:04.634Z</time></trkpt><trkpt lat="39.3836486" lon="-3.2543734"><ele>634.5</ele><time>2026-04-19T11:35:05.613Z</time></trkpt><trkpt lat="39.3837225" lon="-3.2544578"><ele>634.75</ele><time>2026-04-19T11:35:06.621Z</time></trkpt><trkpt lat="39.3838225" lon="-3.2545469"><ele>635.0</ele><time>2026-04-19T11:35:07.618Z</time></trkpt><trkpt lat="39.383938" lon="-3.2546524"><ele>635.0</ele><time>2026-04-19T11:35:08.62Z</time></trkpt><trkpt lat="39.3840512" lon="-3.2547672"><ele>635.0</ele><time>2026-04-19T11:35:09.62Z</time></trkpt><trkpt lat="39.3841638" lon="-3.2548881"><ele>635.0</ele><time>2026-04-19T11:35:10.622Z</time></trkpt><trkpt lat="39.3842621" lon="-3.2550103"><ele>635.0</ele><time>2026-04-19T11:35:11.629Z</time></trkpt><trkpt lat="39.3843433" lon="-3.2551306"><ele>635.5</ele><time>2026-04-19T11:35:12.62Z</time></trkpt><trkpt lat="39.3844045" lon="-3.2552546"><ele>636.0</ele><time>2026-04-19T11:35:13.626Z</time></trkpt><trkpt lat="39.3844523" lon="-3.2553944"><ele>636.5</ele><time>2026-04-19T11:35:14.621Z</time></trkpt><trkpt lat="39.3844891" lon="-3.2555526"><ele>637.0</ele><time>2026-04-19T11:35:15.614Z</time></trkpt><trkpt lat="39.3845107" lon="-3.2557165"><ele>637.6</ele><time>2026-04-19T11:35:16.621Z</time></trkpt><trkpt lat="39.3845153" lon="-3.2558646"><ele>638.2</ele><time>2026-04-19T11:35:17.615Z</time></trkpt><trkpt lat="39.3845156" lon="-3.2559917"><ele>638.8</ele><time>2026-04-19T11:35:18.615Z</time></trkpt><trkpt lat="39.384515" lon="-3.2560881"><ele>639.4</ele><time>2026-04-19T11:35:19.616Z</time></trkpt><trkpt lat="39.3845681" lon="-3.2561919"><ele>640.0</ele><time>2026-04-19T11:35:21.626Z</time></trkpt><trkpt lat="39.3846463" lon="-3.2561888"><ele>640.0</ele><time>2026-04-19T11:35:29.622Z</time></trkpt><trkpt lat="39.3846762" lon="-3.2560944"><ele>640.0</ele><time>2026-04-19T11:35:31.623Z</time></trkpt><trkpt lat="39.3846798" lon="-3.2560128"><ele>640.0</ele><time>2026-04-19T11:35:32.631Z</time></trkpt><trkpt lat="39.3846794" lon="-3.2558971"><ele>640.0</ele><time>2026-04-19T11:35:33.619Z</time></trkpt><trkpt lat="39.3846732" lon="-3.2557657"><ele>640.0</ele><time>2026-04-19T11:35:34.615Z</time></trkpt><trkpt lat="39.3846622" lon="-3.2556071"><ele>639.5</ele><time>2026-04-19T11:35:35.626Z</time></trkpt><trkpt lat="39.3846605" lon="-3.2554335"><ele>639.0</ele><time>2026-04-19T11:35:36.628Z</time></trkpt><trkpt lat="39.3846764" lon="-3.2552414"><ele>638.5</ele><time>2026-04-19T11:35:37.622Z</time></trkpt><trkpt lat="39.3846963" lon="-3.2550446"><ele>638.0</ele><time>2026-04-19T11:35:38.622Z</time></trkpt><trkpt lat="39.3847446" lon="-3.254864"><ele>637.75</ele><time>2026-04-19T11:35:39.63Z</time></trkpt><trkpt lat="39.3848332" lon="-3.2547009"><ele>637.5</ele><time>2026-04-19T11:35:40.624Z</time></trkpt><trkpt lat="39.3849114" lon="-3.2545665"><ele>637.25</ele><time>2026-04-19T11:35:41.626Z</time></trkpt><trkpt lat="39.3849965" lon="-3.2544615"><ele>637.0</ele><time>2026-04-19T11:35:42.626Z</time></trkpt><trkpt lat="39.385097" lon="-3.2544042"><ele>637.0</ele><time>2026-04-19T11:35:43.626Z</time></trkpt><trkpt lat="39.3852006" lon="-3.2543949"><ele>637.0</ele><time>2026-04-19T11:35:44.618Z</time></trkpt><trkpt lat="39.3853007" lon="-3.2544308"><ele>637.0</ele><time>2026-04-19T11:35:45.618Z</time></trkpt><trkpt lat="39.3853944" lon="-3.254505"><ele>637.0</ele><time>2026-04-19T11:35:46.625Z</time></trkpt><trkpt lat="39.3854718" lon="-3.2546026"><ele>637.0</ele><time>2026-04-19T11:35:47.621Z</time></trkpt><trkpt lat="39.3855298" lon="-3.2547275"><ele>637.0</ele><time>2026-04-19T11:35:48.618Z</time></trkpt><trkpt lat="39.3855673" lon="-3.2548721"><ele>637.0</ele><time>2026-04-19T11:35:49.619Z</time></trkpt><trkpt lat="39.3855888" lon="-3.2550297"><ele>637.0</ele><time>2026-04-19T11:35:50.619Z</time></trkpt><trkpt lat="39.3856023" lon="-3.255194"><ele>637.0</ele><time>2026-04-19T11:35:51.626Z</time></trkpt><trkpt lat="39.3856066" lon="-3.2553621"><ele>637.0</ele><time>2026-04-19T11:35:52.616Z</time></trkpt><trkpt lat="39.3855991" lon="-3.2555292"><ele>637.0</ele><time>2026-04-19T11:35:53.62Z</time></trkpt><trkpt lat="39.3855868" lon="-3.2556898"><ele>637.0</ele><time>2026-04-19T11:35:54.618Z</time></trkpt><trkpt lat="39.3855408" lon="-3.2558575"><ele>637.0</ele><time>2026-04-19T11:35:55.614Z</time></trkpt><trkpt lat="39.3854854" lon="-3.2560058"><ele>637.4</ele><time>2026-04-19T11:35:56.617Z</time></trkpt><trkpt lat="39.3854017" lon="-3.2561257"><ele>637.8000000000001</ele><time>2026-04-19T11:35:57.625Z</time></trkpt><trkpt lat="39.3853199" lon="-3.2562257"><ele>638.2</ele><time>2026-04-19T11:35:58.621Z</time></trkpt><trkpt lat="39.385242" lon="-3.2563088"><ele>638.6</ele><time>2026-04-19T11:35:59.615Z</time></trkpt><trkpt lat="39.3851673" lon="-3.256401"><ele>639.0</ele><time>2026-04-19T11:36:00.618Z</time></trkpt><trkpt lat="39.3851119" lon="-3.2565005"><ele>639.5</ele><time>2026-04-19T11:36:01.624Z</time></trkpt><trkpt lat="39.3850735" lon="-3.2565989"><ele>640.0</ele><time>2026-04-19T11:36:02.625Z</time></trkpt><trkpt lat="39.385049" lon="-3.2566951"><ele>640.5</ele><time>2026-04-19T11:36:03.63Z</time></trkpt><trkpt lat="39.3850369" lon="-3.2567891"><ele>641.0</ele><time>2026-04-19T11:36:04.618Z</time></trkpt><trkpt lat="39.3850333" lon="-3.2568774"><ele>641.5</ele><time>2026-04-19T11:36:05.633Z</time></trkpt><trkpt lat="39.3850619" lon="-3.2569789"><ele>642.0</ele><time>2026-04-19T11:36:07.626Z</time></trkpt><trkpt lat="39.3851289" lon="-3.2570502"><ele>642.0</ele><time>2026-04-19T11:36:10.626Z</time></trkpt><trkpt lat="39.3851257" lon="-3.257175"><ele>642.0</ele><time>2026-04-19T11:36:12.628Z</time></trkpt><trkpt lat="39.3851086" lon="-3.2572667"><ele>642.0</ele><time>2026-04-19T11:36:13.627Z</time></trkpt><trkpt lat="39.3850952" lon="-3.257371"><ele>642.0</ele><time>2026-04-19T11:36:14.621Z</time></trkpt><trkpt lat="39.3850873" lon="-3.2574653"><ele>642.0</ele><time>2026-04-19T11:36:15.623Z</time></trkpt><trkpt lat="39.3850797" lon="-3.2575488"><ele>642.0</ele><time>2026-04-19T11:36:16.616Z</time></trkpt><trkpt lat="39.3850687" lon="-3.2576911"><ele>642.4000000000001</ele><time>2026-04-19T11:36:18.621Z</time></trkpt><trkpt lat="39.385056" lon="-3.2578052"><ele>642.8000000000001</ele><time>2026-04-19T11:36:20.639Z</time></trkpt><trkpt lat="39.3850444" lon="-3.2579805"><ele>643.2</ele><time>2026-04-19T11:36:22.632Z</time></trkpt><trkpt lat="39.3850348" lon="-3.2580964"><ele>643.6</ele><time>2026-04-19T11:36:23.623Z</time></trkpt><trkpt lat="39.3850177" lon="-3.2582072"><ele>644.0</ele><time>2026-04-19T11:36:24.622Z</time></trkpt><trkpt lat="39.3849944" lon="-3.2582934"><ele>644.0</ele><time>2026-04-19T11:36:25.619Z</time></trkpt><trkpt lat="39.3849764" lon="-3.2583733"><ele>644.0</ele><time>2026-04-19T11:36:26.62Z</time></trkpt><trkpt lat="39.384994" lon="-3.2585598"><ele>644.0</ele><time>2026-04-19T11:36:28.626Z</time></trkpt><trkpt lat="39.3850036" lon="-3.2587047"><ele>644.0</ele><time>2026-04-19T11:36:29.621Z</time></trkpt><trkpt lat="39.3850022" lon="-3.2588579"><ele>644.0</ele><time>2026-04-19T11:36:30.621Z</time></trkpt><trkpt lat="39.3849922" lon="-3.2589953"><ele>644.25</ele><time>2026-04-19T11:36:31.616Z</time></trkpt><trkpt lat="39.3849783" lon="-3.2591273"><ele>644.5</ele><time>2026-04-19T11:36:32.62Z</time></trkpt><trkpt lat="39.3849646" lon="-3.2592749"><ele>644.75</ele><time>2026-04-19T11:36:33.622Z</time></trkpt><trkpt lat="39.384944" lon="-3.2594479"><ele>645.0</ele><time>2026-04-19T11:36:34.624Z</time></trkpt><trkpt lat="39.3849271" lon="-3.2596466"><ele>645.3333333333334</ele><time>2026-04-19T11:36:35.62Z</time></trkpt><trkpt lat="39.3848899" lon="-3.259872"><ele>645.6666666666667</ele><time>2026-04-19T11:36:36.623Z</time></trkpt><trkpt lat="39.3848677" lon="-3.2601182"><ele>646.0</ele><time>2026-04-19T11:36:37.625Z</time></trkpt><trkpt lat="39.3848431" lon="-3.2603801"><ele>647.0</ele><time>2026-04-19T11:36:38.629Z</time></trkpt><trkpt lat="39.3848213" lon="-3.2606508"><ele>648.0</ele><time>2026-04-19T11:36:39.625Z</time></trkpt><trkpt lat="39.384799" lon="-3.260933"><ele>649.0</ele><time>2026-04-19T11:36:40.623Z</time></trkpt><trkpt lat="39.3847766" lon="-3.2611901"><ele>649.0</ele><time>2026-04-19T11:36:41.622Z</time></trkpt><trkpt lat="39.3847583" lon="-3.2614127"><ele>649.0</ele><time>2026-04-19T11:36:42.625Z</time></trkpt><trkpt lat="39.3847482" lon="-3.2615973"><ele>649.0</ele><time>2026-04-19T11:36:43.623Z</time></trkpt><trkpt lat="39.3847438" lon="-3.2617625"><ele>649.0</ele><time>2026-04-19T11:36:44.617Z</time></trkpt><trkpt lat="39.3847461" lon="-3.2618987"><ele>649.2</ele><time>2026-04-19T11:36:45.644Z</time></trkpt><trkpt lat="39.384741" lon="-3.2620019"><ele>649.4000000000001</ele><time>2026-04-19T11:36:46.623Z</time></trkpt><trkpt lat="39.3847081" lon="-3.2621244"><ele>649.6</ele><time>2026-04-19T11:36:48.616Z</time></trkpt><trkpt lat="39.3845995" lon="-3.2621991"><ele>649.8</ele><time>2026-04-19T11:37:00.634Z</time></trkpt><trkpt lat="39.3845665" lon="-3.2623644"><ele>650.0</ele><time>2026-04-19T11:37:02.632Z</time></trkpt><trkpt lat="39.3845586" lon="-3.2624897"><ele>651.0</ele><time>2026-04-19T11:37:03.628Z</time></trkpt><trkpt lat="39.3845482" lon="-3.2626335"><ele>652.0</ele><time>2026-04-19T11:37:04.641Z</time></trkpt><trkpt lat="39.3845318" lon="-3.2627989"><ele>653.0</ele><time>2026-04-19T11:37:05.62Z</time></trkpt><trkpt lat="39.3845162" lon="-3.2629828"><ele>654.0</ele><time>2026-04-19T11:37:06.639Z</time></trkpt><trkpt lat="39.3844989" lon="-3.2631929"><ele>654.0</ele><time>2026-04-19T11:37:07.643Z</time></trkpt><trkpt lat="39.3844551" lon="-3.2636596"><ele>654.0</ele><time>2026-04-19T11:37:09.62Z</time></trkpt><trkpt lat="39.3844305" lon="-3.263919"><ele>655.3333333333334</ele><time>2026-04-19T11:37:10.614Z</time></trkpt><trkpt lat="39.384404" lon="-3.264187"><ele>656.6666666666667</ele><time>2026-04-19T11:37:11.622Z</time></trkpt><trkpt lat="39.3843766" lon="-3.2644702"><ele>658.0</ele><time>2026-04-19T11:37:12.622Z</time></trkpt><trkpt lat="39.3843499" lon="-3.2647747"><ele>659.0</ele><time>2026-04-19T11:37:13.625Z</time></trkpt><trkpt lat="39.3843239" lon="-3.2650874"><ele>660.0</ele><time>2026-04-19T11:37:14.624Z</time></trkpt><trkpt lat="39.3842969" lon="-3.2654009"><ele>661.0</ele><time>2026-04-19T11:37:15.625Z</time></trkpt><trkpt lat="39.38427" lon="-3.2657275"><ele>662.0</ele><time>2026-04-19T11:37:16.619Z</time></trkpt><trkpt lat="39.3842424" lon="-3.2660567"><ele>662.0</ele><time>2026-04-19T11:37:17.617Z</time></trkpt><trkpt lat="39.3842124" lon="-3.2663868"><ele>662.0</ele><time>2026-04-19T11:37:18.626Z</time></trkpt><trkpt lat="39.3841807" lon="-3.2667154"><ele>663.0</ele><time>2026-04-19T11:37:19.616Z</time></trkpt><trkpt lat="39.3841505" lon="-3.2670389"><ele>664.0</ele><time>2026-04-19T11:37:20.618Z</time></trkpt><trkpt lat="39.3841218" lon="-3.267361"><ele>664.0</ele><time>2026-04-19T11:37:21.622Z</time></trkpt><trkpt lat="39.3840933" lon="-3.2676816"><ele>664.0</ele><time>2026-04-19T11:37:22.618Z</time></trkpt><trkpt lat="39.3840652" lon="-3.2680014"><ele>664.5</ele><time>2026-04-19T11:37:23.618Z</time></trkpt><trkpt lat="39.3840366" lon="-3.2683209"><ele>665.0</ele><time>2026-04-19T11:37:24.616Z</time></trkpt><trkpt lat="39.3840091" lon="-3.2686406"><ele>665.5</ele><time>2026-04-19T11:37:25.621Z</time></trkpt><trkpt lat="39.3839821" lon="-3.2689603"><ele>666.0</ele><time>2026-04-19T11:37:26.613Z</time></trkpt><trkpt lat="39.383956" lon="-3.2692794"><ele>666.0</ele><time>2026-04-19T11:37:27.62Z</time></trkpt><trkpt lat="39.3839301" lon="-3.2695919"><ele>666.0</ele><time>2026-04-19T11:37:28.618Z</time></trkpt><trkpt lat="39.383906" lon="-3.2699113"><ele>666.0</ele><time>2026-04-19T11:37:29.629Z</time></trkpt><trkpt lat="39.3838795" lon="-3.2702339"><ele>666.0</ele><time>2026-04-19T11:37:30.613Z</time></trkpt><trkpt lat="39.3838506" lon="-3.2705607"><ele>666.0</ele><time>2026-04-19T11:37:31.611Z</time></trkpt><trkpt lat="39.3838226" lon="-3.2708782"><ele>666.0</ele><time>2026-04-19T11:37:32.616Z</time></trkpt><trkpt lat="39.3837961" lon="-3.2711926"><ele>667.0</ele><time>2026-04-19T11:37:33.629Z</time></trkpt><trkpt lat="39.3837704" lon="-3.2715077"><ele>668.0</ele><time>2026-04-19T11:37:34.625Z</time></trkpt><trkpt lat="39.3837432" lon="-3.2718195"><ele>668.0</ele><time>2026-04-19T11:37:35.613Z</time></trkpt><trkpt lat="39.3837132" lon="-3.2721348"><ele>668.0</ele><time>2026-04-19T11:37:36.616Z</time></trkpt><trkpt lat="39.3836841" lon="-3.2724512"><ele>668.0</ele><time>2026-04-19T11:37:37.618Z</time></trkpt><trkpt lat="39.3836524" lon="-3.2727715"><ele>668.0</ele><time>2026-04-19T11:37:38.63Z</time></trkpt><trkpt lat="39.3836244" lon="-3.2730946"><ele>667.5</ele><time>2026-04-19T11:37:39.615Z</time></trkpt><trkpt lat="39.3835982" lon="-3.2734171"><ele>667.0</ele><time>2026-04-19T11:37:40.621Z</time></trkpt><trkpt lat="39.3835702" lon="-3.2737397"><ele>666.5</ele><time>2026-04-19T11:37:41.623Z</time></trkpt><trkpt lat="39.3835402" lon="-3.2740618"><ele>666.0</ele><time>2026-04-19T11:37:42.615Z</time></trkpt><trkpt lat="39.383511" lon="-3.2743822"><ele>666.0</ele><time>2026-04-19T11:37:43.62Z</time></trkpt><trkpt lat="39.3834821" lon="-3.2746999"><ele>666.0</ele><time>2026-04-19T11:37:44.618Z</time></trkpt><trkpt lat="39.3834518" lon="-3.2750101"><ele>664.5</ele><time>2026-04-19T11:37:45.624Z</time></trkpt><trkpt lat="39.3834218" lon="-3.2753158"><ele>663.0</ele><time>2026-04-19T11:37:46.631Z</time></trkpt><trkpt lat="39.383392" lon="-3.275619"><ele>661.5</ele><time>2026-04-19T11:37:47.628Z</time></trkpt><trkpt lat="39.3833648" lon="-3.2759182"><ele>660.0</ele><time>2026-04-19T11:37:48.621Z</time></trkpt><trkpt lat="39.3833377" lon="-3.2762165"><ele>659.0</ele><time>2026-04-19T11:37:49.615Z</time></trkpt><trkpt lat="39.3833116" lon="-3.2765162"><ele>658.0</ele><time>2026-04-19T11:37:50.622Z</time></trkpt><trkpt lat="39.3832859" lon="-3.2768161"><ele>658.0</ele><time>2026-04-19T11:37:51.63Z</time></trkpt><trkpt lat="39.3832607" lon="-3.277113"><ele>658.0</ele><time>2026-04-19T11:37:52.621Z</time></trkpt><trkpt lat="39.3832349" lon="-3.2774099"><ele>656.5</ele><time>2026-04-19T11:37:53.622Z</time></trkpt><trkpt lat="39.3832086" lon="-3.2777087"><ele>655.0</ele><time>2026-04-19T11:37:54.63Z</time></trkpt><trkpt lat="39.3831818" lon="-3.2780087"><ele>653.0</ele><time>2026-04-19T11:37:55.621Z</time></trkpt><trkpt lat="39.3831541" lon="-3.2783109"><ele>651.0</ele><time>2026-04-19T11:37:56.624Z</time></trkpt><trkpt lat="39.3831265" lon="-3.2786158"><ele>651.0</ele><time>2026-04-19T11:37:57.617Z</time></trkpt><trkpt lat="39.3830979" lon="-3.2789219"><ele>651.0</ele><time>2026-04-19T11:37:58.629Z</time></trkpt><trkpt lat="39.3830703" lon="-3.2792295"><ele>651.0</ele><time>2026-04-19T11:37:59.624Z</time></trkpt><trkpt lat="39.3830421" lon="-3.2795388"><ele>651.0</ele><time>2026-04-19T11:38:00.619Z</time></trkpt><trkpt lat="39.3830144" lon="-3.2798503"><ele>650.0</ele><time>2026-04-19T11:38:01.622Z</time></trkpt><trkpt lat="39.3829865" lon="-3.2801638"><ele>649.0</ele><time>2026-04-19T11:38:02.627Z</time></trkpt><trkpt lat="39.3829583" lon="-3.2804731"><ele>648.0</ele><time>2026-04-19T11:38:03.622Z</time></trkpt><trkpt lat="39.3829312" lon="-3.2807668"><ele>647.0</ele><time>2026-04-19T11:38:04.619Z</time></trkpt><trkpt lat="39.3829086" lon="-3.2810273"><ele>646.0</ele><time>2026-04-19T11:38:05.62Z</time></trkpt><trkpt lat="39.3828959" lon="-3.2812459"><ele>646.0</ele><time>2026-04-19T11:38:06.617Z</time></trkpt><trkpt lat="39.3828986" lon="-3.2814337"><ele>646.0</ele><time>2026-04-19T11:38:07.617Z</time></trkpt><trkpt lat="39.3829304" lon="-3.2816363"><ele>646.0</ele><time>2026-04-19T11:38:08.62Z</time></trkpt><trkpt lat="39.382977" lon="-3.2818421"><ele>645.3333333333334</ele><time>2026-04-19T11:38:09.626Z</time></trkpt><trkpt lat="39.3830761" lon="-3.2820796"><ele>644.6666666666666</ele><time>2026-04-19T11:38:10.622Z</time></trkpt><trkpt lat="39.3831968" lon="-3.2823416"><ele>644.0</ele><time>2026-04-19T11:38:11.619Z</time></trkpt><trkpt lat="39.3833388" lon="-3.2826267"><ele>643.6666666666666</ele><time>2026-04-19T11:38:12.624Z</time></trkpt><trkpt lat="39.3834496" lon="-3.282889"><ele>643.3333333333334</ele><time>2026-04-19T11:38:13.624Z</time></trkpt><trkpt lat="39.3835375" lon="-3.2831152"><ele>643.0</ele><time>2026-04-19T11:38:14.621Z</time></trkpt><trkpt lat="39.3836155" lon="-3.2833301"><ele>643.0</ele><time>2026-04-19T11:38:15.62Z</time></trkpt><trkpt lat="39.383701" lon="-3.2835359"><ele>643.0</ele><time>2026-04-19T11:38:16.618Z</time></trkpt><trkpt lat="39.3838057" lon="-3.2837635"><ele>643.0</ele><time>2026-04-19T11:38:17.618Z</time></trkpt><trkpt lat="39.3839203" lon="-3.2839852"><ele>643.3333333333334</ele><time>2026-04-19T11:38:18.616Z</time></trkpt><trkpt lat="39.384028" lon="-3.2841819"><ele>643.6666666666666</ele><time>2026-04-19T11:38:19.627Z</time></trkpt><trkpt lat="39.3841378" lon="-3.2843773"><ele>644.0</ele><time>2026-04-19T11:38:20.624Z</time></trkpt><trkpt lat="39.3842481" lon="-3.2845729"><ele>643.0</ele><time>2026-04-19T11:38:21.615Z</time></trkpt><trkpt lat="39.3843504" lon="-3.2847874"><ele>642.0</ele><time>2026-04-19T11:38:22.615Z</time></trkpt><trkpt lat="39.3844475" lon="-3.28499"><ele>641.0</ele><time>2026-04-19T11:38:23.617Z</time></trkpt><trkpt lat="39.3845388" lon="-3.2851958"><ele>641.0</ele><time>2026-04-19T11:38:24.631Z</time></trkpt><trkpt lat="39.384634" lon="-3.2854109"><ele>641.0</ele><time>2026-04-19T11:38:25.62Z</time></trkpt><trkpt lat="39.3847191" lon="-3.2856348"><ele>641.0</ele><time>2026-04-19T11:38:26.619Z</time></trkpt><trkpt lat="39.3847907" lon="-3.2858547"><ele>640.3333333333333</ele><time>2026-04-19T11:38:27.621Z</time></trkpt><trkpt lat="39.3848604" lon="-3.2860748"><ele>639.6666666666666</ele><time>2026-04-19T11:38:28.621Z</time></trkpt><trkpt lat="39.3849254" lon="-3.2862999"><ele>639.0</ele><time>2026-04-19T11:38:29.62Z</time></trkpt><trkpt lat="39.3849846" lon="-3.2864957"><ele>639.0</ele><time>2026-04-19T11:38:30.609Z</time></trkpt><trkpt lat="39.3850355" lon="-3.2866668"><ele>639.0</ele><time>2026-04-19T11:38:31.616Z</time></trkpt><trkpt lat="39.3850712" lon="-3.2868202"><ele>639.0</ele><time>2026-04-19T11:38:32.616Z</time></trkpt><trkpt lat="39.3850981" lon="-3.2869737"><ele>639.0</ele><time>2026-04-19T11:38:33.619Z</time></trkpt><trkpt lat="39.3851176" lon="-3.2871426"><ele>638.5</ele><time>2026-04-19T11:38:34.616Z</time></trkpt><trkpt lat="39.385133" lon="-3.2873182"><ele>638.0</ele><time>2026-04-19T11:38:35.618Z</time></trkpt><trkpt lat="39.3851604" lon="-3.2874743"><ele>637.5</ele><time>2026-04-19T11:38:36.617Z</time></trkpt><trkpt lat="39.3852121" lon="-3.2876279"><ele>637.0</ele><time>2026-04-19T11:38:37.621Z</time></trkpt><trkpt lat="39.3852873" lon="-3.2877956"><ele>637.0</ele><time>2026-04-19T11:38:38.617Z</time></trkpt><trkpt lat="39.3853748" lon="-3.2879873"><ele>637.0</ele><time>2026-04-19T11:38:39.615Z</time></trkpt><trkpt lat="39.385455" lon="-3.2882146"><ele>637.0</ele><time>2026-04-19T11:38:40.618Z</time></trkpt><trkpt lat="39.3855432" lon="-3.2884826"><ele>636.5</ele><time>2026-04-19T11:38:41.619Z</time></trkpt><trkpt lat="39.3856351" lon="-3.2887676"><ele>636.0</ele><time>2026-04-19T11:38:42.613Z</time></trkpt><trkpt lat="39.3857269" lon="-3.2890303"><ele>635.6666666666666</ele><time>2026-04-19T11:38:43.615Z</time></trkpt><trkpt lat="39.3858064" lon="-3.2892719"><ele>635.3333333333333</ele><time>2026-04-19T11:38:44.614Z</time></trkpt><trkpt lat="39.385873" lon="-3.2895033"><ele>635.0</ele><time>2026-04-19T11:38:45.615Z</time></trkpt><trkpt lat="39.3859217" lon="-3.2897206"><ele>635.25</ele><time>2026-04-19T11:38:46.62Z</time></trkpt><trkpt lat="39.3859558" lon="-3.2899139"><ele>635.5</ele><time>2026-04-19T11:38:47.62Z</time></trkpt><trkpt lat="39.3859785" lon="-3.2900887"><ele>635.75</ele><time>2026-04-19T11:38:48.616Z</time></trkpt><trkpt lat="39.3859823" lon="-3.2902412"><ele>636.0</ele><time>2026-04-19T11:38:49.618Z</time></trkpt><trkpt lat="39.3859713" lon="-3.2903674"><ele>636.0</ele><time>2026-04-19T11:38:50.615Z</time></trkpt><trkpt lat="39.3859506" lon="-3.290495"><ele>636.0</ele><time>2026-04-19T11:38:51.618Z</time></trkpt><trkpt lat="39.3859027" lon="-3.2906539"><ele>636.0</ele><time>2026-04-19T11:38:52.616Z</time></trkpt><trkpt lat="39.3858346" lon="-3.2908373"><ele>636.0</ele><time>2026-04-19T11:38:53.621Z</time></trkpt><trkpt lat="39.3857533" lon="-3.2910421"><ele>636.0</ele><time>2026-04-19T11:38:54.618Z</time></trkpt><trkpt lat="39.3856706" lon="-3.2912375"><ele>636.0</ele><time>2026-04-19T11:38:55.613Z</time></trkpt><trkpt lat="39.3856044" lon="-3.2914092"><ele>636.0</ele><time>2026-04-19T11:38:56.621Z</time></trkpt><trkpt lat="39.3855587" lon="-3.2915661"><ele>636.0</ele><time>2026-04-19T11:38:57.62Z</time></trkpt><trkpt lat="39.385539" lon="-3.2917141"><ele>636.0</ele><time>2026-04-19T11:38:58.623Z</time></trkpt><trkpt lat="39.3855392" lon="-3.2918735"><ele>636.0</ele><time>2026-04-19T11:38:59.623Z</time></trkpt><trkpt lat="39.3855572" lon="-3.2920456"><ele>636.0</ele><time>2026-04-19T11:39:00.614Z</time></trkpt><trkpt lat="39.3855884" lon="-3.2922473"><ele>635.3333333333334</ele><time>2026-04-19T11:39:01.621Z</time></trkpt><trkpt lat="39.3856298" lon="-3.292481"><ele>634.6666666666667</ele><time>2026-04-19T11:39:02.613Z</time></trkpt><trkpt lat="39.3856756" lon="-3.2927103"><ele>634.0</ele><time>2026-04-19T11:39:03.621Z</time></trkpt><trkpt lat="39.3857142" lon="-3.2929243"><ele>633.6666666666667</ele><time>2026-04-19T11:39:04.624Z</time></trkpt><trkpt lat="39.385742" lon="-3.2931423"><ele>633.3333333333334</ele><time>2026-04-19T11:39:05.621Z</time></trkpt><trkpt lat="39.3857679" lon="-3.293369"><ele>633.0</ele><time>2026-04-19T11:39:06.621Z</time></trkpt><trkpt lat="39.3857927" lon="-3.2935854"><ele>633.0</ele><time>2026-04-19T11:39:07.624Z</time></trkpt><trkpt lat="39.3858121" lon="-3.2937864"><ele>633.0</ele><time>2026-04-19T11:39:08.628Z</time></trkpt><trkpt lat="39.385825" lon="-3.2939608"><ele>633.0</ele><time>2026-04-19T11:39:09.617Z</time></trkpt><trkpt lat="39.3858478" lon="-3.2941283"><ele>633.0</ele><time>2026-04-19T11:39:10.627Z</time></trkpt><trkpt lat="39.3858899" lon="-3.2943224"><ele>633.0</ele><time>2026-04-19T11:39:11.623Z</time></trkpt><trkpt lat="39.38595" lon="-3.2945454"><ele>633.0</ele><time>2026-04-19T11:39:12.622Z</time></trkpt><trkpt lat="39.3860208" lon="-3.2947847"><ele>633.0</ele><time>2026-04-19T11:39:13.623Z</time></trkpt><trkpt lat="39.3860852" lon="-3.2950116"><ele>633.0</ele><time>2026-04-19T11:39:14.623Z</time></trkpt><trkpt lat="39.386147" lon="-3.2952296"><ele>633.0</ele><time>2026-04-19T11:39:15.626Z</time></trkpt><trkpt lat="39.3862086" lon="-3.2954296"><ele>633.0</ele><time>2026-04-19T11:39:16.621Z</time></trkpt><trkpt lat="39.3862673" lon="-3.2956023"><ele>633.3333333333334</ele><time>2026-04-19T11:39:17.619Z</time></trkpt><trkpt lat="39.3863177" lon="-3.2957464"><ele>633.6666666666666</ele><time>2026-04-19T11:39:18.627Z</time></trkpt><trkpt lat="39.3863622" lon="-3.2958626"><ele>634.0</ele><time>2026-04-19T11:39:19.62Z</time></trkpt><trkpt lat="39.3864027" lon="-3.2959385"><ele>634.3333333333333</ele><time>2026-04-19T11:39:20.616Z</time></trkpt><trkpt lat="39.386477" lon="-3.2959752"><ele>634.6666666666666</ele><time>2026-04-19T11:39:22.621Z</time></trkpt><trkpt lat="39.3865243" lon="-3.2959099"><ele>635.0</ele><time>2026-04-19T11:39:24.63Z</time></trkpt><trkpt lat="39.3865589" lon="-3.2958251"><ele>635.0</ele><time>2026-04-19T11:39:26.619Z</time></trkpt><trkpt lat="39.3865891" lon="-3.2957223"><ele>635.0</ele><time>2026-04-19T11:39:41.628Z</time></trkpt><trkpt lat="39.3866557" lon="-3.2957241"><ele>635.0</ele><time>2026-04-19T11:39:43.618Z</time></trkpt><trkpt lat="39.3867242" lon="-3.2957494"><ele>635.0</ele><time>2026-04-19T11:39:44.619Z</time></trkpt><trkpt lat="39.3868215" lon="-3.2957643"><ele>635.0</ele><time>2026-04-19T11:39:45.625Z</time></trkpt><trkpt lat="39.3869433" lon="-3.2957507"><ele>635.0</ele><time>2026-04-19T11:39:46.622Z</time></trkpt><trkpt lat="39.387092" lon="-3.2957094"><ele>635.3333333333333</ele><time>2026-04-19T11:39:47.614Z</time></trkpt><trkpt lat="39.3872651" lon="-3.2956571"><ele>635.6666666666666</ele><time>2026-04-19T11:39:48.616Z</time></trkpt><trkpt lat="39.3874371" lon="-3.2956214"><ele>636.0</ele><time>2026-04-19T11:39:49.618Z</time></trkpt><trkpt lat="39.3875985" lon="-3.2956037"><ele>636.0</ele><time>2026-04-19T11:39:50.62Z</time></trkpt><trkpt lat="39.3877472" lon="-3.2955932"><ele>636.0</ele><time>2026-04-19T11:39:51.623Z</time></trkpt><trkpt lat="39.3878977" lon="-3.2955892"><ele>636.0</ele><time>2026-04-19T11:39:52.617Z</time></trkpt><trkpt lat="39.3880406" lon="-3.2955969"><ele>636.0</ele><time>2026-04-19T11:39:53.611Z</time></trkpt><trkpt lat="39.3881773" lon="-3.2956398"><ele>635.3333333333334</ele><time>2026-04-19T11:39:54.615Z</time></trkpt><trkpt lat="39.3883327" lon="-3.2957189"><ele>634.6666666666667</ele><time>2026-04-19T11:39:55.612Z</time></trkpt><trkpt lat="39.3885179" lon="-3.295838"><ele>634.0</ele><time>2026-04-19T11:39:56.618Z</time></trkpt><trkpt lat="39.3887224" lon="-3.2959788"><ele>634.5</ele><time>2026-04-19T11:39:57.614Z</time></trkpt><trkpt lat="39.3889474" lon="-3.2961339"><ele>635.0</ele><time>2026-04-19T11:39:58.611Z</time></trkpt><trkpt lat="39.3891668" lon="-3.2962851"><ele>634.6666666666666</ele><time>2026-04-19T11:39:59.611Z</time></trkpt><trkpt lat="39.3893621" lon="-3.2964204"><ele>634.3333333333334</ele><time>2026-04-19T11:40:00.62Z</time></trkpt><trkpt lat="39.3895305" lon="-3.2965488"><ele>634.0</ele><time>2026-04-19T11:40:01.618Z</time></trkpt><trkpt lat="39.3896895" lon="-3.2966656"><ele>633.0</ele><time>2026-04-19T11:40:02.619Z</time></trkpt><trkpt lat="39.3898636" lon="-3.2967764"><ele>632.0</ele><time>2026-04-19T11:40:03.616Z</time></trkpt><trkpt lat="39.3900223" lon="-3.2968702"><ele>631.0</ele><time>2026-04-19T11:40:04.615Z</time></trkpt><trkpt lat="39.3901623" lon="-3.2969552"><ele>631.0</ele><time>2026-04-19T11:40:05.619Z</time></trkpt><trkpt lat="39.3903085" lon="-3.2970538"><ele>631.0</ele><time>2026-04-19T11:40:06.618Z</time></trkpt><trkpt lat="39.3904709" lon="-3.2971468"><ele>631.0</ele><time>2026-04-19T11:40:07.623Z</time></trkpt><trkpt lat="39.3906649" lon="-3.2972295"><ele>632.5</ele><time>2026-04-19T11:40:08.614Z</time></trkpt><trkpt lat="39.3908805" lon="-3.2973055"><ele>634.0</ele><time>2026-04-19T11:40:09.62Z</time></trkpt><trkpt lat="39.3911023" lon="-3.2973764"><ele>634.0</ele><time>2026-04-19T11:40:10.613Z</time></trkpt><trkpt lat="39.3913178" lon="-3.2974372"><ele>634.0</ele><time>2026-04-19T11:40:11.615Z</time></trkpt><trkpt lat="39.3915354" lon="-3.2974942"><ele>634.0</ele><time>2026-04-19T11:40:12.622Z</time></trkpt><trkpt lat="39.3917359" lon="-3.2975481"><ele>634.0</ele><time>2026-04-19T11:40:13.61Z</time></trkpt><trkpt lat="39.3919236" lon="-3.2975959"><ele>634.0</ele><time>2026-04-19T11:40:14.62Z</time></trkpt><trkpt lat="39.3921194" lon="-3.2976739"><ele>634.0</ele><time>2026-04-19T11:40:15.616Z</time></trkpt><trkpt lat="39.3923398" lon="-3.2977691"><ele>634.5</ele><time>2026-04-19T11:40:16.616Z</time></trkpt><trkpt lat="39.3925837" lon="-3.2978552"><ele>635.0</ele><time>2026-04-19T11:40:17.626Z</time></trkpt><trkpt lat="39.3928196" lon="-3.2979298"><ele>634.3333333333333</ele><time>2026-04-19T11:40:18.623Z</time></trkpt><trkpt lat="39.3930432" lon="-3.2979884"><ele>633.6666666666666</ele><time>2026-04-19T11:40:19.623Z</time></trkpt><trkpt lat="39.3932511" lon="-3.2980395"><ele>633.0</ele><time>2026-04-19T11:40:20.616Z</time></trkpt><trkpt lat="39.3934467" lon="-3.2980843"><ele>633.6666666666666</ele><time>2026-04-19T11:40:21.621Z</time></trkpt><trkpt lat="39.3936288" lon="-3.2981307"><ele>634.3333333333333</ele><time>2026-04-19T11:40:22.619Z</time></trkpt><trkpt lat="39.3938089" lon="-3.2981876"><ele>635.0</ele><time>2026-04-19T11:40:23.626Z</time></trkpt><trkpt lat="39.3939989" lon="-3.2982577"><ele>635.0</ele><time>2026-04-19T11:40:24.618Z</time></trkpt><trkpt lat="39.3942086" lon="-3.2983338"><ele>635.0</ele><time>2026-04-19T11:40:25.633Z</time></trkpt><trkpt lat="39.3944359" lon="-3.2984183"><ele>635.5</ele><time>2026-04-19T11:40:26.632Z</time></trkpt><trkpt lat="39.3946753" lon="-3.2985214"><ele>636.0</ele><time>2026-04-19T11:40:27.628Z</time></trkpt><trkpt lat="39.394906" lon="-3.2986163"><ele>636.0</ele><time>2026-04-19T11:40:28.618Z</time></trkpt><trkpt lat="39.3951161" lon="-3.2987117"><ele>636.0</ele><time>2026-04-19T11:40:29.619Z</time></trkpt><trkpt lat="39.3953419" lon="-3.2988205"><ele>634.5</ele><time>2026-04-19T11:40:30.617Z</time></trkpt><trkpt lat="39.395581" lon="-3.2989306"><ele>633.0</ele><time>2026-04-19T11:40:31.619Z</time></trkpt><trkpt lat="39.3957994" lon="-3.2990165"><ele>633.0</ele><time>2026-04-19T11:40:32.62Z</time></trkpt><trkpt lat="39.3959936" lon="-3.2990935"><ele>633.0</ele><time>2026-04-19T11:40:33.617Z</time></trkpt><trkpt lat="39.3961706" lon="-3.2991709"><ele>633.0</ele><time>2026-04-19T11:40:34.614Z</time></trkpt><trkpt lat="39.3963561" lon="-3.2992693"><ele>633.6666666666666</ele><time>2026-04-19T11:40:35.616Z</time></trkpt><trkpt lat="39.3965377" lon="-3.2993774"><ele>634.3333333333333</ele><time>2026-04-19T11:40:36.625Z</time></trkpt><trkpt lat="39.3967046" lon="-3.2994627"><ele>635.0</ele><time>2026-04-19T11:40:37.619Z</time></trkpt><trkpt lat="39.3968871" lon="-3.2995294"><ele>635.0</ele><time>2026-04-19T11:40:38.617Z</time></trkpt><trkpt lat="39.3970866" lon="-3.2995878"><ele>635.0</ele><time>2026-04-19T11:40:39.616Z</time></trkpt><trkpt lat="39.3973111" lon="-3.2996289"><ele>635.0</ele><time>2026-04-19T11:40:40.615Z</time></trkpt><trkpt lat="39.3975132" lon="-3.299664"><ele>635.0</ele><time>2026-04-19T11:40:41.616Z</time></trkpt><trkpt lat="39.3977002" lon="-3.2997039"><ele>635.0</ele><time>2026-04-19T11:40:42.615Z</time></trkpt><trkpt lat="39.3978948" lon="-3.2997563"><ele>635.0</ele><time>2026-04-19T11:40:43.615Z</time></trkpt><trkpt lat="39.3981047" lon="-3.2998225"><ele>636.0</ele><time>2026-04-19T11:40:44.62Z</time></trkpt><trkpt lat="39.3983335" lon="-3.2999102"><ele>637.0</ele><time>2026-04-19T11:40:45.62Z</time></trkpt><trkpt lat="39.3985528" lon="-3.2999975"><ele>637.0</ele><time>2026-04-19T11:40:46.622Z</time></trkpt><trkpt lat="39.3987565" lon="-3.3000784"><ele>637.0</ele><time>2026-04-19T11:40:47.621Z</time></trkpt><trkpt lat="39.3989529" lon="-3.3001532"><ele>637.0</ele><time>2026-04-19T11:40:48.622Z</time></trkpt><trkpt lat="39.399153" lon="-3.3002178"><ele>636.3333333333334</ele><time>2026-04-19T11:40:49.627Z</time></trkpt><trkpt lat="39.3993297" lon="-3.3002691"><ele>635.6666666666666</ele><time>2026-04-19T11:40:50.619Z</time></trkpt><trkpt lat="39.3994773" lon="-3.3003128"><ele>635.0</ele><time>2026-04-19T11:40:51.619Z</time></trkpt><trkpt lat="39.3995929" lon="-3.3003505"><ele>635.3333333333333</ele><time>2026-04-19T11:40:52.619Z</time></trkpt><trkpt lat="39.3996832" lon="-3.3003862"><ele>635.6666666666666</ele><time>2026-04-19T11:40:53.628Z</time></trkpt><trkpt lat="39.3997538" lon="-3.3004219"><ele>636.0</ele><time>2026-04-19T11:40:54.621Z</time></trkpt><trkpt lat="39.3998173" lon="-3.3004621"><ele>636.3333333333334</ele><time>2026-04-19T11:40:55.618Z</time></trkpt><trkpt lat="39.3999084" lon="-3.3005267"><ele>636.6666666666667</ele><time>2026-04-19T11:40:57.622Z</time></trkpt><trkpt lat="39.3999654" lon="-3.3006357"><ele>637.0</ele><time>2026-04-19T11:40:59.624Z</time></trkpt><trkpt lat="39.3999766" lon="-3.3007324"><ele>637.0</ele><time>2026-04-19T11:41:00.623Z</time></trkpt><trkpt lat="39.399978" lon="-3.3008352"><ele>637.0</ele><time>2026-04-19T11:41:01.626Z</time></trkpt><trkpt lat="39.3999756" lon="-3.3009537"><ele>637.0</ele><time>2026-04-19T11:41:02.618Z</time></trkpt><trkpt lat="39.3999802" lon="-3.3010874"><ele>637.0</ele><time>2026-04-19T11:41:03.614Z</time></trkpt><trkpt lat="39.3999907" lon="-3.3012414"><ele>637.0</ele><time>2026-04-19T11:41:04.614Z</time></trkpt><trkpt lat="39.3999969" lon="-3.3014088"><ele>636.75</ele><time>2026-04-19T11:41:05.621Z</time></trkpt><trkpt lat="39.3999998" lon="-3.3015848"><ele>636.5</ele><time>2026-04-19T11:41:06.621Z</time></trkpt><trkpt lat="39.3999989" lon="-3.3017806"><ele>636.25</ele><time>2026-04-19T11:41:07.62Z</time></trkpt><trkpt lat="39.4000049" lon="-3.3019845"><ele>636.0</ele><time>2026-04-19T11:41:08.619Z</time></trkpt><trkpt lat="39.4000042" lon="-3.3021837"><ele>635.75</ele><time>2026-04-19T11:41:09.614Z</time></trkpt><trkpt lat="39.4000083" lon="-3.3023864"><ele>635.5</ele><time>2026-04-19T11:41:10.623Z</time></trkpt><trkpt lat="39.4000107" lon="-3.3025749"><ele>635.25</ele><time>2026-04-19T11:41:11.616Z</time></trkpt><trkpt lat="39.4000108" lon="-3.3027517"><ele>635.0</ele><time>2026-04-19T11:41:12.628Z</time></trkpt><trkpt lat="39.4000086" lon="-3.3029035"><ele>635.0</ele><time>2026-04-19T11:41:13.613Z</time></trkpt><trkpt lat="39.4000083" lon="-3.3030456"><ele>635.0</ele><time>2026-04-19T11:41:14.617Z</time></trkpt><trkpt lat="39.400007" lon="-3.3031834"><ele>635.0</ele><time>2026-04-19T11:41:15.623Z</time></trkpt><trkpt lat="39.4000045" lon="-3.3033619"><ele>635.0</ele><time>2026-04-19T11:41:16.619Z</time></trkpt><trkpt lat="39.4000052" lon="-3.303562"><ele>635.3333333333333</ele><time>2026-04-19T11:41:17.621Z</time></trkpt><trkpt lat="39.4000012" lon="-3.3037742"><ele>635.6666666666666</ele><time>2026-04-19T11:41:18.617Z</time></trkpt><trkpt lat="39.4000008" lon="-3.3040143"><ele>636.0</ele><time>2026-04-19T11:41:19.622Z</time></trkpt><trkpt lat="39.399997" lon="-3.3042661"><ele>636.0</ele><time>2026-04-19T11:41:20.624Z</time></trkpt><trkpt lat="39.3999979" lon="-3.3045494"><ele>636.0</ele><time>2026-04-19T11:41:21.616Z</time></trkpt><trkpt lat="39.3999965" lon="-3.304839"><ele>636.0</ele><time>2026-04-19T11:41:22.627Z</time></trkpt><trkpt lat="39.3999974" lon="-3.305108"><ele>636.0</ele><time>2026-04-19T11:41:23.63Z</time></trkpt><trkpt lat="39.3999978" lon="-3.3053571"><ele>636.0</ele><time>2026-04-19T11:41:24.62Z</time></trkpt><trkpt lat="39.3999957" lon="-3.305581"><ele>636.0</ele><time>2026-04-19T11:41:25.614Z</time></trkpt><trkpt lat="39.3999908" lon="-3.30578"><ele>635.8</ele><time>2026-04-19T11:41:26.624Z</time></trkpt><trkpt lat="39.3999877" lon="-3.3059555"><ele>635.6</ele><time>2026-04-19T11:41:27.616Z</time></trkpt><trkpt lat="39.3999828" lon="-3.3061075"><ele>635.4</ele><time>2026-04-19T11:41:28.625Z</time></trkpt><trkpt lat="39.399978" lon="-3.3062355"><ele>635.2</ele><time>2026-04-19T11:41:29.624Z</time></trkpt><trkpt lat="39.3999734" lon="-3.3063353"><ele>635.0</ele><time>2026-04-19T11:41:30.618Z</time></trkpt><trkpt lat="39.3999653" lon="-3.3064583"><ele>635.0</ele><time>2026-04-19T11:41:32.618Z</time></trkpt><trkpt lat="39.3999649" lon="-3.3065499"><ele>635.0</ele><time>2026-04-19T11:41:34.619Z</time></trkpt><trkpt lat="39.3999887" lon="-3.3066262"><ele>635.0</ele><time>2026-04-19T11:41:36.621Z</time></trkpt><trkpt lat="39.4000474" lon="-3.3066808"><ele>635.0</ele><time>2026-04-19T11:41:38.617Z</time></trkpt><trkpt lat="39.4001348" lon="-3.3067138"><ele>635.0</ele><time>2026-04-19T11:41:40.619Z</time></trkpt><trkpt lat="39.4002298" lon="-3.3067784"><ele>635.0</ele><time>2026-04-19T11:41:42.615Z</time></trkpt><trkpt lat="39.4002711" lon="-3.3068589"><ele>635.0</ele><time>2026-04-19T11:41:44.616Z</time></trkpt><trkpt lat="39.4003439" lon="-3.3068696"><ele>635.0</ele><time>2026-04-19T11:42:01.624Z</time></trkpt><trkpt lat="39.4004" lon="-3.3068155"><ele>635.0</ele><time>2026-04-19T11:42:02.628Z</time></trkpt><trkpt lat="39.4004609" lon="-3.306756"><ele>635.0</ele><time>2026-04-19T11:42:03.621Z</time></trkpt><trkpt lat="39.4005065" lon="-3.306682"><ele>635.0</ele><time>2026-04-19T11:42:04.622Z</time></trkpt><trkpt lat="39.400534" lon="-3.3065877"><ele>635.0</ele><time>2026-04-19T11:42:05.623Z</time></trkpt><trkpt lat="39.4005431" lon="-3.3064792"><ele>635.5</ele><time>2026-04-19T11:42:06.616Z</time></trkpt><trkpt lat="39.4005456" lon="-3.306352"><ele>636.0</ele><time>2026-04-19T11:42:07.62Z</time></trkpt><trkpt lat="39.4005485" lon="-3.3062036"><ele>636.5</ele><time>2026-04-19T11:42:08.623Z</time></trkpt><trkpt lat="39.4005499" lon="-3.3060323"><ele>637.0</ele><time>2026-04-19T11:42:09.618Z</time></trkpt><trkpt lat="39.4005496" lon="-3.3058326"><ele>637.0</ele><time>2026-04-19T11:42:10.629Z</time></trkpt><trkpt lat="39.4005549" lon="-3.3056097"><ele>637.0</ele><time>2026-04-19T11:42:11.619Z</time></trkpt><trkpt lat="39.4005595" lon="-3.3053588"><ele>637.0</ele><time>2026-04-19T11:42:12.621Z</time></trkpt><trkpt lat="39.4005578" lon="-3.3050802"><ele>637.0</ele><time>2026-04-19T11:42:13.619Z</time></trkpt><trkpt lat="39.4005532" lon="-3.3047925"><ele>637.0</ele><time>2026-04-19T11:42:14.627Z</time></trkpt><trkpt lat="39.4005485" lon="-3.3045223"><ele>637.0</ele><time>2026-04-19T11:42:15.62Z</time></trkpt><trkpt lat="39.4005427" lon="-3.3042657"><ele>637.0</ele><time>2026-04-19T11:42:16.619Z</time></trkpt><trkpt lat="39.4005381" lon="-3.3040262"><ele>637.0</ele><time>2026-04-19T11:42:17.626Z</time></trkpt><trkpt lat="39.4005357" lon="-3.3038091"><ele>637.0</ele><time>2026-04-19T11:42:18.624Z</time></trkpt><trkpt lat="39.4005341" lon="-3.3036074"><ele>637.25</ele><time>2026-04-19T11:42:19.619Z</time></trkpt><trkpt lat="39.400533" lon="-3.3034249"><ele>637.5</ele><time>2026-04-19T11:42:20.62Z</time></trkpt><trkpt lat="39.4005338" lon="-3.3032686"><ele>637.75</ele><time>2026-04-19T11:42:21.628Z</time></trkpt><trkpt lat="39.4005337" lon="-3.3031214"><ele>638.0</ele><time>2026-04-19T11:42:22.625Z</time></trkpt><trkpt lat="39.40053" lon="-3.302966"><ele>638.0</ele><time>2026-04-19T11:42:23.626Z</time></trkpt><trkpt lat="39.4005338" lon="-3.3027793"><ele>638.0</ele><time>2026-04-19T11:42:24.621Z</time></trkpt><trkpt lat="39.4005185" lon="-3.3025801"><ele>638.0</ele><time>2026-04-19T11:42:25.62Z</time></trkpt><trkpt lat="39.4005079" lon="-3.3023674"><ele>637.3333333333333</ele><time>2026-04-19T11:42:26.626Z</time></trkpt><trkpt lat="39.4004962" lon="-3.3021458"><ele>636.6666666666666</ele><time>2026-04-19T11:42:27.63Z</time></trkpt><trkpt lat="39.4004924" lon="-3.3019307"><ele>636.0</ele><time>2026-04-19T11:42:28.636Z</time></trkpt><trkpt lat="39.400487" lon="-3.3017296"><ele>636.0</ele><time>2026-04-19T11:42:29.625Z</time></trkpt><trkpt lat="39.4004788" lon="-3.3015439"><ele>636.0</ele><time>2026-04-19T11:42:30.639Z</time></trkpt><trkpt lat="39.400467" lon="-3.301376"><ele>636.0</ele><time>2026-04-19T11:42:31.618Z</time></trkpt><trkpt lat="39.4004621" lon="-3.3012323"><ele>636.0</ele><time>2026-04-19T11:42:32.623Z</time></trkpt><trkpt lat="39.4004675" lon="-3.3011085"><ele>636.25</ele><time>2026-04-19T11:42:33.629Z</time></trkpt><trkpt lat="39.4004798" lon="-3.3010095"><ele>636.5</ele><time>2026-04-19T11:42:34.621Z</time></trkpt><trkpt lat="39.400542" lon="-3.3009091"><ele>636.75</ele><time>2026-04-19T11:42:36.618Z</time></trkpt><trkpt lat="39.4006988" lon="-3.3009362"><ele>637.0</ele><time>2026-04-19T11:42:38.623Z</time></trkpt><trkpt lat="39.4008249" lon="-3.3009927"><ele>636.5</ele><time>2026-04-19T11:42:39.617Z</time></trkpt><trkpt lat="39.4009695" lon="-3.3010607"><ele>636.0</ele><time>2026-04-19T11:42:40.623Z</time></trkpt><trkpt lat="39.4011015" lon="-3.301108"><ele>635.5</ele><time>2026-04-19T11:42:41.622Z</time></trkpt><trkpt lat="39.4012219" lon="-3.3011485"><ele>635.0</ele><time>2026-04-19T11:42:42.62Z</time></trkpt><trkpt lat="39.4013518" lon="-3.3012061"><ele>635.0</ele><time>2026-04-19T11:42:43.624Z</time></trkpt><trkpt lat="39.4014844" lon="-3.3012845"><ele>635.0</ele><time>2026-04-19T11:42:44.621Z</time></trkpt><trkpt lat="39.4016281" lon="-3.3013868"><ele>635.0</ele><time>2026-04-19T11:42:45.618Z</time></trkpt><trkpt lat="39.4017787" lon="-3.3015159"><ele>635.0</ele><time>2026-04-19T11:42:46.619Z</time></trkpt><trkpt lat="39.4019293" lon="-3.3016346"><ele>635.0</ele><time>2026-04-19T11:42:47.611Z</time></trkpt><trkpt lat="39.4020891" lon="-3.3017387"><ele>635.0</ele><time>2026-04-19T11:42:48.621Z</time></trkpt><trkpt lat="39.4022498" lon="-3.3018389"><ele>635.25</ele><time>2026-04-19T11:42:49.616Z</time></trkpt><trkpt lat="39.4023847" lon="-3.3019383"><ele>635.5</ele><time>2026-04-19T11:42:50.619Z</time></trkpt><trkpt lat="39.4024991" lon="-3.3020418"><ele>635.75</ele><time>2026-04-19T11:42:51.617Z</time></trkpt><trkpt lat="39.4026058" lon="-3.3021351"><ele>636.0</ele><time>2026-04-19T11:42:52.618Z</time></trkpt><trkpt lat="39.4027201" lon="-3.3022167"><ele>635.75</ele><time>2026-04-19T11:42:53.611Z</time></trkpt><trkpt lat="39.4028427" lon="-3.3022811"><ele>635.5</ele><time>2026-04-19T11:42:54.624Z</time></trkpt><trkpt lat="39.4029792" lon="-3.3023203"><ele>635.25</ele><time>2026-04-19T11:42:55.617Z</time></trkpt><trkpt lat="39.4031306" lon="-3.3023334"><ele>635.0</ele><time>2026-04-19T11:42:56.619Z</time></trkpt><trkpt lat="39.4033026" lon="-3.3023181"><ele>635.0</ele><time>2026-04-19T11:42:57.612Z</time></trkpt><trkpt lat="39.4034592" lon="-3.3022962"><ele>635.0</ele><time>2026-04-19T11:42:58.615Z</time></trkpt><trkpt lat="39.4036022" lon="-3.302293"><ele>635.0</ele><time>2026-04-19T11:42:59.619Z</time></trkpt><trkpt lat="39.4037365" lon="-3.3023206"><ele>635.0</ele><time>2026-04-19T11:43:00.628Z</time></trkpt><trkpt lat="39.4038841" lon="-3.3023835"><ele>635.3333333333333</ele><time>2026-04-19T11:43:01.627Z</time></trkpt><trkpt lat="39.404044" lon="-3.3024547"><ele>635.6666666666666</ele><time>2026-04-19T11:43:02.62Z</time></trkpt><trkpt lat="39.4042283" lon="-3.3025228"><ele>636.0</ele><time>2026-04-19T11:43:03.621Z</time></trkpt><trkpt lat="39.4044336" lon="-3.3025887"><ele>636.0</ele><time>2026-04-19T11:43:04.617Z</time></trkpt><trkpt lat="39.4046344" lon="-3.3026574"><ele>636.0</ele><time>2026-04-19T11:43:05.617Z</time></trkpt><trkpt lat="39.4048332" lon="-3.3027333"><ele>636.0</ele><time>2026-04-19T11:43:06.619Z</time></trkpt><trkpt lat="39.4050507" lon="-3.302821"><ele>636.0</ele><time>2026-04-19T11:43:07.62Z</time></trkpt><trkpt lat="39.4052878" lon="-3.3029184"><ele>636.0</ele><time>2026-04-19T11:43:08.627Z</time></trkpt><trkpt lat="39.4055134" lon="-3.3030122"><ele>636.5</ele><time>2026-04-19T11:43:09.622Z</time></trkpt><trkpt lat="39.4057315" lon="-3.3031027"><ele>637.0</ele><time>2026-04-19T11:43:10.618Z</time></trkpt><trkpt lat="39.4059542" lon="-3.3032058"><ele>637.0</ele><time>2026-04-19T11:43:11.622Z</time></trkpt><trkpt lat="39.4061688" lon="-3.3033137"><ele>637.0</ele><time>2026-04-19T11:43:12.618Z</time></trkpt><trkpt lat="39.4063911" lon="-3.3034179"><ele>637.0</ele><time>2026-04-19T11:43:13.618Z</time></trkpt><trkpt lat="39.4066066" lon="-3.3035139"><ele>637.0</ele><time>2026-04-19T11:43:14.619Z</time></trkpt><trkpt lat="39.4068084" lon="-3.3036069"><ele>637.0</ele><time>2026-04-19T11:43:15.616Z</time></trkpt><trkpt lat="39.4069919" lon="-3.3036957"><ele>637.0</ele><time>2026-04-19T11:43:16.618Z</time></trkpt><trkpt lat="39.4071673" lon="-3.3037834"><ele>637.0</ele><time>2026-04-19T11:43:17.619Z</time></trkpt><trkpt lat="39.4073455" lon="-3.303871"><ele>637.0</ele><time>2026-04-19T11:43:18.621Z</time></trkpt><trkpt lat="39.4075195" lon="-3.3039611"><ele>637.0</ele><time>2026-04-19T11:43:19.62Z</time></trkpt><trkpt lat="39.4076911" lon="-3.3040574"><ele>637.0</ele><time>2026-04-19T11:43:20.625Z</time></trkpt><trkpt lat="39.4078712" lon="-3.3041332"><ele>637.0</ele><time>2026-04-19T11:43:21.627Z</time></trkpt><trkpt lat="39.4080503" lon="-3.3041999"><ele>637.3333333333334</ele><time>2026-04-19T11:43:22.625Z</time></trkpt><trkpt lat="39.4082277" lon="-3.3042771"><ele>637.6666666666666</ele><time>2026-04-19T11:43:23.621Z</time></trkpt><trkpt lat="39.4084009" lon="-3.3043572"><ele>638.0</ele><time>2026-04-19T11:43:24.626Z</time></trkpt><trkpt lat="39.4085622" lon="-3.3044357"><ele>638.0</ele><time>2026-04-19T11:43:25.629Z</time></trkpt><trkpt lat="39.408713" lon="-3.3045165"><ele>638.0</ele><time>2026-04-19T11:43:26.626Z</time></trkpt><trkpt lat="39.4088672" lon="-3.3045871"><ele>638.0</ele><time>2026-04-19T11:43:27.622Z</time></trkpt><trkpt lat="39.409013" lon="-3.3046438"><ele>638.0</ele><time>2026-04-19T11:43:28.618Z</time></trkpt><trkpt lat="39.4091576" lon="-3.3046867"><ele>638.0</ele><time>2026-04-19T11:43:29.626Z</time></trkpt><trkpt lat="39.4093123" lon="-3.3047194"><ele>638.0</ele><time>2026-04-19T11:43:30.626Z</time></trkpt><trkpt lat="39.40947" lon="-3.3047449"><ele>637.6666666666666</ele><time>2026-04-19T11:43:31.617Z</time></trkpt><trkpt lat="39.4096304" lon="-3.3047667"><ele>637.3333333333334</ele><time>2026-04-19T11:43:32.624Z</time></trkpt><trkpt lat="39.4097993" lon="-3.3047921"><ele>637.0</ele><time>2026-04-19T11:43:33.622Z</time></trkpt><trkpt lat="39.4099632" lon="-3.304825"><ele>637.0</ele><time>2026-04-19T11:43:34.612Z</time></trkpt><trkpt lat="39.4101092" lon="-3.3048639"><ele>637.0</ele><time>2026-04-19T11:43:35.612Z</time></trkpt><trkpt lat="39.4102356" lon="-3.304908"><ele>637.0</ele><time>2026-04-19T11:43:36.618Z</time></trkpt><trkpt lat="39.4103455" lon="-3.3049572"><ele>637.0</ele><time>2026-04-19T11:43:37.625Z</time></trkpt><trkpt lat="39.4104454" lon="-3.3050146"><ele>637.0</ele><time>2026-04-19T11:43:38.623Z</time></trkpt><trkpt lat="39.4105338" lon="-3.3050767"><ele>637.0</ele><time>2026-04-19T11:43:39.618Z</time></trkpt><trkpt lat="39.4106237" lon="-3.3051521"><ele>637.0</ele><time>2026-04-19T11:43:40.621Z</time></trkpt><trkpt lat="39.4107037" lon="-3.3052327"><ele>637.0</ele><time>2026-04-19T11:43:41.611Z</time></trkpt><trkpt lat="39.4107738" lon="-3.3053092"><ele>637.0</ele><time>2026-04-19T11:43:42.617Z</time></trkpt><trkpt lat="39.4108394" lon="-3.3053712"><ele>637.0</ele><time>2026-04-19T11:43:43.615Z</time></trkpt><trkpt lat="39.4109019" lon="-3.3054147"><ele>637.0</ele><time>2026-04-19T11:43:44.616Z</time></trkpt><trkpt lat="39.410963" lon="-3.3054398"><ele>637.0</ele><time>2026-04-19T11:43:45.616Z</time></trkpt><trkpt lat="39.4110286" lon="-3.3054558"><ele>637.0</ele><time>2026-04-19T11:43:46.618Z</time></trkpt><trkpt lat="39.4110974" lon="-3.3054641"><ele>637.0</ele><time>2026-04-19T11:43:47.617Z</time></trkpt><trkpt lat="39.4111627" lon="-3.3054671"><ele>637.0</ele><time>2026-04-19T11:43:48.617Z</time></trkpt><trkpt lat="39.4112785" lon="-3.3054734"><ele>636.8333333333334</ele><time>2026-04-19T11:43:50.61Z</time></trkpt><trkpt lat="39.4113964" lon="-3.3054334"><ele>636.6666666666667</ele><time>2026-04-19T11:43:52.622Z</time></trkpt><trkpt lat="39.4114555" lon="-3.3053986"><ele>636.5</ele><time>2026-04-19T11:43:53.616Z</time></trkpt><trkpt lat="39.4115135" lon="-3.3053572"><ele>636.3333333333334</ele><time>2026-04-19T11:43:54.619Z</time></trkpt><trkpt lat="39.4115779" lon="-3.3053108"><ele>636.1666666666666</ele><time>2026-04-19T11:43:55.617Z</time></trkpt><trkpt lat="39.4116499" lon="-3.3052647"><ele>636.0</ele><time>2026-04-19T11:43:56.613Z</time></trkpt><trkpt lat="39.4117368" lon="-3.3052325"><ele>636.0</ele><time>2026-04-19T11:43:57.614Z</time></trkpt><trkpt lat="39.411843" lon="-3.3052137"><ele>636.0</ele><time>2026-04-19T11:43:58.624Z</time></trkpt><trkpt lat="39.4119603" lon="-3.3052115"><ele>636.0</ele><time>2026-04-19T11:43:59.613Z</time></trkpt><trkpt lat="39.4120854" lon="-3.3052274"><ele>636.0</ele><time>2026-04-19T11:44:00.612Z</time></trkpt><trkpt lat="39.4122191" lon="-3.30525"><ele>636.0</ele><time>2026-04-19T11:44:01.615Z</time></trkpt><trkpt lat="39.4123625" lon="-3.3052623"><ele>636.0</ele><time>2026-04-19T11:44:02.617Z</time></trkpt><trkpt lat="39.4125166" lon="-3.3052566"><ele>636.0</ele><time>2026-04-19T11:44:03.617Z</time></trkpt><trkpt lat="39.4126752" lon="-3.3052391"><ele>636.0</ele><time>2026-04-19T11:44:04.615Z</time></trkpt><trkpt lat="39.4128289" lon="-3.3052172"><ele>636.0</ele><time>2026-04-19T11:44:05.611Z</time></trkpt><trkpt lat="39.4129765" lon="-3.3051925"><ele>636.0</ele><time>2026-04-19T11:44:06.616Z</time></trkpt><trkpt lat="39.4131108" lon="-3.3051682"><ele>636.0</ele><time>2026-04-19T11:44:07.615Z</time></trkpt><trkpt lat="39.4132298" lon="-3.305146"><ele>636.3333333333334</ele><time>2026-04-19T11:44:08.61Z</time></trkpt><trkpt lat="39.4133345" lon="-3.3051269"><ele>636.6666666666666</ele><time>2026-04-19T11:44:09.615Z</time></trkpt><trkpt lat="39.4134227" lon="-3.305114"><ele>637.0</ele><time>2026-04-19T11:44:10.619Z</time></trkpt><trkpt lat="39.4134943" lon="-3.3051026"><ele>637.3333333333333</ele><time>2026-04-19T11:44:11.621Z</time></trkpt><trkpt lat="39.4135682" lon="-3.305086"><ele>637.6666666666666</ele><time>2026-04-19T11:44:13.612Z</time></trkpt><trkpt lat="39.4136576" lon="-3.3050542"><ele>638.0</ele><time>2026-04-19T11:44:23.617Z</time></trkpt><trkpt lat="39.4137316" lon="-3.3050367"><ele>637.5</ele><time>2026-04-19T11:44:24.624Z</time></trkpt><trkpt lat="39.4138291" lon="-3.3050141"><ele>637.0</ele><time>2026-04-19T11:44:25.619Z</time></trkpt><trkpt lat="39.4139583" lon="-3.305005"><ele>636.5</ele><time>2026-04-19T11:44:26.619Z</time></trkpt><trkpt lat="39.4141239" lon="-3.3050015"><ele>636.0</ele><time>2026-04-19T11:44:27.627Z</time></trkpt><trkpt lat="39.414314" lon="-3.3050001"><ele>636.0</ele><time>2026-04-19T11:44:28.619Z</time></trkpt><trkpt lat="39.4145224" lon="-3.3049922"><ele>636.0</ele><time>2026-04-19T11:44:29.623Z</time></trkpt><trkpt lat="39.4147525" lon="-3.304974"><ele>636.0</ele><time>2026-04-19T11:44:30.616Z</time></trkpt><trkpt lat="39.414999" lon="-3.3049545"><ele>636.0</ele><time>2026-04-19T11:44:31.62Z</time></trkpt><trkpt lat="39.4152659" lon="-3.3049345"><ele>636.0</ele><time>2026-04-19T11:44:32.622Z</time></trkpt><trkpt lat="39.4155154" lon="-3.3049125"><ele>636.0</ele><time>2026-04-19T11:44:33.618Z</time></trkpt><trkpt lat="39.415742" lon="-3.3048882"><ele>636.0</ele><time>2026-04-19T11:44:34.619Z</time></trkpt><trkpt lat="39.4159486" lon="-3.3048642"><ele>636.0</ele><time>2026-04-19T11:44:35.623Z</time></trkpt><trkpt lat="39.4161412" lon="-3.304841"><ele>636.3333333333334</ele><time>2026-04-19T11:44:36.623Z</time></trkpt><trkpt lat="39.4163224" lon="-3.3048328"><ele>636.6666666666667</ele><time>2026-04-19T11:44:37.617Z</time></trkpt><trkpt lat="39.4165042" lon="-3.3048488"><ele>637.0</ele><time>2026-04-19T11:44:38.621Z</time></trkpt><trkpt lat="39.4166937" lon="-3.3048907"><ele>637.0</ele><time>2026-04-19T11:44:39.615Z</time></trkpt><trkpt lat="39.4168694" lon="-3.304957"><ele>637.0</ele><time>2026-04-19T11:44:40.614Z</time></trkpt><trkpt lat="39.4170361" lon="-3.3050509"><ele>637.0</ele><time>2026-04-19T11:44:41.611Z</time></trkpt><trkpt lat="39.417188" lon="-3.3051634"><ele>637.0</ele><time>2026-04-19T11:44:42.621Z</time></trkpt><trkpt lat="39.4173175" lon="-3.3052909"><ele>637.0</ele><time>2026-04-19T11:44:43.615Z</time></trkpt><trkpt lat="39.4174233" lon="-3.3054326"><ele>637.0</ele><time>2026-04-19T11:44:44.625Z</time></trkpt><trkpt lat="39.4175222" lon="-3.3056077"><ele>636.6666666666667</ele><time>2026-04-19T11:44:45.621Z</time></trkpt><trkpt lat="39.4176265" lon="-3.3058216"><ele>636.3333333333334</ele><time>2026-04-19T11:44:46.617Z</time></trkpt><trkpt lat="39.4177354" lon="-3.3060677"><ele>636.0</ele><time>2026-04-19T11:44:47.612Z</time></trkpt><trkpt lat="39.417859" lon="-3.3063382"><ele>635.0</ele><time>2026-04-19T11:44:48.617Z</time></trkpt><trkpt lat="39.4179926" lon="-3.3066194"><ele>634.0</ele><time>2026-04-19T11:44:49.625Z</time></trkpt><trkpt lat="39.4181238" lon="-3.3068789"><ele>634.0</ele><time>2026-04-19T11:44:50.622Z</time></trkpt><trkpt lat="39.4182643" lon="-3.3071281"><ele>634.0</ele><time>2026-04-19T11:44:51.621Z</time></trkpt><trkpt lat="39.4184126" lon="-3.3073739"><ele>635.0</ele><time>2026-04-19T11:44:52.62Z</time></trkpt><trkpt lat="39.418557" lon="-3.3075913"><ele>636.0</ele><time>2026-04-19T11:44:53.621Z</time></trkpt><trkpt lat="39.4186883" lon="-3.3077731"><ele>637.0</ele><time>2026-04-19T11:44:54.618Z</time></trkpt><trkpt lat="39.4188012" lon="-3.3079288"><ele>637.0</ele><time>2026-04-19T11:44:55.615Z</time></trkpt><trkpt lat="39.4188999" lon="-3.3080861"><ele>637.0</ele><time>2026-04-19T11:44:56.615Z</time></trkpt><trkpt lat="39.4190014" lon="-3.3082588"><ele>637.0</ele><time>2026-04-19T11:44:57.628Z</time></trkpt><trkpt lat="39.4191112" lon="-3.3084399"><ele>637.0</ele><time>2026-04-19T11:44:58.626Z</time></trkpt><trkpt lat="39.4192302" lon="-3.3086142"><ele>637.0</ele><time>2026-04-19T11:44:59.619Z</time></trkpt><trkpt lat="39.4193532" lon="-3.3087866"><ele>637.0</ele><time>2026-04-19T11:45:00.612Z</time></trkpt><trkpt lat="39.4194727" lon="-3.3089672"><ele>637.0</ele><time>2026-04-19T11:45:01.616Z</time></trkpt><trkpt lat="39.4195771" lon="-3.3091603"><ele>637.0</ele><time>2026-04-19T11:45:02.623Z</time></trkpt><trkpt lat="39.4196809" lon="-3.3093892"><ele>637.0</ele><time>2026-04-19T11:45:03.617Z</time></trkpt><trkpt lat="39.4197917" lon="-3.3096436"><ele>637.0</ele><time>2026-04-19T11:45:04.624Z</time></trkpt><trkpt lat="39.4199027" lon="-3.3098824"><ele>637.0</ele><time>2026-04-19T11:45:05.62Z</time></trkpt><trkpt lat="39.4200211" lon="-3.3101033"><ele>637.0</ele><time>2026-04-19T11:45:06.626Z</time></trkpt><trkpt lat="39.420155" lon="-3.3103227"><ele>637.0</ele><time>2026-04-19T11:45:07.625Z</time></trkpt><trkpt lat="39.420292" lon="-3.3105208"><ele>637.0</ele><time>2026-04-19T11:45:08.617Z</time></trkpt><trkpt lat="39.420434" lon="-3.3107069"><ele>637.0</ele><time>2026-04-19T11:45:09.611Z</time></trkpt><trkpt lat="39.420573" lon="-3.3108809"><ele>637.0</ele><time>2026-04-19T11:45:10.626Z</time></trkpt><trkpt lat="39.4207112" lon="-3.3110505"><ele>637.0</ele><time>2026-04-19T11:45:11.628Z</time></trkpt><trkpt lat="39.4208527" lon="-3.3112194"><ele>637.0</ele><time>2026-04-19T11:45:12.629Z</time></trkpt><trkpt lat="39.4209903" lon="-3.3113872"><ele>637.0</ele><time>2026-04-19T11:45:13.63Z</time></trkpt><trkpt lat="39.4211302" lon="-3.3115297"><ele>637.0</ele><time>2026-04-19T11:45:14.633Z</time></trkpt><trkpt lat="39.421267" lon="-3.3116728"><ele>637.0</ele><time>2026-04-19T11:45:15.63Z</time></trkpt><trkpt lat="39.4214052" lon="-3.311793"><ele>638.0</ele><time>2026-04-19T11:45:16.624Z</time></trkpt><trkpt lat="39.4215566" lon="-3.311908"><ele>639.0</ele><time>2026-04-19T11:45:17.631Z</time></trkpt><trkpt lat="39.4217161" lon="-3.3120343"><ele>640.0</ele><time>2026-04-19T11:45:18.626Z</time></trkpt><trkpt lat="39.4218702" lon="-3.3121493"><ele>639.3333333333334</ele><time>2026-04-19T11:45:19.637Z</time></trkpt><trkpt lat="39.4220403" lon="-3.3122463"><ele>638.6666666666666</ele><time>2026-04-19T11:45:20.624Z</time></trkpt><trkpt lat="39.4222419" lon="-3.3123272"><ele>638.0</ele><time>2026-04-19T11:45:21.626Z</time></trkpt><trkpt lat="39.42247" lon="-3.3124173"><ele>638.0</ele><time>2026-04-19T11:45:22.625Z</time></trkpt><trkpt lat="39.4226988" lon="-3.3125133"><ele>638.0</ele><time>2026-04-19T11:45:23.629Z</time></trkpt><trkpt lat="39.4229088" lon="-3.3126024"><ele>639.3333333333333</ele><time>2026-04-19T11:45:24.636Z</time></trkpt><trkpt lat="39.4231148" lon="-3.312694"><ele>640.6666666666666</ele><time>2026-04-19T11:45:25.631Z</time></trkpt><trkpt lat="39.4233076" lon="-3.3128021"><ele>642.0</ele><time>2026-04-19T11:45:26.623Z</time></trkpt><trkpt lat="39.4235092" lon="-3.3129292"><ele>641.0</ele><time>2026-04-19T11:45:27.628Z</time></trkpt><trkpt lat="39.4237067" lon="-3.3130865"><ele>640.0</ele><time>2026-04-19T11:45:28.624Z</time></trkpt><trkpt lat="39.423909" lon="-3.3132258"><ele>639.0</ele><time>2026-04-19T11:45:29.623Z</time></trkpt><trkpt lat="39.4240943" lon="-3.3133494"><ele>638.0</ele><time>2026-04-19T11:45:30.624Z</time></trkpt><trkpt lat="39.4242617" lon="-3.3134498"><ele>637.0</ele><time>2026-04-19T11:45:31.63Z</time></trkpt><trkpt lat="39.4244353" lon="-3.3135237"><ele>637.0</ele><time>2026-04-19T11:45:32.631Z</time></trkpt><trkpt lat="39.4246144" lon="-3.3135773"><ele>637.0</ele><time>2026-04-19T11:45:33.625Z</time></trkpt><trkpt lat="39.4248254" lon="-3.3135961"><ele>637.0</ele><time>2026-04-19T11:45:34.636Z</time></trkpt><trkpt lat="39.4250611" lon="-3.3136093"><ele>637.0</ele><time>2026-04-19T11:45:35.628Z</time></trkpt><trkpt lat="39.4253172" lon="-3.3136217"><ele>637.0</ele><time>2026-04-19T11:45:36.624Z</time></trkpt><trkpt lat="39.4255967" lon="-3.3136383"><ele>637.0</ele><time>2026-04-19T11:45:37.628Z</time></trkpt><trkpt lat="39.4258657" lon="-3.3136495"><ele>637.0</ele><time>2026-04-19T11:45:38.622Z</time></trkpt><trkpt lat="39.4261109" lon="-3.313647"><ele>637.0</ele><time>2026-04-19T11:45:39.626Z</time></trkpt><trkpt lat="39.4263543" lon="-3.313655"><ele>637.0</ele><time>2026-04-19T11:45:40.628Z</time></trkpt><trkpt lat="39.4265986" lon="-3.3136578"><ele>637.0</ele><time>2026-04-19T11:45:41.624Z</time></trkpt><trkpt lat="39.4268522" lon="-3.3136721"><ele>637.0</ele><time>2026-04-19T11:45:42.626Z</time></trkpt><trkpt lat="39.4271274" lon="-3.3136839"><ele>638.0</ele><time>2026-04-19T11:45:43.631Z</time></trkpt><trkpt lat="39.4273973" lon="-3.3136962"><ele>639.0</ele><time>2026-04-19T11:45:44.621Z</time></trkpt><trkpt lat="39.4276484" lon="-3.3137075"><ele>639.0</ele><time>2026-04-19T11:45:45.622Z</time></trkpt><trkpt lat="39.4278839" lon="-3.3137171"><ele>639.0</ele><time>2026-04-19T11:45:46.625Z</time></trkpt><trkpt lat="39.4281304" lon="-3.3137216"><ele>638.5</ele><time>2026-04-19T11:45:47.625Z</time></trkpt><trkpt lat="39.428383" lon="-3.3137244"><ele>638.0</ele><time>2026-04-19T11:45:48.625Z</time></trkpt><trkpt lat="39.4286383" lon="-3.3137368"><ele>638.5</ele><time>2026-04-19T11:45:49.629Z</time></trkpt><trkpt lat="39.4289007" lon="-3.3137496"><ele>639.0</ele><time>2026-04-19T11:45:50.621Z</time></trkpt><trkpt lat="39.4291455" lon="-3.3137591"><ele>639.0</ele><time>2026-04-19T11:45:51.622Z</time></trkpt><trkpt lat="39.4293739" lon="-3.3137684"><ele>639.0</ele><time>2026-04-19T11:45:52.625Z</time></trkpt><trkpt lat="39.4295788" lon="-3.3137784"><ele>639.0</ele><time>2026-04-19T11:45:53.627Z</time></trkpt><trkpt lat="39.4297667" lon="-3.3137893"><ele>639.3333333333334</ele><time>2026-04-19T11:45:54.624Z</time></trkpt><trkpt lat="39.4299585" lon="-3.3138053"><ele>639.6666666666667</ele><time>2026-04-19T11:45:55.621Z</time></trkpt><trkpt lat="39.4301679" lon="-3.3138314"><ele>640.0</ele><time>2026-04-19T11:45:56.623Z</time></trkpt><trkpt lat="39.4303867" lon="-3.3138657"><ele>640.0</ele><time>2026-04-19T11:45:57.637Z</time></trkpt><trkpt lat="39.4306019" lon="-3.3139063"><ele>640.0</ele><time>2026-04-19T11:45:58.624Z</time></trkpt><trkpt lat="39.4308128" lon="-3.3139498"><ele>640.0</ele><time>2026-04-19T11:45:59.632Z</time></trkpt><trkpt lat="39.4310226" lon="-3.3139978"><ele>640.0</ele><time>2026-04-19T11:46:00.632Z</time></trkpt><trkpt lat="39.4312296" lon="-3.3140476"><ele>640.0</ele><time>2026-04-19T11:46:01.624Z</time></trkpt><trkpt lat="39.4314196" lon="-3.3140925"><ele>640.0</ele><time>2026-04-19T11:46:02.626Z</time></trkpt><trkpt lat="39.431595" lon="-3.3141286"><ele>640.3333333333334</ele><time>2026-04-19T11:46:03.62Z</time></trkpt><trkpt lat="39.4317657" lon="-3.3141624"><ele>640.6666666666666</ele><time>2026-04-19T11:46:04.623Z</time></trkpt><trkpt lat="39.4319405" lon="-3.314201"><ele>641.0</ele><time>2026-04-19T11:46:05.625Z</time></trkpt><trkpt lat="39.4321228" lon="-3.3142456"><ele>641.0</ele><time>2026-04-19T11:46:06.624Z</time></trkpt><trkpt lat="39.432319" lon="-3.3142859"><ele>641.0</ele><time>2026-04-19T11:46:07.625Z</time></trkpt><trkpt lat="39.4325309" lon="-3.314322"><ele>641.0</ele><time>2026-04-19T11:46:08.615Z</time></trkpt><trkpt lat="39.432763" lon="-3.3143677"><ele>641.3333333333333</ele><time>2026-04-19T11:46:09.617Z</time></trkpt><trkpt lat="39.4329894" lon="-3.3144112"><ele>641.6666666666666</ele><time>2026-04-19T11:46:10.629Z</time></trkpt><trkpt lat="39.433204" lon="-3.3144479"><ele>642.0</ele><time>2026-04-19T11:46:11.62Z</time></trkpt><trkpt lat="39.4334052" lon="-3.3144733"><ele>642.0</ele><time>2026-04-19T11:46:12.623Z</time></trkpt><trkpt lat="39.4335873" lon="-3.3144831"><ele>642.0</ele><time>2026-04-19T11:46:13.617Z</time></trkpt><trkpt lat="39.4337591" lon="-3.3144803"><ele>642.0</ele><time>2026-04-19T11:46:14.622Z</time></trkpt><trkpt lat="39.4339428" lon="-3.3144623"><ele>641.0</ele><time>2026-04-19T11:46:15.625Z</time></trkpt><trkpt lat="39.4341462" lon="-3.3143903"><ele>640.0</ele><time>2026-04-19T11:46:16.623Z</time></trkpt><trkpt lat="39.43438" lon="-3.3143002"><ele>640.0</ele><time>2026-04-19T11:46:17.62Z</time></trkpt><trkpt lat="39.4346051" lon="-3.314206"><ele>640.0</ele><time>2026-04-19T11:46:18.614Z</time></trkpt><trkpt lat="39.434806" lon="-3.3141182"><ele>640.0</ele><time>2026-04-19T11:46:19.614Z</time></trkpt><trkpt lat="39.4349726" lon="-3.3140499"><ele>640.0</ele><time>2026-04-19T11:46:20.623Z</time></trkpt><trkpt lat="39.4351195" lon="-3.3140079"><ele>640.0</ele><time>2026-04-19T11:46:21.628Z</time></trkpt><trkpt lat="39.4352627" lon="-3.3139832"><ele>640.0</ele><time>2026-04-19T11:46:22.622Z</time></trkpt><trkpt lat="39.4353909" lon="-3.3139801"><ele>640.0</ele><time>2026-04-19T11:46:23.626Z</time></trkpt><trkpt lat="39.4354995" lon="-3.3140142"><ele>639.4</ele><time>2026-04-19T11:46:24.616Z</time></trkpt><trkpt lat="39.4355969" lon="-3.3140595"><ele>638.8</ele><time>2026-04-19T11:46:25.628Z</time></trkpt><trkpt lat="39.4356696" lon="-3.3141328"><ele>638.2</ele><time>2026-04-19T11:46:26.626Z</time></trkpt><trkpt lat="39.4357345" lon="-3.3142084"><ele>637.6</ele><time>2026-04-19T11:46:27.626Z</time></trkpt><trkpt lat="39.4357685" lon="-3.3143012"><ele>637.0</ele><time>2026-04-19T11:46:28.621Z</time></trkpt><trkpt lat="39.4358062" lon="-3.3144077"><ele>637.0</ele><time>2026-04-19T11:46:29.619Z</time></trkpt><trkpt lat="39.4358341" lon="-3.3145302"><ele>637.0</ele><time>2026-04-19T11:46:30.623Z</time></trkpt><trkpt lat="39.43586" lon="-3.3146477"><ele>637.0</ele><time>2026-04-19T11:46:31.629Z</time></trkpt><trkpt lat="39.4358966" lon="-3.3147501"><ele>637.0</ele><time>2026-04-19T11:46:32.627Z</time></trkpt><trkpt lat="39.4359443" lon="-3.3148302"><ele>637.0</ele><time>2026-04-19T11:46:33.629Z</time></trkpt><trkpt lat="39.4359897" lon="-3.3148914"><ele>637.0</ele><time>2026-04-19T11:46:34.627Z</time></trkpt><trkpt lat="39.4360577" lon="-3.3149546"><ele>637.3333333333334</ele><time>2026-04-19T11:46:36.623Z</time></trkpt><trkpt lat="39.436126" lon="-3.315009"><ele>637.6666666666667</ele><time>2026-04-19T11:46:40.628Z</time></trkpt><trkpt lat="39.436156" lon="-3.3150987"><ele>638.0</ele><time>2026-04-19T11:46:42.626Z</time></trkpt><trkpt lat="39.4361674" lon="-3.3151872"><ele>638.3333333333334</ele><time>2026-04-19T11:46:43.622Z</time></trkpt><trkpt lat="39.4361748" lon="-3.3153116"><ele>638.6666666666666</ele><time>2026-04-19T11:46:44.624Z</time></trkpt><trkpt lat="39.4361844" lon="-3.3154702"><ele>639.0</ele><time>2026-04-19T11:46:45.623Z</time></trkpt><trkpt lat="39.436195" lon="-3.3156551"><ele>639.0</ele><time>2026-04-19T11:46:46.621Z</time></trkpt><trkpt lat="39.4362096" lon="-3.3158699"><ele>639.0</ele><time>2026-04-19T11:46:47.629Z</time></trkpt><trkpt lat="39.4362303" lon="-3.3161069"><ele>639.0</ele><time>2026-04-19T11:46:48.627Z</time></trkpt><trkpt lat="39.4362565" lon="-3.3163749"><ele>639.5</ele><time>2026-04-19T11:46:49.625Z</time></trkpt><trkpt lat="39.4362847" lon="-3.3166728"><ele>640.0</ele><time>2026-04-19T11:46:50.617Z</time></trkpt><trkpt lat="39.4363139" lon="-3.3169951"><ele>640.5</ele><time>2026-04-19T11:46:51.623Z</time></trkpt><trkpt lat="39.4363467" lon="-3.3173436"><ele>641.0</ele><time>2026-04-19T11:46:52.62Z</time></trkpt><trkpt lat="39.4363826" lon="-3.3177181"><ele>640.5</ele><time>2026-04-19T11:46:53.619Z</time></trkpt><trkpt lat="39.4364198" lon="-3.3181122"><ele>640.0</ele><time>2026-04-19T11:46:54.623Z</time></trkpt><trkpt lat="39.4364552" lon="-3.3184825"><ele>640.0</ele><time>2026-04-19T11:46:55.624Z</time></trkpt><trkpt lat="39.4364891" lon="-3.318825"><ele>640.0</ele><time>2026-04-19T11:46:56.622Z</time></trkpt><trkpt lat="39.4365246" lon="-3.3191407"><ele>639.6666666666667</ele><time>2026-04-19T11:46:57.626Z</time></trkpt><trkpt lat="39.4365607" lon="-3.3194318"><ele>639.3333333333334</ele><time>2026-04-19T11:46:58.623Z</time></trkpt><trkpt lat="39.4365996" lon="-3.3197026"><ele>639.0</ele><time>2026-04-19T11:46:59.628Z</time></trkpt><trkpt lat="39.4366376" lon="-3.3199521"><ele>639.0</ele><time>2026-04-19T11:47:00.622Z</time></trkpt><trkpt lat="39.4366692" lon="-3.3201825"><ele>639.0</ele><time>2026-04-19T11:47:01.626Z</time></trkpt><trkpt lat="39.4366922" lon="-3.3203974"><ele>639.0</ele><time>2026-04-19T11:47:02.623Z</time></trkpt><trkpt lat="39.4367076" lon="-3.320598"><ele>640.5</ele><time>2026-04-19T11:47:03.622Z</time></trkpt><trkpt lat="39.4367147" lon="-3.320783"><ele>642.0</ele><time>2026-04-19T11:47:04.626Z</time></trkpt><trkpt lat="39.4367118" lon="-3.3209496"><ele>643.5</ele><time>2026-04-19T11:47:05.624Z</time></trkpt><trkpt lat="39.4366991" lon="-3.3211006"><ele>645.0</ele><time>2026-04-19T11:47:06.624Z</time></trkpt><trkpt lat="39.436673" lon="-3.3212475"><ele>645.0</ele><time>2026-04-19T11:47:07.626Z</time></trkpt><trkpt lat="39.4366332" lon="-3.3213961"><ele>645.0</ele><time>2026-04-19T11:47:08.625Z</time></trkpt><trkpt lat="39.4365844" lon="-3.3215563"><ele>645.0</ele><time>2026-04-19T11:47:09.623Z</time></trkpt><trkpt lat="39.4365376" lon="-3.3217273"><ele>645.0</ele><time>2026-04-19T11:47:10.628Z</time></trkpt><trkpt lat="39.4364894" lon="-3.3219132"><ele>645.0</ele><time>2026-04-19T11:47:11.621Z</time></trkpt><trkpt lat="39.4364433" lon="-3.322113"><ele>645.0</ele><time>2026-04-19T11:47:12.622Z</time></trkpt><trkpt lat="39.4364013" lon="-3.3223222"><ele>645.0</ele><time>2026-04-19T11:47:13.628Z</time></trkpt><trkpt lat="39.4363587" lon="-3.322539"><ele>645.0</ele><time>2026-04-19T11:47:14.618Z</time></trkpt><trkpt lat="39.4363084" lon="-3.3227616"><ele>645.0</ele><time>2026-04-19T11:47:15.63Z</time></trkpt><trkpt lat="39.4362491" lon="-3.3229903"><ele>645.0</ele><time>2026-04-19T11:47:16.623Z</time></trkpt><trkpt lat="39.4361868" lon="-3.3232225"><ele>645.0</ele><time>2026-04-19T11:47:17.623Z</time></trkpt><trkpt lat="39.4361244" lon="-3.3234534"><ele>645.0</ele><time>2026-04-19T11:47:18.625Z</time></trkpt><trkpt lat="39.4360625" lon="-3.3236829"><ele>645.0</ele><time>2026-04-19T11:47:19.619Z</time></trkpt><trkpt lat="39.4360031" lon="-3.3239127"><ele>645.0</ele><time>2026-04-19T11:47:20.627Z</time></trkpt><trkpt lat="39.4359441" lon="-3.3241442"><ele>645.0</ele><time>2026-04-19T11:47:21.624Z</time></trkpt><trkpt lat="39.4358774" lon="-3.3243752"><ele>645.0</ele><time>2026-04-19T11:47:22.623Z</time></trkpt><trkpt lat="39.4358008" lon="-3.3246036"><ele>644.6666666666666</ele><time>2026-04-19T11:47:23.622Z</time></trkpt><trkpt lat="39.43572" lon="-3.3248245"><ele>644.3333333333333</ele><time>2026-04-19T11:47:24.623Z</time></trkpt><trkpt lat="39.4356389" lon="-3.3250463"><ele>644.0</ele><time>2026-04-19T11:47:25.627Z</time></trkpt><trkpt lat="39.4355537" lon="-3.3252732"><ele>644.0</ele><time>2026-04-19T11:47:26.623Z</time></trkpt><trkpt lat="39.4354708" lon="-3.3255115"><ele>644.0</ele><time>2026-04-19T11:47:27.628Z</time></trkpt><trkpt lat="39.4353932" lon="-3.325774"><ele>644.0</ele><time>2026-04-19T11:47:28.629Z</time></trkpt><trkpt lat="39.4353206" lon="-3.3260594"><ele>644.0</ele><time>2026-04-19T11:47:29.617Z</time></trkpt><trkpt lat="39.4352495" lon="-3.326359"><ele>644.0</ele><time>2026-04-19T11:47:30.624Z</time></trkpt><trkpt lat="39.4351805" lon="-3.3266488"><ele>643.0</ele><time>2026-04-19T11:47:31.625Z</time></trkpt><trkpt lat="39.4351113" lon="-3.3269432"><ele>642.0</ele><time>2026-04-19T11:47:32.623Z</time></trkpt><trkpt lat="39.4350414" lon="-3.3272467"><ele>640.5</ele><time>2026-04-19T11:47:33.626Z</time></trkpt><trkpt lat="39.4349698" lon="-3.3275575"><ele>639.0</ele><time>2026-04-19T11:47:34.624Z</time></trkpt><trkpt lat="39.4348952" lon="-3.3278693"><ele>638.5</ele><time>2026-04-19T11:47:35.624Z</time></trkpt><trkpt lat="39.4348161" lon="-3.3281799"><ele>638.0</ele><time>2026-04-19T11:47:36.627Z</time></trkpt><trkpt lat="39.4347322" lon="-3.328481"><ele>638.5</ele><time>2026-04-19T11:47:37.617Z</time></trkpt><trkpt lat="39.4346343" lon="-3.3287925"><ele>639.0</ele><time>2026-04-19T11:47:38.625Z</time></trkpt><trkpt lat="39.4345225" lon="-3.3291205"><ele>639.0</ele><time>2026-04-19T11:47:39.669Z</time></trkpt><trkpt lat="39.4343997" lon="-3.3294668"><ele>639.0</ele><time>2026-04-19T11:47:40.626Z</time></trkpt><trkpt lat="39.4342668" lon="-3.3298335"><ele>638.0</ele><time>2026-04-19T11:47:41.617Z</time></trkpt><trkpt lat="39.4341281" lon="-3.3302074"><ele>637.0</ele><time>2026-04-19T11:47:42.625Z</time></trkpt><trkpt lat="39.4339857" lon="-3.3305782"><ele>637.0</ele><time>2026-04-19T11:47:43.62Z</time></trkpt><trkpt lat="39.433838" lon="-3.3309547"><ele>637.0</ele><time>2026-04-19T11:47:44.622Z</time></trkpt><trkpt lat="39.433701" lon="-3.3313064"><ele>637.0</ele><time>2026-04-19T11:47:45.63Z</time></trkpt><trkpt lat="39.4335761" lon="-3.3316299"><ele>637.0</ele><time>2026-04-19T11:47:46.626Z</time></trkpt><trkpt lat="39.4334536" lon="-3.3319194"><ele>637.0</ele><time>2026-04-19T11:47:47.627Z</time></trkpt><trkpt lat="39.4333394" lon="-3.3321968"><ele>637.0</ele><time>2026-04-19T11:47:48.623Z</time></trkpt><trkpt lat="39.4332357" lon="-3.3324612"><ele>637.3333333333334</ele><time>2026-04-19T11:47:49.628Z</time></trkpt><trkpt lat="39.4331476" lon="-3.3327158"><ele>637.6666666666666</ele><time>2026-04-19T11:47:50.632Z</time></trkpt><trkpt lat="39.4330542" lon="-3.332954"><ele>638.0</ele><time>2026-04-19T11:47:51.623Z</time></trkpt><trkpt lat="39.4329694" lon="-3.333184"><ele>639.0</ele><time>2026-04-19T11:47:52.628Z</time></trkpt><trkpt lat="39.4328935" lon="-3.3334028"><ele>640.0</ele><time>2026-04-19T11:47:53.629Z</time></trkpt><trkpt lat="39.4328265" lon="-3.3336132"><ele>641.0</ele><time>2026-04-19T11:47:54.615Z</time></trkpt><trkpt lat="39.4327668" lon="-3.3338121"><ele>641.0</ele><time>2026-04-19T11:47:55.627Z</time></trkpt><trkpt lat="39.4327172" lon="-3.3340029"><ele>641.0</ele><time>2026-04-19T11:47:56.63Z</time></trkpt><trkpt lat="39.4326772" lon="-3.3341844"><ele>641.0</ele><time>2026-04-19T11:47:57.619Z</time></trkpt><trkpt lat="39.4326363" lon="-3.3343609"><ele>641.0</ele><time>2026-04-19T11:47:58.617Z</time></trkpt><trkpt lat="39.4325933" lon="-3.3345334"><ele>641.0</ele><time>2026-04-19T11:47:59.624Z</time></trkpt><trkpt lat="39.4325529" lon="-3.3347043"><ele>641.0</ele><time>2026-04-19T11:48:00.619Z</time></trkpt><trkpt lat="39.4325155" lon="-3.3348683"><ele>641.0</ele><time>2026-04-19T11:48:01.615Z</time></trkpt><trkpt lat="39.4324813" lon="-3.3350253"><ele>641.0</ele><time>2026-04-19T11:48:02.626Z</time></trkpt><trkpt lat="39.4324482" lon="-3.3351729"><ele>640.25</ele><time>2026-04-19T11:48:03.627Z</time></trkpt><trkpt lat="39.4324186" lon="-3.3353141"><ele>639.5</ele><time>2026-04-19T11:48:04.618Z</time></trkpt><trkpt lat="39.4323874" lon="-3.3354586"><ele>638.75</ele><time>2026-04-19T11:48:05.634Z</time></trkpt><trkpt lat="39.4323429" lon="-3.3356272"><ele>638.0</ele><time>2026-04-19T11:48:06.625Z</time></trkpt><trkpt lat="39.4322875" lon="-3.3358265"><ele>638.0</ele><time>2026-04-19T11:48:07.624Z</time></trkpt><trkpt lat="39.4322174" lon="-3.3360587"><ele>638.0</ele><time>2026-04-19T11:48:08.63Z</time></trkpt><trkpt lat="39.432131" lon="-3.3363226"><ele>638.0</ele><time>2026-04-19T11:48:09.626Z</time></trkpt><trkpt lat="39.4320359" lon="-3.3366104"><ele>638.0</ele><time>2026-04-19T11:48:10.626Z</time></trkpt><trkpt lat="39.4319342" lon="-3.3369234"><ele>638.0</ele><time>2026-04-19T11:48:11.63Z</time></trkpt><trkpt lat="39.4318294" lon="-3.3372499"><ele>638.5</ele><time>2026-04-19T11:48:12.63Z</time></trkpt><trkpt lat="39.4317196" lon="-3.3375975"><ele>639.0</ele><time>2026-04-19T11:48:13.636Z</time></trkpt><trkpt lat="39.4316064" lon="-3.337967"><ele>638.5</ele><time>2026-04-19T11:48:14.627Z</time></trkpt><trkpt lat="39.4314887" lon="-3.3383519"><ele>638.0</ele><time>2026-04-19T11:48:15.624Z</time></trkpt><trkpt lat="39.4313759" lon="-3.338727"><ele>638.0</ele><time>2026-04-19T11:48:16.629Z</time></trkpt><trkpt lat="39.4312682" lon="-3.3390872"><ele>638.0</ele><time>2026-04-19T11:48:17.636Z</time></trkpt><trkpt lat="39.4311575" lon="-3.3394583"><ele>639.0</ele><time>2026-04-19T11:48:18.625Z</time></trkpt><trkpt lat="39.4310447" lon="-3.3398315"><ele>640.0</ele><time>2026-04-19T11:48:19.627Z</time></trkpt><trkpt lat="39.4309369" lon="-3.3401873"><ele>640.0</ele><time>2026-04-19T11:48:20.63Z</time></trkpt><trkpt lat="39.4308282" lon="-3.340538"><ele>640.0</ele><time>2026-04-19T11:48:21.627Z</time></trkpt><trkpt lat="39.4307141" lon="-3.3408981"><ele>639.5</ele><time>2026-04-19T11:48:22.625Z</time></trkpt><trkpt lat="39.4305996" lon="-3.3412694"><ele>639.0</ele><time>2026-04-19T11:48:23.631Z</time></trkpt><trkpt lat="39.4304879" lon="-3.3416373"><ele>639.0</ele><time>2026-04-19T11:48:24.623Z</time></trkpt><trkpt lat="39.4303786" lon="-3.3419863"><ele>639.0</ele><time>2026-04-19T11:48:25.631Z</time></trkpt><trkpt lat="39.4302651" lon="-3.3423365"><ele>639.0</ele><time>2026-04-19T11:48:26.628Z</time></trkpt><trkpt lat="39.4301528" lon="-3.3426877"><ele>639.0</ele><time>2026-04-19T11:48:27.621Z</time></trkpt><trkpt lat="39.4300368" lon="-3.3430501"><ele>639.0</ele><time>2026-04-19T11:48:28.631Z</time></trkpt><trkpt lat="39.4299272" lon="-3.3433943"><ele>639.0</ele><time>2026-04-19T11:48:29.63Z</time></trkpt><trkpt lat="39.4298215" lon="-3.3437305"><ele>639.5</ele><time>2026-04-19T11:48:30.629Z</time></trkpt><trkpt lat="39.4297209" lon="-3.3440496"><ele>640.0</ele><time>2026-04-19T11:48:31.629Z</time></trkpt><trkpt lat="39.4296256" lon="-3.3443511"><ele>640.0</ele><time>2026-04-19T11:48:32.627Z</time></trkpt><trkpt lat="39.4295357" lon="-3.3446479"><ele>640.0</ele><time>2026-04-19T11:48:33.618Z</time></trkpt><trkpt lat="39.4294461" lon="-3.3449598"><ele>639.5</ele><time>2026-04-19T11:48:34.628Z</time></trkpt><trkpt lat="39.4293547" lon="-3.3452924"><ele>639.0</ele><time>2026-04-19T11:48:35.63Z</time></trkpt><trkpt lat="39.4292611" lon="-3.3456436"><ele>638.5</ele><time>2026-04-19T11:48:36.634Z</time></trkpt><trkpt lat="39.4291729" lon="-3.3459792"><ele>638.0</ele><time>2026-04-19T11:48:37.623Z</time></trkpt><trkpt lat="39.4290919" lon="-3.3462875"><ele>638.3333333333333</ele><time>2026-04-19T11:48:38.628Z</time></trkpt><trkpt lat="39.4290197" lon="-3.3465651"><ele>638.6666666666666</ele><time>2026-04-19T11:48:39.624Z</time></trkpt><trkpt lat="39.4289556" lon="-3.3468126"><ele>639.0</ele><time>2026-04-19T11:48:40.626Z</time></trkpt><trkpt lat="39.4288994" lon="-3.3470326"><ele>639.0</ele><time>2026-04-19T11:48:41.625Z</time></trkpt><trkpt lat="39.428852" lon="-3.3472198"><ele>639.0</ele><time>2026-04-19T11:48:42.626Z</time></trkpt><trkpt lat="39.4288119" lon="-3.3473789"><ele>639.0</ele><time>2026-04-19T11:48:43.625Z</time></trkpt><trkpt lat="39.4287754" lon="-3.3475283"><ele>639.0</ele><time>2026-04-19T11:48:44.627Z</time></trkpt><trkpt lat="39.4287464" lon="-3.347666"><ele>639.0</ele><time>2026-04-19T11:48:45.623Z</time></trkpt><trkpt lat="39.4287201" lon="-3.3478022"><ele>639.0</ele><time>2026-04-19T11:48:46.619Z</time></trkpt><trkpt lat="39.4286886" lon="-3.347947"><ele>639.0</ele><time>2026-04-19T11:48:47.623Z</time></trkpt><trkpt lat="39.4286509" lon="-3.3480943"><ele>639.0</ele><time>2026-04-19T11:48:48.624Z</time></trkpt><trkpt lat="39.4286057" lon="-3.3482185"><ele>640.0</ele><time>2026-04-19T11:48:49.624Z</time></trkpt><trkpt lat="39.4285664" lon="-3.3483636"><ele>640.0</ele><time>2026-04-19T11:48:50.625Z</time></trkpt><trkpt lat="39.4285338" lon="-3.348508"><ele>640.0</ele><time>2026-04-19T11:48:51.632Z</time></trkpt><trkpt lat="39.42849" lon="-3.3486615"><ele>640.0</ele><time>2026-04-19T11:48:52.62Z</time></trkpt></trkseg></trk></gpx>